<?xml version='1.0' encoding='UTF-8'?><gpx version="1.1" creator="JPX - https://github.com/jenetics/jpx" xmlns="http://www.topografix.com/GPX/1/1"><trk><trkseg><trkpt lat="42.3536799" lon="13.4025436"><ele>735.0</ele><time>2026-05-03T06:48:45.286Z</time></trkpt><trkpt lat="42.3537491" lon="13.4024328"><ele>735.0</ele><time>2026-05-03T06:48:47.286Z</time></trkpt><trkpt lat="42.3537342" lon="13.4025601"><ele>735.0</ele><time>2026-05-03T06:48:54.286Z</time></trkpt></trkseg><trkseg><trkpt lat="42.3537853" lon="13.4025873"><ele>735.0</ele><time>2026-05-03T07:01:19.907Z</time></trkpt><trkpt lat="42.3537864" lon="13.402738"><ele>735.0</ele><time>2026-05-03T07:01:30.284Z</time></trkpt><trkpt lat="42.3537702" lon="13.4026185"><ele>735.0</ele><time>2026-05-03T07:01:38.284Z</time></trkpt><trkpt lat="42.3537066" lon="13.402599"><ele>735.0</ele><time>2026-05-03T07:01:40.284Z</time></trkpt><trkpt lat="42.3537599" lon="13.4026938"><ele>735.0</ele><time>2026-05-03T07:01:46.284Z</time></trkpt><trkpt lat="42.3536676" lon="13.4025767"><ele>735.0</ele><time>2026-05-03T07:02:43.284Z</time></trkpt><trkpt lat="42.3536558" lon="13.4024727"><ele>735.0</ele><time>2026-05-03T07:02:48.284Z</time></trkpt><trkpt lat="42.3536425" lon="13.4023535"><ele>735.0</ele><time>2026-05-03T07:02:50.284Z</time></trkpt><trkpt lat="42.3536434" lon="13.4022389"><ele>735.0</ele><time>2026-05-03T07:02:52.284Z</time></trkpt><trkpt lat="42.353695" lon="13.4021867"><ele>735.0</ele><time>2026-05-03T07:03:03.284Z</time></trkpt><trkpt lat="42.353745" lon="13.4021117"><ele>735.0</ele><time>2026-05-03T07:03:17.284Z</time></trkpt><trkpt lat="42.3537317" lon="13.401995"><ele>734.8</ele><time>2026-05-03T07:03:19.284Z</time></trkpt><trkpt lat="42.3537283" lon="13.401875"><ele>734.6</ele><time>2026-05-03T07:03:21.284Z</time></trkpt><trkpt lat="42.3537583" lon="13.4017567"><ele>734.4000000000001</ele><time>2026-05-03T07:03:23.284Z</time></trkpt><trkpt lat="42.35383" lon="13.4016583"><ele>734.2</ele><time>2026-05-03T07:03:25.284Z</time></trkpt><trkpt lat="42.3539217" lon="13.4016267"><ele>734.0</ele><time>2026-05-03T07:03:27.284Z</time></trkpt><trkpt lat="42.35402" lon="13.401685"><ele>733.0</ele><time>2026-05-03T07:03:29.284Z</time></trkpt><trkpt lat="42.3540717" lon="13.401745"><ele>732.0</ele><time>2026-05-03T07:03:30.284Z</time></trkpt><trkpt lat="42.3541333" lon="13.4018217"><ele>731.0</ele><time>2026-05-03T07:03:31.284Z</time></trkpt><trkpt lat="42.354195" lon="13.4019017"><ele>730.0</ele><time>2026-05-03T07:03:32.284Z</time></trkpt><trkpt lat="42.3542567" lon="13.40198"><ele>729.0</ele><time>2026-05-03T07:03:33.284Z</time></trkpt><trkpt lat="42.3543183" lon="13.40205"><ele>728.0</ele><time>2026-05-03T07:03:34.284Z</time></trkpt><trkpt lat="42.35438" lon="13.4021217"><ele>728.5999999999999</ele><time>2026-05-03T07:03:35.284Z</time></trkpt><trkpt lat="42.3544417" lon="13.40219"><ele>729.1999999999999</ele><time>2026-05-03T07:03:36.284Z</time></trkpt><trkpt lat="42.3545" lon="13.4022617"><ele>729.8</ele><time>2026-05-03T07:03:37.285Z</time></trkpt><trkpt lat="42.3545583" lon="13.4023317"><ele>730.4</ele><time>2026-05-03T07:03:38.284Z</time></trkpt><trkpt lat="42.3546133" lon="13.4024"><ele>731.0</ele><time>2026-05-03T07:03:39.284Z</time></trkpt><trkpt lat="42.3547383" lon="13.402545"><ele>729.4</ele><time>2026-05-03T07:03:41.285Z</time></trkpt><trkpt lat="42.3548117" lon="13.4026233"><ele>727.8</ele><time>2026-05-03T07:03:42.284Z</time></trkpt><trkpt lat="42.3548917" lon="13.402705"><ele>726.1999999999999</ele><time>2026-05-03T07:03:43.284Z</time></trkpt><trkpt lat="42.3549733" lon="13.402815"><ele>724.5999999999999</ele><time>2026-05-03T07:03:44.285Z</time></trkpt><trkpt lat="42.3550483" lon="13.4029083"><ele>723.0</ele><time>2026-05-03T07:03:45.284Z</time></trkpt><trkpt lat="42.355105" lon="13.4030083"><ele>723.0</ele><time>2026-05-03T07:03:46.285Z</time></trkpt><trkpt lat="42.3551533" lon="13.4031017"><ele>723.0</ele><time>2026-05-03T07:03:47.284Z</time></trkpt><trkpt lat="42.3551983" lon="13.4031967"><ele>723.0</ele><time>2026-05-03T07:03:48.284Z</time></trkpt><trkpt lat="42.3552433" lon="13.403285"><ele>723.0</ele><time>2026-05-03T07:03:49.284Z</time></trkpt><trkpt lat="42.35528" lon="13.4033833"><ele>723.0</ele><time>2026-05-03T07:03:50.284Z</time></trkpt><trkpt lat="42.35531" lon="13.4034917"><ele>723.0</ele><time>2026-05-03T07:03:51.284Z</time></trkpt><trkpt lat="42.3553417" lon="13.4036083"><ele>723.0</ele><time>2026-05-03T07:03:52.285Z</time></trkpt><trkpt lat="42.3553633" lon="13.4037233"><ele>723.0</ele><time>2026-05-03T07:03:53.284Z</time></trkpt><trkpt lat="42.355385" lon="13.4038317"><ele>723.0</ele><time>2026-05-03T07:03:54.284Z</time></trkpt><trkpt lat="42.355405" lon="13.40394"><ele>723.0</ele><time>2026-05-03T07:03:55.284Z</time></trkpt><trkpt lat="42.35543" lon="13.4040533"><ele>723.0</ele><time>2026-05-03T07:03:56.284Z</time></trkpt><trkpt lat="42.35546" lon="13.404175"><ele>723.0</ele><time>2026-05-03T07:03:57.284Z</time></trkpt><trkpt lat="42.3554867" lon="13.4042983"><ele>724.4</ele><time>2026-05-03T07:03:58.284Z</time></trkpt><trkpt lat="42.3555117" lon="13.40442"><ele>725.8</ele><time>2026-05-03T07:03:59.285Z</time></trkpt><trkpt lat="42.3555367" lon="13.4045483"><ele>727.2</ele><time>2026-05-03T07:04:00.285Z</time></trkpt><trkpt lat="42.35556" lon="13.404675"><ele>728.6</ele><time>2026-05-03T07:04:01.284Z</time></trkpt><trkpt lat="42.3555883" lon="13.4048017"><ele>730.0</ele><time>2026-05-03T07:04:02.284Z</time></trkpt><trkpt lat="42.3556133" lon="13.4049167"><ele>726.4</ele><time>2026-05-03T07:04:03.284Z</time></trkpt><trkpt lat="42.3556333" lon="13.40504"><ele>722.8</ele><time>2026-05-03T07:04:04.284Z</time></trkpt><trkpt lat="42.35566" lon="13.40516"><ele>719.2</ele><time>2026-05-03T07:04:05.284Z</time></trkpt><trkpt lat="42.35568" lon="13.4052717"><ele>715.6</ele><time>2026-05-03T07:04:06.284Z</time></trkpt><trkpt lat="42.355705" lon="13.4053917"><ele>712.0</ele><time>2026-05-03T07:04:07.285Z</time></trkpt><trkpt lat="42.3557283" lon="13.4055083"><ele>712.0</ele><time>2026-05-03T07:04:08.284Z</time></trkpt><trkpt lat="42.3557433" lon="13.40562"><ele>712.0</ele><time>2026-05-03T07:04:09.284Z</time></trkpt><trkpt lat="42.3557533" lon="13.405735"><ele>712.0</ele><time>2026-05-03T07:04:10.285Z</time></trkpt><trkpt lat="42.35576" lon="13.4058583"><ele>712.0</ele><time>2026-05-03T07:04:11.284Z</time></trkpt><trkpt lat="42.3557767" lon="13.4059933"><ele>712.0</ele><time>2026-05-03T07:04:12.284Z</time></trkpt><trkpt lat="42.3557983" lon="13.40612"><ele>712.0</ele><time>2026-05-03T07:04:13.284Z</time></trkpt><trkpt lat="42.3557983" lon="13.4062383"><ele>712.0</ele><time>2026-05-03T07:04:14.285Z</time></trkpt><trkpt lat="42.355785" lon="13.40636"><ele>712.0</ele><time>2026-05-03T07:04:15.284Z</time></trkpt><trkpt lat="42.3557617" lon="13.4064733"><ele>712.0</ele><time>2026-05-03T07:04:16.284Z</time></trkpt><trkpt lat="42.355715" lon="13.40657"><ele>712.0</ele><time>2026-05-03T07:04:17.284Z</time></trkpt><trkpt lat="42.3556633" lon="13.40666"><ele>712.0</ele><time>2026-05-03T07:04:18.284Z</time></trkpt><trkpt lat="42.3556067" lon="13.4067467"><ele>712.0</ele><time>2026-05-03T07:04:19.284Z</time></trkpt><trkpt lat="42.3555417" lon="13.4068217"><ele>712.0</ele><time>2026-05-03T07:04:20.284Z</time></trkpt><trkpt lat="42.3554683" lon="13.4068883"><ele>712.0</ele><time>2026-05-03T07:04:21.284Z</time></trkpt><trkpt lat="42.35539" lon="13.406955"><ele>712.0</ele><time>2026-05-03T07:04:22.285Z</time></trkpt><trkpt lat="42.3553167" lon="13.4070483"><ele>712.0</ele><time>2026-05-03T07:04:23.284Z</time></trkpt><trkpt lat="42.35524" lon="13.407185"><ele>712.0</ele><time>2026-05-03T07:04:24.284Z</time></trkpt><trkpt lat="42.35516" lon="13.4073367"><ele>712.0</ele><time>2026-05-03T07:04:25.284Z</time></trkpt><trkpt lat="42.3550767" lon="13.4074933"><ele>712.0</ele><time>2026-05-03T07:04:26.284Z</time></trkpt><trkpt lat="42.3549883" lon="13.40765"><ele>712.0</ele><time>2026-05-03T07:04:27.284Z</time></trkpt><trkpt lat="42.3549083" lon="13.4078083"><ele>712.0</ele><time>2026-05-03T07:04:28.284Z</time></trkpt><trkpt lat="42.3548367" lon="13.4079583"><ele>712.0</ele><time>2026-05-03T07:04:29.284Z</time></trkpt><trkpt lat="42.3547733" lon="13.4081117"><ele>712.0</ele><time>2026-05-03T07:04:30.284Z</time></trkpt><trkpt lat="42.354705" lon="13.4082633"><ele>712.0</ele><time>2026-05-03T07:04:31.284Z</time></trkpt><trkpt lat="42.354625" lon="13.4084117"><ele>712.5</ele><time>2026-05-03T07:04:32.284Z</time></trkpt><trkpt lat="42.3545367" lon="13.4085583"><ele>713.0</ele><time>2026-05-03T07:04:33.284Z</time></trkpt><trkpt lat="42.3544683" lon="13.4087"><ele>713.5</ele><time>2026-05-03T07:04:34.284Z</time></trkpt><trkpt lat="42.3544" lon="13.4088217"><ele>714.0</ele><time>2026-05-03T07:04:35.284Z</time></trkpt><trkpt lat="42.35433" lon="13.408925"><ele>714.0</ele><time>2026-05-03T07:04:36.284Z</time></trkpt><trkpt lat="42.354255" lon="13.4090383"><ele>714.0</ele><time>2026-05-03T07:04:37.284Z</time></trkpt><trkpt lat="42.354175" lon="13.4091533"><ele>714.0</ele><time>2026-05-03T07:04:38.284Z</time></trkpt><trkpt lat="42.3541083" lon="13.4092733"><ele>714.0</ele><time>2026-05-03T07:04:39.284Z</time></trkpt><trkpt lat="42.354035" lon="13.40938"><ele>714.0</ele><time>2026-05-03T07:04:40.284Z</time></trkpt><trkpt lat="42.353955" lon="13.4094917"><ele>714.2</ele><time>2026-05-03T07:04:41.284Z</time></trkpt><trkpt lat="42.3538683" lon="13.4096067"><ele>714.4000000000001</ele><time>2026-05-03T07:04:42.284Z</time></trkpt><trkpt lat="42.3537933" lon="13.4097083"><ele>714.6</ele><time>2026-05-03T07:04:43.284Z</time></trkpt><trkpt lat="42.3537267" lon="13.4098067"><ele>714.8</ele><time>2026-05-03T07:04:44.284Z</time></trkpt><trkpt lat="42.3536617" lon="13.409895"><ele>715.0</ele><time>2026-05-03T07:04:45.284Z</time></trkpt><trkpt lat="42.3536017" lon="13.4099817"><ele>714.5</ele><time>2026-05-03T07:04:46.284Z</time></trkpt><trkpt lat="42.353525" lon="13.4100883"><ele>714.0</ele><time>2026-05-03T07:04:47.285Z</time></trkpt><trkpt lat="42.3534433" lon="13.4102133"><ele>713.5</ele><time>2026-05-03T07:04:48.284Z</time></trkpt><trkpt lat="42.353345" lon="13.41035"><ele>713.0</ele><time>2026-05-03T07:04:49.285Z</time></trkpt><trkpt lat="42.3532483" lon="13.41049"><ele>713.25</ele><time>2026-05-03T07:04:50.284Z</time></trkpt><trkpt lat="42.35316" lon="13.4106267"><ele>713.5</ele><time>2026-05-03T07:04:51.284Z</time></trkpt><trkpt lat="42.3530817" lon="13.410755"><ele>713.75</ele><time>2026-05-03T07:04:52.284Z</time></trkpt><trkpt lat="42.3530033" lon="13.4108733"><ele>714.0</ele><time>2026-05-03T07:04:53.284Z</time></trkpt><trkpt lat="42.352925" lon="13.4109917"><ele>714.0</ele><time>2026-05-03T07:04:54.284Z</time></trkpt><trkpt lat="42.3528467" lon="13.4111"><ele>714.0</ele><time>2026-05-03T07:04:55.284Z</time></trkpt><trkpt lat="42.35278" lon="13.4112033"><ele>714.0</ele><time>2026-05-03T07:04:56.284Z</time></trkpt><trkpt lat="42.3527183" lon="13.4112933"><ele>714.0</ele><time>2026-05-03T07:04:57.285Z</time></trkpt><trkpt lat="42.35266" lon="13.4113867"><ele>714.0</ele><time>2026-05-03T07:04:58.284Z</time></trkpt><trkpt lat="42.3526" lon="13.4114717"><ele>714.3333333333334</ele><time>2026-05-03T07:04:59.284Z</time></trkpt><trkpt lat="42.35254" lon="13.41156"><ele>714.6666666666666</ele><time>2026-05-03T07:05:00.284Z</time></trkpt><trkpt lat="42.3524867" lon="13.41164"><ele>715.0</ele><time>2026-05-03T07:05:01.284Z</time></trkpt><trkpt lat="42.3524267" lon="13.4117233"><ele>715.3333333333333</ele><time>2026-05-03T07:05:02.284Z</time></trkpt><trkpt lat="42.3523717" lon="13.4118083"><ele>715.6666666666666</ele><time>2026-05-03T07:05:03.284Z</time></trkpt><trkpt lat="42.3523083" lon="13.411905"><ele>716.0</ele><time>2026-05-03T07:05:04.284Z</time></trkpt><trkpt lat="42.35224" lon="13.4120067"><ele>715.8</ele><time>2026-05-03T07:05:05.284Z</time></trkpt><trkpt lat="42.3521783" lon="13.4120983"><ele>715.5999999999999</ele><time>2026-05-03T07:05:06.284Z</time></trkpt><trkpt lat="42.352125" lon="13.4121867"><ele>715.4</ele><time>2026-05-03T07:05:07.284Z</time></trkpt><trkpt lat="42.3520733" lon="13.412295"><ele>715.2</ele><time>2026-05-03T07:05:08.284Z</time></trkpt><trkpt lat="42.35203" lon="13.412415"><ele>715.0</ele><time>2026-05-03T07:05:09.284Z</time></trkpt><trkpt lat="42.3520033" lon="13.4125467"><ele>715.0</ele><time>2026-05-03T07:05:10.284Z</time></trkpt><trkpt lat="42.3519917" lon="13.4126717"><ele>715.0</ele><time>2026-05-03T07:05:11.284Z</time></trkpt><trkpt lat="42.3519967" lon="13.4128117"><ele>715.0</ele><time>2026-05-03T07:05:12.284Z</time></trkpt><trkpt lat="42.352025" lon="13.41294"><ele>715.0</ele><time>2026-05-03T07:05:13.285Z</time></trkpt><trkpt lat="42.3520617" lon="13.41308"><ele>715.0</ele><time>2026-05-03T07:05:14.284Z</time></trkpt><trkpt lat="42.3521183" lon="13.4132183"><ele>715.5</ele><time>2026-05-03T07:05:15.285Z</time></trkpt><trkpt lat="42.3521817" lon="13.4133483"><ele>716.0</ele><time>2026-05-03T07:05:16.284Z</time></trkpt><trkpt lat="42.3522483" lon="13.41348"><ele>716.5</ele><time>2026-05-03T07:05:17.284Z</time></trkpt><trkpt lat="42.3523083" lon="13.41363"><ele>717.0</ele><time>2026-05-03T07:05:18.284Z</time></trkpt><trkpt lat="42.3523683" lon="13.4137617"><ele>717.75</ele><time>2026-05-03T07:05:19.284Z</time></trkpt><trkpt lat="42.35242" lon="13.4139033"><ele>718.5</ele><time>2026-05-03T07:05:20.284Z</time></trkpt><trkpt lat="42.3524467" lon="13.41405"><ele>719.25</ele><time>2026-05-03T07:05:21.284Z</time></trkpt><trkpt lat="42.3524633" lon="13.4142133"><ele>720.0</ele><time>2026-05-03T07:05:22.284Z</time></trkpt><trkpt lat="42.3524683" lon="13.4143733"><ele>720.0</ele><time>2026-05-03T07:05:23.284Z</time></trkpt><trkpt lat="42.3524633" lon="13.414535"><ele>720.0</ele><time>2026-05-03T07:05:24.284Z</time></trkpt><trkpt lat="42.3524433" lon="13.4147017"><ele>720.0</ele><time>2026-05-03T07:05:25.284Z</time></trkpt><trkpt lat="42.3524067" lon="13.414865"><ele>720.0</ele><time>2026-05-03T07:05:26.284Z</time></trkpt><trkpt lat="42.35236" lon="13.4150267"><ele>720.25</ele><time>2026-05-03T07:05:27.284Z</time></trkpt><trkpt lat="42.3522983" lon="13.4151717"><ele>720.5</ele><time>2026-05-03T07:05:28.284Z</time></trkpt><trkpt lat="42.3522267" lon="13.4153217"><ele>720.75</ele><time>2026-05-03T07:05:29.284Z</time></trkpt><trkpt lat="42.3521567" lon="13.415465"><ele>721.0</ele><time>2026-05-03T07:05:30.284Z</time></trkpt><trkpt lat="42.3520783" lon="13.4156117"><ele>721.75</ele><time>2026-05-03T07:05:31.284Z</time></trkpt><trkpt lat="42.3520033" lon="13.4157517"><ele>722.5</ele><time>2026-05-03T07:05:32.284Z</time></trkpt><trkpt lat="42.3519267" lon="13.4159017"><ele>723.25</ele><time>2026-05-03T07:05:33.284Z</time></trkpt><trkpt lat="42.3518467" lon="13.41606"><ele>724.0</ele><time>2026-05-03T07:05:34.284Z</time></trkpt><trkpt lat="42.3517833" lon="13.4162317"><ele>724.75</ele><time>2026-05-03T07:05:35.284Z</time></trkpt><trkpt lat="42.35174" lon="13.4164133"><ele>725.5</ele><time>2026-05-03T07:05:36.284Z</time></trkpt><trkpt lat="42.3517067" lon="13.416605"><ele>726.25</ele><time>2026-05-03T07:05:37.284Z</time></trkpt><trkpt lat="42.3516867" lon="13.4167817"><ele>727.0</ele><time>2026-05-03T07:05:38.284Z</time></trkpt><trkpt lat="42.35167" lon="13.4169567"><ele>727.0</ele><time>2026-05-03T07:05:39.284Z</time></trkpt><trkpt lat="42.3516617" lon="13.4171317"><ele>727.0</ele><time>2026-05-03T07:05:40.284Z</time></trkpt><trkpt lat="42.3516533" lon="13.417305"><ele>727.0</ele><time>2026-05-03T07:05:41.284Z</time></trkpt><trkpt lat="42.3516483" lon="13.4174783"><ele>727.0</ele><time>2026-05-03T07:05:42.284Z</time></trkpt><trkpt lat="42.351645" lon="13.4176567"><ele>727.6</ele><time>2026-05-03T07:05:43.284Z</time></trkpt><trkpt lat="42.3516417" lon="13.4178283"><ele>728.2</ele><time>2026-05-03T07:05:44.284Z</time></trkpt><trkpt lat="42.3516417" lon="13.4179817"><ele>728.8</ele><time>2026-05-03T07:05:45.285Z</time></trkpt><trkpt lat="42.351665" lon="13.41813"><ele>729.4</ele><time>2026-05-03T07:05:46.284Z</time></trkpt><trkpt lat="42.351695" lon="13.4182533"><ele>730.0</ele><time>2026-05-03T07:05:47.284Z</time></trkpt><trkpt lat="42.35173" lon="13.4183633"><ele>730.0</ele><time>2026-05-03T07:05:48.284Z</time></trkpt><trkpt lat="42.3517717" lon="13.4184633"><ele>730.0</ele><time>2026-05-03T07:05:49.284Z</time></trkpt><trkpt lat="42.3518217" lon="13.418555"><ele>730.0</ele><time>2026-05-03T07:05:50.284Z</time></trkpt><trkpt lat="42.3518667" lon="13.4186283"><ele>730.0</ele><time>2026-05-03T07:05:51.284Z</time></trkpt><trkpt lat="42.3519383" lon="13.41876"><ele>730.0</ele><time>2026-05-03T07:05:53.284Z</time></trkpt><trkpt lat="42.351945" lon="13.4189183"><ele>730.2</ele><time>2026-05-03T07:05:55.284Z</time></trkpt><trkpt lat="42.35191" lon="13.4190467"><ele>730.4</ele><time>2026-05-03T07:05:57.284Z</time></trkpt><trkpt lat="42.3518867" lon="13.419205"><ele>730.5999999999999</ele><time>2026-05-03T07:05:59.284Z</time></trkpt><trkpt lat="42.3519117" lon="13.4193767"><ele>730.8</ele><time>2026-05-03T07:06:01.284Z</time></trkpt><trkpt lat="42.35196" lon="13.419475"><ele>731.0</ele><time>2026-05-03T07:06:02.285Z</time></trkpt><trkpt lat="42.3520217" lon="13.41957"><ele>731.4</ele><time>2026-05-03T07:06:03.284Z</time></trkpt><trkpt lat="42.352085" lon="13.4196717"><ele>731.8</ele><time>2026-05-03T07:06:04.284Z</time></trkpt><trkpt lat="42.35214" lon="13.41979"><ele>732.1999999999999</ele><time>2026-05-03T07:06:05.284Z</time></trkpt><trkpt lat="42.3521817" lon="13.4199117"><ele>732.5999999999999</ele><time>2026-05-03T07:06:06.285Z</time></trkpt><trkpt lat="42.3521867" lon="13.420045"><ele>733.0</ele><time>2026-05-03T07:06:07.284Z</time></trkpt><trkpt lat="42.352185" lon="13.420185"><ele>733.0</ele><time>2026-05-03T07:06:08.284Z</time></trkpt><trkpt lat="42.352185" lon="13.4203217"><ele>733.0</ele><time>2026-05-03T07:06:09.284Z</time></trkpt><trkpt lat="42.3521833" lon="13.4204567"><ele>733.0</ele><time>2026-05-03T07:06:10.284Z</time></trkpt><trkpt lat="42.3521967" lon="13.4206033"><ele>733.0</ele><time>2026-05-03T07:06:11.284Z</time></trkpt><trkpt lat="42.352225" lon="13.4207483"><ele>733.0</ele><time>2026-05-03T07:06:12.284Z</time></trkpt><trkpt lat="42.3522583" lon="13.420895"><ele>734.5999999999999</ele><time>2026-05-03T07:06:13.284Z</time></trkpt><trkpt lat="42.3523" lon="13.4210467"><ele>736.1999999999999</ele><time>2026-05-03T07:06:14.284Z</time></trkpt><trkpt lat="42.35234" lon="13.421185"><ele>737.8</ele><time>2026-05-03T07:06:15.284Z</time></trkpt><trkpt lat="42.3523767" lon="13.42131"><ele>739.4</ele><time>2026-05-03T07:06:16.284Z</time></trkpt><trkpt lat="42.3524" lon="13.4214267"><ele>741.0</ele><time>2026-05-03T07:06:17.284Z</time></trkpt><trkpt lat="42.3524083" lon="13.4215433"><ele>741.5</ele><time>2026-05-03T07:06:18.285Z</time></trkpt><trkpt lat="42.3524067" lon="13.421665"><ele>742.0</ele><time>2026-05-03T07:06:19.284Z</time></trkpt><trkpt lat="42.3523917" lon="13.4217733"><ele>742.5</ele><time>2026-05-03T07:06:20.284Z</time></trkpt><trkpt lat="42.35238" lon="13.4218633"><ele>743.0</ele><time>2026-05-03T07:06:21.285Z</time></trkpt><trkpt lat="42.3523683" lon="13.42196"><ele>743.5</ele><time>2026-05-03T07:06:22.284Z</time></trkpt><trkpt lat="42.3523567" lon="13.422075"><ele>744.0</ele><time>2026-05-03T07:06:23.284Z</time></trkpt><trkpt lat="42.3523567" lon="13.422225"><ele>742.25</ele><time>2026-05-03T07:06:24.284Z</time></trkpt><trkpt lat="42.352365" lon="13.4223883"><ele>740.5</ele><time>2026-05-03T07:06:25.284Z</time></trkpt><trkpt lat="42.35238" lon="13.4225533"><ele>738.75</ele><time>2026-05-03T07:06:26.284Z</time></trkpt><trkpt lat="42.3523933" lon="13.4227233"><ele>737.0</ele><time>2026-05-03T07:06:27.284Z</time></trkpt><trkpt lat="42.35241" lon="13.42288"><ele>735.0</ele><time>2026-05-03T07:06:28.284Z</time></trkpt><trkpt lat="42.3524217" lon="13.4230183"><ele>733.0</ele><time>2026-05-03T07:06:29.284Z</time></trkpt><trkpt lat="42.3524417" lon="13.423145"><ele>731.0</ele><time>2026-05-03T07:06:30.284Z</time></trkpt><trkpt lat="42.35245" lon="13.4232617"><ele>729.0</ele><time>2026-05-03T07:06:31.284Z</time></trkpt><trkpt lat="42.3524533" lon="13.4233883"><ele>727.0</ele><time>2026-05-03T07:06:32.284Z</time></trkpt><trkpt lat="42.3524517" lon="13.4235267"><ele>727.0</ele><time>2026-05-03T07:06:33.284Z</time></trkpt><trkpt lat="42.3524383" lon="13.4236817"><ele>727.0</ele><time>2026-05-03T07:06:34.284Z</time></trkpt><trkpt lat="42.3524117" lon="13.4238433"><ele>727.0</ele><time>2026-05-03T07:06:35.284Z</time></trkpt><trkpt lat="42.3523817" lon="13.4240083"><ele>727.0</ele><time>2026-05-03T07:06:36.284Z</time></trkpt><trkpt lat="42.3523467" lon="13.4241783"><ele>725.5</ele><time>2026-05-03T07:06:37.285Z</time></trkpt><trkpt lat="42.3523167" lon="13.4243417"><ele>724.0</ele><time>2026-05-03T07:06:38.284Z</time></trkpt><trkpt lat="42.3522783" lon="13.4245017"><ele>722.5</ele><time>2026-05-03T07:06:39.284Z</time></trkpt><trkpt lat="42.3522383" lon="13.4246683"><ele>721.0</ele><time>2026-05-03T07:06:40.284Z</time></trkpt><trkpt lat="42.3522017" lon="13.4248333"><ele>719.25</ele><time>2026-05-03T07:06:41.284Z</time></trkpt><trkpt lat="42.352155" lon="13.4249767"><ele>717.5</ele><time>2026-05-03T07:06:42.284Z</time></trkpt><trkpt lat="42.3520967" lon="13.4251183"><ele>715.75</ele><time>2026-05-03T07:06:43.284Z</time></trkpt><trkpt lat="42.3520283" lon="13.4252633"><ele>714.0</ele><time>2026-05-03T07:06:44.284Z</time></trkpt><trkpt lat="42.35195" lon="13.425405"><ele>715.0</ele><time>2026-05-03T07:06:45.284Z</time></trkpt><trkpt lat="42.3518667" lon="13.42556"><ele>716.0</ele><time>2026-05-03T07:06:46.284Z</time></trkpt><trkpt lat="42.3517867" lon="13.42573"><ele>717.0</ele><time>2026-05-03T07:06:47.284Z</time></trkpt><trkpt lat="42.3517083" lon="13.4258883"><ele>718.0</ele><time>2026-05-03T07:06:48.284Z</time></trkpt><trkpt lat="42.3516417" lon="13.4260283"><ele>718.0</ele><time>2026-05-03T07:06:49.284Z</time></trkpt><trkpt lat="42.3515817" lon="13.426175"><ele>718.0</ele><time>2026-05-03T07:06:50.284Z</time></trkpt><trkpt lat="42.3515233" lon="13.4263333"><ele>718.0</ele><time>2026-05-03T07:06:51.284Z</time></trkpt><trkpt lat="42.3514717" lon="13.4264917"><ele>718.0</ele><time>2026-05-03T07:06:52.284Z</time></trkpt><trkpt lat="42.3514267" lon="13.4266617"><ele>720.2</ele><time>2026-05-03T07:06:53.284Z</time></trkpt><trkpt lat="42.3514017" lon="13.4268283"><ele>722.4</ele><time>2026-05-03T07:06:54.284Z</time></trkpt><trkpt lat="42.3513833" lon="13.4269883"><ele>724.6</ele><time>2026-05-03T07:06:55.284Z</time></trkpt><trkpt lat="42.3513617" lon="13.4271283"><ele>726.8000000000001</ele><time>2026-05-03T07:06:56.285Z</time></trkpt><trkpt lat="42.35135" lon="13.4272567"><ele>729.0</ele><time>2026-05-03T07:06:57.285Z</time></trkpt><trkpt lat="42.3513367" lon="13.4273683"><ele>730.0</ele><time>2026-05-03T07:06:58.285Z</time></trkpt><trkpt lat="42.3513133" lon="13.4274683"><ele>731.0</ele><time>2026-05-03T07:06:59.284Z</time></trkpt><trkpt lat="42.3512833" lon="13.4275583"><ele>732.0</ele><time>2026-05-03T07:07:00.284Z</time></trkpt><trkpt lat="42.351255" lon="13.4276467"><ele>733.0</ele><time>2026-05-03T07:07:01.284Z</time></trkpt><trkpt lat="42.351225" lon="13.4277217"><ele>734.0</ele><time>2026-05-03T07:07:02.284Z</time></trkpt><trkpt lat="42.3511583" lon="13.4278167"><ele>735.0</ele><time>2026-05-03T07:07:04.284Z</time></trkpt><trkpt lat="42.3510883" lon="13.4278833"><ele>734.3333333333334</ele><time>2026-05-03T07:07:06.285Z</time></trkpt><trkpt lat="42.351045" lon="13.42798"><ele>733.6666666666666</ele><time>2026-05-03T07:07:08.284Z</time></trkpt><trkpt lat="42.3510317" lon="13.42807"><ele>733.0</ele><time>2026-05-03T07:07:10.284Z</time></trkpt><trkpt lat="42.3510783" lon="13.4281567"><ele>732.3333333333333</ele><time>2026-05-03T07:07:13.284Z</time></trkpt><trkpt lat="42.3511833" lon="13.428245"><ele>731.6666666666666</ele><time>2026-05-03T07:07:15.284Z</time></trkpt><trkpt lat="42.3512567" lon="13.4282917"><ele>731.0</ele><time>2026-05-03T07:07:16.284Z</time></trkpt><trkpt lat="42.3513283" lon="13.4283283"><ele>733.0</ele><time>2026-05-03T07:07:17.284Z</time></trkpt><trkpt lat="42.35141" lon="13.42836"><ele>735.0</ele><time>2026-05-03T07:07:18.285Z</time></trkpt><trkpt lat="42.3514833" lon="13.4283867"><ele>737.0</ele><time>2026-05-03T07:07:19.284Z</time></trkpt><trkpt lat="42.351585" lon="13.4284333"><ele>739.0</ele><time>2026-05-03T07:07:21.284Z</time></trkpt><trkpt lat="42.351665" lon="13.4285467"><ele>741.0</ele><time>2026-05-03T07:07:23.285Z</time></trkpt><trkpt lat="42.3517183" lon="13.4286283"><ele>741.0</ele><time>2026-05-03T07:07:24.284Z</time></trkpt><trkpt lat="42.3517717" lon="13.4287167"><ele>741.0</ele><time>2026-05-03T07:07:25.284Z</time></trkpt><trkpt lat="42.3518117" lon="13.42879"><ele>741.0</ele><time>2026-05-03T07:07:26.285Z</time></trkpt><trkpt lat="42.3518633" lon="13.4289183"><ele>741.0</ele><time>2026-05-03T07:07:28.284Z</time></trkpt><trkpt lat="42.3518817" lon="13.4290567"><ele>741.0</ele><time>2026-05-03T07:07:30.284Z</time></trkpt><trkpt lat="42.3518717" lon="13.429145"><ele>741.0</ele><time>2026-05-03T07:07:31.284Z</time></trkpt><trkpt lat="42.3518467" lon="13.4292467"><ele>741.1999999999999</ele><time>2026-05-03T07:07:32.285Z</time></trkpt><trkpt lat="42.351805" lon="13.42937"><ele>741.4</ele><time>2026-05-03T07:07:33.284Z</time></trkpt><trkpt lat="42.35175" lon="13.4294933"><ele>741.6</ele><time>2026-05-03T07:07:34.285Z</time></trkpt><trkpt lat="42.35169" lon="13.4296167"><ele>741.8</ele><time>2026-05-03T07:07:35.284Z</time></trkpt><trkpt lat="42.3516317" lon="13.4297417"><ele>742.0</ele><time>2026-05-03T07:07:36.284Z</time></trkpt><trkpt lat="42.35158" lon="13.429855"><ele>742.3333333333334</ele><time>2026-05-03T07:07:37.284Z</time></trkpt><trkpt lat="42.3515233" lon="13.4299483"><ele>742.6666666666667</ele><time>2026-05-03T07:07:38.284Z</time></trkpt><trkpt lat="42.3514667" lon="13.4300233"><ele>743.0</ele><time>2026-05-03T07:07:39.285Z</time></trkpt><trkpt lat="42.351405" lon="13.4300717"><ele>743.3333333333334</ele><time>2026-05-03T07:07:40.284Z</time></trkpt><trkpt lat="42.351335" lon="13.4300833"><ele>743.6666666666666</ele><time>2026-05-03T07:07:41.284Z</time></trkpt><trkpt lat="42.351245" lon="13.4300633"><ele>744.0</ele><time>2026-05-03T07:07:42.284Z</time></trkpt><trkpt lat="42.3511433" lon="13.4300217"><ele>741.6</ele><time>2026-05-03T07:07:43.284Z</time></trkpt><trkpt lat="42.3510383" lon="13.4299733"><ele>739.2</ele><time>2026-05-03T07:07:44.284Z</time></trkpt><trkpt lat="42.3509283" lon="13.429955"><ele>736.8000000000001</ele><time>2026-05-03T07:07:45.284Z</time></trkpt><trkpt lat="42.35083" lon="13.4299583"><ele>734.4000000000001</ele><time>2026-05-03T07:07:46.284Z</time></trkpt><trkpt lat="42.350735" lon="13.4299783"><ele>732.0</ele><time>2026-05-03T07:07:47.285Z</time></trkpt><trkpt lat="42.3506517" lon="13.4300183"><ele>732.0</ele><time>2026-05-03T07:07:48.284Z</time></trkpt><trkpt lat="42.3505783" lon="13.4300883"><ele>732.0</ele><time>2026-05-03T07:07:49.285Z</time></trkpt><trkpt lat="42.3505083" lon="13.4301733"><ele>732.0</ele><time>2026-05-03T07:07:50.284Z</time></trkpt><trkpt lat="42.35044" lon="13.4302817"><ele>732.0</ele><time>2026-05-03T07:07:51.285Z</time></trkpt><trkpt lat="42.3503667" lon="13.4304017"><ele>732.0</ele><time>2026-05-03T07:07:52.284Z</time></trkpt><trkpt lat="42.3502933" lon="13.4305367"><ele>731.0</ele><time>2026-05-03T07:07:53.284Z</time></trkpt><trkpt lat="42.35021" lon="13.4306667"><ele>730.0</ele><time>2026-05-03T07:07:54.285Z</time></trkpt><trkpt lat="42.3501317" lon="13.4307833"><ele>729.0</ele><time>2026-05-03T07:07:55.284Z</time></trkpt><trkpt lat="42.35005" lon="13.4308833"><ele>728.0</ele><time>2026-05-03T07:07:56.284Z</time></trkpt><trkpt lat="42.349965" lon="13.4309533"><ele>728.0</ele><time>2026-05-03T07:07:57.284Z</time></trkpt><trkpt lat="42.34987" lon="13.4310083"><ele>728.0</ele><time>2026-05-03T07:07:58.285Z</time></trkpt><trkpt lat="42.349765" lon="13.4310567"><ele>728.0</ele><time>2026-05-03T07:07:59.284Z</time></trkpt><trkpt lat="42.3496617" lon="13.4310767"><ele>728.0</ele><time>2026-05-03T07:08:00.284Z</time></trkpt><trkpt lat="42.349565" lon="13.4310733"><ele>728.0</ele><time>2026-05-03T07:08:01.284Z</time></trkpt><trkpt lat="42.3494717" lon="13.431045"><ele>726.5999999999999</ele><time>2026-05-03T07:08:02.284Z</time></trkpt><trkpt lat="42.3493767" lon="13.431025"><ele>725.1999999999999</ele><time>2026-05-03T07:08:03.284Z</time></trkpt><trkpt lat="42.3492867" lon="13.4310217"><ele>723.8</ele><time>2026-05-03T07:08:04.284Z</time></trkpt><trkpt lat="42.3491933" lon="13.43104"><ele>722.4</ele><time>2026-05-03T07:08:05.284Z</time></trkpt><trkpt lat="42.349095" lon="13.4310767"><ele>721.0</ele><time>2026-05-03T07:08:06.285Z</time></trkpt><trkpt lat="42.3489867" lon="13.4311317"><ele>721.0</ele><time>2026-05-03T07:08:07.284Z</time></trkpt><trkpt lat="42.3488733" lon="13.4312"><ele>721.0</ele><time>2026-05-03T07:08:08.284Z</time></trkpt><trkpt lat="42.3487617" lon="13.43127"><ele>721.0</ele><time>2026-05-03T07:08:09.285Z</time></trkpt><trkpt lat="42.3486567" lon="13.43134"><ele>721.0</ele><time>2026-05-03T07:08:10.284Z</time></trkpt><trkpt lat="42.3485533" lon="13.4314133"><ele>721.0</ele><time>2026-05-03T07:08:11.284Z</time></trkpt><trkpt lat="42.34844" lon="13.431485"><ele>721.0</ele><time>2026-05-03T07:08:12.284Z</time></trkpt><trkpt lat="42.348315" lon="13.4315517"><ele>721.0</ele><time>2026-05-03T07:08:13.284Z</time></trkpt><trkpt lat="42.348185" lon="13.4316083"><ele>721.0</ele><time>2026-05-03T07:08:14.284Z</time></trkpt><trkpt lat="42.34806" lon="13.4316567"><ele>718.5</ele><time>2026-05-03T07:08:15.284Z</time></trkpt><trkpt lat="42.3479417" lon="13.4317067"><ele>716.0</ele><time>2026-05-03T07:08:16.284Z</time></trkpt><trkpt lat="42.34783" lon="13.431765"><ele>713.5</ele><time>2026-05-03T07:08:17.284Z</time></trkpt><trkpt lat="42.347715" lon="13.4318283"><ele>711.0</ele><time>2026-05-03T07:08:18.284Z</time></trkpt><trkpt lat="42.347595" lon="13.4319083"><ele>711.0</ele><time>2026-05-03T07:08:19.284Z</time></trkpt><trkpt lat="42.3474517" lon="13.4319917"><ele>711.0</ele><time>2026-05-03T07:08:20.284Z</time></trkpt><trkpt lat="42.3472983" lon="13.4320667"><ele>711.0</ele><time>2026-05-03T07:08:21.284Z</time></trkpt><trkpt lat="42.34716" lon="13.4321433"><ele>711.5</ele><time>2026-05-03T07:08:22.285Z</time></trkpt><trkpt lat="42.3470317" lon="13.4322183"><ele>712.0</ele><time>2026-05-03T07:08:23.285Z</time></trkpt><trkpt lat="42.3469033" lon="13.432295"><ele>712.5</ele><time>2026-05-03T07:08:24.284Z</time></trkpt><trkpt lat="42.3467867" lon="13.4323867"><ele>713.0</ele><time>2026-05-03T07:08:25.284Z</time></trkpt><trkpt lat="42.34668" lon="13.4324783"><ele>713.0</ele><time>2026-05-03T07:08:26.284Z</time></trkpt><trkpt lat="42.346575" lon="13.4325833"><ele>713.0</ele><time>2026-05-03T07:08:27.284Z</time></trkpt><trkpt lat="42.3464717" lon="13.4326883"><ele>713.0</ele><time>2026-05-03T07:08:28.284Z</time></trkpt><trkpt lat="42.3463733" lon="13.4327867"><ele>713.0</ele><time>2026-05-03T07:08:29.284Z</time></trkpt><trkpt lat="42.3462733" lon="13.4328667"><ele>713.1666666666666</ele><time>2026-05-03T07:08:30.284Z</time></trkpt><trkpt lat="42.34618" lon="13.4329367"><ele>713.3333333333333</ele><time>2026-05-03T07:08:31.284Z</time></trkpt><trkpt lat="42.3460933" lon="13.4329883"><ele>713.5</ele><time>2026-05-03T07:08:32.284Z</time></trkpt><trkpt lat="42.3460183" lon="13.43304"><ele>713.6666666666666</ele><time>2026-05-03T07:08:33.285Z</time></trkpt><trkpt lat="42.345955" lon="13.4330933"><ele>713.8333333333334</ele><time>2026-05-03T07:08:34.284Z</time></trkpt><trkpt lat="42.3458983" lon="13.4331367"><ele>714.0</ele><time>2026-05-03T07:08:35.284Z</time></trkpt><trkpt lat="42.3458383" lon="13.433175"><ele>714.0</ele><time>2026-05-03T07:08:36.284Z</time></trkpt><trkpt lat="42.3457833" lon="13.4332233"><ele>714.0</ele><time>2026-05-03T07:08:37.284Z</time></trkpt><trkpt lat="42.34573" lon="13.4332767"><ele>714.0</ele><time>2026-05-03T07:08:38.284Z</time></trkpt><trkpt lat="42.3456717" lon="13.43332"><ele>714.0</ele><time>2026-05-03T07:08:39.284Z</time></trkpt><trkpt lat="42.34561" lon="13.43336"><ele>714.0</ele><time>2026-05-03T07:08:40.285Z</time></trkpt><trkpt lat="42.3455467" lon="13.4333983"><ele>714.0</ele><time>2026-05-03T07:08:41.284Z</time></trkpt><trkpt lat="42.3454817" lon="13.433435"><ele>714.0</ele><time>2026-05-03T07:08:42.284Z</time></trkpt><trkpt lat="42.3454233" lon="13.433485"><ele>712.8333333333334</ele><time>2026-05-03T07:08:43.284Z</time></trkpt><trkpt lat="42.3453733" lon="13.4335417"><ele>711.6666666666666</ele><time>2026-05-03T07:08:44.284Z</time></trkpt><trkpt lat="42.3453167" lon="13.4336217"><ele>710.5</ele><time>2026-05-03T07:08:45.284Z</time></trkpt><trkpt lat="42.3452517" lon="13.4337117"><ele>709.3333333333333</ele><time>2026-05-03T07:08:46.284Z</time></trkpt><trkpt lat="42.34519" lon="13.4338067"><ele>708.1666666666666</ele><time>2026-05-03T07:08:47.284Z</time></trkpt><trkpt lat="42.345135" lon="13.4339067"><ele>707.0</ele><time>2026-05-03T07:08:48.284Z</time></trkpt><trkpt lat="42.3450833" lon="13.4340133"><ele>707.0</ele><time>2026-05-03T07:08:49.284Z</time></trkpt><trkpt lat="42.3450183" lon="13.4341333"><ele>707.0</ele><time>2026-05-03T07:08:50.284Z</time></trkpt><trkpt lat="42.3449533" lon="13.4342783"><ele>707.0</ele><time>2026-05-03T07:08:51.284Z</time></trkpt><trkpt lat="42.3448967" lon="13.4344017"><ele>707.0</ele><time>2026-05-03T07:08:52.284Z</time></trkpt><trkpt lat="42.3448433" lon="13.434525"><ele>707.0</ele><time>2026-05-03T07:08:53.284Z</time></trkpt><trkpt lat="42.3447917" lon="13.434645"><ele>708.0</ele><time>2026-05-03T07:08:54.284Z</time></trkpt><trkpt lat="42.34475" lon="13.4347517"><ele>709.0</ele><time>2026-05-03T07:08:55.284Z</time></trkpt><trkpt lat="42.34471" lon="13.4348483"><ele>710.0</ele><time>2026-05-03T07:08:56.284Z</time></trkpt><trkpt lat="42.3446683" lon="13.434935"><ele>711.0</ele><time>2026-05-03T07:08:57.284Z</time></trkpt><trkpt lat="42.34464" lon="13.4350167"><ele>712.0</ele><time>2026-05-03T07:08:58.284Z</time></trkpt><trkpt lat="42.344605" lon="13.4350967"><ele>713.0</ele><time>2026-05-03T07:08:59.284Z</time></trkpt><trkpt lat="42.3445733" lon="13.435175"><ele>714.0</ele><time>2026-05-03T07:09:00.284Z</time></trkpt><trkpt lat="42.34452" lon="13.4353333"><ele>711.1666666666666</ele><time>2026-05-03T07:09:02.284Z</time></trkpt><trkpt lat="42.34449" lon="13.4354183"><ele>708.3333333333334</ele><time>2026-05-03T07:09:03.284Z</time></trkpt><trkpt lat="42.3444583" lon="13.4354933"><ele>705.5</ele><time>2026-05-03T07:09:04.284Z</time></trkpt><trkpt lat="42.34443" lon="13.43557"><ele>702.6666666666667</ele><time>2026-05-03T07:09:05.284Z</time></trkpt><trkpt lat="42.344395" lon="13.4356467"><ele>699.8333333333334</ele><time>2026-05-03T07:09:06.284Z</time></trkpt><trkpt lat="42.34436" lon="13.43573"><ele>697.0</ele><time>2026-05-03T07:09:07.284Z</time></trkpt><trkpt lat="42.3443067" lon="13.4358867"><ele>697.0</ele><time>2026-05-03T07:09:09.284Z</time></trkpt><trkpt lat="42.3442967" lon="13.4359783"><ele>697.0</ele><time>2026-05-03T07:09:10.284Z</time></trkpt><trkpt lat="42.3442883" lon="13.4360867"><ele>697.0</ele><time>2026-05-03T07:09:11.284Z</time></trkpt><trkpt lat="42.3442817" lon="13.4362133"><ele>697.0</ele><time>2026-05-03T07:09:12.284Z</time></trkpt><trkpt lat="42.3442567" lon="13.4363583"><ele>697.0</ele><time>2026-05-03T07:09:13.284Z</time></trkpt><trkpt lat="42.344245" lon="13.43648"><ele>697.0</ele><time>2026-05-03T07:09:14.284Z</time></trkpt><trkpt lat="42.3442383" lon="13.4365833"><ele>696.8571428571429</ele><time>2026-05-03T07:09:15.284Z</time></trkpt><trkpt lat="42.3442433" lon="13.43667"><ele>696.7142857142857</ele><time>2026-05-03T07:09:16.284Z</time></trkpt><trkpt lat="42.344235" lon="13.4367683"><ele>696.5714285714286</ele><time>2026-05-03T07:09:17.284Z</time></trkpt><trkpt lat="42.3442267" lon="13.43686"><ele>696.4285714285714</ele><time>2026-05-03T07:09:18.284Z</time></trkpt><trkpt lat="42.344205" lon="13.4369567"><ele>696.2857142857143</ele><time>2026-05-03T07:09:19.284Z</time></trkpt><trkpt lat="42.3441683" lon="13.4370517"><ele>696.1428571428571</ele><time>2026-05-03T07:09:20.284Z</time></trkpt><trkpt lat="42.344135" lon="13.4371417"><ele>696.0</ele><time>2026-05-03T07:09:21.285Z</time></trkpt><trkpt lat="42.34411" lon="13.437225"><ele>697.4</ele><time>2026-05-03T07:09:22.284Z</time></trkpt><trkpt lat="42.344085" lon="13.4373933"><ele>698.8</ele><time>2026-05-03T07:09:24.284Z</time></trkpt><trkpt lat="42.3440817" lon="13.4374883"><ele>700.1999999999999</ele><time>2026-05-03T07:09:25.284Z</time></trkpt><trkpt lat="42.3440717" lon="13.4375917"><ele>701.5999999999999</ele><time>2026-05-03T07:09:26.284Z</time></trkpt><trkpt lat="42.3440433" lon="13.4377067"><ele>703.0</ele><time>2026-05-03T07:09:27.284Z</time></trkpt><trkpt lat="42.3440217" lon="13.4378233"><ele>703.0</ele><time>2026-05-03T07:09:28.284Z</time></trkpt><trkpt lat="42.344005" lon="13.43794"><ele>703.0</ele><time>2026-05-03T07:09:29.284Z</time></trkpt><trkpt lat="42.3439917" lon="13.4380533"><ele>703.0</ele><time>2026-05-03T07:09:30.284Z</time></trkpt><trkpt lat="42.343975" lon="13.4381617"><ele>703.0</ele><time>2026-05-03T07:09:31.284Z</time></trkpt><trkpt lat="42.34396" lon="13.4382683"><ele>703.0</ele><time>2026-05-03T07:09:32.284Z</time></trkpt><trkpt lat="42.3439417" lon="13.4383717"><ele>703.0</ele><time>2026-05-03T07:09:33.284Z</time></trkpt><trkpt lat="42.3439333" lon="13.438475"><ele>701.8333333333334</ele><time>2026-05-03T07:09:34.284Z</time></trkpt><trkpt lat="42.3439133" lon="13.4385683"><ele>700.6666666666667</ele><time>2026-05-03T07:09:35.284Z</time></trkpt><trkpt lat="42.3438817" lon="13.4386617"><ele>699.5</ele><time>2026-05-03T07:09:36.284Z</time></trkpt><trkpt lat="42.3438433" lon="13.4387567"><ele>698.3333333333334</ele><time>2026-05-03T07:09:37.284Z</time></trkpt><trkpt lat="42.3437967" lon="13.4388367"><ele>697.1666666666666</ele><time>2026-05-03T07:09:38.284Z</time></trkpt><trkpt lat="42.3437533" lon="13.4389"><ele>696.0</ele><time>2026-05-03T07:09:39.284Z</time></trkpt><trkpt lat="42.3436433" lon="13.4390033"><ele>696.0</ele><time>2026-05-03T07:09:41.284Z</time></trkpt><trkpt lat="42.343585" lon="13.4390533"><ele>696.0</ele><time>2026-05-03T07:09:42.284Z</time></trkpt><trkpt lat="42.3435267" lon="13.43911"><ele>696.0</ele><time>2026-05-03T07:09:43.284Z</time></trkpt><trkpt lat="42.343465" lon="13.4391867"><ele>696.0</ele><time>2026-05-03T07:09:44.284Z</time></trkpt><trkpt lat="42.3433983" lon="13.439275"><ele>696.0</ele><time>2026-05-03T07:09:45.284Z</time></trkpt><trkpt lat="42.3433383" lon="13.4393483"><ele>696.0</ele><time>2026-05-03T07:09:46.284Z</time></trkpt><trkpt lat="42.343255" lon="13.43945"><ele>696.0</ele><time>2026-05-03T07:09:48.284Z</time></trkpt><trkpt lat="42.3431767" lon="13.43955"><ele>696.0</ele><time>2026-05-03T07:09:50.284Z</time></trkpt><trkpt lat="42.3430967" lon="13.4396767"><ele>696.0</ele><time>2026-05-03T07:09:52.285Z</time></trkpt><trkpt lat="42.343005" lon="13.4397733"><ele>696.0</ele><time>2026-05-03T07:09:54.284Z</time></trkpt><trkpt lat="42.3429083" lon="13.4398517"><ele>695.6666666666666</ele><time>2026-05-03T07:09:56.284Z</time></trkpt><trkpt lat="42.3428" lon="13.4398867"><ele>695.3333333333334</ele><time>2026-05-03T07:09:58.284Z</time></trkpt><trkpt lat="42.3426867" lon="13.4398917"><ele>695.0</ele><time>2026-05-03T07:10:00.284Z</time></trkpt><trkpt lat="42.34262" lon="13.4398817"><ele>694.6666666666667</ele><time>2026-05-03T07:10:01.284Z</time></trkpt><trkpt lat="42.3425517" lon="13.4398733"><ele>694.3333333333334</ele><time>2026-05-03T07:10:02.284Z</time></trkpt><trkpt lat="42.3424867" lon="13.4398667"><ele>694.0</ele><time>2026-05-03T07:10:03.284Z</time></trkpt><trkpt lat="42.3423783" lon="13.43988"><ele>694.0</ele><time>2026-05-03T07:10:05.284Z</time></trkpt><trkpt lat="42.3422867" lon="13.4399283"><ele>694.0</ele><time>2026-05-03T07:10:07.284Z</time></trkpt><trkpt lat="42.3421967" lon="13.4399867"><ele>694.0</ele><time>2026-05-03T07:10:09.284Z</time></trkpt><trkpt lat="42.3420917" lon="13.4400433"><ele>694.0</ele><time>2026-05-03T07:10:11.285Z</time></trkpt><trkpt lat="42.3419983" lon="13.4400717"><ele>694.0</ele><time>2026-05-03T07:10:13.284Z</time></trkpt><trkpt lat="42.3418967" lon="13.4401067"><ele>692.0</ele><time>2026-05-03T07:10:15.284Z</time></trkpt><trkpt lat="42.3417933" lon="13.4401383"><ele>690.0</ele><time>2026-05-03T07:10:17.285Z</time></trkpt><trkpt lat="42.3416867" lon="13.4401767"><ele>688.0</ele><time>2026-05-03T07:10:19.284Z</time></trkpt><trkpt lat="42.3415883" lon="13.4402"><ele>686.0</ele><time>2026-05-03T07:10:21.284Z</time></trkpt><trkpt lat="42.3414817" lon="13.4402067"><ele>684.0</ele><time>2026-05-03T07:10:23.284Z</time></trkpt><trkpt lat="42.3413783" lon="13.4402"><ele>681.8000000000001</ele><time>2026-05-03T07:10:25.284Z</time></trkpt><trkpt lat="42.3412733" lon="13.440185"><ele>679.6</ele><time>2026-05-03T07:10:27.285Z</time></trkpt><trkpt lat="42.34118" lon="13.4401933"><ele>677.4</ele><time>2026-05-03T07:10:29.284Z</time></trkpt><trkpt lat="42.3411" lon="13.4402133"><ele>675.2</ele><time>2026-05-03T07:10:31.284Z</time></trkpt><trkpt lat="42.3410067" lon="13.4402567"><ele>673.0</ele><time>2026-05-03T07:10:33.284Z</time></trkpt><trkpt lat="42.3409033" lon="13.440295"><ele>673.0</ele><time>2026-05-03T07:10:35.284Z</time></trkpt><trkpt lat="42.340805" lon="13.4403533"><ele>673.0</ele><time>2026-05-03T07:10:37.284Z</time></trkpt><trkpt lat="42.3407117" lon="13.4403933"><ele>673.0</ele><time>2026-05-03T07:10:39.284Z</time></trkpt><trkpt lat="42.3406267" lon="13.44043"><ele>673.0</ele><time>2026-05-03T07:10:41.284Z</time></trkpt><trkpt lat="42.340535" lon="13.440485"><ele>673.0</ele><time>2026-05-03T07:10:43.284Z</time></trkpt><trkpt lat="42.34045" lon="13.4405533"><ele>670.5999999999999</ele><time>2026-05-03T07:10:45.284Z</time></trkpt><trkpt lat="42.34039" lon="13.4406667"><ele>668.1999999999999</ele><time>2026-05-03T07:10:47.284Z</time></trkpt><trkpt lat="42.34035" lon="13.4408233"><ele>665.8</ele><time>2026-05-03T07:10:49.284Z</time></trkpt><trkpt lat="42.340325" lon="13.4409067"><ele>663.4</ele><time>2026-05-03T07:10:50.284Z</time></trkpt><trkpt lat="42.3403017" lon="13.4410067"><ele>661.0</ele><time>2026-05-03T07:10:51.284Z</time></trkpt><trkpt lat="42.3402883" lon="13.4411167"><ele>661.0</ele><time>2026-05-03T07:10:52.284Z</time></trkpt><trkpt lat="42.340275" lon="13.4412333"><ele>661.0</ele><time>2026-05-03T07:10:53.284Z</time></trkpt><trkpt lat="42.3402517" lon="13.4413333"><ele>661.0</ele><time>2026-05-03T07:10:54.284Z</time></trkpt><trkpt lat="42.34023" lon="13.4414183"><ele>661.0</ele><time>2026-05-03T07:10:55.284Z</time></trkpt><trkpt lat="42.3401917" lon="13.44158"><ele>661.0</ele><time>2026-05-03T07:10:57.284Z</time></trkpt><trkpt lat="42.340165" lon="13.4416683"><ele>661.0</ele><time>2026-05-03T07:10:58.284Z</time></trkpt><trkpt lat="42.3401417" lon="13.4417533"><ele>660.0</ele><time>2026-05-03T07:10:59.284Z</time></trkpt><trkpt lat="42.3401117" lon="13.4418783"><ele>659.0</ele><time>2026-05-03T07:11:00.284Z</time></trkpt><trkpt lat="42.3400817" lon="13.44201"><ele>658.0</ele><time>2026-05-03T07:11:01.284Z</time></trkpt><trkpt lat="42.3400483" lon="13.4421333"><ele>657.0</ele><time>2026-05-03T07:11:02.284Z</time></trkpt><trkpt lat="42.3400133" lon="13.4422583"><ele>656.0</ele><time>2026-05-03T07:11:03.284Z</time></trkpt><trkpt lat="42.339985" lon="13.4423883"><ele>655.4</ele><time>2026-05-03T07:11:04.284Z</time></trkpt><trkpt lat="42.33995" lon="13.44253"><ele>654.8</ele><time>2026-05-03T07:11:05.284Z</time></trkpt><trkpt lat="42.339925" lon="13.442665"><ele>654.1999999999999</ele><time>2026-05-03T07:11:06.284Z</time></trkpt><trkpt lat="42.3398917" lon="13.4427917"><ele>653.5999999999999</ele><time>2026-05-03T07:11:07.284Z</time></trkpt><trkpt lat="42.33987" lon="13.4429"><ele>653.0</ele><time>2026-05-03T07:11:08.284Z</time></trkpt><trkpt lat="42.3398433" lon="13.44301"><ele>653.0</ele><time>2026-05-03T07:11:09.284Z</time></trkpt><trkpt lat="42.339805" lon="13.4431283"><ele>653.0</ele><time>2026-05-03T07:11:10.284Z</time></trkpt><trkpt lat="42.3397617" lon="13.4432317"><ele>653.0</ele><time>2026-05-03T07:11:11.284Z</time></trkpt><trkpt lat="42.33971" lon="13.4433283"><ele>653.0</ele><time>2026-05-03T07:11:12.284Z</time></trkpt><trkpt lat="42.3396467" lon="13.443415"><ele>653.0</ele><time>2026-05-03T07:11:13.284Z</time></trkpt><trkpt lat="42.339565" lon="13.4435017"><ele>653.0</ele><time>2026-05-03T07:11:14.284Z</time></trkpt><trkpt lat="42.3394833" lon="13.44358"><ele>653.0</ele><time>2026-05-03T07:11:15.284Z</time></trkpt><trkpt lat="42.3393983" lon="13.44367"><ele>653.0</ele><time>2026-05-03T07:11:16.284Z</time></trkpt><trkpt lat="42.339325" lon="13.4437483"><ele>653.0</ele><time>2026-05-03T07:11:17.284Z</time></trkpt><trkpt lat="42.33925" lon="13.4438283"><ele>653.0</ele><time>2026-05-03T07:11:18.285Z</time></trkpt><trkpt lat="42.3391833" lon="13.4439167"><ele>653.0000000000001</ele><time>2026-05-03T07:11:19.285Z</time></trkpt><trkpt lat="42.33913" lon="13.4439967"><ele>653.0</ele><time>2026-05-03T07:11:20.284Z</time></trkpt><trkpt lat="42.3390833" lon="13.4440767"><ele>653.0</ele><time>2026-05-03T07:11:21.284Z</time></trkpt><trkpt lat="42.3390567" lon="13.4441633"><ele>653.0</ele><time>2026-05-03T07:11:22.284Z</time></trkpt><trkpt lat="42.3390333" lon="13.4442567"><ele>653.0</ele><time>2026-05-03T07:11:23.284Z</time></trkpt><trkpt lat="42.3390167" lon="13.44435"><ele>653.0000000000001</ele><time>2026-05-03T07:11:24.284Z</time></trkpt><trkpt lat="42.3390117" lon="13.4444467"><ele>653.0</ele><time>2026-05-03T07:11:25.284Z</time></trkpt><trkpt lat="42.33901" lon="13.44456"><ele>652.8</ele><time>2026-05-03T07:11:26.284Z</time></trkpt><trkpt lat="42.33902" lon="13.4446567"><ele>652.5999999999999</ele><time>2026-05-03T07:11:27.284Z</time></trkpt><trkpt lat="42.339015" lon="13.4448283"><ele>652.4000000000001</ele><time>2026-05-03T07:11:29.284Z</time></trkpt><trkpt lat="42.3390067" lon="13.4449417"><ele>652.2</ele><time>2026-05-03T07:11:30.284Z</time></trkpt><trkpt lat="42.3389933" lon="13.4450883"><ele>652.0</ele><time>2026-05-03T07:11:31.284Z</time></trkpt><trkpt lat="42.33897" lon="13.44524"><ele>652.0</ele><time>2026-05-03T07:11:32.284Z</time></trkpt><trkpt lat="42.3389433" lon="13.4453883"><ele>652.0</ele><time>2026-05-03T07:11:33.284Z</time></trkpt><trkpt lat="42.338915" lon="13.44553"><ele>652.0</ele><time>2026-05-03T07:11:34.284Z</time></trkpt><trkpt lat="42.338885" lon="13.4456583"><ele>652.0</ele><time>2026-05-03T07:11:35.284Z</time></trkpt><trkpt lat="42.33885" lon="13.44578"><ele>652.0</ele><time>2026-05-03T07:11:36.284Z</time></trkpt><trkpt lat="42.3388117" lon="13.4459017"><ele>649.0</ele><time>2026-05-03T07:11:37.284Z</time></trkpt><trkpt lat="42.338755" lon="13.4460467"><ele>646.0</ele><time>2026-05-03T07:11:38.284Z</time></trkpt><trkpt lat="42.3387" lon="13.4461933"><ele>643.0</ele><time>2026-05-03T07:11:39.284Z</time></trkpt><trkpt lat="42.3386367" lon="13.4463567"><ele>640.0</ele><time>2026-05-03T07:11:40.284Z</time></trkpt><trkpt lat="42.338575" lon="13.446525"><ele>640.0</ele><time>2026-05-03T07:11:41.284Z</time></trkpt><trkpt lat="42.3385233" lon="13.4466883"><ele>640.0</ele><time>2026-05-03T07:11:42.284Z</time></trkpt><trkpt lat="42.3384767" lon="13.4468633"><ele>640.0</ele><time>2026-05-03T07:11:43.284Z</time></trkpt><trkpt lat="42.33841" lon="13.4470283"><ele>640.0</ele><time>2026-05-03T07:11:44.284Z</time></trkpt><trkpt lat="42.33836" lon="13.447195"><ele>640.25</ele><time>2026-05-03T07:11:45.284Z</time></trkpt><trkpt lat="42.33831" lon="13.4473567"><ele>640.5</ele><time>2026-05-03T07:11:46.285Z</time></trkpt><trkpt lat="42.3382633" lon="13.4475183"><ele>640.75</ele><time>2026-05-03T07:11:47.284Z</time></trkpt><trkpt lat="42.3382183" lon="13.4476767"><ele>641.0</ele><time>2026-05-03T07:11:48.284Z</time></trkpt><trkpt lat="42.3381683" lon="13.4478467"><ele>641.0</ele><time>2026-05-03T07:11:49.284Z</time></trkpt><trkpt lat="42.3381267" lon="13.4480083"><ele>641.0</ele><time>2026-05-03T07:11:50.284Z</time></trkpt><trkpt lat="42.3380883" lon="13.4481583"><ele>641.0</ele><time>2026-05-03T07:11:51.284Z</time></trkpt><trkpt lat="42.3380517" lon="13.448305"><ele>641.0</ele><time>2026-05-03T07:11:52.284Z</time></trkpt><trkpt lat="42.3380083" lon="13.4484667"><ele>637.0</ele><time>2026-05-03T07:11:53.284Z</time></trkpt><trkpt lat="42.337965" lon="13.4486167"><ele>633.0</ele><time>2026-05-03T07:11:54.284Z</time></trkpt><trkpt lat="42.3379267" lon="13.4487633"><ele>629.0</ele><time>2026-05-03T07:11:55.284Z</time></trkpt><trkpt lat="42.33789" lon="13.448905"><ele>625.0</ele><time>2026-05-03T07:11:56.284Z</time></trkpt><trkpt lat="42.3378467" lon="13.44904"><ele>625.0</ele><time>2026-05-03T07:11:57.284Z</time></trkpt><trkpt lat="42.3378133" lon="13.4491833"><ele>625.0</ele><time>2026-05-03T07:11:58.284Z</time></trkpt><trkpt lat="42.33779" lon="13.4493217"><ele>625.0</ele><time>2026-05-03T07:11:59.284Z</time></trkpt><trkpt lat="42.3377717" lon="13.449465"><ele>625.0</ele><time>2026-05-03T07:12:00.284Z</time></trkpt><trkpt lat="42.3377667" lon="13.4496133"><ele>625.0</ele><time>2026-05-03T07:12:01.284Z</time></trkpt><trkpt lat="42.33777" lon="13.44977"><ele>624.75</ele><time>2026-05-03T07:12:02.285Z</time></trkpt><trkpt lat="42.3377933" lon="13.449925"><ele>624.5</ele><time>2026-05-03T07:12:03.284Z</time></trkpt><trkpt lat="42.3378167" lon="13.4500817"><ele>624.25</ele><time>2026-05-03T07:12:04.284Z</time></trkpt><trkpt lat="42.33783" lon="13.4502333"><ele>624.0</ele><time>2026-05-03T07:12:05.284Z</time></trkpt><trkpt lat="42.3378433" lon="13.4503717"><ele>623.6</ele><time>2026-05-03T07:12:06.284Z</time></trkpt><trkpt lat="42.3378483" lon="13.4505083"><ele>623.2</ele><time>2026-05-03T07:12:07.284Z</time></trkpt><trkpt lat="42.337855" lon="13.450645"><ele>622.8000000000001</ele><time>2026-05-03T07:12:08.285Z</time></trkpt><trkpt lat="42.3378567" lon="13.4507867"><ele>622.4</ele><time>2026-05-03T07:12:09.284Z</time></trkpt><trkpt lat="42.3378633" lon="13.450935"><ele>622.0</ele><time>2026-05-03T07:12:10.284Z</time></trkpt><trkpt lat="42.33787" lon="13.4510783"><ele>622.0</ele><time>2026-05-03T07:12:11.284Z</time></trkpt><trkpt lat="42.3378767" lon="13.4512117"><ele>622.0</ele><time>2026-05-03T07:12:12.284Z</time></trkpt><trkpt lat="42.3378833" lon="13.45134"><ele>622.0</ele><time>2026-05-03T07:12:13.284Z</time></trkpt><trkpt lat="42.3378917" lon="13.4514733"><ele>622.0</ele><time>2026-05-03T07:12:14.284Z</time></trkpt><trkpt lat="42.3379017" lon="13.45161"><ele>622.0</ele><time>2026-05-03T07:12:15.284Z</time></trkpt><trkpt lat="42.3379083" lon="13.4517417"><ele>621.6</ele><time>2026-05-03T07:12:16.284Z</time></trkpt><trkpt lat="42.3379117" lon="13.4518783"><ele>621.2</ele><time>2026-05-03T07:12:17.284Z</time></trkpt><trkpt lat="42.3379167" lon="13.452005"><ele>620.8</ele><time>2026-05-03T07:12:18.284Z</time></trkpt><trkpt lat="42.3379283" lon="13.4521333"><ele>620.4</ele><time>2026-05-03T07:12:19.285Z</time></trkpt><trkpt lat="42.3379333" lon="13.4522533"><ele>620.0</ele><time>2026-05-03T07:12:20.285Z</time></trkpt><trkpt lat="42.3379383" lon="13.45237"><ele>619.2</ele><time>2026-05-03T07:12:21.284Z</time></trkpt><trkpt lat="42.3379417" lon="13.4524867"><ele>618.4</ele><time>2026-05-03T07:12:22.284Z</time></trkpt><trkpt lat="42.3379483" lon="13.452585"><ele>617.6</ele><time>2026-05-03T07:12:23.284Z</time></trkpt><trkpt lat="42.3379617" lon="13.4527267"><ele>616.8</ele><time>2026-05-03T07:12:25.284Z</time></trkpt><trkpt lat="42.3379933" lon="13.4528517"><ele>616.0</ele><time>2026-05-03T07:12:27.284Z</time></trkpt><trkpt lat="42.33805" lon="13.4529767"><ele>618.5</ele><time>2026-05-03T07:12:29.285Z</time></trkpt><trkpt lat="42.33808" lon="13.4530517"><ele>621.0</ele><time>2026-05-03T07:12:30.284Z</time></trkpt><trkpt lat="42.3381433" lon="13.45319"><ele>623.5</ele><time>2026-05-03T07:12:32.285Z</time></trkpt><trkpt lat="42.3381683" lon="13.4533633"><ele>626.0</ele><time>2026-05-03T07:12:34.284Z</time></trkpt><trkpt lat="42.3381767" lon="13.4534483"><ele>628.5</ele><time>2026-05-03T07:12:35.284Z</time></trkpt><trkpt lat="42.33819" lon="13.4535317"><ele>631.0</ele><time>2026-05-03T07:12:36.284Z</time></trkpt><trkpt lat="42.338205" lon="13.453615"><ele>631.0</ele><time>2026-05-03T07:12:37.284Z</time></trkpt><trkpt lat="42.338215" lon="13.45372"><ele>631.0</ele><time>2026-05-03T07:12:38.284Z</time></trkpt><trkpt lat="42.3382067" lon="13.4538433"><ele>631.0</ele><time>2026-05-03T07:12:39.284Z</time></trkpt><trkpt lat="42.33819" lon="13.4539783"><ele>631.0</ele><time>2026-05-03T07:12:40.284Z</time></trkpt><trkpt lat="42.3381683" lon="13.4541067"><ele>631.0</ele><time>2026-05-03T07:12:41.284Z</time></trkpt><trkpt lat="42.33815" lon="13.4542267"><ele>630.3333333333334</ele><time>2026-05-03T07:12:42.284Z</time></trkpt><trkpt lat="42.3381383" lon="13.4543433"><ele>629.6666666666667</ele><time>2026-05-03T07:12:43.284Z</time></trkpt><trkpt lat="42.3381183" lon="13.4544467"><ele>629.0</ele><time>2026-05-03T07:12:44.284Z</time></trkpt><trkpt lat="42.3381133" lon="13.45455"><ele>628.3333333333334</ele><time>2026-05-03T07:12:45.284Z</time></trkpt><trkpt lat="42.3381083" lon="13.4546517"><ele>627.6666666666666</ele><time>2026-05-03T07:12:46.284Z</time></trkpt><trkpt lat="42.3381067" lon="13.454765"><ele>627.0</ele><time>2026-05-03T07:12:47.284Z</time></trkpt><trkpt lat="42.33813" lon="13.4548817"><ele>626.0</ele><time>2026-05-03T07:12:48.284Z</time></trkpt><trkpt lat="42.3381517" lon="13.4550117"><ele>625.0</ele><time>2026-05-03T07:12:49.285Z</time></trkpt><trkpt lat="42.33818" lon="13.4551233"><ele>624.0</ele><time>2026-05-03T07:12:50.284Z</time></trkpt><trkpt lat="42.3382" lon="13.45523"><ele>623.0</ele><time>2026-05-03T07:12:51.284Z</time></trkpt><trkpt lat="42.3382283" lon="13.4553117"><ele>622.0</ele><time>2026-05-03T07:12:52.284Z</time></trkpt><trkpt lat="42.3382333" lon="13.4554283"><ele>621.0</ele><time>2026-05-03T07:12:54.284Z</time></trkpt><trkpt lat="42.3381667" lon="13.4555033"><ele>618.3333333333334</ele><time>2026-05-03T07:12:56.284Z</time></trkpt><trkpt lat="42.3380983" lon="13.4554917"><ele>615.6666666666666</ele><time>2026-05-03T07:12:58.284Z</time></trkpt><trkpt lat="42.3380374" lon="13.4555163"><ele>613.0</ele><time>2026-05-03T07:13:03.363Z</time></trkpt><trkpt lat="42.3380954" lon="13.4555716"><ele>610.3333333333333</ele><time>2026-05-03T07:13:07.284Z</time></trkpt><trkpt lat="42.3381908" lon="13.4556061"><ele>607.6666666666666</ele><time>2026-05-03T07:13:08.284Z</time></trkpt><trkpt lat="42.3382912" lon="13.4556491"><ele>605.0</ele><time>2026-05-03T07:13:09.284Z</time></trkpt><trkpt lat="42.3383816" lon="13.4556861"><ele>605.0</ele><time>2026-05-03T07:13:10.284Z</time></trkpt><trkpt lat="42.3384737" lon="13.4557134"><ele>605.0</ele><time>2026-05-03T07:13:11.284Z</time></trkpt><trkpt lat="42.3385637" lon="13.4557441"><ele>605.0</ele><time>2026-05-03T07:13:12.284Z</time></trkpt><trkpt lat="42.3386546" lon="13.4557825"><ele>605.0</ele><time>2026-05-03T07:13:13.284Z</time></trkpt><trkpt lat="42.3387642" lon="13.4558253"><ele>605.0</ele><time>2026-05-03T07:13:14.284Z</time></trkpt><trkpt lat="42.3388803" lon="13.4558656"><ele>606.0</ele><time>2026-05-03T07:13:15.284Z</time></trkpt><trkpt lat="42.3389936" lon="13.4559026"><ele>607.0</ele><time>2026-05-03T07:13:16.284Z</time></trkpt><trkpt lat="42.3391048" lon="13.4559421"><ele>608.0</ele><time>2026-05-03T07:13:17.284Z</time></trkpt><trkpt lat="42.3392085" lon="13.4559709"><ele>609.0</ele><time>2026-05-03T07:13:18.284Z</time></trkpt><trkpt lat="42.3393096" lon="13.4559902"><ele>610.0</ele><time>2026-05-03T07:13:19.284Z</time></trkpt><trkpt lat="42.3394002" lon="13.4560011"><ele>610.0</ele><time>2026-05-03T07:13:20.284Z</time></trkpt><trkpt lat="42.3394819" lon="13.4559993"><ele>610.0</ele><time>2026-05-03T07:13:21.284Z</time></trkpt><trkpt lat="42.3395591" lon="13.4560114"><ele>610.0</ele><time>2026-05-03T07:13:22.284Z</time></trkpt><trkpt lat="42.3396217" lon="13.456055"><ele>610.0</ele><time>2026-05-03T07:13:23.284Z</time></trkpt><trkpt lat="42.3396817" lon="13.4561217"><ele>610.0</ele><time>2026-05-03T07:13:24.285Z</time></trkpt><trkpt lat="42.3397317" lon="13.456215"><ele>610.0</ele><time>2026-05-03T07:13:25.284Z</time></trkpt><trkpt lat="42.33976" lon="13.456325"><ele>608.5</ele><time>2026-05-03T07:13:26.284Z</time></trkpt><trkpt lat="42.3397667" lon="13.4564383"><ele>607.0</ele><time>2026-05-03T07:13:27.285Z</time></trkpt><trkpt lat="42.3397667" lon="13.456565"><ele>605.5</ele><time>2026-05-03T07:13:29.284Z</time></trkpt><trkpt lat="42.3398283" lon="13.456665"><ele>604.0</ele><time>2026-05-03T07:13:51.284Z</time></trkpt><trkpt lat="42.3398967" lon="13.4566967"><ele>602.5</ele><time>2026-05-03T07:13:52.284Z</time></trkpt><trkpt lat="42.339975" lon="13.4567183"><ele>601.0</ele><time>2026-05-03T07:13:53.284Z</time></trkpt><trkpt lat="42.3400817" lon="13.4567433"><ele>601.0</ele><time>2026-05-03T07:13:54.284Z</time></trkpt><trkpt lat="42.3402033" lon="13.4567783"><ele>601.0</ele><time>2026-05-03T07:13:55.284Z</time></trkpt><trkpt lat="42.3403217" lon="13.4568217"><ele>601.0</ele><time>2026-05-03T07:13:56.284Z</time></trkpt><trkpt lat="42.34045" lon="13.4568633"><ele>601.0</ele><time>2026-05-03T07:13:57.284Z</time></trkpt><trkpt lat="42.340575" lon="13.4569167"><ele>600.75</ele><time>2026-05-03T07:13:58.284Z</time></trkpt><trkpt lat="42.340705" lon="13.4569667"><ele>600.5</ele><time>2026-05-03T07:13:59.284Z</time></trkpt><trkpt lat="42.3408333" lon="13.457025"><ele>600.25</ele><time>2026-05-03T07:14:00.284Z</time></trkpt><trkpt lat="42.34097" lon="13.4570783"><ele>600.0</ele><time>2026-05-03T07:14:01.285Z</time></trkpt><trkpt lat="42.3411" lon="13.4571483"><ele>600.25</ele><time>2026-05-03T07:14:02.284Z</time></trkpt><trkpt lat="42.3412167" lon="13.4572317"><ele>600.5</ele><time>2026-05-03T07:14:03.284Z</time></trkpt><trkpt lat="42.3413317" lon="13.4573317"><ele>600.75</ele><time>2026-05-03T07:14:04.284Z</time></trkpt><trkpt lat="42.3414417" lon="13.4574483"><ele>601.0</ele><time>2026-05-03T07:14:05.284Z</time></trkpt><trkpt lat="42.3415417" lon="13.457575"><ele>601.0</ele><time>2026-05-03T07:14:06.284Z</time></trkpt><trkpt lat="42.3416467" lon="13.457705"><ele>601.0</ele><time>2026-05-03T07:14:07.284Z</time></trkpt><trkpt lat="42.34175" lon="13.4578483"><ele>601.0</ele><time>2026-05-03T07:14:08.284Z</time></trkpt><trkpt lat="42.3418533" lon="13.45799"><ele>601.0</ele><time>2026-05-03T07:14:09.285Z</time></trkpt><trkpt lat="42.341955" lon="13.4581283"><ele>601.0</ele><time>2026-05-03T07:14:10.284Z</time></trkpt><trkpt lat="42.34206" lon="13.4582583"><ele>601.0</ele><time>2026-05-03T07:14:11.284Z</time></trkpt><trkpt lat="42.342155" lon="13.4583817"><ele>601.0</ele><time>2026-05-03T07:14:12.285Z</time></trkpt><trkpt lat="42.34225" lon="13.45851"><ele>601.0</ele><time>2026-05-03T07:14:13.284Z</time></trkpt><trkpt lat="42.3423483" lon="13.4586383"><ele>601.0</ele><time>2026-05-03T07:14:14.284Z</time></trkpt><trkpt lat="42.3424467" lon="13.4587733"><ele>601.0</ele><time>2026-05-03T07:14:15.284Z</time></trkpt><trkpt lat="42.3425433" lon="13.4589033"><ele>601.0</ele><time>2026-05-03T07:14:16.284Z</time></trkpt><trkpt lat="42.3426367" lon="13.4590267"><ele>601.0</ele><time>2026-05-03T07:14:17.284Z</time></trkpt><trkpt lat="42.342725" lon="13.4591383"><ele>601.0</ele><time>2026-05-03T07:14:18.284Z</time></trkpt><trkpt lat="42.3428067" lon="13.4592517"><ele>601.0</ele><time>2026-05-03T07:14:19.285Z</time></trkpt><trkpt lat="42.3428917" lon="13.4593633"><ele>601.0</ele><time>2026-05-03T07:14:20.285Z</time></trkpt><trkpt lat="42.3429783" lon="13.4594783"><ele>601.0</ele><time>2026-05-03T07:14:21.285Z</time></trkpt><trkpt lat="42.3430717" lon="13.4595983"><ele>602.25</ele><time>2026-05-03T07:14:22.285Z</time></trkpt><trkpt lat="42.3431733" lon="13.4597233"><ele>603.5</ele><time>2026-05-03T07:14:23.285Z</time></trkpt><trkpt lat="42.3432683" lon="13.4598517"><ele>604.75</ele><time>2026-05-03T07:14:24.285Z</time></trkpt><trkpt lat="42.3433633" lon="13.4599767"><ele>606.0</ele><time>2026-05-03T07:14:25.285Z</time></trkpt><trkpt lat="42.34345" lon="13.4600983"><ele>606.0</ele><time>2026-05-03T07:14:26.285Z</time></trkpt><trkpt lat="42.3435367" lon="13.460215"><ele>606.0</ele><time>2026-05-03T07:14:27.285Z</time></trkpt><trkpt lat="42.3436217" lon="13.4603283"><ele>606.0</ele><time>2026-05-03T07:14:28.285Z</time></trkpt><trkpt lat="42.3437033" lon="13.4604433"><ele>606.0</ele><time>2026-05-03T07:14:29.285Z</time></trkpt><trkpt lat="42.3437867" lon="13.460545"><ele>606.25</ele><time>2026-05-03T07:14:30.285Z</time></trkpt><trkpt lat="42.34387" lon="13.4606433"><ele>606.5</ele><time>2026-05-03T07:14:31.285Z</time></trkpt><trkpt lat="42.3439533" lon="13.4607567"><ele>606.75</ele><time>2026-05-03T07:14:32.285Z</time></trkpt><trkpt lat="42.344045" lon="13.4608767"><ele>607.0</ele><time>2026-05-03T07:14:33.285Z</time></trkpt><trkpt lat="42.344145" lon="13.4609967"><ele>607.5</ele><time>2026-05-03T07:14:34.285Z</time></trkpt><trkpt lat="42.34424" lon="13.461125"><ele>608.0</ele><time>2026-05-03T07:14:35.285Z</time></trkpt><trkpt lat="42.344345" lon="13.461245"><ele>608.5</ele><time>2026-05-03T07:14:36.285Z</time></trkpt><trkpt lat="42.3444517" lon="13.4613733"><ele>609.0</ele><time>2026-05-03T07:14:37.285Z</time></trkpt><trkpt lat="42.344565" lon="13.461505"><ele>609.0</ele><time>2026-05-03T07:14:38.285Z</time></trkpt><trkpt lat="42.3446817" lon="13.4616383"><ele>609.0</ele><time>2026-05-03T07:14:39.285Z</time></trkpt><trkpt lat="42.3448" lon="13.4617717"><ele>609.0</ele><time>2026-05-03T07:14:40.285Z</time></trkpt><trkpt lat="42.3449267" lon="13.4619"><ele>609.75</ele><time>2026-05-03T07:14:41.286Z</time></trkpt><trkpt lat="42.3450617" lon="13.4620267"><ele>610.5</ele><time>2026-05-03T07:14:42.285Z</time></trkpt><trkpt lat="42.3451767" lon="13.4621467"><ele>611.25</ele><time>2026-05-03T07:14:43.285Z</time></trkpt><trkpt lat="42.3452783" lon="13.4622383"><ele>612.0</ele><time>2026-05-03T07:14:44.285Z</time></trkpt><trkpt lat="42.345365" lon="13.4623233"><ele>612.0</ele><time>2026-05-03T07:14:45.286Z</time></trkpt><trkpt lat="42.345435" lon="13.462385"><ele>612.0</ele><time>2026-05-03T07:14:46.285Z</time></trkpt><trkpt lat="42.3455133" lon="13.4624567"><ele>612.0</ele><time>2026-05-03T07:14:48.285Z</time></trkpt><trkpt lat="42.345615" lon="13.4625517"><ele>612.0</ele><time>2026-05-03T07:15:17.285Z</time></trkpt><trkpt lat="42.3456033" lon="13.4626417"><ele>612.0</ele><time>2026-05-03T07:15:22.285Z</time></trkpt><trkpt lat="42.3455367" lon="13.462755"><ele>612.0</ele><time>2026-05-03T07:15:41.285Z</time></trkpt><trkpt lat="42.3454917" lon="13.46282"><ele>612.0</ele><time>2026-05-03T07:15:42.285Z</time></trkpt><trkpt lat="42.3454367" lon="13.4629"><ele>612.0</ele><time>2026-05-03T07:15:43.285Z</time></trkpt><trkpt lat="42.34537" lon="13.4629867"><ele>612.0</ele><time>2026-05-03T07:15:44.285Z</time></trkpt><trkpt lat="42.3453067" lon="13.4630917"><ele>612.0</ele><time>2026-05-03T07:15:45.285Z</time></trkpt><trkpt lat="42.3452383" lon="13.4631983"><ele>612.0</ele><time>2026-05-03T07:15:46.285Z</time></trkpt><trkpt lat="42.3451717" lon="13.4633133"><ele>612.4</ele><time>2026-05-03T07:15:47.285Z</time></trkpt><trkpt lat="42.3451217" lon="13.4634183"><ele>612.8000000000001</ele><time>2026-05-03T07:15:48.285Z</time></trkpt><trkpt lat="42.3450667" lon="13.463525"><ele>613.2</ele><time>2026-05-03T07:15:49.285Z</time></trkpt><trkpt lat="42.3450267" lon="13.4636317"><ele>613.6</ele><time>2026-05-03T07:15:50.285Z</time></trkpt><trkpt lat="42.3449883" lon="13.463745"><ele>614.0</ele><time>2026-05-03T07:15:51.285Z</time></trkpt><trkpt lat="42.344955" lon="13.46387"><ele>614.2</ele><time>2026-05-03T07:15:52.285Z</time></trkpt><trkpt lat="42.3449333" lon="13.4639983"><ele>614.4</ele><time>2026-05-03T07:15:53.286Z</time></trkpt><trkpt lat="42.3449017" lon="13.4641283"><ele>614.6</ele><time>2026-05-03T07:15:54.285Z</time></trkpt><trkpt lat="42.3448733" lon="13.4642667"><ele>614.8</ele><time>2026-05-03T07:15:55.285Z</time></trkpt><trkpt lat="42.3448433" lon="13.4644"><ele>615.0</ele><time>2026-05-03T07:15:56.286Z</time></trkpt><trkpt lat="42.3448083" lon="13.46453"><ele>615.0</ele><time>2026-05-03T07:15:57.285Z</time></trkpt><trkpt lat="42.3447717" lon="13.4646517"><ele>615.0</ele><time>2026-05-03T07:15:58.286Z</time></trkpt><trkpt lat="42.3447383" lon="13.46479"><ele>615.0</ele><time>2026-05-03T07:15:59.285Z</time></trkpt><trkpt lat="42.3447017" lon="13.4649167"><ele>615.0</ele><time>2026-05-03T07:16:00.285Z</time></trkpt><trkpt lat="42.3446733" lon="13.4650183"><ele>615.0</ele><time>2026-05-03T07:16:01.285Z</time></trkpt><trkpt lat="42.344645" lon="13.4651283"><ele>614.8</ele><time>2026-05-03T07:16:02.286Z</time></trkpt><trkpt lat="42.3446217" lon="13.465245"><ele>614.6</ele><time>2026-05-03T07:16:03.285Z</time></trkpt><trkpt lat="42.3445883" lon="13.4653717"><ele>614.4</ele><time>2026-05-03T07:16:04.285Z</time></trkpt><trkpt lat="42.344555" lon="13.465485"><ele>614.2</ele><time>2026-05-03T07:16:05.285Z</time></trkpt><trkpt lat="42.344515" lon="13.4655983"><ele>614.0</ele><time>2026-05-03T07:16:06.285Z</time></trkpt><trkpt lat="42.344475" lon="13.4657067"><ele>614.0</ele><time>2026-05-03T07:16:07.285Z</time></trkpt><trkpt lat="42.3444367" lon="13.4657983"><ele>614.0</ele><time>2026-05-03T07:16:08.285Z</time></trkpt><trkpt lat="42.3444033" lon="13.46588"><ele>614.0</ele><time>2026-05-03T07:16:09.285Z</time></trkpt><trkpt lat="42.34438" lon="13.4659983"><ele>614.0</ele><time>2026-05-03T07:16:11.285Z</time></trkpt><trkpt lat="42.3444183" lon="13.46608"><ele>614.0</ele><time>2026-05-03T07:16:13.285Z</time></trkpt><trkpt lat="42.34455" lon="13.4661683"><ele>614.0</ele><time>2026-05-03T07:16:15.285Z</time></trkpt><trkpt lat="42.3446617" lon="13.466215"><ele>614.0</ele><time>2026-05-03T07:16:16.286Z</time></trkpt><trkpt lat="42.34479" lon="13.4662517"><ele>614.0</ele><time>2026-05-03T07:16:17.285Z</time></trkpt><trkpt lat="42.34491" lon="13.4662833"><ele>614.0</ele><time>2026-05-03T07:16:18.285Z</time></trkpt><trkpt lat="42.3450267" lon="13.4663017"><ele>614.2</ele><time>2026-05-03T07:16:19.285Z</time></trkpt><trkpt lat="42.3451467" lon="13.4663017"><ele>614.4</ele><time>2026-05-03T07:16:20.285Z</time></trkpt><trkpt lat="42.3452667" lon="13.46629"><ele>614.6</ele><time>2026-05-03T07:16:21.285Z</time></trkpt><trkpt lat="42.3453717" lon="13.46628"><ele>614.8</ele><time>2026-05-03T07:16:22.285Z</time></trkpt><trkpt lat="42.3454717" lon="13.4662933"><ele>615.0</ele><time>2026-05-03T07:16:23.286Z</time></trkpt><trkpt lat="42.3455767" lon="13.4663283"><ele>616.0</ele><time>2026-05-03T07:16:24.285Z</time></trkpt><trkpt lat="42.3456867" lon="13.4663867"><ele>617.0</ele><time>2026-05-03T07:16:25.285Z</time></trkpt><trkpt lat="42.3458067" lon="13.4664583"><ele>618.0</ele><time>2026-05-03T07:16:26.285Z</time></trkpt><trkpt lat="42.3459267" lon="13.4665317"><ele>619.0</ele><time>2026-05-03T07:16:27.285Z</time></trkpt><trkpt lat="42.34603" lon="13.4665983"><ele>619.0</ele><time>2026-05-03T07:16:28.285Z</time></trkpt><trkpt lat="42.3461183" lon="13.4666533"><ele>619.0</ele><time>2026-05-03T07:16:29.285Z</time></trkpt><trkpt lat="42.3462067" lon="13.46671"><ele>619.0</ele><time>2026-05-03T07:16:30.285Z</time></trkpt><trkpt lat="42.3462983" lon="13.4667817"><ele>619.0</ele><time>2026-05-03T07:16:31.285Z</time></trkpt><trkpt lat="42.3463783" lon="13.4668717"><ele>619.0</ele><time>2026-05-03T07:16:32.285Z</time></trkpt><trkpt lat="42.3464483" lon="13.4669767"><ele>619.5</ele><time>2026-05-03T07:16:33.285Z</time></trkpt><trkpt lat="42.3465233" lon="13.467095"><ele>620.0</ele><time>2026-05-03T07:16:34.285Z</time></trkpt><trkpt lat="42.3466083" lon="13.46723"><ele>620.5</ele><time>2026-05-03T07:16:35.285Z</time></trkpt><trkpt lat="42.3466917" lon="13.46736"><ele>621.0</ele><time>2026-05-03T07:16:36.285Z</time></trkpt><trkpt lat="42.3467633" lon="13.46748"><ele>621.0</ele><time>2026-05-03T07:16:37.286Z</time></trkpt><trkpt lat="42.3468283" lon="13.4675917"><ele>621.0</ele><time>2026-05-03T07:16:38.285Z</time></trkpt><trkpt lat="42.3468883" lon="13.4676867"><ele>621.0</ele><time>2026-05-03T07:16:39.285Z</time></trkpt><trkpt lat="42.346935" lon="13.4677617"><ele>621.0</ele><time>2026-05-03T07:16:40.285Z</time></trkpt><trkpt lat="42.346985" lon="13.46782"><ele>621.0</ele><time>2026-05-03T07:16:41.285Z</time></trkpt><trkpt lat="42.347095" lon="13.467875"><ele>621.0</ele><time>2026-05-03T07:16:43.286Z</time></trkpt><trkpt lat="42.347165" lon="13.467875"><ele>621.0</ele><time>2026-05-03T07:16:44.285Z</time></trkpt><trkpt lat="42.34724" lon="13.467855"><ele>621.0</ele><time>2026-05-03T07:16:45.285Z</time></trkpt><trkpt lat="42.3473283" lon="13.4678367"><ele>621.0</ele><time>2026-05-03T07:16:46.285Z</time></trkpt><trkpt lat="42.34742" lon="13.46783"><ele>621.0</ele><time>2026-05-03T07:16:47.285Z</time></trkpt><trkpt lat="42.3475017" lon="13.4678367"><ele>621.0</ele><time>2026-05-03T07:16:48.285Z</time></trkpt><trkpt lat="42.3475817" lon="13.4678533"><ele>621.4</ele><time>2026-05-03T07:16:49.286Z</time></trkpt><trkpt lat="42.3476667" lon="13.4678833"><ele>621.8</ele><time>2026-05-03T07:16:50.285Z</time></trkpt><trkpt lat="42.3477617" lon="13.4679267"><ele>622.1999999999999</ele><time>2026-05-03T07:16:51.285Z</time></trkpt><trkpt lat="42.3478633" lon="13.4679683"><ele>622.6</ele><time>2026-05-03T07:16:52.285Z</time></trkpt><trkpt lat="42.3479667" lon="13.4679983"><ele>623.0</ele><time>2026-05-03T07:16:53.285Z</time></trkpt><trkpt lat="42.3480767" lon="13.4680417"><ele>623.5</ele><time>2026-05-03T07:16:54.285Z</time></trkpt><trkpt lat="42.348195" lon="13.468075"><ele>624.0</ele><time>2026-05-03T07:16:55.285Z</time></trkpt><trkpt lat="42.3483067" lon="13.46812"><ele>624.5</ele><time>2026-05-03T07:16:56.285Z</time></trkpt><trkpt lat="42.3484117" lon="13.4681633"><ele>625.0</ele><time>2026-05-03T07:16:57.286Z</time></trkpt><trkpt lat="42.3485117" lon="13.4682117"><ele>625.0</ele><time>2026-05-03T07:16:58.285Z</time></trkpt><trkpt lat="42.3486067" lon="13.4682567"><ele>625.0</ele><time>2026-05-03T07:16:59.286Z</time></trkpt><trkpt lat="42.3487067" lon="13.468305"><ele>625.0</ele><time>2026-05-03T07:17:00.285Z</time></trkpt><trkpt lat="42.3488017" lon="13.4683467"><ele>625.0</ele><time>2026-05-03T07:17:01.285Z</time></trkpt><trkpt lat="42.3488983" lon="13.4683833"><ele>625.0</ele><time>2026-05-03T07:17:02.285Z</time></trkpt><trkpt lat="42.3489933" lon="13.4684167"><ele>625.5</ele><time>2026-05-03T07:17:03.285Z</time></trkpt><trkpt lat="42.349085" lon="13.4684383"><ele>626.0</ele><time>2026-05-03T07:17:04.286Z</time></trkpt><trkpt lat="42.3491617" lon="13.4684467"><ele>626.5</ele><time>2026-05-03T07:17:05.285Z</time></trkpt><trkpt lat="42.34923" lon="13.46846"><ele>627.0</ele><time>2026-05-03T07:17:06.286Z</time></trkpt><trkpt lat="42.3492933" lon="13.46846"><ele>627.5</ele><time>2026-05-03T07:17:07.285Z</time></trkpt><trkpt lat="42.349415" lon="13.46846"><ele>628.0</ele><time>2026-05-03T07:17:09.286Z</time></trkpt><trkpt lat="42.34949" lon="13.4684617"><ele>628.0</ele><time>2026-05-03T07:17:10.285Z</time></trkpt><trkpt lat="42.3495783" lon="13.468465"><ele>628.0</ele><time>2026-05-03T07:17:11.285Z</time></trkpt><trkpt lat="42.34967" lon="13.4684767"><ele>628.0</ele><time>2026-05-03T07:17:12.285Z</time></trkpt><trkpt lat="42.349765" lon="13.468485"><ele>628.0</ele><time>2026-05-03T07:17:13.285Z</time></trkpt><trkpt lat="42.3498483" lon="13.468495"><ele>628.0</ele><time>2026-05-03T07:17:14.285Z</time></trkpt><trkpt lat="42.349955" lon="13.4684933"><ele>628.1999999999999</ele><time>2026-05-03T07:17:15.285Z</time></trkpt><trkpt lat="42.3500517" lon="13.46852"><ele>628.4</ele><time>2026-05-03T07:17:16.285Z</time></trkpt><trkpt lat="42.35015" lon="13.4685817"><ele>628.5999999999999</ele><time>2026-05-03T07:17:17.285Z</time></trkpt><trkpt lat="42.35025" lon="13.4686667"><ele>628.8</ele><time>2026-05-03T07:17:18.285Z</time></trkpt><trkpt lat="42.3503483" lon="13.4687633"><ele>629.0</ele><time>2026-05-03T07:17:19.285Z</time></trkpt><trkpt lat="42.3504433" lon="13.468845"><ele>629.0</ele><time>2026-05-03T07:17:20.285Z</time></trkpt><trkpt lat="42.35053" lon="13.4689133"><ele>629.0</ele><time>2026-05-03T07:17:21.285Z</time></trkpt><trkpt lat="42.350615" lon="13.4689667"><ele>629.0</ele><time>2026-05-03T07:17:22.286Z</time></trkpt><trkpt lat="42.3507017" lon="13.46901"><ele>629.0</ele><time>2026-05-03T07:17:23.285Z</time></trkpt><trkpt lat="42.3507867" lon="13.469045"><ele>629.0</ele><time>2026-05-03T07:17:24.285Z</time></trkpt><trkpt lat="42.350885" lon="13.4690517"><ele>629.3333333333333</ele><time>2026-05-03T07:17:25.285Z</time></trkpt><trkpt lat="42.3509683" lon="13.469055"><ele>629.6666666666666</ele><time>2026-05-03T07:17:26.286Z</time></trkpt><trkpt lat="42.3510517" lon="13.4690417"><ele>630.0</ele><time>2026-05-03T07:17:27.285Z</time></trkpt><trkpt lat="42.3511467" lon="13.4690083"><ele>630.3333333333334</ele><time>2026-05-03T07:17:28.285Z</time></trkpt><trkpt lat="42.3512283" lon="13.4689683"><ele>630.6666666666667</ele><time>2026-05-03T07:17:29.285Z</time></trkpt><trkpt lat="42.3513" lon="13.468915"><ele>631.0</ele><time>2026-05-03T07:17:30.285Z</time></trkpt><trkpt lat="42.351365" lon="13.468865"><ele>631.8333333333334</ele><time>2026-05-03T07:17:31.285Z</time></trkpt><trkpt lat="42.3514183" lon="13.4688067"><ele>632.6666666666667</ele><time>2026-05-03T07:17:32.285Z</time></trkpt><trkpt lat="42.3514633" lon="13.468745"><ele>633.5</ele><time>2026-05-03T07:17:33.285Z</time></trkpt><trkpt lat="42.35156" lon="13.468665"><ele>634.3333333333334</ele><time>2026-05-03T07:17:35.285Z</time></trkpt><trkpt lat="42.3516683" lon="13.46868"><ele>635.1666666666666</ele><time>2026-05-03T07:17:37.285Z</time></trkpt><trkpt lat="42.35173" lon="13.4687317"><ele>636.0</ele><time>2026-05-03T07:17:38.285Z</time></trkpt><trkpt lat="42.3518083" lon="13.468825"><ele>636.0</ele><time>2026-05-03T07:17:39.285Z</time></trkpt><trkpt lat="42.3519067" lon="13.4689467"><ele>636.0</ele><time>2026-05-03T07:17:40.285Z</time></trkpt><trkpt lat="42.352" lon="13.469065"><ele>636.0</ele><time>2026-05-03T07:17:41.286Z</time></trkpt><trkpt lat="42.3520883" lon="13.46917"><ele>636.0</ele><time>2026-05-03T07:17:42.285Z</time></trkpt><trkpt lat="42.3521667" lon="13.4692817"><ele>636.2</ele><time>2026-05-03T07:17:43.285Z</time></trkpt><trkpt lat="42.35224" lon="13.4693783"><ele>636.4000000000001</ele><time>2026-05-03T07:17:44.285Z</time></trkpt><trkpt lat="42.3523167" lon="13.469465"><ele>636.6</ele><time>2026-05-03T07:17:45.285Z</time></trkpt><trkpt lat="42.3523967" lon="13.469555"><ele>636.8000000000001</ele><time>2026-05-03T07:17:46.285Z</time></trkpt><trkpt lat="42.3524783" lon="13.4696367"><ele>637.0</ele><time>2026-05-03T07:17:47.285Z</time></trkpt><trkpt lat="42.3525567" lon="13.4697233"><ele>637.4</ele><time>2026-05-03T07:17:48.285Z</time></trkpt><trkpt lat="42.3526333" lon="13.4697967"><ele>637.8000000000001</ele><time>2026-05-03T07:17:49.285Z</time></trkpt><trkpt lat="42.3527117" lon="13.4698767"><ele>638.2</ele><time>2026-05-03T07:17:50.285Z</time></trkpt><trkpt lat="42.35278" lon="13.469955"><ele>638.6</ele><time>2026-05-03T07:17:51.285Z</time></trkpt><trkpt lat="42.352845" lon="13.4700483"><ele>639.0</ele><time>2026-05-03T07:17:52.285Z</time></trkpt><trkpt lat="42.352915" lon="13.47015"><ele>639.0</ele><time>2026-05-03T07:17:53.285Z</time></trkpt><trkpt lat="42.3529817" lon="13.4702583"><ele>639.0</ele><time>2026-05-03T07:17:54.285Z</time></trkpt><trkpt lat="42.3530567" lon="13.4703717"><ele>639.0</ele><time>2026-05-03T07:17:55.285Z</time></trkpt><trkpt lat="42.35313" lon="13.4704867"><ele>639.0</ele><time>2026-05-03T07:17:56.285Z</time></trkpt><trkpt lat="42.3532017" lon="13.4706067"><ele>639.0</ele><time>2026-05-03T07:17:57.285Z</time></trkpt><trkpt lat="42.3532667" lon="13.4707133"><ele>639.6</ele><time>2026-05-03T07:17:58.285Z</time></trkpt><trkpt lat="42.3533133" lon="13.4708217"><ele>640.2</ele><time>2026-05-03T07:17:59.286Z</time></trkpt><trkpt lat="42.353365" lon="13.4709267"><ele>640.8000000000001</ele><time>2026-05-03T07:18:00.285Z</time></trkpt><trkpt lat="42.3534117" lon="13.4710533"><ele>641.4</ele><time>2026-05-03T07:18:01.285Z</time></trkpt><trkpt lat="42.353455" lon="13.4711633"><ele>642.0</ele><time>2026-05-03T07:18:02.285Z</time></trkpt><trkpt lat="42.3535133" lon="13.47125"><ele>642.0</ele><time>2026-05-03T07:18:03.285Z</time></trkpt><trkpt lat="42.3535583" lon="13.471315"><ele>642.0</ele><time>2026-05-03T07:18:04.286Z</time></trkpt><trkpt lat="42.3536217" lon="13.4713933"><ele>642.0</ele><time>2026-05-03T07:18:06.285Z</time></trkpt><trkpt lat="42.353745" lon="13.4715433"><ele>642.0</ele><time>2026-05-03T07:18:31.285Z</time></trkpt><trkpt lat="42.35386" lon="13.4715433"><ele>642.0</ele><time>2026-05-03T07:18:33.285Z</time></trkpt><trkpt lat="42.3539417" lon="13.4715267"><ele>642.3333333333334</ele><time>2026-05-03T07:18:34.285Z</time></trkpt><trkpt lat="42.35403" lon="13.4714933"><ele>642.6666666666666</ele><time>2026-05-03T07:18:35.286Z</time></trkpt><trkpt lat="42.354125" lon="13.4714667"><ele>643.0</ele><time>2026-05-03T07:18:36.285Z</time></trkpt><trkpt lat="42.3542133" lon="13.4714283"><ele>643.3333333333333</ele><time>2026-05-03T07:18:37.285Z</time></trkpt><trkpt lat="42.3542883" lon="13.4714017"><ele>643.6666666666666</ele><time>2026-05-03T07:18:38.285Z</time></trkpt><trkpt lat="42.3543583" lon="13.4713933"><ele>644.0</ele><time>2026-05-03T07:18:39.285Z</time></trkpt><trkpt lat="42.3544233" lon="13.4713967"><ele>644.0</ele><time>2026-05-03T07:18:40.286Z</time></trkpt><trkpt lat="42.35455" lon="13.4714683"><ele>644.0</ele><time>2026-05-03T07:18:42.285Z</time></trkpt><trkpt lat="42.35463" lon="13.4715367"><ele>644.0</ele><time>2026-05-03T07:18:43.286Z</time></trkpt><trkpt lat="42.3547317" lon="13.47164"><ele>644.0</ele><time>2026-05-03T07:18:44.285Z</time></trkpt><trkpt lat="42.3548367" lon="13.471775"><ele>644.75</ele><time>2026-05-03T07:18:45.285Z</time></trkpt><trkpt lat="42.3549617" lon="13.471915"><ele>645.5</ele><time>2026-05-03T07:18:46.285Z</time></trkpt><trkpt lat="42.3550617" lon="13.4720617"><ele>646.25</ele><time>2026-05-03T07:18:47.285Z</time></trkpt><trkpt lat="42.3551617" lon="13.4721883"><ele>647.0</ele><time>2026-05-03T07:18:48.285Z</time></trkpt><trkpt lat="42.35525" lon="13.4723083"><ele>647.0</ele><time>2026-05-03T07:18:49.285Z</time></trkpt><trkpt lat="42.3553367" lon="13.4724117"><ele>647.0</ele><time>2026-05-03T07:18:50.285Z</time></trkpt><trkpt lat="42.355425" lon="13.47251"><ele>647.0</ele><time>2026-05-03T07:18:51.285Z</time></trkpt><trkpt lat="42.35551" lon="13.4726067"><ele>647.0</ele><time>2026-05-03T07:18:52.286Z</time></trkpt><trkpt lat="42.3556" lon="13.4727"><ele>647.5</ele><time>2026-05-03T07:18:53.285Z</time></trkpt><trkpt lat="42.3556833" lon="13.4728033"><ele>648.0</ele><time>2026-05-03T07:18:54.285Z</time></trkpt><trkpt lat="42.355775" lon="13.4728967"><ele>648.5</ele><time>2026-05-03T07:18:55.285Z</time></trkpt><trkpt lat="42.3558717" lon="13.4729967"><ele>649.0</ele><time>2026-05-03T07:18:56.285Z</time></trkpt><trkpt lat="42.3559617" lon="13.4731017"><ele>649.2</ele><time>2026-05-03T07:18:57.285Z</time></trkpt><trkpt lat="42.356055" lon="13.4732067"><ele>649.4000000000001</ele><time>2026-05-03T07:18:58.285Z</time></trkpt><trkpt lat="42.356135" lon="13.4732917"><ele>649.6</ele><time>2026-05-03T07:18:59.285Z</time></trkpt><trkpt lat="42.3562017" lon="13.4733617"><ele>649.8</ele><time>2026-05-03T07:19:00.286Z</time></trkpt><trkpt lat="42.3563" lon="13.4734483"><ele>650.0</ele><time>2026-05-03T07:19:02.285Z</time></trkpt><trkpt lat="42.3563583" lon="13.4734883"><ele>650.5</ele><time>2026-05-03T07:19:03.285Z</time></trkpt><trkpt lat="42.35642" lon="13.4735133"><ele>651.0</ele><time>2026-05-03T07:19:04.285Z</time></trkpt><trkpt lat="42.35649" lon="13.4735417"><ele>651.5</ele><time>2026-05-03T07:19:05.285Z</time></trkpt><trkpt lat="42.35659" lon="13.47364"><ele>652.0</ele><time>2026-05-03T07:19:07.285Z</time></trkpt><trkpt lat="42.3566317" lon="13.4737233"><ele>652.5</ele><time>2026-05-03T07:19:08.285Z</time></trkpt><trkpt lat="42.35667" lon="13.4738383"><ele>653.0</ele><time>2026-05-03T07:19:09.285Z</time></trkpt><trkpt lat="42.3567233" lon="13.4739933"><ele>653.75</ele><time>2026-05-03T07:19:10.285Z</time></trkpt><trkpt lat="42.35678" lon="13.4741767"><ele>654.5</ele><time>2026-05-03T07:19:11.285Z</time></trkpt><trkpt lat="42.3568417" lon="13.4743517"><ele>655.25</ele><time>2026-05-03T07:19:12.285Z</time></trkpt><trkpt lat="42.3568967" lon="13.4745033"><ele>656.0</ele><time>2026-05-03T07:19:13.285Z</time></trkpt><trkpt lat="42.3569517" lon="13.474655"><ele>657.8</ele><time>2026-05-03T07:19:14.285Z</time></trkpt><trkpt lat="42.3569967" lon="13.4747983"><ele>659.5999999999999</ele><time>2026-05-03T07:19:15.285Z</time></trkpt><trkpt lat="42.35704" lon="13.47493"><ele>661.4</ele><time>2026-05-03T07:19:16.285Z</time></trkpt><trkpt lat="42.357075" lon="13.475055"><ele>663.2</ele><time>2026-05-03T07:19:17.285Z</time></trkpt><trkpt lat="42.3571167" lon="13.4751833"><ele>665.0</ele><time>2026-05-03T07:19:18.285Z</time></trkpt><trkpt lat="42.3571567" lon="13.475325"><ele>666.2</ele><time>2026-05-03T07:19:19.285Z</time></trkpt><trkpt lat="42.357195" lon="13.47547"><ele>667.4</ele><time>2026-05-03T07:19:20.285Z</time></trkpt><trkpt lat="42.3572317" lon="13.4756167"><ele>668.5999999999999</ele><time>2026-05-03T07:19:21.285Z</time></trkpt><trkpt lat="42.3572567" lon="13.4757433"><ele>669.8</ele><time>2026-05-03T07:19:22.285Z</time></trkpt><trkpt lat="42.3572767" lon="13.4758667"><ele>671.0</ele><time>2026-05-03T07:19:23.286Z</time></trkpt><trkpt lat="42.357285" lon="13.4759967"><ele>672.25</ele><time>2026-05-03T07:19:24.285Z</time></trkpt><trkpt lat="42.3572683" lon="13.476125"><ele>673.5</ele><time>2026-05-03T07:19:25.286Z</time></trkpt><trkpt lat="42.357255" lon="13.4762633"><ele>674.75</ele><time>2026-05-03T07:19:26.285Z</time></trkpt><trkpt lat="42.3572467" lon="13.476435"><ele>676.0</ele><time>2026-05-03T07:19:27.285Z</time></trkpt><trkpt lat="42.3572483" lon="13.47661"><ele>677.4</ele><time>2026-05-03T07:19:28.285Z</time></trkpt><trkpt lat="42.3572483" lon="13.4767733"><ele>678.8</ele><time>2026-05-03T07:19:29.285Z</time></trkpt><trkpt lat="42.3572583" lon="13.4769033"><ele>680.1999999999999</ele><time>2026-05-03T07:19:30.285Z</time></trkpt><trkpt lat="42.35727" lon="13.477025"><ele>681.5999999999999</ele><time>2026-05-03T07:19:31.286Z</time></trkpt><trkpt lat="42.3572867" lon="13.4771317"><ele>683.0</ele><time>2026-05-03T07:19:32.285Z</time></trkpt><trkpt lat="42.3573017" lon="13.4772383"><ele>684.2</ele><time>2026-05-03T07:19:33.285Z</time></trkpt><trkpt lat="42.35731" lon="13.4773517"><ele>685.4</ele><time>2026-05-03T07:19:34.285Z</time></trkpt><trkpt lat="42.3573267" lon="13.4774733"><ele>686.6</ele><time>2026-05-03T07:19:35.285Z</time></trkpt><trkpt lat="42.3573483" lon="13.4776"><ele>687.8000000000001</ele><time>2026-05-03T07:19:36.285Z</time></trkpt><trkpt lat="42.357355" lon="13.47773"><ele>689.0</ele><time>2026-05-03T07:19:37.285Z</time></trkpt><trkpt lat="42.3573683" lon="13.47786"><ele>690.6</ele><time>2026-05-03T07:19:38.285Z</time></trkpt><trkpt lat="42.3573817" lon="13.477995"><ele>692.2</ele><time>2026-05-03T07:19:39.285Z</time></trkpt><trkpt lat="42.3574117" lon="13.4781167"><ele>693.8000000000001</ele><time>2026-05-03T07:19:40.286Z</time></trkpt><trkpt lat="42.3574483" lon="13.478225"><ele>695.4000000000001</ele><time>2026-05-03T07:19:41.285Z</time></trkpt><trkpt lat="42.3574833" lon="13.4783467"><ele>697.0</ele><time>2026-05-03T07:19:42.285Z</time></trkpt><trkpt lat="42.35751" lon="13.4784517"><ele>697.0</ele><time>2026-05-03T07:19:43.285Z</time></trkpt><trkpt lat="42.3575333" lon="13.47855"><ele>697.0</ele><time>2026-05-03T07:19:44.285Z</time></trkpt><trkpt lat="42.357555" lon="13.4786467"><ele>697.0</ele><time>2026-05-03T07:19:45.285Z</time></trkpt><trkpt lat="42.35757" lon="13.478755"><ele>697.0</ele><time>2026-05-03T07:19:46.285Z</time></trkpt><trkpt lat="42.3575833" lon="13.4788683"><ele>697.0</ele><time>2026-05-03T07:19:47.285Z</time></trkpt><trkpt lat="42.3576" lon="13.4789783"><ele>697.0</ele><time>2026-05-03T07:19:48.285Z</time></trkpt><trkpt lat="42.3576133" lon="13.4790967"><ele>698.5</ele><time>2026-05-03T07:19:49.285Z</time></trkpt><trkpt lat="42.3576267" lon="13.4792217"><ele>700.0</ele><time>2026-05-03T07:19:50.286Z</time></trkpt><trkpt lat="42.35764" lon="13.4793333"><ele>701.5</ele><time>2026-05-03T07:19:51.285Z</time></trkpt><trkpt lat="42.35765" lon="13.479445"><ele>703.0</ele><time>2026-05-03T07:19:52.285Z</time></trkpt><trkpt lat="42.357665" lon="13.479555"><ele>704.5</ele><time>2026-05-03T07:19:53.285Z</time></trkpt><trkpt lat="42.35768" lon="13.4796567"><ele>706.0</ele><time>2026-05-03T07:19:54.285Z</time></trkpt><trkpt lat="42.3576917" lon="13.479765"><ele>707.5</ele><time>2026-05-03T07:19:55.285Z</time></trkpt><trkpt lat="42.357705" lon="13.4798733"><ele>709.0</ele><time>2026-05-03T07:19:56.285Z</time></trkpt><trkpt lat="42.3577267" lon="13.479975"><ele>710.5</ele><time>2026-05-03T07:19:57.285Z</time></trkpt><trkpt lat="42.3577417" lon="13.480075"><ele>712.0</ele><time>2026-05-03T07:19:58.285Z</time></trkpt><trkpt lat="42.3577517" lon="13.4801733"><ele>713.5</ele><time>2026-05-03T07:19:59.285Z</time></trkpt><trkpt lat="42.35776" lon="13.4802767"><ele>715.0</ele><time>2026-05-03T07:20:00.285Z</time></trkpt><trkpt lat="42.35775" lon="13.4803783"><ele>716.1428571428572</ele><time>2026-05-03T07:20:01.285Z</time></trkpt><trkpt lat="42.3577317" lon="13.4804783"><ele>717.2857142857142</ele><time>2026-05-03T07:20:02.285Z</time></trkpt><trkpt lat="42.3577083" lon="13.4805717"><ele>718.4285714285714</ele><time>2026-05-03T07:20:03.285Z</time></trkpt><trkpt lat="42.3576883" lon="13.4806683"><ele>719.5714285714287</ele><time>2026-05-03T07:20:04.286Z</time></trkpt><trkpt lat="42.357685" lon="13.48076"><ele>720.7142857142858</ele><time>2026-05-03T07:20:05.285Z</time></trkpt><trkpt lat="42.3576933" lon="13.48085"><ele>721.8571428571429</ele><time>2026-05-03T07:20:06.285Z</time></trkpt><trkpt lat="42.3577117" lon="13.4809417"><ele>723.0</ele><time>2026-05-03T07:20:07.285Z</time></trkpt><trkpt lat="42.3577283" lon="13.48104"><ele>723.0</ele><time>2026-05-03T07:20:08.285Z</time></trkpt><trkpt lat="42.357735" lon="13.4811283"><ele>723.0</ele><time>2026-05-03T07:20:09.286Z</time></trkpt><trkpt lat="42.357735" lon="13.481215"><ele>723.0</ele><time>2026-05-03T07:20:10.285Z</time></trkpt><trkpt lat="42.3577367" lon="13.4813883"><ele>723.0</ele><time>2026-05-03T07:20:12.285Z</time></trkpt><trkpt lat="42.35773" lon="13.4814933"><ele>723.0</ele><time>2026-05-03T07:20:13.285Z</time></trkpt><trkpt lat="42.3577183" lon="13.481605"><ele>723.0</ele><time>2026-05-03T07:20:14.286Z</time></trkpt><trkpt lat="42.3577067" lon="13.4817217"><ele>724.6666666666666</ele><time>2026-05-03T07:20:15.285Z</time></trkpt><trkpt lat="42.35769" lon="13.4818317"><ele>726.3333333333334</ele><time>2026-05-03T07:20:16.285Z</time></trkpt><trkpt lat="42.3576667" lon="13.4819317"><ele>728.0</ele><time>2026-05-03T07:20:17.285Z</time></trkpt><trkpt lat="42.3576383" lon="13.482025"><ele>729.6666666666667</ele><time>2026-05-03T07:20:18.285Z</time></trkpt><trkpt lat="42.3576083" lon="13.48212"><ele>731.3333333333334</ele><time>2026-05-03T07:20:19.285Z</time></trkpt><trkpt lat="42.35759" lon="13.4822133"><ele>733.0</ele><time>2026-05-03T07:20:20.285Z</time></trkpt><trkpt lat="42.3575733" lon="13.482305"><ele>734.6666666666667</ele><time>2026-05-03T07:20:21.285Z</time></trkpt><trkpt lat="42.3575633" lon="13.4824133"><ele>736.3333333333334</ele><time>2026-05-03T07:20:22.285Z</time></trkpt><trkpt lat="42.3575617" lon="13.482505"><ele>738.0</ele><time>2026-05-03T07:20:23.285Z</time></trkpt><trkpt lat="42.3575683" lon="13.4826033"><ele>739.6666666666666</ele><time>2026-05-03T07:20:24.285Z</time></trkpt><trkpt lat="42.357575" lon="13.482715"><ele>741.3333333333333</ele><time>2026-05-03T07:20:25.285Z</time></trkpt><trkpt lat="42.3575867" lon="13.4828433"><ele>743.0</ele><time>2026-05-03T07:20:26.286Z</time></trkpt><trkpt lat="42.3575983" lon="13.4829667"><ele>744.4</ele><time>2026-05-03T07:20:27.285Z</time></trkpt><trkpt lat="42.3576183" lon="13.48309"><ele>745.8</ele><time>2026-05-03T07:20:28.285Z</time></trkpt><trkpt lat="42.3576267" lon="13.483225"><ele>747.2</ele><time>2026-05-03T07:20:29.285Z</time></trkpt><trkpt lat="42.35764" lon="13.4833683"><ele>748.6</ele><time>2026-05-03T07:20:30.285Z</time></trkpt><trkpt lat="42.3576467" lon="13.4834967"><ele>750.0</ele><time>2026-05-03T07:20:31.285Z</time></trkpt><trkpt lat="42.3576533" lon="13.4836117"><ele>750.0</ele><time>2026-05-03T07:20:32.286Z</time></trkpt><trkpt lat="42.357675" lon="13.4837183"><ele>750.0</ele><time>2026-05-03T07:20:33.285Z</time></trkpt><trkpt lat="42.3576933" lon="13.4838267"><ele>750.0</ele><time>2026-05-03T07:20:34.285Z</time></trkpt><trkpt lat="42.3577183" lon="13.4839333"><ele>750.0</ele><time>2026-05-03T07:20:35.285Z</time></trkpt><trkpt lat="42.3577417" lon="13.4840433"><ele>750.0</ele><time>2026-05-03T07:20:36.286Z</time></trkpt><trkpt lat="42.3577617" lon="13.4841667"><ele>750.0</ele><time>2026-05-03T07:20:37.285Z</time></trkpt><trkpt lat="42.357775" lon="13.484295"><ele>750.8</ele><time>2026-05-03T07:20:38.285Z</time></trkpt><trkpt lat="42.3577933" lon="13.4844117"><ele>751.6</ele><time>2026-05-03T07:20:39.286Z</time></trkpt><trkpt lat="42.3578017" lon="13.48453"><ele>752.4000000000001</ele><time>2026-05-03T07:20:40.285Z</time></trkpt><trkpt lat="42.3577983" lon="13.484645"><ele>753.2</ele><time>2026-05-03T07:20:41.285Z</time></trkpt><trkpt lat="42.3577883" lon="13.4847717"><ele>754.0</ele><time>2026-05-03T07:20:42.285Z</time></trkpt><trkpt lat="42.3577633" lon="13.4849017"><ele>754.6</ele><time>2026-05-03T07:20:43.285Z</time></trkpt><trkpt lat="42.35774" lon="13.485025"><ele>755.2</ele><time>2026-05-03T07:20:44.285Z</time></trkpt><trkpt lat="42.3577217" lon="13.4851517"><ele>755.8000000000001</ele><time>2026-05-03T07:20:45.285Z</time></trkpt><trkpt lat="42.3577117" lon="13.485275"><ele>756.4000000000001</ele><time>2026-05-03T07:20:46.285Z</time></trkpt><trkpt lat="42.3577" lon="13.485395"><ele>757.0</ele><time>2026-05-03T07:20:47.285Z</time></trkpt><trkpt lat="42.35769" lon="13.4855017"><ele>757.0</ele><time>2026-05-03T07:20:48.285Z</time></trkpt><trkpt lat="42.35768" lon="13.4856017"><ele>757.0</ele><time>2026-05-03T07:20:49.285Z</time></trkpt><trkpt lat="42.3576783" lon="13.4857733"><ele>757.0</ele><time>2026-05-03T07:20:51.285Z</time></trkpt><trkpt lat="42.3577167" lon="13.48594"><ele>757.0</ele><time>2026-05-03T07:20:53.285Z</time></trkpt><trkpt lat="42.3577417" lon="13.4860283"><ele>757.0</ele><time>2026-05-03T07:20:54.285Z</time></trkpt><trkpt lat="42.3577767" lon="13.4861267"><ele>757.0</ele><time>2026-05-03T07:20:55.285Z</time></trkpt><trkpt lat="42.3578133" lon="13.486215"><ele>757.0</ele><time>2026-05-03T07:20:56.285Z</time></trkpt><trkpt lat="42.357845" lon="13.4862917"><ele>757.0</ele><time>2026-05-03T07:20:57.285Z</time></trkpt><trkpt lat="42.357885" lon="13.486365"><ele>757.0</ele><time>2026-05-03T07:20:58.285Z</time></trkpt><trkpt lat="42.3579217" lon="13.486435"><ele>757.0</ele><time>2026-05-03T07:20:59.285Z</time></trkpt><trkpt lat="42.3579717" lon="13.4865"><ele>757.0</ele><time>2026-05-03T07:21:00.285Z</time></trkpt><trkpt lat="42.3580183" lon="13.48657"><ele>757.0</ele><time>2026-05-03T07:21:01.286Z</time></trkpt><trkpt lat="42.3580717" lon="13.486635"><ele>758.0</ele><time>2026-05-03T07:21:02.286Z</time></trkpt><trkpt lat="42.3581367" lon="13.4867083"><ele>759.0</ele><time>2026-05-03T07:21:03.285Z</time></trkpt><trkpt lat="42.3582033" lon="13.4867767"><ele>760.0</ele><time>2026-05-03T07:21:04.285Z</time></trkpt><trkpt lat="42.3582667" lon="13.4868483"><ele>761.0</ele><time>2026-05-03T07:21:05.286Z</time></trkpt><trkpt lat="42.3583283" lon="13.4869267"><ele>762.0</ele><time>2026-05-03T07:21:06.286Z</time></trkpt><trkpt lat="42.3583883" lon="13.4870133"><ele>763.0</ele><time>2026-05-03T07:21:07.285Z</time></trkpt><trkpt lat="42.3584467" lon="13.4871033"><ele>763.0</ele><time>2026-05-03T07:21:08.285Z</time></trkpt><trkpt lat="42.3585183" lon="13.4871833"><ele>763.0</ele><time>2026-05-03T07:21:09.285Z</time></trkpt><trkpt lat="42.358585" lon="13.487265"><ele>763.0</ele><time>2026-05-03T07:21:10.285Z</time></trkpt><trkpt lat="42.35865" lon="13.4873383"><ele>763.0</ele><time>2026-05-03T07:21:11.285Z</time></trkpt><trkpt lat="42.358705" lon="13.4874183"><ele>763.0</ele><time>2026-05-03T07:21:12.285Z</time></trkpt><trkpt lat="42.3587583" lon="13.48751"><ele>763.0</ele><time>2026-05-03T07:21:13.285Z</time></trkpt><trkpt lat="42.3588083" lon="13.4876133"><ele>763.0</ele><time>2026-05-03T07:21:14.285Z</time></trkpt><trkpt lat="42.358855" lon="13.487725"><ele>763.0</ele><time>2026-05-03T07:21:15.285Z</time></trkpt><trkpt lat="42.358905" lon="13.4878283"><ele>763.0</ele><time>2026-05-03T07:21:16.285Z</time></trkpt><trkpt lat="42.3589517" lon="13.4879217"><ele>763.0</ele><time>2026-05-03T07:21:17.285Z</time></trkpt><trkpt lat="42.3590033" lon="13.4879933"><ele>763.0</ele><time>2026-05-03T07:21:18.285Z</time></trkpt><trkpt lat="42.3590517" lon="13.4880583"><ele>763.0</ele><time>2026-05-03T07:21:19.285Z</time></trkpt><trkpt lat="42.3591017" lon="13.4881217"><ele>765.8333333333334</ele><time>2026-05-03T07:21:20.285Z</time></trkpt><trkpt lat="42.359155" lon="13.4881867"><ele>768.6666666666667</ele><time>2026-05-03T07:21:21.285Z</time></trkpt><trkpt lat="42.359215" lon="13.4882717"><ele>771.5</ele><time>2026-05-03T07:21:22.285Z</time></trkpt><trkpt lat="42.35927" lon="13.48836"><ele>774.3333333333334</ele><time>2026-05-03T07:21:23.285Z</time></trkpt><trkpt lat="42.35933" lon="13.4884367"><ele>777.1666666666666</ele><time>2026-05-03T07:21:24.285Z</time></trkpt><trkpt lat="42.3593883" lon="13.4885167"><ele>780.0</ele><time>2026-05-03T07:21:25.285Z</time></trkpt><trkpt lat="42.3594367" lon="13.4885933"><ele>780.0</ele><time>2026-05-03T07:21:26.285Z</time></trkpt><trkpt lat="42.35948" lon="13.48868"><ele>780.0</ele><time>2026-05-03T07:21:27.285Z</time></trkpt><trkpt lat="42.3595233" lon="13.4887617"><ele>780.0</ele><time>2026-05-03T07:21:28.285Z</time></trkpt><trkpt lat="42.359565" lon="13.4888367"><ele>780.0</ele><time>2026-05-03T07:21:29.285Z</time></trkpt><trkpt lat="42.359605" lon="13.4889133"><ele>780.0</ele><time>2026-05-03T07:21:30.285Z</time></trkpt><trkpt lat="42.3596417" lon="13.488985"><ele>780.0</ele><time>2026-05-03T07:21:31.286Z</time></trkpt><trkpt lat="42.3596867" lon="13.48905"><ele>780.0</ele><time>2026-05-03T07:21:32.285Z</time></trkpt><trkpt lat="42.359735" lon="13.4891167"><ele>782.0</ele><time>2026-05-03T07:21:33.285Z</time></trkpt><trkpt lat="42.359785" lon="13.4891917"><ele>784.0</ele><time>2026-05-03T07:21:34.285Z</time></trkpt><trkpt lat="42.3598367" lon="13.4892517"><ele>786.0</ele><time>2026-05-03T07:21:35.285Z</time></trkpt><trkpt lat="42.35991" lon="13.489315"><ele>788.0</ele><time>2026-05-03T07:21:36.285Z</time></trkpt><trkpt lat="42.35998" lon="13.4893667"><ele>790.0</ele><time>2026-05-03T07:21:37.285Z</time></trkpt><trkpt lat="42.3601" lon="13.4894483"><ele>792.0</ele><time>2026-05-03T07:21:39.285Z</time></trkpt><trkpt lat="42.3601683" lon="13.489505"><ele>792.0</ele><time>2026-05-03T07:21:40.285Z</time></trkpt><trkpt lat="42.3602383" lon="13.4895783"><ele>792.0</ele><time>2026-05-03T07:21:41.285Z</time></trkpt><trkpt lat="42.36031" lon="13.4896533"><ele>792.0</ele><time>2026-05-03T07:21:42.285Z</time></trkpt><trkpt lat="42.360375" lon="13.489725"><ele>792.0</ele><time>2026-05-03T07:21:43.285Z</time></trkpt><trkpt lat="42.360445" lon="13.4897733"><ele>792.0</ele><time>2026-05-03T07:21:44.285Z</time></trkpt><trkpt lat="42.3605133" lon="13.4898217"><ele>792.0</ele><time>2026-05-03T07:21:45.285Z</time></trkpt><trkpt lat="42.3605867" lon="13.4898767"><ele>793.6</ele><time>2026-05-03T07:21:46.285Z</time></trkpt><trkpt lat="42.3606617" lon="13.4899383"><ele>795.2</ele><time>2026-05-03T07:21:47.285Z</time></trkpt><trkpt lat="42.36074" lon="13.4900033"><ele>796.8</ele><time>2026-05-03T07:21:48.285Z</time></trkpt><trkpt lat="42.3608017" lon="13.49006"><ele>798.4</ele><time>2026-05-03T07:21:49.285Z</time></trkpt><trkpt lat="42.360905" lon="13.4901433"><ele>800.0</ele><time>2026-05-03T07:21:51.285Z</time></trkpt><trkpt lat="42.3610083" lon="13.4902183"><ele>800.0000000000001</ele><time>2026-05-03T07:21:53.285Z</time></trkpt><trkpt lat="42.3610733" lon="13.49026"><ele>800.0</ele><time>2026-05-03T07:21:54.285Z</time></trkpt><trkpt lat="42.3611467" lon="13.490305"><ele>800.0</ele><time>2026-05-03T07:21:55.285Z</time></trkpt><trkpt lat="42.3612167" lon="13.4903583"><ele>800.0</ele><time>2026-05-03T07:21:56.285Z</time></trkpt><trkpt lat="42.3612933" lon="13.49043"><ele>800.0000000000001</ele><time>2026-05-03T07:21:57.285Z</time></trkpt><trkpt lat="42.361365" lon="13.4905133"><ele>800.0</ele><time>2026-05-03T07:21:58.285Z</time></trkpt><trkpt lat="42.3614417" lon="13.4905967"><ele>802.0000000000001</ele><time>2026-05-03T07:21:59.285Z</time></trkpt><trkpt lat="42.36151" lon="13.49066"><ele>804.0</ele><time>2026-05-03T07:22:00.285Z</time></trkpt><trkpt lat="42.3615717" lon="13.4907167"><ele>806.0</ele><time>2026-05-03T07:22:01.285Z</time></trkpt><trkpt lat="42.36164" lon="13.490775"><ele>808.0</ele><time>2026-05-03T07:22:02.286Z</time></trkpt><trkpt lat="42.3617083" lon="13.4908283"><ele>810.0000000000001</ele><time>2026-05-03T07:22:03.285Z</time></trkpt><trkpt lat="42.3617733" lon="13.490865"><ele>812.0</ele><time>2026-05-03T07:22:04.285Z</time></trkpt><trkpt lat="42.361835" lon="13.490905"><ele>812.0000000000001</ele><time>2026-05-03T07:22:05.285Z</time></trkpt><trkpt lat="42.3618933" lon="13.4909583"><ele>812.0</ele><time>2026-05-03T07:22:06.285Z</time></trkpt><trkpt lat="42.3619467" lon="13.491015"><ele>812.0</ele><time>2026-05-03T07:22:07.285Z</time></trkpt><trkpt lat="42.3620233" lon="13.4911317"><ele>812.0</ele><time>2026-05-03T07:22:09.285Z</time></trkpt><trkpt lat="42.3620667" lon="13.4912"><ele>812.0000000000001</ele><time>2026-05-03T07:22:10.285Z</time></trkpt><trkpt lat="42.3621167" lon="13.4912717"><ele>812.0</ele><time>2026-05-03T07:22:11.285Z</time></trkpt><trkpt lat="42.36217" lon="13.49135"><ele>813.1666666666667</ele><time>2026-05-03T07:22:12.285Z</time></trkpt><trkpt lat="42.3622367" lon="13.4914383"><ele>814.3333333333334</ele><time>2026-05-03T07:22:13.285Z</time></trkpt><trkpt lat="42.3623033" lon="13.491515"><ele>815.5</ele><time>2026-05-03T07:22:14.285Z</time></trkpt><trkpt lat="42.3623633" lon="13.4915933"><ele>816.6666666666667</ele><time>2026-05-03T07:22:15.285Z</time></trkpt><trkpt lat="42.36241" lon="13.4916667"><ele>817.8333333333334</ele><time>2026-05-03T07:22:16.286Z</time></trkpt><trkpt lat="42.362465" lon="13.4917433"><ele>819.0</ele><time>2026-05-03T07:22:17.285Z</time></trkpt><trkpt lat="42.362515" lon="13.4918267"><ele>819.0</ele><time>2026-05-03T07:22:18.286Z</time></trkpt><trkpt lat="42.3625567" lon="13.49192"><ele>819.0</ele><time>2026-05-03T07:22:19.285Z</time></trkpt><trkpt lat="42.3625967" lon="13.4920167"><ele>819.0</ele><time>2026-05-03T07:22:20.285Z</time></trkpt><trkpt lat="42.3626333" lon="13.492115"><ele>819.0</ele><time>2026-05-03T07:22:21.285Z</time></trkpt><trkpt lat="42.3626633" lon="13.4922133"><ele>819.0</ele><time>2026-05-03T07:22:22.285Z</time></trkpt><trkpt lat="42.3626833" lon="13.4923033"><ele>819.0</ele><time>2026-05-03T07:22:23.285Z</time></trkpt><trkpt lat="42.3627133" lon="13.492465"><ele>820.2857142857143</ele><time>2026-05-03T07:22:25.285Z</time></trkpt><trkpt lat="42.3627383" lon="13.4925533"><ele>821.5714285714286</ele><time>2026-05-03T07:22:26.285Z</time></trkpt><trkpt lat="42.3627633" lon="13.4926467"><ele>822.8571428571429</ele><time>2026-05-03T07:22:27.285Z</time></trkpt><trkpt lat="42.3627867" lon="13.4927433"><ele>824.1428571428571</ele><time>2026-05-03T07:22:28.285Z</time></trkpt><trkpt lat="42.3628067" lon="13.4928417"><ele>825.4285714285714</ele><time>2026-05-03T07:22:29.285Z</time></trkpt><trkpt lat="42.3628283" lon="13.4929417"><ele>826.7142857142858</ele><time>2026-05-03T07:22:30.285Z</time></trkpt><trkpt lat="42.362835" lon="13.4930317"><ele>828.0</ele><time>2026-05-03T07:22:31.286Z</time></trkpt><trkpt lat="42.36282" lon="13.4931783"><ele>831.2</ele><time>2026-05-03T07:22:33.285Z</time></trkpt><trkpt lat="42.3628117" lon="13.4933133"><ele>834.4</ele><time>2026-05-03T07:22:35.285Z</time></trkpt><trkpt lat="42.3628217" lon="13.4934617"><ele>837.6</ele><time>2026-05-03T07:22:37.285Z</time></trkpt><trkpt lat="42.3628767" lon="13.493605"><ele>840.8000000000001</ele><time>2026-05-03T07:22:39.285Z</time></trkpt><trkpt lat="42.362915" lon="13.4937233"><ele>844.0</ele><time>2026-05-03T07:22:41.285Z</time></trkpt><trkpt lat="42.3629383" lon="13.49386"><ele>846.1666666666666</ele><time>2026-05-03T07:22:43.285Z</time></trkpt><trkpt lat="42.362955" lon="13.4939517"><ele>848.3333333333333</ele><time>2026-05-03T07:22:44.285Z</time></trkpt><trkpt lat="42.362965" lon="13.4940567"><ele>850.5</ele><time>2026-05-03T07:22:45.286Z</time></trkpt><trkpt lat="42.3629733" lon="13.4941583"><ele>852.6666666666667</ele><time>2026-05-03T07:22:46.286Z</time></trkpt><trkpt lat="42.3629817" lon="13.49425"><ele>854.8333333333334</ele><time>2026-05-03T07:22:47.286Z</time></trkpt><trkpt lat="42.3629933" lon="13.4944167"><ele>857.0</ele><time>2026-05-03T07:22:49.286Z</time></trkpt><trkpt lat="42.3630017" lon="13.4945017"><ele>857.0</ele><time>2026-05-03T07:22:50.286Z</time></trkpt><trkpt lat="42.3630117" lon="13.4945867"><ele>857.0</ele><time>2026-05-03T07:22:51.287Z</time></trkpt><trkpt lat="42.363005" lon="13.4947217"><ele>857.0</ele><time>2026-05-03T07:22:53.286Z</time></trkpt><trkpt lat="42.3629867" lon="13.49483"><ele>857.0</ele><time>2026-05-03T07:22:55.286Z</time></trkpt><trkpt lat="42.3629683" lon="13.4949667"><ele>857.0</ele><time>2026-05-03T07:22:57.286Z</time></trkpt><trkpt lat="42.362955" lon="13.4951267"><ele>858.2</ele><time>2026-05-03T07:22:59.286Z</time></trkpt><trkpt lat="42.3629283" lon="13.4952917"><ele>859.4000000000001</ele><time>2026-05-03T07:23:01.286Z</time></trkpt><trkpt lat="42.3629217" lon="13.495385"><ele>860.5999999999999</ele><time>2026-05-03T07:23:02.286Z</time></trkpt><trkpt lat="42.36292" lon="13.4954783"><ele>861.8</ele><time>2026-05-03T07:23:03.286Z</time></trkpt><trkpt lat="42.3629067" lon="13.4956617"><ele>863.0</ele><time>2026-05-03T07:23:05.286Z</time></trkpt><trkpt lat="42.3629017" lon="13.49577"><ele>863.3333333333334</ele><time>2026-05-03T07:23:06.286Z</time></trkpt><trkpt lat="42.362895" lon="13.4958867"><ele>863.6666666666667</ele><time>2026-05-03T07:23:07.286Z</time></trkpt><trkpt lat="42.3628783" lon="13.496015"><ele>864.0</ele><time>2026-05-03T07:23:08.286Z</time></trkpt><trkpt lat="42.3628633" lon="13.4961383"><ele>864.3333333333333</ele><time>2026-05-03T07:23:09.286Z</time></trkpt><trkpt lat="42.3628517" lon="13.4962533"><ele>864.6666666666666</ele><time>2026-05-03T07:23:10.286Z</time></trkpt><trkpt lat="42.36285" lon="13.4963567"><ele>865.0</ele><time>2026-05-03T07:23:11.286Z</time></trkpt><trkpt lat="42.3628483" lon="13.4964517"><ele>865.9999999999999</ele><time>2026-05-03T07:23:12.286Z</time></trkpt><trkpt lat="42.3628483" lon="13.49662"><ele>867.0</ele><time>2026-05-03T07:23:14.286Z</time></trkpt><trkpt lat="42.3628667" lon="13.49671"><ele>868.0</ele><time>2026-05-03T07:23:15.287Z</time></trkpt><trkpt lat="42.36288" lon="13.4967983"><ele>869.0</ele><time>2026-05-03T07:23:16.286Z</time></trkpt><trkpt lat="42.3629017" lon="13.4968867"><ele>869.9999999999999</ele><time>2026-05-03T07:23:17.286Z</time></trkpt><trkpt lat="42.3629167" lon="13.49698"><ele>871.0</ele><time>2026-05-03T07:23:18.287Z</time></trkpt><trkpt lat="42.3629267" lon="13.497145"><ele>871.5714285714286</ele><time>2026-05-03T07:23:20.286Z</time></trkpt><trkpt lat="42.3629167" lon="13.49724"><ele>872.1428571428571</ele><time>2026-05-03T07:23:21.286Z</time></trkpt><trkpt lat="42.3629133" lon="13.4973317"><ele>872.7142857142858</ele><time>2026-05-03T07:23:22.287Z</time></trkpt><trkpt lat="42.362915" lon="13.4974233"><ele>873.2857142857142</ele><time>2026-05-03T07:23:23.287Z</time></trkpt><trkpt lat="42.3629133" lon="13.4975183"><ele>873.8571428571429</ele><time>2026-05-03T07:23:24.286Z</time></trkpt><trkpt lat="42.3629183" lon="13.49761"><ele>874.4285714285714</ele><time>2026-05-03T07:23:25.286Z</time></trkpt><trkpt lat="42.36295" lon="13.49774"><ele>875.0</ele><time>2026-05-03T07:23:27.286Z</time></trkpt><trkpt lat="42.3630117" lon="13.497855"><ele>878.0000000000001</ele><time>2026-05-03T07:23:29.286Z</time></trkpt><trkpt lat="42.3630817" lon="13.497965"><ele>881.0</ele><time>2026-05-03T07:23:31.286Z</time></trkpt><trkpt lat="42.3631517" lon="13.49804"><ele>884.0</ele><time>2026-05-03T07:23:33.286Z</time></trkpt><trkpt lat="42.3632083" lon="13.4980833"><ele>887.0</ele><time>2026-05-03T07:23:35.286Z</time></trkpt><trkpt lat="42.3632717" lon="13.4981483"><ele>890.0000000000001</ele><time>2026-05-03T07:23:45.286Z</time></trkpt><trkpt lat="42.3633233" lon="13.4982067"><ele>893.0</ele><time>2026-05-03T07:23:48.286Z</time></trkpt><trkpt lat="42.3634423" lon="13.4982883"><ele>893.0</ele><time>2026-05-03T07:25:10.4Z</time></trkpt><trkpt lat="42.3635558" lon="13.498387"><ele>893.0</ele><time>2026-05-03T07:25:12.286Z</time></trkpt><trkpt lat="42.3636373" lon="13.4985059"><ele>893.0</ele><time>2026-05-03T07:25:14.286Z</time></trkpt><trkpt lat="42.3636785" lon="13.498647"><ele>893.0</ele><time>2026-05-03T07:25:16.286Z</time></trkpt><trkpt lat="42.36372" lon="13.4988045"><ele>893.5999999999999</ele><time>2026-05-03T07:25:18.286Z</time></trkpt><trkpt lat="42.3637565" lon="13.4989326"><ele>894.1999999999999</ele><time>2026-05-03T07:25:20.286Z</time></trkpt><trkpt lat="42.3638015" lon="13.4990226"><ele>894.8</ele><time>2026-05-03T07:25:22.286Z</time></trkpt><trkpt lat="42.3638946" lon="13.4991185"><ele>895.4</ele><time>2026-05-03T07:25:35.416Z</time></trkpt><trkpt lat="42.3639602" lon="13.4992585"><ele>896.0</ele><time>2026-05-03T07:25:51.337Z</time></trkpt><trkpt lat="42.3640531" lon="13.4994292"><ele>900.0</ele><time>2026-05-03T07:25:55.336Z</time></trkpt><trkpt lat="42.3642085" lon="13.4996579"><ele>904.0</ele><time>2026-05-03T07:25:59.286Z</time></trkpt><trkpt lat="42.3642785" lon="13.4997826"><ele>908.0</ele><time>2026-05-03T07:26:01.286Z</time></trkpt><trkpt lat="42.3643558" lon="13.4999171"><ele>908.0</ele><time>2026-05-03T07:26:03.286Z</time></trkpt><trkpt lat="42.3643962" lon="13.4999857"><ele>908.0</ele><time>2026-05-03T07:26:04.286Z</time></trkpt><trkpt lat="42.3644614" lon="13.5001247"><ele>908.0</ele><time>2026-05-03T07:26:06.286Z</time></trkpt><trkpt lat="42.3645234" lon="13.5002569"><ele>908.0</ele><time>2026-05-03T07:26:08.286Z</time></trkpt><trkpt lat="42.3645833" lon="13.5003964"><ele>908.0</ele><time>2026-05-03T07:26:10.286Z</time></trkpt><trkpt lat="42.3646331" lon="13.5005298"><ele>909.25</ele><time>2026-05-03T07:26:12.286Z</time></trkpt><trkpt lat="42.3646803" lon="13.5006517"><ele>910.5</ele><time>2026-05-03T07:26:14.286Z</time></trkpt><trkpt lat="42.3647343" lon="13.5007922"><ele>911.75</ele><time>2026-05-03T07:26:16.287Z</time></trkpt><trkpt lat="42.36479" lon="13.5009367"><ele>913.0</ele><time>2026-05-03T07:26:18.286Z</time></trkpt><trkpt lat="42.36485" lon="13.50107"><ele>914.1666666666666</ele><time>2026-05-03T07:26:20.286Z</time></trkpt><trkpt lat="42.3648933" lon="13.5012117"><ele>915.3333333333333</ele><time>2026-05-03T07:26:22.287Z</time></trkpt><trkpt lat="42.3649217" lon="13.5013583"><ele>916.5</ele><time>2026-05-03T07:26:24.286Z</time></trkpt><trkpt lat="42.3649317" lon="13.501445"><ele>917.6666666666667</ele><time>2026-05-03T07:26:25.286Z</time></trkpt><trkpt lat="42.36495" lon="13.50154"><ele>918.8333333333334</ele><time>2026-05-03T07:26:26.286Z</time></trkpt><trkpt lat="42.3649717" lon="13.501635"><ele>920.0</ele><time>2026-05-03T07:26:27.286Z</time></trkpt><trkpt lat="42.3649917" lon="13.5017233"><ele>921.4</ele><time>2026-05-03T07:26:28.286Z</time></trkpt><trkpt lat="42.365015" lon="13.5018133"><ele>922.8</ele><time>2026-05-03T07:26:29.287Z</time></trkpt><trkpt lat="42.36504" lon="13.5018967"><ele>924.2</ele><time>2026-05-03T07:26:30.286Z</time></trkpt><trkpt lat="42.3650933" lon="13.50204"><ele>925.6</ele><time>2026-05-03T07:26:32.286Z</time></trkpt><trkpt lat="42.365135" lon="13.5021917"><ele>927.0</ele><time>2026-05-03T07:26:34.286Z</time></trkpt><trkpt lat="42.365165" lon="13.502345"><ele>928.2</ele><time>2026-05-03T07:26:36.286Z</time></trkpt><trkpt lat="42.365185" lon="13.50249"><ele>929.4000000000001</ele><time>2026-05-03T07:26:38.286Z</time></trkpt><trkpt lat="42.3652283" lon="13.5026483"><ele>930.5999999999999</ele><time>2026-05-03T07:26:40.286Z</time></trkpt><trkpt lat="42.365255" lon="13.5027267"><ele>931.8</ele><time>2026-05-03T07:26:41.286Z</time></trkpt><trkpt lat="42.3653" lon="13.5028817"><ele>933.0</ele><time>2026-05-03T07:26:43.286Z</time></trkpt><trkpt lat="42.3653467" lon="13.5030067"><ele>934.3333333333334</ele><time>2026-05-03T07:26:45.286Z</time></trkpt><trkpt lat="42.3653833" lon="13.5030767"><ele>935.6666666666667</ele><time>2026-05-03T07:26:46.286Z</time></trkpt><trkpt lat="42.365425" lon="13.5031683"><ele>937.0</ele><time>2026-05-03T07:26:47.286Z</time></trkpt><trkpt lat="42.365475" lon="13.5032633"><ele>938.3333333333334</ele><time>2026-05-03T07:26:48.286Z</time></trkpt><trkpt lat="42.3655233" lon="13.5033583"><ele>939.6666666666667</ele><time>2026-05-03T07:26:49.286Z</time></trkpt><trkpt lat="42.3655633" lon="13.503445"><ele>941.0</ele><time>2026-05-03T07:26:50.286Z</time></trkpt><trkpt lat="42.3656033" lon="13.5035367"><ele>941.0000000000001</ele><time>2026-05-03T07:26:51.286Z</time></trkpt><trkpt lat="42.3656483" lon="13.50363"><ele>941.0</ele><time>2026-05-03T07:26:52.286Z</time></trkpt><trkpt lat="42.3656917" lon="13.503715"><ele>941.0</ele><time>2026-05-03T07:26:53.286Z</time></trkpt><trkpt lat="42.365745" lon="13.5038683"><ele>941.0</ele><time>2026-05-03T07:26:55.286Z</time></trkpt><trkpt lat="42.3657667" lon="13.5039517"><ele>941.0000000000001</ele><time>2026-05-03T07:26:56.286Z</time></trkpt><trkpt lat="42.36579" lon="13.50404"><ele>941.0</ele><time>2026-05-03T07:26:57.286Z</time></trkpt><trkpt lat="42.36581" lon="13.5041233"><ele>941.8</ele><time>2026-05-03T07:26:58.286Z</time></trkpt><trkpt lat="42.36584" lon="13.5042617"><ele>942.5999999999999</ele><time>2026-05-03T07:27:00.286Z</time></trkpt><trkpt lat="42.3658517" lon="13.50439"><ele>943.4</ele><time>2026-05-03T07:27:02.286Z</time></trkpt><trkpt lat="42.3658517" lon="13.5044967"><ele>944.2</ele><time>2026-05-03T07:27:04.286Z</time></trkpt><trkpt lat="42.3658217" lon="13.5046417"><ele>945.0</ele><time>2026-05-03T07:30:22.286Z</time></trkpt><trkpt lat="42.3658183" lon="13.5047883"><ele>945.1666666666666</ele><time>2026-05-03T07:30:24.286Z</time></trkpt><trkpt lat="42.3658367" lon="13.50493"><ele>945.3333333333333</ele><time>2026-05-03T07:30:26.286Z</time></trkpt><trkpt lat="42.3658483" lon="13.5050167"><ele>945.5</ele><time>2026-05-03T07:30:27.286Z</time></trkpt><trkpt lat="42.3658683" lon="13.5051133"><ele>945.6666666666666</ele><time>2026-05-03T07:30:28.286Z</time></trkpt><trkpt lat="42.3658883" lon="13.5052067"><ele>945.8333333333333</ele><time>2026-05-03T07:30:29.286Z</time></trkpt><trkpt lat="42.3659067" lon="13.5053"><ele>946.0</ele><time>2026-05-03T07:30:30.286Z</time></trkpt><trkpt lat="42.3659283" lon="13.5053933"><ele>946.1666666666666</ele><time>2026-05-03T07:30:31.286Z</time></trkpt><trkpt lat="42.3659483" lon="13.50549"><ele>946.3333333333333</ele><time>2026-05-03T07:30:32.286Z</time></trkpt><trkpt lat="42.36596" lon="13.50558"><ele>946.5</ele><time>2026-05-03T07:30:33.286Z</time></trkpt><trkpt lat="42.3659683" lon="13.505675"><ele>946.6666666666667</ele><time>2026-05-03T07:30:34.286Z</time></trkpt><trkpt lat="42.365975" lon="13.5057617"><ele>946.8333333333334</ele><time>2026-05-03T07:30:35.286Z</time></trkpt><trkpt lat="42.3659917" lon="13.5058467"><ele>947.0</ele><time>2026-05-03T07:30:36.286Z</time></trkpt><trkpt lat="42.366014" lon="13.5060144"><ele>947.0000000000001</ele><time>2026-05-03T07:30:38.286Z</time></trkpt><trkpt lat="42.3660239" lon="13.5061079"><ele>947.0</ele><time>2026-05-03T07:30:39.286Z</time></trkpt><trkpt lat="42.3660279" lon="13.5062058"><ele>947.0</ele><time>2026-05-03T07:30:40.286Z</time></trkpt><trkpt lat="42.3660352" lon="13.5063016"><ele>947.0</ele><time>2026-05-03T07:30:41.286Z</time></trkpt><trkpt lat="42.3660488" lon="13.5063916"><ele>947.0000000000001</ele><time>2026-05-03T07:30:42.287Z</time></trkpt><trkpt lat="42.36609" lon="13.5065233"><ele>947.0</ele><time>2026-05-03T07:30:44.286Z</time></trkpt><trkpt lat="42.3661612" lon="13.5066495"><ele>947.4000000000001</ele><time>2026-05-03T07:30:46.286Z</time></trkpt><trkpt lat="42.3662371" lon="13.506788"><ele>947.8000000000001</ele><time>2026-05-03T07:30:48.286Z</time></trkpt><trkpt lat="42.3663277" lon="13.5069085"><ele>948.2</ele><time>2026-05-03T07:30:50.286Z</time></trkpt><trkpt lat="42.3663762" lon="13.506976"><ele>948.6</ele><time>2026-05-03T07:30:51.286Z</time></trkpt><trkpt lat="42.3664278" lon="13.5070444"><ele>949.0</ele><time>2026-05-03T07:30:52.286Z</time></trkpt><trkpt lat="42.3664752" lon="13.5071159"><ele>951.2</ele><time>2026-05-03T07:30:53.286Z</time></trkpt><trkpt lat="42.3665446" lon="13.5072497"><ele>953.4000000000001</ele><time>2026-05-03T07:30:55.286Z</time></trkpt><trkpt lat="42.366605" lon="13.5073508"><ele>955.6</ele><time>2026-05-03T07:30:57.287Z</time></trkpt><trkpt lat="42.3666767" lon="13.5074517"><ele>957.8</ele><time>2026-05-03T07:31:06.286Z</time></trkpt><trkpt lat="42.366735" lon="13.507535"><ele>960.0</ele><time>2026-05-03T07:31:08.286Z</time></trkpt><trkpt lat="42.3667033" lon="13.5076317"><ele>960.0</ele><time>2026-05-03T07:31:12.286Z</time></trkpt><trkpt lat="42.3666083" lon="13.5076867"><ele>960.0</ele><time>2026-05-03T07:31:14.286Z</time></trkpt><trkpt lat="42.36655" lon="13.5077317"><ele>960.0</ele><time>2026-05-03T07:31:15.287Z</time></trkpt><trkpt lat="42.3664833" lon="13.5077733"><ele>960.0</ele><time>2026-05-03T07:31:16.286Z</time></trkpt><trkpt lat="42.3664217" lon="13.5078133"><ele>960.0</ele><time>2026-05-03T07:31:17.286Z</time></trkpt><trkpt lat="42.366315" lon="13.5079033"><ele>960.0</ele><time>2026-05-03T07:31:19.286Z</time></trkpt><trkpt lat="42.3662567" lon="13.50795"><ele>958.6</ele><time>2026-05-03T07:31:20.286Z</time></trkpt><trkpt lat="42.3661983" lon="13.5079917"><ele>957.2</ele><time>2026-05-03T07:31:21.286Z</time></trkpt><trkpt lat="42.3660967" lon="13.5080633"><ele>955.8</ele><time>2026-05-03T07:31:23.286Z</time></trkpt><trkpt lat="42.3660317" lon="13.5081933"><ele>954.4</ele><time>2026-05-03T07:31:25.286Z</time></trkpt><trkpt lat="42.3659967" lon="13.508265"><ele>953.0</ele><time>2026-05-03T07:31:26.287Z</time></trkpt><trkpt lat="42.3659417" lon="13.5083917"><ele>953.0000000000001</ele><time>2026-05-03T07:31:28.286Z</time></trkpt><trkpt lat="42.3658833" lon="13.50848"><ele>953.0</ele><time>2026-05-03T07:31:30.286Z</time></trkpt><trkpt lat="42.3658283" lon="13.5085283"><ele>953.0</ele><time>2026-05-03T07:31:32.286Z</time></trkpt><trkpt lat="42.3657967" lon="13.5086283"><ele>953.0</ele><time>2026-05-03T07:31:35.287Z</time></trkpt><trkpt lat="42.3657833" lon="13.5087567"><ele>953.0000000000001</ele><time>2026-05-03T07:31:37.286Z</time></trkpt><trkpt lat="42.3657517" lon="13.508895"><ele>953.0</ele><time>2026-05-03T07:31:39.286Z</time></trkpt><trkpt lat="42.3657133" lon="13.5090033"><ele>953.6666666666667</ele><time>2026-05-03T07:31:41.286Z</time></trkpt><trkpt lat="42.3656717" lon="13.5090717"><ele>954.3333333333334</ele><time>2026-05-03T07:31:43.286Z</time></trkpt><trkpt lat="42.3656233" lon="13.5091783"><ele>955.0</ele><time>2026-05-03T07:31:46.286Z</time></trkpt><trkpt lat="42.3656067" lon="13.5093033"><ele>955.6666666666667</ele><time>2026-05-03T07:31:48.286Z</time></trkpt><trkpt lat="42.3656067" lon="13.5094117"><ele>956.3333333333334</ele><time>2026-05-03T07:31:50.286Z</time></trkpt><trkpt lat="42.3656138" lon="13.5095057"><ele>957.0</ele><time>2026-05-03T07:31:52.344Z</time></trkpt><trkpt lat="42.3656249" lon="13.5096179"><ele>957.0</ele><time>2026-05-03T07:31:55.321Z</time></trkpt><trkpt lat="42.3656609" lon="13.5096927"><ele>957.0</ele><time>2026-05-03T07:31:57.341Z</time></trkpt><trkpt lat="42.365744" lon="13.5097669"><ele>957.0</ele><time>2026-05-03T07:31:59.286Z</time></trkpt><trkpt lat="42.365846" lon="13.5098303"><ele>957.0</ele><time>2026-05-03T07:32:01.286Z</time></trkpt><trkpt lat="42.3659533" lon="13.5098817"><ele>957.0</ele><time>2026-05-03T07:32:03.286Z</time></trkpt><trkpt lat="42.3660517" lon="13.5099033"><ele>957.0</ele><time>2026-05-03T07:32:05.286Z</time></trkpt><trkpt lat="42.3661033" lon="13.5099883"><ele>957.0</ele><time>2026-05-03T07:32:07.286Z</time></trkpt><trkpt lat="42.3660867" lon="13.5101083"><ele>957.0</ele><time>2026-05-03T07:32:09.286Z</time></trkpt><trkpt lat="42.3660367" lon="13.5102417"><ele>957.0</ele><time>2026-05-03T07:32:11.286Z</time></trkpt><trkpt lat="42.3660017" lon="13.5103767"><ele>957.0</ele><time>2026-05-03T07:32:13.286Z</time></trkpt><trkpt lat="42.3659433" lon="13.51051"><ele>956.8</ele><time>2026-05-03T07:32:15.286Z</time></trkpt><trkpt lat="42.3658533" lon="13.5105783"><ele>956.6</ele><time>2026-05-03T07:32:17.286Z</time></trkpt><trkpt lat="42.365775" lon="13.5106483"><ele>956.3999999999999</ele><time>2026-05-03T07:32:19.286Z</time></trkpt><trkpt lat="42.3657133" lon="13.51075"><ele>956.1999999999999</ele><time>2026-05-03T07:32:21.286Z</time></trkpt><trkpt lat="42.3656533" lon="13.51088"><ele>956.0</ele><time>2026-05-03T07:32:23.286Z</time></trkpt><trkpt lat="42.36561" lon="13.511005"><ele>956.0000000000001</ele><time>2026-05-03T07:32:25.286Z</time></trkpt><trkpt lat="42.3655933" lon="13.5110933"><ele>956.0</ele><time>2026-05-03T07:32:29.286Z</time></trkpt><trkpt lat="42.3655783" lon="13.511235"><ele>956.0</ele><time>2026-05-03T07:32:31.286Z</time></trkpt><trkpt lat="42.365565" lon="13.51132"><ele>956.0</ele><time>2026-05-03T07:32:32.286Z</time></trkpt><trkpt lat="42.3655333" lon="13.511475"><ele>956.0000000000001</ele><time>2026-05-03T07:32:34.286Z</time></trkpt><trkpt lat="42.365505" lon="13.5115517"><ele>956.0</ele><time>2026-05-03T07:32:35.286Z</time></trkpt><trkpt lat="42.3654567" lon="13.5116983"><ele>956.1999999999999</ele><time>2026-05-03T07:32:37.286Z</time></trkpt><trkpt lat="42.3654117" lon="13.5118417"><ele>956.3999999999999</ele><time>2026-05-03T07:32:39.286Z</time></trkpt><trkpt lat="42.3653883" lon="13.5119933"><ele>956.6</ele><time>2026-05-03T07:32:41.286Z</time></trkpt><trkpt lat="42.36539" lon="13.5120967"><ele>956.8</ele><time>2026-05-03T07:32:43.286Z</time></trkpt><trkpt lat="42.365385" lon="13.5122217"><ele>957.0</ele><time>2026-05-03T07:32:46.286Z</time></trkpt><trkpt lat="42.36539" lon="13.5123267"><ele>957.0</ele><time>2026-05-03T07:32:48.286Z</time></trkpt><trkpt lat="42.3654167" lon="13.51243"><ele>957.0</ele><time>2026-05-03T07:32:50.286Z</time></trkpt><trkpt lat="42.3654617" lon="13.512565"><ele>957.0</ele><time>2026-05-03T07:32:52.286Z</time></trkpt><trkpt lat="42.3655017" lon="13.5127017"><ele>957.0</ele><time>2026-05-03T07:32:54.286Z</time></trkpt><trkpt lat="42.3655217" lon="13.5128633"><ele>957.0</ele><time>2026-05-03T07:32:56.287Z</time></trkpt><trkpt lat="42.3655283" lon="13.51296"><ele>959.1666666666666</ele><time>2026-05-03T07:32:57.286Z</time></trkpt><trkpt lat="42.3655383" lon="13.5131017"><ele>961.3333333333333</ele><time>2026-05-03T07:32:59.286Z</time></trkpt><trkpt lat="42.3655137" lon="13.5131933"><ele>963.5</ele><time>2026-05-03T07:33:02.286Z</time></trkpt><trkpt lat="42.3654227" lon="13.5131878"><ele>965.6666666666666</ele><time>2026-05-03T07:33:05.286Z</time></trkpt><trkpt lat="42.3653547" lon="13.5131237"><ele>967.8333333333333</ele><time>2026-05-03T07:33:07.286Z</time></trkpt><trkpt lat="42.3653004" lon="13.5130535"><ele>970.0</ele><time>2026-05-03T07:33:08.286Z</time></trkpt><trkpt lat="42.3652521" lon="13.512959"><ele>967.4</ele><time>2026-05-03T07:33:09.286Z</time></trkpt><trkpt lat="42.3652032" lon="13.5128698"><ele>964.8</ele><time>2026-05-03T07:33:10.287Z</time></trkpt><trkpt lat="42.3651544" lon="13.5127912"><ele>962.2</ele><time>2026-05-03T07:33:11.286Z</time></trkpt><trkpt lat="42.3651097" lon="13.5127308"><ele>959.6</ele><time>2026-05-03T07:33:12.286Z</time></trkpt><trkpt lat="42.3650261" lon="13.5126202"><ele>957.0</ele><time>2026-05-03T07:33:14.287Z</time></trkpt><trkpt lat="42.3649553" lon="13.5125013"><ele>957.0</ele><time>2026-05-03T07:33:16.286Z</time></trkpt><trkpt lat="42.3648894" lon="13.5123811"><ele>957.0</ele><time>2026-05-03T07:33:18.286Z</time></trkpt><trkpt lat="42.3648191" lon="13.5122733"><ele>957.0</ele><time>2026-05-03T07:33:20.286Z</time></trkpt><trkpt lat="42.3647559" lon="13.5121619"><ele>957.0</ele><time>2026-05-03T07:33:22.286Z</time></trkpt><trkpt lat="42.3646616" lon="13.5120451"><ele>957.0</ele><time>2026-05-03T07:33:24.286Z</time></trkpt><trkpt lat="42.3646041" lon="13.5119849"><ele>955.1666666666666</ele><time>2026-05-03T07:33:25.286Z</time></trkpt><trkpt lat="42.3645487" lon="13.5119263"><ele>953.3333333333333</ele><time>2026-05-03T07:33:26.286Z</time></trkpt><trkpt lat="42.3644927" lon="13.5118714"><ele>951.5</ele><time>2026-05-03T07:33:27.286Z</time></trkpt><trkpt lat="42.3644419" lon="13.5118137"><ele>949.6666666666666</ele><time>2026-05-03T07:33:28.286Z</time></trkpt><trkpt lat="42.364392" lon="13.5117596"><ele>947.8333333333333</ele><time>2026-05-03T07:33:29.286Z</time></trkpt><trkpt lat="42.3643112" lon="13.5116593"><ele>946.0</ele><time>2026-05-03T07:33:31.286Z</time></trkpt><trkpt lat="42.3642403" lon="13.5115601"><ele>945.9999999999999</ele><time>2026-05-03T07:33:33.287Z</time></trkpt><trkpt lat="42.3641491" lon="13.5114672"><ele>946.0</ele><time>2026-05-03T07:33:35.286Z</time></trkpt><trkpt lat="42.3640804" lon="13.5114267"><ele>946.0</ele><time>2026-05-03T07:33:36.286Z</time></trkpt><trkpt lat="42.3640052" lon="13.5113937"><ele>946.0</ele><time>2026-05-03T07:33:37.286Z</time></trkpt><trkpt lat="42.3639367" lon="13.5113628"><ele>945.9999999999999</ele><time>2026-05-03T07:33:38.286Z</time></trkpt><trkpt lat="42.3638701" lon="13.5113405"><ele>946.0</ele><time>2026-05-03T07:33:39.286Z</time></trkpt><trkpt lat="42.3637555" lon="13.5113149"><ele>946.1999999999999</ele><time>2026-05-03T07:33:41.286Z</time></trkpt><trkpt lat="42.3636469" lon="13.5112953"><ele>946.3999999999999</ele><time>2026-05-03T07:33:43.286Z</time></trkpt><trkpt lat="42.3635393" lon="13.5112688"><ele>946.6</ele><time>2026-05-03T07:33:45.286Z</time></trkpt><trkpt lat="42.363433" lon="13.5112441"><ele>946.8</ele><time>2026-05-03T07:33:47.286Z</time></trkpt><trkpt lat="42.3633304" lon="13.5112312"><ele>947.0</ele><time>2026-05-03T07:33:49.286Z</time></trkpt><trkpt lat="42.3632262" lon="13.5112079"><ele>946.0000000000001</ele><time>2026-05-03T07:33:51.286Z</time></trkpt><trkpt lat="42.3631431" lon="13.5111289"><ele>945.0</ele><time>2026-05-03T07:33:53.286Z</time></trkpt><trkpt lat="42.3631025" lon="13.5110636"><ele>944.0</ele><time>2026-05-03T07:33:54.286Z</time></trkpt><trkpt lat="42.3630584" lon="13.5109985"><ele>943.0</ele><time>2026-05-03T07:33:55.286Z</time></trkpt><trkpt lat="42.3630106" lon="13.5109428"><ele>942.0000000000001</ele><time>2026-05-03T07:33:56.286Z</time></trkpt><trkpt lat="42.362927" lon="13.5108568"><ele>941.0</ele><time>2026-05-03T07:33:58.286Z</time></trkpt><trkpt lat="42.3628831" lon="13.5107942"><ele>939.5000000000001</ele><time>2026-05-03T07:33:59.286Z</time></trkpt><trkpt lat="42.3628347" lon="13.5107305"><ele>938.0</ele><time>2026-05-03T07:34:00.286Z</time></trkpt><trkpt lat="42.3627864" lon="13.5106677"><ele>936.5</ele><time>2026-05-03T07:34:01.286Z</time></trkpt><trkpt lat="42.3627355" lon="13.5106103"><ele>935.0</ele><time>2026-05-03T07:34:02.287Z</time></trkpt><trkpt lat="42.3626363" lon="13.5105233"><ele>933.5000000000001</ele><time>2026-05-03T07:34:04.286Z</time></trkpt><trkpt lat="42.3625394" lon="13.5105079"><ele>932.0</ele><time>2026-05-03T07:34:06.286Z</time></trkpt><trkpt lat="42.3624177" lon="13.510516"><ele>932.0</ele><time>2026-05-03T07:34:08.286Z</time></trkpt><trkpt lat="42.3622908" lon="13.5105437"><ele>932.0</ele><time>2026-05-03T07:34:10.286Z</time></trkpt><trkpt lat="42.3622297" lon="13.5105664"><ele>932.0</ele><time>2026-05-03T07:34:11.287Z</time></trkpt><trkpt lat="42.3621208" lon="13.5106276"><ele>932.0</ele><time>2026-05-03T07:34:13.286Z</time></trkpt><trkpt lat="42.3620117" lon="13.51063"><ele>932.0</ele><time>2026-05-03T07:34:15.286Z</time></trkpt><trkpt lat="42.361945" lon="13.5106317"><ele>930.6666666666667</ele><time>2026-05-03T07:34:16.286Z</time></trkpt><trkpt lat="42.3618783" lon="13.5106417"><ele>929.3333333333334</ele><time>2026-05-03T07:34:17.287Z</time></trkpt><trkpt lat="42.36181" lon="13.5106767"><ele>928.0</ele><time>2026-05-03T07:34:18.286Z</time></trkpt><trkpt lat="42.36175" lon="13.5107117"><ele>926.6666666666667</ele><time>2026-05-03T07:34:19.286Z</time></trkpt><trkpt lat="42.3616383" lon="13.5107383"><ele>925.3333333333334</ele><time>2026-05-03T07:34:21.286Z</time></trkpt><trkpt lat="42.3615333" lon="13.510725"><ele>924.0</ele><time>2026-05-03T07:34:23.286Z</time></trkpt><trkpt lat="42.3614233" lon="13.5107083"><ele>923.1666666666666</ele><time>2026-05-03T07:34:25.286Z</time></trkpt><trkpt lat="42.3613217" lon="13.5106633"><ele>922.3333333333333</ele><time>2026-05-03T07:34:27.286Z</time></trkpt><trkpt lat="42.361215" lon="13.5106"><ele>921.5</ele><time>2026-05-03T07:34:29.286Z</time></trkpt><trkpt lat="42.3611433" lon="13.51058"><ele>920.6666666666666</ele><time>2026-05-03T07:34:30.286Z</time></trkpt><trkpt lat="42.3610717" lon="13.5105667"><ele>919.8333333333333</ele><time>2026-05-03T07:34:31.286Z</time></trkpt><trkpt lat="42.3610017" lon="13.5105533"><ele>919.0</ele><time>2026-05-03T07:34:32.286Z</time></trkpt><trkpt lat="42.360935" lon="13.510545"><ele>919.0</ele><time>2026-05-03T07:34:33.287Z</time></trkpt><trkpt lat="42.360825" lon="13.5104967"><ele>919.0000000000001</ele><time>2026-05-03T07:34:35.286Z</time></trkpt><trkpt lat="42.3607383" lon="13.510425"><ele>919.0000000000001</ele><time>2026-05-03T07:34:37.286Z</time></trkpt><trkpt lat="42.3606483" lon="13.51033"><ele>919.0</ele><time>2026-05-03T07:34:39.287Z</time></trkpt><trkpt lat="42.3605933" lon="13.5102883"><ele>919.0</ele><time>2026-05-03T07:34:40.286Z</time></trkpt><trkpt lat="42.3604867" lon="13.5102117"><ele>916.4000000000001</ele><time>2026-05-03T07:34:42.286Z</time></trkpt><trkpt lat="42.360435" lon="13.51016"><ele>913.8000000000001</ele><time>2026-05-03T07:34:43.286Z</time></trkpt><trkpt lat="42.3603833" lon="13.5101067"><ele>911.1999999999999</ele><time>2026-05-03T07:34:44.286Z</time></trkpt><trkpt lat="42.3602983" lon="13.5100017"><ele>908.5999999999999</ele><time>2026-05-03T07:34:46.286Z</time></trkpt><trkpt lat="42.3602117" lon="13.5098983"><ele>906.0</ele><time>2026-05-03T07:34:48.286Z</time></trkpt><trkpt lat="42.36012" lon="13.5097917"><ele>906.0</ele><time>2026-05-03T07:34:50.286Z</time></trkpt><trkpt lat="42.3600383" lon="13.5096967"><ele>905.9999999999999</ele><time>2026-05-03T07:34:52.286Z</time></trkpt><trkpt lat="42.3599817" lon="13.509595"><ele>905.9999999999999</ele><time>2026-05-03T07:34:54.286Z</time></trkpt><trkpt lat="42.3599467" lon="13.5094617"><ele>906.0</ele><time>2026-05-03T07:34:56.286Z</time></trkpt><trkpt lat="42.359925" lon="13.50938"><ele>906.0</ele><time>2026-05-03T07:34:57.286Z</time></trkpt><trkpt lat="42.3598833" lon="13.509225"><ele>906.0</ele><time>2026-05-03T07:34:59.286Z</time></trkpt><trkpt lat="42.3598567" lon="13.50914"><ele>906.0</ele><time>2026-05-03T07:35:00.286Z</time></trkpt><trkpt lat="42.3598233" lon="13.5090317"><ele>906.0</ele><time>2026-05-03T07:35:01.286Z</time></trkpt><trkpt lat="42.3597967" lon="13.508915"><ele>906.0</ele><time>2026-05-03T07:35:02.286Z</time></trkpt><trkpt lat="42.359775" lon="13.5088"><ele>906.0</ele><time>2026-05-03T07:35:03.286Z</time></trkpt><trkpt lat="42.359755" lon="13.5086883"><ele>906.0</ele><time>2026-05-03T07:35:04.286Z</time></trkpt><trkpt lat="42.3597317" lon="13.5085667"><ele>906.0</ele><time>2026-05-03T07:35:05.286Z</time></trkpt><trkpt lat="42.35971" lon="13.5084483"><ele>906.0</ele><time>2026-05-03T07:35:06.286Z</time></trkpt><trkpt lat="42.3596883" lon="13.508325"><ele>906.0</ele><time>2026-05-03T07:35:07.286Z</time></trkpt><trkpt lat="42.359675" lon="13.5082067"><ele>906.0</ele><time>2026-05-03T07:35:08.286Z</time></trkpt><trkpt lat="42.35966" lon="13.5080967"><ele>906.0</ele><time>2026-05-03T07:35:09.286Z</time></trkpt><trkpt lat="42.359635" lon="13.5079783"><ele>906.0</ele><time>2026-05-03T07:35:10.286Z</time></trkpt><trkpt lat="42.3596117" lon="13.5078567"><ele>902.8333333333334</ele><time>2026-05-03T07:35:11.286Z</time></trkpt><trkpt lat="42.3595933" lon="13.5077517"><ele>899.6666666666667</ele><time>2026-05-03T07:35:12.286Z</time></trkpt><trkpt lat="42.3595767" lon="13.5076583"><ele>896.5</ele><time>2026-05-03T07:35:13.286Z</time></trkpt><trkpt lat="42.3595733" lon="13.5074867"><ele>893.3333333333334</ele><time>2026-05-03T07:35:15.286Z</time></trkpt><trkpt lat="42.359575" lon="13.5073933"><ele>890.1666666666667</ele><time>2026-05-03T07:35:16.287Z</time></trkpt><trkpt lat="42.359575" lon="13.5073033"><ele>887.0</ele><time>2026-05-03T07:35:17.286Z</time></trkpt><trkpt lat="42.35954" lon="13.5071567"><ele>885.8</ele><time>2026-05-03T07:35:19.286Z</time></trkpt><trkpt lat="42.3595117" lon="13.5070167"><ele>884.6</ele><time>2026-05-03T07:35:21.286Z</time></trkpt><trkpt lat="42.35952" lon="13.5068567"><ele>883.3999999999999</ele><time>2026-05-03T07:35:23.286Z</time></trkpt><trkpt lat="42.3595167" lon="13.5067683"><ele>882.1999999999999</ele><time>2026-05-03T07:35:24.286Z</time></trkpt><trkpt lat="42.3594833" lon="13.50661"><ele>881.0</ele><time>2026-05-03T07:35:26.286Z</time></trkpt><trkpt lat="42.3594567" lon="13.5065317"><ele>881.0</ele><time>2026-05-03T07:35:27.286Z</time></trkpt><trkpt lat="42.359425" lon="13.50639"><ele>880.9999999999999</ele><time>2026-05-03T07:35:29.286Z</time></trkpt><trkpt lat="42.3593983" lon="13.5063067"><ele>880.9999999999999</ele><time>2026-05-03T07:35:31.286Z</time></trkpt><trkpt lat="42.359325" lon="13.5062567"><ele>881.0</ele><time>2026-05-03T07:35:34.286Z</time></trkpt><trkpt lat="42.359205" lon="13.5062833"><ele>881.0</ele><time>2026-05-03T07:35:36.286Z</time></trkpt><trkpt lat="42.3591117" lon="13.5062883"><ele>881.0</ele><time>2026-05-03T07:35:37.287Z</time></trkpt><trkpt lat="42.3590183" lon="13.5062583"><ele>881.0</ele><time>2026-05-03T07:35:38.286Z</time></trkpt><trkpt lat="42.3589267" lon="13.50619"><ele>881.0</ele><time>2026-05-03T07:35:39.286Z</time></trkpt><trkpt lat="42.3588283" lon="13.5060633"><ele>881.0</ele><time>2026-05-03T07:35:40.286Z</time></trkpt><trkpt lat="42.3587233" lon="13.5058933"><ele>879.3333333333334</ele><time>2026-05-03T07:35:41.286Z</time></trkpt><trkpt lat="42.3586133" lon="13.5056967"><ele>877.6666666666667</ele><time>2026-05-03T07:35:42.286Z</time></trkpt><trkpt lat="42.3585167" lon="13.5054933"><ele>876.0</ele><time>2026-05-03T07:35:43.286Z</time></trkpt><trkpt lat="42.3584117" lon="13.5053067"><ele>876.0</ele><time>2026-05-03T07:35:44.286Z</time></trkpt><trkpt lat="42.3583017" lon="13.50514"><ele>876.0</ele><time>2026-05-03T07:35:45.286Z</time></trkpt><trkpt lat="42.3581683" lon="13.50498"><ele>876.0</ele><time>2026-05-03T07:35:46.286Z</time></trkpt><trkpt lat="42.3580317" lon="13.50485"><ele>876.0</ele><time>2026-05-03T07:35:47.287Z</time></trkpt><trkpt lat="42.3579017" lon="13.5047417"><ele>876.0</ele><time>2026-05-03T07:35:48.286Z</time></trkpt><trkpt lat="42.3577883" lon="13.5046583"><ele>876.0</ele><time>2026-05-03T07:35:49.286Z</time></trkpt><trkpt lat="42.3576783" lon="13.5045817"><ele>876.0</ele><time>2026-05-03T07:35:50.286Z</time></trkpt><trkpt lat="42.357565" lon="13.5045217"><ele>876.0</ele><time>2026-05-03T07:35:51.286Z</time></trkpt><trkpt lat="42.357445" lon="13.504495"><ele>876.0</ele><time>2026-05-03T07:35:52.286Z</time></trkpt><trkpt lat="42.3573167" lon="13.5044733"><ele>876.0</ele><time>2026-05-03T07:35:53.287Z</time></trkpt><trkpt lat="42.3571817" lon="13.5044683"><ele>876.0</ele><time>2026-05-03T07:35:54.286Z</time></trkpt><trkpt lat="42.3570433" lon="13.5044883"><ele>877.0</ele><time>2026-05-03T07:35:55.286Z</time></trkpt><trkpt lat="42.3569017" lon="13.5045417"><ele>878.0</ele><time>2026-05-03T07:35:56.286Z</time></trkpt><trkpt lat="42.3567883" lon="13.504615"><ele>879.0</ele><time>2026-05-03T07:35:57.286Z</time></trkpt><trkpt lat="42.3566917" lon="13.50471"><ele>880.0</ele><time>2026-05-03T07:35:58.286Z</time></trkpt><trkpt lat="42.3566117" lon="13.504835"><ele>883.6</ele><time>2026-05-03T07:35:59.286Z</time></trkpt><trkpt lat="42.35656" lon="13.50497"><ele>887.2</ele><time>2026-05-03T07:36:00.286Z</time></trkpt><trkpt lat="42.356515" lon="13.505095"><ele>890.8</ele><time>2026-05-03T07:36:01.286Z</time></trkpt><trkpt lat="42.3564883" lon="13.5052067"><ele>894.4</ele><time>2026-05-03T07:36:02.286Z</time></trkpt><trkpt lat="42.356455" lon="13.505335"><ele>898.0</ele><time>2026-05-03T07:36:04.287Z</time></trkpt><trkpt lat="42.35641" lon="13.505415"><ele>899.9999999999999</ele><time>2026-05-03T07:37:20.286Z</time></trkpt><trkpt lat="42.356455" lon="13.5055167"><ele>902.0</ele><time>2026-05-03T07:37:50.286Z</time></trkpt><trkpt lat="42.3565093" lon="13.5056067"><ele>904.0</ele><time>2026-05-03T07:37:54.391Z</time></trkpt><trkpt lat="42.3565608" lon="13.505668"><ele>906.0</ele><time>2026-05-03T07:38:07.372Z</time></trkpt><trkpt lat="42.3566307" lon="13.5057472"><ele>907.9999999999999</ele><time>2026-05-03T07:38:10.285Z</time></trkpt><trkpt lat="42.3566752" lon="13.5058196"><ele>910.0</ele><time>2026-05-03T07:38:12.331Z</time></trkpt><trkpt lat="42.3567196" lon="13.5058829"><ele>909.9999999999999</ele><time>2026-05-03T07:38:14.351Z</time></trkpt><trkpt lat="42.3567887" lon="13.5059254"><ele>910.0</ele><time>2026-05-03T07:38:16.266Z</time></trkpt><trkpt lat="42.3568588" lon="13.5059645"><ele>910.0</ele><time>2026-05-03T07:38:18.391Z</time></trkpt><trkpt lat="42.3569104" lon="13.5060193"><ele>910.0</ele><time>2026-05-03T07:38:20.412Z</time></trkpt><trkpt lat="42.3569451" lon="13.5060977"><ele>909.9999999999999</ele><time>2026-05-03T07:38:22.325Z</time></trkpt><trkpt lat="42.3569832" lon="13.5061871"><ele>910.0</ele><time>2026-05-03T07:38:24.345Z</time></trkpt><trkpt lat="42.3570061" lon="13.5063186"><ele>912.0</ele><time>2026-05-03T07:38:26.365Z</time></trkpt><trkpt lat="42.3570072" lon="13.5064531"><ele>914.0</ele><time>2026-05-03T07:38:28.386Z</time></trkpt><trkpt lat="42.3570116" lon="13.5066042"><ele>916.0</ele><time>2026-05-03T07:38:30.345Z</time></trkpt><trkpt lat="42.3570062" lon="13.5067294"><ele>918.0</ele><time>2026-05-03T07:38:32.321Z</time></trkpt><trkpt lat="42.3570273" lon="13.5068139"><ele>920.0</ele><time>2026-05-03T07:38:34.227Z</time></trkpt><trkpt lat="42.357106" lon="13.5067593"><ele>919.9999999999999</ele><time>2026-05-03T07:38:37.317Z</time></trkpt><trkpt lat="42.3571738" lon="13.5067443"><ele>920.0</ele><time>2026-05-03T07:38:39.337Z</time></trkpt><trkpt lat="42.3572363" lon="13.5066909"><ele>919.9999999999999</ele><time>2026-05-03T07:38:41.357Z</time></trkpt><trkpt lat="42.3573042" lon="13.5066258"><ele>919.9999999999999</ele><time>2026-05-03T07:38:43.365Z</time></trkpt><trkpt lat="42.3573673" lon="13.5065881"><ele>920.0</ele><time>2026-05-03T07:38:45.291Z</time></trkpt><trkpt lat="42.3574331" lon="13.5066168"><ele>919.9999999999999</ele><time>2026-05-03T07:38:47.312Z</time></trkpt><trkpt lat="42.3574688" lon="13.5066998"><ele>919.9999999999999</ele><time>2026-05-03T07:38:49.331Z</time></trkpt><trkpt lat="42.3574818" lon="13.5067938"><ele>921.25</ele><time>2026-05-03T07:38:51.406Z</time></trkpt><trkpt lat="42.3575179" lon="13.5069888"><ele>922.5</ele><time>2026-05-03T07:38:53.286Z</time></trkpt><trkpt lat="42.3575428" lon="13.5071569"><ele>923.75</ele><time>2026-05-03T07:38:54.286Z</time></trkpt><trkpt lat="42.3575551" lon="13.5073062"><ele>925.0</ele><time>2026-05-03T07:38:55.286Z</time></trkpt><trkpt lat="42.3575564" lon="13.5074387"><ele>925.8333333333333</ele><time>2026-05-03T07:38:56.286Z</time></trkpt><trkpt lat="42.3575383" lon="13.5075667"><ele>926.6666666666666</ele><time>2026-05-03T07:38:57.286Z</time></trkpt><trkpt lat="42.3575383" lon="13.5076617"><ele>927.5</ele><time>2026-05-03T07:38:58.286Z</time></trkpt><trkpt lat="42.3575333" lon="13.507755"><ele>928.3333333333333</ele><time>2026-05-03T07:38:59.286Z</time></trkpt><trkpt lat="42.3575367" lon="13.5078467"><ele>929.1666666666666</ele><time>2026-05-03T07:39:00.286Z</time></trkpt><trkpt lat="42.357545" lon="13.507955"><ele>930.0</ele><time>2026-05-03T07:39:01.286Z</time></trkpt><trkpt lat="42.3575583" lon="13.50807"><ele>931.6</ele><time>2026-05-03T07:39:02.286Z</time></trkpt><trkpt lat="42.3575667" lon="13.50817"><ele>933.2</ele><time>2026-05-03T07:39:03.286Z</time></trkpt><trkpt lat="42.357575" lon="13.50826"><ele>934.8</ele><time>2026-05-03T07:39:04.286Z</time></trkpt><trkpt lat="42.35756" lon="13.50839"><ele>936.4</ele><time>2026-05-03T07:39:06.286Z</time></trkpt><trkpt lat="42.3575417" lon="13.50854"><ele>938.0</ele><time>2026-05-03T07:39:08.286Z</time></trkpt><trkpt lat="42.3575133" lon="13.5086917"><ele>940.5000000000001</ele><time>2026-05-03T07:39:10.286Z</time></trkpt><trkpt lat="42.3575033" lon="13.5088467"><ele>943.0</ele><time>2026-05-03T07:39:12.286Z</time></trkpt><trkpt lat="42.357485" lon="13.508935"><ele>945.5</ele><time>2026-05-03T07:39:14.286Z</time></trkpt><trkpt lat="42.357535" lon="13.5090317"><ele>948.0</ele><time>2026-05-03T07:39:17.286Z</time></trkpt><trkpt lat="42.3575867" lon="13.509095"><ele>950.5000000000001</ele><time>2026-05-03T07:39:18.286Z</time></trkpt><trkpt lat="42.357655" lon="13.5091833"><ele>953.0</ele><time>2026-05-03T07:39:19.286Z</time></trkpt><trkpt lat="42.3577467" lon="13.50933"><ele>953.0</ele><time>2026-05-03T07:39:20.286Z</time></trkpt><trkpt lat="42.357825" lon="13.5094967"><ele>953.0</ele><time>2026-05-03T07:39:21.286Z</time></trkpt><trkpt lat="42.3578883" lon="13.5096683"><ele>953.0</ele><time>2026-05-03T07:39:22.286Z</time></trkpt><trkpt lat="42.3579433" lon="13.5098533"><ele>953.0</ele><time>2026-05-03T07:39:23.286Z</time></trkpt><trkpt lat="42.357975" lon="13.5100317"><ele>954.8333333333334</ele><time>2026-05-03T07:39:24.286Z</time></trkpt><trkpt lat="42.35799" lon="13.5101883"><ele>956.6666666666667</ele><time>2026-05-03T07:39:25.286Z</time></trkpt><trkpt lat="42.3579767" lon="13.51031"><ele>958.5</ele><time>2026-05-03T07:39:26.286Z</time></trkpt><trkpt lat="42.3579517" lon="13.51041"><ele>960.3333333333333</ele><time>2026-05-03T07:39:27.286Z</time></trkpt><trkpt lat="42.3579133" lon="13.510485"><ele>962.1666666666666</ele><time>2026-05-03T07:39:28.286Z</time></trkpt><trkpt lat="42.3578567" lon="13.5105333"><ele>964.0</ele><time>2026-05-03T07:39:29.286Z</time></trkpt><trkpt lat="42.3577867" lon="13.5105667"><ele>964.3333333333333</ele><time>2026-05-03T07:39:30.286Z</time></trkpt><trkpt lat="42.3577033" lon="13.5105717"><ele>964.6666666666666</ele><time>2026-05-03T07:39:31.286Z</time></trkpt><trkpt lat="42.3576383" lon="13.5105617"><ele>965.0</ele><time>2026-05-03T07:39:32.286Z</time></trkpt><trkpt lat="42.3575617" lon="13.5105633"><ele>965.3333333333333</ele><time>2026-05-03T07:39:34.286Z</time></trkpt><trkpt lat="42.3575333" lon="13.51067"><ele>965.6666666666666</ele><time>2026-05-03T07:39:37.286Z</time></trkpt><trkpt lat="42.357585" lon="13.51078"><ele>966.0</ele><time>2026-05-03T07:39:39.287Z</time></trkpt><trkpt lat="42.35763" lon="13.5108667"><ele>966.0</ele><time>2026-05-03T07:39:40.286Z</time></trkpt><trkpt lat="42.35767" lon="13.5109483"><ele>965.9999999999999</ele><time>2026-05-03T07:39:41.286Z</time></trkpt><trkpt lat="42.3577267" lon="13.5110467"><ele>965.9999999999999</ele><time>2026-05-03T07:39:42.286Z</time></trkpt><trkpt lat="42.357765" lon="13.5111533"><ele>966.0</ele><time>2026-05-03T07:39:43.286Z</time></trkpt><trkpt lat="42.357805" lon="13.5112833"><ele>966.0</ele><time>2026-05-03T07:39:44.286Z</time></trkpt><trkpt lat="42.357835" lon="13.511415"><ele>966.0</ele><time>2026-05-03T07:39:45.286Z</time></trkpt><trkpt lat="42.3578933" lon="13.5115717"><ele>966.0</ele><time>2026-05-03T07:39:46.287Z</time></trkpt><trkpt lat="42.35796" lon="13.511735"><ele>966.0</ele><time>2026-05-03T07:39:47.287Z</time></trkpt><trkpt lat="42.3580133" lon="13.5118917"><ele>966.0</ele><time>2026-05-03T07:39:48.286Z</time></trkpt><trkpt lat="42.358075" lon="13.5120567"><ele>966.75</ele><time>2026-05-03T07:39:49.286Z</time></trkpt><trkpt lat="42.3581317" lon="13.51221"><ele>967.5</ele><time>2026-05-03T07:39:50.286Z</time></trkpt><trkpt lat="42.3581783" lon="13.5123633"><ele>968.25</ele><time>2026-05-03T07:39:51.286Z</time></trkpt><trkpt lat="42.3582367" lon="13.5125267"><ele>969.0</ele><time>2026-05-03T07:39:52.286Z</time></trkpt><trkpt lat="42.3583017" lon="13.5126867"><ele>969.0</ele><time>2026-05-03T07:39:53.286Z</time></trkpt><trkpt lat="42.358365" lon="13.5128633"><ele>969.0</ele><time>2026-05-03T07:39:54.286Z</time></trkpt><trkpt lat="42.35843" lon="13.5130283"><ele>969.0</ele><time>2026-05-03T07:39:55.286Z</time></trkpt><trkpt lat="42.358495" lon="13.5131767"><ele>969.0</ele><time>2026-05-03T07:39:56.286Z</time></trkpt><trkpt lat="42.3585467" lon="13.513315"><ele>969.4000000000001</ele><time>2026-05-03T07:39:57.286Z</time></trkpt><trkpt lat="42.35859" lon="13.51343"><ele>969.8000000000001</ele><time>2026-05-03T07:39:58.287Z</time></trkpt><trkpt lat="42.3586283" lon="13.5135283"><ele>970.1999999999999</ele><time>2026-05-03T07:39:59.286Z</time></trkpt><trkpt lat="42.3586617" lon="13.5136117"><ele>970.5999999999999</ele><time>2026-05-03T07:40:00.287Z</time></trkpt><trkpt lat="42.3586633" lon="13.51377"><ele>971.0</ele><time>2026-05-03T07:40:02.286Z</time></trkpt><trkpt lat="42.3587017" lon="13.5139383"><ele>971.1999999999999</ele><time>2026-05-03T07:40:04.286Z</time></trkpt><trkpt lat="42.3587383" lon="13.5140367"><ele>971.3999999999999</ele><time>2026-05-03T07:40:05.287Z</time></trkpt><trkpt lat="42.3587817" lon="13.5141467"><ele>971.6</ele><time>2026-05-03T07:40:06.286Z</time></trkpt><trkpt lat="42.35883" lon="13.5142667"><ele>971.8</ele><time>2026-05-03T07:40:07.286Z</time></trkpt><trkpt lat="42.3588767" lon="13.5143917"><ele>972.0</ele><time>2026-05-03T07:40:08.286Z</time></trkpt><trkpt lat="42.35893" lon="13.5145233"><ele>974.6</ele><time>2026-05-03T07:40:09.286Z</time></trkpt><trkpt lat="42.3589867" lon="13.5146533"><ele>977.2</ele><time>2026-05-03T07:40:10.286Z</time></trkpt><trkpt lat="42.3590417" lon="13.5147817"><ele>979.8</ele><time>2026-05-03T07:40:11.286Z</time></trkpt><trkpt lat="42.3590933" lon="13.514905"><ele>982.4</ele><time>2026-05-03T07:40:12.287Z</time></trkpt><trkpt lat="42.359135" lon="13.5150167"><ele>985.0</ele><time>2026-05-03T07:40:13.286Z</time></trkpt><trkpt lat="42.3591733" lon="13.5151217"><ele>984.9999999999999</ele><time>2026-05-03T07:40:14.286Z</time></trkpt><trkpt lat="42.3592067" lon="13.515225"><ele>985.0</ele><time>2026-05-03T07:40:15.286Z</time></trkpt><trkpt lat="42.3592233" lon="13.51532"><ele>985.0</ele><time>2026-05-03T07:40:16.287Z</time></trkpt><trkpt lat="42.3592317" lon="13.515405"><ele>985.0</ele><time>2026-05-03T07:40:17.286Z</time></trkpt><trkpt lat="42.3592133" lon="13.5155533"><ele>984.9999999999999</ele><time>2026-05-03T07:40:19.286Z</time></trkpt><trkpt lat="42.3591767" lon="13.5156333"><ele>985.0</ele><time>2026-05-03T07:40:20.286Z</time></trkpt><trkpt lat="42.359135" lon="13.5157283"><ele>986.0</ele><time>2026-05-03T07:40:21.286Z</time></trkpt><trkpt lat="42.359105" lon="13.5158333"><ele>987.0</ele><time>2026-05-03T07:40:22.286Z</time></trkpt><trkpt lat="42.3590817" lon="13.5159367"><ele>988.0</ele><time>2026-05-03T07:40:23.286Z</time></trkpt><trkpt lat="42.35906" lon="13.51603"><ele>989.0</ele><time>2026-05-03T07:40:24.286Z</time></trkpt><trkpt lat="42.3590617" lon="13.516185"><ele>990.0</ele><time>2026-05-03T07:40:26.286Z</time></trkpt><trkpt lat="42.3590533" lon="13.51638"><ele>992.5</ele><time>2026-05-03T07:40:28.286Z</time></trkpt><trkpt lat="42.3590517" lon="13.5164867"><ele>995.0</ele><time>2026-05-03T07:40:29.286Z</time></trkpt><trkpt lat="42.3590383" lon="13.516595"><ele>997.5</ele><time>2026-05-03T07:40:30.287Z</time></trkpt><trkpt lat="42.3590117" lon="13.516695"><ele>1000.0</ele><time>2026-05-03T07:40:31.286Z</time></trkpt><trkpt lat="42.35898" lon="13.5167933"><ele>1002.5</ele><time>2026-05-03T07:40:32.286Z</time></trkpt><trkpt lat="42.3589317" lon="13.5168933"><ele>1005.0</ele><time>2026-05-03T07:40:33.286Z</time></trkpt><trkpt lat="42.358875" lon="13.5170217"><ele>1003.8</ele><time>2026-05-03T07:40:34.286Z</time></trkpt><trkpt lat="42.358815" lon="13.5171567"><ele>1002.6</ele><time>2026-05-03T07:40:35.286Z</time></trkpt><trkpt lat="42.358755" lon="13.5172883"><ele>1001.4000000000001</ele><time>2026-05-03T07:40:36.286Z</time></trkpt><trkpt lat="42.3587067" lon="13.5173817"><ele>1000.2</ele><time>2026-05-03T07:40:37.286Z</time></trkpt><trkpt lat="42.3586683" lon="13.5174517"><ele>999.0</ele><time>2026-05-03T07:40:38.286Z</time></trkpt><trkpt lat="42.3586067" lon="13.51755"><ele>999.0</ele><time>2026-05-03T07:40:40.286Z</time></trkpt><trkpt lat="42.358585" lon="13.5176467"><ele>999.0000000000001</ele><time>2026-05-03T07:40:42.287Z</time></trkpt><trkpt lat="42.358645" lon="13.5177317"><ele>999.0000000000001</ele><time>2026-05-03T07:40:45.286Z</time></trkpt><trkpt lat="42.35876" lon="13.517635"><ele>999.0</ele><time>2026-05-03T07:40:49.287Z</time></trkpt><trkpt lat="42.358835" lon="13.517495"><ele>999.0</ele><time>2026-05-03T07:40:51.286Z</time></trkpt><trkpt lat="42.35889" lon="13.5174217"><ele>1000.0</ele><time>2026-05-03T07:40:52.286Z</time></trkpt><trkpt lat="42.358945" lon="13.5173483"><ele>1001.0</ele><time>2026-05-03T07:40:53.286Z</time></trkpt><trkpt lat="42.3590167" lon="13.5172667"><ele>1002.0</ele><time>2026-05-03T07:40:54.286Z</time></trkpt><trkpt lat="42.3590767" lon="13.5171817"><ele>1003.0</ele><time>2026-05-03T07:40:55.286Z</time></trkpt><trkpt lat="42.359125" lon="13.5171083"><ele>1004.0</ele><time>2026-05-03T07:40:56.286Z</time></trkpt><trkpt lat="42.35917" lon="13.517045"><ele>1005.0</ele><time>2026-05-03T07:40:57.286Z</time></trkpt><trkpt lat="42.3592433" lon="13.516915"><ele>1005.0000000000001</ele><time>2026-05-03T07:40:59.286Z</time></trkpt><trkpt lat="42.359285" lon="13.516845"><ele>1005.0</ele><time>2026-05-03T07:41:00.287Z</time></trkpt><trkpt lat="42.3593367" lon="13.51678"><ele>1005.0000000000001</ele><time>2026-05-03T07:41:01.286Z</time></trkpt><trkpt lat="42.359395" lon="13.5167167"><ele>1005.0000000000001</ele><time>2026-05-03T07:41:02.287Z</time></trkpt><trkpt lat="42.3594617" lon="13.5166667"><ele>1005.0</ele><time>2026-05-03T07:41:03.286Z</time></trkpt><trkpt lat="42.3595267" lon="13.5166283"><ele>1005.0000000000001</ele><time>2026-05-03T07:41:04.286Z</time></trkpt><trkpt lat="42.3595967" lon="13.5165917"><ele>1005.0000000000001</ele><time>2026-05-03T07:41:05.286Z</time></trkpt><trkpt lat="42.3596733" lon="13.51656"><ele>1007.4285714285716</ele><time>2026-05-03T07:41:06.286Z</time></trkpt><trkpt lat="42.3597483" lon="13.5165467"><ele>1009.8571428571429</ele><time>2026-05-03T07:41:07.286Z</time></trkpt><trkpt lat="42.3598167" lon="13.5165317"><ele>1012.2857142857143</ele><time>2026-05-03T07:41:08.286Z</time></trkpt><trkpt lat="42.35988" lon="13.5165183"><ele>1014.7142857142858</ele><time>2026-05-03T07:41:09.286Z</time></trkpt><trkpt lat="42.3599517" lon="13.5165"><ele>1017.1428571428571</ele><time>2026-05-03T07:41:10.287Z</time></trkpt><trkpt lat="42.360025" lon="13.5164767"><ele>1019.5714285714286</ele><time>2026-05-03T07:41:11.286Z</time></trkpt><trkpt lat="42.3600967" lon="13.51646"><ele>1022.0</ele><time>2026-05-03T07:41:12.286Z</time></trkpt><trkpt lat="42.3601733" lon="13.51645"><ele>1022.0000000000001</ele><time>2026-05-03T07:41:13.286Z</time></trkpt><trkpt lat="42.3602517" lon="13.5164367"><ele>1022.0</ele><time>2026-05-03T07:41:14.286Z</time></trkpt><trkpt lat="42.3603267" lon="13.5164317"><ele>1022.0</ele><time>2026-05-03T07:41:15.286Z</time></trkpt><trkpt lat="42.3604017" lon="13.516435"><ele>1022.0</ele><time>2026-05-03T07:41:16.286Z</time></trkpt><trkpt lat="42.3604767" lon="13.5164433"><ele>1022.0000000000001</ele><time>2026-05-03T07:41:17.286Z</time></trkpt><trkpt lat="42.3605617" lon="13.5164583"><ele>1022.0</ele><time>2026-05-03T07:41:18.286Z</time></trkpt><trkpt lat="42.36064" lon="13.516475"><ele>1023.5000000000001</ele><time>2026-05-03T07:41:19.286Z</time></trkpt><trkpt lat="42.36071" lon="13.516505"><ele>1025.0</ele><time>2026-05-03T07:41:20.287Z</time></trkpt><trkpt lat="42.3607817" lon="13.5165417"><ele>1026.5</ele><time>2026-05-03T07:41:21.286Z</time></trkpt><trkpt lat="42.3608533" lon="13.516575"><ele>1028.0</ele><time>2026-05-03T07:41:22.286Z</time></trkpt><trkpt lat="42.36093" lon="13.5166017"><ele>1029.5</ele><time>2026-05-03T07:41:23.286Z</time></trkpt><trkpt lat="42.3610117" lon="13.5166033"><ele>1031.0</ele><time>2026-05-03T07:41:24.286Z</time></trkpt><trkpt lat="42.361095" lon="13.516605"><ele>1031.0</ele><time>2026-05-03T07:41:25.286Z</time></trkpt><trkpt lat="42.3611817" lon="13.5166017"><ele>1031.0</ele><time>2026-05-03T07:41:26.286Z</time></trkpt><trkpt lat="42.361255" lon="13.51659"><ele>1031.0</ele><time>2026-05-03T07:41:27.286Z</time></trkpt><trkpt lat="42.3613233" lon="13.516585"><ele>1031.0</ele><time>2026-05-03T07:41:28.286Z</time></trkpt><trkpt lat="42.3613967" lon="13.516575"><ele>1031.0</ele><time>2026-05-03T07:41:29.286Z</time></trkpt><trkpt lat="42.3614633" lon="13.516575"><ele>1031.0</ele><time>2026-05-03T07:41:30.286Z</time></trkpt><trkpt lat="42.36154" lon="13.5165733"><ele>1031.0</ele><time>2026-05-03T07:41:31.286Z</time></trkpt><trkpt lat="42.3616217" lon="13.5165733"><ele>1032.0</ele><time>2026-05-03T07:41:32.286Z</time></trkpt><trkpt lat="42.3617067" lon="13.516575"><ele>1033.0</ele><time>2026-05-03T07:41:33.286Z</time></trkpt><trkpt lat="42.3617867" lon="13.5165817"><ele>1034.0</ele><time>2026-05-03T07:41:34.286Z</time></trkpt><trkpt lat="42.361875" lon="13.516585"><ele>1035.0</ele><time>2026-05-03T07:41:35.286Z</time></trkpt><trkpt lat="42.3619533" lon="13.5165867"><ele>1036.0</ele><time>2026-05-03T07:41:36.286Z</time></trkpt><trkpt lat="42.3620383" lon="13.51658"><ele>1037.0</ele><time>2026-05-03T07:41:37.286Z</time></trkpt><trkpt lat="42.36213" lon="13.5165717"><ele>1037.8333333333335</ele><time>2026-05-03T07:41:38.286Z</time></trkpt><trkpt lat="42.36222" lon="13.51657"><ele>1038.6666666666667</ele><time>2026-05-03T07:41:39.286Z</time></trkpt><trkpt lat="42.3623" lon="13.5165467"><ele>1039.5</ele><time>2026-05-03T07:41:40.286Z</time></trkpt><trkpt lat="42.3623817" lon="13.516575"><ele>1040.3333333333333</ele><time>2026-05-03T07:41:41.286Z</time></trkpt><trkpt lat="42.3624717" lon="13.5165917"><ele>1041.1666666666665</ele><time>2026-05-03T07:41:42.286Z</time></trkpt><trkpt lat="42.36256" lon="13.516605"><ele>1042.0</ele><time>2026-05-03T07:41:43.286Z</time></trkpt><trkpt lat="42.3626517" lon="13.5166233"><ele>1042.0</ele><time>2026-05-03T07:41:44.287Z</time></trkpt><trkpt lat="42.362755" lon="13.516645"><ele>1042.0</ele><time>2026-05-03T07:41:45.286Z</time></trkpt><trkpt lat="42.36284" lon="13.5166667"><ele>1042.0</ele><time>2026-05-03T07:41:46.286Z</time></trkpt><trkpt lat="42.3629133" lon="13.5167033"><ele>1042.0</ele><time>2026-05-03T07:41:47.286Z</time></trkpt><trkpt lat="42.3629867" lon="13.5167433"><ele>1042.0</ele><time>2026-05-03T07:41:48.286Z</time></trkpt><trkpt lat="42.36306" lon="13.5167783"><ele>1042.0</ele><time>2026-05-03T07:41:49.286Z</time></trkpt><trkpt lat="42.363125" lon="13.51683"><ele>1042.0</ele><time>2026-05-03T07:41:50.286Z</time></trkpt><trkpt lat="42.3632" lon="13.5168917"><ele>1042.0</ele><time>2026-05-03T07:41:51.286Z</time></trkpt><trkpt lat="42.36327" lon="13.5169533"><ele>1042.0</ele><time>2026-05-03T07:41:52.286Z</time></trkpt><trkpt lat="42.36334" lon="13.5170017"><ele>1042.0</ele><time>2026-05-03T07:41:53.286Z</time></trkpt><trkpt lat="42.3634067" lon="13.5170433"><ele>1042.0</ele><time>2026-05-03T07:41:54.286Z</time></trkpt><trkpt lat="42.36347" lon="13.5170783"><ele>1042.0</ele><time>2026-05-03T07:41:55.287Z</time></trkpt><trkpt lat="42.363535" lon="13.5171167"><ele>1044.0</ele><time>2026-05-03T07:41:56.286Z</time></trkpt><trkpt lat="42.3636033" lon="13.51715"><ele>1046.0</ele><time>2026-05-03T07:41:57.286Z</time></trkpt><trkpt lat="42.36367" lon="13.5171883"><ele>1048.0</ele><time>2026-05-03T07:41:58.286Z</time></trkpt><trkpt lat="42.36374" lon="13.51723"><ele>1050.0</ele><time>2026-05-03T07:41:59.286Z</time></trkpt><trkpt lat="42.3638133" lon="13.51725"><ele>1052.0</ele><time>2026-05-03T07:42:00.286Z</time></trkpt><trkpt lat="42.3638833" lon="13.5172667"><ele>1054.0</ele><time>2026-05-03T07:42:01.286Z</time></trkpt><trkpt lat="42.3639467" lon="13.5172817"><ele>1056.0</ele><time>2026-05-03T07:42:02.286Z</time></trkpt><trkpt lat="42.3640517" lon="13.5173"><ele>1056.0</ele><time>2026-05-03T07:42:04.286Z</time></trkpt><trkpt lat="42.364155" lon="13.517305"><ele>1056.0</ele><time>2026-05-03T07:42:46.286Z</time></trkpt><trkpt lat="42.36424" lon="13.517335"><ele>1056.0</ele><time>2026-05-03T07:42:59.286Z</time></trkpt><trkpt lat="42.3643742" lon="13.5173527"><ele>1056.0</ele><time>2026-05-03T07:43:02.286Z</time></trkpt><trkpt lat="42.3644813" lon="13.5173621"><ele>1056.0</ele><time>2026-05-03T07:43:04.286Z</time></trkpt><trkpt lat="42.3645788" lon="13.5173959"><ele>1056.0</ele><time>2026-05-03T07:43:06.286Z</time></trkpt><trkpt lat="42.3646847" lon="13.5174361"><ele>1056.0</ele><time>2026-05-03T07:43:08.286Z</time></trkpt><trkpt lat="42.364797" lon="13.5174757"><ele>1056.0</ele><time>2026-05-03T07:43:10.286Z</time></trkpt><trkpt lat="42.36491" lon="13.5175292"><ele>1056.0</ele><time>2026-05-03T07:43:12.286Z</time></trkpt><trkpt lat="42.36497" lon="13.5175592"><ele>1056.0</ele><time>2026-05-03T07:43:13.286Z</time></trkpt><trkpt lat="42.3650818" lon="13.5175985"><ele>1057.0</ele><time>2026-05-03T07:43:15.286Z</time></trkpt><trkpt lat="42.3651887" lon="13.5176415"><ele>1058.0</ele><time>2026-05-03T07:43:17.286Z</time></trkpt><trkpt lat="42.3652853" lon="13.5177018"><ele>1059.0</ele><time>2026-05-03T07:43:19.286Z</time></trkpt><trkpt lat="42.3653819" lon="13.517772"><ele>1060.0</ele><time>2026-05-03T07:43:21.287Z</time></trkpt><trkpt lat="42.3654909" lon="13.5178521"><ele>1058.6666666666665</ele><time>2026-05-03T07:43:23.286Z</time></trkpt><trkpt lat="42.3655505" lon="13.5178937"><ele>1057.3333333333333</ele><time>2026-05-03T07:43:24.286Z</time></trkpt><trkpt lat="42.3656149" lon="13.5179324"><ele>1056.0</ele><time>2026-05-03T07:43:25.286Z</time></trkpt><trkpt lat="42.3656767" lon="13.5179648"><ele>1054.6666666666667</ele><time>2026-05-03T07:43:26.286Z</time></trkpt><trkpt lat="42.3657818" lon="13.5180525"><ele>1053.3333333333335</ele><time>2026-05-03T07:43:28.286Z</time></trkpt><trkpt lat="42.365821" lon="13.518164"><ele>1052.0</ele><time>2026-05-03T07:43:30.286Z</time></trkpt><trkpt lat="42.3657972" lon="13.5182513"><ele>1054.8333333333335</ele><time>2026-05-03T07:43:32.286Z</time></trkpt><trkpt lat="42.3657178" lon="13.5182747"><ele>1057.6666666666667</ele><time>2026-05-03T07:43:34.286Z</time></trkpt><trkpt lat="42.3656341" lon="13.5182576"><ele>1060.5</ele><time>2026-05-03T07:43:38.286Z</time></trkpt><trkpt lat="42.3655703" lon="13.5182265"><ele>1063.3333333333333</ele><time>2026-05-03T07:43:40.287Z</time></trkpt><trkpt lat="42.365459" lon="13.5181766"><ele>1066.1666666666665</ele><time>2026-05-03T07:43:42.286Z</time></trkpt><trkpt lat="42.3653946" lon="13.5181534"><ele>1069.0</ele><time>2026-05-03T07:43:43.286Z</time></trkpt><trkpt lat="42.3653221" lon="13.5181311"><ele>1070.3333333333333</ele><time>2026-05-03T07:43:44.286Z</time></trkpt><trkpt lat="42.3652492" lon="13.5181211"><ele>1071.6666666666665</ele><time>2026-05-03T07:43:45.286Z</time></trkpt><trkpt lat="42.3651729" lon="13.5181238"><ele>1073.0</ele><time>2026-05-03T07:43:46.286Z</time></trkpt><trkpt lat="42.365093" lon="13.5181349"><ele>1074.3333333333333</ele><time>2026-05-03T07:43:47.287Z</time></trkpt><trkpt lat="42.3650081" lon="13.5181537"><ele>1075.6666666666667</ele><time>2026-05-03T07:43:48.286Z</time></trkpt><trkpt lat="42.3649201" lon="13.5181701"><ele>1077.0</ele><time>2026-05-03T07:43:49.286Z</time></trkpt><trkpt lat="42.3648367" lon="13.5181807"><ele>1077.0</ele><time>2026-05-03T07:43:50.286Z</time></trkpt><trkpt lat="42.3647679" lon="13.5181926"><ele>1077.0</ele><time>2026-05-03T07:43:51.286Z</time></trkpt><trkpt lat="42.3646744" lon="13.5182239"><ele>1077.0</ele><time>2026-05-03T07:43:53.286Z</time></trkpt><trkpt lat="42.3646583" lon="13.51833"><ele>1077.0</ele><time>2026-05-03T07:43:55.287Z</time></trkpt><trkpt lat="42.3647033" lon="13.5184167"><ele>1077.0</ele><time>2026-05-03T07:43:57.286Z</time></trkpt><trkpt lat="42.3648117" lon="13.5184483"><ele>1077.0</ele><time>2026-05-03T07:43:59.286Z</time></trkpt><trkpt lat="42.3648817" lon="13.518445"><ele>1077.0</ele><time>2026-05-03T07:44:00.286Z</time></trkpt><trkpt lat="42.3649567" lon="13.518445"><ele>1077.0</ele><time>2026-05-03T07:44:01.286Z</time></trkpt><trkpt lat="42.3650267" lon="13.5184583"><ele>1077.0</ele><time>2026-05-03T07:44:02.286Z</time></trkpt><trkpt lat="42.365095" lon="13.5184833"><ele>1077.0</ele><time>2026-05-03T07:44:03.286Z</time></trkpt><trkpt lat="42.36517" lon="13.5185167"><ele>1077.0</ele><time>2026-05-03T07:44:04.286Z</time></trkpt><trkpt lat="42.365245" lon="13.5185683"><ele>1077.0</ele><time>2026-05-03T07:44:05.286Z</time></trkpt><trkpt lat="42.36532" lon="13.5186383"><ele>1077.0</ele><time>2026-05-03T07:44:06.286Z</time></trkpt><trkpt lat="42.3653867" lon="13.51871"><ele>1077.0</ele><time>2026-05-03T07:44:07.286Z</time></trkpt><trkpt lat="42.3654417" lon="13.5187967"><ele>1077.0</ele><time>2026-05-03T07:44:08.286Z</time></trkpt><trkpt lat="42.3654967" lon="13.5188683"><ele>1077.0</ele><time>2026-05-03T07:44:09.286Z</time></trkpt><trkpt lat="42.3655517" lon="13.51892"><ele>1077.0</ele><time>2026-05-03T07:44:10.287Z</time></trkpt><trkpt lat="42.3656117" lon="13.5189767"><ele>1077.0</ele><time>2026-05-03T07:44:11.286Z</time></trkpt><trkpt lat="42.3656633" lon="13.519045"><ele>1078.3333333333333</ele><time>2026-05-03T07:44:12.286Z</time></trkpt><trkpt lat="42.3657117" lon="13.5191033"><ele>1079.6666666666667</ele><time>2026-05-03T07:44:13.286Z</time></trkpt><trkpt lat="42.365785" lon="13.5192267"><ele>1081.0</ele><time>2026-05-03T07:44:15.287Z</time></trkpt><trkpt lat="42.3658083" lon="13.51931"><ele>1082.3333333333335</ele><time>2026-05-03T07:44:16.286Z</time></trkpt><trkpt lat="42.3658233" lon="13.5194033"><ele>1083.6666666666667</ele><time>2026-05-03T07:44:17.286Z</time></trkpt><trkpt lat="42.365835" lon="13.5194933"><ele>1085.0</ele><time>2026-05-03T07:44:18.287Z</time></trkpt><trkpt lat="42.3658383" lon="13.5195933"><ele>1086.5714285714287</ele><time>2026-05-03T07:44:19.286Z</time></trkpt><trkpt lat="42.3658467" lon="13.519695"><ele>1088.142857142857</ele><time>2026-05-03T07:44:20.286Z</time></trkpt><trkpt lat="42.3658483" lon="13.5197917"><ele>1089.7142857142858</ele><time>2026-05-03T07:44:21.286Z</time></trkpt><trkpt lat="42.3658483" lon="13.5198883"><ele>1091.2857142857142</ele><time>2026-05-03T07:44:22.286Z</time></trkpt><trkpt lat="42.36584" lon="13.5199833"><ele>1092.857142857143</ele><time>2026-05-03T07:44:23.286Z</time></trkpt><trkpt lat="42.365835" lon="13.5200867"><ele>1094.4285714285716</ele><time>2026-05-03T07:44:24.286Z</time></trkpt><trkpt lat="42.3658317" lon="13.52019"><ele>1096.0</ele><time>2026-05-03T07:44:25.286Z</time></trkpt><trkpt lat="42.36583" lon="13.5202917"><ele>1096.0</ele><time>2026-05-03T07:44:26.286Z</time></trkpt><trkpt lat="42.365835" lon="13.5203983"><ele>1096.0</ele><time>2026-05-03T07:44:27.286Z</time></trkpt><trkpt lat="42.3658467" lon="13.5205033"><ele>1096.0</ele><time>2026-05-03T07:44:28.286Z</time></trkpt><trkpt lat="42.3658733" lon="13.52061"><ele>1096.0</ele><time>2026-05-03T07:44:29.286Z</time></trkpt><trkpt lat="42.3658967" lon="13.5207233"><ele>1096.0</ele><time>2026-05-03T07:44:30.286Z</time></trkpt><trkpt lat="42.3659133" lon="13.5208433"><ele>1096.0</ele><time>2026-05-03T07:44:31.286Z</time></trkpt><trkpt lat="42.365915" lon="13.52096"><ele>1096.5</ele><time>2026-05-03T07:44:32.286Z</time></trkpt><trkpt lat="42.3659033" lon="13.52107"><ele>1097.0</ele><time>2026-05-03T07:44:33.286Z</time></trkpt><trkpt lat="42.3658983" lon="13.5211817"><ele>1097.5</ele><time>2026-05-03T07:44:34.287Z</time></trkpt><trkpt lat="42.365895" lon="13.5213033"><ele>1098.0</ele><time>2026-05-03T07:44:35.286Z</time></trkpt><trkpt lat="42.365885" lon="13.5214317"><ele>1098.5</ele><time>2026-05-03T07:44:36.286Z</time></trkpt><trkpt lat="42.3658617" lon="13.5215533"><ele>1099.0</ele><time>2026-05-03T07:44:37.286Z</time></trkpt><trkpt lat="42.3658467" lon="13.521655"><ele>1099.2857142857142</ele><time>2026-05-03T07:44:38.286Z</time></trkpt><trkpt lat="42.3658133" lon="13.5217367"><ele>1099.5714285714284</ele><time>2026-05-03T07:44:39.286Z</time></trkpt><trkpt lat="42.3657967" lon="13.52182"><ele>1099.857142857143</ele><time>2026-05-03T07:44:40.286Z</time></trkpt><trkpt lat="42.3657833" lon="13.5219183"><ele>1100.142857142857</ele><time>2026-05-03T07:44:41.286Z</time></trkpt><trkpt lat="42.36578" lon="13.5220067"><ele>1100.4285714285713</ele><time>2026-05-03T07:44:42.287Z</time></trkpt><trkpt lat="42.365785" lon="13.5221033"><ele>1100.7142857142858</ele><time>2026-05-03T07:44:43.287Z</time></trkpt><trkpt lat="42.3657917" lon="13.522195"><ele>1101.0</ele><time>2026-05-03T07:44:44.286Z</time></trkpt><trkpt lat="42.36578" lon="13.52229"><ele>1102.1666666666667</ele><time>2026-05-03T07:44:45.286Z</time></trkpt><trkpt lat="42.3657567" lon="13.5223733"><ele>1103.3333333333333</ele><time>2026-05-03T07:44:46.286Z</time></trkpt><trkpt lat="42.3656767" lon="13.522495"><ele>1104.5</ele><time>2026-05-03T07:44:48.286Z</time></trkpt><trkpt lat="42.3656367" lon="13.5225667"><ele>1105.6666666666665</ele><time>2026-05-03T07:44:49.286Z</time></trkpt><trkpt lat="42.3655933" lon="13.5226333"><ele>1106.8333333333333</ele><time>2026-05-03T07:44:50.286Z</time></trkpt><trkpt lat="42.3655417" lon="13.522705"><ele>1108.0</ele><time>2026-05-03T07:44:51.286Z</time></trkpt><trkpt lat="42.3654883" lon="13.5227967"><ele>1108.1666666666665</ele><time>2026-05-03T07:44:52.286Z</time></trkpt><trkpt lat="42.36544" lon="13.52287"><ele>1108.3333333333333</ele><time>2026-05-03T07:44:53.286Z</time></trkpt><trkpt lat="42.3653933" lon="13.522945"><ele>1108.5</ele><time>2026-05-03T07:44:54.287Z</time></trkpt><trkpt lat="42.365345" lon="13.52302"><ele>1108.6666666666667</ele><time>2026-05-03T07:44:55.287Z</time></trkpt><trkpt lat="42.3653017" lon="13.5230917"><ele>1108.8333333333335</ele><time>2026-05-03T07:44:56.286Z</time></trkpt><trkpt lat="42.3652067" lon="13.52321"><ele>1109.0</ele><time>2026-05-03T07:44:58.286Z</time></trkpt><trkpt lat="42.3651617" lon="13.52328"><ele>1109.7142857142856</ele><time>2026-05-03T07:44:59.286Z</time></trkpt><trkpt lat="42.36511" lon="13.5233383"><ele>1110.4285714285713</ele><time>2026-05-03T07:45:00.286Z</time></trkpt><trkpt lat="42.3650617" lon="13.5234117"><ele>1111.142857142857</ele><time>2026-05-03T07:45:01.286Z</time></trkpt><trkpt lat="42.3650133" lon="13.52348"><ele>1111.8571428571427</ele><time>2026-05-03T07:45:02.286Z</time></trkpt><trkpt lat="42.364965" lon="13.5235533"><ele>1112.5714285714284</ele><time>2026-05-03T07:45:03.286Z</time></trkpt><trkpt lat="42.3649067" lon="13.5236267"><ele>1113.2857142857142</ele><time>2026-05-03T07:45:04.286Z</time></trkpt><trkpt lat="42.364855" lon="13.52371"><ele>1114.0</ele><time>2026-05-03T07:45:05.286Z</time></trkpt><trkpt lat="42.36481" lon="13.5237967"><ele>1115.3333333333333</ele><time>2026-05-03T07:45:06.286Z</time></trkpt><trkpt lat="42.3647717" lon="13.523885"><ele>1116.6666666666665</ele><time>2026-05-03T07:45:07.286Z</time></trkpt><trkpt lat="42.36472" lon="13.5239867"><ele>1118.0</ele><time>2026-05-03T07:45:08.286Z</time></trkpt><trkpt lat="42.364685" lon="13.5240817"><ele>1119.3333333333333</ele><time>2026-05-03T07:45:09.286Z</time></trkpt><trkpt lat="42.36465" lon="13.5241733"><ele>1120.6666666666667</ele><time>2026-05-03T07:45:10.286Z</time></trkpt><trkpt lat="42.3646183" lon="13.5242767"><ele>1122.0</ele><time>2026-05-03T07:45:11.287Z</time></trkpt><trkpt lat="42.3645867" lon="13.5243883"><ele>1122.0</ele><time>2026-05-03T07:45:12.286Z</time></trkpt><trkpt lat="42.3645583" lon="13.5245017"><ele>1122.0</ele><time>2026-05-03T07:45:13.286Z</time></trkpt><trkpt lat="42.3645367" lon="13.524625"><ele>1122.0</ele><time>2026-05-03T07:45:14.286Z</time></trkpt><trkpt lat="42.3645217" lon="13.5247367"><ele>1122.0</ele><time>2026-05-03T07:45:15.287Z</time></trkpt><trkpt lat="42.364515" lon="13.5248433"><ele>1122.0</ele><time>2026-05-03T07:45:16.286Z</time></trkpt><trkpt lat="42.3645167" lon="13.5249483"><ele>1122.0</ele><time>2026-05-03T07:45:17.287Z</time></trkpt><trkpt lat="42.3645367" lon="13.52505"><ele>1122.1666666666667</ele><time>2026-05-03T07:45:18.286Z</time></trkpt><trkpt lat="42.364555" lon="13.525155"><ele>1122.3333333333333</ele><time>2026-05-03T07:45:19.286Z</time></trkpt><trkpt lat="42.364575" lon="13.5252667"><ele>1122.5</ele><time>2026-05-03T07:45:20.286Z</time></trkpt><trkpt lat="42.3645917" lon="13.5253883"><ele>1122.6666666666665</ele><time>2026-05-03T07:45:21.286Z</time></trkpt><trkpt lat="42.36461" lon="13.5255117"><ele>1122.8333333333333</ele><time>2026-05-03T07:45:22.286Z</time></trkpt><trkpt lat="42.36462" lon="13.525645"><ele>1123.0</ele><time>2026-05-03T07:45:23.286Z</time></trkpt><trkpt lat="42.3646233" lon="13.5257717"><ele>1123.1666666666665</ele><time>2026-05-03T07:45:24.286Z</time></trkpt><trkpt lat="42.36462" lon="13.5258917"><ele>1123.3333333333333</ele><time>2026-05-03T07:45:25.286Z</time></trkpt><trkpt lat="42.3646183" lon="13.5260067"><ele>1123.5</ele><time>2026-05-03T07:45:26.286Z</time></trkpt><trkpt lat="42.364615" lon="13.5261183"><ele>1123.6666666666667</ele><time>2026-05-03T07:45:27.286Z</time></trkpt><trkpt lat="42.3646017" lon="13.5262167"><ele>1123.8333333333335</ele><time>2026-05-03T07:45:28.287Z</time></trkpt><trkpt lat="42.3645867" lon="13.5263267"><ele>1124.0</ele><time>2026-05-03T07:45:29.286Z</time></trkpt><trkpt lat="42.3645733" lon="13.5264417"><ele>1124.2857142857144</ele><time>2026-05-03T07:45:30.286Z</time></trkpt><trkpt lat="42.36456" lon="13.5265517"><ele>1124.5714285714287</ele><time>2026-05-03T07:45:31.286Z</time></trkpt><trkpt lat="42.3645583" lon="13.5266567"><ele>1124.857142857143</ele><time>2026-05-03T07:45:32.286Z</time></trkpt><trkpt lat="42.3645533" lon="13.5267517"><ele>1125.1428571428573</ele><time>2026-05-03T07:45:33.287Z</time></trkpt><trkpt lat="42.3645567" lon="13.526845"><ele>1125.4285714285716</ele><time>2026-05-03T07:45:34.286Z</time></trkpt><trkpt lat="42.364565" lon="13.5269417"><ele>1125.7142857142858</ele><time>2026-05-03T07:45:35.286Z</time></trkpt><trkpt lat="42.3645717" lon="13.5270383"><ele>1126.0</ele><time>2026-05-03T07:45:36.286Z</time></trkpt><trkpt lat="42.36458" lon="13.5271297"><ele>1126.857142857143</ele><time>2026-05-03T07:45:37.286Z</time></trkpt><trkpt lat="42.3645938" lon="13.5272226"><ele>1127.7142857142858</ele><time>2026-05-03T07:45:38.286Z</time></trkpt><trkpt lat="42.3646119" lon="13.5273205"><ele>1128.5714285714287</ele><time>2026-05-03T07:45:39.286Z</time></trkpt><trkpt lat="42.3646264" lon="13.5274237"><ele>1129.4285714285716</ele><time>2026-05-03T07:45:40.286Z</time></trkpt><trkpt lat="42.3646452" lon="13.5275206"><ele>1130.2857142857144</ele><time>2026-05-03T07:45:41.287Z</time></trkpt><trkpt lat="42.3646591" lon="13.5276086"><ele>1131.142857142857</ele><time>2026-05-03T07:45:42.286Z</time></trkpt><trkpt lat="42.3646605" lon="13.527699"><ele>1132.0</ele><time>2026-05-03T07:45:43.286Z</time></trkpt><trkpt lat="42.3646591" lon="13.5277913"><ele>1132.0</ele><time>2026-05-03T07:45:44.286Z</time></trkpt><trkpt lat="42.3646516" lon="13.5278889"><ele>1132.0</ele><time>2026-05-03T07:45:45.286Z</time></trkpt><trkpt lat="42.3646462" lon="13.5279939"><ele>1132.0</ele><time>2026-05-03T07:45:46.287Z</time></trkpt><trkpt lat="42.3646316" lon="13.5280981"><ele>1132.0</ele><time>2026-05-03T07:45:47.286Z</time></trkpt><trkpt lat="42.3646142" lon="13.5282006"><ele>1132.0</ele><time>2026-05-03T07:45:48.286Z</time></trkpt><trkpt lat="42.3645935" lon="13.5283043"><ele>1132.0</ele><time>2026-05-03T07:45:49.286Z</time></trkpt><trkpt lat="42.3645754" lon="13.5284141"><ele>1133.0</ele><time>2026-05-03T07:45:50.286Z</time></trkpt><trkpt lat="42.3645617" lon="13.5285261"><ele>1134.0</ele><time>2026-05-03T07:45:51.286Z</time></trkpt><trkpt lat="42.364549" lon="13.5286376"><ele>1135.0</ele><time>2026-05-03T07:45:52.287Z</time></trkpt><trkpt lat="42.3645398" lon="13.5287448"><ele>1136.0</ele><time>2026-05-03T07:45:53.286Z</time></trkpt><trkpt lat="42.3645397" lon="13.5288512"><ele>1137.0</ele><time>2026-05-03T07:45:54.287Z</time></trkpt><trkpt lat="42.3645522" lon="13.5289545"><ele>1138.0</ele><time>2026-05-03T07:45:55.286Z</time></trkpt><trkpt lat="42.3645664" lon="13.5290469"><ele>1139.6666666666665</ele><time>2026-05-03T07:45:56.286Z</time></trkpt><trkpt lat="42.3645761" lon="13.5291329"><ele>1141.3333333333333</ele><time>2026-05-03T07:45:57.286Z</time></trkpt><trkpt lat="42.3645712" lon="13.5292211"><ele>1143.0</ele><time>2026-05-03T07:45:58.286Z</time></trkpt><trkpt lat="42.3645668" lon="13.5293071"><ele>1144.6666666666667</ele><time>2026-05-03T07:45:59.286Z</time></trkpt><trkpt lat="42.3646" lon="13.5294377"><ele>1146.3333333333335</ele><time>2026-05-03T07:46:01.287Z</time></trkpt><trkpt lat="42.3647003" lon="13.5294543"><ele>1148.0</ele><time>2026-05-03T07:46:03.286Z</time></trkpt><trkpt lat="42.3647875" lon="13.5293561"><ele>1149.3333333333335</ele><time>2026-05-03T07:46:05.286Z</time></trkpt><trkpt lat="42.3648216" lon="13.5292637"><ele>1150.6666666666667</ele><time>2026-05-03T07:46:06.286Z</time></trkpt><trkpt lat="42.3648534" lon="13.5291543"><ele>1152.0</ele><time>2026-05-03T07:46:07.286Z</time></trkpt><trkpt lat="42.3648979" lon="13.5290476"><ele>1153.3333333333333</ele><time>2026-05-03T07:46:08.286Z</time></trkpt><trkpt lat="42.3649563" lon="13.5289542"><ele>1154.6666666666665</ele><time>2026-05-03T07:46:09.286Z</time></trkpt><trkpt lat="42.365026" lon="13.5288779"><ele>1156.0</ele><time>2026-05-03T07:46:10.286Z</time></trkpt><trkpt lat="42.3651112" lon="13.5288086"><ele>1156.0</ele><time>2026-05-03T07:46:11.286Z</time></trkpt><trkpt lat="42.3652036" lon="13.5287496"><ele>1156.0</ele><time>2026-05-03T07:46:12.286Z</time></trkpt><trkpt lat="42.3652915" lon="13.5287009"><ele>1156.0</ele><time>2026-05-03T07:46:13.287Z</time></trkpt><trkpt lat="42.3653649" lon="13.5286599"><ele>1156.0</ele><time>2026-05-03T07:46:14.286Z</time></trkpt><trkpt lat="42.3654307" lon="13.52862"><ele>1156.0</ele><time>2026-05-03T07:46:15.286Z</time></trkpt><trkpt lat="42.3654927" lon="13.5285954"><ele>1156.0</ele><time>2026-05-03T07:46:16.286Z</time></trkpt><trkpt lat="42.3655705" lon="13.5286337"><ele>1156.0</ele><time>2026-05-03T07:46:18.286Z</time></trkpt><trkpt lat="42.365582" lon="13.5287217"><ele>1156.0</ele><time>2026-05-03T07:46:20.287Z</time></trkpt><trkpt lat="42.3655371" lon="13.5287986"><ele>1156.0</ele><time>2026-05-03T07:46:22.286Z</time></trkpt><trkpt lat="42.3654195" lon="13.5288652"><ele>1156.0</ele><time>2026-05-03T07:46:24.286Z</time></trkpt><trkpt lat="42.3653501" lon="13.5289014"><ele>1156.0</ele><time>2026-05-03T07:46:25.287Z</time></trkpt><trkpt lat="42.365288" lon="13.528952"><ele>1156.0</ele><time>2026-05-03T07:46:26.286Z</time></trkpt><trkpt lat="42.3652326" lon="13.5290207"><ele>1156.0</ele><time>2026-05-03T07:46:27.286Z</time></trkpt><trkpt lat="42.3651826" lon="13.5291008"><ele>1156.0</ele><time>2026-05-03T07:46:28.286Z</time></trkpt><trkpt lat="42.3651386" lon="13.529187"><ele>1156.0</ele><time>2026-05-03T07:46:29.286Z</time></trkpt><trkpt lat="42.365108" lon="13.529285"><ele>1156.0</ele><time>2026-05-03T07:46:30.286Z</time></trkpt><trkpt lat="42.3650916" lon="13.5293902"><ele>1156.0</ele><time>2026-05-03T07:46:31.286Z</time></trkpt><trkpt lat="42.3650872" lon="13.5294932"><ele>1156.0</ele><time>2026-05-03T07:46:32.286Z</time></trkpt><trkpt lat="42.3650868" lon="13.5295916"><ele>1157.0</ele><time>2026-05-03T07:46:33.286Z</time></trkpt><trkpt lat="42.3650975" lon="13.5296785"><ele>1158.0</ele><time>2026-05-03T07:46:34.286Z</time></trkpt><trkpt lat="42.3651563" lon="13.5298271"><ele>1159.0</ele><time>2026-05-03T07:46:36.286Z</time></trkpt><trkpt lat="42.3652517" lon="13.5299524"><ele>1160.0</ele><time>2026-05-03T07:46:38.286Z</time></trkpt><trkpt lat="42.3653047" lon="13.5300129"><ele>1161.0</ele><time>2026-05-03T07:46:39.286Z</time></trkpt><trkpt lat="42.3653648" lon="13.5300687"><ele>1161.0</ele><time>2026-05-03T07:46:40.286Z</time></trkpt><trkpt lat="42.3654266" lon="13.5301277"><ele>1161.0</ele><time>2026-05-03T07:46:41.286Z</time></trkpt><trkpt lat="42.3654906" lon="13.5301917"><ele>1161.0</ele><time>2026-05-03T07:46:42.286Z</time></trkpt><trkpt lat="42.3655482" lon="13.5302698"><ele>1161.0</ele><time>2026-05-03T07:46:43.286Z</time></trkpt><trkpt lat="42.3655952" lon="13.5303577"><ele>1161.0</ele><time>2026-05-03T07:46:44.286Z</time></trkpt><trkpt lat="42.3656262" lon="13.5304505"><ele>1161.0</ele><time>2026-05-03T07:46:45.287Z</time></trkpt><trkpt lat="42.3656475" lon="13.5305554"><ele>1163.0</ele><time>2026-05-03T07:46:46.286Z</time></trkpt><trkpt lat="42.3656638" lon="13.5306697"><ele>1165.0</ele><time>2026-05-03T07:46:47.287Z</time></trkpt><trkpt lat="42.3656715" lon="13.530787"><ele>1167.0</ele><time>2026-05-03T07:46:48.286Z</time></trkpt><trkpt lat="42.3656796" lon="13.5309058"><ele>1169.0</ele><time>2026-05-03T07:46:49.286Z</time></trkpt><trkpt lat="42.3656947" lon="13.5310157"><ele>1171.0</ele><time>2026-05-03T07:46:50.286Z</time></trkpt><trkpt lat="42.3657194" lon="13.5311206"><ele>1173.0</ele><time>2026-05-03T07:46:51.287Z</time></trkpt><trkpt lat="42.3657515" lon="13.531217"><ele>1173.7142857142858</ele><time>2026-05-03T07:46:52.286Z</time></trkpt><trkpt lat="42.3657862" lon="13.5313014"><ele>1174.4285714285716</ele><time>2026-05-03T07:46:53.286Z</time></trkpt><trkpt lat="42.3658202" lon="13.5313787"><ele>1175.142857142857</ele><time>2026-05-03T07:46:54.286Z</time></trkpt><trkpt lat="42.3658543" lon="13.5314566"><ele>1175.857142857143</ele><time>2026-05-03T07:46:55.286Z</time></trkpt><trkpt lat="42.3658877" lon="13.5315404"><ele>1176.5714285714284</ele><time>2026-05-03T07:46:56.286Z</time></trkpt><trkpt lat="42.3659229" lon="13.5316311"><ele>1177.2857142857142</ele><time>2026-05-03T07:46:57.286Z</time></trkpt><trkpt lat="42.3659581" lon="13.5317281"><ele>1178.0</ele><time>2026-05-03T07:46:58.286Z</time></trkpt><trkpt lat="42.3659909" lon="13.531832"><ele>1178.0</ele><time>2026-05-03T07:46:59.287Z</time></trkpt><trkpt lat="42.3660224" lon="13.5319326"><ele>1178.0</ele><time>2026-05-03T07:47:00.286Z</time></trkpt><trkpt lat="42.3660429" lon="13.5320342"><ele>1178.0</ele><time>2026-05-03T07:47:01.287Z</time></trkpt><trkpt lat="42.3660513" lon="13.5321358"><ele>1178.0</ele><time>2026-05-03T07:47:02.286Z</time></trkpt><trkpt lat="42.3660477" lon="13.5322381"><ele>1178.0</ele><time>2026-05-03T07:47:03.286Z</time></trkpt><trkpt lat="42.3660393" lon="13.5323386"><ele>1178.0</ele><time>2026-05-03T07:47:04.286Z</time></trkpt><trkpt lat="42.3660178" lon="13.5324356"><ele>1178.1666666666667</ele><time>2026-05-03T07:47:05.286Z</time></trkpt><trkpt lat="42.3659784" lon="13.5325216"><ele>1178.3333333333335</ele><time>2026-05-03T07:47:06.286Z</time></trkpt><trkpt lat="42.3659299" lon="13.5326043"><ele>1178.5</ele><time>2026-05-03T07:47:07.287Z</time></trkpt><trkpt lat="42.3658742" lon="13.5326845"><ele>1178.6666666666667</ele><time>2026-05-03T07:47:08.286Z</time></trkpt><trkpt lat="42.3658188" lon="13.5327559"><ele>1178.8333333333333</ele><time>2026-05-03T07:47:09.286Z</time></trkpt><trkpt lat="42.3657644" lon="13.5328224"><ele>1179.0</ele><time>2026-05-03T07:47:10.286Z</time></trkpt><trkpt lat="42.3657056" lon="13.5328809"><ele>1180.5</ele><time>2026-05-03T07:47:11.286Z</time></trkpt><trkpt lat="42.3656404" lon="13.5329284"><ele>1182.0</ele><time>2026-05-03T07:47:12.286Z</time></trkpt><trkpt lat="42.3655716" lon="13.5329705"><ele>1183.5</ele><time>2026-05-03T07:47:13.286Z</time></trkpt><trkpt lat="42.3654985" lon="13.5330232"><ele>1185.0</ele><time>2026-05-03T07:47:14.286Z</time></trkpt><trkpt lat="42.3654232" lon="13.5330834"><ele>1186.5</ele><time>2026-05-03T07:47:15.286Z</time></trkpt><trkpt lat="42.365346" lon="13.5331488"><ele>1188.0</ele><time>2026-05-03T07:47:16.286Z</time></trkpt><trkpt lat="42.365275" lon="13.5332284"><ele>1191.0</ele><time>2026-05-03T07:47:17.286Z</time></trkpt><trkpt lat="42.3652125" lon="13.5333265"><ele>1194.0</ele><time>2026-05-03T07:47:18.286Z</time></trkpt><trkpt lat="42.3651588" lon="13.5334394"><ele>1197.0</ele><time>2026-05-03T07:47:19.286Z</time></trkpt><trkpt lat="42.3651141" lon="13.5335561"><ele>1200.0</ele><time>2026-05-03T07:47:20.286Z</time></trkpt><trkpt lat="42.3650843" lon="13.5336706"><ele>1203.0</ele><time>2026-05-03T07:47:21.286Z</time></trkpt><trkpt lat="42.3650642" lon="13.5337889"><ele>1204.0</ele><time>2026-05-03T07:47:22.286Z</time></trkpt><trkpt lat="42.3650465" lon="13.5339137"><ele>1205.0</ele><time>2026-05-03T07:47:23.286Z</time></trkpt><trkpt lat="42.3650334" lon="13.5340386"><ele>1206.0</ele><time>2026-05-03T07:47:24.286Z</time></trkpt><trkpt lat="42.365021" lon="13.534162"><ele>1207.0</ele><time>2026-05-03T07:47:25.286Z</time></trkpt><trkpt lat="42.3650097" lon="13.534288"><ele>1208.0</ele><time>2026-05-03T07:47:26.286Z</time></trkpt><trkpt lat="42.3650022" lon="13.5344154"><ele>1208.0</ele><time>2026-05-03T07:47:27.286Z</time></trkpt><trkpt lat="42.3649971" lon="13.5345507"><ele>1208.0</ele><time>2026-05-03T07:47:28.286Z</time></trkpt><trkpt lat="42.364993" lon="13.5346886"><ele>1208.0</ele><time>2026-05-03T07:47:29.286Z</time></trkpt><trkpt lat="42.3649919" lon="13.5348243"><ele>1208.0</ele><time>2026-05-03T07:47:30.286Z</time></trkpt><trkpt lat="42.3649936" lon="13.5349532"><ele>1208.0</ele><time>2026-05-03T07:47:31.286Z</time></trkpt><trkpt lat="42.364997" lon="13.535068"><ele>1208.8333333333335</ele><time>2026-05-03T07:47:32.286Z</time></trkpt><trkpt lat="42.3649903" lon="13.5351759"><ele>1209.6666666666667</ele><time>2026-05-03T07:47:33.286Z</time></trkpt><trkpt lat="42.364974" lon="13.5352857"><ele>1210.5</ele><time>2026-05-03T07:47:34.286Z</time></trkpt><trkpt lat="42.3649508" lon="13.5353869"><ele>1211.3333333333333</ele><time>2026-05-03T07:47:35.286Z</time></trkpt><trkpt lat="42.3649313" lon="13.5354954"><ele>1212.1666666666665</ele><time>2026-05-03T07:47:36.286Z</time></trkpt><trkpt lat="42.3649113" lon="13.5356064"><ele>1213.0</ele><time>2026-05-03T07:47:37.286Z</time></trkpt><trkpt lat="42.364891" lon="13.5357214"><ele>1213.2</ele><time>2026-05-03T07:47:38.286Z</time></trkpt><trkpt lat="42.3648643" lon="13.5358383"><ele>1213.4</ele><time>2026-05-03T07:47:39.286Z</time></trkpt><trkpt lat="42.3648335" lon="13.5359565"><ele>1213.6000000000001</ele><time>2026-05-03T07:47:40.286Z</time></trkpt><trkpt lat="42.3648049" lon="13.5360771"><ele>1213.8</ele><time>2026-05-03T07:47:41.287Z</time></trkpt><trkpt lat="42.3647755" lon="13.5361974"><ele>1214.0</ele><time>2026-05-03T07:47:42.286Z</time></trkpt><trkpt lat="42.364749" lon="13.5363139"><ele>1214.3333333333335</ele><time>2026-05-03T07:47:43.286Z</time></trkpt><trkpt lat="42.3647237" lon="13.5364265"><ele>1214.6666666666667</ele><time>2026-05-03T07:47:44.286Z</time></trkpt><trkpt lat="42.364706" lon="13.5365409"><ele>1215.0</ele><time>2026-05-03T07:47:45.286Z</time></trkpt><trkpt lat="42.3646905" lon="13.5366599"><ele>1215.3333333333333</ele><time>2026-05-03T07:47:46.286Z</time></trkpt><trkpt lat="42.3646702" lon="13.5367687"><ele>1215.6666666666665</ele><time>2026-05-03T07:47:47.286Z</time></trkpt><trkpt lat="42.3646401" lon="13.5368678"><ele>1216.0</ele><time>2026-05-03T07:47:48.287Z</time></trkpt><trkpt lat="42.3645998" lon="13.5369693"><ele>1216.6</ele><time>2026-05-03T07:47:49.286Z</time></trkpt><trkpt lat="42.3645535" lon="13.537075"><ele>1217.1999999999998</ele><time>2026-05-03T07:47:50.286Z</time></trkpt><trkpt lat="42.364501" lon="13.5371854"><ele>1217.8000000000002</ele><time>2026-05-03T07:47:51.286Z</time></trkpt><trkpt lat="42.3644413" lon="13.5373007"><ele>1218.4</ele><time>2026-05-03T07:47:52.287Z</time></trkpt><trkpt lat="42.3643786" lon="13.5374144"><ele>1219.0</ele><time>2026-05-03T07:47:53.286Z</time></trkpt><trkpt lat="42.3643148" lon="13.5375257"><ele>1219.0</ele><time>2026-05-03T07:47:54.286Z</time></trkpt><trkpt lat="42.3642475" lon="13.5376397"><ele>1219.0</ele><time>2026-05-03T07:47:55.286Z</time></trkpt><trkpt lat="42.3641824" lon="13.5377625"><ele>1219.0</ele><time>2026-05-03T07:47:56.286Z</time></trkpt><trkpt lat="42.3641214" lon="13.5378893"><ele>1219.0</ele><time>2026-05-03T07:47:57.286Z</time></trkpt><trkpt lat="42.3640592" lon="13.5380124"><ele>1219.0</ele><time>2026-05-03T07:47:58.286Z</time></trkpt><trkpt lat="42.3639989" lon="13.5381165"><ele>1220.25</ele><time>2026-05-03T07:47:59.286Z</time></trkpt><trkpt lat="42.363935" lon="13.5381933"><ele>1221.5</ele><time>2026-05-03T07:48:00.286Z</time></trkpt><trkpt lat="42.3638533" lon="13.5382817"><ele>1222.75</ele><time>2026-05-03T07:48:01.286Z</time></trkpt><trkpt lat="42.363755" lon="13.5383983"><ele>1224.0</ele><time>2026-05-03T07:48:02.286Z</time></trkpt><trkpt lat="42.36365" lon="13.53854"><ele>1224.0</ele><time>2026-05-03T07:48:03.286Z</time></trkpt><trkpt lat="42.36355" lon="13.538665"><ele>1224.0</ele><time>2026-05-03T07:48:04.286Z</time></trkpt><trkpt lat="42.3634517" lon="13.5387817"><ele>1224.0</ele><time>2026-05-03T07:48:05.286Z</time></trkpt><trkpt lat="42.3633583" lon="13.5388983"><ele>1224.0</ele><time>2026-05-03T07:48:06.286Z</time></trkpt><trkpt lat="42.3632783" lon="13.5390167"><ele>1225.0</ele><time>2026-05-03T07:48:07.286Z</time></trkpt><trkpt lat="42.363195" lon="13.5391367"><ele>1226.0</ele><time>2026-05-03T07:48:08.287Z</time></trkpt><trkpt lat="42.363115" lon="13.53925"><ele>1227.0</ele><time>2026-05-03T07:48:09.286Z</time></trkpt><trkpt lat="42.3630333" lon="13.539365"><ele>1228.0</ele><time>2026-05-03T07:48:10.286Z</time></trkpt><trkpt lat="42.3629583" lon="13.5394767"><ele>1227.6</ele><time>2026-05-03T07:48:11.286Z</time></trkpt><trkpt lat="42.36288" lon="13.53959"><ele>1227.1999999999998</ele><time>2026-05-03T07:48:12.286Z</time></trkpt><trkpt lat="42.3628067" lon="13.53969"><ele>1226.8</ele><time>2026-05-03T07:48:13.287Z</time></trkpt><trkpt lat="42.3627383" lon="13.5397917"><ele>1226.3999999999999</ele><time>2026-05-03T07:48:14.286Z</time></trkpt><trkpt lat="42.3626683" lon="13.5399017"><ele>1226.0</ele><time>2026-05-03T07:48:15.286Z</time></trkpt><trkpt lat="42.3626033" lon="13.5400183"><ele>1226.0</ele><time>2026-05-03T07:48:16.286Z</time></trkpt><trkpt lat="42.3625467" lon="13.54014"><ele>1226.0</ele><time>2026-05-03T07:48:17.286Z</time></trkpt><trkpt lat="42.362495" lon="13.5402667"><ele>1226.0</ele><time>2026-05-03T07:48:18.286Z</time></trkpt><trkpt lat="42.3624517" lon="13.5404"><ele>1226.0</ele><time>2026-05-03T07:48:19.286Z</time></trkpt><trkpt lat="42.36241" lon="13.5405233"><ele>1226.0</ele><time>2026-05-03T07:48:20.286Z</time></trkpt><trkpt lat="42.362375" lon="13.5406467"><ele>1226.8</ele><time>2026-05-03T07:48:21.286Z</time></trkpt><trkpt lat="42.3623517" lon="13.5407683"><ele>1227.6</ele><time>2026-05-03T07:48:22.286Z</time></trkpt><trkpt lat="42.3623283" lon="13.5408983"><ele>1228.4</ele><time>2026-05-03T07:48:23.286Z</time></trkpt><trkpt lat="42.3622983" lon="13.5410183"><ele>1229.2</ele><time>2026-05-03T07:48:24.286Z</time></trkpt><trkpt lat="42.3622617" lon="13.541145"><ele>1230.0</ele><time>2026-05-03T07:48:25.286Z</time></trkpt><trkpt lat="42.362225" lon="13.541265"><ele>1230.0</ele><time>2026-05-03T07:48:26.286Z</time></trkpt><trkpt lat="42.3621917" lon="13.5413917"><ele>1230.0</ele><time>2026-05-03T07:48:27.286Z</time></trkpt><trkpt lat="42.3621533" lon="13.541525"><ele>1230.0</ele><time>2026-05-03T07:48:28.286Z</time></trkpt><trkpt lat="42.3621133" lon="13.5416633"><ele>1230.0</ele><time>2026-05-03T07:48:29.286Z</time></trkpt><trkpt lat="42.3620733" lon="13.541805"><ele>1230.0</ele><time>2026-05-03T07:48:30.286Z</time></trkpt><trkpt lat="42.362035" lon="13.5419533"><ele>1230.0</ele><time>2026-05-03T07:48:31.286Z</time></trkpt><trkpt lat="42.3620017" lon="13.5420967"><ele>1230.0</ele><time>2026-05-03T07:48:32.286Z</time></trkpt><trkpt lat="42.3619683" lon="13.5422383"><ele>1230.0</ele><time>2026-05-03T07:48:33.286Z</time></trkpt><trkpt lat="42.3619267" lon="13.5423733"><ele>1230.0</ele><time>2026-05-03T07:48:34.286Z</time></trkpt><trkpt lat="42.3618933" lon="13.5424933"><ele>1230.0</ele><time>2026-05-03T07:48:35.286Z</time></trkpt><trkpt lat="42.3618617" lon="13.5426183"><ele>1230.0</ele><time>2026-05-03T07:48:36.287Z</time></trkpt><trkpt lat="42.361835" lon="13.5427483"><ele>1230.0</ele><time>2026-05-03T07:48:37.287Z</time></trkpt><trkpt lat="42.3618367" lon="13.5428933"><ele>1230.0</ele><time>2026-05-03T07:48:38.286Z</time></trkpt><trkpt lat="42.361835" lon="13.5430467"><ele>1230.0</ele><time>2026-05-03T07:48:39.286Z</time></trkpt><trkpt lat="42.361825" lon="13.543205"><ele>1230.0</ele><time>2026-05-03T07:48:40.286Z</time></trkpt><trkpt lat="42.3618133" lon="13.5433633"><ele>1230.0</ele><time>2026-05-03T07:48:41.286Z</time></trkpt><trkpt lat="42.3617967" lon="13.5435033"><ele>1230.0</ele><time>2026-05-03T07:48:42.286Z</time></trkpt><trkpt lat="42.3617767" lon="13.543635"><ele>1230.0</ele><time>2026-05-03T07:48:43.286Z</time></trkpt><trkpt lat="42.3617433" lon="13.5437667"><ele>1230.0</ele><time>2026-05-03T07:48:44.286Z</time></trkpt><trkpt lat="42.3617067" lon="13.5438917"><ele>1230.0</ele><time>2026-05-03T07:48:45.286Z</time></trkpt><trkpt lat="42.36167" lon="13.544025"><ele>1230.6</ele><time>2026-05-03T07:48:46.286Z</time></trkpt><trkpt lat="42.3616483" lon="13.544155"><ele>1231.2</ele><time>2026-05-03T07:48:47.286Z</time></trkpt><trkpt lat="42.3616183" lon="13.5442817"><ele>1231.8</ele><time>2026-05-03T07:48:48.286Z</time></trkpt><trkpt lat="42.3616033" lon="13.5444233"><ele>1232.4</ele><time>2026-05-03T07:48:49.286Z</time></trkpt><trkpt lat="42.3615767" lon="13.5445667"><ele>1233.0</ele><time>2026-05-03T07:48:50.286Z</time></trkpt><trkpt lat="42.3615583" lon="13.5447"><ele>1233.3333333333333</ele><time>2026-05-03T07:48:51.286Z</time></trkpt><trkpt lat="42.36156" lon="13.5448167"><ele>1233.6666666666667</ele><time>2026-05-03T07:48:52.287Z</time></trkpt><trkpt lat="42.3615683" lon="13.5449333"><ele>1234.0</ele><time>2026-05-03T07:48:53.286Z</time></trkpt><trkpt lat="42.36157" lon="13.5450633"><ele>1234.3333333333335</ele><time>2026-05-03T07:48:54.286Z</time></trkpt><trkpt lat="42.3615783" lon="13.5451833"><ele>1234.6666666666667</ele><time>2026-05-03T07:48:55.286Z</time></trkpt><trkpt lat="42.3615833" lon="13.5453033"><ele>1235.0</ele><time>2026-05-03T07:48:56.286Z</time></trkpt><trkpt lat="42.3615783" lon="13.5454283"><ele>1235.0</ele><time>2026-05-03T07:48:57.287Z</time></trkpt><trkpt lat="42.361575" lon="13.54554"><ele>1235.0</ele><time>2026-05-03T07:48:58.286Z</time></trkpt><trkpt lat="42.3615517" lon="13.5456467"><ele>1235.0</ele><time>2026-05-03T07:48:59.286Z</time></trkpt><trkpt lat="42.36154" lon="13.545755"><ele>1235.0</ele><time>2026-05-03T07:49:00.286Z</time></trkpt><trkpt lat="42.36155" lon="13.5458617"><ele>1235.0</ele><time>2026-05-03T07:49:01.287Z</time></trkpt><trkpt lat="42.3615583" lon="13.545965"><ele>1235.0</ele><time>2026-05-03T07:49:02.286Z</time></trkpt><trkpt lat="42.361585" lon="13.5460633"><ele>1234.9999999999998</ele><time>2026-05-03T07:49:03.286Z</time></trkpt><trkpt lat="42.36161" lon="13.5461583"><ele>1235.0</ele><time>2026-05-03T07:49:04.286Z</time></trkpt><trkpt lat="42.36161" lon="13.546255"><ele>1235.0</ele><time>2026-05-03T07:49:05.286Z</time></trkpt><trkpt lat="42.3616017" lon="13.5463483"><ele>1235.0</ele><time>2026-05-03T07:49:06.287Z</time></trkpt><trkpt lat="42.361595" lon="13.5464433"><ele>1235.0</ele><time>2026-05-03T07:49:07.286Z</time></trkpt><trkpt lat="42.361575" lon="13.5465333"><ele>1234.9999999999998</ele><time>2026-05-03T07:49:08.286Z</time></trkpt><trkpt lat="42.3615583" lon="13.5466183"><ele>1235.0</ele><time>2026-05-03T07:49:09.286Z</time></trkpt><trkpt lat="42.3614767" lon="13.5467683"><ele>1234.8333333333335</ele><time>2026-05-03T07:49:11.287Z</time></trkpt><trkpt lat="42.361425" lon="13.5468467"><ele>1234.6666666666667</ele><time>2026-05-03T07:49:12.286Z</time></trkpt><trkpt lat="42.3613783" lon="13.5469333"><ele>1234.5</ele><time>2026-05-03T07:49:13.286Z</time></trkpt><trkpt lat="42.3613417" lon="13.547025"><ele>1234.3333333333333</ele><time>2026-05-03T07:49:14.286Z</time></trkpt><trkpt lat="42.36132" lon="13.547125"><ele>1234.1666666666665</ele><time>2026-05-03T07:49:15.286Z</time></trkpt><trkpt lat="42.3612833" lon="13.5472367"><ele>1234.0</ele><time>2026-05-03T07:49:16.286Z</time></trkpt><trkpt lat="42.3612283" lon="13.5473533"><ele>1232.5</ele><time>2026-05-03T07:49:17.287Z</time></trkpt><trkpt lat="42.3611833" lon="13.5474633"><ele>1231.0</ele><time>2026-05-03T07:49:18.286Z</time></trkpt><trkpt lat="42.361135" lon="13.5475667"><ele>1229.5</ele><time>2026-05-03T07:49:19.286Z</time></trkpt><trkpt lat="42.3610917" lon="13.5476633"><ele>1228.0</ele><time>2026-05-03T07:49:20.286Z</time></trkpt><trkpt lat="42.3610533" lon="13.5477533"><ele>1226.5</ele><time>2026-05-03T07:49:21.286Z</time></trkpt><trkpt lat="42.3610083" lon="13.5478383"><ele>1225.0</ele><time>2026-05-03T07:49:22.286Z</time></trkpt><trkpt lat="42.36093" lon="13.5479617"><ele>1225.0</ele><time>2026-05-03T07:49:24.286Z</time></trkpt><trkpt lat="42.360885" lon="13.5480217"><ele>1225.0</ele><time>2026-05-03T07:49:25.286Z</time></trkpt><trkpt lat="42.360835" lon="13.5481083"><ele>1225.0</ele><time>2026-05-03T07:49:26.286Z</time></trkpt><trkpt lat="42.3607783" lon="13.5482033"><ele>1225.0</ele><time>2026-05-03T07:49:27.286Z</time></trkpt><trkpt lat="42.3607317" lon="13.548305"><ele>1225.0</ele><time>2026-05-03T07:49:28.286Z</time></trkpt><trkpt lat="42.3606933" lon="13.5484017"><ele>1225.0</ele><time>2026-05-03T07:49:29.286Z</time></trkpt><trkpt lat="42.3606583" lon="13.5485083"><ele>1225.0</ele><time>2026-05-03T07:49:30.286Z</time></trkpt><trkpt lat="42.3606317" lon="13.5486183"><ele>1225.0</ele><time>2026-05-03T07:49:31.286Z</time></trkpt><trkpt lat="42.3606067" lon="13.548735"><ele>1225.0</ele><time>2026-05-03T07:49:32.286Z</time></trkpt><trkpt lat="42.36059" lon="13.548845"><ele>1225.0</ele><time>2026-05-03T07:49:33.286Z</time></trkpt><trkpt lat="42.3605633" lon="13.54895"><ele>1225.0</ele><time>2026-05-03T07:49:34.286Z</time></trkpt><trkpt lat="42.3605417" lon="13.54905"><ele>1225.0</ele><time>2026-05-03T07:49:35.286Z</time></trkpt><trkpt lat="42.360525" lon="13.549155"><ele>1223.8333333333333</ele><time>2026-05-03T07:49:36.286Z</time></trkpt><trkpt lat="42.3605033" lon="13.54928"><ele>1222.6666666666665</ele><time>2026-05-03T07:49:37.287Z</time></trkpt><trkpt lat="42.36048" lon="13.5493933"><ele>1221.5</ele><time>2026-05-03T07:49:38.286Z</time></trkpt><trkpt lat="42.3604483" lon="13.5494933"><ele>1220.3333333333333</ele><time>2026-05-03T07:49:39.286Z</time></trkpt><trkpt lat="42.360435" lon="13.54959"><ele>1219.1666666666667</ele><time>2026-05-03T07:49:40.286Z</time></trkpt><trkpt lat="42.3604217" lon="13.54969"><ele>1218.0</ele><time>2026-05-03T07:49:41.286Z</time></trkpt><trkpt lat="42.3604083" lon="13.5498067"><ele>1217.4</ele><time>2026-05-03T07:49:42.286Z</time></trkpt><trkpt lat="42.3603883" lon="13.5499333"><ele>1216.8</ele><time>2026-05-03T07:49:43.286Z</time></trkpt><trkpt lat="42.3603717" lon="13.5500617"><ele>1216.2</ele><time>2026-05-03T07:49:44.286Z</time></trkpt><trkpt lat="42.3603517" lon="13.550205"><ele>1215.6</ele><time>2026-05-03T07:49:45.286Z</time></trkpt><trkpt lat="42.360325" lon="13.5503633"><ele>1215.0</ele><time>2026-05-03T07:49:46.286Z</time></trkpt><trkpt lat="42.3602983" lon="13.5505317"><ele>1214.5</ele><time>2026-05-03T07:49:47.286Z</time></trkpt><trkpt lat="42.3602633" lon="13.5507083"><ele>1214.0</ele><time>2026-05-03T07:49:48.286Z</time></trkpt><trkpt lat="42.360225" lon="13.5508767"><ele>1213.5</ele><time>2026-05-03T07:49:49.286Z</time></trkpt><trkpt lat="42.3601883" lon="13.5510433"><ele>1213.0</ele><time>2026-05-03T07:49:50.286Z</time></trkpt><trkpt lat="42.3601533" lon="13.55121"><ele>1212.75</ele><time>2026-05-03T07:49:51.286Z</time></trkpt><trkpt lat="42.3601167" lon="13.5513767"><ele>1212.5</ele><time>2026-05-03T07:49:52.287Z</time></trkpt><trkpt lat="42.360085" lon="13.551535"><ele>1212.25</ele><time>2026-05-03T07:49:53.286Z</time></trkpt><trkpt lat="42.36005" lon="13.5516817"><ele>1212.0</ele><time>2026-05-03T07:49:54.286Z</time></trkpt><trkpt lat="42.3600117" lon="13.5518133"><ele>1212.0</ele><time>2026-05-03T07:49:55.286Z</time></trkpt><trkpt lat="42.3599683" lon="13.5519417"><ele>1212.0</ele><time>2026-05-03T07:49:56.286Z</time></trkpt><trkpt lat="42.35992" lon="13.5520767"><ele>1212.0</ele><time>2026-05-03T07:49:57.286Z</time></trkpt><trkpt lat="42.3598767" lon="13.5521933"><ele>1212.0</ele><time>2026-05-03T07:49:58.287Z</time></trkpt><trkpt lat="42.3598267" lon="13.5523033"><ele>1212.0</ele><time>2026-05-03T07:49:59.286Z</time></trkpt><trkpt lat="42.359765" lon="13.5524167"><ele>1211.8</ele><time>2026-05-03T07:50:00.286Z</time></trkpt><trkpt lat="42.3597117" lon="13.552535"><ele>1211.6</ele><time>2026-05-03T07:50:01.286Z</time></trkpt><trkpt lat="42.3596483" lon="13.55265"><ele>1211.3999999999999</ele><time>2026-05-03T07:50:02.286Z</time></trkpt><trkpt lat="42.3595867" lon="13.552775"><ele>1211.2</ele><time>2026-05-03T07:50:03.286Z</time></trkpt><trkpt lat="42.3595217" lon="13.5529167"><ele>1211.0</ele><time>2026-05-03T07:50:04.286Z</time></trkpt><trkpt lat="42.35946" lon="13.55306"><ele>1211.0</ele><time>2026-05-03T07:50:05.286Z</time></trkpt><trkpt lat="42.3593983" lon="13.5532167"><ele>1211.0</ele><time>2026-05-03T07:50:06.286Z</time></trkpt><trkpt lat="42.35934" lon="13.5533817"><ele>1211.0</ele><time>2026-05-03T07:50:07.287Z</time></trkpt><trkpt lat="42.35928" lon="13.5535667"><ele>1211.0</ele><time>2026-05-03T07:50:08.286Z</time></trkpt><trkpt lat="42.35923" lon="13.55375"><ele>1211.25</ele><time>2026-05-03T07:50:09.286Z</time></trkpt><trkpt lat="42.3591767" lon="13.5538967"><ele>1211.5</ele><time>2026-05-03T07:50:10.286Z</time></trkpt><trkpt lat="42.359115" lon="13.554045"><ele>1211.75</ele><time>2026-05-03T07:50:11.286Z</time></trkpt><trkpt lat="42.3590567" lon="13.5541783"><ele>1212.0</ele><time>2026-05-03T07:50:12.286Z</time></trkpt><trkpt lat="42.359005" lon="13.5542917"><ele>1212.0</ele><time>2026-05-03T07:50:13.286Z</time></trkpt><trkpt lat="42.3589533" lon="13.55442"><ele>1212.0</ele><time>2026-05-03T07:50:14.286Z</time></trkpt><trkpt lat="42.3588983" lon="13.5545483"><ele>1212.0</ele><time>2026-05-03T07:50:15.286Z</time></trkpt><trkpt lat="42.3588433" lon="13.554685"><ele>1212.0</ele><time>2026-05-03T07:50:16.286Z</time></trkpt><trkpt lat="42.35879" lon="13.554815"><ele>1212.0</ele><time>2026-05-03T07:50:17.287Z</time></trkpt><trkpt lat="42.3587517" lon="13.554945"><ele>1213.0</ele><time>2026-05-03T07:50:18.286Z</time></trkpt><trkpt lat="42.3587083" lon="13.5550633"><ele>1214.0</ele><time>2026-05-03T07:50:19.286Z</time></trkpt><trkpt lat="42.3586733" lon="13.5551817"><ele>1215.0</ele><time>2026-05-03T07:50:20.286Z</time></trkpt><trkpt lat="42.3586367" lon="13.5553017"><ele>1216.0</ele><time>2026-05-03T07:50:21.286Z</time></trkpt><trkpt lat="42.3585933" lon="13.5554333"><ele>1217.0</ele><time>2026-05-03T07:50:22.286Z</time></trkpt><trkpt lat="42.3585533" lon="13.5555833"><ele>1217.0</ele><time>2026-05-03T07:50:23.286Z</time></trkpt><trkpt lat="42.358515" lon="13.5557083"><ele>1217.0</ele><time>2026-05-03T07:50:24.287Z</time></trkpt><trkpt lat="42.35848" lon="13.55582"><ele>1217.0</ele><time>2026-05-03T07:50:25.286Z</time></trkpt><trkpt lat="42.3584517" lon="13.5559233"><ele>1217.0</ele><time>2026-05-03T07:50:26.286Z</time></trkpt><trkpt lat="42.3584467" lon="13.556035"><ele>1217.0</ele><time>2026-05-03T07:50:27.287Z</time></trkpt><trkpt lat="42.3584417" lon="13.5561533"><ele>1217.0</ele><time>2026-05-03T07:50:28.286Z</time></trkpt><trkpt lat="42.3584517" lon="13.5562717"><ele>1216.0</ele><time>2026-05-03T07:50:29.286Z</time></trkpt><trkpt lat="42.3584583" lon="13.5563867"><ele>1215.0</ele><time>2026-05-03T07:50:30.286Z</time></trkpt><trkpt lat="42.35847" lon="13.5565017"><ele>1214.0</ele><time>2026-05-03T07:50:31.286Z</time></trkpt><trkpt lat="42.3584867" lon="13.5566067"><ele>1213.0</ele><time>2026-05-03T07:50:32.286Z</time></trkpt><trkpt lat="42.35849" lon="13.5567"><ele>1212.0</ele><time>2026-05-03T07:50:33.286Z</time></trkpt><trkpt lat="42.3584967" lon="13.55679"><ele>1211.0</ele><time>2026-05-03T07:50:34.286Z</time></trkpt><trkpt lat="42.3585183" lon="13.5569533"><ele>1211.0</ele><time>2026-05-03T07:50:36.286Z</time></trkpt><trkpt lat="42.358545" lon="13.5570433"><ele>1211.0</ele><time>2026-05-03T07:50:37.286Z</time></trkpt><trkpt lat="42.3585817" lon="13.5571333"><ele>1211.0</ele><time>2026-05-03T07:50:38.286Z</time></trkpt><trkpt lat="42.3586317" lon="13.5572283"><ele>1211.0</ele><time>2026-05-03T07:50:39.286Z</time></trkpt><trkpt lat="42.3586817" lon="13.5573333"><ele>1211.0</ele><time>2026-05-03T07:50:40.287Z</time></trkpt><trkpt lat="42.358725" lon="13.5574233"><ele>1211.0</ele><time>2026-05-03T07:50:41.286Z</time></trkpt><trkpt lat="42.3587617" lon="13.5575217"><ele>1211.0</ele><time>2026-05-03T07:50:42.286Z</time></trkpt><trkpt lat="42.3587917" lon="13.5576233"><ele>1211.0</ele><time>2026-05-03T07:50:43.286Z</time></trkpt><trkpt lat="42.3588117" lon="13.5577333"><ele>1211.0</ele><time>2026-05-03T07:50:44.286Z</time></trkpt><trkpt lat="42.3588167" lon="13.5578617"><ele>1211.0</ele><time>2026-05-03T07:50:45.286Z</time></trkpt><trkpt lat="42.35882" lon="13.55799"><ele>1211.0</ele><time>2026-05-03T07:50:46.286Z</time></trkpt><trkpt lat="42.3588233" lon="13.5581083"><ele>1211.0</ele><time>2026-05-03T07:50:47.286Z</time></trkpt><trkpt lat="42.3588317" lon="13.5582283"><ele>1210.8</ele><time>2026-05-03T07:50:48.286Z</time></trkpt><trkpt lat="42.3588567" lon="13.558355"><ele>1210.6</ele><time>2026-05-03T07:50:49.286Z</time></trkpt><trkpt lat="42.3588883" lon="13.5584933"><ele>1210.4</ele><time>2026-05-03T07:50:50.286Z</time></trkpt><trkpt lat="42.35892" lon="13.55864"><ele>1210.2</ele><time>2026-05-03T07:50:51.286Z</time></trkpt><trkpt lat="42.3589467" lon="13.55877"><ele>1210.0</ele><time>2026-05-03T07:50:52.287Z</time></trkpt><trkpt lat="42.358985" lon="13.5588983"><ele>1208.6666666666665</ele><time>2026-05-03T07:50:53.286Z</time></trkpt><trkpt lat="42.3590133" lon="13.5590217"><ele>1207.3333333333333</ele><time>2026-05-03T07:50:54.286Z</time></trkpt><trkpt lat="42.3590383" lon="13.5591317"><ele>1206.0</ele><time>2026-05-03T07:50:55.286Z</time></trkpt><trkpt lat="42.359055" lon="13.5592433"><ele>1204.6666666666667</ele><time>2026-05-03T07:50:56.286Z</time></trkpt><trkpt lat="42.359055" lon="13.5593483"><ele>1203.3333333333335</ele><time>2026-05-03T07:50:57.286Z</time></trkpt><trkpt lat="42.3590467" lon="13.5594617"><ele>1202.0</ele><time>2026-05-03T07:50:58.286Z</time></trkpt><trkpt lat="42.359025" lon="13.5595817"><ele>1202.0</ele><time>2026-05-03T07:50:59.286Z</time></trkpt><trkpt lat="42.3590133" lon="13.55971"><ele>1202.0</ele><time>2026-05-03T07:51:00.287Z</time></trkpt><trkpt lat="42.3589967" lon="13.559845"><ele>1202.0</ele><time>2026-05-03T07:51:01.286Z</time></trkpt><trkpt lat="42.3589733" lon="13.559985"><ele>1202.0</ele><time>2026-05-03T07:51:02.286Z</time></trkpt><trkpt lat="42.35896" lon="13.5601333"><ele>1202.0</ele><time>2026-05-03T07:51:03.286Z</time></trkpt><trkpt lat="42.3589467" lon="13.56028"><ele>1201.8</ele><time>2026-05-03T07:51:04.286Z</time></trkpt><trkpt lat="42.3589417" lon="13.5604167"><ele>1201.6</ele><time>2026-05-03T07:51:05.286Z</time></trkpt><trkpt lat="42.358945" lon="13.5605533"><ele>1201.3999999999999</ele><time>2026-05-03T07:51:06.286Z</time></trkpt><trkpt lat="42.3589467" lon="13.5606883"><ele>1201.2</ele><time>2026-05-03T07:51:07.287Z</time></trkpt><trkpt lat="42.3589433" lon="13.56083"><ele>1201.0</ele><time>2026-05-03T07:51:08.286Z</time></trkpt><trkpt lat="42.3589483" lon="13.5609733"><ele>1201.0</ele><time>2026-05-03T07:51:09.287Z</time></trkpt><trkpt lat="42.3589483" lon="13.5611117"><ele>1201.0</ele><time>2026-05-03T07:51:10.286Z</time></trkpt><trkpt lat="42.3589483" lon="13.56126"><ele>1201.0</ele><time>2026-05-03T07:51:11.286Z</time></trkpt><trkpt lat="42.3589417" lon="13.5614083"><ele>1201.0</ele><time>2026-05-03T07:51:12.286Z</time></trkpt><trkpt lat="42.358935" lon="13.5615633"><ele>1201.0</ele><time>2026-05-03T07:51:13.286Z</time></trkpt><trkpt lat="42.3589217" lon="13.5617183"><ele>1200.3999999999999</ele><time>2026-05-03T07:51:14.286Z</time></trkpt><trkpt lat="42.3589167" lon="13.5618667"><ele>1199.8</ele><time>2026-05-03T07:51:15.286Z</time></trkpt><trkpt lat="42.3589167" lon="13.562"><ele>1199.1999999999998</ele><time>2026-05-03T07:51:16.286Z</time></trkpt><trkpt lat="42.35891" lon="13.5621283"><ele>1198.6</ele><time>2026-05-03T07:51:17.286Z</time></trkpt><trkpt lat="42.35891" lon="13.5622583"><ele>1198.0</ele><time>2026-05-03T07:51:18.286Z</time></trkpt><trkpt lat="42.3589067" lon="13.562395"><ele>1198.0</ele><time>2026-05-03T07:51:19.286Z</time></trkpt><trkpt lat="42.35891" lon="13.5625317"><ele>1198.0</ele><time>2026-05-03T07:51:20.286Z</time></trkpt><trkpt lat="42.3589233" lon="13.5626667"><ele>1198.0</ele><time>2026-05-03T07:51:21.286Z</time></trkpt><trkpt lat="42.358925" lon="13.5627933"><ele>1198.0</ele><time>2026-05-03T07:51:22.286Z</time></trkpt><trkpt lat="42.35893" lon="13.5629167"><ele>1198.0</ele><time>2026-05-03T07:51:23.286Z</time></trkpt><trkpt lat="42.35895" lon="13.56304"><ele>1196.4</ele><time>2026-05-03T07:51:24.286Z</time></trkpt><trkpt lat="42.3589667" lon="13.56317"><ele>1194.8</ele><time>2026-05-03T07:51:25.286Z</time></trkpt><trkpt lat="42.3589917" lon="13.563285"><ele>1193.2</ele><time>2026-05-03T07:51:26.286Z</time></trkpt><trkpt lat="42.359015" lon="13.563405"><ele>1191.6</ele><time>2026-05-03T07:51:27.286Z</time></trkpt><trkpt lat="42.3590217" lon="13.563525"><ele>1190.0</ele><time>2026-05-03T07:51:28.286Z</time></trkpt><trkpt lat="42.3590267" lon="13.5636417"><ele>1189.3333333333335</ele><time>2026-05-03T07:51:29.286Z</time></trkpt><trkpt lat="42.359015" lon="13.563755"><ele>1188.6666666666667</ele><time>2026-05-03T07:51:30.286Z</time></trkpt><trkpt lat="42.3590033" lon="13.5638717"><ele>1188.0</ele><time>2026-05-03T07:51:31.286Z</time></trkpt><trkpt lat="42.3589967" lon="13.5639933"><ele>1187.3333333333333</ele><time>2026-05-03T07:51:32.287Z</time></trkpt><trkpt lat="42.3589967" lon="13.56412"><ele>1186.6666666666665</ele><time>2026-05-03T07:51:33.286Z</time></trkpt><trkpt lat="42.359005" lon="13.564245"><ele>1186.0</ele><time>2026-05-03T07:51:34.286Z</time></trkpt><trkpt lat="42.3590183" lon="13.5643483"><ele>1186.0</ele><time>2026-05-03T07:51:35.286Z</time></trkpt><trkpt lat="42.3590283" lon="13.564445"><ele>1186.0</ele><time>2026-05-03T07:51:36.286Z</time></trkpt><trkpt lat="42.35903" lon="13.5645317"><ele>1186.0</ele><time>2026-05-03T07:51:37.286Z</time></trkpt><trkpt lat="42.358995" lon="13.5646933"><ele>1186.0</ele><time>2026-05-03T07:51:39.286Z</time></trkpt><trkpt lat="42.35897" lon="13.56479"><ele>1186.0</ele><time>2026-05-03T07:51:40.286Z</time></trkpt><trkpt lat="42.3589367" lon="13.5649033"><ele>1186.0</ele><time>2026-05-03T07:51:41.286Z</time></trkpt><trkpt lat="42.3589067" lon="13.5650233"><ele>1187.0</ele><time>2026-05-03T07:51:42.286Z</time></trkpt><trkpt lat="42.3588883" lon="13.5651467"><ele>1188.0</ele><time>2026-05-03T07:51:43.286Z</time></trkpt><trkpt lat="42.358865" lon="13.5652883"><ele>1189.0</ele><time>2026-05-03T07:51:44.286Z</time></trkpt><trkpt lat="42.3588517" lon="13.5654467"><ele>1190.0</ele><time>2026-05-03T07:51:45.286Z</time></trkpt><trkpt lat="42.3588367" lon="13.5656117"><ele>1191.0</ele><time>2026-05-03T07:51:46.286Z</time></trkpt><trkpt lat="42.3588317" lon="13.5657617"><ele>1191.0</ele><time>2026-05-03T07:51:47.286Z</time></trkpt><trkpt lat="42.3588233" lon="13.565915"><ele>1191.0</ele><time>2026-05-03T07:51:48.286Z</time></trkpt><trkpt lat="42.3588217" lon="13.5660833"><ele>1191.0</ele><time>2026-05-03T07:51:49.286Z</time></trkpt><trkpt lat="42.3588233" lon="13.5662583"><ele>1191.0</ele><time>2026-05-03T07:51:50.286Z</time></trkpt><trkpt lat="42.3588283" lon="13.5664583"><ele>1191.0</ele><time>2026-05-03T07:51:51.286Z</time></trkpt><trkpt lat="42.3588433" lon="13.566665"><ele>1191.0</ele><time>2026-05-03T07:51:52.286Z</time></trkpt><trkpt lat="42.358845" lon="13.56686"><ele>1191.0</ele><time>2026-05-03T07:51:53.287Z</time></trkpt><trkpt lat="42.3588367" lon="13.5670517"><ele>1191.0</ele><time>2026-05-03T07:51:54.286Z</time></trkpt><trkpt lat="42.3588267" lon="13.5672267"><ele>1191.0</ele><time>2026-05-03T07:51:55.286Z</time></trkpt><trkpt lat="42.3588267" lon="13.5673983"><ele>1191.0</ele><time>2026-05-03T07:51:56.286Z</time></trkpt><trkpt lat="42.3588217" lon="13.5675717"><ele>1191.0</ele><time>2026-05-03T07:51:57.286Z</time></trkpt><trkpt lat="42.3588183" lon="13.567745"><ele>1191.0</ele><time>2026-05-03T07:51:58.287Z</time></trkpt><trkpt lat="42.3588017" lon="13.5679183"><ele>1191.0</ele><time>2026-05-03T07:51:59.286Z</time></trkpt><trkpt lat="42.35878" lon="13.5680833"><ele>1191.0</ele><time>2026-05-03T07:52:00.287Z</time></trkpt><trkpt lat="42.358755" lon="13.5682483"><ele>1191.0</ele><time>2026-05-03T07:52:01.286Z</time></trkpt><trkpt lat="42.358725" lon="13.5684117"><ele>1191.0</ele><time>2026-05-03T07:52:02.286Z</time></trkpt><trkpt lat="42.3587067" lon="13.5685767"><ele>1189.25</ele><time>2026-05-03T07:52:03.286Z</time></trkpt><trkpt lat="42.3586917" lon="13.5687367"><ele>1187.5</ele><time>2026-05-03T07:52:04.286Z</time></trkpt><trkpt lat="42.3586667" lon="13.5688917"><ele>1185.75</ele><time>2026-05-03T07:52:05.286Z</time></trkpt><trkpt lat="42.35861" lon="13.569035"><ele>1184.0</ele><time>2026-05-03T07:52:06.286Z</time></trkpt><trkpt lat="42.3585433" lon="13.5691783"><ele>1184.0</ele><time>2026-05-03T07:52:07.286Z</time></trkpt><trkpt lat="42.3584767" lon="13.5693017"><ele>1184.0</ele><time>2026-05-03T07:52:08.286Z</time></trkpt><trkpt lat="42.3583967" lon="13.5694217"><ele>1184.0</ele><time>2026-05-03T07:52:09.286Z</time></trkpt><trkpt lat="42.3583167" lon="13.5695533"><ele>1184.0</ele><time>2026-05-03T07:52:10.287Z</time></trkpt><trkpt lat="42.3582383" lon="13.56968"><ele>1185.8</ele><time>2026-05-03T07:52:11.286Z</time></trkpt><trkpt lat="42.35817" lon="13.5697967"><ele>1187.6000000000001</ele><time>2026-05-03T07:52:12.286Z</time></trkpt><trkpt lat="42.3581083" lon="13.5698983"><ele>1189.4</ele><time>2026-05-03T07:52:13.286Z</time></trkpt><trkpt lat="42.35806" lon="13.5699817"><ele>1191.2</ele><time>2026-05-03T07:52:14.286Z</time></trkpt><trkpt lat="42.357985" lon="13.570105"><ele>1193.0</ele><time>2026-05-03T07:52:16.286Z</time></trkpt><trkpt lat="42.357945" lon="13.5701783"><ele>1193.0</ele><time>2026-05-03T07:52:17.286Z</time></trkpt><trkpt lat="42.3578983" lon="13.5702683"><ele>1193.0</ele><time>2026-05-03T07:52:18.286Z</time></trkpt><trkpt lat="42.3578383" lon="13.5703617"><ele>1193.0</ele><time>2026-05-03T07:52:19.286Z</time></trkpt><trkpt lat="42.3577767" lon="13.5704767"><ele>1193.0</ele><time>2026-05-03T07:52:20.286Z</time></trkpt><trkpt lat="42.3577283" lon="13.5705917"><ele>1193.0</ele><time>2026-05-03T07:52:21.286Z</time></trkpt><trkpt lat="42.357685" lon="13.570705"><ele>1192.5</ele><time>2026-05-03T07:52:22.286Z</time></trkpt><trkpt lat="42.3576433" lon="13.5708233"><ele>1192.0</ele><time>2026-05-03T07:52:23.286Z</time></trkpt><trkpt lat="42.357575" lon="13.570945"><ele>1191.5</ele><time>2026-05-03T07:52:24.287Z</time></trkpt><trkpt lat="42.3575033" lon="13.5710817"><ele>1191.0</ele><time>2026-05-03T07:52:25.286Z</time></trkpt><trkpt lat="42.35743" lon="13.5712167"><ele>1191.0</ele><time>2026-05-03T07:52:26.286Z</time></trkpt><trkpt lat="42.3573617" lon="13.5713333"><ele>1191.0</ele><time>2026-05-03T07:52:27.286Z</time></trkpt><trkpt lat="42.3572967" lon="13.5714483"><ele>1191.0</ele><time>2026-05-03T07:52:28.287Z</time></trkpt><trkpt lat="42.3572367" lon="13.5715567"><ele>1191.0</ele><time>2026-05-03T07:52:29.286Z</time></trkpt><trkpt lat="42.357175" lon="13.5716633"><ele>1191.0</ele><time>2026-05-03T07:52:30.286Z</time></trkpt><trkpt lat="42.3571083" lon="13.5717783"><ele>1190.0</ele><time>2026-05-03T07:52:31.286Z</time></trkpt><trkpt lat="42.357045" lon="13.5718983"><ele>1189.0</ele><time>2026-05-03T07:52:32.286Z</time></trkpt><trkpt lat="42.356975" lon="13.5720183"><ele>1188.0</ele><time>2026-05-03T07:52:33.286Z</time></trkpt><trkpt lat="42.3569067" lon="13.572135"><ele>1187.0</ele><time>2026-05-03T07:52:34.286Z</time></trkpt><trkpt lat="42.3568283" lon="13.5722367"><ele>1186.0</ele><time>2026-05-03T07:52:35.286Z</time></trkpt><trkpt lat="42.3567417" lon="13.5723283"><ele>1186.0</ele><time>2026-05-03T07:52:36.286Z</time></trkpt><trkpt lat="42.3566483" lon="13.57239"><ele>1186.0</ele><time>2026-05-03T07:52:37.286Z</time></trkpt><trkpt lat="42.3565633" lon="13.57244"><ele>1186.0</ele><time>2026-05-03T07:52:38.286Z</time></trkpt><trkpt lat="42.356465" lon="13.5724567"><ele>1186.0</ele><time>2026-05-03T07:52:39.286Z</time></trkpt><trkpt lat="42.356375" lon="13.5724483"><ele>1186.0</ele><time>2026-05-03T07:52:40.286Z</time></trkpt><trkpt lat="42.356285" lon="13.572415"><ele>1185.2</ele><time>2026-05-03T07:52:41.286Z</time></trkpt><trkpt lat="42.3561917" lon="13.5723783"><ele>1184.3999999999999</ele><time>2026-05-03T07:52:42.286Z</time></trkpt><trkpt lat="42.3560883" lon="13.5723633"><ele>1183.6</ele><time>2026-05-03T07:52:43.286Z</time></trkpt><trkpt lat="42.3559883" lon="13.57238"><ele>1182.8</ele><time>2026-05-03T07:52:44.286Z</time></trkpt><trkpt lat="42.3558817" lon="13.572415"><ele>1182.0</ele><time>2026-05-03T07:52:45.286Z</time></trkpt><trkpt lat="42.355775" lon="13.5724533"><ele>1182.0</ele><time>2026-05-03T07:52:46.286Z</time></trkpt><trkpt lat="42.355675" lon="13.5724983"><ele>1182.0</ele><time>2026-05-03T07:52:47.286Z</time></trkpt><trkpt lat="42.3555767" lon="13.5725533"><ele>1182.0</ele><time>2026-05-03T07:52:48.286Z</time></trkpt><trkpt lat="42.3554783" lon="13.5726167"><ele>1182.0</ele><time>2026-05-03T07:52:49.286Z</time></trkpt><trkpt lat="42.3553783" lon="13.572675"><ele>1182.0</ele><time>2026-05-03T07:52:50.286Z</time></trkpt><trkpt lat="42.35528" lon="13.5727367"><ele>1180.8</ele><time>2026-05-03T07:52:51.286Z</time></trkpt><trkpt lat="42.355175" lon="13.5727917"><ele>1179.6</ele><time>2026-05-03T07:52:52.286Z</time></trkpt><trkpt lat="42.3550633" lon="13.5728467"><ele>1178.3999999999999</ele><time>2026-05-03T07:52:53.286Z</time></trkpt><trkpt lat="42.3549617" lon="13.5729117"><ele>1177.2</ele><time>2026-05-03T07:52:54.286Z</time></trkpt><trkpt lat="42.3548667" lon="13.5729617"><ele>1176.0</ele><time>2026-05-03T07:52:55.286Z</time></trkpt><trkpt lat="42.354765" lon="13.5730183"><ele>1175.8</ele><time>2026-05-03T07:52:56.286Z</time></trkpt><trkpt lat="42.354665" lon="13.5730767"><ele>1175.6</ele><time>2026-05-03T07:52:57.286Z</time></trkpt><trkpt lat="42.354565" lon="13.573125"><ele>1175.4</ele><time>2026-05-03T07:52:58.286Z</time></trkpt><trkpt lat="42.3544783" lon="13.5731767"><ele>1175.2</ele><time>2026-05-03T07:52:59.286Z</time></trkpt><trkpt lat="42.3543917" lon="13.57322"><ele>1175.0</ele><time>2026-05-03T07:53:00.286Z</time></trkpt><trkpt lat="42.354305" lon="13.57326"><ele>1175.0</ele><time>2026-05-03T07:53:01.286Z</time></trkpt><trkpt lat="42.3542267" lon="13.5733067"><ele>1175.0</ele><time>2026-05-03T07:53:02.286Z</time></trkpt><trkpt lat="42.3541567" lon="13.5733617"><ele>1175.0</ele><time>2026-05-03T07:53:03.286Z</time></trkpt><trkpt lat="42.3540817" lon="13.57341"><ele>1175.0</ele><time>2026-05-03T07:53:04.286Z</time></trkpt><trkpt lat="42.3540067" lon="13.573465"><ele>1175.0</ele><time>2026-05-03T07:53:05.286Z</time></trkpt><trkpt lat="42.353935" lon="13.573515"><ele>1175.0</ele><time>2026-05-03T07:53:06.286Z</time></trkpt><trkpt lat="42.35387" lon="13.5735633"><ele>1175.8333333333335</ele><time>2026-05-03T07:53:07.286Z</time></trkpt><trkpt lat="42.3538017" lon="13.5736133"><ele>1176.6666666666667</ele><time>2026-05-03T07:53:08.286Z</time></trkpt><trkpt lat="42.3537333" lon="13.5736583"><ele>1177.5</ele><time>2026-05-03T07:53:09.286Z</time></trkpt><trkpt lat="42.3536667" lon="13.57371"><ele>1178.3333333333333</ele><time>2026-05-03T07:53:10.286Z</time></trkpt><trkpt lat="42.3535983" lon="13.5737467"><ele>1179.1666666666665</ele><time>2026-05-03T07:53:11.286Z</time></trkpt><trkpt lat="42.3535367" lon="13.5737767"><ele>1180.0</ele><time>2026-05-03T07:53:12.286Z</time></trkpt><trkpt lat="42.3534183" lon="13.5738417"><ele>1176.8</ele><time>2026-05-03T07:53:14.286Z</time></trkpt><trkpt lat="42.3533017" lon="13.573915"><ele>1173.6</ele><time>2026-05-03T07:53:16.286Z</time></trkpt><trkpt lat="42.3531917" lon="13.5739817"><ele>1170.4</ele><time>2026-05-03T07:53:18.287Z</time></trkpt><trkpt lat="42.3530767" lon="13.5740567"><ele>1167.2</ele><time>2026-05-03T07:53:20.287Z</time></trkpt><trkpt lat="42.35302" lon="13.5741017"><ele>1164.0</ele><time>2026-05-03T07:53:21.286Z</time></trkpt><trkpt lat="42.352965" lon="13.57415"><ele>1163.142857142857</ele><time>2026-05-03T07:53:22.287Z</time></trkpt><trkpt lat="42.3529017" lon="13.5741933"><ele>1162.2857142857142</ele><time>2026-05-03T07:53:23.286Z</time></trkpt><trkpt lat="42.3528283" lon="13.57421"><ele>1161.4285714285713</ele><time>2026-05-03T07:53:24.286Z</time></trkpt><trkpt lat="42.35276" lon="13.5742167"><ele>1160.5714285714284</ele><time>2026-05-03T07:53:25.286Z</time></trkpt><trkpt lat="42.352685" lon="13.5742183"><ele>1159.7142857142858</ele><time>2026-05-03T07:53:26.286Z</time></trkpt><trkpt lat="42.352615" lon="13.57421"><ele>1158.8571428571427</ele><time>2026-05-03T07:53:27.286Z</time></trkpt><trkpt lat="42.3525467" lon="13.5741917"><ele>1158.0</ele><time>2026-05-03T07:53:28.286Z</time></trkpt><trkpt lat="42.3524867" lon="13.5741617"><ele>1158.0</ele><time>2026-05-03T07:53:29.286Z</time></trkpt><trkpt lat="42.352375" lon="13.5740867"><ele>1158.0</ele><time>2026-05-03T07:53:31.286Z</time></trkpt><trkpt lat="42.352305" lon="13.5740283"><ele>1158.0</ele><time>2026-05-03T07:53:32.287Z</time></trkpt><trkpt lat="42.3522233" lon="13.5739667"><ele>1158.0</ele><time>2026-05-03T07:53:33.286Z</time></trkpt><trkpt lat="42.352135" lon="13.5738917"><ele>1158.0</ele><time>2026-05-03T07:53:34.286Z</time></trkpt><trkpt lat="42.3520467" lon="13.5738183"><ele>1157.0</ele><time>2026-05-03T07:53:35.287Z</time></trkpt><trkpt lat="42.3519683" lon="13.5737567"><ele>1156.0</ele><time>2026-05-03T07:53:36.286Z</time></trkpt><trkpt lat="42.3518817" lon="13.573695"><ele>1155.0</ele><time>2026-05-03T07:53:37.286Z</time></trkpt><trkpt lat="42.351795" lon="13.573635"><ele>1154.0</ele><time>2026-05-03T07:53:38.286Z</time></trkpt><trkpt lat="42.3517033" lon="13.5735783"><ele>1153.0</ele><time>2026-05-03T07:53:39.286Z</time></trkpt><trkpt lat="42.3516133" lon="13.5735133"><ele>1153.0</ele><time>2026-05-03T07:53:40.286Z</time></trkpt><trkpt lat="42.3515317" lon="13.5734383"><ele>1153.0</ele><time>2026-05-03T07:53:41.286Z</time></trkpt><trkpt lat="42.351445" lon="13.5733567"><ele>1153.0</ele><time>2026-05-03T07:53:42.287Z</time></trkpt><trkpt lat="42.3513583" lon="13.5732683"><ele>1153.0</ele><time>2026-05-03T07:53:43.286Z</time></trkpt><trkpt lat="42.35128" lon="13.5731717"><ele>1153.0</ele><time>2026-05-03T07:53:44.286Z</time></trkpt><trkpt lat="42.3512067" lon="13.573085"><ele>1152.2</ele><time>2026-05-03T07:53:45.287Z</time></trkpt><trkpt lat="42.3511383" lon="13.5729933"><ele>1151.4</ele><time>2026-05-03T07:53:46.286Z</time></trkpt><trkpt lat="42.3510783" lon="13.5728933"><ele>1150.6000000000001</ele><time>2026-05-03T07:53:47.286Z</time></trkpt><trkpt lat="42.3510167" lon="13.5727917"><ele>1149.8</ele><time>2026-05-03T07:53:48.286Z</time></trkpt><trkpt lat="42.3509567" lon="13.5726917"><ele>1149.0</ele><time>2026-05-03T07:53:49.286Z</time></trkpt><trkpt lat="42.35089" lon="13.5726017"><ele>1149.0</ele><time>2026-05-03T07:53:50.286Z</time></trkpt><trkpt lat="42.35081" lon="13.57252"><ele>1149.0</ele><time>2026-05-03T07:53:51.286Z</time></trkpt><trkpt lat="42.3507233" lon="13.5724433"><ele>1149.0</ele><time>2026-05-03T07:53:52.286Z</time></trkpt><trkpt lat="42.35063" lon="13.5723817"><ele>1149.0</ele><time>2026-05-03T07:53:53.286Z</time></trkpt><trkpt lat="42.3505483" lon="13.5723217"><ele>1149.0</ele><time>2026-05-03T07:53:54.287Z</time></trkpt><trkpt lat="42.3504683" lon="13.5722667"><ele>1148.0</ele><time>2026-05-03T07:53:55.286Z</time></trkpt><trkpt lat="42.35039" lon="13.5721983"><ele>1147.0</ele><time>2026-05-03T07:53:56.286Z</time></trkpt><trkpt lat="42.350315" lon="13.572135"><ele>1146.0</ele><time>2026-05-03T07:53:57.286Z</time></trkpt><trkpt lat="42.3502333" lon="13.57207"><ele>1145.0</ele><time>2026-05-03T07:53:58.286Z</time></trkpt><trkpt lat="42.3501567" lon="13.5720033"><ele>1144.0</ele><time>2026-05-03T07:53:59.286Z</time></trkpt><trkpt lat="42.3500833" lon="13.5719383"><ele>1144.0</ele><time>2026-05-03T07:54:00.286Z</time></trkpt><trkpt lat="42.350015" lon="13.5718817"><ele>1144.0</ele><time>2026-05-03T07:54:01.286Z</time></trkpt><trkpt lat="42.349945" lon="13.57183"><ele>1144.0</ele><time>2026-05-03T07:54:02.286Z</time></trkpt><trkpt lat="42.34989" lon="13.57177"><ele>1144.0</ele><time>2026-05-03T07:54:03.286Z</time></trkpt><trkpt lat="42.3498367" lon="13.5717133"><ele>1144.0</ele><time>2026-05-03T07:54:04.286Z</time></trkpt><trkpt lat="42.34975" lon="13.5715883"><ele>1144.0</ele><time>2026-05-03T07:54:06.286Z</time></trkpt><trkpt lat="42.3496883" lon="13.5715167"><ele>1146.25</ele><time>2026-05-03T07:54:07.286Z</time></trkpt><trkpt lat="42.3496183" lon="13.5714367"><ele>1148.5</ele><time>2026-05-03T07:54:08.286Z</time></trkpt><trkpt lat="42.349535" lon="13.5713717"><ele>1150.75</ele><time>2026-05-03T07:54:09.286Z</time></trkpt><trkpt lat="42.34944" lon="13.57132"><ele>1153.0</ele><time>2026-05-03T07:54:10.286Z</time></trkpt><trkpt lat="42.3517033" lon="13.5735783"><ele>1153.0</ele><time>2026-05-03T07:53:39.286Z</time></trkpt><trkpt lat="42.3516133" lon="13.5735133"><ele>1153.0</ele><time>2026-05-03T07:53:40.286Z</time></trkpt><trkpt lat="42.3515317" lon="13.5734383"><ele>1153.0</ele><time>2026-05-03T07:53:41.286Z</time></trkpt><trkpt lat="42.351445" lon="13.5733567"><ele>1153.0</ele><time>2026-05-03T07:53:42.287Z</time></trkpt><trkpt lat="42.3513583" lon="13.5732683"><ele>1153.0</ele><time>2026-05-03T07:53:43.286Z</time></trkpt><trkpt lat="42.35128" lon="13.5731717"><ele>1152.2</ele><time>2026-05-03T07:53:44.286Z</time></trkpt><trkpt lat="42.3512067" lon="13.573085"><ele>1151.4</ele><time>2026-05-03T07:53:45.287Z</time></trkpt><trkpt lat="42.3511383" lon="13.5729933"><ele>1150.6000000000001</ele><time>2026-05-03T07:53:46.286Z</time></trkpt><trkpt lat="42.3510783" lon="13.5728933"><ele>1149.8</ele><time>2026-05-03T07:53:47.286Z</time></trkpt><trkpt lat="42.3510167" lon="13.5727917"><ele>1149.0</ele><time>2026-05-03T07:53:48.286Z</time></trkpt><trkpt lat="42.3509567" lon="13.5726917"><ele>1149.0</ele><time>2026-05-03T07:53:49.286Z</time></trkpt><trkpt lat="42.35089" lon="13.5726017"><ele>1149.0</ele><time>2026-05-03T07:53:50.286Z</time></trkpt><trkpt lat="42.35081" lon="13.57252"><ele>1149.0</ele><time>2026-05-03T07:53:51.286Z</time></trkpt><trkpt lat="42.3507233" lon="13.5724433"><ele>1149.0</ele><time>2026-05-03T07:53:52.286Z</time></trkpt><trkpt lat="42.35063" lon="13.5723817"><ele>1149.0</ele><time>2026-05-03T07:53:53.286Z</time></trkpt><trkpt lat="42.3505483" lon="13.5723217"><ele>1148.0</ele><time>2026-05-03T07:53:54.287Z</time></trkpt><trkpt lat="42.3504683" lon="13.5722667"><ele>1147.0</ele><time>2026-05-03T07:53:55.286Z</time></trkpt><trkpt lat="42.35039" lon="13.5721983"><ele>1146.0</ele><time>2026-05-03T07:53:56.286Z</time></trkpt><trkpt lat="42.350315" lon="13.572135"><ele>1145.0</ele><time>2026-05-03T07:53:57.286Z</time></trkpt><trkpt lat="42.3502333" lon="13.57207"><ele>1144.0</ele><time>2026-05-03T07:53:58.286Z</time></trkpt><trkpt lat="42.3501567" lon="13.5720033"><ele>1144.0</ele><time>2026-05-03T07:53:59.286Z</time></trkpt><trkpt lat="42.3500833" lon="13.5719383"><ele>1144.0</ele><time>2026-05-03T07:54:00.286Z</time></trkpt><trkpt lat="42.350015" lon="13.5718817"><ele>1144.0</ele><time>2026-05-03T07:54:01.286Z</time></trkpt><trkpt lat="42.349945" lon="13.57183"><ele>1144.0</ele><time>2026-05-03T07:54:02.286Z</time></trkpt><trkpt lat="42.34989" lon="13.57177"><ele>1144.0</ele><time>2026-05-03T07:54:03.286Z</time></trkpt><trkpt lat="42.3498367" lon="13.5717133"><ele>1144.0</ele><time>2026-05-03T07:54:04.286Z</time></trkpt><trkpt lat="42.34975" lon="13.5715883"><ele>1141.2</ele><time>2026-05-03T07:54:06.286Z</time></trkpt><trkpt lat="42.3496883" lon="13.5715167"><ele>1138.4</ele><time>2026-05-03T07:54:07.286Z</time></trkpt><trkpt lat="42.3496183" lon="13.5714367"><ele>1135.6</ele><time>2026-05-03T07:54:08.286Z</time></trkpt><trkpt lat="42.349535" lon="13.5713717"><ele>1132.8</ele><time>2026-05-03T07:54:09.286Z</time></trkpt><trkpt lat="42.34944" lon="13.57132"><ele>1130.0</ele><time>2026-05-03T07:54:10.286Z</time></trkpt><trkpt lat="42.3493483" lon="13.5712783"><ele>1130.0</ele><time>2026-05-03T07:54:11.286Z</time></trkpt><trkpt lat="42.3492583" lon="13.5712517"><ele>1130.0</ele><time>2026-05-03T07:54:12.286Z</time></trkpt><trkpt lat="42.349155" lon="13.5712333"><ele>1130.0</ele><time>2026-05-03T07:54:13.286Z</time></trkpt><trkpt lat="42.3490567" lon="13.57122"><ele>1130.0</ele><time>2026-05-03T07:54:14.286Z</time></trkpt><trkpt lat="42.34896" lon="13.571205"><ele>1130.0</ele><time>2026-05-03T07:54:15.286Z</time></trkpt><trkpt lat="42.3488617" lon="13.57119"><ele>1129.8</ele><time>2026-05-03T07:54:16.286Z</time></trkpt><trkpt lat="42.3487683" lon="13.5711517"><ele>1129.6</ele><time>2026-05-03T07:54:17.286Z</time></trkpt><trkpt lat="42.34868" lon="13.5710983"><ele>1129.4</ele><time>2026-05-03T07:54:18.286Z</time></trkpt><trkpt lat="42.3486" lon="13.5710333"><ele>1129.2</ele><time>2026-05-03T07:54:19.286Z</time></trkpt><trkpt lat="42.34851" lon="13.570975"><ele>1129.0</ele><time>2026-05-03T07:54:20.286Z</time></trkpt><trkpt lat="42.3484233" lon="13.570925"><ele>1129.0</ele><time>2026-05-03T07:54:21.286Z</time></trkpt><trkpt lat="42.3483467" lon="13.5708617"><ele>1129.0</ele><time>2026-05-03T07:54:22.287Z</time></trkpt><trkpt lat="42.348275" lon="13.5708"><ele>1129.0</ele><time>2026-05-03T07:54:23.286Z</time></trkpt><trkpt lat="42.3482083" lon="13.5707267"><ele>1129.0</ele><time>2026-05-03T07:54:24.287Z</time></trkpt><trkpt lat="42.348145" lon="13.57064"><ele>1129.0</ele><time>2026-05-03T07:54:25.286Z</time></trkpt><trkpt lat="42.3480983" lon="13.5705183"><ele>1129.0</ele><time>2026-05-03T07:54:26.286Z</time></trkpt><trkpt lat="42.34805" lon="13.5703983"><ele>1129.0</ele><time>2026-05-03T07:54:27.286Z</time></trkpt><trkpt lat="42.3479917" lon="13.57027"><ele>1129.0</ele><time>2026-05-03T07:54:28.286Z</time></trkpt><trkpt lat="42.3479267" lon="13.5701533"><ele>1129.0</ele><time>2026-05-03T07:54:29.286Z</time></trkpt><trkpt lat="42.3478517" lon="13.5700617"><ele>1129.0</ele><time>2026-05-03T07:54:30.287Z</time></trkpt><trkpt lat="42.3477783" lon="13.5699717"><ele>1127.4</ele><time>2026-05-03T07:54:31.287Z</time></trkpt><trkpt lat="42.3477117" lon="13.5698833"><ele>1125.8000000000002</ele><time>2026-05-03T07:54:32.286Z</time></trkpt><trkpt lat="42.3476283" lon="13.5698117"><ele>1124.1999999999998</ele><time>2026-05-03T07:54:33.286Z</time></trkpt><trkpt lat="42.3475417" lon="13.5697633"><ele>1122.6</ele><time>2026-05-03T07:54:34.286Z</time></trkpt><trkpt lat="42.3474483" lon="13.56973"><ele>1121.0</ele><time>2026-05-03T07:54:35.287Z</time></trkpt><trkpt lat="42.3473633" lon="13.5697017"><ele>1121.0</ele><time>2026-05-03T07:54:36.286Z</time></trkpt><trkpt lat="42.34727" lon="13.5697067"><ele>1121.0</ele><time>2026-05-03T07:54:37.286Z</time></trkpt><trkpt lat="42.3471733" lon="13.5697317"><ele>1121.0</ele><time>2026-05-03T07:54:38.286Z</time></trkpt><trkpt lat="42.3470817" lon="13.5697667"><ele>1121.0</ele><time>2026-05-03T07:54:39.286Z</time></trkpt><trkpt lat="42.3469967" lon="13.56981"><ele>1121.0</ele><time>2026-05-03T07:54:40.286Z</time></trkpt><trkpt lat="42.3469033" lon="13.56985"><ele>1120.6</ele><time>2026-05-03T07:54:41.286Z</time></trkpt><trkpt lat="42.3468017" lon="13.56987"><ele>1120.1999999999998</ele><time>2026-05-03T07:54:42.286Z</time></trkpt><trkpt lat="42.34669" lon="13.5698767"><ele>1119.8000000000002</ele><time>2026-05-03T07:54:43.286Z</time></trkpt><trkpt lat="42.34659" lon="13.569875"><ele>1119.4</ele><time>2026-05-03T07:54:44.286Z</time></trkpt><trkpt lat="42.3464933" lon="13.5698833"><ele>1119.0</ele><time>2026-05-03T07:54:45.286Z</time></trkpt><trkpt lat="42.346405" lon="13.5699067"><ele>1117.8</ele><time>2026-05-03T07:54:46.286Z</time></trkpt><trkpt lat="42.3463267" lon="13.56995"><ele>1116.6000000000001</ele><time>2026-05-03T07:54:47.286Z</time></trkpt><trkpt lat="42.3462383" lon="13.5700183"><ele>1115.4</ele><time>2026-05-03T07:54:48.287Z</time></trkpt><trkpt lat="42.3461517" lon="13.5701083"><ele>1114.2</ele><time>2026-05-03T07:54:49.286Z</time></trkpt><trkpt lat="42.34607" lon="13.5701983"><ele>1113.0</ele><time>2026-05-03T07:54:50.286Z</time></trkpt><trkpt lat="42.3460017" lon="13.5702783"><ele>1113.0</ele><time>2026-05-03T07:54:51.286Z</time></trkpt><trkpt lat="42.345935" lon="13.570355"><ele>1113.0</ele><time>2026-05-03T07:54:52.286Z</time></trkpt><trkpt lat="42.3458733" lon="13.5704567"><ele>1113.0</ele><time>2026-05-03T07:54:53.286Z</time></trkpt><trkpt lat="42.34583" lon="13.5705617"><ele>1113.0</ele><time>2026-05-03T07:54:54.286Z</time></trkpt><trkpt lat="42.3457967" lon="13.570695"><ele>1113.0</ele><time>2026-05-03T07:54:55.286Z</time></trkpt><trkpt lat="42.3457667" lon="13.5708183"><ele>1113.4</ele><time>2026-05-03T07:54:56.286Z</time></trkpt><trkpt lat="42.3457483" lon="13.57093"><ele>1113.8</ele><time>2026-05-03T07:54:57.287Z</time></trkpt><trkpt lat="42.3457083" lon="13.571035"><ele>1114.2</ele><time>2026-05-03T07:54:58.286Z</time></trkpt><trkpt lat="42.3456533" lon="13.5711283"><ele>1114.6</ele><time>2026-05-03T07:54:59.287Z</time></trkpt><trkpt lat="42.345575" lon="13.571215"><ele>1115.0</ele><time>2026-05-03T07:55:00.286Z</time></trkpt><trkpt lat="42.345505" lon="13.5712883"><ele>1113.6</ele><time>2026-05-03T07:55:01.286Z</time></trkpt><trkpt lat="42.3454233" lon="13.5713633"><ele>1112.2</ele><time>2026-05-03T07:55:02.286Z</time></trkpt><trkpt lat="42.3453483" lon="13.571445"><ele>1110.8</ele><time>2026-05-03T07:55:03.286Z</time></trkpt><trkpt lat="42.3452733" lon="13.5715433"><ele>1109.4</ele><time>2026-05-03T07:55:04.286Z</time></trkpt><trkpt lat="42.345215" lon="13.57165"><ele>1108.0</ele><time>2026-05-03T07:55:05.287Z</time></trkpt><trkpt lat="42.345165" lon="13.5717667"><ele>1108.0</ele><time>2026-05-03T07:55:06.286Z</time></trkpt><trkpt lat="42.345125" lon="13.5718883"><ele>1108.0</ele><time>2026-05-03T07:55:07.287Z</time></trkpt><trkpt lat="42.3450917" lon="13.572015"><ele>1108.0</ele><time>2026-05-03T07:55:08.287Z</time></trkpt><trkpt lat="42.3450483" lon="13.57214"><ele>1108.0</ele><time>2026-05-03T07:55:09.286Z</time></trkpt><trkpt lat="42.3449933" lon="13.572255"><ele>1108.0</ele><time>2026-05-03T07:55:10.286Z</time></trkpt><trkpt lat="42.3449383" lon="13.57237"><ele>1108.0</ele><time>2026-05-03T07:55:11.286Z</time></trkpt><trkpt lat="42.3448733" lon="13.572485"><ele>1108.0</ele><time>2026-05-03T07:55:12.286Z</time></trkpt><trkpt lat="42.3447917" lon="13.5726"><ele>1108.0</ele><time>2026-05-03T07:55:13.286Z</time></trkpt><trkpt lat="42.3447067" lon="13.57271"><ele>1108.0</ele><time>2026-05-03T07:55:14.286Z</time></trkpt><trkpt lat="42.3446267" lon="13.5728067"><ele>1107.6666666666665</ele><time>2026-05-03T07:55:15.287Z</time></trkpt><trkpt lat="42.3445633" lon="13.5728883"><ele>1107.3333333333333</ele><time>2026-05-03T07:55:16.286Z</time></trkpt><trkpt lat="42.344495" lon="13.5729733"><ele>1107.0</ele><time>2026-05-03T07:55:17.286Z</time></trkpt><trkpt lat="42.3444267" lon="13.5730483"><ele>1106.6666666666667</ele><time>2026-05-03T07:55:18.286Z</time></trkpt><trkpt lat="42.3443667" lon="13.573125"><ele>1106.3333333333335</ele><time>2026-05-03T07:55:19.286Z</time></trkpt><trkpt lat="42.3442967" lon="13.573205"><ele>1106.0</ele><time>2026-05-03T07:55:20.286Z</time></trkpt><trkpt lat="42.3442333" lon="13.5732783"><ele>1106.0</ele><time>2026-05-03T07:55:21.286Z</time></trkpt><trkpt lat="42.344175" lon="13.5733517"><ele>1106.0</ele><time>2026-05-03T07:55:22.287Z</time></trkpt><trkpt lat="42.3441167" lon="13.573425"><ele>1106.0</ele><time>2026-05-03T07:55:23.286Z</time></trkpt><trkpt lat="42.34405" lon="13.5734967"><ele>1106.0</ele><time>2026-05-03T07:55:24.286Z</time></trkpt><trkpt lat="42.34397" lon="13.573585"><ele>1106.0</ele><time>2026-05-03T07:55:25.286Z</time></trkpt><trkpt lat="42.3438917" lon="13.5736667"><ele>1106.0</ele><time>2026-05-03T07:55:26.286Z</time></trkpt><trkpt lat="42.3438283" lon="13.5737517"><ele>1105.1666666666667</ele><time>2026-05-03T07:55:27.286Z</time></trkpt><trkpt lat="42.343765" lon="13.5738317"><ele>1104.3333333333335</ele><time>2026-05-03T07:55:28.286Z</time></trkpt><trkpt lat="42.3437117" lon="13.573905"><ele>1103.5</ele><time>2026-05-03T07:55:29.286Z</time></trkpt><trkpt lat="42.34367" lon="13.573975"><ele>1102.6666666666667</ele><time>2026-05-03T07:55:30.286Z</time></trkpt><trkpt lat="42.3436217" lon="13.5740467"><ele>1101.8333333333333</ele><time>2026-05-03T07:55:31.286Z</time></trkpt><trkpt lat="42.3435667" lon="13.5741383"><ele>1101.0</ele><time>2026-05-03T07:55:32.286Z</time></trkpt><trkpt lat="42.3435067" lon="13.5742467"><ele>1101.0</ele><time>2026-05-03T07:55:33.286Z</time></trkpt><trkpt lat="42.3434417" lon="13.5743583"><ele>1101.0</ele><time>2026-05-03T07:55:34.286Z</time></trkpt><trkpt lat="42.3433667" lon="13.574475"><ele>1101.0</ele><time>2026-05-03T07:55:35.286Z</time></trkpt><trkpt lat="42.3432867" lon="13.57459"><ele>1101.0</ele><time>2026-05-03T07:55:36.286Z</time></trkpt><trkpt lat="42.3431917" lon="13.5746983"><ele>1101.25</ele><time>2026-05-03T07:55:37.286Z</time></trkpt><trkpt lat="42.3430983" lon="13.5747967"><ele>1101.5</ele><time>2026-05-03T07:55:38.286Z</time></trkpt><trkpt lat="42.3430067" lon="13.5748783"><ele>1101.75</ele><time>2026-05-03T07:55:39.286Z</time></trkpt><trkpt lat="42.3429133" lon="13.5749683"><ele>1102.0</ele><time>2026-05-03T07:55:40.286Z</time></trkpt><trkpt lat="42.3428217" lon="13.5750567"><ele>1102.0</ele><time>2026-05-03T07:55:41.286Z</time></trkpt><trkpt lat="42.3427567" lon="13.5751383"><ele>1102.0</ele><time>2026-05-03T07:55:42.287Z</time></trkpt><trkpt lat="42.342675" lon="13.5752433"><ele>1102.0</ele><time>2026-05-03T07:55:43.286Z</time></trkpt><trkpt lat="42.3426083" lon="13.5753517"><ele>1102.0</ele><time>2026-05-03T07:55:44.286Z</time></trkpt><trkpt lat="42.3425233" lon="13.5754783"><ele>1102.0</ele><time>2026-05-03T07:55:45.286Z</time></trkpt><trkpt lat="42.3424383" lon="13.5756067"><ele>1102.25</ele><time>2026-05-03T07:55:46.286Z</time></trkpt><trkpt lat="42.3423517" lon="13.5757283"><ele>1102.5</ele><time>2026-05-03T07:55:47.286Z</time></trkpt><trkpt lat="42.3422667" lon="13.5758517"><ele>1102.75</ele><time>2026-05-03T07:55:48.286Z</time></trkpt><trkpt lat="42.3421883" lon="13.5759733"><ele>1103.0</ele><time>2026-05-03T07:55:49.287Z</time></trkpt><trkpt lat="42.3421" lon="13.5761033"><ele>1101.75</ele><time>2026-05-03T07:55:50.286Z</time></trkpt><trkpt lat="42.342005" lon="13.57624"><ele>1100.5</ele><time>2026-05-03T07:55:51.286Z</time></trkpt><trkpt lat="42.3419067" lon="13.5763883"><ele>1099.25</ele><time>2026-05-03T07:55:52.286Z</time></trkpt><trkpt lat="42.3418017" lon="13.576535"><ele>1098.0</ele><time>2026-05-03T07:55:53.286Z</time></trkpt><trkpt lat="42.3417017" lon="13.5766883"><ele>1098.0</ele><time>2026-05-03T07:55:54.286Z</time></trkpt><trkpt lat="42.3416067" lon="13.57683"><ele>1098.0</ele><time>2026-05-03T07:55:55.286Z</time></trkpt><trkpt lat="42.3415067" lon="13.5769783"><ele>1098.0</ele><time>2026-05-03T07:55:56.286Z</time></trkpt><trkpt lat="42.3414183" lon="13.5771083"><ele>1098.0</ele><time>2026-05-03T07:55:57.286Z</time></trkpt><trkpt lat="42.34133" lon="13.5772333"><ele>1097.5</ele><time>2026-05-03T07:55:58.286Z</time></trkpt><trkpt lat="42.3412383" lon="13.57736"><ele>1097.0</ele><time>2026-05-03T07:55:59.286Z</time></trkpt><trkpt lat="42.34116" lon="13.57748"><ele>1096.5</ele><time>2026-05-03T07:56:00.286Z</time></trkpt><trkpt lat="42.341085" lon="13.577585"><ele>1096.0</ele><time>2026-05-03T07:56:01.286Z</time></trkpt><trkpt lat="42.341005" lon="13.577705"><ele>1096.0</ele><time>2026-05-03T07:56:02.286Z</time></trkpt><trkpt lat="42.34092" lon="13.5778217"><ele>1096.0</ele><time>2026-05-03T07:56:03.286Z</time></trkpt><trkpt lat="42.340835" lon="13.5779383"><ele>1096.0</ele><time>2026-05-03T07:56:04.286Z</time></trkpt><trkpt lat="42.3407533" lon="13.5780483"><ele>1096.0</ele><time>2026-05-03T07:56:05.286Z</time></trkpt><trkpt lat="42.340665" lon="13.5781683"><ele>1097.0</ele><time>2026-05-03T07:56:06.286Z</time></trkpt><trkpt lat="42.3405733" lon="13.5782967"><ele>1098.0</ele><time>2026-05-03T07:56:07.286Z</time></trkpt><trkpt lat="42.3404767" lon="13.5784267"><ele>1099.0</ele><time>2026-05-03T07:56:08.286Z</time></trkpt><trkpt lat="42.3403833" lon="13.5785517"><ele>1100.0</ele><time>2026-05-03T07:56:09.287Z</time></trkpt><trkpt lat="42.34029" lon="13.57867"><ele>1098.0</ele><time>2026-05-03T07:56:10.286Z</time></trkpt><trkpt lat="42.3401933" lon="13.5787983"><ele>1096.0</ele><time>2026-05-03T07:56:11.286Z</time></trkpt><trkpt lat="42.3401033" lon="13.5789267"><ele>1094.0</ele><time>2026-05-03T07:56:12.286Z</time></trkpt><trkpt lat="42.3400167" lon="13.5790483"><ele>1092.0</ele><time>2026-05-03T07:56:13.286Z</time></trkpt><trkpt lat="42.3399233" lon="13.5791767"><ele>1092.0</ele><time>2026-05-03T07:56:14.286Z</time></trkpt><trkpt lat="42.3398383" lon="13.5792983"><ele>1092.0</ele><time>2026-05-03T07:56:15.286Z</time></trkpt><trkpt lat="42.33976" lon="13.579435"><ele>1092.0</ele><time>2026-05-03T07:56:16.286Z</time></trkpt><trkpt lat="42.3396767" lon="13.5795683"><ele>1092.0</ele><time>2026-05-03T07:56:17.286Z</time></trkpt><trkpt lat="42.3395883" lon="13.579705"><ele>1090.75</ele><time>2026-05-03T07:56:18.286Z</time></trkpt><trkpt lat="42.3395033" lon="13.579845"><ele>1089.5</ele><time>2026-05-03T07:56:19.287Z</time></trkpt><trkpt lat="42.3394233" lon="13.5799767"><ele>1088.25</ele><time>2026-05-03T07:56:20.286Z</time></trkpt><trkpt lat="42.339345" lon="13.5800967"><ele>1087.0</ele><time>2026-05-03T07:56:21.286Z</time></trkpt><trkpt lat="42.339255" lon="13.5802083"><ele>1087.0</ele><time>2026-05-03T07:56:22.286Z</time></trkpt><trkpt lat="42.3391633" lon="13.58031"><ele>1087.0</ele><time>2026-05-03T07:56:23.286Z</time></trkpt><trkpt lat="42.3390717" lon="13.5804067"><ele>1087.0</ele><time>2026-05-03T07:56:24.286Z</time></trkpt><trkpt lat="42.3389767" lon="13.58049"><ele>1087.0</ele><time>2026-05-03T07:56:25.286Z</time></trkpt><trkpt lat="42.33889" lon="13.58057"><ele>1087.3333333333333</ele><time>2026-05-03T07:56:26.286Z</time></trkpt><trkpt lat="42.3388133" lon="13.5806483"><ele>1087.6666666666665</ele><time>2026-05-03T07:56:27.286Z</time></trkpt><trkpt lat="42.33873" lon="13.5806983"><ele>1088.0</ele><time>2026-05-03T07:56:28.286Z</time></trkpt><trkpt lat="42.33865" lon="13.5807483"><ele>1088.3333333333333</ele><time>2026-05-03T07:56:29.286Z</time></trkpt><trkpt lat="42.33857" lon="13.5807683"><ele>1088.6666666666667</ele><time>2026-05-03T07:56:30.286Z</time></trkpt><trkpt lat="42.338495" lon="13.5807583"><ele>1089.0</ele><time>2026-05-03T07:56:31.286Z</time></trkpt><trkpt lat="42.3384267" lon="13.580725"><ele>1089.0</ele><time>2026-05-03T07:56:32.286Z</time></trkpt><trkpt lat="42.3383383" lon="13.5806533"><ele>1089.0</ele><time>2026-05-03T07:56:34.286Z</time></trkpt><trkpt lat="42.3382767" lon="13.5806133"><ele>1089.0</ele><time>2026-05-03T07:56:36.286Z</time></trkpt><trkpt lat="42.3382167" lon="13.5807"><ele>1089.0</ele><time>2026-05-03T07:56:39.286Z</time></trkpt><trkpt lat="42.33817" lon="13.5808317"><ele>1089.0</ele><time>2026-05-03T07:56:41.286Z</time></trkpt><trkpt lat="42.3381" lon="13.5809533"><ele>1089.0</ele><time>2026-05-03T07:56:43.286Z</time></trkpt><trkpt lat="42.338055" lon="13.581045"><ele>1089.0</ele><time>2026-05-03T07:56:45.286Z</time></trkpt><trkpt lat="42.338005" lon="13.5811317"><ele>1089.0</ele><time>2026-05-03T07:56:47.287Z</time></trkpt><trkpt lat="42.3379633" lon="13.581215"><ele>1089.0</ele><time>2026-05-03T07:56:49.286Z</time></trkpt><trkpt lat="42.337895" lon="13.5812783"><ele>1089.0</ele><time>2026-05-03T07:56:51.286Z</time></trkpt><trkpt lat="42.3378483" lon="13.5813383"><ele>1089.0</ele><time>2026-05-03T07:56:53.286Z</time></trkpt><trkpt lat="42.337935" lon="13.581305"><ele>1089.0</ele><time>2026-05-03T07:56:59.286Z</time></trkpt><trkpt lat="42.33805" lon="13.58104"><ele>1089.0</ele><time>2026-05-03T07:57:04.286Z</time></trkpt><trkpt lat="42.3381167" lon="13.580925"><ele>1089.0</ele><time>2026-05-03T07:57:06.286Z</time></trkpt><trkpt lat="42.3381833" lon="13.5808167"><ele>1089.0</ele><time>2026-05-03T07:57:08.286Z</time></trkpt><trkpt lat="42.3382067" lon="13.5807367"><ele>1089.0</ele><time>2026-05-03T07:57:10.286Z</time></trkpt><trkpt lat="42.3382333" lon="13.5806383"><ele>1089.0</ele><time>2026-05-03T07:57:12.286Z</time></trkpt><trkpt lat="42.3382383" lon="13.5805417"><ele>1089.0</ele><time>2026-05-03T07:57:14.286Z</time></trkpt><trkpt lat="42.338175" lon="13.58044"><ele>1089.0</ele><time>2026-05-03T07:57:16.286Z</time></trkpt><trkpt lat="42.3381133" lon="13.5803533"><ele>1089.0</ele><time>2026-05-03T07:57:17.287Z</time></trkpt><trkpt lat="42.3380433" lon="13.5802467"><ele>1089.0</ele><time>2026-05-03T07:57:18.286Z</time></trkpt><trkpt lat="42.3379867" lon="13.5801383"><ele>1089.8333333333333</ele><time>2026-05-03T07:57:19.286Z</time></trkpt><trkpt lat="42.3379417" lon="13.5800533"><ele>1090.6666666666667</ele><time>2026-05-03T07:57:20.286Z</time></trkpt><trkpt lat="42.3378933" lon="13.5799783"><ele>1091.5</ele><time>2026-05-03T07:57:21.286Z</time></trkpt><trkpt lat="42.3378117" lon="13.5798917"><ele>1092.3333333333335</ele><time>2026-05-03T07:57:23.286Z</time></trkpt><trkpt lat="42.3377717" lon="13.5798217"><ele>1093.1666666666667</ele><time>2026-05-03T07:57:24.287Z</time></trkpt><trkpt lat="42.337715" lon="13.579725"><ele>1094.0</ele><time>2026-05-03T07:57:25.286Z</time></trkpt><trkpt lat="42.3376433" lon="13.5796117"><ele>1092.0</ele><time>2026-05-03T07:57:26.286Z</time></trkpt><trkpt lat="42.3375283" lon="13.5794983"><ele>1090.0</ele><time>2026-05-03T07:57:27.286Z</time></trkpt><trkpt lat="42.3373967" lon="13.57942"><ele>1088.0</ele><time>2026-05-03T07:57:28.286Z</time></trkpt><trkpt lat="42.33727" lon="13.5793767"><ele>1086.0</ele><time>2026-05-03T07:57:29.286Z</time></trkpt><trkpt lat="42.3371183" lon="13.57938"><ele>1085.3333333333333</ele><time>2026-05-03T07:57:30.286Z</time></trkpt><trkpt lat="42.3369367" lon="13.57942"><ele>1084.6666666666665</ele><time>2026-05-03T07:57:31.286Z</time></trkpt><trkpt lat="42.3367367" lon="13.579475"><ele>1084.0</ele><time>2026-05-03T07:57:32.286Z</time></trkpt><trkpt lat="42.3365183" lon="13.579505"><ele>1085.5</ele><time>2026-05-03T07:57:33.286Z</time></trkpt><trkpt lat="42.3362867" lon="13.5795017"><ele>1087.0</ele><time>2026-05-03T07:57:34.286Z</time></trkpt><trkpt lat="42.336045" lon="13.5795133"><ele>1086.6666666666665</ele><time>2026-05-03T07:57:35.286Z</time></trkpt><trkpt lat="42.3358233" lon="13.5795317"><ele>1086.3333333333333</ele><time>2026-05-03T07:57:36.286Z</time></trkpt><trkpt lat="42.3356085" lon="13.5795722"><ele>1086.0</ele><time>2026-05-03T07:57:37.286Z</time></trkpt><trkpt lat="42.3354279" lon="13.5796076"><ele>1086.0</ele><time>2026-05-03T07:57:38.286Z</time></trkpt><trkpt lat="42.335258" lon="13.5796185"><ele>1086.0</ele><time>2026-05-03T07:57:39.286Z</time></trkpt><trkpt lat="42.3350909" lon="13.5795999"><ele>1086.0</ele><time>2026-05-03T07:57:40.286Z</time></trkpt><trkpt lat="42.3349303" lon="13.5795615"><ele>1082.6666666666667</ele><time>2026-05-03T07:57:41.286Z</time></trkpt><trkpt lat="42.334776" lon="13.5795153"><ele>1079.3333333333335</ele><time>2026-05-03T07:57:42.286Z</time></trkpt><trkpt lat="42.3346258" lon="13.5794616"><ele>1076.0</ele><time>2026-05-03T07:57:43.286Z</time></trkpt><trkpt lat="42.3344764" lon="13.5794129"><ele>1073.0</ele><time>2026-05-03T07:57:44.286Z</time></trkpt><trkpt lat="42.3343219" lon="13.5793673"><ele>1070.0</ele><time>2026-05-03T07:57:45.286Z</time></trkpt><trkpt lat="42.3341633" lon="13.5793253"><ele>1067.0</ele><time>2026-05-03T07:57:46.286Z</time></trkpt><trkpt lat="42.3340044" lon="13.5793002"><ele>1063.25</ele><time>2026-05-03T07:57:47.286Z</time></trkpt><trkpt lat="42.3338524" lon="13.5792875"><ele>1059.5</ele><time>2026-05-03T07:57:48.286Z</time></trkpt><trkpt lat="42.3337144" lon="13.579272"><ele>1055.75</ele><time>2026-05-03T07:57:49.286Z</time></trkpt><trkpt lat="42.3335922" lon="13.5792562"><ele>1052.0</ele><time>2026-05-03T07:57:50.286Z</time></trkpt><trkpt lat="42.3334802" lon="13.5792951"><ele>1052.0</ele><time>2026-05-03T07:57:51.287Z</time></trkpt><trkpt lat="42.3333683" lon="13.5793851"><ele>1052.0</ele><time>2026-05-03T07:57:52.287Z</time></trkpt><trkpt lat="42.333262" lon="13.5795063"><ele>1052.0</ele><time>2026-05-03T07:57:53.286Z</time></trkpt><trkpt lat="42.3331588" lon="13.5796568"><ele>1052.0</ele><time>2026-05-03T07:57:54.286Z</time></trkpt><trkpt lat="42.3330453" lon="13.5797994"><ele>1047.6666666666667</ele><time>2026-05-03T07:57:55.286Z</time></trkpt><trkpt lat="42.3329119" lon="13.5798985"><ele>1043.3333333333333</ele><time>2026-05-03T07:57:56.286Z</time></trkpt><trkpt lat="42.3327657" lon="13.5799814"><ele>1039.0</ele><time>2026-05-03T07:57:57.286Z</time></trkpt><trkpt lat="42.3326105" lon="13.5800582"><ele>1039.0</ele><time>2026-05-03T07:57:58.287Z</time></trkpt><trkpt lat="42.3324621" lon="13.5801302"><ele>1039.0</ele><time>2026-05-03T07:57:59.286Z</time></trkpt><trkpt lat="42.3323323" lon="13.5801933"><ele>1039.0</ele><time>2026-05-03T07:58:00.286Z</time></trkpt><trkpt lat="42.3322238" lon="13.5802462"><ele>1039.0</ele><time>2026-05-03T07:58:01.286Z</time></trkpt><trkpt lat="42.3321343" lon="13.5802936"><ele>1037.0</ele><time>2026-05-03T07:58:02.286Z</time></trkpt><trkpt lat="42.3320708" lon="13.580364"><ele>1035.0</ele><time>2026-05-03T07:58:03.286Z</time></trkpt><trkpt lat="42.3320159" lon="13.5804841"><ele>1033.0</ele><time>2026-05-03T07:58:04.286Z</time></trkpt><trkpt lat="42.3319855" lon="13.5806367"><ele>1031.0</ele><time>2026-05-03T07:58:05.286Z</time></trkpt><trkpt lat="42.331984" lon="13.5808148"><ele>1029.0</ele><time>2026-05-03T07:58:06.287Z</time></trkpt><trkpt lat="42.3320027" lon="13.5810038"><ele>1029.6666666666667</ele><time>2026-05-03T07:58:07.286Z</time></trkpt><trkpt lat="42.3320424" lon="13.5812173"><ele>1030.3333333333335</ele><time>2026-05-03T07:58:08.286Z</time></trkpt><trkpt lat="42.3320861" lon="13.5814655"><ele>1031.0</ele><time>2026-05-03T07:58:09.286Z</time></trkpt><trkpt lat="42.3320897" lon="13.5817127"><ele>1031.0</ele><time>2026-05-03T07:58:10.286Z</time></trkpt><trkpt lat="42.3320801" lon="13.5819512"><ele>1031.0</ele><time>2026-05-03T07:58:11.286Z</time></trkpt><trkpt lat="42.3320757" lon="13.5821793"><ele>1031.0</ele><time>2026-05-03T07:58:12.286Z</time></trkpt><trkpt lat="42.3321012" lon="13.5824114"><ele>1029.3333333333335</ele><time>2026-05-03T07:58:13.286Z</time></trkpt><trkpt lat="42.332152" lon="13.5826589"><ele>1027.6666666666667</ele><time>2026-05-03T07:58:14.286Z</time></trkpt><trkpt lat="42.3322195" lon="13.5829157"><ele>1026.0</ele><time>2026-05-03T07:58:15.286Z</time></trkpt><trkpt lat="42.3322758" lon="13.5831552"><ele>1027.3333333333333</ele><time>2026-05-03T07:58:16.286Z</time></trkpt><trkpt lat="42.3323297" lon="13.5833777"><ele>1028.6666666666665</ele><time>2026-05-03T07:58:17.286Z</time></trkpt><trkpt lat="42.3323789" lon="13.5835979"><ele>1030.0</ele><time>2026-05-03T07:58:18.286Z</time></trkpt><trkpt lat="42.3324212" lon="13.5838036"><ele>1030.0</ele><time>2026-05-03T07:58:19.286Z</time></trkpt><trkpt lat="42.3324607" lon="13.5840032"><ele>1030.0</ele><time>2026-05-03T07:58:20.286Z</time></trkpt><trkpt lat="42.3324867" lon="13.5842003"><ele>1030.0</ele><time>2026-05-03T07:58:21.286Z</time></trkpt><trkpt lat="42.332498" lon="13.5843979"><ele>1030.0</ele><time>2026-05-03T07:58:22.286Z</time></trkpt><trkpt lat="42.3324975" lon="13.5846022"><ele>1029.0</ele><time>2026-05-03T07:58:23.286Z</time></trkpt><trkpt lat="42.332496" lon="13.5848012"><ele>1028.0</ele><time>2026-05-03T07:58:24.286Z</time></trkpt><trkpt lat="42.3324954" lon="13.5849962"><ele>1027.0</ele><time>2026-05-03T07:58:25.286Z</time></trkpt><trkpt lat="42.3324892" lon="13.585184"><ele>1026.0</ele><time>2026-05-03T07:58:26.287Z</time></trkpt><trkpt lat="42.3324887" lon="13.5853623"><ele>1025.0</ele><time>2026-05-03T07:58:27.287Z</time></trkpt><trkpt lat="42.3324825" lon="13.5855294"><ele>1024.0</ele><time>2026-05-03T07:58:28.287Z</time></trkpt><trkpt lat="42.3324453" lon="13.5856891"><ele>1023.0</ele><time>2026-05-03T07:58:29.287Z</time></trkpt><trkpt lat="42.332391" lon="13.5858398"><ele>1022.0</ele><time>2026-05-03T07:58:30.287Z</time></trkpt><trkpt lat="42.3323237" lon="13.5859971"><ele>1022.0</ele><time>2026-05-03T07:58:31.287Z</time></trkpt><trkpt lat="42.332242" lon="13.5861643"><ele>1022.0</ele><time>2026-05-03T07:58:32.287Z</time></trkpt><trkpt lat="42.3321574" lon="13.5863438"><ele>1022.0</ele><time>2026-05-03T07:58:33.287Z</time></trkpt><trkpt lat="42.3320783" lon="13.5865303"><ele>1018.6666666666667</ele><time>2026-05-03T07:58:34.287Z</time></trkpt><trkpt lat="42.3319974" lon="13.5867102"><ele>1015.3333333333333</ele><time>2026-05-03T07:58:35.287Z</time></trkpt><trkpt lat="42.3319138" lon="13.58688"><ele>1012.0</ele><time>2026-05-03T07:58:36.287Z</time></trkpt><trkpt lat="42.3318353" lon="13.5870496"><ele>1012.0</ele><time>2026-05-03T07:58:37.287Z</time></trkpt><trkpt lat="42.3317604" lon="13.5872108"><ele>1012.0</ele><time>2026-05-03T07:58:38.287Z</time></trkpt><trkpt lat="42.3316855" lon="13.5873647"><ele>1012.0</ele><time>2026-05-03T07:58:39.287Z</time></trkpt><trkpt lat="42.3316139" lon="13.5875197"><ele>1012.0</ele><time>2026-05-03T07:58:40.287Z</time></trkpt><trkpt lat="42.3315478" lon="13.5876739"><ele>1012.0</ele><time>2026-05-03T07:58:41.287Z</time></trkpt><trkpt lat="42.3314883" lon="13.587817"><ele>1012.0</ele><time>2026-05-03T07:58:42.287Z</time></trkpt><trkpt lat="42.3314186" lon="13.5879609"><ele>1012.0</ele><time>2026-05-03T07:58:43.287Z</time></trkpt><trkpt lat="42.3313511" lon="13.5881236"><ele>1012.0</ele><time>2026-05-03T07:58:44.287Z</time></trkpt><trkpt lat="42.3312792" lon="13.5882999"><ele>1007.6666666666666</ele><time>2026-05-03T07:58:45.287Z</time></trkpt><trkpt lat="42.3312085" lon="13.5884886"><ele>1003.3333333333333</ele><time>2026-05-03T07:58:46.287Z</time></trkpt><trkpt lat="42.3311468" lon="13.5886801"><ele>999.0</ele><time>2026-05-03T07:58:47.287Z</time></trkpt><trkpt lat="42.3310951" lon="13.5888711"><ele>999.0</ele><time>2026-05-03T07:58:48.287Z</time></trkpt><trkpt lat="42.331049" lon="13.5890585"><ele>999.0</ele><time>2026-05-03T07:58:49.287Z</time></trkpt><trkpt lat="42.3310015" lon="13.5892484"><ele>999.0</ele><time>2026-05-03T07:58:50.287Z</time></trkpt><trkpt lat="42.3309512" lon="13.5894257"><ele>999.0</ele><time>2026-05-03T07:58:51.287Z</time></trkpt><trkpt lat="42.3308837" lon="13.5895733"><ele>999.25</ele><time>2026-05-03T07:58:52.287Z</time></trkpt><trkpt lat="42.330801" lon="13.5897156"><ele>999.5</ele><time>2026-05-03T07:58:53.288Z</time></trkpt><trkpt lat="42.3307049" lon="13.5898274"><ele>999.75</ele><time>2026-05-03T07:58:54.287Z</time></trkpt><trkpt lat="42.3306038" lon="13.5899222"><ele>1000.0</ele><time>2026-05-03T07:58:55.287Z</time></trkpt><trkpt lat="42.330489" lon="13.5899924"><ele>998.0</ele><time>2026-05-03T07:58:56.287Z</time></trkpt><trkpt lat="42.3303643" lon="13.5900506"><ele>996.0</ele><time>2026-05-03T07:58:57.287Z</time></trkpt><trkpt lat="42.3302403" lon="13.5901015"><ele>994.0</ele><time>2026-05-03T07:58:58.287Z</time></trkpt><trkpt lat="42.3301269" lon="13.5901346"><ele>992.0</ele><time>2026-05-03T07:58:59.288Z</time></trkpt><trkpt lat="42.3300296" lon="13.5901548"><ele>992.0000000000001</ele><time>2026-05-03T07:59:00.287Z</time></trkpt><trkpt lat="42.3299633" lon="13.5901819"><ele>992.0</ele><time>2026-05-03T07:59:01.287Z</time></trkpt><trkpt lat="42.3298948" lon="13.5902396"><ele>992.0</ele><time>2026-05-03T07:59:02.287Z</time></trkpt><trkpt lat="42.3298365" lon="13.5903117"><ele>992.0</ele><time>2026-05-03T07:59:03.287Z</time></trkpt><trkpt lat="42.3297791" lon="13.5903853"><ele>992.0000000000001</ele><time>2026-05-03T07:59:04.287Z</time></trkpt><trkpt lat="42.3297291" lon="13.5904471"><ele>992.0</ele><time>2026-05-03T07:59:05.287Z</time></trkpt><trkpt lat="42.3296827" lon="13.5905456"><ele>991.0</ele><time>2026-05-03T07:59:07.287Z</time></trkpt><trkpt lat="42.3297133" lon="13.590635"><ele>990.0</ele><time>2026-05-03T07:59:09.287Z</time></trkpt><trkpt lat="42.32982" lon="13.5907283"><ele>989.0</ele><time>2026-05-03T07:59:11.287Z</time></trkpt><trkpt lat="42.3299233" lon="13.59077"><ele>988.0</ele><time>2026-05-03T07:59:12.287Z</time></trkpt><trkpt lat="42.3300383" lon="13.590835"><ele>987.0</ele><time>2026-05-03T07:59:13.287Z</time></trkpt><trkpt lat="42.3301567" lon="13.5909133"><ele>989.5</ele><time>2026-05-03T07:59:14.287Z</time></trkpt><trkpt lat="42.3302517" lon="13.59099"><ele>992.0</ele><time>2026-05-03T07:59:15.287Z</time></trkpt><trkpt lat="42.3303383" lon="13.591075"><ele>994.5</ele><time>2026-05-03T07:59:16.287Z</time></trkpt><trkpt lat="42.330435" lon="13.5911733"><ele>997.0</ele><time>2026-05-03T07:59:17.287Z</time></trkpt><trkpt lat="42.3305283" lon="13.59128"><ele>1001.0</ele><time>2026-05-03T07:59:18.288Z</time></trkpt><trkpt lat="42.33063" lon="13.5913833"><ele>1005.0</ele><time>2026-05-03T07:59:19.287Z</time></trkpt><trkpt lat="42.3307333" lon="13.5914933"><ele>1009.0</ele><time>2026-05-03T07:59:20.287Z</time></trkpt><trkpt lat="42.33084" lon="13.59159"><ele>1013.0</ele><time>2026-05-03T07:59:21.287Z</time></trkpt><trkpt lat="42.3309517" lon="13.5917"><ele>1013.0</ele><time>2026-05-03T07:59:22.287Z</time></trkpt><trkpt lat="42.3310683" lon="13.5918267"><ele>1013.0</ele><time>2026-05-03T07:59:23.288Z</time></trkpt><trkpt lat="42.3311783" lon="13.5919767"><ele>1013.0</ele><time>2026-05-03T07:59:24.287Z</time></trkpt><trkpt lat="42.3312833" lon="13.5921367"><ele>1015.0</ele><time>2026-05-03T07:59:25.287Z</time></trkpt><trkpt lat="42.3313733" lon="13.5923283"><ele>1017.0</ele><time>2026-05-03T07:59:26.287Z</time></trkpt><trkpt lat="42.3314717" lon="13.5925317"><ele>1019.0</ele><time>2026-05-03T07:59:27.287Z</time></trkpt><trkpt lat="42.3315783" lon="13.59274"><ele>1022.5</ele><time>2026-05-03T07:59:28.287Z</time></trkpt><trkpt lat="42.3316767" lon="13.5929233"><ele>1026.0</ele><time>2026-05-03T07:59:29.287Z</time></trkpt><trkpt lat="42.3317667" lon="13.593085"><ele>1029.5</ele><time>2026-05-03T07:59:30.287Z</time></trkpt><trkpt lat="42.3318383" lon="13.593225"><ele>1033.0</ele><time>2026-05-03T07:59:31.287Z</time></trkpt><trkpt lat="42.33189" lon="13.59335"><ele>1033.0</ele><time>2026-05-03T07:59:32.287Z</time></trkpt><trkpt lat="42.3319483" lon="13.59345"><ele>1033.0</ele><time>2026-05-03T07:59:33.288Z</time></trkpt><trkpt lat="42.3319967" lon="13.5935517"><ele>1033.0</ele><time>2026-05-03T07:59:34.287Z</time></trkpt><trkpt lat="42.3320433" lon="13.593635"><ele>1033.0</ele><time>2026-05-03T07:59:35.287Z</time></trkpt><trkpt lat="42.3321133" lon="13.593765"><ele>1033.0</ele><time>2026-05-03T07:59:37.287Z</time></trkpt><trkpt lat="42.3321333" lon="13.5938817"><ele>1034.8</ele><time>2026-05-03T07:59:39.287Z</time></trkpt><trkpt lat="42.3320667" lon="13.59397"><ele>1036.6</ele><time>2026-05-03T07:59:41.287Z</time></trkpt><trkpt lat="42.3319967" lon="13.5940967"><ele>1038.4</ele><time>2026-05-03T07:59:43.287Z</time></trkpt><trkpt lat="42.3319433" lon="13.5942417"><ele>1040.2</ele><time>2026-05-03T07:59:45.287Z</time></trkpt><trkpt lat="42.3319017" lon="13.5943167"><ele>1042.0</ele><time>2026-05-03T07:59:46.287Z</time></trkpt><trkpt lat="42.3318533" lon="13.594395"><ele>1042.0</ele><time>2026-05-03T07:59:47.287Z</time></trkpt><trkpt lat="42.3318083" lon="13.5944733"><ele>1042.0</ele><time>2026-05-03T07:59:48.287Z</time></trkpt><trkpt lat="42.3317583" lon="13.5945533"><ele>1042.0</ele><time>2026-05-03T07:59:49.287Z</time></trkpt><trkpt lat="42.3317167" lon="13.594625"><ele>1042.0</ele><time>2026-05-03T07:59:50.287Z</time></trkpt><trkpt lat="42.3316733" lon="13.5946983"><ele>1042.0</ele><time>2026-05-03T07:59:51.287Z</time></trkpt><trkpt lat="42.3316467" lon="13.5947783"><ele>1042.0</ele><time>2026-05-03T07:59:52.287Z</time></trkpt><trkpt lat="42.3316667" lon="13.59488"><ele>1042.0</ele><time>2026-05-03T07:59:54.287Z</time></trkpt><trkpt lat="42.3317283" lon="13.5949233"><ele>1041.2</ele><time>2026-05-03T07:59:56.287Z</time></trkpt><trkpt lat="42.33182" lon="13.5949483"><ele>1040.4</ele><time>2026-05-03T07:59:58.287Z</time></trkpt><trkpt lat="42.33188" lon="13.5950817"><ele>1039.6</ele><time>2026-05-03T08:00:00.287Z</time></trkpt><trkpt lat="42.3319033" lon="13.5951883"><ele>1038.8</ele><time>2026-05-03T08:00:01.287Z</time></trkpt><trkpt lat="42.3319167" lon="13.5953083"><ele>1038.0</ele><time>2026-05-03T08:00:02.287Z</time></trkpt><trkpt lat="42.33192" lon="13.5954167"><ele>1037.5</ele><time>2026-05-03T08:00:03.288Z</time></trkpt><trkpt lat="42.33193" lon="13.5955067"><ele>1037.0</ele><time>2026-05-03T08:00:04.287Z</time></trkpt><trkpt lat="42.3319483" lon="13.5956"><ele>1036.5</ele><time>2026-05-03T08:00:05.287Z</time></trkpt><trkpt lat="42.33193" lon="13.5957517"><ele>1036.0</ele><time>2026-05-03T08:00:07.287Z</time></trkpt><trkpt lat="42.33186" lon="13.5958867"><ele>1035.5</ele><time>2026-05-03T08:00:09.287Z</time></trkpt><trkpt lat="42.3318133" lon="13.5959617"><ele>1035.0</ele><time>2026-05-03T08:00:10.287Z</time></trkpt><trkpt lat="42.3317583" lon="13.5960517"><ele>1035.0</ele><time>2026-05-03T08:00:11.287Z</time></trkpt><trkpt lat="42.3317133" lon="13.596135"><ele>1035.0</ele><time>2026-05-03T08:00:12.287Z</time></trkpt><trkpt lat="42.33163" lon="13.5962217"><ele>1035.0</ele><time>2026-05-03T08:00:14.287Z</time></trkpt><trkpt lat="42.3315267" lon="13.5962067"><ele>1035.0</ele><time>2026-05-03T08:00:16.287Z</time></trkpt><trkpt lat="42.3314067" lon="13.5961633"><ele>1035.0</ele><time>2026-05-03T08:00:18.287Z</time></trkpt><trkpt lat="42.3312717" lon="13.596155"><ele>1033.4</ele><time>2026-05-03T08:00:20.287Z</time></trkpt><trkpt lat="42.331185" lon="13.59618"><ele>1031.8</ele><time>2026-05-03T08:00:21.287Z</time></trkpt><trkpt lat="42.3311067" lon="13.5962083"><ele>1030.2</ele><time>2026-05-03T08:00:22.287Z</time></trkpt><trkpt lat="42.33104" lon="13.596245"><ele>1028.6</ele><time>2026-05-03T08:00:23.288Z</time></trkpt><trkpt lat="42.330935" lon="13.5963583"><ele>1027.0</ele><time>2026-05-03T08:00:25.287Z</time></trkpt><trkpt lat="42.330875" lon="13.5964583"><ele>1027.0</ele><time>2026-05-03T08:00:26.287Z</time></trkpt><trkpt lat="42.3308217" lon="13.59656"><ele>1027.0</ele><time>2026-05-03T08:00:27.287Z</time></trkpt><trkpt lat="42.330775" lon="13.596655"><ele>1027.0</ele><time>2026-05-03T08:00:28.287Z</time></trkpt><trkpt lat="42.3307517" lon="13.5967433"><ele>1027.0</ele><time>2026-05-03T08:00:29.287Z</time></trkpt><trkpt lat="42.3307383" lon="13.5968317"><ele>1027.0</ele><time>2026-05-03T08:00:30.287Z</time></trkpt><trkpt lat="42.330725" lon="13.5969217"><ele>1027.0</ele><time>2026-05-03T08:00:31.288Z</time></trkpt><trkpt lat="42.330715" lon="13.5970083"><ele>1027.0</ele><time>2026-05-03T08:00:32.287Z</time></trkpt><trkpt lat="42.3307067" lon="13.5970933"><ele>1027.1666666666665</ele><time>2026-05-03T08:00:33.287Z</time></trkpt><trkpt lat="42.3306967" lon="13.5971917"><ele>1027.3333333333333</ele><time>2026-05-03T08:00:34.287Z</time></trkpt><trkpt lat="42.3306867" lon="13.5972817"><ele>1027.5</ele><time>2026-05-03T08:00:35.287Z</time></trkpt><trkpt lat="42.3306333" lon="13.59742"><ele>1027.6666666666667</ele><time>2026-05-03T08:00:37.287Z</time></trkpt><trkpt lat="42.3305717" lon="13.59748"><ele>1027.8333333333335</ele><time>2026-05-03T08:00:38.287Z</time></trkpt><trkpt lat="42.3305067" lon="13.5975367"><ele>1028.0</ele><time>2026-05-03T08:00:39.287Z</time></trkpt><trkpt lat="42.3304383" lon="13.5976067"><ele>1027.3333333333335</ele><time>2026-05-03T08:00:40.287Z</time></trkpt><trkpt lat="42.33036" lon="13.5976967"><ele>1026.6666666666667</ele><time>2026-05-03T08:00:41.287Z</time></trkpt><trkpt lat="42.3302883" lon="13.5977917"><ele>1026.0</ele><time>2026-05-03T08:00:42.287Z</time></trkpt><trkpt lat="42.330225" lon="13.5978683"><ele>1025.3333333333333</ele><time>2026-05-03T08:00:43.287Z</time></trkpt><trkpt lat="42.33016" lon="13.5979283"><ele>1024.6666666666665</ele><time>2026-05-03T08:00:44.287Z</time></trkpt><trkpt lat="42.3300983" lon="13.5979683"><ele>1024.0</ele><time>2026-05-03T08:00:45.287Z</time></trkpt><trkpt lat="42.33003" lon="13.5979933"><ele>1023.9999999999999</ele><time>2026-05-03T08:00:46.287Z</time></trkpt><trkpt lat="42.32996" lon="13.5980167"><ele>1024.0</ele><time>2026-05-03T08:00:47.287Z</time></trkpt><trkpt lat="42.3298967" lon="13.5980467"><ele>1024.0</ele><time>2026-05-03T08:00:48.287Z</time></trkpt><trkpt lat="42.3298317" lon="13.598095"><ele>1024.0</ele><time>2026-05-03T08:00:49.287Z</time></trkpt><trkpt lat="42.3297583" lon="13.598155"><ele>1023.9999999999999</ele><time>2026-05-03T08:00:50.287Z</time></trkpt><trkpt lat="42.3296733" lon="13.5982233"><ele>1024.0</ele><time>2026-05-03T08:00:51.288Z</time></trkpt><trkpt lat="42.3296" lon="13.598285"><ele>1022.9999999999999</ele><time>2026-05-03T08:00:52.287Z</time></trkpt><trkpt lat="42.329535" lon="13.598355"><ele>1022.0</ele><time>2026-05-03T08:00:53.287Z</time></trkpt><trkpt lat="42.3294817" lon="13.59842"><ele>1021.0</ele><time>2026-05-03T08:00:54.287Z</time></trkpt><trkpt lat="42.3294383" lon="13.5984833"><ele>1020.0</ele><time>2026-05-03T08:00:55.287Z</time></trkpt><trkpt lat="42.329345" lon="13.5985767"><ele>1018.9999999999999</ele><time>2026-05-03T08:00:57.287Z</time></trkpt><trkpt lat="42.329275" lon="13.5986017"><ele>1018.0</ele><time>2026-05-03T08:00:58.287Z</time></trkpt><trkpt lat="42.32921" lon="13.598615"><ele>1017.9999999999999</ele><time>2026-05-03T08:00:59.287Z</time></trkpt><trkpt lat="42.3291483" lon="13.5986533"><ele>1018.0</ele><time>2026-05-03T08:01:00.287Z</time></trkpt><trkpt lat="42.3290933" lon="13.5987033"><ele>1018.0</ele><time>2026-05-03T08:01:01.288Z</time></trkpt><trkpt lat="42.3290317" lon="13.5987767"><ele>1018.0</ele><time>2026-05-03T08:01:02.287Z</time></trkpt><trkpt lat="42.3289778" lon="13.5988535"><ele>1017.9999999999999</ele><time>2026-05-03T08:01:03.287Z</time></trkpt><trkpt lat="42.3289208" lon="13.5989382"><ele>1018.0</ele><time>2026-05-03T08:01:04.287Z</time></trkpt><trkpt lat="42.3288653" lon="13.5990244"><ele>1017.6666666666666</ele><time>2026-05-03T08:01:05.287Z</time></trkpt><trkpt lat="42.328811" lon="13.5991106"><ele>1017.3333333333333</ele><time>2026-05-03T08:01:06.288Z</time></trkpt><trkpt lat="42.3287551" lon="13.5991984"><ele>1017.0</ele><time>2026-05-03T08:01:07.287Z</time></trkpt><trkpt lat="42.3287078" lon="13.5992789"><ele>1016.6666666666667</ele><time>2026-05-03T08:01:08.287Z</time></trkpt><trkpt lat="42.3286703" lon="13.5993645"><ele>1016.3333333333334</ele><time>2026-05-03T08:01:09.287Z</time></trkpt><trkpt lat="42.3286342" lon="13.5994503"><ele>1016.0</ele><time>2026-05-03T08:01:10.287Z</time></trkpt><trkpt lat="42.3285955" lon="13.5995256"><ele>1017.0</ele><time>2026-05-03T08:01:11.287Z</time></trkpt><trkpt lat="42.3284932" lon="13.5996266"><ele>1017.9999999999999</ele><time>2026-05-03T08:01:13.287Z</time></trkpt><trkpt lat="42.3284338" lon="13.5996866"><ele>1018.9999999999999</ele><time>2026-05-03T08:01:14.287Z</time></trkpt><trkpt lat="42.3283817" lon="13.5997471"><ele>1020.0</ele><time>2026-05-03T08:01:15.287Z</time></trkpt><trkpt lat="42.3283288" lon="13.5997953"><ele>1021.0</ele><time>2026-05-03T08:01:16.287Z</time></trkpt><trkpt lat="42.3282246" lon="13.5999027"><ele>1020.9999999999999</ele><time>2026-05-03T08:01:18.287Z</time></trkpt><trkpt lat="42.3281667" lon="13.5999757"><ele>1021.0</ele><time>2026-05-03T08:01:19.288Z</time></trkpt><trkpt lat="42.3281097" lon="13.6000522"><ele>1021.0</ele><time>2026-05-03T08:01:20.287Z</time></trkpt><trkpt lat="42.328068" lon="13.6001372"><ele>1021.0</ele><time>2026-05-03T08:01:21.287Z</time></trkpt><trkpt lat="42.3280349" lon="13.600226"><ele>1020.9999999999999</ele><time>2026-05-03T08:01:22.287Z</time></trkpt><trkpt lat="42.3279916" lon="13.6003149"><ele>1021.0</ele><time>2026-05-03T08:01:23.287Z</time></trkpt><trkpt lat="42.3279395" lon="13.6003897"><ele>1020.4999999999999</ele><time>2026-05-03T08:01:24.287Z</time></trkpt><trkpt lat="42.3278733" lon="13.6004543"><ele>1020.0</ele><time>2026-05-03T08:01:25.287Z</time></trkpt><trkpt lat="42.3277945" lon="13.6005141"><ele>1019.5</ele><time>2026-05-03T08:01:26.287Z</time></trkpt><trkpt lat="42.327728" lon="13.6005965"><ele>1019.0</ele><time>2026-05-03T08:01:27.288Z</time></trkpt><trkpt lat="42.3276667" lon="13.6006867"><ele>1018.4999999999999</ele><time>2026-05-03T08:01:28.287Z</time></trkpt><trkpt lat="42.3276122" lon="13.6007788"><ele>1018.0</ele><time>2026-05-03T08:01:29.287Z</time></trkpt><trkpt lat="42.3275684" lon="13.6008724"><ele>1017.9999999999999</ele><time>2026-05-03T08:01:30.287Z</time></trkpt><trkpt lat="42.3275315" lon="13.6009708"><ele>1018.0</ele><time>2026-05-03T08:01:31.287Z</time></trkpt><trkpt lat="42.3274926" lon="13.6010696"><ele>1018.0</ele><time>2026-05-03T08:01:32.287Z</time></trkpt><trkpt lat="42.3274481" lon="13.6011751"><ele>1018.0</ele><time>2026-05-03T08:01:33.287Z</time></trkpt><trkpt lat="42.3273992" lon="13.6012786"><ele>1017.9999999999999</ele><time>2026-05-03T08:01:34.287Z</time></trkpt><trkpt lat="42.3273418" lon="13.6013767"><ele>1018.0</ele><time>2026-05-03T08:01:35.287Z</time></trkpt><trkpt lat="42.3272817" lon="13.601465"><ele>1017.8333333333333</ele><time>2026-05-03T08:01:36.287Z</time></trkpt><trkpt lat="42.327245" lon="13.60156"><ele>1017.6666666666666</ele><time>2026-05-03T08:01:37.287Z</time></trkpt><trkpt lat="42.3272033" lon="13.6016617"><ele>1017.5</ele><time>2026-05-03T08:01:38.288Z</time></trkpt><trkpt lat="42.3271633" lon="13.6017567"><ele>1017.3333333333333</ele><time>2026-05-03T08:01:39.287Z</time></trkpt><trkpt lat="42.3271083" lon="13.6018533"><ele>1017.1666666666666</ele><time>2026-05-03T08:01:40.287Z</time></trkpt><trkpt lat="42.3270617" lon="13.601945"><ele>1017.0</ele><time>2026-05-03T08:01:41.287Z</time></trkpt><trkpt lat="42.3270367" lon="13.6020317"><ele>1016.3333333333334</ele><time>2026-05-03T08:01:42.287Z</time></trkpt><trkpt lat="42.3270083" lon="13.60213"><ele>1015.6666666666667</ele><time>2026-05-03T08:01:43.288Z</time></trkpt><trkpt lat="42.3269683" lon="13.6022317"><ele>1015.0</ele><time>2026-05-03T08:01:44.287Z</time></trkpt><trkpt lat="42.3269467" lon="13.6023317"><ele>1014.3333333333334</ele><time>2026-05-03T08:01:45.287Z</time></trkpt><trkpt lat="42.3269267" lon="13.6024483"><ele>1013.6666666666667</ele><time>2026-05-03T08:01:46.287Z</time></trkpt><trkpt lat="42.326905" lon="13.602565"><ele>1013.0</ele><time>2026-05-03T08:01:47.287Z</time></trkpt><trkpt lat="42.3268767" lon="13.60268"><ele>1013.0000000000001</ele><time>2026-05-03T08:01:48.287Z</time></trkpt><trkpt lat="42.3268383" lon="13.602775"><ele>1013.0</ele><time>2026-05-03T08:01:49.287Z</time></trkpt><trkpt lat="42.3267817" lon="13.602875"><ele>1013.0</ele><time>2026-05-03T08:01:50.287Z</time></trkpt><trkpt lat="42.3267317" lon="13.602975"><ele>1013.0</ele><time>2026-05-03T08:01:51.288Z</time></trkpt><trkpt lat="42.3266967" lon="13.6030683"><ele>1013.0000000000001</ele><time>2026-05-03T08:01:52.288Z</time></trkpt><trkpt lat="42.3266367" lon="13.60316"><ele>1013.0</ele><time>2026-05-03T08:01:53.287Z</time></trkpt><trkpt lat="42.3265667" lon="13.6032533"><ele>1012.8</ele><time>2026-05-03T08:01:54.287Z</time></trkpt><trkpt lat="42.3264867" lon="13.6033517"><ele>1012.5999999999999</ele><time>2026-05-03T08:01:55.287Z</time></trkpt><trkpt lat="42.3264117" lon="13.6034417"><ele>1012.4000000000001</ele><time>2026-05-03T08:01:56.287Z</time></trkpt><trkpt lat="42.3263483" lon="13.6035167"><ele>1012.2</ele><time>2026-05-03T08:01:57.287Z</time></trkpt><trkpt lat="42.3262817" lon="13.603595"><ele>1012.0</ele><time>2026-05-03T08:01:58.287Z</time></trkpt><trkpt lat="42.3262283" lon="13.6036717"><ele>1011.9999999999999</ele><time>2026-05-03T08:01:59.287Z</time></trkpt><trkpt lat="42.32617" lon="13.6037683"><ele>1012.0</ele><time>2026-05-03T08:02:00.287Z</time></trkpt><trkpt lat="42.3261033" lon="13.6038483"><ele>1012.0</ele><time>2026-05-03T08:02:01.287Z</time></trkpt><trkpt lat="42.3260433" lon="13.6039283"><ele>1012.0</ele><time>2026-05-03T08:02:02.287Z</time></trkpt><trkpt lat="42.3259817" lon="13.604005"><ele>1011.9999999999999</ele><time>2026-05-03T08:02:03.287Z</time></trkpt><trkpt lat="42.3259367" lon="13.6040883"><ele>1012.0</ele><time>2026-05-03T08:02:04.287Z</time></trkpt><trkpt lat="42.3258883" lon="13.6041767"><ele>1011.9999999999999</ele><time>2026-05-03T08:02:05.287Z</time></trkpt><trkpt lat="42.3258517" lon="13.604265"><ele>1012.0</ele><time>2026-05-03T08:02:06.288Z</time></trkpt><trkpt lat="42.3257783" lon="13.6044067"><ele>1012.0</ele><time>2026-05-03T08:02:08.288Z</time></trkpt><trkpt lat="42.3257267" lon="13.60447"><ele>1012.0</ele><time>2026-05-03T08:02:09.287Z</time></trkpt><trkpt lat="42.325665" lon="13.6045317"><ele>1011.9999999999999</ele><time>2026-05-03T08:02:10.288Z</time></trkpt><trkpt lat="42.32561" lon="13.6046167"><ele>1012.0</ele><time>2026-05-03T08:02:11.287Z</time></trkpt><trkpt lat="42.3255567" lon="13.6047167"><ele>1011.8333333333333</ele><time>2026-05-03T08:02:12.287Z</time></trkpt><trkpt lat="42.325515" lon="13.604825"><ele>1011.6666666666666</ele><time>2026-05-03T08:02:13.287Z</time></trkpt><trkpt lat="42.32547" lon="13.60493"><ele>1011.5</ele><time>2026-05-03T08:02:14.287Z</time></trkpt><trkpt lat="42.32542" lon="13.6050217"><ele>1011.3333333333333</ele><time>2026-05-03T08:02:15.287Z</time></trkpt><trkpt lat="42.325365" lon="13.6051033"><ele>1011.1666666666666</ele><time>2026-05-03T08:02:16.287Z</time></trkpt><trkpt lat="42.3253117" lon="13.60518"><ele>1011.0</ele><time>2026-05-03T08:02:17.287Z</time></trkpt><trkpt lat="42.325265" lon="13.60526"><ele>1010.0</ele><time>2026-05-03T08:02:18.287Z</time></trkpt><trkpt lat="42.3252183" lon="13.6053583"><ele>1009.0</ele><time>2026-05-03T08:02:19.287Z</time></trkpt><trkpt lat="42.3251883" lon="13.6054617"><ele>1008.0</ele><time>2026-05-03T08:02:20.287Z</time></trkpt><trkpt lat="42.3251483" lon="13.60557"><ele>1007.0</ele><time>2026-05-03T08:02:21.287Z</time></trkpt><trkpt lat="42.32512" lon="13.605685"><ele>1006.0</ele><time>2026-05-03T08:02:22.287Z</time></trkpt><trkpt lat="42.3250883" lon="13.6057783"><ele>1005.0</ele><time>2026-05-03T08:02:23.287Z</time></trkpt><trkpt lat="42.3250583" lon="13.6058767"><ele>1005.0</ele><time>2026-05-03T08:02:24.288Z</time></trkpt><trkpt lat="42.32503" lon="13.605975"><ele>1005.0</ele><time>2026-05-03T08:02:25.287Z</time></trkpt><trkpt lat="42.325025" lon="13.606065"><ele>1005.0</ele><time>2026-05-03T08:02:26.287Z</time></trkpt><trkpt lat="42.3250333" lon="13.60622"><ele>1005.0</ele><time>2026-05-03T08:02:28.287Z</time></trkpt><trkpt lat="42.3250017" lon="13.606305"><ele>1005.0</ele><time>2026-05-03T08:02:30.288Z</time></trkpt><trkpt lat="42.3249217" lon="13.6063983"><ele>1005.0</ele><time>2026-05-03T08:02:32.287Z</time></trkpt><trkpt lat="42.32486" lon="13.6064533"><ele>1005.0</ele><time>2026-05-03T08:02:33.287Z</time></trkpt><trkpt lat="42.3248033" lon="13.6065167"><ele>1005.0</ele><time>2026-05-03T08:02:34.287Z</time></trkpt><trkpt lat="42.32472" lon="13.60662"><ele>1005.0</ele><time>2026-05-03T08:02:36.287Z</time></trkpt><trkpt lat="42.3246433" lon="13.6067183"><ele>1005.0</ele><time>2026-05-03T08:02:38.287Z</time></trkpt><trkpt lat="42.3245467" lon="13.60678"><ele>1005.0</ele><time>2026-05-03T08:02:40.287Z</time></trkpt><trkpt lat="42.3244467" lon="13.6068533"><ele>1004.2</ele><time>2026-05-03T08:02:42.287Z</time></trkpt><trkpt lat="42.3243483" lon="13.60692"><ele>1003.4</ele><time>2026-05-03T08:02:44.287Z</time></trkpt><trkpt lat="42.3242683" lon="13.6069817"><ele>1002.5999999999999</ele><time>2026-05-03T08:02:46.287Z</time></trkpt><trkpt lat="42.3241783" lon="13.6071067"><ele>1001.8</ele><time>2026-05-03T08:02:48.287Z</time></trkpt><trkpt lat="42.3241067" lon="13.607215"><ele>1001.0</ele><time>2026-05-03T08:02:50.287Z</time></trkpt><trkpt lat="42.32404" lon="13.6073083"><ele>999.0</ele><time>2026-05-03T08:02:52.287Z</time></trkpt><trkpt lat="42.3239733" lon="13.6074117"><ele>996.9999999999999</ele><time>2026-05-03T08:02:54.287Z</time></trkpt><trkpt lat="42.3239167" lon="13.6075167"><ele>994.9999999999999</ele><time>2026-05-03T08:02:56.287Z</time></trkpt><trkpt lat="42.3238883" lon="13.6076383"><ele>993.0</ele><time>2026-05-03T08:02:58.287Z</time></trkpt><trkpt lat="42.3238667" lon="13.6077733"><ele>991.0</ele><time>2026-05-03T08:03:00.287Z</time></trkpt><trkpt lat="42.3238283" lon="13.6079"><ele>990.6666666666666</ele><time>2026-05-03T08:03:02.287Z</time></trkpt><trkpt lat="42.3237883" lon="13.6079983"><ele>990.3333333333333</ele><time>2026-05-03T08:03:04.287Z</time></trkpt><trkpt lat="42.3237467" lon="13.6080833"><ele>990.0</ele><time>2026-05-03T08:03:06.287Z</time></trkpt><trkpt lat="42.3236983" lon="13.608185"><ele>989.6666666666667</ele><time>2026-05-03T08:03:08.287Z</time></trkpt><trkpt lat="42.3236417" lon="13.6082933"><ele>989.3333333333334</ele><time>2026-05-03T08:03:10.287Z</time></trkpt><trkpt lat="42.323595" lon="13.6083883"><ele>989.0</ele><time>2026-05-03T08:03:12.287Z</time></trkpt><trkpt lat="42.3235783" lon="13.608525"><ele>989.0000000000001</ele><time>2026-05-03T08:04:31.287Z</time></trkpt><trkpt lat="42.3235549" lon="13.6086042"><ele>989.0</ele><time>2026-05-03T08:04:41.356Z</time></trkpt><trkpt lat="42.3235188" lon="13.6087028"><ele>989.0</ele><time>2026-05-03T08:04:44.333Z</time></trkpt><trkpt lat="42.323475" lon="13.608785"><ele>989.0</ele><time>2026-05-03T08:05:41.287Z</time></trkpt><trkpt lat="42.3234167" lon="13.6089067"><ele>989.0000000000001</ele><time>2026-05-03T08:05:43.287Z</time></trkpt><trkpt lat="42.3233446" lon="13.6090235"><ele>989.0</ele><time>2026-05-03T08:05:45.287Z</time></trkpt><trkpt lat="42.3232627" lon="13.6091604"><ele>987.2857142857142</ele><time>2026-05-03T08:05:47.287Z</time></trkpt><trkpt lat="42.3232185" lon="13.6092362"><ele>985.5714285714284</ele><time>2026-05-03T08:05:48.287Z</time></trkpt><trkpt lat="42.3231814" lon="13.6093275"><ele>983.8571428571429</ele><time>2026-05-03T08:05:49.287Z</time></trkpt><trkpt lat="42.3231525" lon="13.6094183"><ele>982.1428571428571</ele><time>2026-05-03T08:05:50.287Z</time></trkpt><trkpt lat="42.3231218" lon="13.609504"><ele>980.4285714285714</ele><time>2026-05-03T08:05:51.288Z</time></trkpt><trkpt lat="42.3230837" lon="13.6095862"><ele>978.7142857142858</ele><time>2026-05-03T08:05:52.287Z</time></trkpt><trkpt lat="42.3230452" lon="13.6096585"><ele>977.0000000000001</ele><time>2026-05-03T08:05:53.287Z</time></trkpt><trkpt lat="42.3229665" lon="13.6097967"><ele>976.8333333333334</ele><time>2026-05-03T08:05:55.287Z</time></trkpt><trkpt lat="42.3229197" lon="13.6098875"><ele>976.6666666666667</ele><time>2026-05-03T08:05:56.287Z</time></trkpt><trkpt lat="42.322867" lon="13.6099855"><ele>976.5</ele><time>2026-05-03T08:05:57.287Z</time></trkpt><trkpt lat="42.322817" lon="13.6100813"><ele>976.3333333333333</ele><time>2026-05-03T08:05:58.287Z</time></trkpt><trkpt lat="42.3227695" lon="13.6101643"><ele>976.1666666666666</ele><time>2026-05-03T08:05:59.287Z</time></trkpt><trkpt lat="42.3227291" lon="13.6102422"><ele>976.0</ele><time>2026-05-03T08:06:00.287Z</time></trkpt><trkpt lat="42.3226905" lon="13.6103241"><ele>974.1666666666666</ele><time>2026-05-03T08:06:01.287Z</time></trkpt><trkpt lat="42.3226542" lon="13.6104069"><ele>972.3333333333333</ele><time>2026-05-03T08:06:02.287Z</time></trkpt><trkpt lat="42.3226231" lon="13.6104926"><ele>970.5</ele><time>2026-05-03T08:06:03.287Z</time></trkpt><trkpt lat="42.322588" lon="13.6105686"><ele>968.6666666666667</ele><time>2026-05-03T08:06:04.288Z</time></trkpt><trkpt lat="42.3225437" lon="13.6106468"><ele>966.8333333333334</ele><time>2026-05-03T08:06:05.287Z</time></trkpt><trkpt lat="42.3224888" lon="13.6107227"><ele>965.0</ele><time>2026-05-03T08:06:06.287Z</time></trkpt><trkpt lat="42.322422" lon="13.6108056"><ele>965.0000000000001</ele><time>2026-05-03T08:06:07.287Z</time></trkpt><trkpt lat="42.3223587" lon="13.6108864"><ele>965.0</ele><time>2026-05-03T08:06:08.288Z</time></trkpt><trkpt lat="42.3223045" lon="13.6109652"><ele>965.0</ele><time>2026-05-03T08:06:09.288Z</time></trkpt><trkpt lat="42.3222526" lon="13.6110316"><ele>965.0</ele><time>2026-05-03T08:06:10.287Z</time></trkpt><trkpt lat="42.3222028" lon="13.6110994"><ele>965.0000000000001</ele><time>2026-05-03T08:06:11.287Z</time></trkpt><trkpt lat="42.3221557" lon="13.611174"><ele>965.0</ele><time>2026-05-03T08:06:12.287Z</time></trkpt><trkpt lat="42.3221026" lon="13.6112377"><ele>963.5000000000001</ele><time>2026-05-03T08:06:13.287Z</time></trkpt><trkpt lat="42.3220477" lon="13.6112828"><ele>962.0</ele><time>2026-05-03T08:06:14.287Z</time></trkpt><trkpt lat="42.3219488" lon="13.6113454"><ele>960.5</ele><time>2026-05-03T08:06:16.287Z</time></trkpt><trkpt lat="42.3218689" lon="13.6114526"><ele>959.0</ele><time>2026-05-03T08:06:18.287Z</time></trkpt><trkpt lat="42.3218274" lon="13.6115263"><ele>957.5000000000001</ele><time>2026-05-03T08:06:19.286Z</time></trkpt><trkpt lat="42.321779" lon="13.6116015"><ele>956.0</ele><time>2026-05-03T08:06:20.286Z</time></trkpt><trkpt lat="42.321732" lon="13.6116749"><ele>956.0000000000001</ele><time>2026-05-03T08:06:21.286Z</time></trkpt><trkpt lat="42.3216917" lon="13.61176"><ele>956.0</ele><time>2026-05-03T08:06:22.286Z</time></trkpt><trkpt lat="42.32166" lon="13.6118417"><ele>956.0</ele><time>2026-05-03T08:06:23.286Z</time></trkpt><trkpt lat="42.3216383" lon="13.6119483"><ele>956.0</ele><time>2026-05-03T08:06:24.287Z</time></trkpt><trkpt lat="42.32161" lon="13.612065"><ele>956.0000000000001</ele><time>2026-05-03T08:06:25.286Z</time></trkpt><trkpt lat="42.32158" lon="13.61218"><ele>956.0</ele><time>2026-05-03T08:06:26.286Z</time></trkpt><trkpt lat="42.3215433" lon="13.6122833"><ele>955.1666666666667</ele><time>2026-05-03T08:06:27.286Z</time></trkpt><trkpt lat="42.3215067" lon="13.6123733"><ele>954.3333333333334</ele><time>2026-05-03T08:06:28.286Z</time></trkpt><trkpt lat="42.3214667" lon="13.61244"><ele>953.5</ele><time>2026-05-03T08:06:29.286Z</time></trkpt><trkpt lat="42.3214233" lon="13.6125183"><ele>952.6666666666667</ele><time>2026-05-03T08:06:30.286Z</time></trkpt><trkpt lat="42.321375" lon="13.6126033"><ele>951.8333333333334</ele><time>2026-05-03T08:06:31.286Z</time></trkpt><trkpt lat="42.3213217" lon="13.6127017"><ele>951.0</ele><time>2026-05-03T08:06:32.286Z</time></trkpt><trkpt lat="42.32127" lon="13.6128017"><ele>950.0</ele><time>2026-05-03T08:06:33.286Z</time></trkpt><trkpt lat="42.32121" lon="13.61291"><ele>948.9999999999999</ele><time>2026-05-03T08:06:34.286Z</time></trkpt><trkpt lat="42.32114" lon="13.613015"><ele>947.9999999999999</ele><time>2026-05-03T08:06:35.286Z</time></trkpt><trkpt lat="42.3210583" lon="13.613115"><ele>947.0</ele><time>2026-05-03T08:06:36.286Z</time></trkpt><trkpt lat="42.3209817" lon="13.61321"><ele>946.0</ele><time>2026-05-03T08:06:37.286Z</time></trkpt><trkpt lat="42.3209133" lon="13.613285"><ele>945.9999999999999</ele><time>2026-05-03T08:06:38.286Z</time></trkpt><trkpt lat="42.3208533" lon="13.61334"><ele>946.0</ele><time>2026-05-03T08:06:39.286Z</time></trkpt><trkpt lat="42.32079" lon="13.61338"><ele>946.0</ele><time>2026-05-03T08:06:40.286Z</time></trkpt><trkpt lat="42.3206817" lon="13.6133467"><ele>946.0</ele><time>2026-05-03T08:06:42.286Z</time></trkpt><trkpt lat="42.32063" lon="13.61327"><ele>945.9999999999999</ele><time>2026-05-03T08:06:43.286Z</time></trkpt><trkpt lat="42.32059" lon="13.6131883"><ele>946.0</ele><time>2026-05-03T08:06:44.286Z</time></trkpt><trkpt lat="42.3205233" lon="13.613095"><ele>947.0</ele><time>2026-05-03T08:06:46.287Z</time></trkpt><trkpt lat="42.32047" lon="13.6132133"><ele>947.9999999999999</ele><time>2026-05-03T08:06:49.286Z</time></trkpt><trkpt lat="42.320415" lon="13.613355"><ele>948.9999999999999</ele><time>2026-05-03T08:06:51.286Z</time></trkpt><trkpt lat="42.32036" lon="13.6134417"><ele>950.0</ele><time>2026-05-03T08:06:52.286Z</time></trkpt><trkpt lat="42.32031" lon="13.6135367"><ele>951.0</ele><time>2026-05-03T08:06:53.286Z</time></trkpt><trkpt lat="42.320265" lon="13.61363"><ele>950.6666666666666</ele><time>2026-05-03T08:06:54.286Z</time></trkpt><trkpt lat="42.3202367" lon="13.61372"><ele>950.3333333333333</ele><time>2026-05-03T08:06:55.286Z</time></trkpt><trkpt lat="42.3202117" lon="13.6138133"><ele>950.0</ele><time>2026-05-03T08:06:56.287Z</time></trkpt><trkpt lat="42.3201967" lon="13.61392"><ele>949.6666666666666</ele><time>2026-05-03T08:06:57.286Z</time></trkpt><trkpt lat="42.3201833" lon="13.614035"><ele>949.3333333333333</ele><time>2026-05-03T08:06:58.286Z</time></trkpt><trkpt lat="42.320155" lon="13.6141517"><ele>949.0</ele><time>2026-05-03T08:06:59.286Z</time></trkpt><trkpt lat="42.3201117" lon="13.6142417"><ele>948.9999999999999</ele><time>2026-05-03T08:07:00.286Z</time></trkpt><trkpt lat="42.320055" lon="13.6143183"><ele>949.0</ele><time>2026-05-03T08:07:01.286Z</time></trkpt><trkpt lat="42.3200033" lon="13.6143817"><ele>949.0</ele><time>2026-05-03T08:07:02.286Z</time></trkpt><trkpt lat="42.3199617" lon="13.6144467"><ele>949.0</ele><time>2026-05-03T08:07:03.286Z</time></trkpt><trkpt lat="42.3198783" lon="13.6145667"><ele>948.9999999999999</ele><time>2026-05-03T08:07:05.287Z</time></trkpt><trkpt lat="42.3198417" lon="13.614655"><ele>949.0</ele><time>2026-05-03T08:07:06.286Z</time></trkpt><trkpt lat="42.3198017" lon="13.6147417"><ele>948.6666666666666</ele><time>2026-05-03T08:07:07.286Z</time></trkpt><trkpt lat="42.3197567" lon="13.6148267"><ele>948.3333333333333</ele><time>2026-05-03T08:07:08.286Z</time></trkpt><trkpt lat="42.3197083" lon="13.6149167"><ele>948.0</ele><time>2026-05-03T08:07:09.286Z</time></trkpt><trkpt lat="42.3196633" lon="13.6150133"><ele>947.6666666666667</ele><time>2026-05-03T08:07:10.286Z</time></trkpt><trkpt lat="42.3196183" lon="13.6150983"><ele>947.3333333333334</ele><time>2026-05-03T08:07:11.286Z</time></trkpt><trkpt lat="42.3195817" lon="13.6151767"><ele>947.0</ele><time>2026-05-03T08:07:12.286Z</time></trkpt><trkpt lat="42.3195483" lon="13.6152517"><ele>948.3333333333334</ele><time>2026-05-03T08:07:13.286Z</time></trkpt><trkpt lat="42.3195167" lon="13.61533"><ele>949.6666666666667</ele><time>2026-05-03T08:07:14.286Z</time></trkpt><trkpt lat="42.3194733" lon="13.6153967"><ele>951.0</ele><time>2026-05-03T08:07:15.286Z</time></trkpt><trkpt lat="42.3194267" lon="13.61546"><ele>952.3333333333333</ele><time>2026-05-03T08:07:16.286Z</time></trkpt><trkpt lat="42.3193733" lon="13.6155233"><ele>953.6666666666666</ele><time>2026-05-03T08:07:17.286Z</time></trkpt><trkpt lat="42.319325" lon="13.6155867"><ele>955.0</ele><time>2026-05-03T08:07:18.287Z</time></trkpt><trkpt lat="42.319245" lon="13.6157"><ele>954.9999999999999</ele><time>2026-05-03T08:07:20.286Z</time></trkpt><trkpt lat="42.319185" lon="13.6158333"><ele>955.0</ele><time>2026-05-03T08:07:22.286Z</time></trkpt><trkpt lat="42.3191617" lon="13.6159567"><ele>955.0</ele><time>2026-05-03T08:07:24.287Z</time></trkpt><trkpt lat="42.319135" lon="13.6160567"><ele>955.0</ele><time>2026-05-03T08:07:26.286Z</time></trkpt><trkpt lat="42.3191033" lon="13.616145"><ele>954.9999999999999</ele><time>2026-05-03T08:07:28.286Z</time></trkpt><trkpt lat="42.3190633" lon="13.6162417"><ele>955.0</ele><time>2026-05-03T08:07:31.286Z</time></trkpt><trkpt lat="42.3190317" lon="13.61636"><ele>954.8</ele><time>2026-05-03T08:07:38.286Z</time></trkpt><trkpt lat="42.3189817" lon="13.6164417"><ele>954.6</ele><time>2026-05-03T08:07:40.286Z</time></trkpt><trkpt lat="42.3189133" lon="13.61654"><ele>954.4000000000001</ele><time>2026-05-03T08:07:42.286Z</time></trkpt><trkpt lat="42.3188233" lon="13.61664"><ele>954.2</ele><time>2026-05-03T08:07:44.286Z</time></trkpt><trkpt lat="42.3187367" lon="13.61671"><ele>954.0</ele><time>2026-05-03T08:07:46.286Z</time></trkpt><trkpt lat="42.3186587" lon="13.6167705"><ele>955.0</ele><time>2026-05-03T08:07:48.287Z</time></trkpt><trkpt lat="42.3186125" lon="13.6168653"><ele>956.0000000000001</ele><time>2026-05-03T08:07:50.286Z</time></trkpt><trkpt lat="42.3185554" lon="13.6169761"><ele>957.0000000000001</ele><time>2026-05-03T08:07:52.286Z</time></trkpt><trkpt lat="42.3184642" lon="13.6170731"><ele>958.0</ele><time>2026-05-03T08:07:54.287Z</time></trkpt><trkpt lat="42.3183601" lon="13.6171436"><ele>959.0</ele><time>2026-05-03T08:07:56.286Z</time></trkpt><trkpt lat="42.3183023" lon="13.6171814"><ele>959.0</ele><time>2026-05-03T08:07:57.286Z</time></trkpt><trkpt lat="42.3182449" lon="13.6172305"><ele>959.0</ele><time>2026-05-03T08:07:58.286Z</time></trkpt><trkpt lat="42.3181873" lon="13.6172912"><ele>959.0</ele><time>2026-05-03T08:07:59.286Z</time></trkpt><trkpt lat="42.3181299" lon="13.6173522"><ele>959.0</ele><time>2026-05-03T08:08:00.286Z</time></trkpt><trkpt lat="42.3180665" lon="13.6174054"><ele>959.0</ele><time>2026-05-03T08:08:01.286Z</time></trkpt><trkpt lat="42.3180042" lon="13.6174565"><ele>959.0</ele><time>2026-05-03T08:08:02.286Z</time></trkpt><trkpt lat="42.317944" lon="13.6175087"><ele>959.0</ele><time>2026-05-03T08:08:03.286Z</time></trkpt><trkpt lat="42.317885" lon="13.6175703"><ele>959.5000000000001</ele><time>2026-05-03T08:08:04.287Z</time></trkpt><trkpt lat="42.3178259" lon="13.6176344"><ele>960.0</ele><time>2026-05-03T08:08:05.286Z</time></trkpt><trkpt lat="42.3177576" lon="13.6176948"><ele>960.5</ele><time>2026-05-03T08:08:06.286Z</time></trkpt><trkpt lat="42.3176901" lon="13.6177528"><ele>961.0</ele><time>2026-05-03T08:08:07.286Z</time></trkpt><trkpt lat="42.3176317" lon="13.61781"><ele>961.5000000000001</ele><time>2026-05-03T08:08:08.286Z</time></trkpt><trkpt lat="42.31758" lon="13.6178783"><ele>962.0</ele><time>2026-05-03T08:08:09.286Z</time></trkpt><trkpt lat="42.317525" lon="13.6179333"><ele>962.0000000000001</ele><time>2026-05-03T08:08:10.287Z</time></trkpt><trkpt lat="42.3174683" lon="13.6179883"><ele>962.0</ele><time>2026-05-03T08:08:11.287Z</time></trkpt><trkpt lat="42.3174" lon="13.6180467"><ele>962.0</ele><time>2026-05-03T08:08:12.286Z</time></trkpt><trkpt lat="42.31733" lon="13.61811"><ele>962.0</ele><time>2026-05-03T08:08:13.286Z</time></trkpt><trkpt lat="42.3172583" lon="13.6181733"><ele>962.0000000000001</ele><time>2026-05-03T08:08:14.286Z</time></trkpt><trkpt lat="42.3171933" lon="13.6182417"><ele>962.0</ele><time>2026-05-03T08:08:15.286Z</time></trkpt><trkpt lat="42.31714" lon="13.6183033"><ele>963.4000000000001</ele><time>2026-05-03T08:08:16.286Z</time></trkpt><trkpt lat="42.317085" lon="13.6183583"><ele>964.8000000000001</ele><time>2026-05-03T08:08:17.286Z</time></trkpt><trkpt lat="42.316985" lon="13.6184683"><ele>966.2</ele><time>2026-05-03T08:08:19.286Z</time></trkpt><trkpt lat="42.3169367" lon="13.6185317"><ele>967.6</ele><time>2026-05-03T08:08:20.286Z</time></trkpt><trkpt lat="42.3168817" lon="13.6185883"><ele>969.0</ele><time>2026-05-03T08:08:21.286Z</time></trkpt><trkpt lat="42.3167717" lon="13.618665"><ele>969.0</ele><time>2026-05-03T08:08:23.286Z</time></trkpt><trkpt lat="42.31667" lon="13.6187533"><ele>969.0000000000001</ele><time>2026-05-03T08:08:25.286Z</time></trkpt><trkpt lat="42.3165683" lon="13.6188433"><ele>969.0000000000001</ele><time>2026-05-03T08:08:27.286Z</time></trkpt><trkpt lat="42.3164683" lon="13.6189417"><ele>969.0</ele><time>2026-05-03T08:08:29.286Z</time></trkpt><trkpt lat="42.3164117" lon="13.6189933"><ele>969.0</ele><time>2026-05-03T08:08:30.286Z</time></trkpt><trkpt lat="42.3163617" lon="13.6190533"><ele>971.0</ele><time>2026-05-03T08:08:31.286Z</time></trkpt><trkpt lat="42.3162983" lon="13.6191817"><ele>973.0000000000001</ele><time>2026-05-03T08:08:33.286Z</time></trkpt><trkpt lat="42.3162733" lon="13.6193017"><ele>975.0000000000001</ele><time>2026-05-03T08:08:35.286Z</time></trkpt><trkpt lat="42.31624" lon="13.61943"><ele>977.0</ele><time>2026-05-03T08:08:37.286Z</time></trkpt><trkpt lat="42.316225" lon="13.6195817"><ele>979.0</ele><time>2026-05-03T08:08:39.286Z</time></trkpt><trkpt lat="42.3162017" lon="13.61973"><ele>978.9999999999999</ele><time>2026-05-03T08:08:41.286Z</time></trkpt><trkpt lat="42.3161317" lon="13.6197967"><ele>979.0</ele><time>2026-05-03T08:08:43.286Z</time></trkpt><trkpt lat="42.3160533" lon="13.61985"><ele>979.0</ele><time>2026-05-03T08:08:45.286Z</time></trkpt><trkpt lat="42.3160017" lon="13.6199133"><ele>979.0</ele><time>2026-05-03T08:08:46.286Z</time></trkpt><trkpt lat="42.3159433" lon="13.6199883"><ele>978.9999999999999</ele><time>2026-05-03T08:08:47.286Z</time></trkpt><trkpt lat="42.3158767" lon="13.6200667"><ele>979.0</ele><time>2026-05-03T08:08:48.287Z</time></trkpt><trkpt lat="42.3158067" lon="13.6201583"><ele>979.0</ele><time>2026-05-03T08:08:49.286Z</time></trkpt><trkpt lat="42.3157467" lon="13.6202533"><ele>979.0000000000001</ele><time>2026-05-03T08:08:50.286Z</time></trkpt><trkpt lat="42.315705" lon="13.6203367"><ele>979.0000000000001</ele><time>2026-05-03T08:08:51.286Z</time></trkpt><trkpt lat="42.3156117" lon="13.6204317"><ele>979.0</ele><time>2026-05-03T08:08:53.286Z</time></trkpt><trkpt lat="42.3155133" lon="13.6204467"><ele>979.0</ele><time>2026-05-03T08:08:55.286Z</time></trkpt><trkpt lat="42.315425" lon="13.6204967"><ele>979.1666666666666</ele><time>2026-05-03T08:08:57.286Z</time></trkpt><trkpt lat="42.3153783" lon="13.620555"><ele>979.3333333333333</ele><time>2026-05-03T08:08:58.286Z</time></trkpt><trkpt lat="42.3153283" lon="13.62063"><ele>979.5</ele><time>2026-05-03T08:08:59.286Z</time></trkpt><trkpt lat="42.3152767" lon="13.6207083"><ele>979.6666666666667</ele><time>2026-05-03T08:09:00.286Z</time></trkpt><trkpt lat="42.3152183" lon="13.62079"><ele>979.8333333333334</ele><time>2026-05-03T08:09:01.286Z</time></trkpt><trkpt lat="42.31516" lon="13.62086"><ele>980.0</ele><time>2026-05-03T08:09:02.286Z</time></trkpt><trkpt lat="42.3150967" lon="13.620915"><ele>980.0000000000001</ele><time>2026-05-03T08:09:03.286Z</time></trkpt><trkpt lat="42.3150217" lon="13.6209633"><ele>980.0</ele><time>2026-05-03T08:09:04.287Z</time></trkpt><trkpt lat="42.3149467" lon="13.6210017"><ele>980.0</ele><time>2026-05-03T08:09:05.286Z</time></trkpt><trkpt lat="42.314875" lon="13.621045"><ele>980.0</ele><time>2026-05-03T08:09:06.286Z</time></trkpt><trkpt lat="42.3147983" lon="13.62108"><ele>980.0000000000001</ele><time>2026-05-03T08:09:07.286Z</time></trkpt><trkpt lat="42.31472" lon="13.62112"><ele>980.0</ele><time>2026-05-03T08:09:08.286Z</time></trkpt><trkpt lat="42.314645" lon="13.6211633"><ele>980.1666666666667</ele><time>2026-05-03T08:09:09.286Z</time></trkpt><trkpt lat="42.3145767" lon="13.621215"><ele>980.3333333333334</ele><time>2026-05-03T08:09:10.286Z</time></trkpt><trkpt lat="42.31451" lon="13.621265"><ele>980.5</ele><time>2026-05-03T08:09:11.286Z</time></trkpt><trkpt lat="42.3144483" lon="13.621315"><ele>980.6666666666667</ele><time>2026-05-03T08:09:12.286Z</time></trkpt><trkpt lat="42.3143967" lon="13.621365"><ele>980.8333333333334</ele><time>2026-05-03T08:09:13.286Z</time></trkpt><trkpt lat="42.3142967" lon="13.6214483"><ele>981.0</ele><time>2026-05-03T08:09:15.286Z</time></trkpt><trkpt lat="42.3141783" lon="13.621535"><ele>981.0</ele><time>2026-05-03T08:09:17.286Z</time></trkpt><trkpt lat="42.3141133" lon="13.621585"><ele>981.0</ele><time>2026-05-03T08:09:18.286Z</time></trkpt><trkpt lat="42.31406" lon="13.6216383"><ele>981.0</ele><time>2026-05-03T08:09:19.286Z</time></trkpt><trkpt lat="42.3139833" lon="13.6217233"><ele>981.0</ele><time>2026-05-03T08:09:21.286Z</time></trkpt><trkpt lat="42.3139017" lon="13.62172"><ele>981.0</ele><time>2026-05-03T08:09:23.286Z</time></trkpt><trkpt lat="42.3138183" lon="13.6216717"><ele>981.0</ele><time>2026-05-03T08:09:25.286Z</time></trkpt><trkpt lat="42.313725" lon="13.621695"><ele>981.4</ele><time>2026-05-03T08:09:28.286Z</time></trkpt><trkpt lat="42.3136333" lon="13.6217617"><ele>981.8</ele><time>2026-05-03T08:09:30.286Z</time></trkpt><trkpt lat="42.313545" lon="13.6218433"><ele>982.1999999999999</ele><time>2026-05-03T08:09:32.286Z</time></trkpt><trkpt lat="42.3134883" lon="13.621885"><ele>982.5999999999999</ele><time>2026-05-03T08:09:33.287Z</time></trkpt><trkpt lat="42.3134333" lon="13.621935"><ele>983.0</ele><time>2026-05-03T08:09:34.286Z</time></trkpt><trkpt lat="42.3133367" lon="13.6220467"><ele>983.0000000000001</ele><time>2026-05-03T08:09:36.286Z</time></trkpt><trkpt lat="42.313245" lon="13.6221667"><ele>983.0</ele><time>2026-05-03T08:09:38.287Z</time></trkpt><trkpt lat="42.3132033" lon="13.6222433"><ele>983.0</ele><time>2026-05-03T08:09:39.286Z</time></trkpt><trkpt lat="42.313155" lon="13.62232"><ele>983.0</ele><time>2026-05-03T08:09:40.286Z</time></trkpt><trkpt lat="42.3130983" lon="13.6223933"><ele>983.0000000000001</ele><time>2026-05-03T08:09:41.286Z</time></trkpt><trkpt lat="42.3130417" lon="13.6224717"><ele>983.0</ele><time>2026-05-03T08:09:42.286Z</time></trkpt><trkpt lat="42.312985" lon="13.6225383"><ele>984.142857142857</ele><time>2026-05-03T08:09:43.286Z</time></trkpt><trkpt lat="42.312935" lon="13.62261"><ele>985.2857142857142</ele><time>2026-05-03T08:09:44.286Z</time></trkpt><trkpt lat="42.312885" lon="13.62268"><ele>986.4285714285714</ele><time>2026-05-03T08:09:45.286Z</time></trkpt><trkpt lat="42.3128333" lon="13.62275"><ele>987.5714285714286</ele><time>2026-05-03T08:09:46.286Z</time></trkpt><trkpt lat="42.31279" lon="13.6228283"><ele>988.7142857142858</ele><time>2026-05-03T08:09:47.286Z</time></trkpt><trkpt lat="42.3127383" lon="13.622895"><ele>989.857142857143</ele><time>2026-05-03T08:09:48.286Z</time></trkpt><trkpt lat="42.3127017" lon="13.62297"><ele>991.0000000000001</ele><time>2026-05-03T08:09:49.286Z</time></trkpt><trkpt lat="42.312675" lon="13.623055"><ele>990.9999999999999</ele><time>2026-05-03T08:09:50.286Z</time></trkpt><trkpt lat="42.312645" lon="13.62313"><ele>991.0</ele><time>2026-05-03T08:09:51.286Z</time></trkpt><trkpt lat="42.312575" lon="13.6232383"><ele>991.0</ele><time>2026-05-03T08:09:53.286Z</time></trkpt><trkpt lat="42.3124967" lon="13.6233333"><ele>991.0</ele><time>2026-05-03T08:09:55.286Z</time></trkpt><trkpt lat="42.312435" lon="13.6234017"><ele>990.9999999999999</ele><time>2026-05-03T08:09:57.287Z</time></trkpt><trkpt lat="42.312395" lon="13.6234683"><ele>991.0</ele><time>2026-05-03T08:09:58.286Z</time></trkpt><trkpt lat="42.3123533" lon="13.6235433"><ele>990.9999999999999</ele><time>2026-05-03T08:09:59.286Z</time></trkpt><trkpt lat="42.3123133" lon="13.623615"><ele>991.0</ele><time>2026-05-03T08:10:00.286Z</time></trkpt><trkpt lat="42.31224" lon="13.623745"><ele>991.0</ele><time>2026-05-03T08:10:02.286Z</time></trkpt><trkpt lat="42.3121717" lon="13.6238867"><ele>991.0</ele><time>2026-05-03T08:10:04.286Z</time></trkpt><trkpt lat="42.312135" lon="13.6239567"><ele>990.9999999999999</ele><time>2026-05-03T08:10:05.286Z</time></trkpt><trkpt lat="42.3120917" lon="13.6240367"><ele>991.0</ele><time>2026-05-03T08:10:06.286Z</time></trkpt><trkpt lat="42.3120483" lon="13.624125"><ele>991.4285714285716</ele><time>2026-05-03T08:10:07.286Z</time></trkpt><trkpt lat="42.3120017" lon="13.6242133"><ele>991.8571428571429</ele><time>2026-05-03T08:10:08.286Z</time></trkpt><trkpt lat="42.3119617" lon="13.6242883"><ele>992.2857142857143</ele><time>2026-05-03T08:10:09.286Z</time></trkpt><trkpt lat="42.3119233" lon="13.6243633"><ele>992.7142857142858</ele><time>2026-05-03T08:10:10.286Z</time></trkpt><trkpt lat="42.3118783" lon="13.6244433"><ele>993.1428571428571</ele><time>2026-05-03T08:10:11.286Z</time></trkpt><trkpt lat="42.3118333" lon="13.6245217"><ele>993.5714285714286</ele><time>2026-05-03T08:10:12.286Z</time></trkpt><trkpt lat="42.3117917" lon="13.6246"><ele>994.0</ele><time>2026-05-03T08:10:13.286Z</time></trkpt><trkpt lat="42.3117483" lon="13.624675"><ele>994.0</ele><time>2026-05-03T08:10:14.286Z</time></trkpt><trkpt lat="42.3117083" lon="13.6247517"><ele>994.0</ele><time>2026-05-03T08:10:15.286Z</time></trkpt><trkpt lat="42.3116533" lon="13.6248133"><ele>994.0</ele><time>2026-05-03T08:10:16.286Z</time></trkpt><trkpt lat="42.3115967" lon="13.624875"><ele>994.0</ele><time>2026-05-03T08:10:17.286Z</time></trkpt><trkpt lat="42.31154" lon="13.6249367"><ele>994.0</ele><time>2026-05-03T08:10:18.286Z</time></trkpt><trkpt lat="42.3114867" lon="13.6250033"><ele>994.0</ele><time>2026-05-03T08:10:19.286Z</time></trkpt><trkpt lat="42.3114417" lon="13.62508"><ele>994.0</ele><time>2026-05-03T08:10:20.286Z</time></trkpt><trkpt lat="42.3113917" lon="13.62516"><ele>996.9999999999999</ele><time>2026-05-03T08:10:21.286Z</time></trkpt><trkpt lat="42.3113467" lon="13.6252383"><ele>1000.0</ele><time>2026-05-03T08:10:22.286Z</time></trkpt><trkpt lat="42.3112933" lon="13.6253233"><ele>1003.0</ele><time>2026-05-03T08:10:23.286Z</time></trkpt><trkpt lat="42.31124" lon="13.6254267"><ele>1006.0</ele><time>2026-05-03T08:10:24.286Z</time></trkpt><trkpt lat="42.3111933" lon="13.62551"><ele>1008.9999999999999</ele><time>2026-05-03T08:10:25.286Z</time></trkpt><trkpt lat="42.3111533" lon="13.6256017"><ele>1012.0</ele><time>2026-05-03T08:10:26.287Z</time></trkpt><trkpt lat="42.31112" lon="13.6256883"><ele>1011.9999999999999</ele><time>2026-05-03T08:10:27.286Z</time></trkpt><trkpt lat="42.3110717" lon="13.6257817"><ele>1012.0</ele><time>2026-05-03T08:10:28.286Z</time></trkpt><trkpt lat="42.311025" lon="13.62587"><ele>1012.0</ele><time>2026-05-03T08:10:29.286Z</time></trkpt><trkpt lat="42.31098" lon="13.6259633"><ele>1012.0</ele><time>2026-05-03T08:10:30.286Z</time></trkpt><trkpt lat="42.310935" lon="13.6260583"><ele>1011.9999999999999</ele><time>2026-05-03T08:10:31.286Z</time></trkpt><trkpt lat="42.3108883" lon="13.626145"><ele>1012.0</ele><time>2026-05-03T08:10:32.286Z</time></trkpt><trkpt lat="42.3108483" lon="13.6262533"><ele>1010.3333333333333</ele><time>2026-05-03T08:10:33.286Z</time></trkpt><trkpt lat="42.310815" lon="13.62636"><ele>1008.6666666666666</ele><time>2026-05-03T08:10:34.286Z</time></trkpt><trkpt lat="42.31077" lon="13.6264467"><ele>1007.0</ele><time>2026-05-03T08:10:35.286Z</time></trkpt><trkpt lat="42.3107233" lon="13.6265417"><ele>1005.3333333333333</ele><time>2026-05-03T08:10:36.286Z</time></trkpt><trkpt lat="42.3106733" lon="13.6266383"><ele>1003.6666666666666</ele><time>2026-05-03T08:10:37.287Z</time></trkpt><trkpt lat="42.3106233" lon="13.6267283"><ele>1002.0</ele><time>2026-05-03T08:10:38.286Z</time></trkpt><trkpt lat="42.310565" lon="13.6268117"><ele>1003.0</ele><time>2026-05-03T08:10:39.286Z</time></trkpt><trkpt lat="42.3105083" lon="13.6269083"><ele>1004.0</ele><time>2026-05-03T08:10:40.286Z</time></trkpt><trkpt lat="42.3104617" lon="13.6269983"><ele>1005.0</ele><time>2026-05-03T08:10:41.286Z</time></trkpt><trkpt lat="42.310395" lon="13.627125"><ele>1006.0</ele><time>2026-05-03T08:10:43.286Z</time></trkpt><trkpt lat="42.3103483" lon="13.6272617"><ele>1007.0</ele><time>2026-05-03T08:10:45.286Z</time></trkpt><trkpt lat="42.3103233" lon="13.6273417"><ele>1007.0</ele><time>2026-05-03T08:10:46.286Z</time></trkpt><trkpt lat="42.31029" lon="13.6274233"><ele>1007.0</ele><time>2026-05-03T08:10:47.286Z</time></trkpt><trkpt lat="42.3102583" lon="13.6275083"><ele>1007.0</ele><time>2026-05-03T08:10:48.286Z</time></trkpt><trkpt lat="42.310185" lon="13.6276183"><ele>1007.0</ele><time>2026-05-03T08:10:50.286Z</time></trkpt><trkpt lat="42.31011" lon="13.6277067"><ele>1007.0</ele><time>2026-05-03T08:10:52.286Z</time></trkpt><trkpt lat="42.31003" lon="13.62785"><ele>1005.6666666666667</ele><time>2026-05-03T08:10:54.286Z</time></trkpt><trkpt lat="42.309995" lon="13.627945"><ele>1004.3333333333334</ele><time>2026-05-03T08:10:55.286Z</time></trkpt><trkpt lat="42.3099583" lon="13.6280383"><ele>1003.0</ele><time>2026-05-03T08:10:56.286Z</time></trkpt><trkpt lat="42.3099217" lon="13.628125"><ele>1001.6666666666667</ele><time>2026-05-03T08:10:57.286Z</time></trkpt><trkpt lat="42.3098817" lon="13.6282117"><ele>1000.3333333333334</ele><time>2026-05-03T08:10:58.287Z</time></trkpt><trkpt lat="42.3098417" lon="13.6283033"><ele>999.0</ele><time>2026-05-03T08:10:59.286Z</time></trkpt><trkpt lat="42.3098" lon="13.6283933"><ele>999.0</ele><time>2026-05-03T08:11:00.286Z</time></trkpt><trkpt lat="42.30976" lon="13.6284783"><ele>999.0</ele><time>2026-05-03T08:11:01.286Z</time></trkpt><trkpt lat="42.3097183" lon="13.6285617"><ele>999.0</ele><time>2026-05-03T08:11:02.287Z</time></trkpt><trkpt lat="42.309675" lon="13.628655"><ele>999.0</ele><time>2026-05-03T08:11:03.286Z</time></trkpt><trkpt lat="42.30963" lon="13.628735"><ele>999.0</ele><time>2026-05-03T08:11:04.286Z</time></trkpt><trkpt lat="42.3095483" lon="13.62887"><ele>999.0</ele><time>2026-05-03T08:11:06.287Z</time></trkpt><trkpt lat="42.309515" lon="13.6289483"><ele>1000.8333333333334</ele><time>2026-05-03T08:11:07.286Z</time></trkpt><trkpt lat="42.3094817" lon="13.62904"><ele>1002.6666666666667</ele><time>2026-05-03T08:11:08.287Z</time></trkpt><trkpt lat="42.3094517" lon="13.62913"><ele>1004.5</ele><time>2026-05-03T08:11:09.286Z</time></trkpt><trkpt lat="42.309415" lon="13.6292167"><ele>1006.3333333333334</ele><time>2026-05-03T08:11:10.286Z</time></trkpt><trkpt lat="42.3093317" lon="13.62934"><ele>1008.1666666666667</ele><time>2026-05-03T08:11:12.286Z</time></trkpt><trkpt lat="42.3092867" lon="13.6294017"><ele>1010.0</ele><time>2026-05-03T08:11:13.286Z</time></trkpt><trkpt lat="42.309205" lon="13.62951"><ele>1010.0</ele><time>2026-05-03T08:11:15.286Z</time></trkpt><trkpt lat="42.3091517" lon="13.62959"><ele>1010.0</ele><time>2026-05-03T08:11:16.286Z</time></trkpt><trkpt lat="42.3090717" lon="13.6297233"><ele>1010.0</ele><time>2026-05-03T08:11:18.286Z</time></trkpt><trkpt lat="42.30901" lon="13.6298517"><ele>1010.0</ele><time>2026-05-03T08:11:20.286Z</time></trkpt><trkpt lat="42.308985" lon="13.6299683"><ele>1010.0</ele><time>2026-05-03T08:11:22.286Z</time></trkpt><trkpt lat="42.3089617" lon="13.63009"><ele>1010.0000000000001</ele><time>2026-05-03T08:11:23.286Z</time></trkpt><trkpt lat="42.3089333" lon="13.6302167"><ele>1010.0</ele><time>2026-05-03T08:11:24.286Z</time></trkpt><trkpt lat="42.308905" lon="13.6303283"><ele>1010.0</ele><time>2026-05-03T08:11:25.286Z</time></trkpt><trkpt lat="42.308885" lon="13.6304333"><ele>1010.0</ele><time>2026-05-03T08:11:26.287Z</time></trkpt><trkpt lat="42.308865" lon="13.6305317"><ele>1010.0000000000001</ele><time>2026-05-03T08:11:27.286Z</time></trkpt><trkpt lat="42.3088633" lon="13.6306283"><ele>1010.0</ele><time>2026-05-03T08:11:28.286Z</time></trkpt><trkpt lat="42.3088733" lon="13.6307217"><ele>1009.8333333333334</ele><time>2026-05-03T08:11:29.286Z</time></trkpt><trkpt lat="42.308885" lon="13.6308267"><ele>1009.6666666666667</ele><time>2026-05-03T08:11:30.286Z</time></trkpt><trkpt lat="42.308905" lon="13.6309267"><ele>1009.5</ele><time>2026-05-03T08:11:31.286Z</time></trkpt><trkpt lat="42.3089333" lon="13.63102"><ele>1009.3333333333333</ele><time>2026-05-03T08:11:32.286Z</time></trkpt><trkpt lat="42.308955" lon="13.6311"><ele>1009.1666666666666</ele><time>2026-05-03T08:11:33.286Z</time></trkpt><trkpt lat="42.3089483" lon="13.63125"><ele>1009.0</ele><time>2026-05-03T08:11:35.286Z</time></trkpt><trkpt lat="42.3089033" lon="13.6313783"><ele>1007.0</ele><time>2026-05-03T08:11:37.287Z</time></trkpt><trkpt lat="42.30886" lon="13.6315183"><ele>1005.0000000000001</ele><time>2026-05-03T08:11:39.286Z</time></trkpt><trkpt lat="42.3088333" lon="13.63168"><ele>1003.0000000000001</ele><time>2026-05-03T08:11:41.286Z</time></trkpt><trkpt lat="42.3088183" lon="13.6317717"><ele>1001.0</ele><time>2026-05-03T08:11:42.286Z</time></trkpt><trkpt lat="42.3087867" lon="13.6319333"><ele>999.0</ele><time>2026-05-03T08:11:44.286Z</time></trkpt><trkpt lat="42.3087567" lon="13.6320133"><ele>998.5</ele><time>2026-05-03T08:11:45.286Z</time></trkpt><trkpt lat="42.3087233" lon="13.6320967"><ele>998.0</ele><time>2026-05-03T08:11:46.286Z</time></trkpt><trkpt lat="42.30867" lon="13.6322417"><ele>997.5</ele><time>2026-05-03T08:11:48.286Z</time></trkpt><trkpt lat="42.3085967" lon="13.6323867"><ele>997.0</ele><time>2026-05-03T08:11:50.286Z</time></trkpt><trkpt lat="42.3085233" lon="13.6325367"><ele>996.9999999999999</ele><time>2026-05-03T08:11:52.286Z</time></trkpt><trkpt lat="42.308485" lon="13.6326267"><ele>997.0</ele><time>2026-05-03T08:11:53.286Z</time></trkpt><trkpt lat="42.308445" lon="13.6327217"><ele>997.0</ele><time>2026-05-03T08:11:54.286Z</time></trkpt><trkpt lat="42.3084033" lon="13.6328183"><ele>997.0</ele><time>2026-05-03T08:11:55.286Z</time></trkpt><trkpt lat="42.30836" lon="13.6329133"><ele>996.9999999999999</ele><time>2026-05-03T08:11:56.286Z</time></trkpt><trkpt lat="42.3083167" lon="13.6330117"><ele>997.0</ele><time>2026-05-03T08:11:57.286Z</time></trkpt><trkpt lat="42.30827" lon="13.6331033"><ele>997.3333333333333</ele><time>2026-05-03T08:11:58.286Z</time></trkpt><trkpt lat="42.3082183" lon="13.6331983"><ele>997.6666666666666</ele><time>2026-05-03T08:11:59.286Z</time></trkpt><trkpt lat="42.3081633" lon="13.633295"><ele>998.0</ele><time>2026-05-03T08:12:00.286Z</time></trkpt><trkpt lat="42.3081083" lon="13.63339"><ele>998.3333333333333</ele><time>2026-05-03T08:12:01.286Z</time></trkpt><trkpt lat="42.3080617" lon="13.6334883"><ele>998.6666666666666</ele><time>2026-05-03T08:12:02.286Z</time></trkpt><trkpt lat="42.3080233" lon="13.63358"><ele>999.0</ele><time>2026-05-03T08:12:03.286Z</time></trkpt><trkpt lat="42.30799" lon="13.6336683"><ele>996.8000000000001</ele><time>2026-05-03T08:12:04.286Z</time></trkpt><trkpt lat="42.3079533" lon="13.6337467"><ele>994.6000000000001</ele><time>2026-05-03T08:12:05.286Z</time></trkpt><trkpt lat="42.3079133" lon="13.6338167"><ele>992.4</ele><time>2026-05-03T08:12:06.286Z</time></trkpt><trkpt lat="42.3078183" lon="13.6339433"><ele>990.2</ele><time>2026-05-03T08:12:08.286Z</time></trkpt><trkpt lat="42.307765" lon="13.63399"><ele>988.0</ele><time>2026-05-03T08:12:09.286Z</time></trkpt><trkpt lat="42.30764" lon="13.63408"><ele>988.0</ele><time>2026-05-03T08:12:11.286Z</time></trkpt><trkpt lat="42.3075767" lon="13.634135"><ele>988.0</ele><time>2026-05-03T08:12:12.286Z</time></trkpt><trkpt lat="42.3075117" lon="13.6342117"><ele>988.0</ele><time>2026-05-03T08:12:13.286Z</time></trkpt><trkpt lat="42.3074417" lon="13.6343033"><ele>988.0</ele><time>2026-05-03T08:12:14.286Z</time></trkpt><trkpt lat="42.307365" lon="13.6344167"><ele>988.0</ele><time>2026-05-03T08:12:15.286Z</time></trkpt><trkpt lat="42.3072967" lon="13.634535"><ele>987.25</ele><time>2026-05-03T08:12:16.286Z</time></trkpt><trkpt lat="42.3072267" lon="13.6346733"><ele>986.5</ele><time>2026-05-03T08:12:17.286Z</time></trkpt><trkpt lat="42.3071517" lon="13.634805"><ele>985.75</ele><time>2026-05-03T08:12:18.286Z</time></trkpt><trkpt lat="42.307075" lon="13.6349383"><ele>985.0</ele><time>2026-05-03T08:12:19.286Z</time></trkpt><trkpt lat="42.3070117" lon="13.6350683"><ele>985.0</ele><time>2026-05-03T08:12:20.286Z</time></trkpt><trkpt lat="42.30695" lon="13.6351733"><ele>985.0</ele><time>2026-05-03T08:12:21.286Z</time></trkpt><trkpt lat="42.306895" lon="13.6352883"><ele>985.0</ele><time>2026-05-03T08:12:22.286Z</time></trkpt><trkpt lat="42.3068367" lon="13.63539"><ele>985.0</ele><time>2026-05-03T08:12:23.286Z</time></trkpt><trkpt lat="42.3067817" lon="13.6354883"><ele>985.0</ele><time>2026-05-03T08:12:24.286Z</time></trkpt><trkpt lat="42.3067267" lon="13.6355883"><ele>984.8333333333333</ele><time>2026-05-03T08:12:25.286Z</time></trkpt><trkpt lat="42.3066767" lon="13.6356817"><ele>984.6666666666666</ele><time>2026-05-03T08:12:26.286Z</time></trkpt><trkpt lat="42.306635" lon="13.635765"><ele>984.5</ele><time>2026-05-03T08:12:27.286Z</time></trkpt><trkpt lat="42.306595" lon="13.635855"><ele>984.3333333333333</ele><time>2026-05-03T08:12:28.286Z</time></trkpt><trkpt lat="42.30655" lon="13.6359517"><ele>984.1666666666666</ele><time>2026-05-03T08:12:29.286Z</time></trkpt><trkpt lat="42.3065" lon="13.636055"><ele>984.0</ele><time>2026-05-03T08:12:30.286Z</time></trkpt><trkpt lat="42.3064467" lon="13.6361617"><ele>983.0</ele><time>2026-05-03T08:12:31.286Z</time></trkpt><trkpt lat="42.3063917" lon="13.6362733"><ele>982.0</ele><time>2026-05-03T08:12:32.286Z</time></trkpt><trkpt lat="42.3063483" lon="13.636365"><ele>981.0</ele><time>2026-05-03T08:12:33.286Z</time></trkpt><trkpt lat="42.3063033" lon="13.6364683"><ele>980.0</ele><time>2026-05-03T08:12:34.286Z</time></trkpt><trkpt lat="42.306265" lon="13.636575"><ele>979.0</ele><time>2026-05-03T08:12:35.286Z</time></trkpt><trkpt lat="42.3062333" lon="13.6366817"><ele>978.0</ele><time>2026-05-03T08:12:36.286Z</time></trkpt><trkpt lat="42.3062067" lon="13.6367967"><ele>978.0</ele><time>2026-05-03T08:12:37.286Z</time></trkpt><trkpt lat="42.3061783" lon="13.636905"><ele>978.0</ele><time>2026-05-03T08:12:38.286Z</time></trkpt><trkpt lat="42.3061417" lon="13.637005"><ele>978.0</ele><time>2026-05-03T08:12:39.287Z</time></trkpt><trkpt lat="42.3061117" lon="13.6371083"><ele>978.0</ele><time>2026-05-03T08:12:40.286Z</time></trkpt><trkpt lat="42.306085" lon="13.6371933"><ele>978.0</ele><time>2026-05-03T08:12:41.286Z</time></trkpt><trkpt lat="42.3060667" lon="13.6372833"><ele>978.0</ele><time>2026-05-03T08:12:42.287Z</time></trkpt><trkpt lat="42.3060367" lon="13.637375"><ele>977.1666666666666</ele><time>2026-05-03T08:12:43.286Z</time></trkpt><trkpt lat="42.3060083" lon="13.637475"><ele>976.3333333333333</ele><time>2026-05-03T08:12:44.286Z</time></trkpt><trkpt lat="42.3059767" lon="13.637575"><ele>975.5</ele><time>2026-05-03T08:12:45.286Z</time></trkpt><trkpt lat="42.3059433" lon="13.6376733"><ele>974.6666666666666</ele><time>2026-05-03T08:12:46.286Z</time></trkpt><trkpt lat="42.3059133" lon="13.6377767"><ele>973.8333333333333</ele><time>2026-05-03T08:12:47.286Z</time></trkpt><trkpt lat="42.305885" lon="13.6378767"><ele>973.0</ele><time>2026-05-03T08:12:48.286Z</time></trkpt><trkpt lat="42.3058633" lon="13.6379767"><ele>972.4285714285714</ele><time>2026-05-03T08:12:49.286Z</time></trkpt><trkpt lat="42.3058483" lon="13.6380717"><ele>971.8571428571429</ele><time>2026-05-03T08:12:50.287Z</time></trkpt><trkpt lat="42.3058433" lon="13.63817"><ele>971.2857142857142</ele><time>2026-05-03T08:12:51.286Z</time></trkpt><trkpt lat="42.30583" lon="13.638275"><ele>970.7142857142857</ele><time>2026-05-03T08:12:52.286Z</time></trkpt><trkpt lat="42.3058033" lon="13.6383617"><ele>970.1428571428571</ele><time>2026-05-03T08:12:53.286Z</time></trkpt><trkpt lat="42.30577" lon="13.6384517"><ele>969.5714285714284</ele><time>2026-05-03T08:12:54.286Z</time></trkpt><trkpt lat="42.305735" lon="13.6385283"><ele>968.9999999999999</ele><time>2026-05-03T08:12:55.286Z</time></trkpt><trkpt lat="42.3056783" lon="13.63868"><ele>968.8333333333334</ele><time>2026-05-03T08:12:57.286Z</time></trkpt><trkpt lat="42.30566" lon="13.63877"><ele>968.6666666666667</ele><time>2026-05-03T08:12:58.286Z</time></trkpt><trkpt lat="42.305615" lon="13.6389"><ele>968.5</ele><time>2026-05-03T08:13:00.286Z</time></trkpt><trkpt lat="42.3055817" lon="13.638995"><ele>968.3333333333334</ele><time>2026-05-03T08:13:01.287Z</time></trkpt><trkpt lat="42.305555" lon="13.63908"><ele>968.1666666666667</ele><time>2026-05-03T08:13:02.286Z</time></trkpt><trkpt lat="42.3055283" lon="13.6391617"><ele>968.0</ele><time>2026-05-03T08:13:03.286Z</time></trkpt><trkpt lat="42.3054767" lon="13.6393017"><ele>968.0000000000001</ele><time>2026-05-03T08:13:05.287Z</time></trkpt><trkpt lat="42.3054167" lon="13.639465"><ele>968.0</ele><time>2026-05-03T08:13:07.286Z</time></trkpt><trkpt lat="42.30539" lon="13.6395467"><ele>968.0</ele><time>2026-05-03T08:13:08.286Z</time></trkpt><trkpt lat="42.3053667" lon="13.6396333"><ele>968.0</ele><time>2026-05-03T08:13:09.286Z</time></trkpt><trkpt lat="42.30535" lon="13.6397383"><ele>968.0000000000001</ele><time>2026-05-03T08:13:10.287Z</time></trkpt><trkpt lat="42.30532" lon="13.6398467"><ele>968.0</ele><time>2026-05-03T08:13:11.286Z</time></trkpt><trkpt lat="42.3052883" lon="13.63995"><ele>966.0</ele><time>2026-05-03T08:13:12.286Z</time></trkpt><trkpt lat="42.30526" lon="13.64005"><ele>963.9999999999999</ele><time>2026-05-03T08:13:13.287Z</time></trkpt><trkpt lat="42.3052333" lon="13.6401433"><ele>962.0</ele><time>2026-05-03T08:13:14.286Z</time></trkpt><trkpt lat="42.3052117" lon="13.6402317"><ele>960.0</ele><time>2026-05-03T08:13:15.286Z</time></trkpt><trkpt lat="42.3051833" lon="13.640325"><ele>957.9999999999999</ele><time>2026-05-03T08:13:16.287Z</time></trkpt><trkpt lat="42.3051567" lon="13.640405"><ele>956.0</ele><time>2026-05-03T08:13:17.286Z</time></trkpt><trkpt lat="42.3051333" lon="13.6404983"><ele>954.0</ele><time>2026-05-03T08:13:18.286Z</time></trkpt><trkpt lat="42.3050983" lon="13.64059"><ele>952.0</ele><time>2026-05-03T08:13:19.286Z</time></trkpt><trkpt lat="42.30506" lon="13.6406683"><ele>950.0</ele><time>2026-05-03T08:13:20.286Z</time></trkpt><trkpt lat="42.3050183" lon="13.6407333"><ele>948.0</ele><time>2026-05-03T08:13:21.286Z</time></trkpt><trkpt lat="42.304985" lon="13.64081"><ele>946.0</ele><time>2026-05-03T08:13:22.286Z</time></trkpt><trkpt lat="42.3049617" lon="13.640965"><ele>944.0</ele><time>2026-05-03T08:13:24.287Z</time></trkpt><trkpt lat="42.3049617" lon="13.6410617"><ele>942.0</ele><time>2026-05-03T08:13:25.286Z</time></trkpt><trkpt lat="42.3049667" lon="13.6411517"><ele>941.0000000000001</ele><time>2026-05-03T08:13:26.286Z</time></trkpt><trkpt lat="42.304955" lon="13.64126"><ele>940.0</ele><time>2026-05-03T08:13:27.286Z</time></trkpt><trkpt lat="42.3049267" lon="13.6413617"><ele>939.0000000000001</ele><time>2026-05-03T08:13:28.286Z</time></trkpt><trkpt lat="42.3049017" lon="13.6414483"><ele>938.0000000000001</ele><time>2026-05-03T08:13:29.286Z</time></trkpt><trkpt lat="42.3048867" lon="13.641545"><ele>937.0</ele><time>2026-05-03T08:13:30.286Z</time></trkpt><trkpt lat="42.3048683" lon="13.6416367"><ele>936.0000000000001</ele><time>2026-05-03T08:13:31.286Z</time></trkpt><trkpt lat="42.3048483" lon="13.64172"><ele>935.0000000000001</ele><time>2026-05-03T08:13:32.286Z</time></trkpt><trkpt lat="42.3048267" lon="13.6418033"><ele>935.0</ele><time>2026-05-03T08:13:33.286Z</time></trkpt><trkpt lat="42.304795" lon="13.6419533"><ele>935.0</ele><time>2026-05-03T08:13:35.287Z</time></trkpt><trkpt lat="42.3047333" lon="13.6420683"><ele>935.0</ele><time>2026-05-03T08:13:37.286Z</time></trkpt><trkpt lat="42.30465" lon="13.6421683"><ele>935.0</ele><time>2026-05-03T08:13:39.286Z</time></trkpt><trkpt lat="42.3045917" lon="13.642225"><ele>935.0</ele><time>2026-05-03T08:13:40.286Z</time></trkpt><trkpt lat="42.3045333" lon="13.6422917"><ele>932.5714285714287</ele><time>2026-05-03T08:13:41.286Z</time></trkpt><trkpt lat="42.3044817" lon="13.642365"><ele>930.1428571428571</ele><time>2026-05-03T08:13:42.286Z</time></trkpt><trkpt lat="42.3044333" lon="13.6424417"><ele>927.7142857142858</ele><time>2026-05-03T08:13:43.286Z</time></trkpt><trkpt lat="42.3043833" lon="13.6425167"><ele>925.2857142857143</ele><time>2026-05-03T08:13:44.286Z</time></trkpt><trkpt lat="42.3043367" lon="13.6425917"><ele>922.8571428571429</ele><time>2026-05-03T08:13:45.286Z</time></trkpt><trkpt lat="42.3042883" lon="13.64266"><ele>920.4285714285714</ele><time>2026-05-03T08:13:46.286Z</time></trkpt><trkpt lat="42.3042333" lon="13.6427167"><ele>918.0</ele><time>2026-05-03T08:13:47.286Z</time></trkpt><trkpt lat="42.304155" lon="13.6427817"><ele>919.0</ele><time>2026-05-03T08:13:49.286Z</time></trkpt><trkpt lat="42.3040967" lon="13.6428533"><ele>920.0</ele><time>2026-05-03T08:14:51.286Z</time></trkpt><trkpt lat="42.3040083" lon="13.642895"><ele>921.0</ele><time>2026-05-03T08:14:54.286Z</time></trkpt><trkpt lat="42.303925" lon="13.642885"><ele>922.0</ele><time>2026-05-03T08:14:56.286Z</time></trkpt><trkpt lat="42.3038233" lon="13.6429083"><ele>923.0</ele><time>2026-05-03T08:14:58.286Z</time></trkpt><trkpt lat="42.303715" lon="13.6429417"><ele>919.8</ele><time>2026-05-03T08:15:00.286Z</time></trkpt><trkpt lat="42.3036367" lon="13.6429683"><ele>916.5999999999999</ele><time>2026-05-03T08:15:02.286Z</time></trkpt><trkpt lat="42.303535" lon="13.64299"><ele>913.4000000000001</ele><time>2026-05-03T08:15:05.286Z</time></trkpt><trkpt lat="42.30343" lon="13.6430217"><ele>910.2</ele><time>2026-05-03T08:15:07.286Z</time></trkpt><trkpt lat="42.3033233" lon="13.643065"><ele>907.0</ele><time>2026-05-03T08:15:09.286Z</time></trkpt><trkpt lat="42.303225" lon="13.643095"><ele>907.0</ele><time>2026-05-03T08:15:11.286Z</time></trkpt><trkpt lat="42.3031217" lon="13.6431267"><ele>907.0</ele><time>2026-05-03T08:15:13.286Z</time></trkpt><trkpt lat="42.3030317" lon="13.6431583"><ele>907.0</ele><time>2026-05-03T08:15:15.286Z</time></trkpt><trkpt lat="42.3029133" lon="13.64319"><ele>907.0</ele><time>2026-05-03T08:15:17.286Z</time></trkpt><trkpt lat="42.3028017" lon="13.6431933"><ele>907.0</ele><time>2026-05-03T08:15:19.286Z</time></trkpt><trkpt lat="42.3026917" lon="13.6431917"><ele>903.0</ele><time>2026-05-03T08:15:21.286Z</time></trkpt><trkpt lat="42.302585" lon="13.6431483"><ele>899.0</ele><time>2026-05-03T08:15:23.286Z</time></trkpt><trkpt lat="42.3024783" lon="13.6431017"><ele>895.0</ele><time>2026-05-03T08:15:25.286Z</time></trkpt><trkpt lat="42.3023683" lon="13.64309"><ele>891.0</ele><time>2026-05-03T08:15:27.286Z</time></trkpt><trkpt lat="42.3022533" lon="13.6431133"><ele>889.0</ele><time>2026-05-03T08:15:29.286Z</time></trkpt><trkpt lat="42.302145" lon="13.6431783"><ele>886.9999999999999</ele><time>2026-05-03T08:15:31.287Z</time></trkpt><trkpt lat="42.3020433" lon="13.643235"><ele>884.9999999999999</ele><time>2026-05-03T08:15:33.286Z</time></trkpt><trkpt lat="42.3019267" lon="13.6432833"><ele>883.0</ele><time>2026-05-03T08:15:35.286Z</time></trkpt><trkpt lat="42.3018567" lon="13.6433033"><ele>881.0</ele><time>2026-05-03T08:15:36.286Z</time></trkpt><trkpt lat="42.3017817" lon="13.64332"><ele>881.0000000000001</ele><time>2026-05-03T08:15:37.286Z</time></trkpt><trkpt lat="42.30171" lon="13.6433417"><ele>881.0</ele><time>2026-05-03T08:15:38.286Z</time></trkpt><trkpt lat="42.30164" lon="13.6433483"><ele>881.0</ele><time>2026-05-03T08:15:39.286Z</time></trkpt><trkpt lat="42.3015133" lon="13.643375"><ele>881.0</ele><time>2026-05-03T08:15:41.286Z</time></trkpt><trkpt lat="42.3014417" lon="13.6434017"><ele>881.0000000000001</ele><time>2026-05-03T08:15:42.286Z</time></trkpt><trkpt lat="42.301365" lon="13.643435"><ele>881.0</ele><time>2026-05-03T08:15:43.286Z</time></trkpt><trkpt lat="42.3012933" lon="13.6434733"><ele>879.8333333333334</ele><time>2026-05-03T08:15:44.287Z</time></trkpt><trkpt lat="42.30123" lon="13.6435033"><ele>878.6666666666667</ele><time>2026-05-03T08:15:45.287Z</time></trkpt><trkpt lat="42.3011667" lon="13.6435333"><ele>877.5</ele><time>2026-05-03T08:15:46.286Z</time></trkpt><trkpt lat="42.3010467" lon="13.64358"><ele>876.3333333333333</ele><time>2026-05-03T08:15:48.286Z</time></trkpt><trkpt lat="42.3009783" lon="13.6436033"><ele>875.1666666666666</ele><time>2026-05-03T08:15:49.286Z</time></trkpt><trkpt lat="42.3009117" lon="13.6436283"><ele>874.0</ele><time>2026-05-03T08:15:50.286Z</time></trkpt><trkpt lat="42.30084" lon="13.6436567"><ele>873.5714285714286</ele><time>2026-05-03T08:15:51.286Z</time></trkpt><trkpt lat="42.300765" lon="13.6436867"><ele>873.1428571428572</ele><time>2026-05-03T08:15:52.286Z</time></trkpt><trkpt lat="42.3007033" lon="13.64372"><ele>872.7142857142858</ele><time>2026-05-03T08:15:53.286Z</time></trkpt><trkpt lat="42.30064" lon="13.6437567"><ele>872.2857142857142</ele><time>2026-05-03T08:15:54.286Z</time></trkpt><trkpt lat="42.3005733" lon="13.6437883"><ele>871.8571428571429</ele><time>2026-05-03T08:15:55.286Z</time></trkpt><trkpt lat="42.3005" lon="13.6438167"><ele>871.4285714285714</ele><time>2026-05-03T08:15:56.286Z</time></trkpt><trkpt lat="42.3004217" lon="13.6438283"><ele>871.0</ele><time>2026-05-03T08:15:57.286Z</time></trkpt><trkpt lat="42.3003483" lon="13.64384"><ele>870.1428571428571</ele><time>2026-05-03T08:15:58.286Z</time></trkpt><trkpt lat="42.3002767" lon="13.6438483"><ele>869.2857142857142</ele><time>2026-05-03T08:15:59.287Z</time></trkpt><trkpt lat="42.3002067" lon="13.6438583"><ele>868.4285714285714</ele><time>2026-05-03T08:16:00.286Z</time></trkpt><trkpt lat="42.3001333" lon="13.6438767"><ele>867.5714285714286</ele><time>2026-05-03T08:16:01.286Z</time></trkpt><trkpt lat="42.3000617" lon="13.6438783"><ele>866.7142857142858</ele><time>2026-05-03T08:16:02.286Z</time></trkpt><trkpt lat="42.2999917" lon="13.6438767"><ele>865.8571428571429</ele><time>2026-05-03T08:16:03.286Z</time></trkpt><trkpt lat="42.2999267" lon="13.64387"><ele>865.0</ele><time>2026-05-03T08:16:04.286Z</time></trkpt><trkpt lat="42.2998633" lon="13.6438583"><ele>864.3333333333333</ele><time>2026-05-03T08:16:05.286Z</time></trkpt><trkpt lat="42.29975" lon="13.6438383"><ele>863.6666666666666</ele><time>2026-05-03T08:16:07.286Z</time></trkpt><trkpt lat="42.29965" lon="13.6437683"><ele>863.0</ele><time>2026-05-03T08:16:09.286Z</time></trkpt><trkpt lat="42.299595" lon="13.6437133"><ele>862.3333333333333</ele><time>2026-05-03T08:16:10.286Z</time></trkpt><trkpt lat="42.2995333" lon="13.643655"><ele>861.6666666666666</ele><time>2026-05-03T08:16:11.286Z</time></trkpt><trkpt lat="42.2994717" lon="13.6436"><ele>861.0</ele><time>2026-05-03T08:16:12.287Z</time></trkpt><trkpt lat="42.2994167" lon="13.643555"><ele>860.0</ele><time>2026-05-03T08:16:13.286Z</time></trkpt><trkpt lat="42.2993267" lon="13.64348"><ele>858.9999999999999</ele><time>2026-05-03T08:16:15.286Z</time></trkpt><trkpt lat="42.2992533" lon="13.6434233"><ele>857.9999999999999</ele><time>2026-05-03T08:16:17.286Z</time></trkpt><trkpt lat="42.29919" lon="13.6433667"><ele>857.0</ele><time>2026-05-03T08:16:19.286Z</time></trkpt><trkpt lat="42.2991" lon="13.6432683"><ele>856.0</ele><time>2026-05-03T08:16:22.287Z</time></trkpt><trkpt lat="42.29905" lon="13.643205"><ele>855.9999999999999</ele><time>2026-05-03T08:16:23.286Z</time></trkpt><trkpt lat="42.2989967" lon="13.6431517"><ele>856.0</ele><time>2026-05-03T08:16:24.286Z</time></trkpt><trkpt lat="42.2989317" lon="13.643095"><ele>856.0</ele><time>2026-05-03T08:16:25.286Z</time></trkpt><trkpt lat="42.2988567" lon="13.6430267"><ele>856.0</ele><time>2026-05-03T08:16:26.287Z</time></trkpt><trkpt lat="42.2987767" lon="13.6429483"><ele>855.9999999999999</ele><time>2026-05-03T08:16:27.286Z</time></trkpt><trkpt lat="42.298705" lon="13.642865"><ele>856.0</ele><time>2026-05-03T08:16:28.286Z</time></trkpt><trkpt lat="42.2986333" lon="13.642775"><ele>853.4</ele><time>2026-05-03T08:16:29.286Z</time></trkpt><trkpt lat="42.2985633" lon="13.6426717"><ele>850.8</ele><time>2026-05-03T08:16:30.286Z</time></trkpt><trkpt lat="42.2985" lon="13.64256"><ele>848.1999999999999</ele><time>2026-05-03T08:16:31.286Z</time></trkpt><trkpt lat="42.2984333" lon="13.6424517"><ele>845.5999999999999</ele><time>2026-05-03T08:16:32.286Z</time></trkpt><trkpt lat="42.2983667" lon="13.642345"><ele>843.0</ele><time>2026-05-03T08:16:33.286Z</time></trkpt><trkpt lat="42.2982867" lon="13.6422267"><ele>843.0</ele><time>2026-05-03T08:16:34.287Z</time></trkpt><trkpt lat="42.2981983" lon="13.642105"><ele>843.0</ele><time>2026-05-03T08:16:35.286Z</time></trkpt><trkpt lat="42.2981167" lon="13.6419883"><ele>843.0</ele><time>2026-05-03T08:16:36.286Z</time></trkpt><trkpt lat="42.2980433" lon="13.6418833"><ele>843.0</ele><time>2026-05-03T08:16:37.287Z</time></trkpt><trkpt lat="42.2979867" lon="13.6418017"><ele>843.0</ele><time>2026-05-03T08:16:38.287Z</time></trkpt><trkpt lat="42.2979417" lon="13.641725"><ele>841.0</ele><time>2026-05-03T08:16:39.286Z</time></trkpt><trkpt lat="42.297905" lon="13.64165"><ele>839.0</ele><time>2026-05-03T08:16:40.286Z</time></trkpt><trkpt lat="42.297835" lon="13.6415767"><ele>837.0</ele><time>2026-05-03T08:16:42.286Z</time></trkpt><trkpt lat="42.2977717" lon="13.6415567"><ele>835.0</ele><time>2026-05-03T08:16:44.287Z</time></trkpt><trkpt lat="42.2976417" lon="13.6415717"><ele>833.0</ele><time>2026-05-03T08:16:46.286Z</time></trkpt><trkpt lat="42.2975667" lon="13.6415917"><ele>831.0</ele><time>2026-05-03T08:16:47.286Z</time></trkpt><trkpt lat="42.297485" lon="13.64159"><ele>831.0</ele><time>2026-05-03T08:16:48.286Z</time></trkpt><trkpt lat="42.2974" lon="13.6416"><ele>831.0</ele><time>2026-05-03T08:16:49.287Z</time></trkpt><trkpt lat="42.2973217" lon="13.6415933"><ele>831.0</ele><time>2026-05-03T08:16:50.286Z</time></trkpt><trkpt lat="42.2972367" lon="13.6415883"><ele>831.0</ele><time>2026-05-03T08:16:51.286Z</time></trkpt><trkpt lat="42.29716" lon="13.64158"><ele>831.0</ele><time>2026-05-03T08:16:52.287Z</time></trkpt><trkpt lat="42.2970867" lon="13.6415667"><ele>831.0</ele><time>2026-05-03T08:16:53.286Z</time></trkpt><trkpt lat="42.297015" lon="13.6415533"><ele>829.5</ele><time>2026-05-03T08:16:54.286Z</time></trkpt><trkpt lat="42.296945" lon="13.6415483"><ele>828.0</ele><time>2026-05-03T08:16:55.286Z</time></trkpt><trkpt lat="42.2968817" lon="13.6415317"><ele>826.5</ele><time>2026-05-03T08:16:56.287Z</time></trkpt><trkpt lat="42.2968183" lon="13.6415167"><ele>825.0</ele><time>2026-05-03T08:16:57.286Z</time></trkpt><trkpt lat="42.2967133" lon="13.6414933"><ele>823.5</ele><time>2026-05-03T08:16:59.286Z</time></trkpt><trkpt lat="42.296645" lon="13.6415067"><ele>822.0</ele><time>2026-05-03T08:17:00.286Z</time></trkpt><trkpt lat="42.29655" lon="13.6415267"><ele>822.0</ele><time>2026-05-03T08:17:01.286Z</time></trkpt><trkpt lat="42.29644" lon="13.6415433"><ele>822.0</ele><time>2026-05-03T08:17:02.286Z</time></trkpt><trkpt lat="42.2963383" lon="13.6415417"><ele>822.0</ele><time>2026-05-03T08:17:03.286Z</time></trkpt><trkpt lat="42.2962417" lon="13.6415283"><ele>822.0</ele><time>2026-05-03T08:17:04.286Z</time></trkpt><trkpt lat="42.296165" lon="13.6415017"><ele>822.0</ele><time>2026-05-03T08:17:05.286Z</time></trkpt><trkpt lat="42.296095" lon="13.6414733"><ele>820.5</ele><time>2026-05-03T08:17:06.286Z</time></trkpt><trkpt lat="42.2960233" lon="13.6414317"><ele>819.0</ele><time>2026-05-03T08:17:07.286Z</time></trkpt><trkpt lat="42.2959517" lon="13.6413783"><ele>817.5</ele><time>2026-05-03T08:17:08.286Z</time></trkpt><trkpt lat="42.295885" lon="13.641345"><ele>816.0</ele><time>2026-05-03T08:17:09.286Z</time></trkpt><trkpt lat="42.29581" lon="13.64132"><ele>814.5</ele><time>2026-05-03T08:17:10.286Z</time></trkpt><trkpt lat="42.2957183" lon="13.6412917"><ele>813.0</ele><time>2026-05-03T08:17:11.286Z</time></trkpt><trkpt lat="42.2956217" lon="13.641275"><ele>811.7142857142858</ele><time>2026-05-03T08:17:12.286Z</time></trkpt><trkpt lat="42.2955467" lon="13.64127"><ele>810.4285714285713</ele><time>2026-05-03T08:17:13.286Z</time></trkpt><trkpt lat="42.295465" lon="13.6412633"><ele>809.1428571428571</ele><time>2026-05-03T08:17:14.286Z</time></trkpt><trkpt lat="42.2953967" lon="13.64126"><ele>807.8571428571429</ele><time>2026-05-03T08:17:15.286Z</time></trkpt><trkpt lat="42.29533" lon="13.64124"><ele>806.5714285714287</ele><time>2026-05-03T08:17:16.286Z</time></trkpt><trkpt lat="42.2952617" lon="13.641225"><ele>805.2857142857142</ele><time>2026-05-03T08:17:17.286Z</time></trkpt><trkpt lat="42.295185" lon="13.64123"><ele>804.0</ele><time>2026-05-03T08:17:18.287Z</time></trkpt><trkpt lat="42.2950967" lon="13.6412217"><ele>804.0</ele><time>2026-05-03T08:17:19.286Z</time></trkpt><trkpt lat="42.2950183" lon="13.6412233"><ele>804.0</ele><time>2026-05-03T08:17:20.286Z</time></trkpt><trkpt lat="42.2949433" lon="13.6412317"><ele>804.0</ele><time>2026-05-03T08:17:21.287Z</time></trkpt><trkpt lat="42.294875" lon="13.641235"><ele>804.0</ele><time>2026-05-03T08:17:22.286Z</time></trkpt><trkpt lat="42.294805" lon="13.6412217"><ele>804.0</ele><time>2026-05-03T08:17:23.286Z</time></trkpt><trkpt lat="42.2946917" lon="13.6411767"><ele>804.0</ele><time>2026-05-03T08:17:25.286Z</time></trkpt><trkpt lat="42.294575" lon="13.641115"><ele>802.8000000000001</ele><time>2026-05-03T08:17:27.286Z</time></trkpt><trkpt lat="42.2944933" lon="13.6410733"><ele>801.6</ele><time>2026-05-03T08:17:29.287Z</time></trkpt><trkpt lat="42.2944217" lon="13.641055"><ele>800.4</ele><time>2026-05-03T08:17:32.286Z</time></trkpt><trkpt lat="42.294335" lon="13.6411267"><ele>799.2</ele><time>2026-05-03T08:17:34.286Z</time></trkpt><trkpt lat="42.2942567" lon="13.6412"><ele>798.0</ele><time>2026-05-03T08:17:35.286Z</time></trkpt><trkpt lat="42.2941717" lon="13.6412967"><ele>798.0</ele><time>2026-05-03T08:17:36.286Z</time></trkpt><trkpt lat="42.29406" lon="13.641415"><ele>798.0</ele><time>2026-05-03T08:17:37.286Z</time></trkpt><trkpt lat="42.2939583" lon="13.64154"><ele>798.0</ele><time>2026-05-03T08:17:38.286Z</time></trkpt><trkpt lat="42.29386" lon="13.6416883"><ele>798.0</ele><time>2026-05-03T08:17:39.287Z</time></trkpt><trkpt lat="42.2937817" lon="13.641865"><ele>798.0</ele><time>2026-05-03T08:17:40.286Z</time></trkpt><trkpt lat="42.2937217" lon="13.6420167"><ele>798.0</ele><time>2026-05-03T08:17:41.287Z</time></trkpt><trkpt lat="42.2936633" lon="13.64214"><ele>798.0</ele><time>2026-05-03T08:17:42.286Z</time></trkpt><trkpt lat="42.29358" lon="13.6422517"><ele>798.0</ele><time>2026-05-03T08:17:43.286Z</time></trkpt><trkpt lat="42.2934617" lon="13.642345"><ele>798.0</ele><time>2026-05-03T08:17:44.286Z</time></trkpt><trkpt lat="42.2933233" lon="13.642435"><ele>798.0</ele><time>2026-05-03T08:17:45.287Z</time></trkpt><trkpt lat="42.293165" lon="13.6425133"><ele>798.0</ele><time>2026-05-03T08:17:46.286Z</time></trkpt><trkpt lat="42.2930083" lon="13.642595"><ele>797.6666666666667</ele><time>2026-05-03T08:17:47.286Z</time></trkpt><trkpt lat="42.2928683" lon="13.6426733"><ele>797.3333333333334</ele><time>2026-05-03T08:17:48.287Z</time></trkpt><trkpt lat="42.2927217" lon="13.642755"><ele>797.0</ele><time>2026-05-03T08:17:49.286Z</time></trkpt><trkpt lat="42.2925833" lon="13.64283"><ele>797.0</ele><time>2026-05-03T08:17:50.286Z</time></trkpt><trkpt lat="42.2924433" lon="13.6429067"><ele>797.0</ele><time>2026-05-03T08:17:51.286Z</time></trkpt><trkpt lat="42.2922983" lon="13.6429817"><ele>797.0</ele><time>2026-05-03T08:17:52.286Z</time></trkpt><trkpt lat="42.2921683" lon="13.64302"><ele>797.0</ele><time>2026-05-03T08:17:53.286Z</time></trkpt><trkpt lat="42.2920383" lon="13.64308"><ele>796.5</ele><time>2026-05-03T08:17:54.287Z</time></trkpt><trkpt lat="42.29191" lon="13.6431333"><ele>796.0</ele><time>2026-05-03T08:17:55.286Z</time></trkpt><trkpt lat="42.291765" lon="13.64317"><ele>795.5</ele><time>2026-05-03T08:17:56.286Z</time></trkpt><trkpt lat="42.2916333" lon="13.6431817"><ele>795.0</ele><time>2026-05-03T08:17:57.286Z</time></trkpt><trkpt lat="42.2915167" lon="13.6431583"><ele>794.2</ele><time>2026-05-03T08:17:58.286Z</time></trkpt><trkpt lat="42.2914217" lon="13.6431167"><ele>793.4</ele><time>2026-05-03T08:17:59.286Z</time></trkpt><trkpt lat="42.29134" lon="13.643045"><ele>792.5999999999999</ele><time>2026-05-03T08:18:00.286Z</time></trkpt><trkpt lat="42.29123" lon="13.64303"><ele>791.8</ele><time>2026-05-03T08:18:01.286Z</time></trkpt><trkpt lat="42.2911117" lon="13.6430483"><ele>791.0</ele><time>2026-05-03T08:18:02.286Z</time></trkpt><trkpt lat="42.2909683" lon="13.6430717"><ele>791.0</ele><time>2026-05-03T08:18:03.286Z</time></trkpt><trkpt lat="42.290825" lon="13.6431083"><ele>791.0</ele><time>2026-05-03T08:18:04.286Z</time></trkpt><trkpt lat="42.2906783" lon="13.64315"><ele>791.0</ele><time>2026-05-03T08:18:05.286Z</time></trkpt><trkpt lat="42.2905383" lon="13.6431667"><ele>791.0</ele><time>2026-05-03T08:18:06.286Z</time></trkpt><trkpt lat="42.2904133" lon="13.6431717"><ele>789.75</ele><time>2026-05-03T08:18:07.286Z</time></trkpt><trkpt lat="42.290295" lon="13.6431833"><ele>788.5</ele><time>2026-05-03T08:18:08.286Z</time></trkpt><trkpt lat="42.2901733" lon="13.6431967"><ele>787.25</ele><time>2026-05-03T08:18:09.286Z</time></trkpt><trkpt lat="42.2900633" lon="13.643205"><ele>786.0</ele><time>2026-05-03T08:18:10.286Z</time></trkpt><trkpt lat="42.2899583" lon="13.6432233"><ele>786.0</ele><time>2026-05-03T08:18:11.286Z</time></trkpt><trkpt lat="42.2898733" lon="13.643255"><ele>786.0</ele><time>2026-05-03T08:18:12.286Z</time></trkpt><trkpt lat="42.2898" lon="13.64331"><ele>786.0</ele><time>2026-05-03T08:18:13.286Z</time></trkpt><trkpt lat="42.28974" lon="13.643395"><ele>786.0</ele><time>2026-05-03T08:18:14.286Z</time></trkpt><trkpt lat="42.2897033" lon="13.64347"><ele>786.0</ele><time>2026-05-03T08:18:15.286Z</time></trkpt><trkpt lat="42.289715" lon="13.643585"><ele>786.0</ele><time>2026-05-03T08:18:16.287Z</time></trkpt><trkpt lat="42.289755" lon="13.6437367"><ele>787.25</ele><time>2026-05-03T08:18:17.286Z</time></trkpt><trkpt lat="42.2897833" lon="13.6439167"><ele>788.5</ele><time>2026-05-03T08:18:18.286Z</time></trkpt><trkpt lat="42.28984" lon="13.6441117"><ele>789.75</ele><time>2026-05-03T08:18:19.286Z</time></trkpt><trkpt lat="42.2898583" lon="13.6443217"><ele>791.0</ele><time>2026-05-03T08:18:20.286Z</time></trkpt><trkpt lat="42.28988" lon="13.6445483"><ele>792.3333333333334</ele><time>2026-05-03T08:18:21.286Z</time></trkpt><trkpt lat="42.2899117" lon="13.6447817"><ele>793.6666666666667</ele><time>2026-05-03T08:18:22.287Z</time></trkpt><trkpt lat="42.289975" lon="13.6449967"><ele>795.0</ele><time>2026-05-03T08:18:23.287Z</time></trkpt><trkpt lat="42.2900317" lon="13.6451867"><ele>795.25</ele><time>2026-05-03T08:18:24.286Z</time></trkpt><trkpt lat="42.29007" lon="13.6453583"><ele>795.5</ele><time>2026-05-03T08:18:25.287Z</time></trkpt><trkpt lat="42.2900933" lon="13.6455133"><ele>795.75</ele><time>2026-05-03T08:18:26.287Z</time></trkpt><trkpt lat="42.2901167" lon="13.64565"><ele>796.0</ele><time>2026-05-03T08:18:27.286Z</time></trkpt><trkpt lat="42.2901167" lon="13.6457933"><ele>796.0</ele><time>2026-05-03T08:18:28.286Z</time></trkpt><trkpt lat="42.29012" lon="13.6459467"><ele>796.0</ele><time>2026-05-03T08:18:29.286Z</time></trkpt><trkpt lat="42.2901083" lon="13.6461117"><ele>796.0</ele><time>2026-05-03T08:18:30.286Z</time></trkpt><trkpt lat="42.2900733" lon="13.6462617"><ele>796.0</ele><time>2026-05-03T08:18:31.286Z</time></trkpt><trkpt lat="42.2900117" lon="13.646405"><ele>794.75</ele><time>2026-05-03T08:18:32.286Z</time></trkpt><trkpt lat="42.28994" lon="13.6465467"><ele>793.5</ele><time>2026-05-03T08:18:33.286Z</time></trkpt><trkpt lat="42.289865" lon="13.64668"><ele>792.25</ele><time>2026-05-03T08:18:34.286Z</time></trkpt><trkpt lat="42.2897917" lon="13.646825"><ele>791.0</ele><time>2026-05-03T08:18:35.286Z</time></trkpt><trkpt lat="42.2897367" lon="13.6469767"><ele>791.0</ele><time>2026-05-03T08:18:36.287Z</time></trkpt><trkpt lat="42.2896683" lon="13.6471483"><ele>791.0</ele><time>2026-05-03T08:18:37.286Z</time></trkpt><trkpt lat="42.2896167" lon="13.6472983"><ele>791.0</ele><time>2026-05-03T08:18:38.286Z</time></trkpt><trkpt lat="42.2895883" lon="13.647445"><ele>791.0</ele><time>2026-05-03T08:18:39.286Z</time></trkpt><trkpt lat="42.28956" lon="13.6475833"><ele>791.0</ele><time>2026-05-03T08:18:40.286Z</time></trkpt><trkpt lat="42.2895067" lon="13.64772"><ele>791.0</ele><time>2026-05-03T08:18:41.286Z</time></trkpt><trkpt lat="42.2894333" lon="13.6478583"><ele>791.0</ele><time>2026-05-03T08:18:42.286Z</time></trkpt><trkpt lat="42.289345" lon="13.6479817"><ele>791.0</ele><time>2026-05-03T08:18:43.286Z</time></trkpt><trkpt lat="42.2892383" lon="13.648125"><ele>792.6666666666667</ele><time>2026-05-03T08:18:44.287Z</time></trkpt><trkpt lat="42.2891467" lon="13.6482583"><ele>794.3333333333333</ele><time>2026-05-03T08:18:45.286Z</time></trkpt><trkpt lat="42.2890383" lon="13.648405"><ele>796.0</ele><time>2026-05-03T08:18:46.286Z</time></trkpt><trkpt lat="42.2889117" lon="13.6485567"><ele>793.3333333333333</ele><time>2026-05-03T08:18:47.286Z</time></trkpt><trkpt lat="42.2887933" lon="13.6487033"><ele>790.6666666666667</ele><time>2026-05-03T08:18:48.286Z</time></trkpt><trkpt lat="42.2886567" lon="13.6488417"><ele>788.0</ele><time>2026-05-03T08:18:49.286Z</time></trkpt><trkpt lat="42.2885183" lon="13.6489767"><ele>788.0</ele><time>2026-05-03T08:18:50.286Z</time></trkpt><trkpt lat="42.2883867" lon="13.6491133"><ele>788.0</ele><time>2026-05-03T08:18:51.286Z</time></trkpt><trkpt lat="42.288275" lon="13.6492367"><ele>788.0</ele><time>2026-05-03T08:18:52.286Z</time></trkpt><trkpt lat="42.2881833" lon="13.6493533"><ele>788.0</ele><time>2026-05-03T08:18:53.286Z</time></trkpt><trkpt lat="42.2880817" lon="13.64949"><ele>785.3333333333334</ele><time>2026-05-03T08:18:54.286Z</time></trkpt><trkpt lat="42.28797" lon="13.649645"><ele>782.6666666666667</ele><time>2026-05-03T08:18:55.286Z</time></trkpt><trkpt lat="42.2878783" lon="13.6498117"><ele>780.0</ele><time>2026-05-03T08:18:56.286Z</time></trkpt><trkpt lat="42.2877917" lon="13.65"><ele>780.0</ele><time>2026-05-03T08:18:57.287Z</time></trkpt><trkpt lat="42.2877183" lon="13.65021"><ele>780.0</ele><time>2026-05-03T08:18:58.286Z</time></trkpt><trkpt lat="42.2876517" lon="13.6504133"><ele>780.0</ele><time>2026-05-03T08:18:59.286Z</time></trkpt><trkpt lat="42.2875967" lon="13.650615"><ele>781.25</ele><time>2026-05-03T08:19:00.286Z</time></trkpt><trkpt lat="42.2875433" lon="13.6508067"><ele>782.5</ele><time>2026-05-03T08:19:01.286Z</time></trkpt><trkpt lat="42.2875133" lon="13.6509867"><ele>783.75</ele><time>2026-05-03T08:19:02.286Z</time></trkpt><trkpt lat="42.287495" lon="13.6511533"><ele>785.0</ele><time>2026-05-03T08:19:03.286Z</time></trkpt><trkpt lat="42.2874867" lon="13.6513083"><ele>785.6</ele><time>2026-05-03T08:19:04.286Z</time></trkpt><trkpt lat="42.2875033" lon="13.651455"><ele>786.2</ele><time>2026-05-03T08:19:05.286Z</time></trkpt><trkpt lat="42.2875233" lon="13.651605"><ele>786.8</ele><time>2026-05-03T08:19:06.287Z</time></trkpt><trkpt lat="42.2875417" lon="13.6517567"><ele>787.4</ele><time>2026-05-03T08:19:07.286Z</time></trkpt><trkpt lat="42.2875517" lon="13.651885"><ele>788.0</ele><time>2026-05-03T08:19:08.286Z</time></trkpt><trkpt lat="42.28756" lon="13.652"><ele>789.0</ele><time>2026-05-03T08:19:09.286Z</time></trkpt><trkpt lat="42.2875517" lon="13.6520983"><ele>790.0</ele><time>2026-05-03T08:19:10.286Z</time></trkpt><trkpt lat="42.2875133" lon="13.652195"><ele>791.0</ele><time>2026-05-03T08:19:11.286Z</time></trkpt><trkpt lat="42.28745" lon="13.6523017"><ele>792.0</ele><time>2026-05-03T08:19:12.286Z</time></trkpt><trkpt lat="42.2873667" lon="13.6524333"><ele>793.0</ele><time>2026-05-03T08:19:13.286Z</time></trkpt><trkpt lat="42.2872983" lon="13.6525467"><ele>789.75</ele><time>2026-05-03T08:19:14.286Z</time></trkpt><trkpt lat="42.2872367" lon="13.652665"><ele>786.5</ele><time>2026-05-03T08:19:15.286Z</time></trkpt><trkpt lat="42.2871783" lon="13.6528"><ele>783.25</ele><time>2026-05-03T08:19:16.286Z</time></trkpt><trkpt lat="42.28713" lon="13.65295"><ele>780.0</ele><time>2026-05-03T08:19:17.286Z</time></trkpt><trkpt lat="42.2871017" lon="13.653125"><ele>780.0</ele><time>2026-05-03T08:19:18.286Z</time></trkpt><trkpt lat="42.2870767" lon="13.6533033"><ele>780.0</ele><time>2026-05-03T08:19:19.287Z</time></trkpt><trkpt lat="42.2870383" lon="13.6534917"><ele>780.0</ele><time>2026-05-03T08:19:20.287Z</time></trkpt><trkpt lat="42.2870167" lon="13.6536733"><ele>780.0</ele><time>2026-05-03T08:19:21.286Z</time></trkpt><trkpt lat="42.286985" lon="13.6538483"><ele>781.4</ele><time>2026-05-03T08:19:22.286Z</time></trkpt><trkpt lat="42.286955" lon="13.6539767"><ele>782.8</ele><time>2026-05-03T08:19:23.286Z</time></trkpt><trkpt lat="42.2869033" lon="13.654095"><ele>784.2</ele><time>2026-05-03T08:19:24.287Z</time></trkpt><trkpt lat="42.2868383" lon="13.6542033"><ele>785.6</ele><time>2026-05-03T08:19:25.286Z</time></trkpt><trkpt lat="42.2867683" lon="13.6543117"><ele>787.0</ele><time>2026-05-03T08:19:26.286Z</time></trkpt><trkpt lat="42.2867" lon="13.6544067"><ele>788.0</ele><time>2026-05-03T08:19:27.286Z</time></trkpt><trkpt lat="42.2866317" lon="13.6545067"><ele>789.0</ele><time>2026-05-03T08:19:28.286Z</time></trkpt><trkpt lat="42.2865617" lon="13.6546117"><ele>790.0</ele><time>2026-05-03T08:19:29.286Z</time></trkpt><trkpt lat="42.2864933" lon="13.654705"><ele>791.0</ele><time>2026-05-03T08:19:30.286Z</time></trkpt><trkpt lat="42.28643" lon="13.6547983"><ele>792.0</ele><time>2026-05-03T08:19:31.286Z</time></trkpt><trkpt lat="42.2863717" lon="13.6548817"><ele>790.5</ele><time>2026-05-03T08:19:32.286Z</time></trkpt><trkpt lat="42.286315" lon="13.6549533"><ele>789.0</ele><time>2026-05-03T08:19:33.286Z</time></trkpt><trkpt lat="42.2862667" lon="13.6550133"><ele>787.5</ele><time>2026-05-03T08:19:34.286Z</time></trkpt><trkpt lat="42.2862183" lon="13.6550983"><ele>786.0</ele><time>2026-05-03T08:19:36.286Z</time></trkpt><trkpt lat="42.2862433" lon="13.6551983"><ele>784.5</ele><time>2026-05-03T08:19:39.286Z</time></trkpt><trkpt lat="42.2863333" lon="13.6553083"><ele>783.0</ele><time>2026-05-03T08:19:41.287Z</time></trkpt><trkpt lat="42.286405" lon="13.6554383"><ele>783.0</ele><time>2026-05-03T08:19:43.287Z</time></trkpt><trkpt lat="42.2864233" lon="13.6555217"><ele>783.0</ele><time>2026-05-03T08:19:44.286Z</time></trkpt><trkpt lat="42.2864317" lon="13.6556067"><ele>783.0</ele><time>2026-05-03T08:19:45.286Z</time></trkpt><trkpt lat="42.2864267" lon="13.65571"><ele>783.0</ele><time>2026-05-03T08:19:46.286Z</time></trkpt><trkpt lat="42.28642" lon="13.655825"><ele>783.0</ele><time>2026-05-03T08:19:47.286Z</time></trkpt><trkpt lat="42.2864117" lon="13.6559517"><ele>783.0</ele><time>2026-05-03T08:19:48.286Z</time></trkpt><trkpt lat="42.2863983" lon="13.6560833"><ele>783.8</ele><time>2026-05-03T08:19:49.286Z</time></trkpt><trkpt lat="42.286385" lon="13.6562083"><ele>784.5999999999999</ele><time>2026-05-03T08:19:50.286Z</time></trkpt><trkpt lat="42.2863783" lon="13.6563133"><ele>785.4000000000001</ele><time>2026-05-03T08:19:51.286Z</time></trkpt><trkpt lat="42.2863817" lon="13.65647"><ele>786.2</ele><time>2026-05-03T08:19:53.286Z</time></trkpt><trkpt lat="42.2864467" lon="13.6565733"><ele>787.0</ele><time>2026-05-03T08:19:55.286Z</time></trkpt><trkpt lat="42.2865533" lon="13.6566083"><ele>789.9999999999999</ele><time>2026-05-03T08:19:57.286Z</time></trkpt><trkpt lat="42.286635" lon="13.6566417"><ele>793.0</ele><time>2026-05-03T08:19:59.286Z</time></trkpt><trkpt lat="42.2866883" lon="13.656715"><ele>796.0</ele><time>2026-05-03T08:20:01.286Z</time></trkpt><trkpt lat="42.2866783" lon="13.6568183"><ele>799.0</ele><time>2026-05-03T08:20:03.286Z</time></trkpt><trkpt lat="42.28664" lon="13.6568883"><ele>801.9999999999999</ele><time>2026-05-03T08:20:04.286Z</time></trkpt><trkpt lat="42.2866017" lon="13.6569767"><ele>805.0</ele><time>2026-05-03T08:20:05.286Z</time></trkpt><trkpt lat="42.2865417" lon="13.65706"><ele>803.2</ele><time>2026-05-03T08:20:06.286Z</time></trkpt><trkpt lat="42.2864817" lon="13.65712"><ele>801.4</ele><time>2026-05-03T08:20:07.286Z</time></trkpt><trkpt lat="42.2863983" lon="13.6572383"><ele>799.5999999999999</ele><time>2026-05-03T08:20:09.286Z</time></trkpt><trkpt lat="42.28635" lon="13.6573017"><ele>797.8</ele><time>2026-05-03T08:20:10.286Z</time></trkpt><trkpt lat="42.2862883" lon="13.6574233"><ele>796.0</ele><time>2026-05-03T08:20:12.287Z</time></trkpt><trkpt lat="42.2861967" lon="13.6575283"><ele>796.0</ele><time>2026-05-03T08:20:14.286Z</time></trkpt><trkpt lat="42.2861167" lon="13.6576417"><ele>796.0</ele><time>2026-05-03T08:20:16.286Z</time></trkpt><trkpt lat="42.2860383" lon="13.657765"><ele>796.0</ele><time>2026-05-03T08:20:18.286Z</time></trkpt><trkpt lat="42.2859517" lon="13.65787"><ele>796.0</ele><time>2026-05-03T08:20:20.286Z</time></trkpt><trkpt lat="42.2858717" lon="13.6580217"><ele>794.8333333333333</ele><time>2026-05-03T08:20:22.286Z</time></trkpt><trkpt lat="42.28582" lon="13.6581067"><ele>793.6666666666666</ele><time>2026-05-03T08:20:23.286Z</time></trkpt><trkpt lat="42.285785" lon="13.65819"><ele>792.5</ele><time>2026-05-03T08:20:24.286Z</time></trkpt><trkpt lat="42.2857383" lon="13.6583"><ele>791.3333333333333</ele><time>2026-05-03T08:20:26.286Z</time></trkpt><trkpt lat="42.285675" lon="13.6584217"><ele>790.1666666666666</ele><time>2026-05-03T08:20:28.287Z</time></trkpt><trkpt lat="42.285625" lon="13.658475"><ele>789.0</ele><time>2026-05-03T08:20:29.286Z</time></trkpt><trkpt lat="42.2855433" lon="13.6585883"><ele>790.8000000000001</ele><time>2026-05-03T08:20:31.286Z</time></trkpt><trkpt lat="42.285475" lon="13.6587067"><ele>792.6</ele><time>2026-05-03T08:20:33.286Z</time></trkpt><trkpt lat="42.2854383" lon="13.6587817"><ele>794.4</ele><time>2026-05-03T08:20:34.286Z</time></trkpt><trkpt lat="42.2853767" lon="13.6588767"><ele>796.2</ele><time>2026-05-03T08:20:36.286Z</time></trkpt><trkpt lat="42.2853183" lon="13.6589833"><ele>798.0</ele><time>2026-05-03T08:20:38.286Z</time></trkpt><trkpt lat="42.2852317" lon="13.6590917"><ele>798.0</ele><time>2026-05-03T08:20:40.286Z</time></trkpt><trkpt lat="42.28514" lon="13.6592183"><ele>798.0</ele><time>2026-05-03T08:20:42.286Z</time></trkpt><trkpt lat="42.28507" lon="13.659305"><ele>798.0</ele><time>2026-05-03T08:20:43.286Z</time></trkpt><trkpt lat="42.2850167" lon="13.6593617"><ele>798.0</ele><time>2026-05-03T08:20:44.286Z</time></trkpt><trkpt lat="42.284975" lon="13.6594267"><ele>798.0</ele><time>2026-05-03T08:20:45.286Z</time></trkpt><trkpt lat="42.28494" lon="13.6595617"><ele>797.5</ele><time>2026-05-03T08:20:47.286Z</time></trkpt><trkpt lat="42.2849217" lon="13.6596933"><ele>797.0</ele><time>2026-05-03T08:20:49.286Z</time></trkpt><trkpt lat="42.2848967" lon="13.6597867"><ele>796.5</ele><time>2026-05-03T08:20:50.286Z</time></trkpt><trkpt lat="42.2848667" lon="13.6598767"><ele>796.0</ele><time>2026-05-03T08:20:51.286Z</time></trkpt><trkpt lat="42.2848267" lon="13.6599533"><ele>795.5</ele><time>2026-05-03T08:20:52.286Z</time></trkpt><trkpt lat="42.2847717" lon="13.66002"><ele>795.0</ele><time>2026-05-03T08:20:53.286Z</time></trkpt><trkpt lat="42.2847017" lon="13.6601233"><ele>795.0</ele><time>2026-05-03T08:20:54.286Z</time></trkpt><trkpt lat="42.2846133" lon="13.6602217"><ele>795.0</ele><time>2026-05-03T08:20:55.286Z</time></trkpt><trkpt lat="42.2844983" lon="13.6603233"><ele>795.0</ele><time>2026-05-03T08:20:56.286Z</time></trkpt><trkpt lat="42.2843817" lon="13.6604167"><ele>795.0</ele><time>2026-05-03T08:20:57.287Z</time></trkpt><trkpt lat="42.2842867" lon="13.6605117"><ele>800.25</ele><time>2026-05-03T08:20:58.286Z</time></trkpt><trkpt lat="42.284205" lon="13.6606083"><ele>805.5</ele><time>2026-05-03T08:20:59.286Z</time></trkpt><trkpt lat="42.28412" lon="13.6607417"><ele>810.75</ele><time>2026-05-03T08:21:00.286Z</time></trkpt><trkpt lat="42.284045" lon="13.6608933"><ele>816.0</ele><time>2026-05-03T08:21:01.286Z</time></trkpt><trkpt lat="42.2839733" lon="13.66105"><ele>814.75</ele><time>2026-05-03T08:21:02.286Z</time></trkpt><trkpt lat="42.283905" lon="13.6612083"><ele>813.5</ele><time>2026-05-03T08:21:03.286Z</time></trkpt><trkpt lat="42.2838433" lon="13.661365"><ele>812.25</ele><time>2026-05-03T08:21:04.286Z</time></trkpt><trkpt lat="42.2837933" lon="13.66152"><ele>811.0</ele><time>2026-05-03T08:21:05.286Z</time></trkpt><trkpt lat="42.2837333" lon="13.6617017"><ele>811.0</ele><time>2026-05-03T08:21:06.286Z</time></trkpt><trkpt lat="42.28368" lon="13.6618683"><ele>811.0</ele><time>2026-05-03T08:21:07.286Z</time></trkpt><trkpt lat="42.28362" lon="13.6620417"><ele>811.0</ele><time>2026-05-03T08:21:08.286Z</time></trkpt><trkpt lat="42.2835617" lon="13.662205"><ele>811.0</ele><time>2026-05-03T08:21:09.286Z</time></trkpt><trkpt lat="42.2835167" lon="13.66237"><ele>815.75</ele><time>2026-05-03T08:21:10.286Z</time></trkpt><trkpt lat="42.28346" lon="13.6625217"><ele>820.5</ele><time>2026-05-03T08:21:11.286Z</time></trkpt><trkpt lat="42.2834033" lon="13.662675"><ele>825.25</ele><time>2026-05-03T08:21:12.286Z</time></trkpt><trkpt lat="42.2833517" lon="13.6628117"><ele>830.0</ele><time>2026-05-03T08:21:13.286Z</time></trkpt><trkpt lat="42.2833033" lon="13.6629567"><ele>826.25</ele><time>2026-05-03T08:21:14.286Z</time></trkpt><trkpt lat="42.28325" lon="13.663085"><ele>822.5</ele><time>2026-05-03T08:21:15.286Z</time></trkpt><trkpt lat="42.2831883" lon="13.66323"><ele>818.75</ele><time>2026-05-03T08:21:16.286Z</time></trkpt><trkpt lat="42.2831267" lon="13.6633767"><ele>815.0</ele><time>2026-05-03T08:21:17.286Z</time></trkpt><trkpt lat="42.2830783" lon="13.663505"><ele>818.25</ele><time>2026-05-03T08:21:18.287Z</time></trkpt><trkpt lat="42.28302" lon="13.6636283"><ele>821.5</ele><time>2026-05-03T08:21:19.286Z</time></trkpt><trkpt lat="42.2829567" lon="13.6637667"><ele>824.75</ele><time>2026-05-03T08:21:20.286Z</time></trkpt><trkpt lat="42.2828983" lon="13.6639033"><ele>828.0</ele><time>2026-05-03T08:21:21.286Z</time></trkpt><trkpt lat="42.282825" lon="13.6640467"><ele>828.0</ele><time>2026-05-03T08:21:22.286Z</time></trkpt><trkpt lat="42.2827717" lon="13.6641767"><ele>828.0</ele><time>2026-05-03T08:21:23.286Z</time></trkpt><trkpt lat="42.2827083" lon="13.6643133"><ele>828.0</ele><time>2026-05-03T08:21:24.286Z</time></trkpt><trkpt lat="42.28265" lon="13.664465"><ele>828.0</ele><time>2026-05-03T08:21:25.286Z</time></trkpt><trkpt lat="42.282585" lon="13.664615"><ele>831.75</ele><time>2026-05-03T08:21:26.286Z</time></trkpt><trkpt lat="42.2825217" lon="13.66476"><ele>835.5</ele><time>2026-05-03T08:21:27.286Z</time></trkpt><trkpt lat="42.2824583" lon="13.66491"><ele>839.25</ele><time>2026-05-03T08:21:28.286Z</time></trkpt><trkpt lat="42.2823933" lon="13.6650517"><ele>843.0</ele><time>2026-05-03T08:21:29.286Z</time></trkpt><trkpt lat="42.28234" lon="13.6651967"><ele>846.75</ele><time>2026-05-03T08:21:30.286Z</time></trkpt><trkpt lat="42.282285" lon="13.66534"><ele>850.5</ele><time>2026-05-03T08:21:31.286Z</time></trkpt><trkpt lat="42.2822283" lon="13.665475"><ele>854.25</ele><time>2026-05-03T08:21:32.286Z</time></trkpt><trkpt lat="42.2821583" lon="13.665625"><ele>858.0</ele><time>2026-05-03T08:21:33.286Z</time></trkpt><trkpt lat="42.2820933" lon="13.66578"><ele>854.0</ele><time>2026-05-03T08:21:34.286Z</time></trkpt><trkpt lat="42.2820267" lon="13.6659383"><ele>850.0</ele><time>2026-05-03T08:21:35.286Z</time></trkpt><trkpt lat="42.2819617" lon="13.6661117"><ele>846.0</ele><time>2026-05-03T08:21:36.286Z</time></trkpt><trkpt lat="42.2818967" lon="13.66627"><ele>842.0</ele><time>2026-05-03T08:21:37.287Z</time></trkpt><trkpt lat="42.2818167" lon="13.6664383"><ele>842.0</ele><time>2026-05-03T08:21:38.286Z</time></trkpt><trkpt lat="42.2817467" lon="13.6666"><ele>842.0</ele><time>2026-05-03T08:21:39.287Z</time></trkpt><trkpt lat="42.281675" lon="13.6667567"><ele>842.0</ele><time>2026-05-03T08:21:40.286Z</time></trkpt><trkpt lat="42.2816083" lon="13.6669017"><ele>842.0</ele><time>2026-05-03T08:21:41.286Z</time></trkpt><trkpt lat="42.281545" lon="13.6670333"><ele>839.25</ele><time>2026-05-03T08:21:42.286Z</time></trkpt><trkpt lat="42.2814783" lon="13.6671767"><ele>836.5</ele><time>2026-05-03T08:21:43.286Z</time></trkpt><trkpt lat="42.28141" lon="13.6673333"><ele>833.75</ele><time>2026-05-03T08:21:44.286Z</time></trkpt><trkpt lat="42.281345" lon="13.6674883"><ele>831.0</ele><time>2026-05-03T08:21:45.287Z</time></trkpt><trkpt lat="42.2812867" lon="13.667635"><ele>831.0</ele><time>2026-05-03T08:21:46.286Z</time></trkpt><trkpt lat="42.28123" lon="13.66777"><ele>831.0</ele><time>2026-05-03T08:21:47.286Z</time></trkpt><trkpt lat="42.28116" lon="13.667915"><ele>831.0</ele><time>2026-05-03T08:21:48.286Z</time></trkpt><trkpt lat="42.2811033" lon="13.668045"><ele>831.0</ele><time>2026-05-03T08:21:49.286Z</time></trkpt><trkpt lat="42.2810417" lon="13.6681717"><ele>833.4</ele><time>2026-05-03T08:21:50.286Z</time></trkpt><trkpt lat="42.280975" lon="13.6682933"><ele>835.8</ele><time>2026-05-03T08:21:51.286Z</time></trkpt><trkpt lat="42.2809133" lon="13.6684067"><ele>838.1999999999999</ele><time>2026-05-03T08:21:52.286Z</time></trkpt><trkpt lat="42.2808467" lon="13.6685233"><ele>840.5999999999999</ele><time>2026-05-03T08:21:53.286Z</time></trkpt><trkpt lat="42.2807783" lon="13.6686233"><ele>843.0</ele><time>2026-05-03T08:21:54.286Z</time></trkpt><trkpt lat="42.28071" lon="13.668735"><ele>841.0</ele><time>2026-05-03T08:21:55.286Z</time></trkpt><trkpt lat="42.2806317" lon="13.6688567"><ele>839.0</ele><time>2026-05-03T08:21:56.286Z</time></trkpt><trkpt lat="42.2805567" lon="13.6689767"><ele>837.0</ele><time>2026-05-03T08:21:57.286Z</time></trkpt><trkpt lat="42.280465" lon="13.669095"><ele>835.0</ele><time>2026-05-03T08:21:58.286Z</time></trkpt><trkpt lat="42.2803767" lon="13.66923"><ele>835.0</ele><time>2026-05-03T08:21:59.286Z</time></trkpt><trkpt lat="42.2802917" lon="13.669355"><ele>835.0</ele><time>2026-05-03T08:22:00.286Z</time></trkpt><trkpt lat="42.2802067" lon="13.6694917"><ele>835.0</ele><time>2026-05-03T08:22:01.286Z</time></trkpt><trkpt lat="42.28012" lon="13.66962"><ele>835.0</ele><time>2026-05-03T08:22:02.286Z</time></trkpt><trkpt lat="42.2800467" lon="13.669745"><ele>833.6</ele><time>2026-05-03T08:22:03.286Z</time></trkpt><trkpt lat="42.27997" lon="13.6698633"><ele>832.2</ele><time>2026-05-03T08:22:04.286Z</time></trkpt><trkpt lat="42.2798917" lon="13.66997"><ele>830.8</ele><time>2026-05-03T08:22:05.286Z</time></trkpt><trkpt lat="42.2798217" lon="13.6700817"><ele>829.4</ele><time>2026-05-03T08:22:06.286Z</time></trkpt><trkpt lat="42.27976" lon="13.6701883"><ele>828.0</ele><time>2026-05-03T08:22:07.286Z</time></trkpt><trkpt lat="42.279685" lon="13.6703"><ele>831.75</ele><time>2026-05-03T08:22:08.286Z</time></trkpt><trkpt lat="42.2796083" lon="13.6704067"><ele>835.5</ele><time>2026-05-03T08:22:09.286Z</time></trkpt><trkpt lat="42.2795267" lon="13.6705183"><ele>839.25</ele><time>2026-05-03T08:22:10.286Z</time></trkpt><trkpt lat="42.2794483" lon="13.67063"><ele>843.0</ele><time>2026-05-03T08:22:11.286Z</time></trkpt><trkpt lat="42.279365" lon="13.670745"><ele>843.0</ele><time>2026-05-03T08:22:12.286Z</time></trkpt><trkpt lat="42.2792883" lon="13.6708717"><ele>843.0</ele><time>2026-05-03T08:22:13.286Z</time></trkpt><trkpt lat="42.2792117" lon="13.6709733"><ele>843.0</ele><time>2026-05-03T08:22:14.287Z</time></trkpt><trkpt lat="42.2791183" lon="13.671095"><ele>843.0</ele><time>2026-05-03T08:22:15.286Z</time></trkpt><trkpt lat="42.2790367" lon="13.6712033"><ele>841.5</ele><time>2026-05-03T08:22:16.286Z</time></trkpt><trkpt lat="42.2789483" lon="13.6713183"><ele>840.0</ele><time>2026-05-03T08:22:17.286Z</time></trkpt><trkpt lat="42.2788617" lon="13.6714517"><ele>838.5</ele><time>2026-05-03T08:22:18.286Z</time></trkpt><trkpt lat="42.2787783" lon="13.6715833"><ele>837.0</ele><time>2026-05-03T08:22:19.286Z</time></trkpt><trkpt lat="42.2787017" lon="13.6716983"><ele>837.0</ele><time>2026-05-03T08:22:20.286Z</time></trkpt><trkpt lat="42.27862" lon="13.671835"><ele>837.0</ele><time>2026-05-03T08:22:21.286Z</time></trkpt><trkpt lat="42.2785433" lon="13.6719567"><ele>837.0</ele><time>2026-05-03T08:22:22.286Z</time></trkpt><trkpt lat="42.2784767" lon="13.6720833"><ele>837.0</ele><time>2026-05-03T08:22:23.286Z</time></trkpt><trkpt lat="42.2783933" lon="13.67222"><ele>835.25</ele><time>2026-05-03T08:22:24.286Z</time></trkpt><trkpt lat="42.278305" lon="13.6723367"><ele>833.5</ele><time>2026-05-03T08:22:25.286Z</time></trkpt><trkpt lat="42.278215" lon="13.6724683"><ele>831.75</ele><time>2026-05-03T08:22:26.286Z</time></trkpt><trkpt lat="42.2781283" lon="13.6725967"><ele>830.0</ele><time>2026-05-03T08:22:27.286Z</time></trkpt><trkpt lat="42.2780317" lon="13.6727217"><ele>832.75</ele><time>2026-05-03T08:22:28.286Z</time></trkpt><trkpt lat="42.277945" lon="13.67285"><ele>835.5</ele><time>2026-05-03T08:22:29.286Z</time></trkpt><trkpt lat="42.277865" lon="13.6729733"><ele>838.25</ele><time>2026-05-03T08:22:30.286Z</time></trkpt><trkpt lat="42.2777817" lon="13.673095"><ele>841.0</ele><time>2026-05-03T08:22:31.286Z</time></trkpt><trkpt lat="42.277695" lon="13.673225"><ele>841.0</ele><time>2026-05-03T08:22:32.286Z</time></trkpt><trkpt lat="42.2776117" lon="13.6733567"><ele>841.0</ele><time>2026-05-03T08:22:33.286Z</time></trkpt><trkpt lat="42.2775217" lon="13.6734883"><ele>841.0</ele><time>2026-05-03T08:22:34.286Z</time></trkpt><trkpt lat="42.2774333" lon="13.6736133"><ele>841.0</ele><time>2026-05-03T08:22:35.286Z</time></trkpt><trkpt lat="42.277355" lon="13.6737233"><ele>840.5</ele><time>2026-05-03T08:22:36.286Z</time></trkpt><trkpt lat="42.2772867" lon="13.6738333"><ele>840.0</ele><time>2026-05-03T08:22:37.286Z</time></trkpt><trkpt lat="42.27721" lon="13.67395"><ele>839.5</ele><time>2026-05-03T08:22:38.286Z</time></trkpt><trkpt lat="42.27712" lon="13.67407"><ele>839.0</ele><time>2026-05-03T08:22:39.286Z</time></trkpt><trkpt lat="42.2770333" lon="13.6741933"><ele>839.0</ele><time>2026-05-03T08:22:40.286Z</time></trkpt><trkpt lat="42.2769583" lon="13.67432"><ele>839.0</ele><time>2026-05-03T08:22:41.286Z</time></trkpt><trkpt lat="42.2768883" lon="13.67443"><ele>839.0</ele><time>2026-05-03T08:22:42.286Z</time></trkpt><trkpt lat="42.2768117" lon="13.6745367"><ele>839.0</ele><time>2026-05-03T08:22:43.286Z</time></trkpt><trkpt lat="42.276735" lon="13.6746267"><ele>839.0</ele><time>2026-05-03T08:22:44.287Z</time></trkpt><trkpt lat="42.2766517" lon="13.67474"><ele>838.0</ele><time>2026-05-03T08:22:45.286Z</time></trkpt><trkpt lat="42.276585" lon="13.6748317"><ele>837.0</ele><time>2026-05-03T08:22:46.286Z</time></trkpt><trkpt lat="42.276515" lon="13.67493"><ele>836.0</ele><time>2026-05-03T08:22:47.286Z</time></trkpt><trkpt lat="42.276445" lon="13.675025"><ele>835.0</ele><time>2026-05-03T08:22:48.286Z</time></trkpt><trkpt lat="42.2763583" lon="13.6751417"><ele>834.0</ele><time>2026-05-03T08:22:49.286Z</time></trkpt><trkpt lat="42.2762667" lon="13.67526"><ele>837.5</ele><time>2026-05-03T08:22:50.286Z</time></trkpt><trkpt lat="42.2761617" lon="13.6753883"><ele>841.0</ele><time>2026-05-03T08:22:51.286Z</time></trkpt><trkpt lat="42.2760717" lon="13.6755083"><ele>844.5</ele><time>2026-05-03T08:22:52.286Z</time></trkpt><trkpt lat="42.2759833" lon="13.6756317"><ele>848.0</ele><time>2026-05-03T08:22:53.286Z</time></trkpt><trkpt lat="42.275905" lon="13.67573"><ele>848.0</ele><time>2026-05-03T08:22:54.286Z</time></trkpt><trkpt lat="42.2758183" lon="13.6758517"><ele>848.0</ele><time>2026-05-03T08:22:55.286Z</time></trkpt><trkpt lat="42.275735" lon="13.6759783"><ele>848.0</ele><time>2026-05-03T08:22:56.286Z</time></trkpt><trkpt lat="42.2756533" lon="13.6760867"><ele>848.0</ele><time>2026-05-03T08:22:57.286Z</time></trkpt><trkpt lat="42.2755617" lon="13.6762117"><ele>847.5999999999999</ele><time>2026-05-03T08:22:58.286Z</time></trkpt><trkpt lat="42.2754883" lon="13.676315"><ele>847.1999999999999</ele><time>2026-05-03T08:22:59.286Z</time></trkpt><trkpt lat="42.2754117" lon="13.67641"><ele>846.8</ele><time>2026-05-03T08:23:00.286Z</time></trkpt><trkpt lat="42.27534" lon="13.6765067"><ele>846.4</ele><time>2026-05-03T08:23:01.286Z</time></trkpt><trkpt lat="42.2752667" lon="13.67661"><ele>846.0</ele><time>2026-05-03T08:23:02.286Z</time></trkpt><trkpt lat="42.2751883" lon="13.6767033"><ele>846.0</ele><time>2026-05-03T08:23:03.286Z</time></trkpt><trkpt lat="42.275115" lon="13.6768"><ele>846.0</ele><time>2026-05-03T08:23:04.286Z</time></trkpt><trkpt lat="42.275045" lon="13.6768967"><ele>846.0</ele><time>2026-05-03T08:23:05.286Z</time></trkpt><trkpt lat="42.275" lon="13.6769817"><ele>846.0</ele><time>2026-05-03T08:23:06.286Z</time></trkpt><trkpt lat="42.274925" lon="13.6770867"><ele>846.0</ele><time>2026-05-03T08:23:07.287Z</time></trkpt><trkpt lat="42.27485" lon="13.67719"><ele>846.5999999999999</ele><time>2026-05-03T08:23:08.285Z</time></trkpt><trkpt lat="42.2747833" lon="13.67728"><ele>847.2</ele><time>2026-05-03T08:23:09.286Z</time></trkpt><trkpt lat="42.274725" lon="13.67737"><ele>847.8</ele><time>2026-05-03T08:23:10.286Z</time></trkpt><trkpt lat="42.2746417" lon="13.6774667"><ele>848.4000000000001</ele><time>2026-05-03T08:23:11.286Z</time></trkpt><trkpt lat="42.2745733" lon="13.6775433"><ele>849.0</ele><time>2026-05-03T08:23:12.286Z</time></trkpt><trkpt lat="42.27449" lon="13.6776383"><ele>849.0</ele><time>2026-05-03T08:23:13.286Z</time></trkpt><trkpt lat="42.2744083" lon="13.67774"><ele>849.0</ele><time>2026-05-03T08:23:14.286Z</time></trkpt><trkpt lat="42.2743233" lon="13.6778417"><ele>849.0</ele><time>2026-05-03T08:23:15.286Z</time></trkpt><trkpt lat="42.2742467" lon="13.6779383"><ele>849.0</ele><time>2026-05-03T08:23:16.286Z</time></trkpt><trkpt lat="42.2741683" lon="13.6780317"><ele>849.0</ele><time>2026-05-03T08:23:17.286Z</time></trkpt><trkpt lat="42.2740767" lon="13.6781317"><ele>849.75</ele><time>2026-05-03T08:23:18.286Z</time></trkpt><trkpt lat="42.2739917" lon="13.6782317"><ele>850.5</ele><time>2026-05-03T08:23:19.286Z</time></trkpt><trkpt lat="42.273915" lon="13.6783467"><ele>851.25</ele><time>2026-05-03T08:23:20.286Z</time></trkpt><trkpt lat="42.2738333" lon="13.6784717"><ele>852.0</ele><time>2026-05-03T08:23:21.287Z</time></trkpt><trkpt lat="42.2737467" lon="13.6786"><ele>855.25</ele><time>2026-05-03T08:23:22.286Z</time></trkpt><trkpt lat="42.273675" lon="13.6787267"><ele>858.5</ele><time>2026-05-03T08:23:23.286Z</time></trkpt><trkpt lat="42.2735962" lon="13.6788454"><ele>861.75</ele><time>2026-05-03T08:23:24.286Z</time></trkpt><trkpt lat="42.2735195" lon="13.67897"><ele>865.0</ele><time>2026-05-03T08:23:25.286Z</time></trkpt><trkpt lat="42.2734432" lon="13.6790925"><ele>865.0</ele><time>2026-05-03T08:23:26.286Z</time></trkpt><trkpt lat="42.2733662" lon="13.6792176"><ele>865.0</ele><time>2026-05-03T08:23:27.286Z</time></trkpt><trkpt lat="42.2732894" lon="13.6793476"><ele>865.0</ele><time>2026-05-03T08:23:28.286Z</time></trkpt><trkpt lat="42.2732214" lon="13.6794871"><ele>865.0</ele><time>2026-05-03T08:23:29.287Z</time></trkpt><trkpt lat="42.273158" lon="13.6796313"><ele>864.5</ele><time>2026-05-03T08:23:30.286Z</time></trkpt><trkpt lat="42.2731031" lon="13.6797826"><ele>864.0</ele><time>2026-05-03T08:23:31.287Z</time></trkpt><trkpt lat="42.2730517" lon="13.6799368"><ele>863.5</ele><time>2026-05-03T08:23:32.286Z</time></trkpt><trkpt lat="42.273002" lon="13.6800991"><ele>863.0</ele><time>2026-05-03T08:23:33.286Z</time></trkpt><trkpt lat="42.2729432" lon="13.6802755"><ele>863.0</ele><time>2026-05-03T08:23:34.286Z</time></trkpt><trkpt lat="42.2728759" lon="13.6804586"><ele>863.0</ele><time>2026-05-03T08:23:35.286Z</time></trkpt><trkpt lat="42.2728089" lon="13.6806412"><ele>863.0</ele><time>2026-05-03T08:23:36.286Z</time></trkpt><trkpt lat="42.2727398" lon="13.680829"><ele>863.0</ele><time>2026-05-03T08:23:37.286Z</time></trkpt><trkpt lat="42.2726684" lon="13.6810282"><ele>863.0</ele><time>2026-05-03T08:23:38.286Z</time></trkpt><trkpt lat="42.2725933" lon="13.6812408"><ele>863.0</ele><time>2026-05-03T08:23:39.286Z</time></trkpt><trkpt lat="42.2725123" lon="13.6814508"><ele>866.6666666666667</ele><time>2026-05-03T08:23:40.286Z</time></trkpt><trkpt lat="42.2724313" lon="13.6816489"><ele>870.3333333333333</ele><time>2026-05-03T08:23:41.286Z</time></trkpt><trkpt lat="42.2723546" lon="13.6818307"><ele>874.0</ele><time>2026-05-03T08:23:42.287Z</time></trkpt><trkpt lat="42.2722791" lon="13.6819975"><ele>871.25</ele><time>2026-05-03T08:23:43.287Z</time></trkpt><trkpt lat="42.2722099" lon="13.6821567"><ele>868.5</ele><time>2026-05-03T08:23:44.286Z</time></trkpt><trkpt lat="42.2721435" lon="13.682301"><ele>865.75</ele><time>2026-05-03T08:23:45.286Z</time></trkpt><trkpt lat="42.2720846" lon="13.6824444"><ele>863.0</ele><time>2026-05-03T08:23:46.286Z</time></trkpt><trkpt lat="42.2720298" lon="13.6825844"><ele>863.0</ele><time>2026-05-03T08:23:47.287Z</time></trkpt><trkpt lat="42.2719826" lon="13.6827094"><ele>863.0</ele><time>2026-05-03T08:23:48.286Z</time></trkpt><trkpt lat="42.2719451" lon="13.682825"><ele>863.0</ele><time>2026-05-03T08:23:49.286Z</time></trkpt><trkpt lat="42.2719084" lon="13.6829361"><ele>863.0</ele><time>2026-05-03T08:23:50.286Z</time></trkpt><trkpt lat="42.2718715" lon="13.6830433"><ele>863.0</ele><time>2026-05-03T08:23:51.286Z</time></trkpt><trkpt lat="42.2718427" lon="13.6831475"><ele>864.8</ele><time>2026-05-03T08:23:52.286Z</time></trkpt><trkpt lat="42.27181" lon="13.6832633"><ele>866.5999999999999</ele><time>2026-05-03T08:23:53.286Z</time></trkpt><trkpt lat="42.2717768" lon="13.6833796"><ele>868.4000000000001</ele><time>2026-05-03T08:23:54.286Z</time></trkpt><trkpt lat="42.2717431" lon="13.6834983"><ele>870.2</ele><time>2026-05-03T08:23:55.286Z</time></trkpt><trkpt lat="42.2717132" lon="13.6836022"><ele>872.0</ele><time>2026-05-03T08:23:56.286Z</time></trkpt><trkpt lat="42.2716683" lon="13.68374"><ele>875.4000000000001</ele><time>2026-05-03T08:23:58.286Z</time></trkpt><trkpt lat="42.2716333" lon="13.6838467"><ele>878.8000000000001</ele><time>2026-05-03T08:24:00.286Z</time></trkpt><trkpt lat="42.271595" lon="13.6839383"><ele>882.2</ele><time>2026-05-03T08:24:04.286Z</time></trkpt><trkpt lat="42.2715287" lon="13.684204"><ele>885.6</ele><time>2026-05-03T08:24:06.382Z</time></trkpt><trkpt lat="42.2715407" lon="13.6841027"><ele>889.0</ele><time>2026-05-03T08:24:07.286Z</time></trkpt><trkpt lat="42.2714708" lon="13.6842441"><ele>888.4000000000001</ele><time>2026-05-03T08:24:09.286Z</time></trkpt><trkpt lat="42.2714329" lon="13.6843143"><ele>887.8000000000001</ele><time>2026-05-03T08:24:10.286Z</time></trkpt><trkpt lat="42.2713492" lon="13.6844465"><ele>887.1999999999999</ele><time>2026-05-03T08:24:12.286Z</time></trkpt><trkpt lat="42.2713019" lon="13.6845096"><ele>886.5999999999999</ele><time>2026-05-03T08:24:13.286Z</time></trkpt><trkpt lat="42.2712296" lon="13.6846242"><ele>886.0</ele><time>2026-05-03T08:24:15.286Z</time></trkpt><trkpt lat="42.2711486" lon="13.6847585"><ele>886.0</ele><time>2026-05-03T08:24:17.287Z</time></trkpt><trkpt lat="42.2710769" lon="13.684882"><ele>885.9999999999999</ele><time>2026-05-03T08:24:19.286Z</time></trkpt><trkpt lat="42.2710103" lon="13.6849843"><ele>885.9999999999999</ele><time>2026-05-03T08:24:21.286Z</time></trkpt><trkpt lat="42.2709528" lon="13.6850766"><ele>886.0</ele><time>2026-05-03T08:24:23.286Z</time></trkpt><trkpt lat="42.270909" lon="13.6851488"><ele>886.0</ele><time>2026-05-03T08:24:25.286Z</time></trkpt><trkpt lat="42.2708689" lon="13.6852577"><ele>888.8333333333333</ele><time>2026-05-03T08:24:28.286Z</time></trkpt><trkpt lat="42.2708395" lon="13.6853345"><ele>891.6666666666666</ele><time>2026-05-03T08:24:30.362Z</time></trkpt><trkpt lat="42.2708054" lon="13.6854524"><ele>894.5</ele><time>2026-05-03T08:24:33.286Z</time></trkpt><trkpt lat="42.2707737" lon="13.6855368"><ele>897.3333333333333</ele><time>2026-05-03T08:24:34.286Z</time></trkpt><trkpt lat="42.2707435" lon="13.6856133"><ele>900.1666666666666</ele><time>2026-05-03T08:24:35.286Z</time></trkpt><trkpt lat="42.2706907" lon="13.6857418"><ele>903.0</ele><time>2026-05-03T08:24:37.286Z</time></trkpt><trkpt lat="42.2706484" lon="13.6858633"><ele>903.0</ele><time>2026-05-03T08:24:39.286Z</time></trkpt><trkpt lat="42.2706204" lon="13.6860089"><ele>903.0</ele><time>2026-05-03T08:24:41.286Z</time></trkpt><trkpt lat="42.2706113" lon="13.6860993"><ele>903.0</ele><time>2026-05-03T08:24:42.286Z</time></trkpt><trkpt lat="42.2706104" lon="13.6861937"><ele>903.0</ele><time>2026-05-03T08:24:43.286Z</time></trkpt><trkpt lat="42.2706148" lon="13.6862908"><ele>903.0</ele><time>2026-05-03T08:24:44.286Z</time></trkpt><trkpt lat="42.270623" lon="13.6863923"><ele>903.0</ele><time>2026-05-03T08:24:45.286Z</time></trkpt><trkpt lat="42.2706342" lon="13.6864943"><ele>905.0</ele><time>2026-05-03T08:24:46.286Z</time></trkpt><trkpt lat="42.2706498" lon="13.6865947"><ele>907.0</ele><time>2026-05-03T08:24:47.287Z</time></trkpt><trkpt lat="42.2706736" lon="13.6866897"><ele>909.0</ele><time>2026-05-03T08:24:48.286Z</time></trkpt><trkpt lat="42.2707048" lon="13.6867755"><ele>911.0</ele><time>2026-05-03T08:24:49.286Z</time></trkpt><trkpt lat="42.2707377" lon="13.6868535"><ele>913.0</ele><time>2026-05-03T08:24:50.286Z</time></trkpt><trkpt lat="42.2707622" lon="13.6869321"><ele>915.0</ele><time>2026-05-03T08:24:51.286Z</time></trkpt><trkpt lat="42.2707764" lon="13.6870174"><ele>917.0</ele><time>2026-05-03T08:24:52.286Z</time></trkpt><trkpt lat="42.2707879" lon="13.68711"><ele>917.4285714285714</ele><time>2026-05-03T08:24:53.286Z</time></trkpt><trkpt lat="42.2707953" lon="13.6872098"><ele>917.8571428571429</ele><time>2026-05-03T08:24:54.287Z</time></trkpt><trkpt lat="42.2707997" lon="13.6873128"><ele>918.2857142857142</ele><time>2026-05-03T08:24:55.286Z</time></trkpt><trkpt lat="42.2708013" lon="13.6874131"><ele>918.7142857142857</ele><time>2026-05-03T08:24:56.286Z</time></trkpt><trkpt lat="42.270799" lon="13.6875101"><ele>919.1428571428571</ele><time>2026-05-03T08:24:57.287Z</time></trkpt><trkpt lat="42.27079" lon="13.687605"><ele>919.5714285714284</ele><time>2026-05-03T08:24:58.286Z</time></trkpt><trkpt lat="42.2707767" lon="13.6876983"><ele>919.9999999999999</ele><time>2026-05-03T08:24:59.286Z</time></trkpt><trkpt lat="42.2707617" lon="13.6877833"><ele>920.0000000000001</ele><time>2026-05-03T08:25:00.286Z</time></trkpt><trkpt lat="42.2707533" lon="13.6878733"><ele>920.0</ele><time>2026-05-03T08:25:01.286Z</time></trkpt><trkpt lat="42.2707667" lon="13.6880217"><ele>920.0</ele><time>2026-05-03T08:25:03.286Z</time></trkpt><trkpt lat="42.2708233" lon="13.688135"><ele>920.0</ele><time>2026-05-03T08:25:05.286Z</time></trkpt><trkpt lat="42.2708967" lon="13.6881517"><ele>920.0000000000001</ele><time>2026-05-03T08:25:07.286Z</time></trkpt><trkpt lat="42.2709683" lon="13.6880783"><ele>920.0</ele><time>2026-05-03T08:25:09.286Z</time></trkpt><trkpt lat="42.271025" lon="13.68795"><ele>919.9999999999999</ele><time>2026-05-03T08:25:11.286Z</time></trkpt><trkpt lat="42.2710533" lon="13.68787"><ele>920.0</ele><time>2026-05-03T08:25:12.286Z</time></trkpt><trkpt lat="42.2710917" lon="13.6877283"><ele>919.9999999999999</ele><time>2026-05-03T08:25:14.286Z</time></trkpt><trkpt lat="42.2711" lon="13.68764"><ele>919.9999999999999</ele><time>2026-05-03T08:25:15.286Z</time></trkpt><trkpt lat="42.2711183" lon="13.687555"><ele>920.0</ele><time>2026-05-03T08:25:16.286Z</time></trkpt><trkpt lat="42.2711383" lon="13.6874733"><ele>919.9999999999999</ele><time>2026-05-03T08:25:17.286Z</time></trkpt><trkpt lat="42.27116" lon="13.6873783"><ele>919.9999999999999</ele><time>2026-05-03T08:25:18.286Z</time></trkpt><trkpt lat="42.2711833" lon="13.6872833"><ele>919.4</ele><time>2026-05-03T08:25:19.286Z</time></trkpt><trkpt lat="42.2712183" lon="13.6871983"><ele>918.8</ele><time>2026-05-03T08:25:20.286Z</time></trkpt><trkpt lat="42.2712833" lon="13.68704"><ele>918.2</ele><time>2026-05-03T08:25:22.286Z</time></trkpt><trkpt lat="42.27132" lon="13.6869533"><ele>917.6</ele><time>2026-05-03T08:25:23.286Z</time></trkpt><trkpt lat="42.2714083" lon="13.6868433"><ele>917.0</ele><time>2026-05-03T08:25:25.286Z</time></trkpt><trkpt lat="42.2714883" lon="13.686915"><ele>918.4000000000001</ele><time>2026-05-03T08:25:28.286Z</time></trkpt><trkpt lat="42.2714867" lon="13.6870283"><ele>919.8000000000001</ele><time>2026-05-03T08:25:30.286Z</time></trkpt><trkpt lat="42.2714383" lon="13.6871467"><ele>921.2</ele><time>2026-05-03T08:25:32.286Z</time></trkpt><trkpt lat="42.27139" lon="13.6872783"><ele>922.6</ele><time>2026-05-03T08:25:34.286Z</time></trkpt><trkpt lat="42.2713917" lon="13.6874517"><ele>924.0</ele><time>2026-05-03T08:25:36.286Z</time></trkpt><trkpt lat="42.2714133" lon="13.6875633"><ele>924.0</ele><time>2026-05-03T08:25:37.286Z</time></trkpt><trkpt lat="42.27144" lon="13.687715"><ele>924.0000000000001</ele><time>2026-05-03T08:25:38.286Z</time></trkpt><trkpt lat="42.2714683" lon="13.6878383"><ele>924.0000000000001</ele><time>2026-05-03T08:25:39.287Z</time></trkpt><trkpt lat="42.2714983" lon="13.687945"><ele>924.0</ele><time>2026-05-03T08:25:40.286Z</time></trkpt><trkpt lat="42.2715333" lon="13.6880483"><ele>924.0</ele><time>2026-05-03T08:25:41.286Z</time></trkpt><trkpt lat="42.2715817" lon="13.688125"><ele>927.0</ele><time>2026-05-03T08:25:42.286Z</time></trkpt><trkpt lat="42.2716333" lon="13.6881867"><ele>930.0</ele><time>2026-05-03T08:25:43.286Z</time></trkpt><trkpt lat="42.2717" lon="13.68824"><ele>933.0</ele><time>2026-05-03T08:25:44.286Z</time></trkpt><trkpt lat="42.2717717" lon="13.6882833"><ele>936.0</ele><time>2026-05-03T08:25:45.287Z</time></trkpt><trkpt lat="42.2718483" lon="13.6883233"><ele>939.0</ele><time>2026-05-03T08:25:46.286Z</time></trkpt><trkpt lat="42.2719267" lon="13.688355"><ele>942.0</ele><time>2026-05-03T08:25:47.286Z</time></trkpt><trkpt lat="42.2720033" lon="13.6883933"><ele>942.0</ele><time>2026-05-03T08:25:48.287Z</time></trkpt><trkpt lat="42.27208" lon="13.6884267"><ele>942.0</ele><time>2026-05-03T08:25:49.286Z</time></trkpt><trkpt lat="42.272165" lon="13.68847"><ele>942.0</ele><time>2026-05-03T08:25:50.286Z</time></trkpt><trkpt lat="42.2722583" lon="13.68851"><ele>942.0</ele><time>2026-05-03T08:25:51.287Z</time></trkpt><trkpt lat="42.2723517" lon="13.688555"><ele>942.0</ele><time>2026-05-03T08:25:52.286Z</time></trkpt><trkpt lat="42.2724517" lon="13.6886017"><ele>940.8</ele><time>2026-05-03T08:25:53.286Z</time></trkpt><trkpt lat="42.2725533" lon="13.6886567"><ele>939.6</ele><time>2026-05-03T08:25:54.286Z</time></trkpt><trkpt lat="42.2726383" lon="13.68872"><ele>938.3999999999999</ele><time>2026-05-03T08:25:55.286Z</time></trkpt><trkpt lat="42.272735" lon="13.6887933"><ele>937.1999999999999</ele><time>2026-05-03T08:25:56.286Z</time></trkpt><trkpt lat="42.27283" lon="13.688875"><ele>936.0</ele><time>2026-05-03T08:25:57.286Z</time></trkpt><trkpt lat="42.2729183" lon="13.68895"><ele>936.0</ele><time>2026-05-03T08:25:58.286Z</time></trkpt><trkpt lat="42.2729983" lon="13.689025"><ele>935.9999999999999</ele><time>2026-05-03T08:25:59.286Z</time></trkpt><trkpt lat="42.2730817" lon="13.6891033"><ele>935.9999999999999</ele><time>2026-05-03T08:26:00.286Z</time></trkpt><trkpt lat="42.2731517" lon="13.689185"><ele>936.0</ele><time>2026-05-03T08:26:01.286Z</time></trkpt><trkpt lat="42.2732233" lon="13.6892617"><ele>936.0</ele><time>2026-05-03T08:26:02.286Z</time></trkpt><trkpt lat="42.273305" lon="13.6893283"><ele>936.1666666666666</ele><time>2026-05-03T08:26:03.286Z</time></trkpt><trkpt lat="42.273375" lon="13.6893983"><ele>936.3333333333333</ele><time>2026-05-03T08:26:04.286Z</time></trkpt><trkpt lat="42.2734433" lon="13.6894467"><ele>936.5</ele><time>2026-05-03T08:26:05.287Z</time></trkpt><trkpt lat="42.273505" lon="13.68948"><ele>936.6666666666666</ele><time>2026-05-03T08:26:06.286Z</time></trkpt><trkpt lat="42.2735917" lon="13.6895"><ele>936.8333333333333</ele><time>2026-05-03T08:26:07.286Z</time></trkpt><trkpt lat="42.2736783" lon="13.689505"><ele>937.0</ele><time>2026-05-03T08:26:08.286Z</time></trkpt><trkpt lat="42.2737767" lon="13.6894767"><ele>937.0</ele><time>2026-05-03T08:26:09.286Z</time></trkpt><trkpt lat="42.273865" lon="13.6894417"><ele>937.0</ele><time>2026-05-03T08:26:10.286Z</time></trkpt><trkpt lat="42.2739417" lon="13.6893917"><ele>937.0</ele><time>2026-05-03T08:26:11.286Z</time></trkpt><trkpt lat="42.2740233" lon="13.689325"><ele>937.0</ele><time>2026-05-03T08:26:12.286Z</time></trkpt><trkpt lat="42.2741033" lon="13.689255"><ele>937.0</ele><time>2026-05-03T08:26:13.286Z</time></trkpt><trkpt lat="42.274185" lon="13.6891733"><ele>940.6666666666666</ele><time>2026-05-03T08:26:14.286Z</time></trkpt><trkpt lat="42.274265" lon="13.6891"><ele>944.3333333333333</ele><time>2026-05-03T08:26:15.286Z</time></trkpt><trkpt lat="42.2743417" lon="13.6890317"><ele>948.0</ele><time>2026-05-03T08:26:16.286Z</time></trkpt><trkpt lat="42.2744083" lon="13.6889717"><ele>951.6666666666667</ele><time>2026-05-03T08:26:17.286Z</time></trkpt><trkpt lat="42.2744817" lon="13.6889183"><ele>955.3333333333334</ele><time>2026-05-03T08:26:18.287Z</time></trkpt><trkpt lat="42.2745567" lon="13.6888717"><ele>959.0</ele><time>2026-05-03T08:26:19.286Z</time></trkpt><trkpt lat="42.274635" lon="13.6888283"><ele>959.0</ele><time>2026-05-03T08:26:20.286Z</time></trkpt><trkpt lat="42.2747133" lon="13.6887817"><ele>959.0000000000001</ele><time>2026-05-03T08:26:21.286Z</time></trkpt><trkpt lat="42.2747867" lon="13.68873"><ele>959.0000000000001</ele><time>2026-05-03T08:26:22.286Z</time></trkpt><trkpt lat="42.27488" lon="13.6886717"><ele>959.0</ele><time>2026-05-03T08:26:23.286Z</time></trkpt><trkpt lat="42.2749883" lon="13.6886033"><ele>959.0</ele><time>2026-05-03T08:26:24.286Z</time></trkpt><trkpt lat="42.2751017" lon="13.6885283"><ele>962.25</ele><time>2026-05-03T08:26:25.286Z</time></trkpt><trkpt lat="42.2752233" lon="13.6884533"><ele>965.5</ele><time>2026-05-03T08:26:26.286Z</time></trkpt><trkpt lat="42.2753467" lon="13.6883917"><ele>968.75</ele><time>2026-05-03T08:26:27.286Z</time></trkpt><trkpt lat="42.27546" lon="13.68833"><ele>972.0</ele><time>2026-05-03T08:26:28.286Z</time></trkpt><trkpt lat="42.2755683" lon="13.6882767"><ele>970.0</ele><time>2026-05-03T08:26:29.286Z</time></trkpt><trkpt lat="42.2756717" lon="13.6882333"><ele>968.0</ele><time>2026-05-03T08:26:30.286Z</time></trkpt><trkpt lat="42.2757717" lon="13.6882"><ele>966.0</ele><time>2026-05-03T08:26:31.287Z</time></trkpt><trkpt lat="42.2758717" lon="13.6881567"><ele>964.0</ele><time>2026-05-03T08:26:32.287Z</time></trkpt><trkpt lat="42.2759767" lon="13.6880933"><ele>962.0</ele><time>2026-05-03T08:26:33.286Z</time></trkpt><trkpt lat="42.2760817" lon="13.6880133"><ele>962.0</ele><time>2026-05-03T08:26:34.286Z</time></trkpt><trkpt lat="42.2761817" lon="13.687935"><ele>962.0</ele><time>2026-05-03T08:26:35.286Z</time></trkpt><trkpt lat="42.2762917" lon="13.687845"><ele>962.0</ele><time>2026-05-03T08:26:36.286Z</time></trkpt><trkpt lat="42.2764033" lon="13.687765"><ele>962.0</ele><time>2026-05-03T08:26:37.286Z</time></trkpt><trkpt lat="42.276505" lon="13.68768"><ele>963.75</ele><time>2026-05-03T08:26:38.286Z</time></trkpt><trkpt lat="42.2766217" lon="13.687595"><ele>965.5</ele><time>2026-05-03T08:26:39.286Z</time></trkpt><trkpt lat="42.27673" lon="13.6875217"><ele>967.25</ele><time>2026-05-03T08:26:40.286Z</time></trkpt><trkpt lat="42.2768383" lon="13.6874433"><ele>969.0</ele><time>2026-05-03T08:26:41.286Z</time></trkpt><trkpt lat="42.2769383" lon="13.687375"><ele>969.0</ele><time>2026-05-03T08:26:42.286Z</time></trkpt><trkpt lat="42.277045" lon="13.687305"><ele>969.0</ele><time>2026-05-03T08:26:43.286Z</time></trkpt><trkpt lat="42.27715" lon="13.6872383"><ele>969.0</ele><time>2026-05-03T08:26:44.286Z</time></trkpt><trkpt lat="42.2772583" lon="13.6871717"><ele>969.0</ele><time>2026-05-03T08:26:45.286Z</time></trkpt><trkpt lat="42.2773617" lon="13.687105"><ele>968.0</ele><time>2026-05-03T08:26:46.287Z</time></trkpt><trkpt lat="42.2774483" lon="13.6870383"><ele>967.0000000000001</ele><time>2026-05-03T08:26:47.286Z</time></trkpt><trkpt lat="42.2775183" lon="13.6869767"><ele>966.0000000000001</ele><time>2026-05-03T08:26:48.286Z</time></trkpt><trkpt lat="42.2775683" lon="13.6869167"><ele>965.0</ele><time>2026-05-03T08:26:49.286Z</time></trkpt><trkpt lat="42.2776383" lon="13.6868367"><ele>964.0</ele><time>2026-05-03T08:26:51.286Z</time></trkpt><trkpt lat="42.2777383" lon="13.6870017"><ele>964.0</ele><time>2026-05-03T08:27:22.286Z</time></trkpt><trkpt lat="42.2777517" lon="13.6871567"><ele>964.0000000000001</ele><time>2026-05-03T08:27:24.286Z</time></trkpt><trkpt lat="42.27778" lon="13.6872817"><ele>964.0000000000001</ele><time>2026-05-03T08:27:26.286Z</time></trkpt><trkpt lat="42.2777517" lon="13.6873933"><ele>964.0</ele><time>2026-05-03T08:27:28.287Z</time></trkpt><trkpt lat="42.2776967" lon="13.68755"><ele>964.0</ele><time>2026-05-03T08:27:30.287Z</time></trkpt><trkpt lat="42.277665" lon="13.6876533"><ele>964.0</ele><time>2026-05-03T08:27:31.286Z</time></trkpt><trkpt lat="42.277635" lon="13.6877433"><ele>964.0000000000001</ele><time>2026-05-03T08:27:32.286Z</time></trkpt><trkpt lat="42.2776117" lon="13.6878233"><ele>964.0000000000001</ele><time>2026-05-03T08:27:33.286Z</time></trkpt><trkpt lat="42.2775567" lon="13.6879433"><ele>964.0</ele><time>2026-05-03T08:27:35.286Z</time></trkpt><trkpt lat="42.277485" lon="13.6880633"><ele>964.0</ele><time>2026-05-03T08:27:37.286Z</time></trkpt><trkpt lat="42.2774267" lon="13.6881783"><ele>963.1666666666666</ele><time>2026-05-03T08:27:39.286Z</time></trkpt><trkpt lat="42.2774183" lon="13.68828"><ele>962.3333333333333</ele><time>2026-05-03T08:27:42.286Z</time></trkpt><trkpt lat="42.2774933" lon="13.688305"><ele>961.5</ele><time>2026-05-03T08:27:44.286Z</time></trkpt><trkpt lat="42.2776017" lon="13.68834"><ele>960.6666666666667</ele><time>2026-05-03T08:27:46.286Z</time></trkpt><trkpt lat="42.277685" lon="13.68835"><ele>959.8333333333334</ele><time>2026-05-03T08:27:48.287Z</time></trkpt><trkpt lat="42.2777667" lon="13.6883717"><ele>959.0</ele><time>2026-05-03T08:27:50.286Z</time></trkpt><trkpt lat="42.2778617" lon="13.6884367"><ele>959.0000000000001</ele><time>2026-05-03T08:27:52.287Z</time></trkpt><trkpt lat="42.277925" lon="13.6884683"><ele>959.0</ele><time>2026-05-03T08:27:53.286Z</time></trkpt><trkpt lat="42.2779933" lon="13.6885"><ele>959.0</ele><time>2026-05-03T08:27:54.286Z</time></trkpt><trkpt lat="42.27812" lon="13.68854"><ele>959.0</ele><time>2026-05-03T08:27:56.286Z</time></trkpt><trkpt lat="42.2781883" lon="13.6885517"><ele>959.0000000000001</ele><time>2026-05-03T08:27:57.287Z</time></trkpt><trkpt lat="42.2782583" lon="13.6885933"><ele>959.0</ele><time>2026-05-03T08:27:58.286Z</time></trkpt><trkpt lat="42.2783283" lon="13.688635"><ele>958.3333333333334</ele><time>2026-05-03T08:27:59.286Z</time></trkpt><trkpt lat="42.2784083" lon="13.6886717"><ele>957.6666666666667</ele><time>2026-05-03T08:28:00.286Z</time></trkpt><trkpt lat="42.2784733" lon="13.6887217"><ele>957.0</ele><time>2026-05-03T08:28:01.286Z</time></trkpt><trkpt lat="42.27854" lon="13.6887833"><ele>956.3333333333333</ele><time>2026-05-03T08:28:02.286Z</time></trkpt><trkpt lat="42.2786067" lon="13.688855"><ele>955.6666666666666</ele><time>2026-05-03T08:28:03.286Z</time></trkpt><trkpt lat="42.278665" lon="13.6889383"><ele>955.0</ele><time>2026-05-03T08:28:04.286Z</time></trkpt><trkpt lat="42.27872" lon="13.6890317"><ele>955.0</ele><time>2026-05-03T08:28:05.286Z</time></trkpt><trkpt lat="42.2787833" lon="13.6891217"><ele>955.0</ele><time>2026-05-03T08:28:06.286Z</time></trkpt><trkpt lat="42.2788567" lon="13.68922"><ele>955.0</ele><time>2026-05-03T08:28:07.286Z</time></trkpt><trkpt lat="42.278925" lon="13.6893"><ele>955.0</ele><time>2026-05-03T08:28:08.286Z</time></trkpt><trkpt lat="42.2789783" lon="13.6893783"><ele>955.0</ele><time>2026-05-03T08:28:09.287Z</time></trkpt><trkpt lat="42.2790467" lon="13.6894617"><ele>955.6666666666666</ele><time>2026-05-03T08:28:10.286Z</time></trkpt><trkpt lat="42.2791067" lon="13.6895567"><ele>956.3333333333333</ele><time>2026-05-03T08:28:11.286Z</time></trkpt><trkpt lat="42.2791717" lon="13.68964"><ele>957.0</ele><time>2026-05-03T08:28:12.286Z</time></trkpt><trkpt lat="42.279235" lon="13.6897083"><ele>957.6666666666667</ele><time>2026-05-03T08:28:13.286Z</time></trkpt><trkpt lat="42.2792933" lon="13.6897567"><ele>958.3333333333334</ele><time>2026-05-03T08:28:14.286Z</time></trkpt><trkpt lat="42.2794083" lon="13.6897883"><ele>959.0</ele><time>2026-05-03T08:28:16.286Z</time></trkpt><trkpt lat="42.2794817" lon="13.6897917"><ele>959.0000000000001</ele><time>2026-05-03T08:28:17.286Z</time></trkpt><trkpt lat="42.2795467" lon="13.6898133"><ele>959.0</ele><time>2026-05-03T08:28:18.286Z</time></trkpt><trkpt lat="42.27961" lon="13.689845"><ele>959.0</ele><time>2026-05-03T08:28:19.286Z</time></trkpt><trkpt lat="42.2796633" lon="13.689905"><ele>959.0</ele><time>2026-05-03T08:28:20.286Z</time></trkpt><trkpt lat="42.27971" lon="13.6899783"><ele>959.0000000000001</ele><time>2026-05-03T08:28:21.287Z</time></trkpt><trkpt lat="42.2797567" lon="13.6900533"><ele>959.0</ele><time>2026-05-03T08:28:22.286Z</time></trkpt><trkpt lat="42.27985" lon="13.690155"><ele>959.6</ele><time>2026-05-03T08:28:24.286Z</time></trkpt><trkpt lat="42.279905" lon="13.6901967"><ele>960.2</ele><time>2026-05-03T08:28:25.286Z</time></trkpt><trkpt lat="42.2800167" lon="13.6902483"><ele>960.8000000000001</ele><time>2026-05-03T08:28:27.286Z</time></trkpt><trkpt lat="42.2801467" lon="13.6902617"><ele>961.4000000000001</ele><time>2026-05-03T08:28:29.286Z</time></trkpt><trkpt lat="42.280215" lon="13.6902717"><ele>962.0</ele><time>2026-05-03T08:28:30.286Z</time></trkpt><trkpt lat="42.2803367" lon="13.6903017"><ele>962.0000000000001</ele><time>2026-05-03T08:28:32.286Z</time></trkpt><trkpt lat="42.2804" lon="13.69034"><ele>962.0</ele><time>2026-05-03T08:28:33.286Z</time></trkpt><trkpt lat="42.2804433" lon="13.6904083"><ele>962.0</ele><time>2026-05-03T08:28:34.286Z</time></trkpt><trkpt lat="42.2804833" lon="13.6904983"><ele>962.0</ele><time>2026-05-03T08:28:35.286Z</time></trkpt><trkpt lat="42.2805167" lon="13.6905917"><ele>962.0000000000001</ele><time>2026-05-03T08:28:36.286Z</time></trkpt><trkpt lat="42.280545" lon="13.6906917"><ele>962.0</ele><time>2026-05-03T08:28:37.286Z</time></trkpt><trkpt lat="42.28057" lon="13.6908067"><ele>962.0</ele><time>2026-05-03T08:28:38.286Z</time></trkpt><trkpt lat="42.2805767" lon="13.6909283"><ele>962.0</ele><time>2026-05-03T08:28:39.286Z</time></trkpt><trkpt lat="42.2805733" lon="13.6910467"><ele>962.0</ele><time>2026-05-03T08:28:40.286Z</time></trkpt><trkpt lat="42.2805633" lon="13.69116"><ele>962.0</ele><time>2026-05-03T08:28:41.286Z</time></trkpt><trkpt lat="42.280555" lon="13.6912617"><ele>962.0</ele><time>2026-05-03T08:28:42.286Z</time></trkpt><trkpt lat="42.28053" lon="13.691435"><ele>962.5000000000001</ele><time>2026-05-03T08:28:44.286Z</time></trkpt><trkpt lat="42.2805117" lon="13.6915217"><ele>963.0</ele><time>2026-05-03T08:28:45.287Z</time></trkpt><trkpt lat="42.2804717" lon="13.6916033"><ele>963.5</ele><time>2026-05-03T08:28:46.286Z</time></trkpt><trkpt lat="42.28044" lon="13.6917"><ele>964.0</ele><time>2026-05-03T08:28:47.286Z</time></trkpt><trkpt lat="42.280405" lon="13.6917983"><ele>964.5000000000001</ele><time>2026-05-03T08:28:48.286Z</time></trkpt><trkpt lat="42.2803617" lon="13.6919017"><ele>965.0</ele><time>2026-05-03T08:28:49.286Z</time></trkpt><trkpt lat="42.2803233" lon="13.6920217"><ele>967.1666666666667</ele><time>2026-05-03T08:28:50.286Z</time></trkpt><trkpt lat="42.2802933" lon="13.6921317"><ele>969.3333333333334</ele><time>2026-05-03T08:28:51.286Z</time></trkpt><trkpt lat="42.28026" lon="13.6922417"><ele>971.5</ele><time>2026-05-03T08:28:52.287Z</time></trkpt><trkpt lat="42.2802117" lon="13.6923583"><ele>973.6666666666667</ele><time>2026-05-03T08:28:53.286Z</time></trkpt><trkpt lat="42.2801683" lon="13.6924683"><ele>975.8333333333334</ele><time>2026-05-03T08:28:54.286Z</time></trkpt><trkpt lat="42.2801417" lon="13.6925583"><ele>978.0</ele><time>2026-05-03T08:28:55.286Z</time></trkpt><trkpt lat="42.2801033" lon="13.6926383"><ele>979.5</ele><time>2026-05-03T08:28:56.286Z</time></trkpt><trkpt lat="42.2800467" lon="13.6927733"><ele>981.0</ele><time>2026-05-03T08:28:58.286Z</time></trkpt><trkpt lat="42.28001" lon="13.6929083"><ele>982.5</ele><time>2026-05-03T08:29:00.286Z</time></trkpt><trkpt lat="42.28003" lon="13.6930683"><ele>984.0</ele><time>2026-05-03T08:29:02.286Z</time></trkpt><trkpt lat="42.28005" lon="13.6932317"><ele>984.0</ele><time>2026-05-03T08:29:04.286Z</time></trkpt><trkpt lat="42.2800617" lon="13.6933217"><ele>984.0</ele><time>2026-05-03T08:29:05.286Z</time></trkpt><trkpt lat="42.2800683" lon="13.693415"><ele>984.0</ele><time>2026-05-03T08:29:06.286Z</time></trkpt><trkpt lat="42.28008" lon="13.6935183"><ele>984.0</ele><time>2026-05-03T08:29:07.286Z</time></trkpt><trkpt lat="42.2800917" lon="13.6936233"><ele>984.0</ele><time>2026-05-03T08:29:08.286Z</time></trkpt><trkpt lat="42.2800917" lon="13.6937367"><ele>984.0</ele><time>2026-05-03T08:29:09.286Z</time></trkpt><trkpt lat="42.2800933" lon="13.6938433"><ele>983.6</ele><time>2026-05-03T08:29:10.286Z</time></trkpt><trkpt lat="42.2800917" lon="13.6939583"><ele>983.2</ele><time>2026-05-03T08:29:11.286Z</time></trkpt><trkpt lat="42.280085" lon="13.6940667"><ele>982.8000000000001</ele><time>2026-05-03T08:29:12.286Z</time></trkpt><trkpt lat="42.2800717" lon="13.6941817"><ele>982.4000000000001</ele><time>2026-05-03T08:29:13.286Z</time></trkpt><trkpt lat="42.280055" lon="13.6943217"><ele>982.0</ele><time>2026-05-03T08:29:14.286Z</time></trkpt><trkpt lat="42.280045" lon="13.6944567"><ele>981.1666666666666</ele><time>2026-05-03T08:29:15.286Z</time></trkpt><trkpt lat="42.2800433" lon="13.69458"><ele>980.3333333333333</ele><time>2026-05-03T08:29:16.286Z</time></trkpt><trkpt lat="42.2800367" lon="13.6946833"><ele>979.5</ele><time>2026-05-03T08:29:17.286Z</time></trkpt><trkpt lat="42.280025" lon="13.69477"><ele>978.6666666666667</ele><time>2026-05-03T08:29:18.286Z</time></trkpt><trkpt lat="42.2800117" lon="13.6948533"><ele>977.8333333333334</ele><time>2026-05-03T08:29:19.286Z</time></trkpt><trkpt lat="42.28" lon="13.6950217"><ele>977.0</ele><time>2026-05-03T08:29:21.286Z</time></trkpt><trkpt lat="42.280015" lon="13.695115"><ele>977.0000000000001</ele><time>2026-05-03T08:29:22.286Z</time></trkpt><trkpt lat="42.2800383" lon="13.6951983"><ele>977.0</ele><time>2026-05-03T08:29:23.287Z</time></trkpt><trkpt lat="42.2800717" lon="13.6952783"><ele>977.0</ele><time>2026-05-03T08:29:24.286Z</time></trkpt><trkpt lat="42.2801133" lon="13.6953467"><ele>977.0</ele><time>2026-05-03T08:29:25.286Z</time></trkpt><trkpt lat="42.2801467" lon="13.6954217"><ele>977.0000000000001</ele><time>2026-05-03T08:29:26.286Z</time></trkpt><trkpt lat="42.2802017" lon="13.695485"><ele>977.0</ele><time>2026-05-03T08:29:27.286Z</time></trkpt><trkpt lat="42.2802983" lon="13.6955833"><ele>975.8333333333334</ele><time>2026-05-03T08:29:29.287Z</time></trkpt><trkpt lat="42.2803817" lon="13.6956633"><ele>974.6666666666667</ele><time>2026-05-03T08:29:31.286Z</time></trkpt><trkpt lat="42.2804667" lon="13.69574"><ele>973.5</ele><time>2026-05-03T08:29:33.286Z</time></trkpt><trkpt lat="42.28052" lon="13.6957867"><ele>972.3333333333333</ele><time>2026-05-03T08:29:34.286Z</time></trkpt><trkpt lat="42.2805683" lon="13.6958433"><ele>971.1666666666666</ele><time>2026-05-03T08:29:35.287Z</time></trkpt><trkpt lat="42.280635" lon="13.6958917"><ele>970.0</ele><time>2026-05-03T08:29:36.286Z</time></trkpt><trkpt lat="42.2807467" lon="13.695935"><ele>972.6666666666666</ele><time>2026-05-03T08:29:38.286Z</time></trkpt><trkpt lat="42.2808533" lon="13.6959267"><ele>975.3333333333333</ele><time>2026-05-03T08:29:40.286Z</time></trkpt><trkpt lat="42.2809667" lon="13.6958917"><ele>978.0</ele><time>2026-05-03T08:29:42.286Z</time></trkpt><trkpt lat="42.2810317" lon="13.69586"><ele>980.6666666666667</ele><time>2026-05-03T08:29:43.286Z</time></trkpt><trkpt lat="42.2810983" lon="13.695815"><ele>983.3333333333334</ele><time>2026-05-03T08:29:44.286Z</time></trkpt><trkpt lat="42.2811717" lon="13.6957717"><ele>986.0</ele><time>2026-05-03T08:29:45.286Z</time></trkpt><trkpt lat="42.28124" lon="13.6957383"><ele>986.0</ele><time>2026-05-03T08:29:46.286Z</time></trkpt><trkpt lat="42.2813583" lon="13.6957417"><ele>985.9999999999999</ele><time>2026-05-03T08:29:48.286Z</time></trkpt><trkpt lat="42.2814267" lon="13.695855"><ele>985.9999999999999</ele><time>2026-05-03T08:29:50.286Z</time></trkpt><trkpt lat="42.28146" lon="13.6959367"><ele>986.0</ele><time>2026-05-03T08:29:51.286Z</time></trkpt><trkpt lat="42.2814983" lon="13.696035"><ele>986.0</ele><time>2026-05-03T08:29:52.286Z</time></trkpt><trkpt lat="42.2815417" lon="13.696145"><ele>986.6666666666667</ele><time>2026-05-03T08:29:53.286Z</time></trkpt><trkpt lat="42.2815917" lon="13.6962633"><ele>987.3333333333334</ele><time>2026-05-03T08:29:54.287Z</time></trkpt><trkpt lat="42.28165" lon="13.696355"><ele>988.0</ele><time>2026-05-03T08:29:55.286Z</time></trkpt><trkpt lat="42.281705" lon="13.6964383"><ele>988.6666666666667</ele><time>2026-05-03T08:29:56.286Z</time></trkpt><trkpt lat="42.2817617" lon="13.6965133"><ele>989.3333333333334</ele><time>2026-05-03T08:29:57.286Z</time></trkpt><trkpt lat="42.28182" lon="13.6965817"><ele>990.0</ele><time>2026-05-03T08:29:58.286Z</time></trkpt><trkpt lat="42.28188" lon="13.6966467"><ele>990.0</ele><time>2026-05-03T08:29:59.286Z</time></trkpt><trkpt lat="42.2819283" lon="13.69671"><ele>990.0</ele><time>2026-05-03T08:30:00.286Z</time></trkpt><trkpt lat="42.2819717" lon="13.6967733"><ele>990.0</ele><time>2026-05-03T08:30:01.286Z</time></trkpt><trkpt lat="42.2820417" lon="13.696875"><ele>990.0</ele><time>2026-05-03T08:30:03.287Z</time></trkpt><trkpt lat="42.282115" lon="13.69686"><ele>990.0</ele><time>2026-05-03T08:30:05.286Z</time></trkpt><trkpt lat="42.28213" lon="13.696755"><ele>990.0</ele><time>2026-05-03T08:30:07.286Z</time></trkpt><trkpt lat="42.2820767" lon="13.6966033"><ele>990.0</ele><time>2026-05-03T08:30:09.286Z</time></trkpt><trkpt lat="42.2820683" lon="13.6965167"><ele>990.0</ele><time>2026-05-03T08:30:10.286Z</time></trkpt><trkpt lat="42.282105" lon="13.696375"><ele>990.0</ele><time>2026-05-03T08:30:12.286Z</time></trkpt><trkpt lat="42.2821483" lon="13.6962983"><ele>990.0</ele><time>2026-05-03T08:30:13.286Z</time></trkpt><trkpt lat="42.282195" lon="13.6962183"><ele>990.0</ele><time>2026-05-03T08:30:14.286Z</time></trkpt><trkpt lat="42.2822367" lon="13.6961517"><ele>990.0</ele><time>2026-05-03T08:30:15.286Z</time></trkpt><trkpt lat="42.2822817" lon="13.695995"><ele>986.8571428571427</ele><time>2026-05-03T08:30:17.286Z</time></trkpt><trkpt lat="42.2822933" lon="13.6959"><ele>983.7142857142857</ele><time>2026-05-03T08:30:18.286Z</time></trkpt><trkpt lat="42.2822983" lon="13.6957967"><ele>980.5714285714284</ele><time>2026-05-03T08:30:19.286Z</time></trkpt><trkpt lat="42.2823017" lon="13.6956933"><ele>977.4285714285713</ele><time>2026-05-03T08:30:20.286Z</time></trkpt><trkpt lat="42.2823017" lon="13.69559"><ele>974.2857142857142</ele><time>2026-05-03T08:30:21.286Z</time></trkpt><trkpt lat="42.282305" lon="13.69549"><ele>971.1428571428571</ele><time>2026-05-03T08:30:22.286Z</time></trkpt><trkpt lat="42.2823117" lon="13.6953967"><ele>968.0</ele><time>2026-05-03T08:30:23.286Z</time></trkpt><trkpt lat="42.2823167" lon="13.6953083"><ele>967.5714285714286</ele><time>2026-05-03T08:30:24.286Z</time></trkpt><trkpt lat="42.28232" lon="13.695215"><ele>967.1428571428571</ele><time>2026-05-03T08:30:25.286Z</time></trkpt><trkpt lat="42.2823233" lon="13.6951133"><ele>966.7142857142857</ele><time>2026-05-03T08:30:26.286Z</time></trkpt><trkpt lat="42.2823367" lon="13.6950283"><ele>966.2857142857142</ele><time>2026-05-03T08:30:27.286Z</time></trkpt><trkpt lat="42.2823433" lon="13.6949317"><ele>965.8571428571429</ele><time>2026-05-03T08:30:28.286Z</time></trkpt><trkpt lat="42.282345" lon="13.694835"><ele>965.4285714285713</ele><time>2026-05-03T08:30:29.286Z</time></trkpt><trkpt lat="42.2823433" lon="13.6947283"><ele>965.0</ele><time>2026-05-03T08:30:30.286Z</time></trkpt><trkpt lat="42.2823267" lon="13.69462"><ele>965.0</ele><time>2026-05-03T08:30:31.286Z</time></trkpt><trkpt lat="42.282305" lon="13.69451"><ele>965.0</ele><time>2026-05-03T08:30:32.287Z</time></trkpt><trkpt lat="42.2822833" lon="13.6944117"><ele>965.0</ele><time>2026-05-03T08:30:33.286Z</time></trkpt><trkpt lat="42.2822617" lon="13.6943217"><ele>965.0</ele><time>2026-05-03T08:30:34.287Z</time></trkpt><trkpt lat="42.28224" lon="13.6942367"><ele>965.0</ele><time>2026-05-03T08:30:35.286Z</time></trkpt><trkpt lat="42.2822317" lon="13.6941433"><ele>965.0</ele><time>2026-05-03T08:30:36.286Z</time></trkpt><trkpt lat="42.2822333" lon="13.69404"><ele>965.0</ele><time>2026-05-03T08:30:37.286Z</time></trkpt><trkpt lat="42.2822467" lon="13.69394"><ele>963.6666666666667</ele><time>2026-05-03T08:30:38.286Z</time></trkpt><trkpt lat="42.2822717" lon="13.6938517"><ele>962.3333333333334</ele><time>2026-05-03T08:30:39.286Z</time></trkpt><trkpt lat="42.28229" lon="13.693765"><ele>961.0</ele><time>2026-05-03T08:30:40.286Z</time></trkpt><trkpt lat="42.28232" lon="13.6936"><ele>959.6666666666667</ele><time>2026-05-03T08:30:42.286Z</time></trkpt><trkpt lat="42.28233" lon="13.6935083"><ele>958.3333333333334</ele><time>2026-05-03T08:30:43.286Z</time></trkpt><trkpt lat="42.28234" lon="13.6934067"><ele>957.0</ele><time>2026-05-03T08:30:44.287Z</time></trkpt><trkpt lat="42.28235" lon="13.6933067"><ele>957.1666666666666</ele><time>2026-05-03T08:30:45.286Z</time></trkpt><trkpt lat="42.28236" lon="13.6931967"><ele>957.3333333333333</ele><time>2026-05-03T08:30:46.286Z</time></trkpt><trkpt lat="42.2823767" lon="13.693085"><ele>957.5</ele><time>2026-05-03T08:30:47.286Z</time></trkpt><trkpt lat="42.2823967" lon="13.692965"><ele>957.6666666666666</ele><time>2026-05-03T08:30:48.286Z</time></trkpt><trkpt lat="42.2824267" lon="13.692845"><ele>957.8333333333333</ele><time>2026-05-03T08:30:49.286Z</time></trkpt><trkpt lat="42.2824567" lon="13.6927267"><ele>958.0</ele><time>2026-05-03T08:30:50.286Z</time></trkpt><trkpt lat="42.2824883" lon="13.6926133"><ele>958.0</ele><time>2026-05-03T08:30:51.286Z</time></trkpt><trkpt lat="42.2825217" lon="13.6925"><ele>958.0</ele><time>2026-05-03T08:30:52.286Z</time></trkpt><trkpt lat="42.28255" lon="13.6923883"><ele>958.0</ele><time>2026-05-03T08:30:53.286Z</time></trkpt><trkpt lat="42.2825883" lon="13.6922767"><ele>958.0</ele><time>2026-05-03T08:30:54.286Z</time></trkpt><trkpt lat="42.2826367" lon="13.692165"><ele>958.0</ele><time>2026-05-03T08:30:55.286Z</time></trkpt><trkpt lat="42.2826917" lon="13.6920667"><ele>957.9999999999999</ele><time>2026-05-03T08:30:56.286Z</time></trkpt><trkpt lat="42.2827517" lon="13.6919767"><ele>958.0</ele><time>2026-05-03T08:30:57.286Z</time></trkpt><trkpt lat="42.2828033" lon="13.69189"><ele>958.0</ele><time>2026-05-03T08:30:58.286Z</time></trkpt><trkpt lat="42.28286" lon="13.6917983"><ele>958.0</ele><time>2026-05-03T08:30:59.286Z</time></trkpt><trkpt lat="42.2829283" lon="13.6917117"><ele>957.9999999999999</ele><time>2026-05-03T08:31:00.286Z</time></trkpt><trkpt lat="42.2829867" lon="13.6916417"><ele>958.0</ele><time>2026-05-03T08:31:01.286Z</time></trkpt><trkpt lat="42.2830533" lon="13.6915717"><ele>954.2</ele><time>2026-05-03T08:31:02.286Z</time></trkpt><trkpt lat="42.2831333" lon="13.6915083"><ele>950.4</ele><time>2026-05-03T08:31:03.286Z</time></trkpt><trkpt lat="42.283215" lon="13.6914517"><ele>946.6000000000001</ele><time>2026-05-03T08:31:04.286Z</time></trkpt><trkpt lat="42.2833117" lon="13.6913983"><ele>942.8000000000001</ele><time>2026-05-03T08:31:05.286Z</time></trkpt><trkpt lat="42.2834083" lon="13.6913383"><ele>939.0</ele><time>2026-05-03T08:31:06.286Z</time></trkpt><trkpt lat="42.2835083" lon="13.691275"><ele>939.0</ele><time>2026-05-03T08:31:07.286Z</time></trkpt><trkpt lat="42.2836067" lon="13.6912117"><ele>939.0000000000001</ele><time>2026-05-03T08:31:08.286Z</time></trkpt><trkpt lat="42.2837" lon="13.6911517"><ele>939.0000000000001</ele><time>2026-05-03T08:31:09.286Z</time></trkpt><trkpt lat="42.2837967" lon="13.69109"><ele>939.0</ele><time>2026-05-03T08:31:10.286Z</time></trkpt><trkpt lat="42.2838817" lon="13.6910317"><ele>939.0</ele><time>2026-05-03T08:31:11.286Z</time></trkpt><trkpt lat="42.2839633" lon="13.6909717"><ele>939.5714285714287</ele><time>2026-05-03T08:31:12.286Z</time></trkpt><trkpt lat="42.2840367" lon="13.6909233"><ele>940.1428571428571</ele><time>2026-05-03T08:31:13.286Z</time></trkpt><trkpt lat="42.2840983" lon="13.6908867"><ele>940.7142857142858</ele><time>2026-05-03T08:31:14.286Z</time></trkpt><trkpt lat="42.2841617" lon="13.6908617"><ele>941.2857142857143</ele><time>2026-05-03T08:31:15.286Z</time></trkpt><trkpt lat="42.2842267" lon="13.69086"><ele>941.8571428571429</ele><time>2026-05-03T08:31:16.286Z</time></trkpt><trkpt lat="42.2842983" lon="13.6908717"><ele>942.4285714285714</ele><time>2026-05-03T08:31:17.286Z</time></trkpt><trkpt lat="42.2843817" lon="13.6908983"><ele>943.0</ele><time>2026-05-03T08:31:18.286Z</time></trkpt><trkpt lat="42.2844733" lon="13.6909333"><ele>943.0</ele><time>2026-05-03T08:31:19.286Z</time></trkpt><trkpt lat="42.2845767" lon="13.6909733"><ele>943.0</ele><time>2026-05-03T08:31:20.286Z</time></trkpt><trkpt lat="42.2846833" lon="13.6910167"><ele>943.0</ele><time>2026-05-03T08:31:21.286Z</time></trkpt><trkpt lat="42.2848067" lon="13.691065"><ele>943.0</ele><time>2026-05-03T08:31:22.286Z</time></trkpt><trkpt lat="42.2849333" lon="13.6911067"><ele>934.5</ele><time>2026-05-03T08:31:23.286Z</time></trkpt><trkpt lat="42.28506" lon="13.691145"><ele>926.0</ele><time>2026-05-03T08:31:24.286Z</time></trkpt><trkpt lat="42.2851833" lon="13.6911833"><ele>917.5</ele><time>2026-05-03T08:31:25.286Z</time></trkpt><trkpt lat="42.2852933" lon="13.6912167"><ele>909.0</ele><time>2026-05-03T08:31:26.286Z</time></trkpt><trkpt lat="42.285385" lon="13.6912383"><ele>909.0</ele><time>2026-05-03T08:31:27.286Z</time></trkpt><trkpt lat="42.285465" lon="13.691255"><ele>909.0000000000001</ele><time>2026-05-03T08:31:28.286Z</time></trkpt><trkpt lat="42.2855617" lon="13.6912533"><ele>909.0000000000001</ele><time>2026-05-03T08:31:29.286Z</time></trkpt><trkpt lat="42.285655" lon="13.6912317"><ele>909.0</ele><time>2026-05-03T08:31:30.286Z</time></trkpt><trkpt lat="42.2857483" lon="13.6912083"><ele>909.0</ele><time>2026-05-03T08:31:31.286Z</time></trkpt><trkpt lat="42.2858417" lon="13.691195"><ele>909.4000000000001</ele><time>2026-05-03T08:31:32.286Z</time></trkpt><trkpt lat="42.2859317" lon="13.6911783"><ele>909.8000000000001</ele><time>2026-05-03T08:31:33.286Z</time></trkpt><trkpt lat="42.2860267" lon="13.6911567"><ele>910.1999999999999</ele><time>2026-05-03T08:31:34.286Z</time></trkpt><trkpt lat="42.2861283" lon="13.6911367"><ele>910.5999999999999</ele><time>2026-05-03T08:31:35.286Z</time></trkpt><trkpt lat="42.286225" lon="13.69111"><ele>911.0</ele><time>2026-05-03T08:31:36.286Z</time></trkpt><trkpt lat="42.286325" lon="13.69109"><ele>916.5999999999999</ele><time>2026-05-03T08:31:37.286Z</time></trkpt><trkpt lat="42.2864217" lon="13.69107"><ele>922.1999999999999</ele><time>2026-05-03T08:31:38.286Z</time></trkpt><trkpt lat="42.2865233" lon="13.6910517"><ele>927.8000000000001</ele><time>2026-05-03T08:31:39.286Z</time></trkpt><trkpt lat="42.2866283" lon="13.691035"><ele>933.4000000000001</ele><time>2026-05-03T08:31:40.287Z</time></trkpt><trkpt lat="42.2867267" lon="13.6910067"><ele>939.0</ele><time>2026-05-03T08:31:41.286Z</time></trkpt><trkpt lat="42.28682" lon="13.6909817"><ele>939.0</ele><time>2026-05-03T08:31:42.286Z</time></trkpt><trkpt lat="42.2869133" lon="13.6909533"><ele>939.0000000000001</ele><time>2026-05-03T08:31:43.287Z</time></trkpt><trkpt lat="42.2870067" lon="13.6909167"><ele>939.0000000000001</ele><time>2026-05-03T08:31:44.286Z</time></trkpt><trkpt lat="42.2871" lon="13.6908667"><ele>939.0</ele><time>2026-05-03T08:31:45.286Z</time></trkpt><trkpt lat="42.2871967" lon="13.6908217"><ele>939.0</ele><time>2026-05-03T08:31:46.286Z</time></trkpt><trkpt lat="42.287275" lon="13.6907833"><ele>936.3333333333334</ele><time>2026-05-03T08:31:47.286Z</time></trkpt><trkpt lat="42.2873517" lon="13.6907517"><ele>933.6666666666667</ele><time>2026-05-03T08:31:48.286Z</time></trkpt><trkpt lat="42.2874267" lon="13.6907233"><ele>931.0</ele><time>2026-05-03T08:31:49.286Z</time></trkpt><trkpt lat="42.28751" lon="13.6906933"><ele>928.3333333333334</ele><time>2026-05-03T08:31:50.286Z</time></trkpt><trkpt lat="42.2875817" lon="13.6906717"><ele>925.6666666666667</ele><time>2026-05-03T08:31:51.286Z</time></trkpt><trkpt lat="42.2876617" lon="13.6906467"><ele>923.0</ele><time>2026-05-03T08:31:52.286Z</time></trkpt><trkpt lat="42.28774" lon="13.6906217"><ele>923.0</ele><time>2026-05-03T08:31:53.286Z</time></trkpt><trkpt lat="42.28781" lon="13.6905983"><ele>923.0</ele><time>2026-05-03T08:31:54.286Z</time></trkpt><trkpt lat="42.287875" lon="13.6905733"><ele>923.0</ele><time>2026-05-03T08:31:55.286Z</time></trkpt><trkpt lat="42.2879383" lon="13.690545"><ele>923.0</ele><time>2026-05-03T08:31:56.286Z</time></trkpt><trkpt lat="42.288" lon="13.6905117"><ele>923.0</ele><time>2026-05-03T08:31:57.286Z</time></trkpt><trkpt lat="42.288075" lon="13.6904733"><ele>923.0</ele><time>2026-05-03T08:31:58.287Z</time></trkpt><trkpt lat="42.2881533" lon="13.6904317"><ele>923.0</ele><time>2026-05-03T08:31:59.286Z</time></trkpt><trkpt lat="42.288235" lon="13.6903867"><ele>920.1666666666667</ele><time>2026-05-03T08:32:00.286Z</time></trkpt><trkpt lat="42.28831" lon="13.6903517"><ele>917.3333333333334</ele><time>2026-05-03T08:32:01.286Z</time></trkpt><trkpt lat="42.2883883" lon="13.69033"><ele>914.5</ele><time>2026-05-03T08:32:02.286Z</time></trkpt><trkpt lat="42.28847" lon="13.6903133"><ele>911.6666666666667</ele><time>2026-05-03T08:32:03.286Z</time></trkpt><trkpt lat="42.2885417" lon="13.690315"><ele>908.8333333333334</ele><time>2026-05-03T08:32:04.286Z</time></trkpt><trkpt lat="42.28861" lon="13.6903283"><ele>906.0</ele><time>2026-05-03T08:32:05.286Z</time></trkpt><trkpt lat="42.288675" lon="13.69036"><ele>906.0</ele><time>2026-05-03T08:32:06.286Z</time></trkpt><trkpt lat="42.288735" lon="13.6903867"><ele>906.0</ele><time>2026-05-03T08:32:07.287Z</time></trkpt><trkpt lat="42.2888383" lon="13.6904367"><ele>906.0</ele><time>2026-05-03T08:32:09.286Z</time></trkpt><trkpt lat="42.2889233" lon="13.6904833"><ele>906.0</ele><time>2026-05-03T08:32:11.286Z</time></trkpt><trkpt lat="42.289005" lon="13.6905083"><ele>906.0</ele><time>2026-05-03T08:32:13.286Z</time></trkpt><trkpt lat="42.2890783" lon="13.6905133"><ele>906.0</ele><time>2026-05-03T08:32:15.286Z</time></trkpt><trkpt lat="42.28919" lon="13.69049"><ele>905.0</ele><time>2026-05-03T08:32:17.286Z</time></trkpt><trkpt lat="42.2893" lon="13.6904617"><ele>903.9999999999999</ele><time>2026-05-03T08:32:19.286Z</time></trkpt><trkpt lat="42.2894083" lon="13.6904333"><ele>902.9999999999999</ele><time>2026-05-03T08:32:21.286Z</time></trkpt><trkpt lat="42.289545" lon="13.690445"><ele>902.0</ele><time>2026-05-03T08:32:23.286Z</time></trkpt><trkpt lat="42.2896183" lon="13.690465"><ele>901.0</ele><time>2026-05-03T08:32:24.286Z</time></trkpt><trkpt lat="42.2896933" lon="13.6904983"><ele>901.0</ele><time>2026-05-03T08:32:25.286Z</time></trkpt><trkpt lat="42.289755" lon="13.6905267"><ele>900.9999999999999</ele><time>2026-05-03T08:32:26.286Z</time></trkpt><trkpt lat="42.2898183" lon="13.690555"><ele>900.9999999999999</ele><time>2026-05-03T08:32:27.286Z</time></trkpt><trkpt lat="42.28994" lon="13.690595"><ele>901.0</ele><time>2026-05-03T08:32:29.286Z</time></trkpt><trkpt lat="42.29006" lon="13.69061"><ele>901.0</ele><time>2026-05-03T08:32:31.286Z</time></trkpt><trkpt lat="42.2901767" lon="13.6906017"><ele>900.3333333333333</ele><time>2026-05-03T08:32:33.286Z</time></trkpt><trkpt lat="42.29025" lon="13.6905917"><ele>899.6666666666666</ele><time>2026-05-03T08:32:34.286Z</time></trkpt><trkpt lat="42.2903167" lon="13.69057"><ele>899.0</ele><time>2026-05-03T08:32:35.286Z</time></trkpt><trkpt lat="42.2903833" lon="13.6905467"><ele>898.3333333333333</ele><time>2026-05-03T08:32:36.286Z</time></trkpt><trkpt lat="42.29049" lon="13.6905133"><ele>897.6666666666666</ele><time>2026-05-03T08:32:38.286Z</time></trkpt><trkpt lat="42.2905717" lon="13.6904933"><ele>897.0</ele><time>2026-05-03T08:32:40.286Z</time></trkpt><trkpt lat="42.290685" lon="13.690485"><ele>895.0</ele><time>2026-05-03T08:32:42.286Z</time></trkpt><trkpt lat="42.2908017" lon="13.6905017"><ele>893.0</ele><time>2026-05-03T08:32:44.286Z</time></trkpt><trkpt lat="42.2909167" lon="13.690515"><ele>891.0</ele><time>2026-05-03T08:32:46.286Z</time></trkpt><trkpt lat="42.29104" lon="13.690495"><ele>889.0</ele><time>2026-05-03T08:32:48.286Z</time></trkpt><trkpt lat="42.2911017" lon="13.6904717"><ele>887.0</ele><time>2026-05-03T08:32:49.286Z</time></trkpt><trkpt lat="42.291165" lon="13.690445"><ele>887.0000000000001</ele><time>2026-05-03T08:32:50.287Z</time></trkpt><trkpt lat="42.291225" lon="13.6904117"><ele>887.0</ele><time>2026-05-03T08:32:51.286Z</time></trkpt><trkpt lat="42.2912817" lon="13.6903733"><ele>887.0</ele><time>2026-05-03T08:32:52.286Z</time></trkpt><trkpt lat="42.2913367" lon="13.6903283"><ele>887.0</ele><time>2026-05-03T08:32:53.287Z</time></trkpt><trkpt lat="42.2914283" lon="13.6902417"><ele>887.0000000000001</ele><time>2026-05-03T08:32:55.286Z</time></trkpt><trkpt lat="42.2915167" lon="13.6901633"><ele>887.0</ele><time>2026-05-03T08:32:57.286Z</time></trkpt><trkpt lat="42.2915967" lon="13.6900617"><ele>885.0</ele><time>2026-05-03T08:32:59.286Z</time></trkpt><trkpt lat="42.2916783" lon="13.6899517"><ele>883.0</ele><time>2026-05-03T08:33:01.286Z</time></trkpt><trkpt lat="42.29173" lon="13.689895"><ele>881.0</ele><time>2026-05-03T08:33:02.287Z</time></trkpt><trkpt lat="42.29185" lon="13.6898217"><ele>879.0</ele><time>2026-05-03T08:33:04.286Z</time></trkpt><trkpt lat="42.29191" lon="13.6897933"><ele>877.0</ele><time>2026-05-03T08:33:05.286Z</time></trkpt><trkpt lat="42.2920133" lon="13.68973"><ele>876.9999999999999</ele><time>2026-05-03T08:33:07.286Z</time></trkpt><trkpt lat="42.2921117" lon="13.6896533"><ele>877.0</ele><time>2026-05-03T08:33:09.286Z</time></trkpt><trkpt lat="42.2921617" lon="13.6895933"><ele>877.0</ele><time>2026-05-03T08:33:10.286Z</time></trkpt><trkpt lat="42.2922167" lon="13.6895117"><ele>877.0</ele><time>2026-05-03T08:33:11.286Z</time></trkpt><trkpt lat="42.292265" lon="13.6894217"><ele>876.9999999999999</ele><time>2026-05-03T08:33:12.286Z</time></trkpt><trkpt lat="42.2923167" lon="13.6893417"><ele>877.0</ele><time>2026-05-03T08:33:13.287Z</time></trkpt><trkpt lat="42.29237" lon="13.6892633"><ele>875.6666666666666</ele><time>2026-05-03T08:33:14.286Z</time></trkpt><trkpt lat="42.292423" lon="13.6891823"><ele>874.3333333333333</ele><time>2026-05-03T08:33:15.286Z</time></trkpt><trkpt lat="42.2924785" lon="13.6891051"><ele>873.0</ele><time>2026-05-03T08:33:16.286Z</time></trkpt><trkpt lat="42.2925366" lon="13.6890308"><ele>871.6666666666667</ele><time>2026-05-03T08:33:17.286Z</time></trkpt><trkpt lat="42.2925956" lon="13.6889598"><ele>870.3333333333334</ele><time>2026-05-03T08:33:18.286Z</time></trkpt><trkpt lat="42.292652" lon="13.6888993"><ele>869.0</ele><time>2026-05-03T08:33:19.286Z</time></trkpt><trkpt lat="42.2927085" lon="13.6888459"><ele>869.0000000000001</ele><time>2026-05-03T08:33:20.286Z</time></trkpt><trkpt lat="42.2927696" lon="13.6887973"><ele>869.0</ele><time>2026-05-03T08:33:21.286Z</time></trkpt><trkpt lat="42.2928373" lon="13.6887559"><ele>869.0</ele><time>2026-05-03T08:33:22.286Z</time></trkpt><trkpt lat="42.2929095" lon="13.6887151"><ele>869.0</ele><time>2026-05-03T08:33:23.286Z</time></trkpt><trkpt lat="42.2929822" lon="13.6886721"><ele>869.0000000000001</ele><time>2026-05-03T08:33:24.286Z</time></trkpt><trkpt lat="42.2930536" lon="13.6886238"><ele>869.0</ele><time>2026-05-03T08:33:25.286Z</time></trkpt><trkpt lat="42.2931269" lon="13.6885834"><ele>869.0000000000001</ele><time>2026-05-03T08:33:26.286Z</time></trkpt><trkpt lat="42.2931969" lon="13.6885574"><ele>869.0</ele><time>2026-05-03T08:33:27.286Z</time></trkpt><trkpt lat="42.2932604" lon="13.6885451"><ele>869.0</ele><time>2026-05-03T08:33:28.286Z</time></trkpt><trkpt lat="42.2933587" lon="13.6885451"><ele>869.0</ele><time>2026-05-03T08:33:30.286Z</time></trkpt><trkpt lat="42.2934167" lon="13.6885833"><ele>869.0000000000001</ele><time>2026-05-03T08:33:32.286Z</time></trkpt><trkpt lat="42.2934167" lon="13.688695"><ele>869.0</ele><time>2026-05-03T08:33:35.286Z</time></trkpt><trkpt lat="42.2933683" lon="13.6887683"><ele>869.0</ele><time>2026-05-03T08:33:36.287Z</time></trkpt><trkpt lat="42.2932933" lon="13.6888567"><ele>869.0</ele><time>2026-05-03T08:33:37.286Z</time></trkpt><trkpt lat="42.29321" lon="13.6889617"><ele>869.0</ele><time>2026-05-03T08:33:38.287Z</time></trkpt><trkpt lat="42.2931267" lon="13.6890817"><ele>869.0</ele><time>2026-05-03T08:33:39.286Z</time></trkpt><trkpt lat="42.2930333" lon="13.6892167"><ele>869.0</ele><time>2026-05-03T08:33:40.286Z</time></trkpt><trkpt lat="42.2929433" lon="13.6893533"><ele>869.0</ele><time>2026-05-03T08:33:41.286Z</time></trkpt><trkpt lat="42.2928733" lon="13.6895067"><ele>869.0</ele><time>2026-05-03T08:33:42.286Z</time></trkpt><trkpt lat="42.292805" lon="13.689665"><ele>869.0</ele><time>2026-05-03T08:33:43.286Z</time></trkpt><trkpt lat="42.2927333" lon="13.689815"><ele>866.5</ele><time>2026-05-03T08:33:44.286Z</time></trkpt><trkpt lat="42.2926683" lon="13.6899633"><ele>864.0</ele><time>2026-05-03T08:33:45.286Z</time></trkpt><trkpt lat="42.292615" lon="13.690095"><ele>861.5</ele><time>2026-05-03T08:33:46.287Z</time></trkpt><trkpt lat="42.2925717" lon="13.6902267"><ele>859.0</ele><time>2026-05-03T08:33:47.286Z</time></trkpt><trkpt lat="42.292525" lon="13.6903583"><ele>858.4000000000001</ele><time>2026-05-03T08:33:48.286Z</time></trkpt><trkpt lat="42.2924867" lon="13.6904917"><ele>857.8000000000001</ele><time>2026-05-03T08:33:49.286Z</time></trkpt><trkpt lat="42.292455" lon="13.6906433"><ele>857.1999999999999</ele><time>2026-05-03T08:33:50.286Z</time></trkpt><trkpt lat="42.292445" lon="13.6907767"><ele>856.5999999999999</ele><time>2026-05-03T08:33:51.287Z</time></trkpt><trkpt lat="42.2924417" lon="13.6908917"><ele>856.0</ele><time>2026-05-03T08:33:52.286Z</time></trkpt><trkpt lat="42.292435" lon="13.6910033"><ele>857.0</ele><time>2026-05-03T08:33:53.286Z</time></trkpt><trkpt lat="42.2924217" lon="13.6911167"><ele>857.9999999999999</ele><time>2026-05-03T08:33:54.287Z</time></trkpt><trkpt lat="42.2924017" lon="13.6912383"><ele>858.9999999999999</ele><time>2026-05-03T08:33:55.286Z</time></trkpt><trkpt lat="42.29236" lon="13.69137"><ele>860.0</ele><time>2026-05-03T08:33:56.286Z</time></trkpt><trkpt lat="42.2923133" lon="13.6915033"><ele>861.0</ele><time>2026-05-03T08:33:57.286Z</time></trkpt><trkpt lat="42.2922533" lon="13.6916367"><ele>861.25</ele><time>2026-05-03T08:33:58.286Z</time></trkpt><trkpt lat="42.2921933" lon="13.6917533"><ele>861.5</ele><time>2026-05-03T08:33:59.287Z</time></trkpt><trkpt lat="42.2921" lon="13.691875"><ele>861.75</ele><time>2026-05-03T08:34:00.286Z</time></trkpt><trkpt lat="42.2920083" lon="13.692005"><ele>862.0</ele><time>2026-05-03T08:34:01.286Z</time></trkpt><trkpt lat="42.29191" lon="13.6921283"><ele>862.0</ele><time>2026-05-03T08:34:02.286Z</time></trkpt><trkpt lat="42.2917683" lon="13.6922683"><ele>862.0</ele><time>2026-05-03T08:34:03.286Z</time></trkpt><trkpt lat="42.291635" lon="13.6923867"><ele>862.0</ele><time>2026-05-03T08:34:04.286Z</time></trkpt><trkpt lat="42.2915267" lon="13.6925083"><ele>862.0</ele><time>2026-05-03T08:34:05.286Z</time></trkpt><trkpt lat="42.291435" lon="13.6926017"><ele>862.0</ele><time>2026-05-03T08:34:06.287Z</time></trkpt><trkpt lat="42.2913616" lon="13.6926989"><ele>862.0</ele><time>2026-05-03T08:34:07.286Z</time></trkpt><trkpt lat="42.2913035" lon="13.6927839"><ele>862.0</ele><time>2026-05-03T08:34:08.286Z</time></trkpt><trkpt lat="42.2912574" lon="13.6928602"><ele>862.0</ele><time>2026-05-03T08:34:09.286Z</time></trkpt><trkpt lat="42.2911891" lon="13.6929625"><ele>861.9999999999999</ele><time>2026-05-03T08:34:11.286Z</time></trkpt><trkpt lat="42.2910901" lon="13.6929954"><ele>862.0</ele><time>2026-05-03T08:34:13.286Z</time></trkpt><trkpt lat="42.2910223" lon="13.6929921"><ele>862.0</ele><time>2026-05-03T08:34:14.286Z</time></trkpt><trkpt lat="42.2909508" lon="13.6930036"><ele>862.0</ele><time>2026-05-03T08:34:15.286Z</time></trkpt><trkpt lat="42.2908787" lon="13.6930319"><ele>861.9999999999999</ele><time>2026-05-03T08:34:16.286Z</time></trkpt><trkpt lat="42.2908028" lon="13.6930768"><ele>862.0</ele><time>2026-05-03T08:34:17.286Z</time></trkpt><trkpt lat="42.2907229" lon="13.6931176"><ele>861.9999999999999</ele><time>2026-05-03T08:34:18.286Z</time></trkpt><trkpt lat="42.2906449" lon="13.6931357"><ele>862.0</ele><time>2026-05-03T08:34:19.286Z</time></trkpt><trkpt lat="42.290565" lon="13.6931348"><ele>862.0</ele><time>2026-05-03T08:34:20.286Z</time></trkpt><trkpt lat="42.2904877" lon="13.6931472"><ele>862.0</ele><time>2026-05-03T08:34:21.286Z</time></trkpt><trkpt lat="42.2904128" lon="13.693172"><ele>861.9999999999999</ele><time>2026-05-03T08:34:22.286Z</time></trkpt><trkpt lat="42.2903322" lon="13.6932154"><ele>862.0</ele><time>2026-05-03T08:34:23.286Z</time></trkpt><trkpt lat="42.2902555" lon="13.6932701"><ele>860.6666666666666</ele><time>2026-05-03T08:34:24.287Z</time></trkpt><trkpt lat="42.290186" lon="13.6933252"><ele>859.3333333333333</ele><time>2026-05-03T08:34:25.286Z</time></trkpt><trkpt lat="42.2901199" lon="13.6933811"><ele>858.0</ele><time>2026-05-03T08:34:26.286Z</time></trkpt><trkpt lat="42.2900541" lon="13.693434"><ele>856.6666666666667</ele><time>2026-05-03T08:34:27.286Z</time></trkpt><trkpt lat="42.2899898" lon="13.6934915"><ele>855.3333333333334</ele><time>2026-05-03T08:34:28.286Z</time></trkpt><trkpt lat="42.2899314" lon="13.6935418"><ele>854.0</ele><time>2026-05-03T08:34:29.286Z</time></trkpt><trkpt lat="42.2898735" lon="13.6935999"><ele>853.6666666666667</ele><time>2026-05-03T08:34:30.286Z</time></trkpt><trkpt lat="42.2898151" lon="13.6936518"><ele>853.3333333333334</ele><time>2026-05-03T08:34:31.286Z</time></trkpt><trkpt lat="42.2897589" lon="13.6937094"><ele>853.0</ele><time>2026-05-03T08:34:32.286Z</time></trkpt><trkpt lat="42.2896996" lon="13.6937688"><ele>852.6666666666667</ele><time>2026-05-03T08:34:33.286Z</time></trkpt><trkpt lat="42.289655" lon="13.6938433"><ele>852.3333333333334</ele><time>2026-05-03T08:34:34.286Z</time></trkpt><trkpt lat="42.289605" lon="13.6939383"><ele>852.0</ele><time>2026-05-03T08:34:35.286Z</time></trkpt><trkpt lat="42.2895633" lon="13.6940367"><ele>849.4000000000001</ele><time>2026-05-03T08:34:36.286Z</time></trkpt><trkpt lat="42.2895217" lon="13.69415"><ele>846.8000000000001</ele><time>2026-05-03T08:34:37.286Z</time></trkpt><trkpt lat="42.2894767" lon="13.6942583"><ele>844.2</ele><time>2026-05-03T08:34:38.286Z</time></trkpt><trkpt lat="42.289425" lon="13.694385"><ele>841.6</ele><time>2026-05-03T08:34:39.286Z</time></trkpt><trkpt lat="42.2893617" lon="13.69452"><ele>839.0</ele><time>2026-05-03T08:34:40.286Z</time></trkpt><trkpt lat="42.2892967" lon="13.6946517"><ele>838.0</ele><time>2026-05-03T08:34:41.286Z</time></trkpt><trkpt lat="42.2892367" lon="13.6947717"><ele>837.0</ele><time>2026-05-03T08:34:42.287Z</time></trkpt><trkpt lat="42.2891833" lon="13.694885"><ele>836.0</ele><time>2026-05-03T08:34:43.286Z</time></trkpt><trkpt lat="42.2891117" lon="13.69497"><ele>835.0</ele><time>2026-05-03T08:34:44.287Z</time></trkpt><trkpt lat="42.2890617" lon="13.69508"><ele>834.0</ele><time>2026-05-03T08:34:45.287Z</time></trkpt><trkpt lat="42.2890133" lon="13.6951817"><ele>833.8333333333334</ele><time>2026-05-03T08:34:46.286Z</time></trkpt><trkpt lat="42.2889683" lon="13.6952833"><ele>833.6666666666667</ele><time>2026-05-03T08:34:47.286Z</time></trkpt><trkpt lat="42.28893" lon="13.6953717"><ele>833.5</ele><time>2026-05-03T08:34:48.286Z</time></trkpt><trkpt lat="42.2888933" lon="13.6954717"><ele>833.3333333333334</ele><time>2026-05-03T08:34:49.286Z</time></trkpt><trkpt lat="42.2888483" lon="13.69559"><ele>833.1666666666667</ele><time>2026-05-03T08:34:50.286Z</time></trkpt><trkpt lat="42.2888033" lon="13.6956867"><ele>833.0</ele><time>2026-05-03T08:34:51.286Z</time></trkpt><trkpt lat="42.2887583" lon="13.69577"><ele>830.6666666666667</ele><time>2026-05-03T08:34:52.286Z</time></trkpt><trkpt lat="42.28871" lon="13.6958333"><ele>828.3333333333334</ele><time>2026-05-03T08:34:53.286Z</time></trkpt><trkpt lat="42.288655" lon="13.6958883"><ele>826.0</ele><time>2026-05-03T08:34:54.286Z</time></trkpt><trkpt lat="42.2885983" lon="13.6959267"><ele>823.6666666666667</ele><time>2026-05-03T08:34:55.286Z</time></trkpt><trkpt lat="42.2885267" lon="13.6959583"><ele>821.3333333333334</ele><time>2026-05-03T08:34:56.286Z</time></trkpt><trkpt lat="42.2884583" lon="13.6959817"><ele>819.0</ele><time>2026-05-03T08:34:57.286Z</time></trkpt><trkpt lat="42.2883483" lon="13.6960417"><ele>818.4285714285714</ele><time>2026-05-03T08:34:59.286Z</time></trkpt><trkpt lat="42.2882867" lon="13.6960883"><ele>817.8571428571429</ele><time>2026-05-03T08:35:00.286Z</time></trkpt><trkpt lat="42.2882267" lon="13.696145"><ele>817.2857142857142</ele><time>2026-05-03T08:35:01.286Z</time></trkpt><trkpt lat="42.2881817" lon="13.69621"><ele>816.7142857142858</ele><time>2026-05-03T08:35:02.286Z</time></trkpt><trkpt lat="42.2881317" lon="13.6962717"><ele>816.1428571428571</ele><time>2026-05-03T08:35:03.286Z</time></trkpt><trkpt lat="42.2880717" lon="13.6963367"><ele>815.5714285714286</ele><time>2026-05-03T08:35:04.287Z</time></trkpt><trkpt lat="42.2880033" lon="13.696405"><ele>815.0</ele><time>2026-05-03T08:35:05.287Z</time></trkpt><trkpt lat="42.2879533" lon="13.6964733"><ele>813.2857142857142</ele><time>2026-05-03T08:35:06.286Z</time></trkpt><trkpt lat="42.2878867" lon="13.6965883"><ele>811.5714285714286</ele><time>2026-05-03T08:35:08.287Z</time></trkpt><trkpt lat="42.2878317" lon="13.6966317"><ele>809.8571428571429</ele><time>2026-05-03T08:35:09.287Z</time></trkpt><trkpt lat="42.2877683" lon="13.696675"><ele>808.1428571428571</ele><time>2026-05-03T08:35:10.286Z</time></trkpt><trkpt lat="42.2877117" lon="13.6967167"><ele>806.4285714285714</ele><time>2026-05-03T08:35:11.286Z</time></trkpt><trkpt lat="42.2876633" lon="13.696785"><ele>804.7142857142857</ele><time>2026-05-03T08:35:12.287Z</time></trkpt><trkpt lat="42.287625" lon="13.6968667"><ele>803.0</ele><time>2026-05-03T08:35:13.286Z</time></trkpt><trkpt lat="42.2875983" lon="13.6969617"><ele>802.4</ele><time>2026-05-03T08:35:14.286Z</time></trkpt><trkpt lat="42.2875883" lon="13.6970717"><ele>801.8</ele><time>2026-05-03T08:35:15.286Z</time></trkpt><trkpt lat="42.2875933" lon="13.6972033"><ele>801.2</ele><time>2026-05-03T08:35:16.286Z</time></trkpt><trkpt lat="42.28759" lon="13.69733"><ele>800.6</ele><time>2026-05-03T08:35:17.286Z</time></trkpt><trkpt lat="42.287565" lon="13.697455"><ele>800.0</ele><time>2026-05-03T08:35:18.287Z</time></trkpt><trkpt lat="42.28753" lon="13.6975617"><ele>800.0</ele><time>2026-05-03T08:35:19.287Z</time></trkpt><trkpt lat="42.28748" lon="13.6976633"><ele>800.0</ele><time>2026-05-03T08:35:20.286Z</time></trkpt><trkpt lat="42.2874283" lon="13.6977583"><ele>800.0</ele><time>2026-05-03T08:35:21.286Z</time></trkpt><trkpt lat="42.28739" lon="13.6978717"><ele>800.0</ele><time>2026-05-03T08:35:22.286Z</time></trkpt><trkpt lat="42.2873567" lon="13.697985"><ele>800.0</ele><time>2026-05-03T08:35:23.286Z</time></trkpt><trkpt lat="42.2873267" lon="13.6981067"><ele>799.8333333333334</ele><time>2026-05-03T08:35:24.286Z</time></trkpt><trkpt lat="42.287305" lon="13.69821"><ele>799.6666666666667</ele><time>2026-05-03T08:35:25.286Z</time></trkpt><trkpt lat="42.2872817" lon="13.6982983"><ele>799.5</ele><time>2026-05-03T08:35:26.286Z</time></trkpt><trkpt lat="42.28725" lon="13.6983817"><ele>799.3333333333333</ele><time>2026-05-03T08:35:27.286Z</time></trkpt><trkpt lat="42.2872183" lon="13.69846"><ele>799.1666666666666</ele><time>2026-05-03T08:35:28.286Z</time></trkpt><trkpt lat="42.2871867" lon="13.6985367"><ele>799.0</ele><time>2026-05-03T08:35:29.287Z</time></trkpt><trkpt lat="42.2871367" lon="13.6986867"><ele>797.8333333333333</ele><time>2026-05-03T08:35:31.286Z</time></trkpt><trkpt lat="42.2870933" lon="13.6988283"><ele>796.6666666666666</ele><time>2026-05-03T08:35:33.286Z</time></trkpt><trkpt lat="42.2870567" lon="13.698915"><ele>795.5</ele><time>2026-05-03T08:35:35.286Z</time></trkpt><trkpt lat="42.2870217" lon="13.6989883"><ele>794.3333333333333</ele><time>2026-05-03T08:35:38.286Z</time></trkpt><trkpt lat="42.2870133" lon="13.6991333"><ele>793.1666666666666</ele><time>2026-05-03T08:35:50.286Z</time></trkpt><trkpt lat="42.2869967" lon="13.6992383"><ele>792.0</ele><time>2026-05-03T08:35:51.286Z</time></trkpt><trkpt lat="42.286975" lon="13.6993433"><ele>791.0</ele><time>2026-05-03T08:35:52.287Z</time></trkpt><trkpt lat="42.286955" lon="13.6994533"><ele>790.0</ele><time>2026-05-03T08:35:53.286Z</time></trkpt><trkpt lat="42.28694" lon="13.6995683"><ele>789.0</ele><time>2026-05-03T08:35:54.286Z</time></trkpt><trkpt lat="42.2869217" lon="13.6996867"><ele>788.0</ele><time>2026-05-03T08:35:55.286Z</time></trkpt><trkpt lat="42.28692" lon="13.6998017"><ele>787.0</ele><time>2026-05-03T08:35:56.286Z</time></trkpt><trkpt lat="42.286905" lon="13.69993"><ele>786.0</ele><time>2026-05-03T08:35:57.287Z</time></trkpt><trkpt lat="42.2868883" lon="13.7000733"><ele>786.0</ele><time>2026-05-03T08:35:58.286Z</time></trkpt><trkpt lat="42.2868583" lon="13.7002333"><ele>786.0</ele><time>2026-05-03T08:35:59.286Z</time></trkpt><trkpt lat="42.28684" lon="13.700385"><ele>786.0</ele><time>2026-05-03T08:36:00.286Z</time></trkpt><trkpt lat="42.2868183" lon="13.7005367"><ele>786.0</ele><time>2026-05-03T08:36:01.286Z</time></trkpt><trkpt lat="42.2867967" lon="13.7006633"><ele>786.0</ele><time>2026-05-03T08:36:02.286Z</time></trkpt><trkpt lat="42.286785" lon="13.7007667"><ele>785.5</ele><time>2026-05-03T08:36:03.287Z</time></trkpt><trkpt lat="42.2868" lon="13.70091"><ele>785.0</ele><time>2026-05-03T08:36:05.286Z</time></trkpt><trkpt lat="42.2868233" lon="13.701005"><ele>784.5</ele><time>2026-05-03T08:36:06.286Z</time></trkpt><trkpt lat="42.2868533" lon="13.701115"><ele>784.0</ele><time>2026-05-03T08:36:07.286Z</time></trkpt><trkpt lat="42.2868783" lon="13.701225"><ele>783.5</ele><time>2026-05-03T08:36:08.286Z</time></trkpt><trkpt lat="42.2869" lon="13.7013233"><ele>783.0</ele><time>2026-05-03T08:36:09.286Z</time></trkpt><trkpt lat="42.2869117" lon="13.7014217"><ele>783.0</ele><time>2026-05-03T08:36:10.286Z</time></trkpt><trkpt lat="42.28691" lon="13.70151"><ele>783.0</ele><time>2026-05-03T08:36:11.286Z</time></trkpt><trkpt lat="42.28688" lon="13.70167"><ele>783.0</ele><time>2026-05-03T08:36:13.286Z</time></trkpt><trkpt lat="42.2868683" lon="13.7018083"><ele>783.0</ele><time>2026-05-03T08:36:15.286Z</time></trkpt><trkpt lat="42.286865" lon="13.7019683"><ele>783.0</ele><time>2026-05-03T08:36:17.286Z</time></trkpt><trkpt lat="42.2868433" lon="13.7021017"><ele>782.8333333333334</ele><time>2026-05-03T08:36:19.286Z</time></trkpt><trkpt lat="42.2867917" lon="13.7022083"><ele>782.6666666666667</ele><time>2026-05-03T08:36:21.286Z</time></trkpt><trkpt lat="42.286755" lon="13.70232"><ele>782.5</ele><time>2026-05-03T08:36:23.287Z</time></trkpt><trkpt lat="42.2867183" lon="13.702415"><ele>782.3333333333334</ele><time>2026-05-03T08:36:25.286Z</time></trkpt><trkpt lat="42.28667" lon="13.7025283"><ele>782.1666666666667</ele><time>2026-05-03T08:36:27.286Z</time></trkpt><trkpt lat="42.286715" lon="13.70262"><ele>782.0</ele><time>2026-05-03T08:36:31.286Z</time></trkpt><trkpt lat="42.2866967" lon="13.7027417"><ele>782.6666666666667</ele><time>2026-05-03T08:36:38.286Z</time></trkpt><trkpt lat="42.28666" lon="13.7028117"><ele>783.3333333333334</ele><time>2026-05-03T08:36:39.287Z</time></trkpt><trkpt lat="42.2866167" lon="13.7028933"><ele>784.0</ele><time>2026-05-03T08:36:40.286Z</time></trkpt><trkpt lat="42.2865667" lon="13.7029883"><ele>784.6666666666667</ele><time>2026-05-03T08:36:41.286Z</time></trkpt><trkpt lat="42.2865267" lon="13.7031"><ele>785.3333333333334</ele><time>2026-05-03T08:36:42.286Z</time></trkpt><trkpt lat="42.2864817" lon="13.7032017"><ele>786.0</ele><time>2026-05-03T08:36:43.286Z</time></trkpt><trkpt lat="42.286465" lon="13.7032867"><ele>784.3333333333334</ele><time>2026-05-03T08:36:44.286Z</time></trkpt><trkpt lat="42.2864183" lon="13.70341"><ele>782.6666666666667</ele><time>2026-05-03T08:36:45.286Z</time></trkpt><trkpt lat="42.2863967" lon="13.7035117"><ele>781.0</ele><time>2026-05-03T08:36:46.287Z</time></trkpt><trkpt lat="42.28637" lon="13.7036"><ele>779.3333333333334</ele><time>2026-05-03T08:36:47.286Z</time></trkpt><trkpt lat="42.2863367" lon="13.7037317"><ele>777.6666666666667</ele><time>2026-05-03T08:36:49.286Z</time></trkpt><trkpt lat="42.286265" lon="13.7038117"><ele>776.0</ele><time>2026-05-03T08:36:51.286Z</time></trkpt><trkpt lat="42.2861517" lon="13.7038283"><ele>776.0000000000001</ele><time>2026-05-03T08:36:53.286Z</time></trkpt><trkpt lat="42.28602" lon="13.7037933"><ele>776.0</ele><time>2026-05-03T08:36:55.286Z</time></trkpt><trkpt lat="42.2859383" lon="13.7037667"><ele>776.0</ele><time>2026-05-03T08:36:56.286Z</time></trkpt><trkpt lat="42.2858517" lon="13.7037433"><ele>776.0</ele><time>2026-05-03T08:36:57.287Z</time></trkpt><trkpt lat="42.2857783" lon="13.7037283"><ele>776.0000000000001</ele><time>2026-05-03T08:36:58.286Z</time></trkpt><trkpt lat="42.2857117" lon="13.7037217"><ele>776.0</ele><time>2026-05-03T08:36:59.286Z</time></trkpt><trkpt lat="42.2855883" lon="13.7037383"><ele>779.3333333333334</ele><time>2026-05-03T08:37:01.286Z</time></trkpt><trkpt lat="42.2855283" lon="13.703775"><ele>782.6666666666667</ele><time>2026-05-03T08:37:02.286Z</time></trkpt><trkpt lat="42.285475" lon="13.703845"><ele>786.0</ele><time>2026-05-03T08:37:03.286Z</time></trkpt><trkpt lat="42.2854283" lon="13.703925"><ele>789.3333333333333</ele><time>2026-05-03T08:37:04.286Z</time></trkpt><trkpt lat="42.2853767" lon="13.7040317"><ele>792.6666666666666</ele><time>2026-05-03T08:37:05.286Z</time></trkpt><trkpt lat="42.2853183" lon="13.7041417"><ele>796.0</ele><time>2026-05-03T08:37:06.286Z</time></trkpt><trkpt lat="42.2852633" lon="13.7042533"><ele>796.0</ele><time>2026-05-03T08:37:07.287Z</time></trkpt><trkpt lat="42.285215" lon="13.7043633"><ele>796.0</ele><time>2026-05-03T08:37:08.286Z</time></trkpt><trkpt lat="42.28518" lon="13.7044717"><ele>796.0</ele><time>2026-05-03T08:37:09.286Z</time></trkpt><trkpt lat="42.2851467" lon="13.704585"><ele>796.0</ele><time>2026-05-03T08:37:10.286Z</time></trkpt><trkpt lat="42.28512" lon="13.7047"><ele>796.0</ele><time>2026-05-03T08:37:11.286Z</time></trkpt><trkpt lat="42.2850883" lon="13.7048233"><ele>794.8</ele><time>2026-05-03T08:37:12.286Z</time></trkpt><trkpt lat="42.2850633" lon="13.70495"><ele>793.5999999999999</ele><time>2026-05-03T08:37:13.286Z</time></trkpt><trkpt lat="42.2850383" lon="13.7050833"><ele>792.4</ele><time>2026-05-03T08:37:14.285Z</time></trkpt><trkpt lat="42.2850083" lon="13.7052167"><ele>791.2</ele><time>2026-05-03T08:37:15.286Z</time></trkpt><trkpt lat="42.28497" lon="13.7053433"><ele>790.0</ele><time>2026-05-03T08:37:16.286Z</time></trkpt><trkpt lat="42.284915" lon="13.7054783"><ele>788.75</ele><time>2026-05-03T08:37:17.286Z</time></trkpt><trkpt lat="42.28486" lon="13.7056367"><ele>787.5</ele><time>2026-05-03T08:37:18.286Z</time></trkpt><trkpt lat="42.2848133" lon="13.7057883"><ele>786.25</ele><time>2026-05-03T08:37:19.286Z</time></trkpt><trkpt lat="42.2847717" lon="13.7059383"><ele>785.0</ele><time>2026-05-03T08:37:20.286Z</time></trkpt><trkpt lat="42.2847317" lon="13.7060783"><ele>789.8</ele><time>2026-05-03T08:37:21.286Z</time></trkpt><trkpt lat="42.2846833" lon="13.7062117"><ele>794.6</ele><time>2026-05-03T08:37:22.286Z</time></trkpt><trkpt lat="42.284635" lon="13.7063317"><ele>799.4000000000001</ele><time>2026-05-03T08:37:23.286Z</time></trkpt><trkpt lat="42.28458" lon="13.7064533"><ele>804.2</ele><time>2026-05-03T08:37:24.286Z</time></trkpt><trkpt lat="42.2845283" lon="13.706565"><ele>809.0</ele><time>2026-05-03T08:37:25.286Z</time></trkpt><trkpt lat="42.2844667" lon="13.70666"><ele>809.0</ele><time>2026-05-03T08:37:26.286Z</time></trkpt><trkpt lat="42.284405" lon="13.7067683"><ele>809.0</ele><time>2026-05-03T08:37:27.286Z</time></trkpt><trkpt lat="42.284335" lon="13.706865"><ele>809.0</ele><time>2026-05-03T08:37:28.286Z</time></trkpt><trkpt lat="42.2842617" lon="13.7069583"><ele>809.0</ele><time>2026-05-03T08:37:29.286Z</time></trkpt><trkpt lat="42.2841883" lon="13.707045"><ele>809.0</ele><time>2026-05-03T08:37:30.287Z</time></trkpt><trkpt lat="42.28411" lon="13.70714"><ele>808.2</ele><time>2026-05-03T08:37:31.286Z</time></trkpt><trkpt lat="42.28403" lon="13.70724"><ele>807.4000000000001</ele><time>2026-05-03T08:37:32.286Z</time></trkpt><trkpt lat="42.2839583" lon="13.7073317"><ele>806.6</ele><time>2026-05-03T08:37:33.286Z</time></trkpt><trkpt lat="42.28389" lon="13.70743"><ele>805.8</ele><time>2026-05-03T08:37:34.286Z</time></trkpt><trkpt lat="42.2838217" lon="13.7075383"><ele>805.0</ele><time>2026-05-03T08:37:35.286Z</time></trkpt><trkpt lat="42.2837517" lon="13.707655"><ele>807.6</ele><time>2026-05-03T08:37:36.287Z</time></trkpt><trkpt lat="42.2836867" lon="13.7077733"><ele>810.2</ele><time>2026-05-03T08:37:37.286Z</time></trkpt><trkpt lat="42.2836233" lon="13.7078933"><ele>812.8</ele><time>2026-05-03T08:37:38.286Z</time></trkpt><trkpt lat="42.2835567" lon="13.7080083"><ele>815.4</ele><time>2026-05-03T08:37:39.286Z</time></trkpt><trkpt lat="42.2834867" lon="13.70812"><ele>818.0</ele><time>2026-05-03T08:37:40.286Z</time></trkpt><trkpt lat="42.2834117" lon="13.708235"><ele>818.0</ele><time>2026-05-03T08:37:41.286Z</time></trkpt><trkpt lat="42.28333" lon="13.708355"><ele>818.0</ele><time>2026-05-03T08:37:42.286Z</time></trkpt><trkpt lat="42.28325" lon="13.7084667"><ele>818.0</ele><time>2026-05-03T08:37:43.286Z</time></trkpt><trkpt lat="42.2831783" lon="13.7085667"><ele>818.0</ele><time>2026-05-03T08:37:44.286Z</time></trkpt><trkpt lat="42.2830983" lon="13.7086583"><ele>818.0</ele><time>2026-05-03T08:37:45.286Z</time></trkpt><trkpt lat="42.283035" lon="13.7087267"><ele>818.5999999999999</ele><time>2026-05-03T08:37:46.286Z</time></trkpt><trkpt lat="42.282945" lon="13.708765"><ele>819.1999999999999</ele><time>2026-05-03T08:37:47.287Z</time></trkpt><trkpt lat="42.2828533" lon="13.7087917"><ele>819.8</ele><time>2026-05-03T08:37:48.286Z</time></trkpt><trkpt lat="42.2827817" lon="13.7088217"><ele>820.4</ele><time>2026-05-03T08:37:49.286Z</time></trkpt><trkpt lat="42.282695" lon="13.7088667"><ele>821.0</ele><time>2026-05-03T08:37:50.286Z</time></trkpt><trkpt lat="42.282605" lon="13.7089083"><ele>821.0</ele><time>2026-05-03T08:37:51.286Z</time></trkpt><trkpt lat="42.28251" lon="13.7089717"><ele>821.0</ele><time>2026-05-03T08:37:52.286Z</time></trkpt><trkpt lat="42.28241" lon="13.7090533"><ele>821.0</ele><time>2026-05-03T08:37:53.286Z</time></trkpt><trkpt lat="42.2823033" lon="13.7091217"><ele>821.0</ele><time>2026-05-03T08:37:54.286Z</time></trkpt><trkpt lat="42.2821967" lon="13.7091933"><ele>821.1666666666667</ele><time>2026-05-03T08:37:55.287Z</time></trkpt><trkpt lat="42.2821167" lon="13.709245"><ele>821.3333333333334</ele><time>2026-05-03T08:37:56.286Z</time></trkpt><trkpt lat="42.2820517" lon="13.7092767"><ele>821.5</ele><time>2026-05-03T08:37:57.286Z</time></trkpt><trkpt lat="42.2819817" lon="13.7093283"><ele>821.6666666666667</ele><time>2026-05-03T08:37:58.286Z</time></trkpt><trkpt lat="42.281915" lon="13.709385"><ele>821.8333333333334</ele><time>2026-05-03T08:37:59.286Z</time></trkpt><trkpt lat="42.2818483" lon="13.70943"><ele>822.0</ele><time>2026-05-03T08:38:00.286Z</time></trkpt><trkpt lat="42.281775" lon="13.7094733"><ele>822.0</ele><time>2026-05-03T08:38:01.286Z</time></trkpt><trkpt lat="42.2817033" lon="13.7095233"><ele>822.0</ele><time>2026-05-03T08:38:02.287Z</time></trkpt><trkpt lat="42.2816383" lon="13.70958"><ele>822.0</ele><time>2026-05-03T08:38:03.286Z</time></trkpt><trkpt lat="42.2815667" lon="13.7096433"><ele>822.0</ele><time>2026-05-03T08:38:04.286Z</time></trkpt><trkpt lat="42.2814967" lon="13.7097117"><ele>822.0</ele><time>2026-05-03T08:38:05.286Z</time></trkpt><trkpt lat="42.2814233" lon="13.7097617"><ele>822.0</ele><time>2026-05-03T08:38:06.286Z</time></trkpt><trkpt lat="42.2813467" lon="13.7098117"><ele>825.5</ele><time>2026-05-03T08:38:07.286Z</time></trkpt><trkpt lat="42.28126" lon="13.709845"><ele>829.0</ele><time>2026-05-03T08:38:08.287Z</time></trkpt><trkpt lat="42.2811817" lon="13.7098833"><ele>832.5</ele><time>2026-05-03T08:38:09.286Z</time></trkpt><trkpt lat="42.2810917" lon="13.7099083"><ele>836.0</ele><time>2026-05-03T08:38:10.287Z</time></trkpt><trkpt lat="42.2810133" lon="13.7099367"><ele>839.5</ele><time>2026-05-03T08:38:11.286Z</time></trkpt><trkpt lat="42.2809383" lon="13.70997"><ele>843.0</ele><time>2026-05-03T08:38:12.287Z</time></trkpt><trkpt lat="42.28087" lon="13.71"><ele>843.0</ele><time>2026-05-03T08:38:13.286Z</time></trkpt><trkpt lat="42.280795" lon="13.7100333"><ele>843.0</ele><time>2026-05-03T08:38:14.286Z</time></trkpt><trkpt lat="42.2807183" lon="13.7100633"><ele>843.0</ele><time>2026-05-03T08:38:15.286Z</time></trkpt><trkpt lat="42.28065" lon="13.7100767"><ele>843.0</ele><time>2026-05-03T08:38:16.286Z</time></trkpt><trkpt lat="42.2805733" lon="13.710085"><ele>843.0</ele><time>2026-05-03T08:38:17.287Z</time></trkpt><trkpt lat="42.280495" lon="13.7100933"><ele>843.0</ele><time>2026-05-03T08:38:18.286Z</time></trkpt><trkpt lat="42.280415" lon="13.7100967"><ele>844.8333333333334</ele><time>2026-05-03T08:38:19.286Z</time></trkpt><trkpt lat="42.280335" lon="13.7100967"><ele>846.6666666666667</ele><time>2026-05-03T08:38:20.286Z</time></trkpt><trkpt lat="42.28026" lon="13.7100967"><ele>848.5</ele><time>2026-05-03T08:38:21.286Z</time></trkpt><trkpt lat="42.2801917" lon="13.7101"><ele>850.3333333333334</ele><time>2026-05-03T08:38:22.286Z</time></trkpt><trkpt lat="42.2801233" lon="13.7101067"><ele>852.1666666666667</ele><time>2026-05-03T08:38:23.286Z</time></trkpt><trkpt lat="42.2800417" lon="13.7101233"><ele>854.0</ele><time>2026-05-03T08:38:24.286Z</time></trkpt><trkpt lat="42.2799533" lon="13.710145"><ele>854.0</ele><time>2026-05-03T08:38:25.286Z</time></trkpt><trkpt lat="42.2798733" lon="13.7101483"><ele>854.0000000000001</ele><time>2026-05-03T08:38:26.286Z</time></trkpt><trkpt lat="42.2797783" lon="13.710155"><ele>854.0000000000001</ele><time>2026-05-03T08:38:27.286Z</time></trkpt><trkpt lat="42.279675" lon="13.710165"><ele>854.0</ele><time>2026-05-03T08:38:28.286Z</time></trkpt><trkpt lat="42.2795817" lon="13.7101617"><ele>854.0</ele><time>2026-05-03T08:38:29.286Z</time></trkpt><trkpt lat="42.2794733" lon="13.71015"><ele>855.4000000000001</ele><time>2026-05-03T08:38:30.286Z</time></trkpt><trkpt lat="42.279365" lon="13.7101533"><ele>856.8000000000001</ele><time>2026-05-03T08:38:31.286Z</time></trkpt><trkpt lat="42.2792783" lon="13.710145"><ele>858.1999999999999</ele><time>2026-05-03T08:38:32.286Z</time></trkpt><trkpt lat="42.27919" lon="13.7101317"><ele>859.5999999999999</ele><time>2026-05-03T08:38:33.286Z</time></trkpt><trkpt lat="42.27906" lon="13.71007"><ele>861.0</ele><time>2026-05-03T08:38:35.286Z</time></trkpt><trkpt lat="42.2789717" lon="13.710055"><ele>863.5999999999999</ele><time>2026-05-03T08:38:36.287Z</time></trkpt><trkpt lat="42.27887" lon="13.7100583"><ele>866.1999999999999</ele><time>2026-05-03T08:38:37.286Z</time></trkpt><trkpt lat="42.278765" lon="13.7100683"><ele>868.8000000000001</ele><time>2026-05-03T08:38:38.286Z</time></trkpt><trkpt lat="42.2786583" lon="13.7100783"><ele>871.4000000000001</ele><time>2026-05-03T08:38:39.286Z</time></trkpt><trkpt lat="42.27857" lon="13.7101033"><ele>874.0</ele><time>2026-05-03T08:38:40.287Z</time></trkpt><trkpt lat="42.2784867" lon="13.7101067"><ele>873.9999999999999</ele><time>2026-05-03T08:38:41.287Z</time></trkpt><trkpt lat="42.278395" lon="13.7101167"><ele>874.0</ele><time>2026-05-03T08:38:42.286Z</time></trkpt><trkpt lat="42.2783033" lon="13.7101383"><ele>874.0</ele><time>2026-05-03T08:38:43.286Z</time></trkpt><trkpt lat="42.2782067" lon="13.7101767"><ele>874.0</ele><time>2026-05-03T08:38:44.286Z</time></trkpt><trkpt lat="42.2781317" lon="13.7102"><ele>873.9999999999999</ele><time>2026-05-03T08:38:45.286Z</time></trkpt><trkpt lat="42.2780683" lon="13.7102317"><ele>874.0</ele><time>2026-05-03T08:38:46.286Z</time></trkpt><trkpt lat="42.2780033" lon="13.7102617"><ele>874.9999999999999</ele><time>2026-05-03T08:38:47.286Z</time></trkpt><trkpt lat="42.27793" lon="13.7102783"><ele>876.0</ele><time>2026-05-03T08:38:48.286Z</time></trkpt><trkpt lat="42.2778567" lon="13.7102883"><ele>877.0</ele><time>2026-05-03T08:38:49.286Z</time></trkpt><trkpt lat="42.277735" lon="13.7102883"><ele>878.0</ele><time>2026-05-03T08:38:51.286Z</time></trkpt><trkpt lat="42.2776717" lon="13.7103067"><ele>878.9999999999999</ele><time>2026-05-03T08:38:52.286Z</time></trkpt><trkpt lat="42.27759" lon="13.71032"><ele>880.0</ele><time>2026-05-03T08:38:53.287Z</time></trkpt><trkpt lat="42.2775067" lon="13.7103333"><ele>880.0</ele><time>2026-05-03T08:38:54.287Z</time></trkpt><trkpt lat="42.277385" lon="13.7103867"><ele>880.0</ele><time>2026-05-03T08:38:56.286Z</time></trkpt><trkpt lat="42.2773367" lon="13.710485"><ele>880.0</ele><time>2026-05-03T08:38:58.286Z</time></trkpt><trkpt lat="42.2773212" lon="13.710579"><ele>880.0</ele><time>2026-05-03T08:39:01.286Z</time></trkpt><trkpt lat="42.2772267" lon="13.7105867"><ele>880.0</ele><time>2026-05-03T08:56:22.285Z</time></trkpt><trkpt lat="42.2771167" lon="13.710605"><ele>879.0</ele><time>2026-05-03T08:56:24.285Z</time></trkpt><trkpt lat="42.277" lon="13.7106267"><ele>878.0</ele><time>2026-05-03T08:56:26.286Z</time></trkpt><trkpt lat="42.2768933" lon="13.71067"><ele>877.0</ele><time>2026-05-03T08:56:28.285Z</time></trkpt><trkpt lat="42.27679" lon="13.7107067"><ele>876.0</ele><time>2026-05-03T08:56:30.285Z</time></trkpt><trkpt lat="42.2766783" lon="13.7107233"><ele>875.0</ele><time>2026-05-03T08:56:32.285Z</time></trkpt><trkpt lat="42.276575" lon="13.710695"><ele>875.0</ele><time>2026-05-03T08:56:34.285Z</time></trkpt><trkpt lat="42.2764667" lon="13.7106817"><ele>875.0</ele><time>2026-05-03T08:56:36.285Z</time></trkpt><trkpt lat="42.2763583" lon="13.7106617"><ele>875.0</ele><time>2026-05-03T08:56:38.285Z</time></trkpt><trkpt lat="42.2762683" lon="13.7106667"><ele>875.0</ele><time>2026-05-03T08:56:40.285Z</time></trkpt><trkpt lat="42.2761633" lon="13.710735"><ele>875.0</ele><time>2026-05-03T08:56:42.285Z</time></trkpt><trkpt lat="42.276105" lon="13.710795"><ele>873.6666666666667</ele><time>2026-05-03T08:56:43.285Z</time></trkpt><trkpt lat="42.276045" lon="13.7108583"><ele>872.3333333333334</ele><time>2026-05-03T08:56:44.285Z</time></trkpt><trkpt lat="42.2759717" lon="13.7109067"><ele>871.0</ele><time>2026-05-03T08:56:45.285Z</time></trkpt><trkpt lat="42.275885" lon="13.710945"><ele>869.6666666666667</ele><time>2026-05-03T08:56:46.285Z</time></trkpt><trkpt lat="42.2758" lon="13.710975"><ele>868.3333333333334</ele><time>2026-05-03T08:56:47.285Z</time></trkpt><trkpt lat="42.27572" lon="13.7110067"><ele>867.0</ele><time>2026-05-03T08:56:48.285Z</time></trkpt><trkpt lat="42.2756533" lon="13.7110333"><ele>867.8571428571428</ele><time>2026-05-03T08:56:49.285Z</time></trkpt><trkpt lat="42.2755833" lon="13.7110767"><ele>868.7142857142858</ele><time>2026-05-03T08:56:50.285Z</time></trkpt><trkpt lat="42.275515" lon="13.7111217"><ele>869.5714285714286</ele><time>2026-05-03T08:56:51.285Z</time></trkpt><trkpt lat="42.275455" lon="13.7111533"><ele>870.4285714285713</ele><time>2026-05-03T08:56:52.285Z</time></trkpt><trkpt lat="42.2753817" lon="13.71119"><ele>871.2857142857142</ele><time>2026-05-03T08:56:53.285Z</time></trkpt><trkpt lat="42.2753133" lon="13.711235"><ele>872.1428571428571</ele><time>2026-05-03T08:56:54.285Z</time></trkpt><trkpt lat="42.27525" lon="13.71129"><ele>873.0</ele><time>2026-05-03T08:56:55.285Z</time></trkpt><trkpt lat="42.2751867" lon="13.7113533"><ele>873.0</ele><time>2026-05-03T08:56:56.285Z</time></trkpt><trkpt lat="42.275125" lon="13.71141"><ele>873.0</ele><time>2026-05-03T08:56:57.285Z</time></trkpt><trkpt lat="42.2750717" lon="13.711475"><ele>873.0</ele><time>2026-05-03T08:56:58.285Z</time></trkpt><trkpt lat="42.2750185" lon="13.7115405"><ele>873.0</ele><time>2026-05-03T08:56:59.285Z</time></trkpt><trkpt lat="42.2749705" lon="13.7116018"><ele>873.0</ele><time>2026-05-03T08:57:00.286Z</time></trkpt><trkpt lat="42.2748685" lon="13.7117178"><ele>873.0</ele><time>2026-05-03T08:57:02.285Z</time></trkpt><trkpt lat="42.2748135" lon="13.7117792"><ele>873.2</ele><time>2026-05-03T08:57:03.285Z</time></trkpt><trkpt lat="42.2747129" lon="13.7118739"><ele>873.4</ele><time>2026-05-03T08:57:05.285Z</time></trkpt><trkpt lat="42.2746271" lon="13.7119468"><ele>873.6000000000001</ele><time>2026-05-03T08:57:07.285Z</time></trkpt><trkpt lat="42.2745404" lon="13.7120253"><ele>873.8000000000001</ele><time>2026-05-03T08:57:09.285Z</time></trkpt><trkpt lat="42.2744802" lon="13.7120792"><ele>874.0</ele><time>2026-05-03T08:57:10.285Z</time></trkpt><trkpt lat="42.2744127" lon="13.7121351"><ele>873.9999999999999</ele><time>2026-05-03T08:57:11.285Z</time></trkpt><trkpt lat="42.2743502" lon="13.7121745"><ele>874.0</ele><time>2026-05-03T08:57:12.285Z</time></trkpt><trkpt lat="42.2742557" lon="13.712186"><ele>874.0</ele><time>2026-05-03T08:57:14.285Z</time></trkpt><trkpt lat="42.2741796" lon="13.7121646"><ele>874.0</ele><time>2026-05-03T08:57:16.285Z</time></trkpt><trkpt lat="42.2741115" lon="13.7121992"><ele>873.9999999999999</ele><time>2026-05-03T08:57:19.285Z</time></trkpt><trkpt lat="42.2740533" lon="13.7123017"><ele>874.0</ele><time>2026-05-03T08:57:22.286Z</time></trkpt><trkpt lat="42.27399" lon="13.712425"><ele>876.1666666666666</ele><time>2026-05-03T08:57:24.285Z</time></trkpt><trkpt lat="42.2739217" lon="13.71251"><ele>878.3333333333333</ele><time>2026-05-03T08:57:26.285Z</time></trkpt><trkpt lat="42.2738667" lon="13.7124183"><ele>880.5</ele><time>2026-05-03T08:57:29.285Z</time></trkpt><trkpt lat="42.2738717" lon="13.7123217"><ele>882.6666666666667</ele><time>2026-05-03T08:57:30.285Z</time></trkpt><trkpt lat="42.27387" lon="13.712215"><ele>884.8333333333334</ele><time>2026-05-03T08:57:31.285Z</time></trkpt><trkpt lat="42.2738583" lon="13.7120917"><ele>887.0</ele><time>2026-05-03T08:57:32.285Z</time></trkpt><trkpt lat="42.2738267" lon="13.7119783"><ele>885.8333333333334</ele><time>2026-05-03T08:57:33.285Z</time></trkpt><trkpt lat="42.2737833" lon="13.71187"><ele>884.6666666666667</ele><time>2026-05-03T08:57:34.285Z</time></trkpt><trkpt lat="42.2737467" lon="13.711765"><ele>883.5</ele><time>2026-05-03T08:57:35.285Z</time></trkpt><trkpt lat="42.2737083" lon="13.7116617"><ele>882.3333333333333</ele><time>2026-05-03T08:57:36.286Z</time></trkpt><trkpt lat="42.2736783" lon="13.7115533"><ele>881.1666666666666</ele><time>2026-05-03T08:57:37.285Z</time></trkpt><trkpt lat="42.27364" lon="13.7114517"><ele>880.0</ele><time>2026-05-03T08:57:38.285Z</time></trkpt><trkpt lat="42.2736067" lon="13.7113567"><ele>880.0</ele><time>2026-05-03T08:57:39.285Z</time></trkpt><trkpt lat="42.273575" lon="13.711265"><ele>880.0</ele><time>2026-05-03T08:57:40.285Z</time></trkpt><trkpt lat="42.273545" lon="13.7111767"><ele>880.0</ele><time>2026-05-03T08:57:41.285Z</time></trkpt><trkpt lat="42.2734683" lon="13.7110167"><ele>880.0</ele><time>2026-05-03T08:57:43.285Z</time></trkpt><trkpt lat="42.273425" lon="13.7109183"><ele>880.0</ele><time>2026-05-03T08:57:44.285Z</time></trkpt><trkpt lat="42.2733833" lon="13.71082"><ele>880.4999999999999</ele><time>2026-05-03T08:57:45.286Z</time></trkpt><trkpt lat="42.273345" lon="13.7107317"><ele>881.0</ele><time>2026-05-03T08:57:46.285Z</time></trkpt><trkpt lat="42.2733017" lon="13.710645"><ele>881.5</ele><time>2026-05-03T08:57:47.285Z</time></trkpt><trkpt lat="42.27326" lon="13.71057"><ele>882.0</ele><time>2026-05-03T08:57:48.285Z</time></trkpt><trkpt lat="42.2732133" lon="13.71049"><ele>882.4999999999999</ele><time>2026-05-03T08:57:49.285Z</time></trkpt><trkpt lat="42.2731317" lon="13.710395"><ele>883.0</ele><time>2026-05-03T08:57:51.285Z</time></trkpt><trkpt lat="42.2730333" lon="13.7103567"><ele>883.0</ele><time>2026-05-03T08:57:53.285Z</time></trkpt><trkpt lat="42.2729" lon="13.7103617"><ele>883.0</ele><time>2026-05-03T08:57:55.285Z</time></trkpt><trkpt lat="42.2728167" lon="13.7103683"><ele>883.0</ele><time>2026-05-03T08:57:56.285Z</time></trkpt><trkpt lat="42.2727217" lon="13.7103817"><ele>883.0</ele><time>2026-05-03T08:57:57.285Z</time></trkpt><trkpt lat="42.2726283" lon="13.7103917"><ele>883.0</ele><time>2026-05-03T08:57:58.285Z</time></trkpt><trkpt lat="42.2725517" lon="13.710405"><ele>883.0</ele><time>2026-05-03T08:57:59.286Z</time></trkpt><trkpt lat="42.2724433" lon="13.7103617"><ele>883.0</ele><time>2026-05-03T08:58:01.285Z</time></trkpt><trkpt lat="42.2723833" lon="13.71025"><ele>883.0</ele><time>2026-05-03T08:58:03.285Z</time></trkpt><trkpt lat="42.2723417" lon="13.7101"><ele>883.0</ele><time>2026-05-03T08:58:05.285Z</time></trkpt><trkpt lat="42.27227" lon="13.7100467"><ele>883.0</ele><time>2026-05-03T08:58:07.285Z</time></trkpt><trkpt lat="42.27217" lon="13.71"><ele>882.0</ele><time>2026-05-03T08:58:09.285Z</time></trkpt><trkpt lat="42.2720633" lon="13.7099183"><ele>881.0</ele><time>2026-05-03T08:58:11.285Z</time></trkpt><trkpt lat="42.27199" lon="13.709815"><ele>880.0</ele><time>2026-05-03T08:58:13.285Z</time></trkpt><trkpt lat="42.27192" lon="13.70971"><ele>879.0</ele><time>2026-05-03T08:58:15.286Z</time></trkpt><trkpt lat="42.2718467" lon="13.7095833"><ele>879.0</ele><time>2026-05-03T08:58:17.285Z</time></trkpt><trkpt lat="42.2717967" lon="13.70943"><ele>879.0000000000001</ele><time>2026-05-03T08:58:19.285Z</time></trkpt><trkpt lat="42.271775" lon="13.70934"><ele>879.0000000000001</ele><time>2026-05-03T08:58:20.285Z</time></trkpt><trkpt lat="42.27176" lon="13.7092517"><ele>879.0</ele><time>2026-05-03T08:58:21.285Z</time></trkpt><trkpt lat="42.271725" lon="13.7091017"><ele>879.0</ele><time>2026-05-03T08:58:23.285Z</time></trkpt><trkpt lat="42.2716933" lon="13.7089583"><ele>878.8000000000001</ele><time>2026-05-03T08:58:25.285Z</time></trkpt><trkpt lat="42.2716633" lon="13.7088117"><ele>878.6000000000001</ele><time>2026-05-03T08:58:27.286Z</time></trkpt><trkpt lat="42.2716333" lon="13.7086533"><ele>878.4</ele><time>2026-05-03T08:58:29.285Z</time></trkpt><trkpt lat="42.2716183" lon="13.7085633"><ele>878.2</ele><time>2026-05-03T08:58:30.285Z</time></trkpt><trkpt lat="42.27161" lon="13.7084667"><ele>878.0</ele><time>2026-05-03T08:58:31.285Z</time></trkpt><trkpt lat="42.271605" lon="13.708355"><ele>877.5000000000001</ele><time>2026-05-03T08:58:32.285Z</time></trkpt><trkpt lat="42.271605" lon="13.7082417"><ele>877.0</ele><time>2026-05-03T08:58:33.285Z</time></trkpt><trkpt lat="42.2716" lon="13.70813"><ele>876.5</ele><time>2026-05-03T08:58:34.285Z</time></trkpt><trkpt lat="42.2715983" lon="13.7080267"><ele>876.0</ele><time>2026-05-03T08:58:35.285Z</time></trkpt><trkpt lat="42.2715983" lon="13.707925"><ele>875.5000000000001</ele><time>2026-05-03T08:58:36.286Z</time></trkpt><trkpt lat="42.271595" lon="13.70783"><ele>875.0</ele><time>2026-05-03T08:58:37.285Z</time></trkpt><trkpt lat="42.2715833" lon="13.70774"><ele>874.1666666666667</ele><time>2026-05-03T08:58:38.285Z</time></trkpt><trkpt lat="42.2715733" lon="13.707645"><ele>873.3333333333334</ele><time>2026-05-03T08:58:39.285Z</time></trkpt><trkpt lat="42.2715717" lon="13.7075567"><ele>872.5</ele><time>2026-05-03T08:58:40.285Z</time></trkpt><trkpt lat="42.27159" lon="13.7073883"><ele>871.6666666666667</ele><time>2026-05-03T08:58:42.285Z</time></trkpt><trkpt lat="42.2716083" lon="13.7072967"><ele>870.8333333333334</ele><time>2026-05-03T08:58:43.285Z</time></trkpt><trkpt lat="42.2716267" lon="13.70719"><ele>870.0</ele><time>2026-05-03T08:58:44.285Z</time></trkpt><trkpt lat="42.2716417" lon="13.7070817"><ele>870.0</ele><time>2026-05-03T08:58:45.285Z</time></trkpt><trkpt lat="42.2716483" lon="13.7069733"><ele>870.0</ele><time>2026-05-03T08:58:46.285Z</time></trkpt><trkpt lat="42.27166" lon="13.7068733"><ele>870.0</ele><time>2026-05-03T08:58:47.285Z</time></trkpt><trkpt lat="42.2716717" lon="13.7067617"><ele>870.0</ele><time>2026-05-03T08:58:48.285Z</time></trkpt><trkpt lat="42.271685" lon="13.7066633"><ele>870.0</ele><time>2026-05-03T08:58:49.285Z</time></trkpt><trkpt lat="42.2716933" lon="13.70656"><ele>870.0</ele><time>2026-05-03T08:58:50.285Z</time></trkpt><trkpt lat="42.2717017" lon="13.7064683"><ele>868.5</ele><time>2026-05-03T08:58:51.285Z</time></trkpt><trkpt lat="42.27171" lon="13.7063767"><ele>867.0</ele><time>2026-05-03T08:58:52.285Z</time></trkpt><trkpt lat="42.2717133" lon="13.7062867"><ele>865.5</ele><time>2026-05-03T08:58:53.285Z</time></trkpt><trkpt lat="42.2717167" lon="13.7062017"><ele>864.0</ele><time>2026-05-03T08:58:54.285Z</time></trkpt><trkpt lat="42.27171" lon="13.706045"><ele>862.5</ele><time>2026-05-03T08:58:56.285Z</time></trkpt><trkpt lat="42.2717183" lon="13.705895"><ele>861.0</ele><time>2026-05-03T08:58:58.286Z</time></trkpt><trkpt lat="42.27171" lon="13.7057183"><ele>859.8333333333334</ele><time>2026-05-03T08:59:00.285Z</time></trkpt><trkpt lat="42.271705" lon="13.7056317"><ele>858.6666666666667</ele><time>2026-05-03T08:59:01.285Z</time></trkpt><trkpt lat="42.2716933" lon="13.70548"><ele>857.5</ele><time>2026-05-03T08:59:03.285Z</time></trkpt><trkpt lat="42.271665" lon="13.7053683"><ele>856.3333333333334</ele><time>2026-05-03T08:59:05.285Z</time></trkpt><trkpt lat="42.2716317" lon="13.7052667"><ele>855.1666666666667</ele><time>2026-05-03T08:59:07.285Z</time></trkpt><trkpt lat="42.2715967" lon="13.7051733"><ele>854.0</ele><time>2026-05-03T08:59:09.285Z</time></trkpt><trkpt lat="42.2715083" lon="13.7051117"><ele>851.5</ele><time>2026-05-03T08:59:11.285Z</time></trkpt><trkpt lat="42.2714167" lon="13.7050133"><ele>849.0</ele><time>2026-05-03T08:59:13.284Z</time></trkpt><trkpt lat="42.2713183" lon="13.7049167"><ele>846.5</ele><time>2026-05-03T08:59:15.285Z</time></trkpt><trkpt lat="42.2712133" lon="13.7048367"><ele>844.0</ele><time>2026-05-03T08:59:17.284Z</time></trkpt><trkpt lat="42.2711317" lon="13.7047233"><ele>844.0</ele><time>2026-05-03T08:59:19.284Z</time></trkpt><trkpt lat="42.2710667" lon="13.7045983"><ele>844.0</ele><time>2026-05-03T08:59:21.285Z</time></trkpt><trkpt lat="42.2710067" lon="13.7044583"><ele>844.0</ele><time>2026-05-03T08:59:23.284Z</time></trkpt><trkpt lat="42.27097" lon="13.70437"><ele>844.0</ele><time>2026-05-03T08:59:24.284Z</time></trkpt><trkpt lat="42.2709333" lon="13.70428"><ele>844.0</ele><time>2026-05-03T08:59:25.284Z</time></trkpt><trkpt lat="42.2709033" lon="13.7041983"><ele>842.6</ele><time>2026-05-03T08:59:26.284Z</time></trkpt><trkpt lat="42.27083" lon="13.7040717"><ele>841.2</ele><time>2026-05-03T08:59:28.284Z</time></trkpt><trkpt lat="42.2707333" lon="13.7040017"><ele>839.8000000000001</ele><time>2026-05-03T08:59:30.284Z</time></trkpt><trkpt lat="42.2706133" lon="13.7039683"><ele>838.4000000000001</ele><time>2026-05-03T08:59:32.284Z</time></trkpt><trkpt lat="42.27055" lon="13.70395"><ele>837.0</ele><time>2026-05-03T08:59:33.284Z</time></trkpt><trkpt lat="42.2704883" lon="13.70393"><ele>836.6</ele><time>2026-05-03T08:59:34.284Z</time></trkpt><trkpt lat="42.2703967" lon="13.70392"><ele>836.2</ele><time>2026-05-03T08:59:36.284Z</time></trkpt><trkpt lat="42.2702683" lon="13.703915"><ele>835.8</ele><time>2026-05-03T08:59:38.284Z</time></trkpt><trkpt lat="42.270205" lon="13.7039167"><ele>835.4</ele><time>2026-05-03T08:59:39.284Z</time></trkpt><trkpt lat="42.2701" lon="13.7039167"><ele>835.0</ele><time>2026-05-03T08:59:41.285Z</time></trkpt><trkpt lat="42.2700167" lon="13.7038433"><ele>835.0</ele><time>2026-05-03T08:59:43.284Z</time></trkpt><trkpt lat="42.2699283" lon="13.7037133"><ele>835.0</ele><time>2026-05-03T08:59:45.284Z</time></trkpt><trkpt lat="42.2698567" lon="13.7036583"><ele>835.0</ele><time>2026-05-03T08:59:46.284Z</time></trkpt><trkpt lat="42.2697717" lon="13.7036133"><ele>835.0</ele><time>2026-05-03T08:59:47.284Z</time></trkpt><trkpt lat="42.2696783" lon="13.703565"><ele>835.0</ele><time>2026-05-03T08:59:48.284Z</time></trkpt><trkpt lat="42.2695883" lon="13.7035283"><ele>833.5714285714287</ele><time>2026-05-03T08:59:49.284Z</time></trkpt><trkpt lat="42.269505" lon="13.7034917"><ele>832.1428571428571</ele><time>2026-05-03T08:59:50.284Z</time></trkpt><trkpt lat="42.2694283" lon="13.7034667"><ele>830.7142857142858</ele><time>2026-05-03T08:59:51.284Z</time></trkpt><trkpt lat="42.269355" lon="13.7034433"><ele>829.2857142857143</ele><time>2026-05-03T08:59:52.284Z</time></trkpt><trkpt lat="42.2692867" lon="13.7034167"><ele>827.8571428571429</ele><time>2026-05-03T08:59:53.284Z</time></trkpt><trkpt lat="42.269225" lon="13.70338"><ele>826.4285714285714</ele><time>2026-05-03T08:59:54.284Z</time></trkpt><trkpt lat="42.2691667" lon="13.7033367"><ele>825.0</ele><time>2026-05-03T08:59:55.285Z</time></trkpt><trkpt lat="42.2691067" lon="13.7032883"><ele>825.0</ele><time>2026-05-03T08:59:56.284Z</time></trkpt><trkpt lat="42.2690433" lon="13.70325"><ele>825.0</ele><time>2026-05-03T08:59:57.284Z</time></trkpt><trkpt lat="42.2689783" lon="13.7032067"><ele>825.0</ele><time>2026-05-03T08:59:58.285Z</time></trkpt><trkpt lat="42.268865" lon="13.70315"><ele>825.0</ele><time>2026-05-03T09:00:00.284Z</time></trkpt><trkpt lat="42.2687617" lon="13.70312"><ele>825.0</ele><time>2026-05-03T09:00:02.284Z</time></trkpt><trkpt lat="42.268695" lon="13.703125"><ele>825.0</ele><time>2026-05-03T09:00:04.284Z</time></trkpt><trkpt lat="42.2686417" lon="13.70322"><ele>824.0</ele><time>2026-05-03T09:00:07.284Z</time></trkpt><trkpt lat="42.2685633" lon="13.703355"><ele>823.0</ele><time>2026-05-03T09:00:09.285Z</time></trkpt><trkpt lat="42.2685117" lon="13.70342"><ele>822.0</ele><time>2026-05-03T09:00:10.284Z</time></trkpt><trkpt lat="42.2684583" lon="13.7034817"><ele>821.0</ele><time>2026-05-03T09:00:11.284Z</time></trkpt><trkpt lat="42.2684017" lon="13.7036167"><ele>820.0</ele><time>2026-05-03T09:00:13.284Z</time></trkpt><trkpt lat="42.2683633" lon="13.7036917"><ele>819.9999999999999</ele><time>2026-05-03T09:00:14.285Z</time></trkpt><trkpt lat="42.26832" lon="13.7037583"><ele>820.0</ele><time>2026-05-03T09:00:15.284Z</time></trkpt><trkpt lat="42.2682783" lon="13.7038233"><ele>820.0</ele><time>2026-05-03T09:00:16.284Z</time></trkpt><trkpt lat="42.2682383" lon="13.70389"><ele>820.0</ele><time>2026-05-03T09:00:17.284Z</time></trkpt><trkpt lat="42.26817" lon="13.7040367"><ele>819.9999999999999</ele><time>2026-05-03T09:00:19.285Z</time></trkpt><trkpt lat="42.26814" lon="13.7041217"><ele>820.0</ele><time>2026-05-03T09:00:20.284Z</time></trkpt><trkpt lat="42.2681167" lon="13.70422"><ele>819.4999999999999</ele><time>2026-05-03T09:00:21.284Z</time></trkpt><trkpt lat="42.268095" lon="13.7043267"><ele>819.0</ele><time>2026-05-03T09:00:22.284Z</time></trkpt><trkpt lat="42.26807" lon="13.70442"><ele>818.5</ele><time>2026-05-03T09:00:23.285Z</time></trkpt><trkpt lat="42.268045" lon="13.7045117"><ele>818.0</ele><time>2026-05-03T09:00:24.284Z</time></trkpt><trkpt lat="42.2680233" lon="13.7046067"><ele>817.4999999999999</ele><time>2026-05-03T09:00:25.284Z</time></trkpt><trkpt lat="42.268005" lon="13.7046883"><ele>817.0</ele><time>2026-05-03T09:00:26.284Z</time></trkpt><trkpt lat="42.2679783" lon="13.7048033"><ele>817.0</ele><time>2026-05-03T09:00:28.284Z</time></trkpt><trkpt lat="42.2679283" lon="13.7048617"><ele>817.0</ele><time>2026-05-03T09:00:31.284Z</time></trkpt><trkpt lat="42.2679167" lon="13.7047467"><ele>817.0</ele><time>2026-05-03T09:00:35.284Z</time></trkpt><trkpt lat="42.2679183" lon="13.7045917"><ele>817.0</ele><time>2026-05-03T09:00:37.284Z</time></trkpt><trkpt lat="42.2679017" lon="13.7044333"><ele>817.0</ele><time>2026-05-03T09:00:39.284Z</time></trkpt><trkpt lat="42.2678817" lon="13.7042767"><ele>817.0</ele><time>2026-05-03T09:00:41.284Z</time></trkpt><trkpt lat="42.2678333" lon="13.7041767"><ele>817.0</ele><time>2026-05-03T09:00:43.284Z</time></trkpt><trkpt lat="42.2677383" lon="13.7041233"><ele>817.0</ele><time>2026-05-03T09:00:45.284Z</time></trkpt><trkpt lat="42.26762" lon="13.7040967"><ele>817.0</ele><time>2026-05-03T09:00:47.284Z</time></trkpt><trkpt lat="42.267565" lon="13.70405"><ele>817.0</ele><time>2026-05-03T09:00:48.284Z</time></trkpt><trkpt lat="42.2675017" lon="13.7039933"><ele>817.0</ele><time>2026-05-03T09:00:49.284Z</time></trkpt><trkpt lat="42.2674433" lon="13.703935"><ele>817.0</ele><time>2026-05-03T09:00:50.284Z</time></trkpt><trkpt lat="42.26737" lon="13.7038667"><ele>817.0</ele><time>2026-05-03T09:00:51.284Z</time></trkpt><trkpt lat="42.267295" lon="13.7037817"><ele>817.0</ele><time>2026-05-03T09:00:52.284Z</time></trkpt><trkpt lat="42.2672067" lon="13.70367"><ele>817.0</ele><time>2026-05-03T09:00:53.284Z</time></trkpt><trkpt lat="42.2671283" lon="13.7035633"><ele>816.0</ele><time>2026-05-03T09:00:54.284Z</time></trkpt><trkpt lat="42.2670517" lon="13.7034667"><ele>815.0</ele><time>2026-05-03T09:00:55.284Z</time></trkpt><trkpt lat="42.2669767" lon="13.703375"><ele>814.0</ele><time>2026-05-03T09:00:56.284Z</time></trkpt><trkpt lat="42.2669167" lon="13.7032867"><ele>813.0</ele><time>2026-05-03T09:00:57.284Z</time></trkpt><trkpt lat="42.2668633" lon="13.7032117"><ele>812.0</ele><time>2026-05-03T09:00:58.284Z</time></trkpt><trkpt lat="42.26681" lon="13.7031317"><ele>812.0</ele><time>2026-05-03T09:00:59.284Z</time></trkpt><trkpt lat="42.2667667" lon="13.7030567"><ele>812.0</ele><time>2026-05-03T09:01:00.284Z</time></trkpt><trkpt lat="42.2667033" lon="13.7029467"><ele>812.0</ele><time>2026-05-03T09:01:02.284Z</time></trkpt><trkpt lat="42.2666133" lon="13.702885"><ele>812.0</ele><time>2026-05-03T09:01:04.284Z</time></trkpt><trkpt lat="42.2664967" lon="13.7029133"><ele>812.0</ele><time>2026-05-03T09:01:06.284Z</time></trkpt><trkpt lat="42.266425" lon="13.70296"><ele>810.8</ele><time>2026-05-03T09:01:07.284Z</time></trkpt><trkpt lat="42.2663433" lon="13.70302"><ele>809.6</ele><time>2026-05-03T09:01:08.284Z</time></trkpt><trkpt lat="42.2662533" lon="13.70309"><ele>808.4</ele><time>2026-05-03T09:01:09.284Z</time></trkpt><trkpt lat="42.26616" lon="13.7031633"><ele>807.1999999999999</ele><time>2026-05-03T09:01:10.285Z</time></trkpt><trkpt lat="42.26607" lon="13.703225"><ele>806.0</ele><time>2026-05-03T09:01:11.284Z</time></trkpt><trkpt lat="42.2659883" lon="13.7032883"><ele>806.0</ele><time>2026-05-03T09:01:12.284Z</time></trkpt><trkpt lat="42.2659017" lon="13.7033467"><ele>806.0</ele><time>2026-05-03T09:01:13.284Z</time></trkpt><trkpt lat="42.2658" lon="13.70339"><ele>806.0</ele><time>2026-05-03T09:01:14.284Z</time></trkpt><trkpt lat="42.2656933" lon="13.7034117"><ele>806.0</ele><time>2026-05-03T09:01:15.284Z</time></trkpt><trkpt lat="42.2655683" lon="13.7034217"><ele>806.0</ele><time>2026-05-03T09:01:16.284Z</time></trkpt><trkpt lat="42.26543" lon="13.7034267"><ele>805.75</ele><time>2026-05-03T09:01:17.284Z</time></trkpt><trkpt lat="42.2652967" lon="13.70343"><ele>805.5</ele><time>2026-05-03T09:01:18.284Z</time></trkpt><trkpt lat="42.2651733" lon="13.7034317"><ele>805.25</ele><time>2026-05-03T09:01:19.285Z</time></trkpt><trkpt lat="42.2650567" lon="13.7034483"><ele>805.0</ele><time>2026-05-03T09:01:20.284Z</time></trkpt><trkpt lat="42.2649483" lon="13.7034533"><ele>805.0</ele><time>2026-05-03T09:01:21.284Z</time></trkpt><trkpt lat="42.2648367" lon="13.70345"><ele>805.0</ele><time>2026-05-03T09:01:22.284Z</time></trkpt><trkpt lat="42.26472" lon="13.7034317"><ele>805.0</ele><time>2026-05-03T09:01:23.284Z</time></trkpt><trkpt lat="42.2646033" lon="13.7033967"><ele>805.0</ele><time>2026-05-03T09:01:24.284Z</time></trkpt><trkpt lat="42.2644967" lon="13.7033517"><ele>805.4</ele><time>2026-05-03T09:01:25.284Z</time></trkpt><trkpt lat="42.2643983" lon="13.70331"><ele>805.8</ele><time>2026-05-03T09:01:26.284Z</time></trkpt><trkpt lat="42.264305" lon="13.7032583"><ele>806.2</ele><time>2026-05-03T09:01:27.284Z</time></trkpt><trkpt lat="42.2642233" lon="13.7032"><ele>806.6</ele><time>2026-05-03T09:01:28.284Z</time></trkpt><trkpt lat="42.264145" lon="13.70315"><ele>807.0</ele><time>2026-05-03T09:01:29.284Z</time></trkpt><trkpt lat="42.2640833" lon="13.7030817"><ele>807.0</ele><time>2026-05-03T09:01:30.284Z</time></trkpt><trkpt lat="42.2640267" lon="13.703"><ele>807.0</ele><time>2026-05-03T09:01:31.284Z</time></trkpt><trkpt lat="42.26397" lon="13.702895"><ele>807.0</ele><time>2026-05-03T09:01:32.284Z</time></trkpt><trkpt lat="42.2639233" lon="13.7027783"><ele>807.0</ele><time>2026-05-03T09:01:33.284Z</time></trkpt><trkpt lat="42.263885" lon="13.7026517"><ele>807.0</ele><time>2026-05-03T09:01:34.284Z</time></trkpt><trkpt lat="42.263845" lon="13.7025317"><ele>806.6</ele><time>2026-05-03T09:01:35.284Z</time></trkpt><trkpt lat="42.2638067" lon="13.7024167"><ele>806.2</ele><time>2026-05-03T09:01:36.284Z</time></trkpt><trkpt lat="42.2637683" lon="13.7022933"><ele>805.8</ele><time>2026-05-03T09:01:37.284Z</time></trkpt><trkpt lat="42.263735" lon="13.7021917"><ele>805.4</ele><time>2026-05-03T09:01:38.284Z</time></trkpt><trkpt lat="42.2636883" lon="13.7020833"><ele>805.0</ele><time>2026-05-03T09:01:39.284Z</time></trkpt><trkpt lat="42.2636283" lon="13.70199"><ele>804.6</ele><time>2026-05-03T09:01:40.284Z</time></trkpt><trkpt lat="42.263555" lon="13.7018833"><ele>804.2</ele><time>2026-05-03T09:01:41.285Z</time></trkpt><trkpt lat="42.2634983" lon="13.7017933"><ele>803.8</ele><time>2026-05-03T09:01:42.284Z</time></trkpt><trkpt lat="42.2634483" lon="13.7017183"><ele>803.4</ele><time>2026-05-03T09:01:43.284Z</time></trkpt><trkpt lat="42.2633483" lon="13.7016317"><ele>803.0</ele><time>2026-05-03T09:01:45.284Z</time></trkpt><trkpt lat="42.263225" lon="13.70163"><ele>803.0</ele><time>2026-05-03T09:01:47.284Z</time></trkpt><trkpt lat="42.263145" lon="13.7016417"><ele>803.0</ele><time>2026-05-03T09:01:48.285Z</time></trkpt><trkpt lat="42.26305" lon="13.7016533"><ele>803.0</ele><time>2026-05-03T09:01:49.284Z</time></trkpt><trkpt lat="42.2629517" lon="13.7016833"><ele>803.0</ele><time>2026-05-03T09:01:50.284Z</time></trkpt><trkpt lat="42.2628567" lon="13.7017383"><ele>803.0</ele><time>2026-05-03T09:01:51.284Z</time></trkpt><trkpt lat="42.2627583" lon="13.701815"><ele>804.25</ele><time>2026-05-03T09:01:52.284Z</time></trkpt><trkpt lat="42.2626567" lon="13.7018967"><ele>805.5</ele><time>2026-05-03T09:01:53.284Z</time></trkpt><trkpt lat="42.2625683" lon="13.7019717"><ele>806.75</ele><time>2026-05-03T09:01:54.284Z</time></trkpt><trkpt lat="42.2624733" lon="13.70203"><ele>808.0</ele><time>2026-05-03T09:01:55.284Z</time></trkpt><trkpt lat="42.26236" lon="13.7020933"><ele>814.25</ele><time>2026-05-03T09:01:56.284Z</time></trkpt><trkpt lat="42.2622467" lon="13.7021517"><ele>820.5</ele><time>2026-05-03T09:01:57.284Z</time></trkpt><trkpt lat="42.2621433" lon="13.7022217"><ele>826.75</ele><time>2026-05-03T09:01:58.284Z</time></trkpt><trkpt lat="42.26203" lon="13.7023117"><ele>833.0</ele><time>2026-05-03T09:01:59.284Z</time></trkpt><trkpt lat="42.2619167" lon="13.7024333"><ele>833.0</ele><time>2026-05-03T09:02:00.284Z</time></trkpt><trkpt lat="42.261805" lon="13.7025717"><ele>833.0</ele><time>2026-05-03T09:02:01.284Z</time></trkpt><trkpt lat="42.2617033" lon="13.7026817"><ele>833.0</ele><time>2026-05-03T09:02:02.284Z</time></trkpt><trkpt lat="42.2615967" lon="13.702775"><ele>833.0</ele><time>2026-05-03T09:02:03.284Z</time></trkpt><trkpt lat="42.261495" lon="13.7028517"><ele>832.25</ele><time>2026-05-03T09:02:04.284Z</time></trkpt><trkpt lat="42.2613933" lon="13.702925"><ele>831.5</ele><time>2026-05-03T09:02:05.284Z</time></trkpt><trkpt lat="42.261275" lon="13.70301"><ele>830.75</ele><time>2026-05-03T09:02:06.284Z</time></trkpt><trkpt lat="42.2611467" lon="13.703095"><ele>830.0</ele><time>2026-05-03T09:02:07.284Z</time></trkpt><trkpt lat="42.26101" lon="13.70318"><ele>830.0</ele><time>2026-05-03T09:02:08.284Z</time></trkpt><trkpt lat="42.2608917" lon="13.7032633"><ele>830.0</ele><time>2026-05-03T09:02:09.285Z</time></trkpt><trkpt lat="42.2607767" lon="13.7033183"><ele>830.0</ele><time>2026-05-03T09:02:10.284Z</time></trkpt><trkpt lat="42.2606617" lon="13.7033683"><ele>830.0</ele><time>2026-05-03T09:02:11.284Z</time></trkpt><trkpt lat="42.260545" lon="13.7034017"><ele>830.0</ele><time>2026-05-03T09:02:12.284Z</time></trkpt><trkpt lat="42.26042" lon="13.7034383"><ele>830.0</ele><time>2026-05-03T09:02:13.284Z</time></trkpt><trkpt lat="42.2603" lon="13.7034717"><ele>830.0</ele><time>2026-05-03T09:02:14.284Z</time></trkpt><trkpt lat="42.2601967" lon="13.7035017"><ele>830.0</ele><time>2026-05-03T09:02:15.284Z</time></trkpt><trkpt lat="42.2601233" lon="13.7035117"><ele>830.0</ele><time>2026-05-03T09:02:16.285Z</time></trkpt><trkpt lat="42.26002" lon="13.7035133"><ele>830.0000000000001</ele><time>2026-05-03T09:02:18.284Z</time></trkpt><trkpt lat="42.2599683" lon="13.70344"><ele>830.0</ele><time>2026-05-03T09:02:20.284Z</time></trkpt><trkpt lat="42.2599383" lon="13.7032983"><ele>830.0</ele><time>2026-05-03T09:02:22.284Z</time></trkpt><trkpt lat="42.2599233" lon="13.7032017"><ele>830.0</ele><time>2026-05-03T09:02:23.284Z</time></trkpt><trkpt lat="42.2599083" lon="13.70309"><ele>830.0000000000001</ele><time>2026-05-03T09:02:24.284Z</time></trkpt><trkpt lat="42.259895" lon="13.7029783"><ele>830.0</ele><time>2026-05-03T09:02:25.284Z</time></trkpt><trkpt lat="42.259885" lon="13.7028683"><ele>831.75</ele><time>2026-05-03T09:02:26.284Z</time></trkpt><trkpt lat="42.2598767" lon="13.7027367"><ele>833.5</ele><time>2026-05-03T09:02:27.284Z</time></trkpt><trkpt lat="42.2598667" lon="13.7025783"><ele>835.25</ele><time>2026-05-03T09:02:28.284Z</time></trkpt><trkpt lat="42.2598583" lon="13.7023883"><ele>837.0</ele><time>2026-05-03T09:02:29.285Z</time></trkpt><trkpt lat="42.2598717" lon="13.7022017"><ele>837.0</ele><time>2026-05-03T09:02:30.284Z</time></trkpt><trkpt lat="42.2598883" lon="13.702025"><ele>837.0</ele><time>2026-05-03T09:02:31.284Z</time></trkpt><trkpt lat="42.2599" lon="13.7018833"><ele>837.0</ele><time>2026-05-03T09:02:32.284Z</time></trkpt><trkpt lat="42.2599067" lon="13.7017583"><ele>837.0</ele><time>2026-05-03T09:02:33.284Z</time></trkpt><trkpt lat="42.259895" lon="13.701635"><ele>837.0</ele><time>2026-05-03T09:02:34.284Z</time></trkpt><trkpt lat="42.25987" lon="13.7015117"><ele>835.8</ele><time>2026-05-03T09:02:35.284Z</time></trkpt><trkpt lat="42.259825" lon="13.7014067"><ele>834.6</ele><time>2026-05-03T09:02:36.284Z</time></trkpt><trkpt lat="42.2597617" lon="13.70132"><ele>833.4</ele><time>2026-05-03T09:02:37.284Z</time></trkpt><trkpt lat="42.2596733" lon="13.7012417"><ele>832.1999999999999</ele><time>2026-05-03T09:02:38.285Z</time></trkpt><trkpt lat="42.25954" lon="13.7011667"><ele>831.0</ele><time>2026-05-03T09:02:39.284Z</time></trkpt><trkpt lat="42.259385" lon="13.7010817"><ele>837.6666666666667</ele><time>2026-05-03T09:02:40.284Z</time></trkpt><trkpt lat="42.2592233" lon="13.7009867"><ele>844.3333333333334</ele><time>2026-05-03T09:02:41.284Z</time></trkpt><trkpt lat="42.2590533" lon="13.7009017"><ele>851.0</ele><time>2026-05-03T09:02:42.284Z</time></trkpt><trkpt lat="42.25887" lon="13.700805"><ele>851.0</ele><time>2026-05-03T09:02:43.284Z</time></trkpt><trkpt lat="42.2586883" lon="13.7007267"><ele>851.0</ele><time>2026-05-03T09:02:44.284Z</time></trkpt><trkpt lat="42.2585317" lon="13.7006517"><ele>851.0</ele><time>2026-05-03T09:02:45.284Z</time></trkpt><trkpt lat="42.258385" lon="13.7006"><ele>851.0</ele><time>2026-05-03T09:02:46.284Z</time></trkpt><trkpt lat="42.25826" lon="13.7005517"><ele>851.0</ele><time>2026-05-03T09:02:47.284Z</time></trkpt><trkpt lat="42.25813" lon="13.7005167"><ele>851.0</ele><time>2026-05-03T09:02:48.284Z</time></trkpt><trkpt lat="42.258005" lon="13.7005033"><ele>851.0</ele><time>2026-05-03T09:02:49.284Z</time></trkpt><trkpt lat="42.2578917" lon="13.7005017"><ele>852.5999999999999</ele><time>2026-05-03T09:02:50.284Z</time></trkpt><trkpt lat="42.2577817" lon="13.7005083"><ele>854.2</ele><time>2026-05-03T09:02:51.284Z</time></trkpt><trkpt lat="42.2576733" lon="13.700535"><ele>855.8000000000001</ele><time>2026-05-03T09:02:52.284Z</time></trkpt><trkpt lat="42.2575683" lon="13.7005783"><ele>857.4000000000001</ele><time>2026-05-03T09:02:53.284Z</time></trkpt><trkpt lat="42.25747" lon="13.7006167"><ele>859.0</ele><time>2026-05-03T09:02:54.285Z</time></trkpt><trkpt lat="42.2573767" lon="13.700665"><ele>859.0</ele><time>2026-05-03T09:02:55.284Z</time></trkpt><trkpt lat="42.2572983" lon="13.7007167"><ele>859.0000000000001</ele><time>2026-05-03T09:02:56.285Z</time></trkpt><trkpt lat="42.2571983" lon="13.7007683"><ele>859.0000000000001</ele><time>2026-05-03T09:02:58.284Z</time></trkpt><trkpt lat="42.2571383" lon="13.7006533"><ele>859.0</ele><time>2026-05-03T09:03:01.284Z</time></trkpt><trkpt lat="42.25712" lon="13.700565"><ele>859.0</ele><time>2026-05-03T09:03:02.284Z</time></trkpt><trkpt lat="42.2571167" lon="13.70044"><ele>858.1666666666666</ele><time>2026-05-03T09:03:03.284Z</time></trkpt><trkpt lat="42.2571017" lon="13.7003167"><ele>857.3333333333333</ele><time>2026-05-03T09:03:04.284Z</time></trkpt><trkpt lat="42.2570767" lon="13.700215"><ele>856.5</ele><time>2026-05-03T09:03:05.284Z</time></trkpt><trkpt lat="42.257045" lon="13.7001383"><ele>855.6666666666667</ele><time>2026-05-03T09:03:06.285Z</time></trkpt><trkpt lat="42.25694" lon="13.700105"><ele>854.8333333333334</ele><time>2026-05-03T09:03:08.285Z</time></trkpt><trkpt lat="42.25685" lon="13.7001483"><ele>854.0</ele><time>2026-05-03T09:03:09.284Z</time></trkpt><trkpt lat="42.2567483" lon="13.7002017"><ele>854.0</ele><time>2026-05-03T09:03:10.285Z</time></trkpt><trkpt lat="42.2566417" lon="13.7002483"><ele>854.0</ele><time>2026-05-03T09:03:11.284Z</time></trkpt><trkpt lat="42.2565267" lon="13.7002933"><ele>854.0</ele><time>2026-05-03T09:03:12.284Z</time></trkpt><trkpt lat="42.25641" lon="13.7003517"><ele>854.0</ele><time>2026-05-03T09:03:13.284Z</time></trkpt><trkpt lat="42.2562917" lon="13.7004267"><ele>853.5</ele><time>2026-05-03T09:03:14.284Z</time></trkpt><trkpt lat="42.2561783" lon="13.70051"><ele>853.0</ele><time>2026-05-03T09:03:15.284Z</time></trkpt><trkpt lat="42.2560633" lon="13.700595"><ele>852.5</ele><time>2026-05-03T09:03:16.284Z</time></trkpt><trkpt lat="42.2559617" lon="13.70068"><ele>852.0</ele><time>2026-05-03T09:03:17.285Z</time></trkpt><trkpt lat="42.2558583" lon="13.7007517"><ele>852.0</ele><time>2026-05-03T09:03:18.285Z</time></trkpt><trkpt lat="42.2557517" lon="13.70082"><ele>852.0</ele><time>2026-05-03T09:03:19.284Z</time></trkpt><trkpt lat="42.2556533" lon="13.7008883"><ele>852.0</ele><time>2026-05-03T09:03:20.284Z</time></trkpt><trkpt lat="42.2555483" lon="13.7009583"><ele>852.0</ele><time>2026-05-03T09:03:21.284Z</time></trkpt><trkpt lat="42.2554533" lon="13.7010283"><ele>853.8</ele><time>2026-05-03T09:03:22.284Z</time></trkpt><trkpt lat="42.25536" lon="13.7010833"><ele>855.6</ele><time>2026-05-03T09:03:23.284Z</time></trkpt><trkpt lat="42.2552717" lon="13.701135"><ele>857.3999999999999</ele><time>2026-05-03T09:03:24.284Z</time></trkpt><trkpt lat="42.2551783" lon="13.7011683"><ele>859.1999999999999</ele><time>2026-05-03T09:03:25.284Z</time></trkpt><trkpt lat="42.2550817" lon="13.7011983"><ele>861.0</ele><time>2026-05-03T09:03:26.284Z</time></trkpt><trkpt lat="42.2549833" lon="13.70122"><ele>861.0</ele><time>2026-05-03T09:03:27.285Z</time></trkpt><trkpt lat="42.2548883" lon="13.7012417"><ele>860.9999999999999</ele><time>2026-05-03T09:03:28.284Z</time></trkpt><trkpt lat="42.2547933" lon="13.70126"><ele>860.9999999999999</ele><time>2026-05-03T09:03:29.284Z</time></trkpt><trkpt lat="42.254705" lon="13.7012733"><ele>861.0</ele><time>2026-05-03T09:03:30.284Z</time></trkpt><trkpt lat="42.2546133" lon="13.70128"><ele>861.0</ele><time>2026-05-03T09:03:31.284Z</time></trkpt><trkpt lat="42.2545233" lon="13.7012833"><ele>858.8</ele><time>2026-05-03T09:03:32.284Z</time></trkpt><trkpt lat="42.25443" lon="13.7012783"><ele>856.5999999999999</ele><time>2026-05-03T09:03:33.284Z</time></trkpt><trkpt lat="42.254335" lon="13.7012733"><ele>854.4</ele><time>2026-05-03T09:03:34.284Z</time></trkpt><trkpt lat="42.2542433" lon="13.7012683"><ele>852.2</ele><time>2026-05-03T09:03:35.284Z</time></trkpt><trkpt lat="42.2541417" lon="13.7012633"><ele>850.0</ele><time>2026-05-03T09:03:36.284Z</time></trkpt><trkpt lat="42.2540467" lon="13.701265"><ele>846.6666666666666</ele><time>2026-05-03T09:03:37.284Z</time></trkpt><trkpt lat="42.2539517" lon="13.7012667"><ele>843.3333333333333</ele><time>2026-05-03T09:03:38.284Z</time></trkpt><trkpt lat="42.2538683" lon="13.7012817"><ele>840.0</ele><time>2026-05-03T09:03:39.285Z</time></trkpt><trkpt lat="42.2537883" lon="13.701315"><ele>836.6666666666667</ele><time>2026-05-03T09:03:40.284Z</time></trkpt><trkpt lat="42.2537117" lon="13.7013567"><ele>833.3333333333334</ele><time>2026-05-03T09:03:41.285Z</time></trkpt><trkpt lat="42.253625" lon="13.7013917"><ele>830.0</ele><time>2026-05-03T09:03:42.284Z</time></trkpt><trkpt lat="42.25354" lon="13.7014283"><ele>830.0</ele><time>2026-05-03T09:03:43.284Z</time></trkpt><trkpt lat="42.253455" lon="13.7014667"><ele>830.0</ele><time>2026-05-03T09:03:44.284Z</time></trkpt><trkpt lat="42.2533683" lon="13.7015283"><ele>830.0</ele><time>2026-05-03T09:03:45.284Z</time></trkpt><trkpt lat="42.2532833" lon="13.70161"><ele>830.0</ele><time>2026-05-03T09:03:46.284Z</time></trkpt><trkpt lat="42.2532" lon="13.7017"><ele>830.0</ele><time>2026-05-03T09:03:47.284Z</time></trkpt><trkpt lat="42.2531183" lon="13.7017917"><ele>828.25</ele><time>2026-05-03T09:03:48.284Z</time></trkpt><trkpt lat="42.2530233" lon="13.701875"><ele>826.5</ele><time>2026-05-03T09:03:49.285Z</time></trkpt><trkpt lat="42.2529217" lon="13.7019667"><ele>824.75</ele><time>2026-05-03T09:03:50.284Z</time></trkpt><trkpt lat="42.25282" lon="13.7020617"><ele>823.0</ele><time>2026-05-03T09:03:51.284Z</time></trkpt><trkpt lat="42.2527133" lon="13.7021533"><ele>823.0</ele><time>2026-05-03T09:03:52.284Z</time></trkpt><trkpt lat="42.2526067" lon="13.7022383"><ele>823.0</ele><time>2026-05-03T09:03:53.284Z</time></trkpt><trkpt lat="42.2525217" lon="13.7023333"><ele>823.0</ele><time>2026-05-03T09:03:54.284Z</time></trkpt><trkpt lat="42.2524267" lon="13.7024267"><ele>823.0</ele><time>2026-05-03T09:03:55.284Z</time></trkpt><trkpt lat="42.2523283" lon="13.7025083"><ele>822.5999999999999</ele><time>2026-05-03T09:03:56.285Z</time></trkpt><trkpt lat="42.2522383" lon="13.70259"><ele>822.1999999999999</ele><time>2026-05-03T09:03:57.284Z</time></trkpt><trkpt lat="42.2521483" lon="13.70267"><ele>821.8</ele><time>2026-05-03T09:03:58.284Z</time></trkpt><trkpt lat="42.2520633" lon="13.7027467"><ele>821.4</ele><time>2026-05-03T09:03:59.284Z</time></trkpt><trkpt lat="42.2519767" lon="13.7028133"><ele>821.0</ele><time>2026-05-03T09:04:00.284Z</time></trkpt><trkpt lat="42.25188" lon="13.70286"><ele>821.0</ele><time>2026-05-03T09:04:01.284Z</time></trkpt><trkpt lat="42.251785" lon="13.7029017"><ele>821.0</ele><time>2026-05-03T09:04:02.284Z</time></trkpt><trkpt lat="42.2516883" lon="13.7029233"><ele>821.0</ele><time>2026-05-03T09:04:03.284Z</time></trkpt><trkpt lat="42.2515917" lon="13.7029483"><ele>821.0</ele><time>2026-05-03T09:04:04.284Z</time></trkpt><trkpt lat="42.2514883" lon="13.7029633"><ele>821.0</ele><time>2026-05-03T09:04:05.284Z</time></trkpt><trkpt lat="42.25139" lon="13.7029717"><ele>819.4</ele><time>2026-05-03T09:04:06.284Z</time></trkpt><trkpt lat="42.2513" lon="13.702975"><ele>817.8</ele><time>2026-05-03T09:04:07.284Z</time></trkpt><trkpt lat="42.2512133" lon="13.70298"><ele>816.1999999999999</ele><time>2026-05-03T09:04:08.284Z</time></trkpt><trkpt lat="42.2511317" lon="13.7029867"><ele>814.5999999999999</ele><time>2026-05-03T09:04:09.284Z</time></trkpt><trkpt lat="42.2510433" lon="13.70302"><ele>813.0</ele><time>2026-05-03T09:04:10.284Z</time></trkpt><trkpt lat="42.2509483" lon="13.7030683"><ele>813.0</ele><time>2026-05-03T09:04:11.284Z</time></trkpt><trkpt lat="42.2508567" lon="13.7031383"><ele>813.0</ele><time>2026-05-03T09:04:12.284Z</time></trkpt><trkpt lat="42.2507617" lon="13.7032083"><ele>813.0</ele><time>2026-05-03T09:04:13.284Z</time></trkpt><trkpt lat="42.250665" lon="13.70329"><ele>813.0</ele><time>2026-05-03T09:04:14.284Z</time></trkpt><trkpt lat="42.25057" lon="13.7033717"><ele>813.0</ele><time>2026-05-03T09:04:15.284Z</time></trkpt><trkpt lat="42.2504817" lon="13.70345"><ele>812.0</ele><time>2026-05-03T09:04:16.284Z</time></trkpt><trkpt lat="42.2504033" lon="13.7035383"><ele>811.0</ele><time>2026-05-03T09:04:17.284Z</time></trkpt><trkpt lat="42.2503317" lon="13.70363"><ele>810.0</ele><time>2026-05-03T09:04:18.284Z</time></trkpt><trkpt lat="42.2502633" lon="13.7037283"><ele>809.0</ele><time>2026-05-03T09:04:19.284Z</time></trkpt><trkpt lat="42.2501933" lon="13.7038167"><ele>808.0</ele><time>2026-05-03T09:04:20.284Z</time></trkpt><trkpt lat="42.250125" lon="13.7039033"><ele>807.9999999999999</ele><time>2026-05-03T09:04:21.284Z</time></trkpt><trkpt lat="42.25007" lon="13.7039517"><ele>808.0</ele><time>2026-05-03T09:04:22.284Z</time></trkpt><trkpt lat="42.25001" lon="13.7040017"><ele>808.0</ele><time>2026-05-03T09:04:24.284Z</time></trkpt><trkpt lat="42.2499967" lon="13.7041167"><ele>808.0</ele><time>2026-05-03T09:04:50.285Z</time></trkpt><trkpt lat="42.2499933" lon="13.7042233"><ele>807.9999999999999</ele><time>2026-05-03T09:04:53.284Z</time></trkpt><trkpt lat="42.2499683" lon="13.7043117"><ele>808.0</ele><time>2026-05-03T09:04:55.284Z</time></trkpt><trkpt lat="42.249935" lon="13.70441"><ele>807.8333333333333</ele><time>2026-05-03T09:04:57.284Z</time></trkpt><trkpt lat="42.2498933" lon="13.7045283"><ele>807.6666666666666</ele><time>2026-05-03T09:04:59.285Z</time></trkpt><trkpt lat="42.2498417" lon="13.7046833"><ele>807.5</ele><time>2026-05-03T09:05:01.284Z</time></trkpt><trkpt lat="42.2498133" lon="13.7047683"><ele>807.3333333333333</ele><time>2026-05-03T09:05:02.284Z</time></trkpt><trkpt lat="42.2497917" lon="13.704855"><ele>807.1666666666666</ele><time>2026-05-03T09:05:03.284Z</time></trkpt><trkpt lat="42.2497717" lon="13.7049483"><ele>807.0</ele><time>2026-05-03T09:05:04.284Z</time></trkpt><trkpt lat="42.2497433" lon="13.7050417"><ele>807.0</ele><time>2026-05-03T09:05:05.284Z</time></trkpt><trkpt lat="42.24971" lon="13.7051333"><ele>807.0</ele><time>2026-05-03T09:05:06.284Z</time></trkpt><trkpt lat="42.24967" lon="13.7052133"><ele>807.0</ele><time>2026-05-03T09:05:07.284Z</time></trkpt><trkpt lat="42.2496167" lon="13.70529"><ele>807.0</ele><time>2026-05-03T09:05:08.284Z</time></trkpt><trkpt lat="42.2495517" lon="13.7053583"><ele>807.0</ele><time>2026-05-03T09:05:09.284Z</time></trkpt><trkpt lat="42.2494783" lon="13.7054333"><ele>807.0</ele><time>2026-05-03T09:05:10.285Z</time></trkpt><trkpt lat="42.2494017" lon="13.7054983"><ele>809.6666666666666</ele><time>2026-05-03T09:05:11.284Z</time></trkpt><trkpt lat="42.2493317" lon="13.7055667"><ele>812.3333333333333</ele><time>2026-05-03T09:05:12.284Z</time></trkpt><trkpt lat="42.2492567" lon="13.70562"><ele>815.0</ele><time>2026-05-03T09:05:13.284Z</time></trkpt><trkpt lat="42.24919" lon="13.7056633"><ele>817.6666666666666</ele><time>2026-05-03T09:05:14.284Z</time></trkpt><trkpt lat="42.24913" lon="13.705705"><ele>820.3333333333333</ele><time>2026-05-03T09:05:15.284Z</time></trkpt><trkpt lat="42.2490667" lon="13.7057583"><ele>823.0</ele><time>2026-05-03T09:05:16.284Z</time></trkpt><trkpt lat="42.2489967" lon="13.705825"><ele>822.2</ele><time>2026-05-03T09:05:17.284Z</time></trkpt><trkpt lat="42.2489167" lon="13.7058983"><ele>821.4</ele><time>2026-05-03T09:05:18.285Z</time></trkpt><trkpt lat="42.248835" lon="13.7059733"><ele>820.6</ele><time>2026-05-03T09:05:19.285Z</time></trkpt><trkpt lat="42.248745" lon="13.70606"><ele>819.8000000000001</ele><time>2026-05-03T09:05:20.284Z</time></trkpt><trkpt lat="42.2486633" lon="13.70614"><ele>819.0</ele><time>2026-05-03T09:05:21.285Z</time></trkpt><trkpt lat="42.248595" lon="13.7062017"><ele>821.6</ele><time>2026-05-03T09:05:22.284Z</time></trkpt><trkpt lat="42.2485167" lon="13.7063017"><ele>824.2</ele><time>2026-05-03T09:05:24.284Z</time></trkpt><trkpt lat="42.24849" lon="13.7064067"><ele>826.8000000000001</ele><time>2026-05-03T09:05:26.284Z</time></trkpt><trkpt lat="42.2485067" lon="13.7065183"><ele>829.4000000000001</ele><time>2026-05-03T09:05:28.284Z</time></trkpt><trkpt lat="42.2485283" lon="13.7066767"><ele>832.0</ele><time>2026-05-03T09:05:30.284Z</time></trkpt><trkpt lat="42.2485567" lon="13.7068"><ele>831.9999999999999</ele><time>2026-05-03T09:05:32.284Z</time></trkpt><trkpt lat="42.24862" lon="13.7068583"><ele>832.0</ele><time>2026-05-03T09:05:34.284Z</time></trkpt><trkpt lat="42.2486717" lon="13.7069333"><ele>832.0</ele><time>2026-05-03T09:05:36.284Z</time></trkpt><trkpt lat="42.24868" lon="13.70704"><ele>832.0</ele><time>2026-05-03T09:05:38.284Z</time></trkpt><trkpt lat="42.24864" lon="13.707135"><ele>831.9999999999999</ele><time>2026-05-03T09:05:41.284Z</time></trkpt><trkpt lat="42.2485717" lon="13.70716"><ele>832.0</ele><time>2026-05-03T09:05:44.284Z</time></trkpt><trkpt lat="42.2484917" lon="13.7071683"><ele>832.0</ele><time>2026-05-03T09:05:54.284Z</time></trkpt><trkpt lat="42.2484017" lon="13.7071883"><ele>832.0</ele><time>2026-05-03T09:05:57.284Z</time></trkpt><trkpt lat="42.248325" lon="13.7072417"><ele>832.0</ele><time>2026-05-03T09:06:00.284Z</time></trkpt><trkpt lat="42.2482933" lon="13.7073433"><ele>832.0</ele><time>2026-05-03T09:06:02.284Z</time></trkpt><trkpt lat="42.248265" lon="13.7074517"><ele>832.0</ele><time>2026-05-03T09:06:04.284Z</time></trkpt><trkpt lat="42.248225" lon="13.707585"><ele>832.0</ele><time>2026-05-03T09:06:06.285Z</time></trkpt><trkpt lat="42.2481817" lon="13.7077333"><ele>832.0</ele><time>2026-05-03T09:06:08.284Z</time></trkpt><trkpt lat="42.2481417" lon="13.707865"><ele>832.0</ele><time>2026-05-03T09:06:10.284Z</time></trkpt><trkpt lat="42.248095" lon="13.70799"><ele>832.0</ele><time>2026-05-03T09:06:12.284Z</time></trkpt><trkpt lat="42.248045" lon="13.7081133"><ele>832.0</ele><time>2026-05-03T09:06:14.284Z</time></trkpt><trkpt lat="42.2479533" lon="13.708225"><ele>829.6666666666666</ele><time>2026-05-03T09:06:16.284Z</time></trkpt><trkpt lat="42.247895" lon="13.7082717"><ele>827.3333333333333</ele><time>2026-05-03T09:06:17.284Z</time></trkpt><trkpt lat="42.24783" lon="13.7083217"><ele>825.0</ele><time>2026-05-03T09:06:18.284Z</time></trkpt><trkpt lat="42.2477667" lon="13.7083633"><ele>822.6666666666667</ele><time>2026-05-03T09:06:19.284Z</time></trkpt><trkpt lat="42.2477117" lon="13.7084067"><ele>820.3333333333334</ele><time>2026-05-03T09:06:20.284Z</time></trkpt><trkpt lat="42.24762" lon="13.7084917"><ele>818.0</ele><time>2026-05-03T09:06:22.284Z</time></trkpt><trkpt lat="42.24753" lon="13.708565"><ele>818.0000000000001</ele><time>2026-05-03T09:06:24.284Z</time></trkpt><trkpt lat="42.2474483" lon="13.7085867"><ele>818.0</ele><time>2026-05-03T09:06:26.284Z</time></trkpt><trkpt lat="42.2473713" lon="13.7085641"><ele>818.0</ele><time>2026-05-03T09:06:28.284Z</time></trkpt><trkpt lat="42.2473153" lon="13.7084812"><ele>818.0</ele><time>2026-05-03T09:06:30.284Z</time></trkpt><trkpt lat="42.2472725" lon="13.7083665"><ele>818.0000000000001</ele><time>2026-05-03T09:06:32.285Z</time></trkpt><trkpt lat="42.2472333" lon="13.7082478"><ele>818.0</ele><time>2026-05-03T09:06:34.284Z</time></trkpt><trkpt lat="42.2472113" lon="13.7081171"><ele>816.0000000000001</ele><time>2026-05-03T09:06:36.284Z</time></trkpt><trkpt lat="42.2472026" lon="13.7079548"><ele>814.0</ele><time>2026-05-03T09:06:38.284Z</time></trkpt><trkpt lat="42.2471938" lon="13.7078439"><ele>812.0</ele><time>2026-05-03T09:06:39.284Z</time></trkpt><trkpt lat="42.2471861" lon="13.7077195"><ele>810.0</ele><time>2026-05-03T09:06:40.284Z</time></trkpt><trkpt lat="42.2471809" lon="13.7076152"><ele>808.0000000000001</ele><time>2026-05-03T09:06:41.284Z</time></trkpt><trkpt lat="42.2471772" lon="13.7075272"><ele>806.0</ele><time>2026-05-03T09:06:42.285Z</time></trkpt><trkpt lat="42.2471691" lon="13.7073875"><ele>806.0</ele><time>2026-05-03T09:06:44.284Z</time></trkpt><trkpt lat="42.2471515" lon="13.7072676"><ele>806.0</ele><time>2026-05-03T09:06:46.284Z</time></trkpt><trkpt lat="42.247116" lon="13.7071743"><ele>806.0</ele><time>2026-05-03T09:06:48.284Z</time></trkpt><trkpt lat="42.247045" lon="13.707135"><ele>806.0</ele><time>2026-05-03T09:06:50.284Z</time></trkpt><trkpt lat="42.24694" lon="13.7071317"><ele>806.0</ele><time>2026-05-03T09:06:52.284Z</time></trkpt><trkpt lat="42.2468383" lon="13.7071283"><ele>806.0000000000001</ele><time>2026-05-03T09:06:54.284Z</time></trkpt><trkpt lat="42.2467567" lon="13.7071267"><ele>806.0</ele><time>2026-05-03T09:06:56.284Z</time></trkpt><trkpt lat="42.2466717" lon="13.7071333"><ele>806.0</ele><time>2026-05-03T09:06:59.284Z</time></trkpt><trkpt lat="42.24659" lon="13.7071067"><ele>806.0</ele><time>2026-05-03T09:07:02.285Z</time></trkpt><trkpt lat="42.2465267" lon="13.7071017"><ele>806.0000000000001</ele><time>2026-05-03T09:07:04.284Z</time></trkpt><trkpt lat="42.2464517" lon="13.707065"><ele>806.0</ele><time>2026-05-03T09:07:06.284Z</time></trkpt><trkpt lat="42.2463683" lon="13.7070383"><ele>803.8333333333334</ele><time>2026-05-03T09:07:08.284Z</time></trkpt><trkpt lat="42.2462883" lon="13.7070167"><ele>801.6666666666667</ele><time>2026-05-03T09:07:10.284Z</time></trkpt><trkpt lat="42.24622" lon="13.707015"><ele>799.5</ele><time>2026-05-03T09:07:12.285Z</time></trkpt><trkpt lat="42.2461633" lon="13.707055"><ele>797.3333333333333</ele><time>2026-05-03T09:07:18.284Z</time></trkpt><trkpt lat="42.2461417" lon="13.7071667"><ele>795.1666666666666</ele><time>2026-05-03T09:07:20.285Z</time></trkpt><trkpt lat="42.2461267" lon="13.7072883"><ele>793.0</ele><time>2026-05-03T09:07:22.284Z</time></trkpt><trkpt lat="42.246135" lon="13.707435"><ele>792.9999999999999</ele><time>2026-05-03T09:07:24.284Z</time></trkpt><trkpt lat="42.2461317" lon="13.70753"><ele>793.0</ele><time>2026-05-03T09:07:25.285Z</time></trkpt><trkpt lat="42.2461283" lon="13.707645"><ele>793.0</ele><time>2026-05-03T09:07:26.284Z</time></trkpt><trkpt lat="42.2461183" lon="13.7077633"><ele>793.0</ele><time>2026-05-03T09:07:27.284Z</time></trkpt><trkpt lat="42.2461133" lon="13.707905"><ele>792.9999999999999</ele><time>2026-05-03T09:07:28.284Z</time></trkpt><trkpt lat="42.2461083" lon="13.708035"><ele>793.0</ele><time>2026-05-03T09:07:29.284Z</time></trkpt><trkpt lat="42.2461017" lon="13.7081783"><ele>792.4</ele><time>2026-05-03T09:07:30.284Z</time></trkpt><trkpt lat="42.2460883" lon="13.7083283"><ele>791.8</ele><time>2026-05-03T09:07:31.284Z</time></trkpt><trkpt lat="42.246075" lon="13.708475"><ele>791.2</ele><time>2026-05-03T09:07:32.284Z</time></trkpt><trkpt lat="42.2460583" lon="13.70862"><ele>790.6</ele><time>2026-05-03T09:07:33.284Z</time></trkpt><trkpt lat="42.246045" lon="13.7087517"><ele>790.0</ele><time>2026-05-03T09:07:34.284Z</time></trkpt><trkpt lat="42.2460317" lon="13.7088867"><ele>789.3333333333333</ele><time>2026-05-03T09:07:35.284Z</time></trkpt><trkpt lat="42.2460267" lon="13.7090217"><ele>788.6666666666666</ele><time>2026-05-03T09:07:36.284Z</time></trkpt><trkpt lat="42.2460217" lon="13.709145"><ele>788.0</ele><time>2026-05-03T09:07:37.284Z</time></trkpt><trkpt lat="42.2460317" lon="13.7092533"><ele>787.3333333333333</ele><time>2026-05-03T09:07:38.284Z</time></trkpt><trkpt lat="42.2460467" lon="13.70936"><ele>786.6666666666666</ele><time>2026-05-03T09:07:39.285Z</time></trkpt><trkpt lat="42.2460733" lon="13.709465"><ele>786.0</ele><time>2026-05-03T09:07:40.284Z</time></trkpt><trkpt lat="42.2461167" lon="13.70957"><ele>785.8</ele><time>2026-05-03T09:07:41.284Z</time></trkpt><trkpt lat="42.2461683" lon="13.7096717"><ele>785.5999999999999</ele><time>2026-05-03T09:07:42.284Z</time></trkpt><trkpt lat="42.2462417" lon="13.7097733"><ele>785.4</ele><time>2026-05-03T09:07:43.284Z</time></trkpt><trkpt lat="42.2463367" lon="13.7098767"><ele>785.2</ele><time>2026-05-03T09:07:44.284Z</time></trkpt><trkpt lat="42.2464417" lon="13.7099617"><ele>785.0</ele><time>2026-05-03T09:07:45.284Z</time></trkpt><trkpt lat="42.2465617" lon="13.7100367"><ele>786.0</ele><time>2026-05-03T09:07:46.284Z</time></trkpt><trkpt lat="42.2466933" lon="13.71009"><ele>787.0</ele><time>2026-05-03T09:07:47.284Z</time></trkpt><trkpt lat="42.2468467" lon="13.7101067"><ele>788.0</ele><time>2026-05-03T09:07:48.284Z</time></trkpt><trkpt lat="42.2470133" lon="13.7100833"><ele>788.0</ele><time>2026-05-03T09:07:49.284Z</time></trkpt><trkpt lat="42.2471717" lon="13.7100317"><ele>788.0</ele><time>2026-05-03T09:07:50.284Z</time></trkpt><trkpt lat="42.247325" lon="13.7099717"><ele>788.0</ele><time>2026-05-03T09:07:51.284Z</time></trkpt><trkpt lat="42.2474683" lon="13.7099183"><ele>786.75</ele><time>2026-05-03T09:07:52.284Z</time></trkpt><trkpt lat="42.247595" lon="13.7098817"><ele>785.5</ele><time>2026-05-03T09:07:53.284Z</time></trkpt><trkpt lat="42.2477233" lon="13.7098633"><ele>784.25</ele><time>2026-05-03T09:07:54.284Z</time></trkpt><trkpt lat="42.2478467" lon="13.709865"><ele>783.0</ele><time>2026-05-03T09:07:55.284Z</time></trkpt><trkpt lat="42.24796" lon="13.7099067"><ele>783.0</ele><time>2026-05-03T09:07:56.284Z</time></trkpt><trkpt lat="42.24805" lon="13.7099783"><ele>783.0</ele><time>2026-05-03T09:07:57.284Z</time></trkpt><trkpt lat="42.2481117" lon="13.7100733"><ele>783.0</ele><time>2026-05-03T09:07:58.284Z</time></trkpt><trkpt lat="42.2481483" lon="13.7101817"><ele>783.0</ele><time>2026-05-03T09:07:59.284Z</time></trkpt><trkpt lat="42.2481633" lon="13.7103033"><ele>783.0</ele><time>2026-05-03T09:08:00.284Z</time></trkpt><trkpt lat="42.248155" lon="13.7104383"><ele>783.5999999999999</ele><time>2026-05-03T09:08:01.284Z</time></trkpt><trkpt lat="42.2481283" lon="13.710575"><ele>784.1999999999999</ele><time>2026-05-03T09:08:02.285Z</time></trkpt><trkpt lat="42.24809" lon="13.71071"><ele>784.8</ele><time>2026-05-03T09:08:03.284Z</time></trkpt><trkpt lat="42.2480483" lon="13.7108433"><ele>785.4</ele><time>2026-05-03T09:08:04.284Z</time></trkpt><trkpt lat="42.2479933" lon="13.71098"><ele>786.0</ele><time>2026-05-03T09:08:05.284Z</time></trkpt><trkpt lat="42.2479383" lon="13.7111217"><ele>780.5</ele><time>2026-05-03T09:08:06.284Z</time></trkpt><trkpt lat="42.24789" lon="13.7112683"><ele>775.0</ele><time>2026-05-03T09:08:07.284Z</time></trkpt><trkpt lat="42.2478383" lon="13.7114233"><ele>769.5</ele><time>2026-05-03T09:08:08.284Z</time></trkpt><trkpt lat="42.2477883" lon="13.711585"><ele>764.0</ele><time>2026-05-03T09:08:09.285Z</time></trkpt><trkpt lat="42.247745" lon="13.711735"><ele>764.0</ele><time>2026-05-03T09:08:10.284Z</time></trkpt><trkpt lat="42.2477133" lon="13.7118633"><ele>764.0</ele><time>2026-05-03T09:08:11.284Z</time></trkpt><trkpt lat="42.2476967" lon="13.711965"><ele>764.0</ele><time>2026-05-03T09:08:12.284Z</time></trkpt><trkpt lat="42.2477033" lon="13.7120733"><ele>764.0</ele><time>2026-05-03T09:08:13.284Z</time></trkpt><trkpt lat="42.24772" lon="13.7121917"><ele>764.0</ele><time>2026-05-03T09:08:14.284Z</time></trkpt><trkpt lat="42.247735" lon="13.712325"><ele>764.0</ele><time>2026-05-03T09:08:15.284Z</time></trkpt><trkpt lat="42.247735" lon="13.7124483"><ele>764.75</ele><time>2026-05-03T09:08:16.284Z</time></trkpt><trkpt lat="42.247725" lon="13.7125817"><ele>765.5</ele><time>2026-05-03T09:08:17.284Z</time></trkpt><trkpt lat="42.2477117" lon="13.7127233"><ele>766.25</ele><time>2026-05-03T09:08:18.285Z</time></trkpt><trkpt lat="42.247705" lon="13.712885"><ele>767.0</ele><time>2026-05-03T09:08:19.284Z</time></trkpt><trkpt lat="42.2476933" lon="13.7130633"><ele>767.25</ele><time>2026-05-03T09:08:20.284Z</time></trkpt><trkpt lat="42.2476683" lon="13.7132367"><ele>767.5</ele><time>2026-05-03T09:08:21.284Z</time></trkpt><trkpt lat="42.2476483" lon="13.7133883"><ele>767.75</ele><time>2026-05-03T09:08:22.284Z</time></trkpt><trkpt lat="42.24763" lon="13.7135467"><ele>768.0</ele><time>2026-05-03T09:08:23.284Z</time></trkpt><trkpt lat="42.2476317" lon="13.7137133"><ele>767.5</ele><time>2026-05-03T09:08:24.284Z</time></trkpt><trkpt lat="42.2476417" lon="13.7138867"><ele>767.0</ele><time>2026-05-03T09:08:25.284Z</time></trkpt><trkpt lat="42.2476683" lon="13.7140717"><ele>766.5</ele><time>2026-05-03T09:08:26.284Z</time></trkpt><trkpt lat="42.2477083" lon="13.71426"><ele>766.0</ele><time>2026-05-03T09:08:27.284Z</time></trkpt><trkpt lat="42.2477617" lon="13.714465"><ele>763.3333333333334</ele><time>2026-05-03T09:08:28.285Z</time></trkpt><trkpt lat="42.2478333" lon="13.7146667"><ele>760.6666666666666</ele><time>2026-05-03T09:08:29.284Z</time></trkpt><trkpt lat="42.24791" lon="13.7148583"><ele>758.0</ele><time>2026-05-03T09:08:30.284Z</time></trkpt><trkpt lat="42.2479817" lon="13.7150283"><ele>758.0</ele><time>2026-05-03T09:08:31.285Z</time></trkpt><trkpt lat="42.2480517" lon="13.7151717"><ele>758.0</ele><time>2026-05-03T09:08:32.284Z</time></trkpt><trkpt lat="42.2481167" lon="13.715285"><ele>758.0</ele><time>2026-05-03T09:08:33.284Z</time></trkpt><trkpt lat="42.248185" lon="13.7153833"><ele>758.0</ele><time>2026-05-03T09:08:34.284Z</time></trkpt><trkpt lat="42.2482683" lon="13.7154867"><ele>758.0</ele><time>2026-05-03T09:08:35.284Z</time></trkpt><trkpt lat="42.2483717" lon="13.7155933"><ele>760.5</ele><time>2026-05-03T09:08:36.284Z</time></trkpt><trkpt lat="42.248495" lon="13.7157133"><ele>763.0</ele><time>2026-05-03T09:08:37.284Z</time></trkpt><trkpt lat="42.2486117" lon="13.7158317"><ele>765.5</ele><time>2026-05-03T09:08:38.284Z</time></trkpt><trkpt lat="42.2487217" lon="13.7159383"><ele>768.0</ele><time>2026-05-03T09:08:39.284Z</time></trkpt><trkpt lat="42.2488367" lon="13.7160367"><ele>767.25</ele><time>2026-05-03T09:08:40.284Z</time></trkpt><trkpt lat="42.24895" lon="13.7161217"><ele>766.5</ele><time>2026-05-03T09:08:41.284Z</time></trkpt><trkpt lat="42.24906" lon="13.7161933"><ele>765.75</ele><time>2026-05-03T09:08:42.284Z</time></trkpt><trkpt lat="42.2491567" lon="13.7162633"><ele>765.0</ele><time>2026-05-03T09:08:43.285Z</time></trkpt><trkpt lat="42.249245" lon="13.7163283"><ele>765.0</ele><time>2026-05-03T09:08:44.284Z</time></trkpt><trkpt lat="42.2493083" lon="13.7164083"><ele>765.0</ele><time>2026-05-03T09:08:45.284Z</time></trkpt><trkpt lat="42.2493533" lon="13.71651"><ele>765.0</ele><time>2026-05-03T09:08:46.284Z</time></trkpt><trkpt lat="42.24938" lon="13.716635"><ele>765.0</ele><time>2026-05-03T09:08:47.284Z</time></trkpt><trkpt lat="42.2494017" lon="13.71677"><ele>765.0</ele><time>2026-05-03T09:08:48.284Z</time></trkpt><trkpt lat="42.2494433" lon="13.7169017"><ele>764.2</ele><time>2026-05-03T09:08:49.284Z</time></trkpt><trkpt lat="42.2495" lon="13.7170333"><ele>763.4</ele><time>2026-05-03T09:08:50.284Z</time></trkpt><trkpt lat="42.2495717" lon="13.7171533"><ele>762.5999999999999</ele><time>2026-05-03T09:08:51.284Z</time></trkpt><trkpt lat="42.2496583" lon="13.7172517"><ele>761.8</ele><time>2026-05-03T09:08:52.284Z</time></trkpt><trkpt lat="42.24974" lon="13.7173483"><ele>761.0</ele><time>2026-05-03T09:08:53.284Z</time></trkpt><trkpt lat="42.249815" lon="13.7174517"><ele>764.0</ele><time>2026-05-03T09:08:54.284Z</time></trkpt><trkpt lat="42.2498833" lon="13.7175817"><ele>767.0</ele><time>2026-05-03T09:08:55.284Z</time></trkpt><trkpt lat="42.2499367" lon="13.717725"><ele>770.0</ele><time>2026-05-03T09:08:56.284Z</time></trkpt><trkpt lat="42.2499933" lon="13.7178667"><ele>773.0</ele><time>2026-05-03T09:08:57.284Z</time></trkpt><trkpt lat="42.25006" lon="13.7179967"><ele>773.0</ele><time>2026-05-03T09:08:58.284Z</time></trkpt><trkpt lat="42.25013" lon="13.71812"><ele>773.0</ele><time>2026-05-03T09:08:59.284Z</time></trkpt><trkpt lat="42.2501967" lon="13.718235"><ele>773.0</ele><time>2026-05-03T09:09:00.284Z</time></trkpt><trkpt lat="42.2502633" lon="13.7183367"><ele>773.0</ele><time>2026-05-03T09:09:01.284Z</time></trkpt><trkpt lat="42.250335" lon="13.71843"><ele>773.0</ele><time>2026-05-03T09:09:02.283Z</time></trkpt><trkpt lat="42.250415" lon="13.7185233"><ele>773.0</ele><time>2026-05-03T09:09:03.284Z</time></trkpt><trkpt lat="42.2505017" lon="13.7186133"><ele>773.0</ele><time>2026-05-03T09:09:04.284Z</time></trkpt><trkpt lat="42.2505983" lon="13.7186917"><ele>773.0</ele><time>2026-05-03T09:09:05.284Z</time></trkpt><trkpt lat="42.2506933" lon="13.7187467"><ele>773.0</ele><time>2026-05-03T09:09:06.284Z</time></trkpt><trkpt lat="42.2508083" lon="13.718795"><ele>773.0</ele><time>2026-05-03T09:09:07.284Z</time></trkpt><trkpt lat="42.25094" lon="13.71885"><ele>773.0</ele><time>2026-05-03T09:09:08.284Z</time></trkpt><trkpt lat="42.2510617" lon="13.7189167"><ele>773.0</ele><time>2026-05-03T09:09:09.284Z</time></trkpt><trkpt lat="42.25117" lon="13.7189983"><ele>773.0</ele><time>2026-05-03T09:09:10.284Z</time></trkpt><trkpt lat="42.2512767" lon="13.7191033"><ele>773.0</ele><time>2026-05-03T09:09:11.284Z</time></trkpt><trkpt lat="42.2513683" lon="13.719235"><ele>774.75</ele><time>2026-05-03T09:09:12.284Z</time></trkpt><trkpt lat="42.25146" lon="13.71937"><ele>776.5</ele><time>2026-05-03T09:09:13.284Z</time></trkpt><trkpt lat="42.2515517" lon="13.71949"><ele>778.25</ele><time>2026-05-03T09:09:14.284Z</time></trkpt><trkpt lat="42.25166" lon="13.719605"><ele>780.0</ele><time>2026-05-03T09:09:15.284Z</time></trkpt><trkpt lat="42.2517867" lon="13.7197167"><ele>780.0</ele><time>2026-05-03T09:09:16.284Z</time></trkpt><trkpt lat="42.2519017" lon="13.7198217"><ele>780.0</ele><time>2026-05-03T09:09:17.284Z</time></trkpt><trkpt lat="42.2520167" lon="13.7199333"><ele>780.0</ele><time>2026-05-03T09:09:18.285Z</time></trkpt><trkpt lat="42.2521467" lon="13.7200517"><ele>780.0</ele><time>2026-05-03T09:09:19.284Z</time></trkpt><trkpt lat="42.2522683" lon="13.7201667"><ele>779.25</ele><time>2026-05-03T09:09:20.284Z</time></trkpt><trkpt lat="42.2523733" lon="13.72028"><ele>778.5</ele><time>2026-05-03T09:09:21.285Z</time></trkpt><trkpt lat="42.252475" lon="13.7203833"><ele>777.75</ele><time>2026-05-03T09:09:22.284Z</time></trkpt><trkpt lat="42.2525883" lon="13.7204767"><ele>777.0</ele><time>2026-05-03T09:09:23.284Z</time></trkpt><trkpt lat="42.2527183" lon="13.7205667"><ele>777.0</ele><time>2026-05-03T09:09:24.284Z</time></trkpt><trkpt lat="42.2528533" lon="13.7206483"><ele>777.0</ele><time>2026-05-03T09:09:25.285Z</time></trkpt><trkpt lat="42.2529867" lon="13.7207217"><ele>777.0</ele><time>2026-05-03T09:09:26.284Z</time></trkpt><trkpt lat="42.25312" lon="13.7207817"><ele>777.0</ele><time>2026-05-03T09:09:27.285Z</time></trkpt><trkpt lat="42.253245" lon="13.7208333"><ele>777.6</ele><time>2026-05-03T09:09:28.285Z</time></trkpt><trkpt lat="42.253365" lon="13.7208717"><ele>778.2</ele><time>2026-05-03T09:09:29.284Z</time></trkpt><trkpt lat="42.25346" lon="13.7209117"><ele>778.8</ele><time>2026-05-03T09:09:30.284Z</time></trkpt><trkpt lat="42.253535" lon="13.7209683"><ele>779.4</ele><time>2026-05-03T09:09:31.284Z</time></trkpt><trkpt lat="42.2535933" lon="13.7210483"><ele>780.0</ele><time>2026-05-03T09:09:32.284Z</time></trkpt><trkpt lat="42.25365" lon="13.7211467"><ele>780.0</ele><time>2026-05-03T09:09:33.284Z</time></trkpt><trkpt lat="42.25369" lon="13.7212633"><ele>780.0</ele><time>2026-05-03T09:09:34.284Z</time></trkpt><trkpt lat="42.253715" lon="13.7213783"><ele>780.0</ele><time>2026-05-03T09:09:35.284Z</time></trkpt><trkpt lat="42.253715" lon="13.7214933"><ele>780.0</ele><time>2026-05-03T09:09:36.284Z</time></trkpt><trkpt lat="42.2536933" lon="13.7216033"><ele>780.0</ele><time>2026-05-03T09:09:37.284Z</time></trkpt><trkpt lat="42.2536467" lon="13.7217017"><ele>780.0</ele><time>2026-05-03T09:09:38.284Z</time></trkpt><trkpt lat="42.253575" lon="13.7218167"><ele>781.0</ele><time>2026-05-03T09:09:39.284Z</time></trkpt><trkpt lat="42.2534917" lon="13.7219533"><ele>782.0</ele><time>2026-05-03T09:09:40.284Z</time></trkpt><trkpt lat="42.25343" lon="13.7220817"><ele>783.0</ele><time>2026-05-03T09:09:41.284Z</time></trkpt><trkpt lat="42.2533983" lon="13.7221983"><ele>784.0</ele><time>2026-05-03T09:09:42.284Z</time></trkpt><trkpt lat="42.25339" lon="13.7223067"><ele>785.0</ele><time>2026-05-03T09:09:43.284Z</time></trkpt><trkpt lat="42.2534017" lon="13.7224267"><ele>785.0</ele><time>2026-05-03T09:09:44.285Z</time></trkpt><trkpt lat="42.253435" lon="13.722555"><ele>785.0</ele><time>2026-05-03T09:09:45.284Z</time></trkpt><trkpt lat="42.2534817" lon="13.7226967"><ele>785.0</ele><time>2026-05-03T09:09:46.284Z</time></trkpt><trkpt lat="42.2535367" lon="13.7228383"><ele>785.0</ele><time>2026-05-03T09:09:47.284Z</time></trkpt><trkpt lat="42.2535933" lon="13.7229817"><ele>786.25</ele><time>2026-05-03T09:09:48.284Z</time></trkpt><trkpt lat="42.2536517" lon="13.72312"><ele>787.5</ele><time>2026-05-03T09:09:49.284Z</time></trkpt><trkpt lat="42.2537083" lon="13.7232617"><ele>788.75</ele><time>2026-05-03T09:09:50.284Z</time></trkpt><trkpt lat="42.2537633" lon="13.7233983"><ele>790.0</ele><time>2026-05-03T09:09:51.285Z</time></trkpt><trkpt lat="42.2538117" lon="13.723525"><ele>790.4999999999999</ele><time>2026-05-03T09:09:52.284Z</time></trkpt><trkpt lat="42.2538533" lon="13.723645"><ele>791.0</ele><time>2026-05-03T09:09:53.284Z</time></trkpt><trkpt lat="42.253875" lon="13.7237467"><ele>791.5</ele><time>2026-05-03T09:09:54.284Z</time></trkpt><trkpt lat="42.253905" lon="13.723845"><ele>792.0</ele><time>2026-05-03T09:09:55.284Z</time></trkpt><trkpt lat="42.2539367" lon="13.72394"><ele>792.4999999999999</ele><time>2026-05-03T09:09:56.284Z</time></trkpt><trkpt lat="42.2539767" lon="13.7240333"><ele>793.0</ele><time>2026-05-03T09:09:57.284Z</time></trkpt><trkpt lat="42.2540233" lon="13.7240967"><ele>791.2</ele><time>2026-05-03T09:09:58.284Z</time></trkpt><trkpt lat="42.254135" lon="13.7241617"><ele>789.4</ele><time>2026-05-03T09:10:00.284Z</time></trkpt><trkpt lat="42.25426" lon="13.7242117"><ele>787.6</ele><time>2026-05-03T09:10:02.285Z</time></trkpt><trkpt lat="42.254325" lon="13.72424"><ele>785.8000000000001</ele><time>2026-05-03T09:10:03.284Z</time></trkpt><trkpt lat="42.2543867" lon="13.7242783"><ele>784.0</ele><time>2026-05-03T09:10:04.284Z</time></trkpt><trkpt lat="42.2544533" lon="13.7243167"><ele>783.9999999999999</ele><time>2026-05-03T09:10:05.284Z</time></trkpt><trkpt lat="42.254525" lon="13.7243467"><ele>784.0</ele><time>2026-05-03T09:10:06.284Z</time></trkpt><trkpt lat="42.2545967" lon="13.7243833"><ele>784.0</ele><time>2026-05-03T09:10:07.284Z</time></trkpt><trkpt lat="42.25467" lon="13.7244117"><ele>784.0</ele><time>2026-05-03T09:10:08.284Z</time></trkpt><trkpt lat="42.2547433" lon="13.7244433"><ele>783.9999999999999</ele><time>2026-05-03T09:10:09.284Z</time></trkpt><trkpt lat="42.2548183" lon="13.7244783"><ele>784.0</ele><time>2026-05-03T09:10:10.284Z</time></trkpt><trkpt lat="42.2548883" lon="13.7245183"><ele>780.9999999999999</ele><time>2026-05-03T09:10:11.284Z</time></trkpt><trkpt lat="42.2549567" lon="13.7245483"><ele>778.0</ele><time>2026-05-03T09:10:12.284Z</time></trkpt><trkpt lat="42.2550317" lon="13.7245767"><ele>775.0</ele><time>2026-05-03T09:10:13.284Z</time></trkpt><trkpt lat="42.25511" lon="13.7246117"><ele>772.0</ele><time>2026-05-03T09:10:14.284Z</time></trkpt><trkpt lat="42.2551767" lon="13.7246583"><ele>769.0</ele><time>2026-05-03T09:10:15.284Z</time></trkpt><trkpt lat="42.255235" lon="13.7247317"><ele>766.0</ele><time>2026-05-03T09:10:16.284Z</time></trkpt><trkpt lat="42.2552817" lon="13.724825"><ele>766.0</ele><time>2026-05-03T09:10:17.284Z</time></trkpt><trkpt lat="42.2553167" lon="13.7249317"><ele>766.0</ele><time>2026-05-03T09:10:18.284Z</time></trkpt><trkpt lat="42.2553433" lon="13.72505"><ele>766.0</ele><time>2026-05-03T09:10:19.284Z</time></trkpt><trkpt lat="42.2553667" lon="13.72517"><ele>766.0</ele><time>2026-05-03T09:10:20.284Z</time></trkpt><trkpt lat="42.2553917" lon="13.7253033"><ele>766.0</ele><time>2026-05-03T09:10:21.284Z</time></trkpt><trkpt lat="42.2554267" lon="13.72544"><ele>765.8</ele><time>2026-05-03T09:10:22.278Z</time></trkpt><trkpt lat="42.2554683" lon="13.7255817"><ele>765.5999999999999</ele><time>2026-05-03T09:10:23.284Z</time></trkpt><trkpt lat="42.25551" lon="13.72571"><ele>765.4</ele><time>2026-05-03T09:10:24.284Z</time></trkpt><trkpt lat="42.2555467" lon="13.7258267"><ele>765.2</ele><time>2026-05-03T09:10:25.284Z</time></trkpt><trkpt lat="42.2555867" lon="13.725945"><ele>765.0</ele><time>2026-05-03T09:10:26.284Z</time></trkpt><trkpt lat="42.2556267" lon="13.7260683"><ele>765.0</ele><time>2026-05-03T09:10:27.284Z</time></trkpt><trkpt lat="42.2556767" lon="13.7261967"><ele>765.0</ele><time>2026-05-03T09:10:28.284Z</time></trkpt><trkpt lat="42.25571" lon="13.726315"><ele>765.0</ele><time>2026-05-03T09:10:29.284Z</time></trkpt><trkpt lat="42.2557283" lon="13.72642"><ele>765.0</ele><time>2026-05-03T09:10:30.284Z</time></trkpt><trkpt lat="42.25573" lon="13.7265183"><ele>765.0</ele><time>2026-05-03T09:10:31.284Z</time></trkpt><trkpt lat="42.255705" lon="13.7266067"><ele>765.0</ele><time>2026-05-03T09:10:32.284Z</time></trkpt><trkpt lat="42.2556583" lon="13.7266817"><ele>762.8333333333334</ele><time>2026-05-03T09:10:33.284Z</time></trkpt><trkpt lat="42.2556083" lon="13.726745"><ele>760.6666666666666</ele><time>2026-05-03T09:10:34.284Z</time></trkpt><trkpt lat="42.2555533" lon="13.7267983"><ele>758.5</ele><time>2026-05-03T09:10:35.284Z</time></trkpt><trkpt lat="42.2554967" lon="13.7269183"><ele>756.3333333333333</ele><time>2026-05-03T09:10:37.284Z</time></trkpt><trkpt lat="42.2554917" lon="13.7270283"><ele>754.1666666666666</ele><time>2026-05-03T09:10:38.284Z</time></trkpt><trkpt lat="42.2554817" lon="13.7271617"><ele>752.0</ele><time>2026-05-03T09:10:39.284Z</time></trkpt><trkpt lat="42.255465" lon="13.727295"><ele>752.4000000000001</ele><time>2026-05-03T09:10:40.284Z</time></trkpt><trkpt lat="42.2554533" lon="13.7273983"><ele>752.8000000000001</ele><time>2026-05-03T09:10:41.284Z</time></trkpt><trkpt lat="42.2554817" lon="13.727525"><ele>753.2</ele><time>2026-05-03T09:10:43.284Z</time></trkpt><trkpt lat="42.25555" lon="13.7275633"><ele>753.6</ele><time>2026-05-03T09:10:45.284Z</time></trkpt><trkpt lat="42.255645" lon="13.7275367"><ele>754.0</ele><time>2026-05-03T09:10:47.284Z</time></trkpt><trkpt lat="42.2557517" lon="13.7275067"><ele>754.0</ele><time>2026-05-03T09:10:49.284Z</time></trkpt><trkpt lat="42.25586" lon="13.727515"><ele>754.0</ele><time>2026-05-03T09:10:51.284Z</time></trkpt><trkpt lat="42.25592" lon="13.7275433"><ele>754.0</ele><time>2026-05-03T09:10:52.284Z</time></trkpt><trkpt lat="42.255985" lon="13.72758"><ele>754.0</ele><time>2026-05-03T09:10:53.284Z</time></trkpt><trkpt lat="42.2560983" lon="13.72766"><ele>754.0</ele><time>2026-05-03T09:10:55.284Z</time></trkpt><trkpt lat="42.2561533" lon="13.7277133"><ele>754.0</ele><time>2026-05-03T09:10:56.284Z</time></trkpt><trkpt lat="42.2562067" lon="13.72776"><ele>750.5</ele><time>2026-05-03T09:10:57.284Z</time></trkpt><trkpt lat="42.2562583" lon="13.7278167"><ele>747.0</ele><time>2026-05-03T09:10:58.284Z</time></trkpt><trkpt lat="42.25632" lon="13.7278667"><ele>743.5</ele><time>2026-05-03T09:10:59.285Z</time></trkpt><trkpt lat="42.2563867" lon="13.72793"><ele>740.0</ele><time>2026-05-03T09:11:00.285Z</time></trkpt><trkpt lat="42.256455" lon="13.727985"><ele>736.5</ele><time>2026-05-03T09:11:01.284Z</time></trkpt><trkpt lat="42.2565233" lon="13.7280433"><ele>733.0</ele><time>2026-05-03T09:11:02.284Z</time></trkpt><trkpt lat="42.2565833" lon="13.7280933"><ele>733.0</ele><time>2026-05-03T09:11:03.284Z</time></trkpt><trkpt lat="42.2566933" lon="13.7281783"><ele>733.0</ele><time>2026-05-03T09:11:05.284Z</time></trkpt><trkpt lat="42.2567817" lon="13.7282567"><ele>733.0</ele><time>2026-05-03T09:11:07.284Z</time></trkpt><trkpt lat="42.2568633" lon="13.7283433"><ele>733.0</ele><time>2026-05-03T09:11:09.284Z</time></trkpt><trkpt lat="42.2569383" lon="13.7284417"><ele>733.0</ele><time>2026-05-03T09:11:11.284Z</time></trkpt><trkpt lat="42.2570067" lon="13.7285433"><ele>730.6666666666667</ele><time>2026-05-03T09:11:13.285Z</time></trkpt><trkpt lat="42.2570933" lon="13.728625"><ele>728.3333333333334</ele><time>2026-05-03T09:11:15.285Z</time></trkpt><trkpt lat="42.2571633" lon="13.72871"><ele>726.0</ele><time>2026-05-03T09:11:17.284Z</time></trkpt><trkpt lat="42.2572117" lon="13.7287967"><ele>723.6666666666666</ele><time>2026-05-03T09:11:19.284Z</time></trkpt><trkpt lat="42.25725" lon="13.72887"><ele>721.3333333333333</ele><time>2026-05-03T09:11:21.284Z</time></trkpt><trkpt lat="42.2572817" lon="13.72895"><ele>719.0</ele><time>2026-05-03T09:11:23.284Z</time></trkpt><trkpt lat="42.25731" lon="13.72904"><ele>719.0</ele><time>2026-05-03T09:11:25.285Z</time></trkpt><trkpt lat="42.2573483" lon="13.7291317"><ele>719.0</ele><time>2026-05-03T09:11:27.284Z</time></trkpt><trkpt lat="42.2573883" lon="13.7292283"><ele>719.0</ele><time>2026-05-03T09:11:29.284Z</time></trkpt><trkpt lat="42.2574267" lon="13.72933"><ele>719.0</ele><time>2026-05-03T09:11:31.284Z</time></trkpt><trkpt lat="42.257485" lon="13.7294017"><ele>719.0</ele><time>2026-05-03T09:11:33.284Z</time></trkpt><trkpt lat="42.257565" lon="13.72944"><ele>719.0</ele><time>2026-05-03T09:11:35.284Z</time></trkpt><trkpt lat="42.2576383" lon="13.72947"><ele>713.4000000000001</ele><time>2026-05-03T09:11:37.284Z</time></trkpt><trkpt lat="42.2577317" lon="13.7294933"><ele>707.8</ele><time>2026-05-03T09:11:39.284Z</time></trkpt><trkpt lat="42.25783" lon="13.7295067"><ele>702.2</ele><time>2026-05-03T09:11:41.284Z</time></trkpt><trkpt lat="42.2579417" lon="13.7295267"><ele>696.5999999999999</ele><time>2026-05-03T09:11:43.284Z</time></trkpt><trkpt lat="42.2580517" lon="13.729555"><ele>691.0</ele><time>2026-05-03T09:11:45.284Z</time></trkpt><trkpt lat="42.25817" lon="13.7295983"><ele>691.0</ele><time>2026-05-03T09:11:47.285Z</time></trkpt><trkpt lat="42.25829" lon="13.7296367"><ele>691.0</ele><time>2026-05-03T09:11:49.284Z</time></trkpt><trkpt lat="42.2583533" lon="13.7296717"><ele>691.0</ele><time>2026-05-03T09:11:50.284Z</time></trkpt><trkpt lat="42.25841" lon="13.7297133"><ele>691.0</ele><time>2026-05-03T09:11:51.284Z</time></trkpt><trkpt lat="42.25847" lon="13.7297583"><ele>691.0</ele><time>2026-05-03T09:11:52.284Z</time></trkpt><trkpt lat="42.2585317" lon="13.729805"><ele>691.0</ele><time>2026-05-03T09:11:53.284Z</time></trkpt><trkpt lat="42.258595" lon="13.7298467"><ele>691.0</ele><time>2026-05-03T09:11:54.285Z</time></trkpt><trkpt lat="42.2586617" lon="13.7298867"><ele>691.0</ele><time>2026-05-03T09:11:55.284Z</time></trkpt><trkpt lat="42.25872" lon="13.729925"><ele>691.0</ele><time>2026-05-03T09:11:56.284Z</time></trkpt><trkpt lat="42.2587817" lon="13.72996"><ele>691.0</ele><time>2026-05-03T09:11:57.284Z</time></trkpt><trkpt lat="42.2589" lon="13.7300183"><ele>691.0</ele><time>2026-05-03T09:11:59.284Z</time></trkpt><trkpt lat="42.258965" lon="13.7300433"><ele>691.0</ele><time>2026-05-03T09:12:00.284Z</time></trkpt><trkpt lat="42.2590267" lon="13.730075"><ele>692.3333333333334</ele><time>2026-05-03T09:12:01.284Z</time></trkpt><trkpt lat="42.2590867" lon="13.7301033"><ele>693.6666666666667</ele><time>2026-05-03T09:12:02.284Z</time></trkpt><trkpt lat="42.2591467" lon="13.7301317"><ele>695.0</ele><time>2026-05-03T09:12:03.284Z</time></trkpt><trkpt lat="42.25927" lon="13.7301783"><ele>696.3333333333334</ele><time>2026-05-03T09:12:05.284Z</time></trkpt><trkpt lat="42.2593483" lon="13.73021"><ele>697.6666666666666</ele><time>2026-05-03T09:12:06.284Z</time></trkpt><trkpt lat="42.2594283" lon="13.73025"><ele>699.0</ele><time>2026-05-03T09:12:07.284Z</time></trkpt><trkpt lat="42.2595033" lon="13.730285"><ele>694.1666666666666</ele><time>2026-05-03T09:12:08.284Z</time></trkpt><trkpt lat="42.2595683" lon="13.730315"><ele>689.3333333333334</ele><time>2026-05-03T09:12:09.284Z</time></trkpt><trkpt lat="42.25964" lon="13.73035"><ele>684.5</ele><time>2026-05-03T09:12:10.284Z</time></trkpt><trkpt lat="42.2597033" lon="13.7303817"><ele>679.6666666666667</ele><time>2026-05-03T09:12:11.284Z</time></trkpt><trkpt lat="42.2597667" lon="13.7304133"><ele>674.8333333333334</ele><time>2026-05-03T09:12:12.284Z</time></trkpt><trkpt lat="42.259885" lon="13.730465"><ele>670.0</ele><time>2026-05-03T09:12:14.284Z</time></trkpt><trkpt lat="42.2599883" lon="13.73052"><ele>670.0</ele><time>2026-05-03T09:12:16.284Z</time></trkpt><trkpt lat="42.2600733" lon="13.7305783"><ele>670.0</ele><time>2026-05-03T09:12:18.284Z</time></trkpt><trkpt lat="42.26017" lon="13.7306433"><ele>670.0</ele><time>2026-05-03T09:12:20.284Z</time></trkpt><trkpt lat="42.2602517" lon="13.730725"><ele>670.0</ele><time>2026-05-03T09:12:22.284Z</time></trkpt><trkpt lat="42.26034" lon="13.7307967"><ele>670.0</ele><time>2026-05-03T09:12:24.284Z</time></trkpt><trkpt lat="42.26044" lon="13.73085"><ele>669.9999999999999</ele><time>2026-05-03T09:12:26.284Z</time></trkpt><trkpt lat="42.2605" lon="13.7308917"><ele>670.0</ele><time>2026-05-03T09:12:27.284Z</time></trkpt><trkpt lat="42.2605567" lon="13.730935"><ele>670.0</ele><time>2026-05-03T09:12:28.284Z</time></trkpt><trkpt lat="42.26061" lon="13.7309833"><ele>670.0</ele><time>2026-05-03T09:12:29.284Z</time></trkpt><trkpt lat="42.260665" lon="13.7310283"><ele>670.0</ele><time>2026-05-03T09:12:30.284Z</time></trkpt><trkpt lat="42.2607217" lon="13.7310883"><ele>669.9999999999999</ele><time>2026-05-03T09:12:31.284Z</time></trkpt><trkpt lat="42.260775" lon="13.7311517"><ele>670.0</ele><time>2026-05-03T09:12:32.284Z</time></trkpt><trkpt lat="42.2608233" lon="13.7312183"><ele>666.4</ele><time>2026-05-03T09:12:33.284Z</time></trkpt><trkpt lat="42.2609017" lon="13.7313333"><ele>662.8</ele><time>2026-05-03T09:12:35.285Z</time></trkpt><trkpt lat="42.260955" lon="13.73146"><ele>659.2</ele><time>2026-05-03T09:12:37.284Z</time></trkpt><trkpt lat="42.2609983" lon="13.7315967"><ele>655.6</ele><time>2026-05-03T09:12:39.284Z</time></trkpt><trkpt lat="42.2610567" lon="13.7317183"><ele>652.0</ele><time>2026-05-03T09:12:41.284Z</time></trkpt><trkpt lat="42.2611333" lon="13.7318383"><ele>651.4000000000001</ele><time>2026-05-03T09:12:43.284Z</time></trkpt><trkpt lat="42.2612117" lon="13.731935"><ele>650.8000000000001</ele><time>2026-05-03T09:12:45.284Z</time></trkpt><trkpt lat="42.2613133" lon="13.7319567"><ele>650.2</ele><time>2026-05-03T09:12:47.284Z</time></trkpt><trkpt lat="42.2614383" lon="13.7319717"><ele>649.6</ele><time>2026-05-03T09:12:49.284Z</time></trkpt><trkpt lat="42.2614967" lon="13.7320133"><ele>649.0</ele><time>2026-05-03T09:12:50.284Z</time></trkpt><trkpt lat="42.2615467" lon="13.7320833"><ele>648.9999999999999</ele><time>2026-05-03T09:12:51.284Z</time></trkpt><trkpt lat="42.2615933" lon="13.73216"><ele>649.0</ele><time>2026-05-03T09:12:52.284Z</time></trkpt><trkpt lat="42.2616183" lon="13.7322467"><ele>649.0</ele><time>2026-05-03T09:12:53.284Z</time></trkpt><trkpt lat="42.26163" lon="13.7323317"><ele>649.0</ele><time>2026-05-03T09:12:54.284Z</time></trkpt><trkpt lat="42.2616333" lon="13.7324167"><ele>649.0</ele><time>2026-05-03T09:12:55.284Z</time></trkpt><trkpt lat="42.261635" lon="13.7325083"><ele>648.9999999999999</ele><time>2026-05-03T09:12:56.284Z</time></trkpt><trkpt lat="42.2616317" lon="13.7326"><ele>649.0</ele><time>2026-05-03T09:12:57.284Z</time></trkpt><trkpt lat="42.2616283" lon="13.7326867"><ele>646.8571428571428</ele><time>2026-05-03T09:12:58.285Z</time></trkpt><trkpt lat="42.2616267" lon="13.73278"><ele>644.7142857142857</ele><time>2026-05-03T09:12:59.284Z</time></trkpt><trkpt lat="42.2616333" lon="13.7328733"><ele>642.5714285714286</ele><time>2026-05-03T09:13:00.284Z</time></trkpt><trkpt lat="42.2616433" lon="13.73296"><ele>640.4285714285713</ele><time>2026-05-03T09:13:01.284Z</time></trkpt><trkpt lat="42.2616583" lon="13.7330483"><ele>638.2857142857142</ele><time>2026-05-03T09:13:02.284Z</time></trkpt><trkpt lat="42.2616683" lon="13.7331433"><ele>636.1428571428571</ele><time>2026-05-03T09:13:03.284Z</time></trkpt><trkpt lat="42.2616767" lon="13.7332533"><ele>634.0</ele><time>2026-05-03T09:13:04.284Z</time></trkpt><trkpt lat="42.26169" lon="13.7333617"><ele>634.0</ele><time>2026-05-03T09:13:05.284Z</time></trkpt><trkpt lat="42.261705" lon="13.7334567"><ele>634.0</ele><time>2026-05-03T09:13:06.284Z</time></trkpt><trkpt lat="42.2617183" lon="13.7335467"><ele>634.0</ele><time>2026-05-03T09:13:07.284Z</time></trkpt><trkpt lat="42.261735" lon="13.7336383"><ele>634.0</ele><time>2026-05-03T09:13:08.284Z</time></trkpt><trkpt lat="42.261755" lon="13.73373"><ele>634.0</ele><time>2026-05-03T09:13:09.284Z</time></trkpt><trkpt lat="42.2617717" lon="13.7338233"><ele>634.0</ele><time>2026-05-03T09:13:10.284Z</time></trkpt><trkpt lat="42.2617733" lon="13.7339267"><ele>634.0</ele><time>2026-05-03T09:13:11.284Z</time></trkpt><trkpt lat="42.26177" lon="13.734025"><ele>633.2857142857143</ele><time>2026-05-03T09:13:12.284Z</time></trkpt><trkpt lat="42.2617583" lon="13.7341267"><ele>632.5714285714286</ele><time>2026-05-03T09:13:13.284Z</time></trkpt><trkpt lat="42.2617433" lon="13.73422"><ele>631.8571428571429</ele><time>2026-05-03T09:13:14.284Z</time></trkpt><trkpt lat="42.2617183" lon="13.7343067"><ele>631.1428571428571</ele><time>2026-05-03T09:13:15.285Z</time></trkpt><trkpt lat="42.261685" lon="13.7343883"><ele>630.4285714285714</ele><time>2026-05-03T09:13:16.284Z</time></trkpt><trkpt lat="42.26165" lon="13.7344767"><ele>629.7142857142857</ele><time>2026-05-03T09:13:17.284Z</time></trkpt><trkpt lat="42.26161" lon="13.7345717"><ele>629.0</ele><time>2026-05-03T09:13:18.284Z</time></trkpt><trkpt lat="42.2615767" lon="13.7346583"><ele>629.0</ele><time>2026-05-03T09:13:19.285Z</time></trkpt><trkpt lat="42.2615417" lon="13.73473"><ele>629.0</ele><time>2026-05-03T09:13:20.284Z</time></trkpt><trkpt lat="42.261485" lon="13.7348017"><ele>629.0</ele><time>2026-05-03T09:13:21.284Z</time></trkpt><trkpt lat="42.261425" lon="13.7348717"><ele>629.0</ele><time>2026-05-03T09:13:22.284Z</time></trkpt><trkpt lat="42.261375" lon="13.7349467"><ele>629.0</ele><time>2026-05-03T09:13:23.284Z</time></trkpt><trkpt lat="42.261325" lon="13.7350133"><ele>629.0</ele><time>2026-05-03T09:13:24.284Z</time></trkpt><trkpt lat="42.261275" lon="13.7350783"><ele>629.0</ele><time>2026-05-03T09:13:25.284Z</time></trkpt><trkpt lat="42.26123" lon="13.7351533"><ele>624.8333333333333</ele><time>2026-05-03T09:13:26.284Z</time></trkpt><trkpt lat="42.261175" lon="13.73529"><ele>620.6666666666666</ele><time>2026-05-03T09:13:28.284Z</time></trkpt><trkpt lat="42.2611567" lon="13.7353733"><ele>616.5</ele><time>2026-05-03T09:13:29.284Z</time></trkpt><trkpt lat="42.2611317" lon="13.73547"><ele>612.3333333333334</ele><time>2026-05-03T09:13:30.285Z</time></trkpt><trkpt lat="42.261105" lon="13.7355583"><ele>608.1666666666667</ele><time>2026-05-03T09:13:31.284Z</time></trkpt><trkpt lat="42.2610817" lon="13.73564"><ele>604.0</ele><time>2026-05-03T09:13:32.284Z</time></trkpt><trkpt lat="42.2610483" lon="13.73579"><ele>604.0</ele><time>2026-05-03T09:13:34.284Z</time></trkpt><trkpt lat="42.2610333" lon="13.7359283"><ele>604.0</ele><time>2026-05-03T09:13:36.284Z</time></trkpt><trkpt lat="42.26101" lon="13.7360717"><ele>604.0</ele><time>2026-05-03T09:13:38.285Z</time></trkpt><trkpt lat="42.26098" lon="13.73619"><ele>604.0</ele><time>2026-05-03T09:13:40.284Z</time></trkpt><trkpt lat="42.2609567" lon="13.7362833"><ele>604.0</ele><time>2026-05-03T09:13:42.285Z</time></trkpt><trkpt lat="42.2609717" lon="13.7363767"><ele>604.0</ele><time>2026-05-03T09:13:44.283Z</time></trkpt><trkpt lat="42.2610167" lon="13.7364483"><ele>602.4</ele><time>2026-05-03T09:13:46.284Z</time></trkpt><trkpt lat="42.26111" lon="13.7365367"><ele>600.8</ele><time>2026-05-03T09:13:48.283Z</time></trkpt><trkpt lat="42.2612083" lon="13.7366433"><ele>599.2</ele><time>2026-05-03T09:13:50.283Z</time></trkpt><trkpt lat="42.26126" lon="13.7366967"><ele>597.6</ele><time>2026-05-03T09:13:51.283Z</time></trkpt><trkpt lat="42.2613467" lon="13.73678"><ele>596.0</ele><time>2026-05-03T09:13:53.283Z</time></trkpt><trkpt lat="42.2614233" lon="13.736855"><ele>593.5</ele><time>2026-05-03T09:13:55.283Z</time></trkpt><trkpt lat="42.261525" lon="13.7369083"><ele>591.0</ele><time>2026-05-03T09:13:57.283Z</time></trkpt><trkpt lat="42.2615917" lon="13.736935"><ele>588.5</ele><time>2026-05-03T09:13:58.283Z</time></trkpt><trkpt lat="42.26166" lon="13.7369633"><ele>586.0</ele><time>2026-05-03T09:13:59.283Z</time></trkpt><trkpt lat="42.2617383" lon="13.7369783"><ele>583.5</ele><time>2026-05-03T09:14:00.283Z</time></trkpt><trkpt lat="42.2618167" lon="13.7369917"><ele>581.0</ele><time>2026-05-03T09:14:01.283Z</time></trkpt><trkpt lat="42.261895" lon="13.7370167"><ele>581.0</ele><time>2026-05-03T09:14:02.284Z</time></trkpt><trkpt lat="42.2619683" lon="13.7370383"><ele>581.0</ele><time>2026-05-03T09:14:03.283Z</time></trkpt><trkpt lat="42.2620283" lon="13.7370783"><ele>581.0</ele><time>2026-05-03T09:14:04.283Z</time></trkpt><trkpt lat="42.2620833" lon="13.7371217"><ele>581.0</ele><time>2026-05-03T09:14:05.283Z</time></trkpt><trkpt lat="42.2621917" lon="13.7371967"><ele>581.0</ele><time>2026-05-03T09:14:07.283Z</time></trkpt><trkpt lat="42.262305" lon="13.7372833"><ele>582.0</ele><time>2026-05-03T09:14:09.284Z</time></trkpt><trkpt lat="42.2623667" lon="13.7373333"><ele>583.0</ele><time>2026-05-03T09:14:10.283Z</time></trkpt><trkpt lat="42.2624267" lon="13.737385"><ele>584.0</ele><time>2026-05-03T09:14:11.283Z</time></trkpt><trkpt lat="42.2625367" lon="13.7374617"><ele>585.0</ele><time>2026-05-03T09:14:13.283Z</time></trkpt><trkpt lat="42.26265" lon="13.73751"><ele>586.0</ele><time>2026-05-03T09:14:15.283Z</time></trkpt><trkpt lat="42.2627233" lon="13.7375283"><ele>586.0</ele><time>2026-05-03T09:14:16.283Z</time></trkpt><trkpt lat="42.2628017" lon="13.737545"><ele>586.0</ele><time>2026-05-03T09:14:17.283Z</time></trkpt><trkpt lat="42.26288" lon="13.7375617"><ele>586.0</ele><time>2026-05-03T09:14:18.283Z</time></trkpt><trkpt lat="42.2629617" lon="13.7375867"><ele>586.0</ele><time>2026-05-03T09:14:19.283Z</time></trkpt><trkpt lat="42.26304" lon="13.7376117"><ele>586.0</ele><time>2026-05-03T09:14:20.283Z</time></trkpt><trkpt lat="42.2631167" lon="13.7376283"><ele>586.0</ele><time>2026-05-03T09:14:21.283Z</time></trkpt><trkpt lat="42.26319" lon="13.7376483"><ele>586.6</ele><time>2026-05-03T09:14:22.283Z</time></trkpt><trkpt lat="42.26331" lon="13.7376817"><ele>587.2</ele><time>2026-05-03T09:14:24.283Z</time></trkpt><trkpt lat="42.263405" lon="13.7376983"><ele>587.8</ele><time>2026-05-03T09:14:26.283Z</time></trkpt><trkpt lat="42.263485" lon="13.73771"><ele>588.4</ele><time>2026-05-03T09:14:28.283Z</time></trkpt><trkpt lat="42.26357" lon="13.7377233"><ele>589.0</ele><time>2026-05-03T09:14:36.283Z</time></trkpt><trkpt lat="42.2636383" lon="13.73774"><ele>583.2</ele><time>2026-05-03T09:14:38.283Z</time></trkpt><trkpt lat="42.2637567" lon="13.73775"><ele>577.4</ele><time>2026-05-03T09:14:40.283Z</time></trkpt><trkpt lat="42.26382" lon="13.73774"><ele>571.6</ele><time>2026-05-03T09:14:41.283Z</time></trkpt><trkpt lat="42.2639383" lon="13.73772"><ele>565.8</ele><time>2026-05-03T09:14:43.283Z</time></trkpt><trkpt lat="42.26404" lon="13.73772"><ele>560.0</ele><time>2026-05-03T09:14:45.283Z</time></trkpt><trkpt lat="42.2641417" lon="13.7377517"><ele>559.2</ele><time>2026-05-03T09:14:47.284Z</time></trkpt><trkpt lat="42.2642433" lon="13.7378117"><ele>558.4</ele><time>2026-05-03T09:14:49.283Z</time></trkpt><trkpt lat="42.2643333" lon="13.737865"><ele>557.6</ele><time>2026-05-03T09:14:51.283Z</time></trkpt><trkpt lat="42.264445" lon="13.7378967"><ele>556.8</ele><time>2026-05-03T09:14:53.283Z</time></trkpt><trkpt lat="42.2645517" lon="13.737905"><ele>556.0</ele><time>2026-05-03T09:14:55.283Z</time></trkpt><trkpt lat="42.26465" lon="13.7379183"><ele>556.0</ele><time>2026-05-03T09:14:57.283Z</time></trkpt><trkpt lat="42.26474" lon="13.737925"><ele>556.0</ele><time>2026-05-03T09:14:59.283Z</time></trkpt><trkpt lat="42.2648333" lon="13.737955"><ele>556.0</ele><time>2026-05-03T09:15:07.283Z</time></trkpt><trkpt lat="42.2649317" lon="13.7380333"><ele>556.0</ele><time>2026-05-03T09:15:13.283Z</time></trkpt><trkpt lat="42.265005" lon="13.7380717"><ele>556.0</ele><time>2026-05-03T09:15:14.284Z</time></trkpt><trkpt lat="42.2650967" lon="13.738095"><ele>555.0</ele><time>2026-05-03T09:15:15.283Z</time></trkpt><trkpt lat="42.2652117" lon="13.7381017"><ele>554.0</ele><time>2026-05-03T09:15:16.283Z</time></trkpt><trkpt lat="42.2653533" lon="13.7381017"><ele>553.0</ele><time>2026-05-03T09:15:17.283Z</time></trkpt><trkpt lat="42.2655183" lon="13.7381083"><ele>552.0</ele><time>2026-05-03T09:15:18.283Z</time></trkpt><trkpt lat="42.2656833" lon="13.73811"><ele>551.3333333333334</ele><time>2026-05-03T09:15:19.283Z</time></trkpt><trkpt lat="42.2658533" lon="13.7381117"><ele>550.6666666666667</ele><time>2026-05-03T09:15:20.283Z</time></trkpt><trkpt lat="42.266035" lon="13.7381183"><ele>550.0</ele><time>2026-05-03T09:15:21.283Z</time></trkpt><trkpt lat="42.266235" lon="13.73813"><ele>550.0</ele><time>2026-05-03T09:15:22.283Z</time></trkpt><trkpt lat="42.2664183" lon="13.738145"><ele>550.0</ele><time>2026-05-03T09:15:23.283Z</time></trkpt><trkpt lat="42.2665933" lon="13.738155"><ele>550.0</ele><time>2026-05-03T09:15:24.283Z</time></trkpt><trkpt lat="42.2667633" lon="13.7381617"><ele>549.0</ele><time>2026-05-03T09:15:25.283Z</time></trkpt><trkpt lat="42.26692" lon="13.73817"><ele>548.0</ele><time>2026-05-03T09:15:26.283Z</time></trkpt><trkpt lat="42.26707" lon="13.73818"><ele>547.0</ele><time>2026-05-03T09:15:27.284Z</time></trkpt><trkpt lat="42.2672283" lon="13.738185"><ele>545.6666666666667</ele><time>2026-05-03T09:15:28.283Z</time></trkpt><trkpt lat="42.2673783" lon="13.7381983"><ele>544.3333333333334</ele><time>2026-05-03T09:15:29.283Z</time></trkpt><trkpt lat="42.2675283" lon="13.73821"><ele>543.0</ele><time>2026-05-03T09:15:30.283Z</time></trkpt><trkpt lat="42.26769" lon="13.7382133"><ele>543.0</ele><time>2026-05-03T09:15:31.283Z</time></trkpt><trkpt lat="42.267855" lon="13.7382183"><ele>543.0</ele><time>2026-05-03T09:15:32.283Z</time></trkpt><trkpt lat="42.2680033" lon="13.73822"><ele>543.0</ele><time>2026-05-03T09:15:33.283Z</time></trkpt><trkpt lat="42.2681367" lon="13.7382167"><ele>543.0</ele><time>2026-05-03T09:15:34.283Z</time></trkpt><trkpt lat="42.2682583" lon="13.7382183"><ele>542.1666666666666</ele><time>2026-05-03T09:15:35.283Z</time></trkpt><trkpt lat="42.2683633" lon="13.7382183"><ele>541.3333333333334</ele><time>2026-05-03T09:15:36.283Z</time></trkpt><trkpt lat="42.26846" lon="13.7382317"><ele>540.5</ele><time>2026-05-03T09:15:37.283Z</time></trkpt><trkpt lat="42.2685367" lon="13.7382567"><ele>539.6666666666667</ele><time>2026-05-03T09:15:38.283Z</time></trkpt><trkpt lat="42.2686017" lon="13.7382867"><ele>538.8333333333334</ele><time>2026-05-03T09:15:39.284Z</time></trkpt><trkpt lat="42.26867" lon="13.7383167"><ele>538.0</ele><time>2026-05-03T09:15:40.283Z</time></trkpt><trkpt lat="42.2687417" lon="13.7383383"><ele>538.0</ele><time>2026-05-03T09:15:41.283Z</time></trkpt><trkpt lat="42.2688167" lon="13.7383583"><ele>538.0</ele><time>2026-05-03T09:15:42.283Z</time></trkpt><trkpt lat="42.2688983" lon="13.73839"><ele>538.0</ele><time>2026-05-03T09:15:43.283Z</time></trkpt><trkpt lat="42.2689767" lon="13.7384183"><ele>538.0</ele><time>2026-05-03T09:15:44.283Z</time></trkpt><trkpt lat="42.2690533" lon="13.7384467"><ele>538.0</ele><time>2026-05-03T09:15:45.283Z</time></trkpt><trkpt lat="42.269125" lon="13.738485"><ele>538.0</ele><time>2026-05-03T09:15:46.283Z</time></trkpt><trkpt lat="42.26919" lon="13.738535"><ele>535.6</ele><time>2026-05-03T09:15:47.284Z</time></trkpt><trkpt lat="42.26925" lon="13.7385767"><ele>533.1999999999999</ele><time>2026-05-03T09:15:48.283Z</time></trkpt><trkpt lat="42.269355" lon="13.738655"><ele>530.8</ele><time>2026-05-03T09:15:50.283Z</time></trkpt><trkpt lat="42.2694233" lon="13.7387617"><ele>528.4</ele><time>2026-05-03T09:15:52.283Z</time></trkpt><trkpt lat="42.26943" lon="13.7389067"><ele>526.0</ele><time>2026-05-03T09:15:54.283Z</time></trkpt><trkpt lat="42.2693983" lon="13.7390683"><ele>526.0</ele><time>2026-05-03T09:15:56.283Z</time></trkpt><trkpt lat="42.269385" lon="13.7391583"><ele>526.0</ele><time>2026-05-03T09:15:57.283Z</time></trkpt><trkpt lat="42.26937" lon="13.7392483"><ele>526.0</ele><time>2026-05-03T09:15:58.283Z</time></trkpt><trkpt lat="42.2693583" lon="13.7393333"><ele>526.0</ele><time>2026-05-03T09:15:59.283Z</time></trkpt><trkpt lat="42.2693333" lon="13.7394233"><ele>526.0</ele><time>2026-05-03T09:16:00.284Z</time></trkpt><trkpt lat="42.26931" lon="13.7395117"><ele>526.0</ele><time>2026-05-03T09:16:01.283Z</time></trkpt><trkpt lat="42.2692817" lon="13.73961"><ele>526.0</ele><time>2026-05-03T09:16:02.283Z</time></trkpt><trkpt lat="42.2692567" lon="13.7397083"><ele>524.6666666666667</ele><time>2026-05-03T09:16:03.283Z</time></trkpt><trkpt lat="42.2692383" lon="13.739805"><ele>523.3333333333334</ele><time>2026-05-03T09:16:04.283Z</time></trkpt><trkpt lat="42.269225" lon="13.73989"><ele>522.0</ele><time>2026-05-03T09:16:05.283Z</time></trkpt><trkpt lat="42.2692233" lon="13.7399767"><ele>520.6666666666666</ele><time>2026-05-03T09:16:06.283Z</time></trkpt><trkpt lat="42.2692067" lon="13.740125"><ele>519.3333333333333</ele><time>2026-05-03T09:16:08.283Z</time></trkpt><trkpt lat="42.26913" lon="13.7402533"><ele>518.0</ele><time>2026-05-03T09:16:10.283Z</time></trkpt><trkpt lat="42.2690717" lon="13.7403167"><ele>515.1666666666666</ele><time>2026-05-03T09:16:11.284Z</time></trkpt><trkpt lat="42.2690117" lon="13.7403733"><ele>512.3333333333333</ele><time>2026-05-03T09:16:12.283Z</time></trkpt><trkpt lat="42.2689517" lon="13.7404233"><ele>509.5</ele><time>2026-05-03T09:16:13.283Z</time></trkpt><trkpt lat="42.268895" lon="13.7404617"><ele>506.66666666666663</ele><time>2026-05-03T09:16:14.283Z</time></trkpt><trkpt lat="42.2687933" lon="13.7405233"><ele>503.8333333333333</ele><time>2026-05-03T09:16:16.283Z</time></trkpt><trkpt lat="42.2686967" lon="13.7405567"><ele>501.0</ele><time>2026-05-03T09:16:18.283Z</time></trkpt><trkpt lat="42.26863" lon="13.740535"><ele>501.0</ele><time>2026-05-03T09:16:20.283Z</time></trkpt><trkpt lat="42.268585" lon="13.7404567"><ele>501.0</ele><time>2026-05-03T09:16:22.283Z</time></trkpt><trkpt lat="42.2685683" lon="13.7403483"><ele>501.0</ele><time>2026-05-03T09:16:24.284Z</time></trkpt><trkpt lat="42.268555" lon="13.7402"><ele>501.0</ele><time>2026-05-03T09:16:26.283Z</time></trkpt><trkpt lat="42.2685267" lon="13.740075"><ele>501.0</ele><time>2026-05-03T09:16:28.284Z</time></trkpt><trkpt lat="42.26846" lon="13.740025"><ele>501.0</ele><time>2026-05-03T09:16:30.283Z</time></trkpt><trkpt lat="42.2683683" lon="13.74005"><ele>501.0</ele><time>2026-05-03T09:16:32.283Z</time></trkpt><trkpt lat="42.268305" lon="13.7401467"><ele>501.0</ele><time>2026-05-03T09:16:34.283Z</time></trkpt><trkpt lat="42.2682317" lon="13.7402733"><ele>501.0</ele><time>2026-05-03T09:16:36.284Z</time></trkpt><trkpt lat="42.268115" lon="13.740345"><ele>501.0</ele><time>2026-05-03T09:16:38.283Z</time></trkpt><trkpt lat="42.268035" lon="13.7403783"><ele>501.0</ele><time>2026-05-03T09:16:39.283Z</time></trkpt><trkpt lat="42.2679533" lon="13.7403983"><ele>499.4</ele><time>2026-05-03T09:16:40.283Z</time></trkpt><trkpt lat="42.2678867" lon="13.74043"><ele>497.8</ele><time>2026-05-03T09:16:41.283Z</time></trkpt><trkpt lat="42.267775" lon="13.7404567"><ele>496.19999999999993</ele><time>2026-05-03T09:16:43.283Z</time></trkpt><trkpt lat="42.2676483" lon="13.7404383"><ele>494.59999999999997</ele><time>2026-05-03T09:16:45.283Z</time></trkpt><trkpt lat="42.2675267" lon="13.7404033"><ele>493.0</ele><time>2026-05-03T09:16:47.283Z</time></trkpt><trkpt lat="42.2674033" lon="13.7403167"><ele>493.0</ele><time>2026-05-03T09:16:49.283Z</time></trkpt><trkpt lat="42.2673267" lon="13.7402583"><ele>492.99999999999994</ele><time>2026-05-03T09:16:50.283Z</time></trkpt><trkpt lat="42.26726" lon="13.74021"><ele>492.99999999999994</ele><time>2026-05-03T09:16:51.283Z</time></trkpt><trkpt lat="42.26715" lon="13.7401767"><ele>493.0</ele><time>2026-05-03T09:16:53.283Z</time></trkpt><trkpt lat="42.2670483" lon="13.7401783"><ele>493.0</ele><time>2026-05-03T09:16:55.283Z</time></trkpt><trkpt lat="42.266925" lon="13.7401533"><ele>494.33333333333337</ele><time>2026-05-03T09:16:57.283Z</time></trkpt><trkpt lat="42.26684" lon="13.74014"><ele>495.6666666666667</ele><time>2026-05-03T09:16:58.283Z</time></trkpt><trkpt lat="42.26676" lon="13.7401333"><ele>497.0</ele><time>2026-05-03T09:16:59.283Z</time></trkpt><trkpt lat="42.266675" lon="13.7401467"><ele>498.33333333333337</ele><time>2026-05-03T09:17:00.284Z</time></trkpt><trkpt lat="42.266585" lon="13.7401567"><ele>499.6666666666667</ele><time>2026-05-03T09:17:01.283Z</time></trkpt><trkpt lat="42.266505" lon="13.74017"><ele>501.0</ele><time>2026-05-03T09:17:02.283Z</time></trkpt><trkpt lat="42.2664317" lon="13.740185"><ele>501.0</ele><time>2026-05-03T09:17:03.283Z</time></trkpt><trkpt lat="42.2663567" lon="13.7402083"><ele>501.0</ele><time>2026-05-03T09:17:04.283Z</time></trkpt><trkpt lat="42.2662433" lon="13.7402817"><ele>501.0</ele><time>2026-05-03T09:17:06.283Z</time></trkpt><trkpt lat="42.2661917" lon="13.7403417"><ele>501.0</ele><time>2026-05-03T09:17:07.283Z</time></trkpt><trkpt lat="42.26614" lon="13.7404"><ele>501.0</ele><time>2026-05-03T09:17:08.283Z</time></trkpt><trkpt lat="42.2660833" lon="13.7404583"><ele>501.0</ele><time>2026-05-03T09:17:09.283Z</time></trkpt><trkpt lat="42.2660267" lon="13.7405267"><ele>499.0</ele><time>2026-05-03T09:17:10.283Z</time></trkpt><trkpt lat="42.26597" lon="13.7405883"><ele>497.0</ele><time>2026-05-03T09:17:11.283Z</time></trkpt><trkpt lat="42.2659167" lon="13.7406517"><ele>495.0</ele><time>2026-05-03T09:17:12.283Z</time></trkpt><trkpt lat="42.2658633" lon="13.7407167"><ele>493.0</ele><time>2026-05-03T09:17:13.283Z</time></trkpt><trkpt lat="42.2658067" lon="13.7407817"><ele>491.0</ele><time>2026-05-03T09:17:14.283Z</time></trkpt><trkpt lat="42.2657517" lon="13.7408383"><ele>489.0</ele><time>2026-05-03T09:17:15.283Z</time></trkpt><trkpt lat="42.2656883" lon="13.7408817"><ele>487.0</ele><time>2026-05-03T09:17:16.283Z</time></trkpt><trkpt lat="42.265625" lon="13.74091"><ele>487.0</ele><time>2026-05-03T09:17:17.283Z</time></trkpt><trkpt lat="42.2655583" lon="13.7409283"><ele>487.0</ele><time>2026-05-03T09:17:18.283Z</time></trkpt><trkpt lat="42.2654917" lon="13.7409417"><ele>487.0</ele><time>2026-05-03T09:17:19.283Z</time></trkpt><trkpt lat="42.2654267" lon="13.74096"><ele>487.0</ele><time>2026-05-03T09:17:20.283Z</time></trkpt><trkpt lat="42.26536" lon="13.7409683"><ele>487.0</ele><time>2026-05-03T09:17:21.283Z</time></trkpt><trkpt lat="42.265275" lon="13.740975"><ele>487.0</ele><time>2026-05-03T09:17:22.283Z</time></trkpt><trkpt lat="42.2651883" lon="13.740975"><ele>487.0</ele><time>2026-05-03T09:17:23.283Z</time></trkpt><trkpt lat="42.2651033" lon="13.7409533"><ele>487.00000000000006</ele><time>2026-05-03T09:17:24.283Z</time></trkpt><trkpt lat="42.2650217" lon="13.740935"><ele>487.0</ele><time>2026-05-03T09:17:25.283Z</time></trkpt><trkpt lat="42.2649383" lon="13.740935"><ele>487.0</ele><time>2026-05-03T09:17:26.283Z</time></trkpt><trkpt lat="42.26486" lon="13.740945"><ele>487.0</ele><time>2026-05-03T09:17:27.283Z</time></trkpt><trkpt lat="42.2647783" lon="13.7409567"><ele>487.00000000000006</ele><time>2026-05-03T09:17:28.283Z</time></trkpt><trkpt lat="42.2647" lon="13.7409967"><ele>487.0</ele><time>2026-05-03T09:17:29.283Z</time></trkpt><trkpt lat="42.264615" lon="13.7410467"><ele>484.83333333333337</ele><time>2026-05-03T09:17:30.283Z</time></trkpt><trkpt lat="42.26454" lon="13.741085"><ele>482.6666666666667</ele><time>2026-05-03T09:17:31.283Z</time></trkpt><trkpt lat="42.2644567" lon="13.7411283"><ele>480.5</ele><time>2026-05-03T09:17:32.283Z</time></trkpt><trkpt lat="42.2643733" lon="13.7411583"><ele>478.33333333333337</ele><time>2026-05-03T09:17:33.284Z</time></trkpt><trkpt lat="42.2642917" lon="13.741185"><ele>476.1666666666667</ele><time>2026-05-03T09:17:34.283Z</time></trkpt><trkpt lat="42.2642167" lon="13.7412017"><ele>474.0</ele><time>2026-05-03T09:17:35.283Z</time></trkpt><trkpt lat="42.264145" lon="13.741215"><ele>474.0</ele><time>2026-05-03T09:17:36.283Z</time></trkpt><trkpt lat="42.2640583" lon="13.74122"><ele>474.0</ele><time>2026-05-03T09:17:37.283Z</time></trkpt><trkpt lat="42.263965" lon="13.7412217"><ele>474.0</ele><time>2026-05-03T09:17:38.283Z</time></trkpt><trkpt lat="42.26387" lon="13.7412167"><ele>474.0</ele><time>2026-05-03T09:17:39.283Z</time></trkpt><trkpt lat="42.263785" lon="13.7412117"><ele>474.0</ele><time>2026-05-03T09:17:40.283Z</time></trkpt><trkpt lat="42.263715" lon="13.7412067"><ele>474.0</ele><time>2026-05-03T09:17:41.283Z</time></trkpt><trkpt lat="42.2636517" lon="13.7412067"><ele>474.0</ele><time>2026-05-03T09:17:42.283Z</time></trkpt><trkpt lat="42.2635633" lon="13.74123"><ele>474.0</ele><time>2026-05-03T09:17:44.284Z</time></trkpt><trkpt lat="42.263495" lon="13.7413417"><ele>474.0</ele><time>2026-05-03T09:17:46.283Z</time></trkpt><trkpt lat="42.263415" lon="13.741435"><ele>474.0</ele><time>2026-05-03T09:17:48.283Z</time></trkpt><trkpt lat="42.26338" lon="13.7415417"><ele>474.0</ele><time>2026-05-03T09:17:50.284Z</time></trkpt><trkpt lat="42.2633317" lon="13.74164"><ele>474.0</ele><time>2026-05-03T09:17:52.283Z</time></trkpt><trkpt lat="42.263235" lon="13.7417017"><ele>474.0</ele><time>2026-05-03T09:17:54.284Z</time></trkpt><trkpt lat="42.263165" lon="13.7417867"><ele>474.0</ele><time>2026-05-03T09:17:56.283Z</time></trkpt><trkpt lat="42.263182" lon="13.7419897"><ele>474.0</ele><time>2026-05-03T09:17:59.283Z</time></trkpt><trkpt lat="42.2631436" lon="13.7421125"><ele>472.0</ele><time>2026-05-03T09:18:01.284Z</time></trkpt><trkpt lat="42.2630541" lon="13.742179"><ele>470.0</ele><time>2026-05-03T09:18:03.283Z</time></trkpt><trkpt lat="42.2630293" lon="13.742327"><ele>468.0</ele><time>2026-05-03T09:18:05.284Z</time></trkpt><trkpt lat="42.2630433" lon="13.7424494"><ele>466.0</ele><time>2026-05-03T09:18:06.283Z</time></trkpt><trkpt lat="42.2630504" lon="13.7425691"><ele>464.0</ele><time>2026-05-03T09:18:07.283Z</time></trkpt><trkpt lat="42.2630395" lon="13.7426548"><ele>462.6</ele><time>2026-05-03T09:18:08.283Z</time></trkpt><trkpt lat="42.2629661" lon="13.7427457"><ele>461.2</ele><time>2026-05-03T09:18:10.283Z</time></trkpt><trkpt lat="42.262897" lon="13.7427669"><ele>459.80000000000007</ele><time>2026-05-03T09:18:11.283Z</time></trkpt><trkpt lat="42.262811" lon="13.7428071"><ele>458.40000000000003</ele><time>2026-05-03T09:18:12.283Z</time></trkpt><trkpt lat="42.2627161" lon="13.7428652"><ele>457.0</ele><time>2026-05-03T09:18:13.283Z</time></trkpt><trkpt lat="42.262631" lon="13.7429318"><ele>457.00000000000006</ele><time>2026-05-03T09:18:14.283Z</time></trkpt><trkpt lat="42.2625574" lon="13.7429909"><ele>457.0</ele><time>2026-05-03T09:18:15.283Z</time></trkpt><trkpt lat="42.2624931" lon="13.7430288"><ele>457.0</ele><time>2026-05-03T09:18:16.283Z</time></trkpt><trkpt lat="42.2624296" lon="13.7430484"><ele>457.0</ele><time>2026-05-03T09:18:17.284Z</time></trkpt><trkpt lat="42.2623173" lon="13.7431329"><ele>457.00000000000006</ele><time>2026-05-03T09:18:19.284Z</time></trkpt><trkpt lat="42.2622617" lon="13.7432175"><ele>457.0</ele><time>2026-05-03T09:18:20.283Z</time></trkpt><trkpt lat="42.2622157" lon="13.7433222"><ele>457.00000000000006</ele><time>2026-05-03T09:18:21.283Z</time></trkpt><trkpt lat="42.2621879" lon="13.7434287"><ele>457.0</ele><time>2026-05-03T09:18:22.284Z</time></trkpt><trkpt lat="42.2621617" lon="13.743508"><ele>457.0</ele><time>2026-05-03T09:18:23.283Z</time></trkpt><trkpt lat="42.2621171" lon="13.7435999"><ele>457.0</ele><time>2026-05-03T09:18:25.283Z</time></trkpt><trkpt lat="42.2621538" lon="13.7437426"><ele>457.00000000000006</ele><time>2026-05-03T09:18:28.283Z</time></trkpt><trkpt lat="42.2621971" lon="13.7438249"><ele>457.0</ele><time>2026-05-03T09:18:29.283Z</time></trkpt><trkpt lat="42.2622491" lon="13.7438961"><ele>456.20000000000005</ele><time>2026-05-03T09:18:30.283Z</time></trkpt><trkpt lat="42.2623026" lon="13.7439414"><ele>455.40000000000003</ele><time>2026-05-03T09:18:31.283Z</time></trkpt><trkpt lat="42.2623655" lon="13.7439563"><ele>454.59999999999997</ele><time>2026-05-03T09:18:32.283Z</time></trkpt><trkpt lat="42.2624553" lon="13.7439613"><ele>453.79999999999995</ele><time>2026-05-03T09:18:33.283Z</time></trkpt><trkpt lat="42.2625845" lon="13.7439463"><ele>453.0</ele><time>2026-05-03T09:18:34.283Z</time></trkpt><trkpt lat="42.2627562" lon="13.7439274"><ele>453.0</ele><time>2026-05-03T09:18:35.284Z</time></trkpt><trkpt lat="42.2629561" lon="13.7439067"><ele>453.0</ele><time>2026-05-03T09:18:36.283Z</time></trkpt><trkpt lat="42.2631534" lon="13.7438876"><ele>453.0</ele><time>2026-05-03T09:18:37.283Z</time></trkpt><trkpt lat="42.2633323" lon="13.743873"><ele>452.0</ele><time>2026-05-03T09:18:38.284Z</time></trkpt><trkpt lat="42.263496" lon="13.7438798"><ele>451.0</ele><time>2026-05-03T09:18:39.283Z</time></trkpt><trkpt lat="42.2636667" lon="13.743909"><ele>450.0</ele><time>2026-05-03T09:18:40.283Z</time></trkpt><trkpt lat="42.2638432" lon="13.7439482"><ele>449.33333333333337</ele><time>2026-05-03T09:18:41.283Z</time></trkpt><trkpt lat="42.2640243" lon="13.7439882"><ele>448.6666666666667</ele><time>2026-05-03T09:18:42.283Z</time></trkpt><trkpt lat="42.2641816" lon="13.7440225"><ele>448.0</ele><time>2026-05-03T09:18:43.283Z</time></trkpt><trkpt lat="42.2643182" lon="13.7440476"><ele>448.0</ele><time>2026-05-03T09:18:44.283Z</time></trkpt><trkpt lat="42.2644359" lon="13.7440659"><ele>448.0</ele><time>2026-05-03T09:18:45.283Z</time></trkpt><trkpt lat="42.2645506" lon="13.7440663"><ele>448.0</ele><time>2026-05-03T09:18:46.283Z</time></trkpt><trkpt lat="42.2646704" lon="13.7440381"><ele>448.0</ele><time>2026-05-03T09:18:47.284Z</time></trkpt><trkpt lat="42.2647932" lon="13.7439778"><ele>448.0</ele><time>2026-05-03T09:18:48.283Z</time></trkpt><trkpt lat="42.2649163" lon="13.7438814"><ele>448.0</ele><time>2026-05-03T09:18:49.283Z</time></trkpt><trkpt lat="42.2650397" lon="13.7437698"><ele>448.0</ele><time>2026-05-03T09:18:50.283Z</time></trkpt><trkpt lat="42.2651595" lon="13.7436733"><ele>448.0</ele><time>2026-05-03T09:18:51.283Z</time></trkpt><trkpt lat="42.2652837" lon="13.7435952"><ele>448.0</ele><time>2026-05-03T09:18:52.283Z</time></trkpt><trkpt lat="42.2654064" lon="13.7435284"><ele>448.0</ele><time>2026-05-03T09:18:53.283Z</time></trkpt><trkpt lat="42.2655269" lon="13.7434937"><ele>448.0</ele><time>2026-05-03T09:18:54.283Z</time></trkpt><trkpt lat="42.2656474" lon="13.7434849"><ele>448.0</ele><time>2026-05-03T09:18:55.283Z</time></trkpt><trkpt lat="42.2657681" lon="13.7434803"><ele>448.0</ele><time>2026-05-03T09:18:56.283Z</time></trkpt><trkpt lat="42.2658995" lon="13.743477"><ele>448.0</ele><time>2026-05-03T09:18:57.284Z</time></trkpt><trkpt lat="42.266042" lon="13.7434652"><ele>448.0</ele><time>2026-05-03T09:18:58.283Z</time></trkpt><trkpt lat="42.2661765" lon="13.7434751"><ele>448.0</ele><time>2026-05-03T09:18:59.283Z</time></trkpt><trkpt lat="42.2663183" lon="13.7435017"><ele>447.5</ele><time>2026-05-03T09:19:00.283Z</time></trkpt><trkpt lat="42.266455" lon="13.7435317"><ele>447.0</ele><time>2026-05-03T09:19:01.283Z</time></trkpt><trkpt lat="42.266575" lon="13.7435433"><ele>446.5</ele><time>2026-05-03T09:19:02.283Z</time></trkpt><trkpt lat="42.2666883" lon="13.7435433"><ele>446.0</ele><time>2026-05-03T09:19:03.283Z</time></trkpt><trkpt lat="42.2667967" lon="13.74353"><ele>446.0</ele><time>2026-05-03T09:19:04.283Z</time></trkpt><trkpt lat="42.2668967" lon="13.7435133"><ele>446.0</ele><time>2026-05-03T09:19:05.283Z</time></trkpt><trkpt lat="42.266995" lon="13.7434783"><ele>446.0</ele><time>2026-05-03T09:19:06.283Z</time></trkpt><trkpt lat="42.2670933" lon="13.743425"><ele>446.0</ele><time>2026-05-03T09:19:07.283Z</time></trkpt><trkpt lat="42.2672" lon="13.7433767"><ele>446.0</ele><time>2026-05-03T09:19:08.283Z</time></trkpt><trkpt lat="42.2673" lon="13.7433433"><ele>444.8333333333333</ele><time>2026-05-03T09:19:09.284Z</time></trkpt><trkpt lat="42.2673967" lon="13.743325"><ele>443.66666666666663</ele><time>2026-05-03T09:19:10.283Z</time></trkpt><trkpt lat="42.2674833" lon="13.74332"><ele>442.5</ele><time>2026-05-03T09:19:11.283Z</time></trkpt><trkpt lat="42.2675633" lon="13.743305"><ele>441.33333333333337</ele><time>2026-05-03T09:19:12.283Z</time></trkpt><trkpt lat="42.2676383" lon="13.7433117"><ele>440.1666666666667</ele><time>2026-05-03T09:19:13.283Z</time></trkpt><trkpt lat="42.2677233" lon="13.7433317"><ele>439.0</ele><time>2026-05-03T09:19:14.283Z</time></trkpt><trkpt lat="42.267825" lon="13.74337"><ele>439.0</ele><time>2026-05-03T09:19:15.283Z</time></trkpt><trkpt lat="42.26794" lon="13.7434267"><ele>439.0</ele><time>2026-05-03T09:19:16.284Z</time></trkpt><trkpt lat="42.268045" lon="13.7434967"><ele>439.0</ele><time>2026-05-03T09:19:17.283Z</time></trkpt><trkpt lat="42.26815" lon="13.743575"><ele>439.0</ele><time>2026-05-03T09:19:18.283Z</time></trkpt><trkpt lat="42.2682417" lon="13.7436333"><ele>439.7142857142857</ele><time>2026-05-03T09:19:19.283Z</time></trkpt><trkpt lat="42.2683183" lon="13.7436783"><ele>440.42857142857144</ele><time>2026-05-03T09:19:20.283Z</time></trkpt><trkpt lat="42.2683967" lon="13.7436983"><ele>441.1428571428571</ele><time>2026-05-03T09:19:21.283Z</time></trkpt><trkpt lat="42.2684717" lon="13.7437033"><ele>441.8571428571429</ele><time>2026-05-03T09:19:22.283Z</time></trkpt><trkpt lat="42.26854" lon="13.7437133"><ele>442.5714285714286</ele><time>2026-05-03T09:19:23.283Z</time></trkpt><trkpt lat="42.268605" lon="13.7437317"><ele>443.2857142857143</ele><time>2026-05-03T09:19:24.283Z</time></trkpt><trkpt lat="42.2686767" lon="13.7437367"><ele>444.0</ele><time>2026-05-03T09:19:25.283Z</time></trkpt><trkpt lat="42.268745" lon="13.7437333"><ele>444.0</ele><time>2026-05-03T09:19:26.283Z</time></trkpt><trkpt lat="42.2688117" lon="13.7437033"><ele>444.0</ele><time>2026-05-03T09:19:27.283Z</time></trkpt><trkpt lat="42.2688783" lon="13.7436533"><ele>444.0</ele><time>2026-05-03T09:19:28.283Z</time></trkpt><trkpt lat="42.2689317" lon="13.7436017"><ele>444.0</ele><time>2026-05-03T09:19:29.283Z</time></trkpt><trkpt lat="42.2689833" lon="13.74355"><ele>444.0</ele><time>2026-05-03T09:19:30.283Z</time></trkpt><trkpt lat="42.2690433" lon="13.7434483"><ele>444.0</ele><time>2026-05-03T09:19:32.283Z</time></trkpt><trkpt lat="42.26906" lon="13.7433367"><ele>442.5</ele><time>2026-05-03T09:19:34.283Z</time></trkpt><trkpt lat="42.2691283" lon="13.7432283"><ele>441.0</ele><time>2026-05-03T09:19:36.283Z</time></trkpt><trkpt lat="42.2691933" lon="13.7431983"><ele>439.5</ele><time>2026-05-03T09:19:37.283Z</time></trkpt><trkpt lat="42.2692767" lon="13.7431783"><ele>438.0</ele><time>2026-05-03T09:19:38.283Z</time></trkpt><trkpt lat="42.269365" lon="13.7431683"><ele>436.5</ele><time>2026-05-03T09:19:39.283Z</time></trkpt><trkpt lat="42.2694533" lon="13.7431733"><ele>435.0</ele><time>2026-05-03T09:19:40.283Z</time></trkpt><trkpt lat="42.2695417" lon="13.74319"><ele>435.0</ele><time>2026-05-03T09:19:41.284Z</time></trkpt><trkpt lat="42.269635" lon="13.743225"><ele>435.0</ele><time>2026-05-03T09:19:42.283Z</time></trkpt><trkpt lat="42.2697317" lon="13.7432767"><ele>435.0</ele><time>2026-05-03T09:19:43.284Z</time></trkpt><trkpt lat="42.2698217" lon="13.7433317"><ele>435.0</ele><time>2026-05-03T09:19:44.283Z</time></trkpt><trkpt lat="42.2699083" lon="13.7433917"><ele>435.0</ele><time>2026-05-03T09:19:45.283Z</time></trkpt><trkpt lat="42.2699867" lon="13.74346"><ele>434.8</ele><time>2026-05-03T09:19:46.283Z</time></trkpt><trkpt lat="42.270065" lon="13.7435383"><ele>434.6</ele><time>2026-05-03T09:19:47.284Z</time></trkpt><trkpt lat="42.27014" lon="13.7436"><ele>434.4</ele><time>2026-05-03T09:19:48.283Z</time></trkpt><trkpt lat="42.27023" lon="13.7436583"><ele>434.2</ele><time>2026-05-03T09:19:49.283Z</time></trkpt><trkpt lat="42.2703233" lon="13.743725"><ele>434.0</ele><time>2026-05-03T09:19:50.283Z</time></trkpt><trkpt lat="42.27041" lon="13.7437817"><ele>432.99999999999994</ele><time>2026-05-03T09:19:51.283Z</time></trkpt><trkpt lat="42.27049" lon="13.7438283"><ele>432.0</ele><time>2026-05-03T09:19:52.283Z</time></trkpt><trkpt lat="42.2705783" lon="13.743865"><ele>431.0</ele><time>2026-05-03T09:19:53.284Z</time></trkpt><trkpt lat="42.2706667" lon="13.743895"><ele>430.0</ele><time>2026-05-03T09:19:54.283Z</time></trkpt><trkpt lat="42.2707483" lon="13.7439267"><ele>428.99999999999994</ele><time>2026-05-03T09:19:55.283Z</time></trkpt><trkpt lat="42.2708233" lon="13.743965"><ele>428.0</ele><time>2026-05-03T09:19:56.284Z</time></trkpt><trkpt lat="42.2708767" lon="13.7440217"><ele>427.79999999999995</ele><time>2026-05-03T09:19:57.283Z</time></trkpt><trkpt lat="42.27094" lon="13.7441417"><ele>427.59999999999997</ele><time>2026-05-03T09:19:59.283Z</time></trkpt><trkpt lat="42.270965" lon="13.7443067"><ele>427.40000000000003</ele><time>2026-05-03T09:20:01.283Z</time></trkpt><trkpt lat="42.2709933" lon="13.7444067"><ele>427.20000000000005</ele><time>2026-05-03T09:20:02.283Z</time></trkpt><trkpt lat="42.2710283" lon="13.744525"><ele>427.0</ele><time>2026-05-03T09:20:03.283Z</time></trkpt><trkpt lat="42.2710817" lon="13.7446433"><ele>426.40000000000003</ele><time>2026-05-03T09:20:04.284Z</time></trkpt><trkpt lat="42.2711317" lon="13.7447667"><ele>425.80000000000007</ele><time>2026-05-03T09:20:05.283Z</time></trkpt><trkpt lat="42.271185" lon="13.7448967"><ele>425.2</ele><time>2026-05-03T09:20:06.283Z</time></trkpt><trkpt lat="42.2712433" lon="13.745025"><ele>424.6</ele><time>2026-05-03T09:20:07.283Z</time></trkpt><trkpt lat="42.271305" lon="13.7451467"><ele>424.0</ele><time>2026-05-03T09:20:08.283Z</time></trkpt><trkpt lat="42.2713633" lon="13.7452517"><ele>423.00000000000006</ele><time>2026-05-03T09:20:09.284Z</time></trkpt><trkpt lat="42.2713967" lon="13.7453567"><ele>422.0</ele><time>2026-05-03T09:20:10.283Z</time></trkpt><trkpt lat="42.2714283" lon="13.7454633"><ele>421.0</ele><time>2026-05-03T09:20:11.283Z</time></trkpt><trkpt lat="42.2714433" lon="13.745575"><ele>420.0</ele><time>2026-05-03T09:20:12.283Z</time></trkpt><trkpt lat="42.271455" lon="13.7456933"><ele>419.00000000000006</ele><time>2026-05-03T09:20:13.283Z</time></trkpt><trkpt lat="42.2714683" lon="13.7458167"><ele>418.0</ele><time>2026-05-03T09:20:14.283Z</time></trkpt><trkpt lat="42.2714883" lon="13.7459617"><ele>419.0</ele><time>2026-05-03T09:20:15.283Z</time></trkpt><trkpt lat="42.271515" lon="13.7461033"><ele>420.0</ele><time>2026-05-03T09:20:16.284Z</time></trkpt><trkpt lat="42.2715417" lon="13.7462433"><ele>421.0</ele><time>2026-05-03T09:20:17.283Z</time></trkpt><trkpt lat="42.2715833" lon="13.7463717"><ele>422.0</ele><time>2026-05-03T09:20:18.283Z</time></trkpt><trkpt lat="42.271635" lon="13.7465033"><ele>423.0</ele><time>2026-05-03T09:20:19.283Z</time></trkpt><trkpt lat="42.271695" lon="13.74664"><ele>423.0</ele><time>2026-05-03T09:20:20.283Z</time></trkpt><trkpt lat="42.2717633" lon="13.7467767"><ele>423.0</ele><time>2026-05-03T09:20:21.283Z</time></trkpt><trkpt lat="42.27183" lon="13.7468817"><ele>423.0</ele><time>2026-05-03T09:20:22.283Z</time></trkpt><trkpt lat="42.2718917" lon="13.7469867"><ele>423.0</ele><time>2026-05-03T09:20:23.284Z</time></trkpt><trkpt lat="42.271955" lon="13.7471017"><ele>423.0</ele><time>2026-05-03T09:20:24.283Z</time></trkpt><trkpt lat="42.2720183" lon="13.7472183"><ele>423.59999999999997</ele><time>2026-05-03T09:20:25.283Z</time></trkpt><trkpt lat="42.27208" lon="13.74734"><ele>424.2</ele><time>2026-05-03T09:20:26.283Z</time></trkpt><trkpt lat="42.2721367" lon="13.747455"><ele>424.8</ele><time>2026-05-03T09:20:27.284Z</time></trkpt><trkpt lat="42.27219" lon="13.7475633"><ele>425.4</ele><time>2026-05-03T09:20:28.283Z</time></trkpt><trkpt lat="42.2722467" lon="13.7476567"><ele>426.0</ele><time>2026-05-03T09:20:29.283Z</time></trkpt><trkpt lat="42.2723017" lon="13.7477317"><ele>426.0</ele><time>2026-05-03T09:20:30.284Z</time></trkpt><trkpt lat="42.2723567" lon="13.74779"><ele>426.0</ele><time>2026-05-03T09:20:31.283Z</time></trkpt><trkpt lat="42.272415" lon="13.74785"><ele>426.0</ele><time>2026-05-03T09:20:32.283Z</time></trkpt><trkpt lat="42.2724883" lon="13.7479083"><ele>426.0</ele><time>2026-05-03T09:20:33.283Z</time></trkpt><trkpt lat="42.2725783" lon="13.7479783"><ele>426.0</ele><time>2026-05-03T09:20:34.283Z</time></trkpt><trkpt lat="42.2726833" lon="13.7480683"><ele>426.0</ele><time>2026-05-03T09:20:35.283Z</time></trkpt><trkpt lat="42.2727767" lon="13.7481717"><ele>426.0</ele><time>2026-05-03T09:20:36.283Z</time></trkpt><trkpt lat="42.2728667" lon="13.7482833"><ele>426.0</ele><time>2026-05-03T09:20:37.283Z</time></trkpt><trkpt lat="42.2729517" lon="13.7484033"><ele>426.0</ele><time>2026-05-03T09:20:38.283Z</time></trkpt><trkpt lat="42.2730283" lon="13.7485267"><ele>424.25</ele><time>2026-05-03T09:20:39.283Z</time></trkpt><trkpt lat="42.2731183" lon="13.7486567"><ele>422.5</ele><time>2026-05-03T09:20:40.283Z</time></trkpt><trkpt lat="42.2732083" lon="13.74878"><ele>420.75</ele><time>2026-05-03T09:20:41.283Z</time></trkpt><trkpt lat="42.2732917" lon="13.7488967"><ele>419.0</ele><time>2026-05-03T09:20:42.283Z</time></trkpt><trkpt lat="42.27339" lon="13.749"><ele>419.0</ele><time>2026-05-03T09:20:43.283Z</time></trkpt><trkpt lat="42.2734833" lon="13.7490967"><ele>419.0</ele><time>2026-05-03T09:20:44.283Z</time></trkpt><trkpt lat="42.2735783" lon="13.7491883"><ele>419.0</ele><time>2026-05-03T09:20:45.283Z</time></trkpt><trkpt lat="42.2736783" lon="13.749255"><ele>419.0</ele><time>2026-05-03T09:20:46.283Z</time></trkpt><trkpt lat="42.2737733" lon="13.749315"><ele>418.99999999999994</ele><time>2026-05-03T09:20:47.283Z</time></trkpt><trkpt lat="42.2738533" lon="13.74937"><ele>419.0</ele><time>2026-05-03T09:20:48.283Z</time></trkpt><trkpt lat="42.27391" lon="13.749425"><ele>419.0</ele><time>2026-05-03T09:20:49.284Z</time></trkpt><trkpt lat="42.273975" lon="13.749565"><ele>419.0</ele><time>2026-05-03T09:20:51.283Z</time></trkpt><trkpt lat="42.2739717" lon="13.7496517"><ele>418.99999999999994</ele><time>2026-05-03T09:20:52.283Z</time></trkpt><trkpt lat="42.273955" lon="13.7497433"><ele>419.0</ele><time>2026-05-03T09:20:53.283Z</time></trkpt><trkpt lat="42.2738933" lon="13.7498383"><ele>419.0</ele><time>2026-05-03T09:20:54.283Z</time></trkpt><trkpt lat="42.2738633" lon="13.7499383"><ele>419.0</ele><time>2026-05-03T09:20:55.283Z</time></trkpt><trkpt lat="42.27382" lon="13.7500583"><ele>419.0</ele><time>2026-05-03T09:20:56.283Z</time></trkpt><trkpt lat="42.2737683" lon="13.75019"><ele>419.0</ele><time>2026-05-03T09:20:57.283Z</time></trkpt><trkpt lat="42.2737183" lon="13.750315"><ele>419.0</ele><time>2026-05-03T09:20:58.283Z</time></trkpt><trkpt lat="42.2736767" lon="13.7504167"><ele>418.99999999999994</ele><time>2026-05-03T09:20:59.283Z</time></trkpt><trkpt lat="42.2736467" lon="13.7504967"><ele>419.0</ele><time>2026-05-03T09:21:00.283Z</time></trkpt><trkpt lat="42.273635" lon="13.7506533"><ele>419.0</ele><time>2026-05-03T09:21:02.283Z</time></trkpt><trkpt lat="42.2736517" lon="13.7507467"><ele>419.0</ele><time>2026-05-03T09:21:03.283Z</time></trkpt><trkpt lat="42.273685" lon="13.750855"><ele>418.99999999999994</ele><time>2026-05-03T09:21:04.283Z</time></trkpt><trkpt lat="42.2737317" lon="13.750965"><ele>419.0</ele><time>2026-05-03T09:21:05.284Z</time></trkpt><trkpt lat="42.2737833" lon="13.75106"><ele>418.66666666666663</ele><time>2026-05-03T09:21:06.283Z</time></trkpt><trkpt lat="42.27384" lon="13.7511317"><ele>418.3333333333333</ele><time>2026-05-03T09:21:07.283Z</time></trkpt><trkpt lat="42.2739067" lon="13.7511767"><ele>418.0</ele><time>2026-05-03T09:21:08.283Z</time></trkpt><trkpt lat="42.2739717" lon="13.75119"><ele>417.66666666666663</ele><time>2026-05-03T09:21:09.283Z</time></trkpt><trkpt lat="42.2740567" lon="13.7511867"><ele>417.3333333333333</ele><time>2026-05-03T09:21:10.283Z</time></trkpt><trkpt lat="42.2741633" lon="13.7511467"><ele>417.0</ele><time>2026-05-03T09:21:11.284Z</time></trkpt><trkpt lat="42.274285" lon="13.7510933"><ele>416.75</ele><time>2026-05-03T09:21:12.283Z</time></trkpt><trkpt lat="42.2744133" lon="13.751025"><ele>416.5</ele><time>2026-05-03T09:21:13.283Z</time></trkpt><trkpt lat="42.27453" lon="13.7509783"><ele>416.25</ele><time>2026-05-03T09:21:14.283Z</time></trkpt><trkpt lat="42.2746417" lon="13.7509467"><ele>416.0</ele><time>2026-05-03T09:21:15.283Z</time></trkpt><trkpt lat="42.2747517" lon="13.7509267"><ele>415.0</ele><time>2026-05-03T09:21:16.283Z</time></trkpt><trkpt lat="42.274875" lon="13.7509167"><ele>414.0</ele><time>2026-05-03T09:21:17.283Z</time></trkpt><trkpt lat="42.2749983" lon="13.7509133"><ele>413.0</ele><time>2026-05-03T09:21:18.283Z</time></trkpt><trkpt lat="42.2751233" lon="13.7509117"><ele>412.0</ele><time>2026-05-03T09:21:19.283Z</time></trkpt><trkpt lat="42.275245" lon="13.75092"><ele>412.0</ele><time>2026-05-03T09:21:20.283Z</time></trkpt><trkpt lat="42.2753617" lon="13.7509283"><ele>412.0</ele><time>2026-05-03T09:21:21.284Z</time></trkpt><trkpt lat="42.275475" lon="13.7509333"><ele>412.0</ele><time>2026-05-03T09:21:22.283Z</time></trkpt><trkpt lat="42.275585" lon="13.750945"><ele>412.0</ele><time>2026-05-03T09:21:23.284Z</time></trkpt><trkpt lat="42.2756933" lon="13.7509583"><ele>412.0</ele><time>2026-05-03T09:21:24.283Z</time></trkpt><trkpt lat="42.275795" lon="13.7509683"><ele>411.40000000000003</ele><time>2026-05-03T09:21:25.283Z</time></trkpt><trkpt lat="42.2758933" lon="13.7509783"><ele>410.8</ele><time>2026-05-03T09:21:26.283Z</time></trkpt><trkpt lat="42.2759817" lon="13.7509933"><ele>410.2</ele><time>2026-05-03T09:21:27.283Z</time></trkpt><trkpt lat="42.2760733" lon="13.7510317"><ele>409.6</ele><time>2026-05-03T09:21:28.284Z</time></trkpt><trkpt lat="42.2761483" lon="13.7510933"><ele>409.0</ele><time>2026-05-03T09:21:29.284Z</time></trkpt><trkpt lat="42.2762217" lon="13.75118"><ele>408.2</ele><time>2026-05-03T09:21:30.283Z</time></trkpt><trkpt lat="42.276295" lon="13.7512783"><ele>407.4</ele><time>2026-05-03T09:21:31.284Z</time></trkpt><trkpt lat="42.2763617" lon="13.7513817"><ele>406.6</ele><time>2026-05-03T09:21:32.283Z</time></trkpt><trkpt lat="42.2764383" lon="13.7514717"><ele>405.8</ele><time>2026-05-03T09:21:33.283Z</time></trkpt><trkpt lat="42.2765267" lon="13.7515383"><ele>405.0</ele><time>2026-05-03T09:21:34.283Z</time></trkpt><trkpt lat="42.2766267" lon="13.7515867"><ele>404.4</ele><time>2026-05-03T09:21:35.283Z</time></trkpt><trkpt lat="42.276735" lon="13.7516317"><ele>403.8</ele><time>2026-05-03T09:21:36.284Z</time></trkpt><trkpt lat="42.27685" lon="13.75167"><ele>403.20000000000005</ele><time>2026-05-03T09:21:37.283Z</time></trkpt><trkpt lat="42.2769617" lon="13.7517033"><ele>402.6</ele><time>2026-05-03T09:21:38.283Z</time></trkpt><trkpt lat="42.2770583" lon="13.751735"><ele>402.0</ele><time>2026-05-03T09:21:39.283Z</time></trkpt><trkpt lat="42.2771517" lon="13.75176"><ele>402.0</ele><time>2026-05-03T09:21:40.283Z</time></trkpt><trkpt lat="42.2772383" lon="13.75178"><ele>402.0</ele><time>2026-05-03T09:21:41.283Z</time></trkpt><trkpt lat="42.2773233" lon="13.7517883"><ele>402.0</ele><time>2026-05-03T09:21:42.283Z</time></trkpt><trkpt lat="42.2773933" lon="13.7518067"><ele>402.0</ele><time>2026-05-03T09:21:43.283Z</time></trkpt><trkpt lat="42.2774883" lon="13.7518433"><ele>402.0</ele><time>2026-05-03T09:21:45.283Z</time></trkpt><trkpt lat="42.277585" lon="13.7519217"><ele>402.0</ele><time>2026-05-03T09:21:47.283Z</time></trkpt><trkpt lat="42.27765" lon="13.7519617"><ele>402.0</ele><time>2026-05-03T09:21:48.283Z</time></trkpt><trkpt lat="42.2777217" lon="13.7519883"><ele>402.0</ele><time>2026-05-03T09:21:49.284Z</time></trkpt><trkpt lat="42.277805" lon="13.7520083"><ele>402.0</ele><time>2026-05-03T09:21:50.283Z</time></trkpt><trkpt lat="42.277895" lon="13.75204"><ele>402.0</ele><time>2026-05-03T09:21:51.283Z</time></trkpt><trkpt lat="42.2780033" lon="13.7520733"><ele>402.0</ele><time>2026-05-03T09:21:52.283Z</time></trkpt><trkpt lat="42.278115" lon="13.7521117"><ele>402.0</ele><time>2026-05-03T09:21:53.283Z</time></trkpt><trkpt lat="42.2782283" lon="13.7521333"><ele>402.0</ele><time>2026-05-03T09:21:54.283Z</time></trkpt><trkpt lat="42.2783533" lon="13.752145"><ele>402.0</ele><time>2026-05-03T09:21:55.283Z</time></trkpt><trkpt lat="42.2784867" lon="13.7521617"><ele>402.0</ele><time>2026-05-03T09:21:56.283Z</time></trkpt><trkpt lat="42.2786383" lon="13.7521683"><ele>402.0</ele><time>2026-05-03T09:21:57.283Z</time></trkpt><trkpt lat="42.2788017" lon="13.7521767"><ele>402.0</ele><time>2026-05-03T09:21:58.283Z</time></trkpt><trkpt lat="42.2789633" lon="13.75218"><ele>402.0</ele><time>2026-05-03T09:21:59.283Z</time></trkpt><trkpt lat="42.2791183" lon="13.75218"><ele>400.66666666666663</ele><time>2026-05-03T09:22:00.284Z</time></trkpt><trkpt lat="42.27928" lon="13.7521717"><ele>399.3333333333333</ele><time>2026-05-03T09:22:01.283Z</time></trkpt><trkpt lat="42.27944" lon="13.752165"><ele>398.0</ele><time>2026-05-03T09:22:02.283Z</time></trkpt><trkpt lat="42.2795867" lon="13.752155"><ele>398.0</ele><time>2026-05-03T09:22:03.283Z</time></trkpt><trkpt lat="42.2797317" lon="13.752145"><ele>398.0</ele><time>2026-05-03T09:22:04.283Z</time></trkpt><trkpt lat="42.27988" lon="13.752135"><ele>398.0</ele><time>2026-05-03T09:22:05.283Z</time></trkpt><trkpt lat="42.28003" lon="13.75213"><ele>398.0</ele><time>2026-05-03T09:22:06.283Z</time></trkpt><trkpt lat="42.2801683" lon="13.7521383"><ele>396.25</ele><time>2026-05-03T09:22:07.283Z</time></trkpt><trkpt lat="42.2802983" lon="13.7521683"><ele>394.5</ele><time>2026-05-03T09:22:08.283Z</time></trkpt><trkpt lat="42.2804317" lon="13.7522"><ele>392.75</ele><time>2026-05-03T09:22:09.283Z</time></trkpt><trkpt lat="42.2805633" lon="13.7522467"><ele>391.0</ele><time>2026-05-03T09:22:10.283Z</time></trkpt><trkpt lat="42.2806933" lon="13.75231"><ele>390.5</ele><time>2026-05-03T09:22:11.283Z</time></trkpt><trkpt lat="42.2808183" lon="13.7523967"><ele>390.0</ele><time>2026-05-03T09:22:12.284Z</time></trkpt><trkpt lat="42.280945" lon="13.75249"><ele>389.5</ele><time>2026-05-03T09:22:13.283Z</time></trkpt><trkpt lat="42.2810683" lon="13.752605"><ele>389.0</ele><time>2026-05-03T09:22:14.283Z</time></trkpt><trkpt lat="42.281185" lon="13.7527233"><ele>389.0</ele><time>2026-05-03T09:22:15.284Z</time></trkpt><trkpt lat="42.2813083" lon="13.752845"><ele>389.0</ele><time>2026-05-03T09:22:16.283Z</time></trkpt><trkpt lat="42.281425" lon="13.752975"><ele>389.0</ele><time>2026-05-03T09:22:17.283Z</time></trkpt><trkpt lat="42.281535" lon="13.75311"><ele>389.0</ele><time>2026-05-03T09:22:18.284Z</time></trkpt><trkpt lat="42.28164" lon="13.753235"><ele>389.0</ele><time>2026-05-03T09:22:19.284Z</time></trkpt><trkpt lat="42.2817417" lon="13.7533483"><ele>389.0</ele><time>2026-05-03T09:22:20.283Z</time></trkpt><trkpt lat="42.2818367" lon="13.7534683"><ele>389.0</ele><time>2026-05-03T09:22:21.284Z</time></trkpt><trkpt lat="42.2819433" lon="13.7535767"><ele>389.5</ele><time>2026-05-03T09:22:22.283Z</time></trkpt><trkpt lat="42.2820567" lon="13.7536767"><ele>390.0</ele><time>2026-05-03T09:22:23.283Z</time></trkpt><trkpt lat="42.2821767" lon="13.753765"><ele>390.5</ele><time>2026-05-03T09:22:24.283Z</time></trkpt><trkpt lat="42.2822933" lon="13.7538517"><ele>391.0</ele><time>2026-05-03T09:22:25.283Z</time></trkpt><trkpt lat="42.2824183" lon="13.7539333"><ele>391.0</ele><time>2026-05-03T09:22:26.283Z</time></trkpt><trkpt lat="42.2825433" lon="13.75401"><ele>391.0</ele><time>2026-05-03T09:22:27.283Z</time></trkpt><trkpt lat="42.282675" lon="13.7540967"><ele>391.0</ele><time>2026-05-03T09:22:28.283Z</time></trkpt><trkpt lat="42.2827967" lon="13.7541767"><ele>391.0</ele><time>2026-05-03T09:22:29.283Z</time></trkpt><trkpt lat="42.2829183" lon="13.7542483"><ele>391.0</ele><time>2026-05-03T09:22:30.283Z</time></trkpt><trkpt lat="42.2830367" lon="13.7543133"><ele>391.0</ele><time>2026-05-03T09:22:31.283Z</time></trkpt><trkpt lat="42.2831517" lon="13.7543733"><ele>391.0</ele><time>2026-05-03T09:22:32.283Z</time></trkpt><trkpt lat="42.28326" lon="13.75443"><ele>391.0</ele><time>2026-05-03T09:22:33.283Z</time></trkpt><trkpt lat="42.2833517" lon="13.7544717"><ele>390.20000000000005</ele><time>2026-05-03T09:22:34.283Z</time></trkpt><trkpt lat="42.2834267" lon="13.7545033"><ele>389.40000000000003</ele><time>2026-05-03T09:22:35.283Z</time></trkpt><trkpt lat="42.28349" lon="13.7545267"><ele>388.6</ele><time>2026-05-03T09:22:36.283Z</time></trkpt><trkpt lat="42.2835833" lon="13.75453"><ele>387.8</ele><time>2026-05-03T09:22:38.283Z</time></trkpt><trkpt lat="42.28364" lon="13.7544183"><ele>387.0</ele><time>2026-05-03T09:22:41.283Z</time></trkpt><trkpt lat="42.2836033" lon="13.7542333"><ele>386.0</ele><time>2026-05-03T09:22:43.283Z</time></trkpt><trkpt lat="42.2835733" lon="13.754115"><ele>385.0</ele><time>2026-05-03T09:22:44.283Z</time></trkpt><trkpt lat="42.2835467" lon="13.7539783"><ele>384.0</ele><time>2026-05-03T09:22:45.283Z</time></trkpt><trkpt lat="42.2835267" lon="13.7538183"><ele>383.0</ele><time>2026-05-03T09:22:46.283Z</time></trkpt><trkpt lat="42.2835017" lon="13.753625"><ele>383.6666666666667</ele><time>2026-05-03T09:22:47.283Z</time></trkpt><trkpt lat="42.283475" lon="13.753415"><ele>384.33333333333337</ele><time>2026-05-03T09:22:48.283Z</time></trkpt><trkpt lat="42.2834417" lon="13.7531717"><ele>385.0</ele><time>2026-05-03T09:22:49.283Z</time></trkpt><trkpt lat="42.2834217" lon="13.7529533"><ele>385.0</ele><time>2026-05-03T09:22:50.283Z</time></trkpt><trkpt lat="42.2834033" lon="13.7527633"><ele>385.0</ele><time>2026-05-03T09:22:51.283Z</time></trkpt><trkpt lat="42.2833933" lon="13.7526033"><ele>385.0</ele><time>2026-05-03T09:22:52.284Z</time></trkpt><trkpt lat="42.2833933" lon="13.7524683"><ele>385.0</ele><time>2026-05-03T09:22:53.283Z</time></trkpt><trkpt lat="42.2833933" lon="13.7523617"><ele>385.0</ele><time>2026-05-03T09:22:54.283Z</time></trkpt><trkpt lat="42.2834" lon="13.752275"><ele>385.2</ele><time>2026-05-03T09:22:55.283Z</time></trkpt><trkpt lat="42.2834883" lon="13.7521967"><ele>385.4</ele><time>2026-05-03T09:22:57.283Z</time></trkpt><trkpt lat="42.2835783" lon="13.7522"><ele>385.6</ele><time>2026-05-03T09:22:58.283Z</time></trkpt><trkpt lat="42.283685" lon="13.75222"><ele>385.8</ele><time>2026-05-03T09:22:59.284Z</time></trkpt><trkpt lat="42.283825" lon="13.75225"><ele>386.0</ele><time>2026-05-03T09:23:00.283Z</time></trkpt><trkpt lat="42.28398" lon="13.7522883"><ele>385.3333333333333</ele><time>2026-05-03T09:23:01.283Z</time></trkpt><trkpt lat="42.284145" lon="13.7523233"><ele>384.66666666666663</ele><time>2026-05-03T09:23:02.283Z</time></trkpt><trkpt lat="42.2843083" lon="13.752375"><ele>384.0</ele><time>2026-05-03T09:23:03.283Z</time></trkpt><trkpt lat="42.284465" lon="13.7524283"><ele>384.0</ele><time>2026-05-03T09:23:04.283Z</time></trkpt><trkpt lat="42.2846067" lon="13.7524833"><ele>384.0</ele><time>2026-05-03T09:23:05.283Z</time></trkpt><trkpt lat="42.28474" lon="13.75254"><ele>384.0</ele><time>2026-05-03T09:23:06.283Z</time></trkpt><trkpt lat="42.2848683" lon="13.7525967"><ele>384.0</ele><time>2026-05-03T09:23:07.283Z</time></trkpt><trkpt lat="42.2849883" lon="13.75266"><ele>383.5</ele><time>2026-05-03T09:23:08.283Z</time></trkpt><trkpt lat="42.2851067" lon="13.7527233"><ele>383.0</ele><time>2026-05-03T09:23:09.283Z</time></trkpt><trkpt lat="42.2852317" lon="13.7527867"><ele>382.5</ele><time>2026-05-03T09:23:10.283Z</time></trkpt><trkpt lat="42.2853617" lon="13.7528417"><ele>382.0</ele><time>2026-05-03T09:23:11.283Z</time></trkpt><trkpt lat="42.2854917" lon="13.7528917"><ele>381.6</ele><time>2026-05-03T09:23:12.284Z</time></trkpt><trkpt lat="42.2856067" lon="13.752935"><ele>381.20000000000005</ele><time>2026-05-03T09:23:13.283Z</time></trkpt><trkpt lat="42.2857217" lon="13.75297"><ele>380.8</ele><time>2026-05-03T09:23:14.283Z</time></trkpt><trkpt lat="42.285825" lon="13.752995"><ele>380.4</ele><time>2026-05-03T09:23:15.283Z</time></trkpt><trkpt lat="42.2859217" lon="13.7530267"><ele>380.0</ele><time>2026-05-03T09:23:16.283Z</time></trkpt><trkpt lat="42.286" lon="13.7530533"><ele>380.0</ele><time>2026-05-03T09:23:17.283Z</time></trkpt><trkpt lat="42.2861033" lon="13.7530783"><ele>380.0</ele><time>2026-05-03T09:23:19.283Z</time></trkpt><trkpt lat="42.2861783" lon="13.753105"><ele>380.0</ele><time>2026-05-03T09:23:22.283Z</time></trkpt><trkpt lat="42.2862733" lon="13.753115"><ele>380.0</ele><time>2026-05-03T09:23:25.283Z</time></trkpt><trkpt lat="42.2863417" lon="13.753135"><ele>380.0</ele><time>2026-05-03T09:23:26.283Z</time></trkpt><trkpt lat="42.2864267" lon="13.75317"><ele>380.0</ele><time>2026-05-03T09:23:27.283Z</time></trkpt><trkpt lat="42.2865233" lon="13.7531967"><ele>379.5</ele><time>2026-05-03T09:23:28.284Z</time></trkpt><trkpt lat="42.2866317" lon="13.7532283"><ele>379.0</ele><time>2026-05-03T09:23:29.283Z</time></trkpt><trkpt lat="42.2867417" lon="13.7532567"><ele>378.5</ele><time>2026-05-03T09:23:30.283Z</time></trkpt><trkpt lat="42.2868533" lon="13.7532833"><ele>378.0</ele><time>2026-05-03T09:23:31.283Z</time></trkpt><trkpt lat="42.286975" lon="13.7533183"><ele>378.0</ele><time>2026-05-03T09:23:32.283Z</time></trkpt><trkpt lat="42.287105" lon="13.7533633"><ele>378.0</ele><time>2026-05-03T09:23:33.283Z</time></trkpt><trkpt lat="42.28723" lon="13.7534367"><ele>378.0</ele><time>2026-05-03T09:23:34.283Z</time></trkpt><trkpt lat="42.2873483" lon="13.7535117"><ele>378.0</ele><time>2026-05-03T09:23:35.283Z</time></trkpt><trkpt lat="42.28746" lon="13.7535767"><ele>377.4</ele><time>2026-05-03T09:23:36.283Z</time></trkpt><trkpt lat="42.2875583" lon="13.75364"><ele>376.79999999999995</ele><time>2026-05-03T09:23:37.283Z</time></trkpt><trkpt lat="42.2876383" lon="13.7537"><ele>376.2</ele><time>2026-05-03T09:23:38.283Z</time></trkpt><trkpt lat="42.2877067" lon="13.753745"><ele>375.6</ele><time>2026-05-03T09:23:39.282Z</time></trkpt><trkpt lat="42.2878183" lon="13.7537767"><ele>375.0</ele><time>2026-05-03T09:23:41.282Z</time></trkpt><trkpt lat="42.287915" lon="13.7537117"><ele>375.0</ele><time>2026-05-03T09:23:43.282Z</time></trkpt><trkpt lat="42.28796" lon="13.7536333"><ele>375.0</ele><time>2026-05-03T09:23:44.282Z</time></trkpt><trkpt lat="42.28802" lon="13.7535333"><ele>375.0</ele><time>2026-05-03T09:23:45.282Z</time></trkpt><trkpt lat="42.2880933" lon="13.7534267"><ele>375.0</ele><time>2026-05-03T09:23:46.282Z</time></trkpt><trkpt lat="42.28817" lon="13.7533183"><ele>375.0</ele><time>2026-05-03T09:23:47.282Z</time></trkpt><trkpt lat="42.2882383" lon="13.7532317"><ele>374.8</ele><time>2026-05-03T09:23:48.282Z</time></trkpt><trkpt lat="42.288305" lon="13.7531467"><ele>374.6</ele><time>2026-05-03T09:23:49.282Z</time></trkpt><trkpt lat="42.2883733" lon="13.7530483"><ele>374.4</ele><time>2026-05-03T09:23:50.282Z</time></trkpt><trkpt lat="42.2884467" lon="13.7529333"><ele>374.2</ele><time>2026-05-03T09:23:51.282Z</time></trkpt><trkpt lat="42.288515" lon="13.752815"><ele>374.0</ele><time>2026-05-03T09:23:52.282Z</time></trkpt><trkpt lat="42.28859" lon="13.7526967"><ele>374.75</ele><time>2026-05-03T09:23:53.282Z</time></trkpt><trkpt lat="42.2886633" lon="13.7525767"><ele>375.5</ele><time>2026-05-03T09:23:54.282Z</time></trkpt><trkpt lat="42.288735" lon="13.75245"><ele>376.25</ele><time>2026-05-03T09:23:55.282Z</time></trkpt><trkpt lat="42.2888067" lon="13.7523167"><ele>377.0</ele><time>2026-05-03T09:23:56.282Z</time></trkpt><trkpt lat="42.2888817" lon="13.7521717"><ele>377.0</ele><time>2026-05-03T09:23:57.282Z</time></trkpt><trkpt lat="42.2889567" lon="13.7520083"><ele>377.0</ele><time>2026-05-03T09:23:58.282Z</time></trkpt><trkpt lat="42.2890383" lon="13.7518417"><ele>377.0</ele><time>2026-05-03T09:23:59.282Z</time></trkpt><trkpt lat="42.2891117" lon="13.7516867"><ele>377.0</ele><time>2026-05-03T09:24:00.282Z</time></trkpt><trkpt lat="42.28918" lon="13.7515333"><ele>378.25</ele><time>2026-05-03T09:24:01.282Z</time></trkpt><trkpt lat="42.2892433" lon="13.7513617"><ele>379.5</ele><time>2026-05-03T09:24:02.282Z</time></trkpt><trkpt lat="42.289305" lon="13.7511967"><ele>380.75</ele><time>2026-05-03T09:24:03.282Z</time></trkpt><trkpt lat="42.28937" lon="13.7510367"><ele>382.0</ele><time>2026-05-03T09:24:04.282Z</time></trkpt><trkpt lat="42.289435" lon="13.75088"><ele>382.0</ele><time>2026-05-03T09:24:05.282Z</time></trkpt><trkpt lat="42.2894917" lon="13.7507383"><ele>382.0</ele><time>2026-05-03T09:24:06.283Z</time></trkpt><trkpt lat="42.2895483" lon="13.7506083"><ele>382.0</ele><time>2026-05-03T09:24:07.282Z</time></trkpt><trkpt lat="42.2896183" lon="13.7504783"><ele>382.0</ele><time>2026-05-03T09:24:08.282Z</time></trkpt><trkpt lat="42.2896917" lon="13.7503583"><ele>381.75</ele><time>2026-05-03T09:24:09.282Z</time></trkpt><trkpt lat="42.2897683" lon="13.75023"><ele>381.5</ele><time>2026-05-03T09:24:10.283Z</time></trkpt><trkpt lat="42.289855" lon="13.7500833"><ele>381.25</ele><time>2026-05-03T09:24:11.282Z</time></trkpt><trkpt lat="42.2899367" lon="13.7499167"><ele>381.0</ele><time>2026-05-03T09:24:12.282Z</time></trkpt><trkpt lat="42.2900117" lon="13.7497333"><ele>381.0</ele><time>2026-05-03T09:24:13.282Z</time></trkpt><trkpt lat="42.2900817" lon="13.7495583"><ele>381.0</ele><time>2026-05-03T09:24:14.282Z</time></trkpt><trkpt lat="42.290155" lon="13.7493983"><ele>381.0</ele><time>2026-05-03T09:24:15.282Z</time></trkpt><trkpt lat="42.2902217" lon="13.7492517"><ele>381.0</ele><time>2026-05-03T09:24:16.282Z</time></trkpt><trkpt lat="42.2903067" lon="13.7491083"><ele>381.0</ele><time>2026-05-03T09:24:17.282Z</time></trkpt><trkpt lat="42.2904067" lon="13.7489517"><ele>381.0</ele><time>2026-05-03T09:24:18.282Z</time></trkpt><trkpt lat="42.2905067" lon="13.7487967"><ele>381.0</ele><time>2026-05-03T09:24:19.282Z</time></trkpt><trkpt lat="42.290605" lon="13.748655"><ele>381.0</ele><time>2026-05-03T09:24:20.282Z</time></trkpt><trkpt lat="42.2906867" lon="13.748505"><ele>381.25</ele><time>2026-05-03T09:24:21.282Z</time></trkpt><trkpt lat="42.2907767" lon="13.7483583"><ele>381.5</ele><time>2026-05-03T09:24:22.283Z</time></trkpt><trkpt lat="42.2908633" lon="13.7482133"><ele>381.75</ele><time>2026-05-03T09:24:23.282Z</time></trkpt><trkpt lat="42.2909483" lon="13.7480733"><ele>382.0</ele><time>2026-05-03T09:24:24.282Z</time></trkpt><trkpt lat="42.2910367" lon="13.7479233"><ele>382.0</ele><time>2026-05-03T09:24:25.282Z</time></trkpt><trkpt lat="42.2911283" lon="13.74777"><ele>382.0</ele><time>2026-05-03T09:24:26.282Z</time></trkpt><trkpt lat="42.2912217" lon="13.74761"><ele>382.0</ele><time>2026-05-03T09:24:27.282Z</time></trkpt><trkpt lat="42.2913033" lon="13.7474567"><ele>382.0</ele><time>2026-05-03T09:24:28.282Z</time></trkpt><trkpt lat="42.2913817" lon="13.7473167"><ele>382.6</ele><time>2026-05-03T09:24:29.282Z</time></trkpt><trkpt lat="42.29146" lon="13.747185"><ele>383.20000000000005</ele><time>2026-05-03T09:24:30.282Z</time></trkpt><trkpt lat="42.29153" lon="13.7470767"><ele>383.8</ele><time>2026-05-03T09:24:31.282Z</time></trkpt><trkpt lat="42.2915967" lon="13.7469717"><ele>384.4</ele><time>2026-05-03T09:24:32.282Z</time></trkpt><trkpt lat="42.29165" lon="13.746875"><ele>385.0</ele><time>2026-05-03T09:24:33.282Z</time></trkpt><trkpt lat="42.2917033" lon="13.7467717"><ele>385.4</ele><time>2026-05-03T09:24:34.282Z</time></trkpt><trkpt lat="42.2917533" lon="13.74669"><ele>385.8</ele><time>2026-05-03T09:24:35.282Z</time></trkpt><trkpt lat="42.2918233" lon="13.7465683"><ele>386.20000000000005</ele><time>2026-05-03T09:24:37.282Z</time></trkpt><trkpt lat="42.2918983" lon="13.7465533"><ele>386.6</ele><time>2026-05-03T09:24:39.282Z</time></trkpt><trkpt lat="42.292005" lon="13.746645"><ele>387.0</ele><time>2026-05-03T09:24:41.282Z</time></trkpt><trkpt lat="42.2920783" lon="13.7467083"><ele>387.0</ele><time>2026-05-03T09:24:42.282Z</time></trkpt><trkpt lat="42.2921533" lon="13.74677"><ele>387.0</ele><time>2026-05-03T09:24:43.282Z</time></trkpt><trkpt lat="42.2922367" lon="13.7468267"><ele>387.0</ele><time>2026-05-03T09:24:44.282Z</time></trkpt><trkpt lat="42.2923217" lon="13.7468883"><ele>387.0</ele><time>2026-05-03T09:24:45.282Z</time></trkpt><trkpt lat="42.292405" lon="13.7469467"><ele>387.0</ele><time>2026-05-03T09:24:46.282Z</time></trkpt><trkpt lat="42.29249" lon="13.747"><ele>386.0</ele><time>2026-05-03T09:24:47.282Z</time></trkpt><trkpt lat="42.2925783" lon="13.7470533"><ele>385.0</ele><time>2026-05-03T09:24:48.282Z</time></trkpt><trkpt lat="42.2926617" lon="13.7470967"><ele>384.0</ele><time>2026-05-03T09:24:49.282Z</time></trkpt><trkpt lat="42.292745" lon="13.7471483"><ele>383.0</ele><time>2026-05-03T09:24:50.282Z</time></trkpt><trkpt lat="42.2928333" lon="13.74719"><ele>382.0</ele><time>2026-05-03T09:24:51.282Z</time></trkpt><trkpt lat="42.2929333" lon="13.747235"><ele>382.0</ele><time>2026-05-03T09:24:52.282Z</time></trkpt><trkpt lat="42.2930367" lon="13.74728"><ele>382.0</ele><time>2026-05-03T09:24:53.282Z</time></trkpt><trkpt lat="42.2931267" lon="13.7473233"><ele>382.0</ele><time>2026-05-03T09:24:54.282Z</time></trkpt><trkpt lat="42.2932283" lon="13.7473717"><ele>382.0</ele><time>2026-05-03T09:24:55.282Z</time></trkpt><trkpt lat="42.2933317" lon="13.747435"><ele>382.0</ele><time>2026-05-03T09:24:56.282Z</time></trkpt><trkpt lat="42.2934417" lon="13.7475167"><ele>382.0</ele><time>2026-05-03T09:24:57.282Z</time></trkpt><trkpt lat="42.293565" lon="13.7475933"><ele>382.0</ele><time>2026-05-03T09:24:58.282Z</time></trkpt><trkpt lat="42.29369" lon="13.7476717"><ele>382.0</ele><time>2026-05-03T09:24:59.282Z</time></trkpt><trkpt lat="42.2938117" lon="13.7477383"><ele>382.0</ele><time>2026-05-03T09:25:00.282Z</time></trkpt><trkpt lat="42.293925" lon="13.7478033"><ele>383.25</ele><time>2026-05-03T09:25:01.282Z</time></trkpt><trkpt lat="42.29403" lon="13.7478567"><ele>384.5</ele><time>2026-05-03T09:25:02.282Z</time></trkpt><trkpt lat="42.2941467" lon="13.74792"><ele>385.75</ele><time>2026-05-03T09:25:03.282Z</time></trkpt><trkpt lat="42.29426" lon="13.747985"><ele>387.0</ele><time>2026-05-03T09:25:04.282Z</time></trkpt><trkpt lat="42.2943733" lon="13.7480417"><ele>387.0</ele><time>2026-05-03T09:25:05.282Z</time></trkpt><trkpt lat="42.2944817" lon="13.748105"><ele>387.0</ele><time>2026-05-03T09:25:06.282Z</time></trkpt><trkpt lat="42.294585" lon="13.7481633"><ele>387.0</ele><time>2026-05-03T09:25:07.282Z</time></trkpt><trkpt lat="42.2946783" lon="13.7482183"><ele>387.0</ele><time>2026-05-03T09:25:08.282Z</time></trkpt><trkpt lat="42.2947683" lon="13.74827"><ele>387.0</ele><time>2026-05-03T09:25:09.282Z</time></trkpt><trkpt lat="42.2948533" lon="13.7483283"><ele>388.3333333333333</ele><time>2026-05-03T09:25:10.283Z</time></trkpt><trkpt lat="42.2949233" lon="13.748375"><ele>389.66666666666663</ele><time>2026-05-03T09:25:11.282Z</time></trkpt><trkpt lat="42.294985" lon="13.74842"><ele>391.0</ele><time>2026-05-03T09:25:12.282Z</time></trkpt><trkpt lat="42.29508" lon="13.7484967"><ele>392.3333333333333</ele><time>2026-05-03T09:25:14.282Z</time></trkpt><trkpt lat="42.2951333" lon="13.74855"><ele>393.66666666666663</ele><time>2026-05-03T09:25:16.282Z</time></trkpt><trkpt lat="42.2951883" lon="13.748625"><ele>395.0</ele><time>2026-05-03T09:25:21.282Z</time></trkpt><trkpt lat="42.2952683" lon="13.748695"><ele>395.3333333333333</ele><time>2026-05-03T09:25:23.282Z</time></trkpt><trkpt lat="42.2953333" lon="13.7487283"><ele>395.66666666666663</ele><time>2026-05-03T09:25:24.283Z</time></trkpt><trkpt lat="42.2954033" lon="13.7487567"><ele>396.0</ele><time>2026-05-03T09:25:25.282Z</time></trkpt><trkpt lat="42.2954767" lon="13.7487917"><ele>396.33333333333337</ele><time>2026-05-03T09:25:26.282Z</time></trkpt><trkpt lat="42.2955633" lon="13.748825"><ele>396.6666666666667</ele><time>2026-05-03T09:25:27.282Z</time></trkpt><trkpt lat="42.2956717" lon="13.7488817"><ele>397.0</ele><time>2026-05-03T09:25:28.282Z</time></trkpt><trkpt lat="42.2957817" lon="13.7489367"><ele>399.40000000000003</ele><time>2026-05-03T09:25:29.282Z</time></trkpt><trkpt lat="42.2958783" lon="13.7490017"><ele>401.8</ele><time>2026-05-03T09:25:30.282Z</time></trkpt><trkpt lat="42.295955" lon="13.7490817"><ele>404.2</ele><time>2026-05-03T09:25:31.282Z</time></trkpt><trkpt lat="42.29603" lon="13.7491717"><ele>406.6</ele><time>2026-05-03T09:25:32.282Z</time></trkpt><trkpt lat="42.2961067" lon="13.7492733"><ele>409.0</ele><time>2026-05-03T09:25:33.282Z</time></trkpt><trkpt lat="42.2961783" lon="13.7493783"><ele>411.5</ele><time>2026-05-03T09:25:34.282Z</time></trkpt><trkpt lat="42.296255" lon="13.7494633"><ele>414.0</ele><time>2026-05-03T09:25:35.282Z</time></trkpt><trkpt lat="42.2963467" lon="13.74954"><ele>416.5</ele><time>2026-05-03T09:25:36.282Z</time></trkpt><trkpt lat="42.296455" lon="13.7496083"><ele>419.0</ele><time>2026-05-03T09:25:37.282Z</time></trkpt><trkpt lat="42.2965667" lon="13.7496833"><ele>420.25</ele><time>2026-05-03T09:25:38.282Z</time></trkpt><trkpt lat="42.296675" lon="13.749765"><ele>421.5</ele><time>2026-05-03T09:25:39.282Z</time></trkpt><trkpt lat="42.2967717" lon="13.7498567"><ele>422.75</ele><time>2026-05-03T09:25:40.282Z</time></trkpt><trkpt lat="42.2968617" lon="13.74996"><ele>424.0</ele><time>2026-05-03T09:25:41.282Z</time></trkpt><trkpt lat="42.2969367" lon="13.75006"><ele>424.0</ele><time>2026-05-03T09:25:42.282Z</time></trkpt><trkpt lat="42.2970117" lon="13.750155"><ele>424.0</ele><time>2026-05-03T09:25:43.283Z</time></trkpt><trkpt lat="42.297085" lon="13.7502317"><ele>424.0</ele><time>2026-05-03T09:25:44.282Z</time></trkpt><trkpt lat="42.2971667" lon="13.7502933"><ele>424.0</ele><time>2026-05-03T09:25:45.282Z</time></trkpt><trkpt lat="42.297245" lon="13.7503383"><ele>424.0</ele><time>2026-05-03T09:25:46.282Z</time></trkpt><trkpt lat="42.2973217" lon="13.7503783"><ele>424.1666666666667</ele><time>2026-05-03T09:25:47.282Z</time></trkpt><trkpt lat="42.2973883" lon="13.7504133"><ele>424.33333333333337</ele><time>2026-05-03T09:25:48.282Z</time></trkpt><trkpt lat="42.2974817" lon="13.75044"><ele>424.5</ele><time>2026-05-03T09:25:50.282Z</time></trkpt><trkpt lat="42.2975467" lon="13.7503567"><ele>424.66666666666663</ele><time>2026-05-03T09:25:52.282Z</time></trkpt><trkpt lat="42.29758" lon="13.7502817"><ele>424.8333333333333</ele><time>2026-05-03T09:25:53.282Z</time></trkpt><trkpt lat="42.2976183" lon="13.7502017"><ele>425.0</ele><time>2026-05-03T09:25:54.283Z</time></trkpt><trkpt lat="42.2976667" lon="13.7501317"><ele>425.6</ele><time>2026-05-03T09:25:55.282Z</time></trkpt><trkpt lat="42.297735" lon="13.7500817"><ele>426.2</ele><time>2026-05-03T09:25:56.282Z</time></trkpt><trkpt lat="42.29782" lon="13.7500483"><ele>426.79999999999995</ele><time>2026-05-03T09:25:57.282Z</time></trkpt><trkpt lat="42.2979267" lon="13.7500133"><ele>427.4</ele><time>2026-05-03T09:25:58.282Z</time></trkpt><trkpt lat="42.298045" lon="13.74999"><ele>428.0</ele><time>2026-05-03T09:25:59.283Z</time></trkpt><trkpt lat="42.2981683" lon="13.7499883"><ele>428.4</ele><time>2026-05-03T09:26:00.282Z</time></trkpt><trkpt lat="42.2982833" lon="13.7499917"><ele>428.79999999999995</ele><time>2026-05-03T09:26:01.282Z</time></trkpt><trkpt lat="42.2983967" lon="13.7499867"><ele>429.2</ele><time>2026-05-03T09:26:02.282Z</time></trkpt><trkpt lat="42.2984983" lon="13.7499767"><ele>429.6</ele><time>2026-05-03T09:26:03.282Z</time></trkpt><trkpt lat="42.2986067" lon="13.7499567"><ele>430.0</ele><time>2026-05-03T09:26:04.283Z</time></trkpt><trkpt lat="42.298715" lon="13.7499333"><ele>430.0</ele><time>2026-05-03T09:26:05.282Z</time></trkpt><trkpt lat="42.29883" lon="13.7499167"><ele>430.0</ele><time>2026-05-03T09:26:06.282Z</time></trkpt><trkpt lat="42.2989483" lon="13.7498917"><ele>430.0</ele><time>2026-05-03T09:26:07.282Z</time></trkpt><trkpt lat="42.2990783" lon="13.749865"><ele>430.0</ele><time>2026-05-03T09:26:08.283Z</time></trkpt><trkpt lat="42.299205" lon="13.749835"><ele>429.4</ele><time>2026-05-03T09:26:09.282Z</time></trkpt><trkpt lat="42.29932" lon="13.749825"><ele>428.8</ele><time>2026-05-03T09:26:10.282Z</time></trkpt><trkpt lat="42.2994283" lon="13.7498117"><ele>428.20000000000005</ele><time>2026-05-03T09:26:11.282Z</time></trkpt><trkpt lat="42.2995267" lon="13.7498017"><ele>427.6</ele><time>2026-05-03T09:26:12.282Z</time></trkpt><trkpt lat="42.299615" lon="13.7497833"><ele>427.0</ele><time>2026-05-03T09:26:13.282Z</time></trkpt><trkpt lat="42.2997067" lon="13.7497567"><ele>426.0</ele><time>2026-05-03T09:26:14.282Z</time></trkpt><trkpt lat="42.2998017" lon="13.74971"><ele>425.0</ele><time>2026-05-03T09:26:15.283Z</time></trkpt><trkpt lat="42.2999083" lon="13.7496567"><ele>424.0</ele><time>2026-05-03T09:26:16.282Z</time></trkpt><trkpt lat="42.300025" lon="13.7496117"><ele>423.0</ele><time>2026-05-03T09:26:17.282Z</time></trkpt><trkpt lat="42.3001367" lon="13.7495767"><ele>423.0</ele><time>2026-05-03T09:26:18.282Z</time></trkpt><trkpt lat="42.3002417" lon="13.7495433"><ele>423.0</ele><time>2026-05-03T09:26:19.282Z</time></trkpt><trkpt lat="42.300355" lon="13.7495017"><ele>423.0</ele><time>2026-05-03T09:26:20.282Z</time></trkpt><trkpt lat="42.3004633" lon="13.7494567"><ele>423.0</ele><time>2026-05-03T09:26:21.282Z</time></trkpt><trkpt lat="42.3005717" lon="13.7494217"><ele>421.5</ele><time>2026-05-03T09:26:22.282Z</time></trkpt><trkpt lat="42.3006867" lon="13.7493833"><ele>420.0</ele><time>2026-05-03T09:26:23.282Z</time></trkpt><trkpt lat="42.3008067" lon="13.749355"><ele>418.5</ele><time>2026-05-03T09:26:24.282Z</time></trkpt><trkpt lat="42.3009333" lon="13.7493333"><ele>417.0</ele><time>2026-05-03T09:26:25.282Z</time></trkpt><trkpt lat="42.3010533" lon="13.7493067"><ele>419.8</ele><time>2026-05-03T09:26:26.283Z</time></trkpt><trkpt lat="42.301165" lon="13.7492717"><ele>422.6</ele><time>2026-05-03T09:26:27.282Z</time></trkpt><trkpt lat="42.30127" lon="13.7492233"><ele>425.40000000000003</ele><time>2026-05-03T09:26:28.283Z</time></trkpt><trkpt lat="42.301345" lon="13.7491667"><ele>428.20000000000005</ele><time>2026-05-03T09:26:29.282Z</time></trkpt><trkpt lat="42.3013983" lon="13.7491017"><ele>431.0</ele><time>2026-05-03T09:26:30.282Z</time></trkpt><trkpt lat="42.301455" lon="13.7490167"><ele>431.0</ele><time>2026-05-03T09:26:31.282Z</time></trkpt><trkpt lat="42.3015133" lon="13.7489067"><ele>431.0</ele><time>2026-05-03T09:26:32.282Z</time></trkpt><trkpt lat="42.301575" lon="13.748795"><ele>431.0</ele><time>2026-05-03T09:26:33.282Z</time></trkpt><trkpt lat="42.30164" lon="13.7486967"><ele>431.0</ele><time>2026-05-03T09:26:34.282Z</time></trkpt><trkpt lat="42.3017133" lon="13.7486083"><ele>431.0</ele><time>2026-05-03T09:26:35.282Z</time></trkpt><trkpt lat="42.3017833" lon="13.7485117"><ele>435.8</ele><time>2026-05-03T09:26:36.283Z</time></trkpt><trkpt lat="42.3018517" lon="13.7484317"><ele>440.6</ele><time>2026-05-03T09:26:37.282Z</time></trkpt><trkpt lat="42.3019267" lon="13.7483667"><ele>445.4</ele><time>2026-05-03T09:26:38.282Z</time></trkpt><trkpt lat="42.3020117" lon="13.7483067"><ele>450.2</ele><time>2026-05-03T09:26:39.282Z</time></trkpt><trkpt lat="42.3021017" lon="13.7482433"><ele>455.0</ele><time>2026-05-03T09:26:40.282Z</time></trkpt><trkpt lat="42.3021817" lon="13.7481817"><ele>454.0</ele><time>2026-05-03T09:26:41.282Z</time></trkpt><trkpt lat="42.3022733" lon="13.7481117"><ele>453.0</ele><time>2026-05-03T09:26:42.282Z</time></trkpt><trkpt lat="42.302375" lon="13.7480367"><ele>452.0</ele><time>2026-05-03T09:26:43.282Z</time></trkpt><trkpt lat="42.3024667" lon="13.74797"><ele>451.0</ele><time>2026-05-03T09:26:44.282Z</time></trkpt><trkpt lat="42.302545" lon="13.7479183"><ele>450.0</ele><time>2026-05-03T09:26:45.282Z</time></trkpt><trkpt lat="42.302635" lon="13.7478783"><ele>450.0</ele><time>2026-05-03T09:26:46.282Z</time></trkpt><trkpt lat="42.30272" lon="13.7478483"><ele>450.0</ele><time>2026-05-03T09:26:47.282Z</time></trkpt><trkpt lat="42.302815" lon="13.7478367"><ele>450.0</ele><time>2026-05-03T09:26:48.282Z</time></trkpt><trkpt lat="42.3029117" lon="13.7478383"><ele>450.0</ele><time>2026-05-03T09:26:49.282Z</time></trkpt><trkpt lat="42.303015" lon="13.747845"><ele>450.0</ele><time>2026-05-03T09:26:50.282Z</time></trkpt><trkpt lat="42.3031233" lon="13.747855"><ele>451.5</ele><time>2026-05-03T09:26:51.282Z</time></trkpt><trkpt lat="42.3032283" lon="13.7478733"><ele>453.0</ele><time>2026-05-03T09:26:52.282Z</time></trkpt><trkpt lat="42.3033417" lon="13.7478933"><ele>454.5</ele><time>2026-05-03T09:26:53.283Z</time></trkpt><trkpt lat="42.3034617" lon="13.74792"><ele>456.0</ele><time>2026-05-03T09:26:54.282Z</time></trkpt><trkpt lat="42.3035833" lon="13.7479467"><ele>456.0</ele><time>2026-05-03T09:26:55.283Z</time></trkpt><trkpt lat="42.3037" lon="13.747975"><ele>456.0</ele><time>2026-05-03T09:26:56.282Z</time></trkpt><trkpt lat="42.3038" lon="13.7479983"><ele>456.0</ele><time>2026-05-03T09:26:57.282Z</time></trkpt><trkpt lat="42.303895" lon="13.7480283"><ele>456.0</ele><time>2026-05-03T09:26:58.282Z</time></trkpt><trkpt lat="42.3039933" lon="13.7480533"><ele>456.0</ele><time>2026-05-03T09:26:59.282Z</time></trkpt><trkpt lat="42.3040917" lon="13.748095"><ele>459.20000000000005</ele><time>2026-05-03T09:27:00.282Z</time></trkpt><trkpt lat="42.3042083" lon="13.748155"><ele>462.40000000000003</ele><time>2026-05-03T09:27:01.282Z</time></trkpt><trkpt lat="42.30432" lon="13.7482117"><ele>465.6</ele><time>2026-05-03T09:27:02.282Z</time></trkpt><trkpt lat="42.30442" lon="13.7482683"><ele>468.8</ele><time>2026-05-03T09:27:03.282Z</time></trkpt><trkpt lat="42.3045067" lon="13.74831"><ele>472.0</ele><time>2026-05-03T09:27:04.282Z</time></trkpt><trkpt lat="42.304585" lon="13.74834"><ele>472.00000000000006</ele><time>2026-05-03T09:27:05.282Z</time></trkpt><trkpt lat="42.3046667" lon="13.74835"><ele>472.0</ele><time>2026-05-03T09:27:06.282Z</time></trkpt><trkpt lat="42.3047467" lon="13.7483483"><ele>472.0</ele><time>2026-05-03T09:27:07.282Z</time></trkpt><trkpt lat="42.304835" lon="13.7483367"><ele>472.0</ele><time>2026-05-03T09:27:08.282Z</time></trkpt><trkpt lat="42.30492" lon="13.7483217"><ele>472.00000000000006</ele><time>2026-05-03T09:27:09.282Z</time></trkpt><trkpt lat="42.3050033" lon="13.7483117"><ele>472.0</ele><time>2026-05-03T09:27:10.282Z</time></trkpt><trkpt lat="42.3050783" lon="13.7483167"><ele>474.50000000000006</ele><time>2026-05-03T09:27:11.282Z</time></trkpt><trkpt lat="42.30514" lon="13.7483367"><ele>477.0</ele><time>2026-05-03T09:27:12.283Z</time></trkpt><trkpt lat="42.3052567" lon="13.7484167"><ele>479.5</ele><time>2026-05-03T09:27:14.282Z</time></trkpt><trkpt lat="42.3053217" lon="13.7484417"><ele>482.0</ele><time>2026-05-03T09:27:15.282Z</time></trkpt><trkpt lat="42.3054017" lon="13.74845"><ele>484.50000000000006</ele><time>2026-05-03T09:27:16.282Z</time></trkpt><trkpt lat="42.305485" lon="13.7484517"><ele>487.0</ele><time>2026-05-03T09:27:17.282Z</time></trkpt><trkpt lat="42.3055717" lon="13.7484483"><ele>488.20000000000005</ele><time>2026-05-03T09:27:18.282Z</time></trkpt><trkpt lat="42.3056633" lon="13.7484333"><ele>489.40000000000003</ele><time>2026-05-03T09:27:19.282Z</time></trkpt><trkpt lat="42.3057517" lon="13.7484083"><ele>490.59999999999997</ele><time>2026-05-03T09:27:20.282Z</time></trkpt><trkpt lat="42.3058333" lon="13.748365"><ele>491.79999999999995</ele><time>2026-05-03T09:27:21.282Z</time></trkpt><trkpt lat="42.3059183" lon="13.74831"><ele>493.0</ele><time>2026-05-03T09:27:22.282Z</time></trkpt><trkpt lat="42.3060133" lon="13.74826"><ele>493.0</ele><time>2026-05-03T09:27:23.282Z</time></trkpt><trkpt lat="42.3061" lon="13.7482167"><ele>492.99999999999994</ele><time>2026-05-03T09:27:24.282Z</time></trkpt><trkpt lat="42.3061967" lon="13.7481817"><ele>492.99999999999994</ele><time>2026-05-03T09:27:25.283Z</time></trkpt><trkpt lat="42.3062983" lon="13.7481417"><ele>493.0</ele><time>2026-05-03T09:27:26.282Z</time></trkpt><trkpt lat="42.3063983" lon="13.7481"><ele>493.0</ele><time>2026-05-03T09:27:27.282Z</time></trkpt><trkpt lat="42.306495" lon="13.74805"><ele>492.4</ele><time>2026-05-03T09:27:28.282Z</time></trkpt><trkpt lat="42.3065817" lon="13.748005"><ele>491.79999999999995</ele><time>2026-05-03T09:27:29.282Z</time></trkpt><trkpt lat="42.3066667" lon="13.74796"><ele>491.2</ele><time>2026-05-03T09:27:30.282Z</time></trkpt><trkpt lat="42.30675" lon="13.7479233"><ele>490.6</ele><time>2026-05-03T09:27:31.282Z</time></trkpt><trkpt lat="42.3068383" lon="13.747905"><ele>490.0</ele><time>2026-05-03T09:27:32.282Z</time></trkpt><trkpt lat="42.3069267" lon="13.747895"><ele>490.0</ele><time>2026-05-03T09:27:33.282Z</time></trkpt><trkpt lat="42.30701" lon="13.7478883"><ele>490.0</ele><time>2026-05-03T09:27:34.282Z</time></trkpt><trkpt lat="42.3070967" lon="13.7478833"><ele>490.0</ele><time>2026-05-03T09:27:35.282Z</time></trkpt><trkpt lat="42.3071867" lon="13.7478817"><ele>490.0</ele><time>2026-05-03T09:27:36.282Z</time></trkpt><trkpt lat="42.307285" lon="13.74788"><ele>490.0</ele><time>2026-05-03T09:27:37.282Z</time></trkpt><trkpt lat="42.3073833" lon="13.74788"><ele>489.33333333333337</ele><time>2026-05-03T09:27:38.283Z</time></trkpt><trkpt lat="42.3074667" lon="13.747875"><ele>488.6666666666667</ele><time>2026-05-03T09:27:39.282Z</time></trkpt><trkpt lat="42.3075467" lon="13.7478717"><ele>488.0</ele><time>2026-05-03T09:27:40.282Z</time></trkpt><trkpt lat="42.30764" lon="13.7478667"><ele>487.33333333333337</ele><time>2026-05-03T09:27:41.282Z</time></trkpt><trkpt lat="42.307735" lon="13.7478567"><ele>486.6666666666667</ele><time>2026-05-03T09:27:42.282Z</time></trkpt><trkpt lat="42.3078267" lon="13.74785"><ele>486.0</ele><time>2026-05-03T09:27:43.282Z</time></trkpt><trkpt lat="42.3079133" lon="13.7478467"><ele>486.0</ele><time>2026-05-03T09:27:44.282Z</time></trkpt><trkpt lat="42.308" lon="13.7478383"><ele>486.0</ele><time>2026-05-03T09:27:45.282Z</time></trkpt><trkpt lat="42.308095" lon="13.7478317"><ele>486.0</ele><time>2026-05-03T09:27:46.282Z</time></trkpt><trkpt lat="42.30818" lon="13.747825"><ele>486.0</ele><time>2026-05-03T09:27:47.282Z</time></trkpt><trkpt lat="42.308255" lon="13.7478083"><ele>486.0</ele><time>2026-05-03T09:27:48.282Z</time></trkpt><trkpt lat="42.308335" lon="13.747785"><ele>486.0</ele><time>2026-05-03T09:27:49.283Z</time></trkpt><trkpt lat="42.3084233" lon="13.7477617"><ele>486.1666666666667</ele><time>2026-05-03T09:27:50.282Z</time></trkpt><trkpt lat="42.3085117" lon="13.74775"><ele>486.33333333333337</ele><time>2026-05-03T09:27:51.282Z</time></trkpt><trkpt lat="42.3086067" lon="13.7477467"><ele>486.5</ele><time>2026-05-03T09:27:52.282Z</time></trkpt><trkpt lat="42.3087033" lon="13.7477433"><ele>486.6666666666667</ele><time>2026-05-03T09:27:53.282Z</time></trkpt><trkpt lat="42.3087867" lon="13.7477367"><ele>486.83333333333337</ele><time>2026-05-03T09:27:54.282Z</time></trkpt><trkpt lat="42.308855" lon="13.7477317"><ele>487.0</ele><time>2026-05-03T09:27:55.282Z</time></trkpt><trkpt lat="42.3089517" lon="13.74767"><ele>488.6</ele><time>2026-05-03T09:27:57.282Z</time></trkpt><trkpt lat="42.308995" lon="13.7475283"><ele>490.20000000000005</ele><time>2026-05-03T09:27:59.282Z</time></trkpt><trkpt lat="42.309005" lon="13.7474233"><ele>491.8</ele><time>2026-05-03T09:28:00.282Z</time></trkpt><trkpt lat="42.30902" lon="13.747325"><ele>493.4</ele><time>2026-05-03T09:28:01.282Z</time></trkpt><trkpt lat="42.30906" lon="13.7472183"><ele>495.0</ele><time>2026-05-03T09:28:02.282Z</time></trkpt><trkpt lat="42.3091133" lon="13.7471083"><ele>495.0</ele><time>2026-05-03T09:28:03.282Z</time></trkpt><trkpt lat="42.309175" lon="13.7469983"><ele>495.0</ele><time>2026-05-03T09:28:04.282Z</time></trkpt><trkpt lat="42.3092367" lon="13.7469033"><ele>495.0</ele><time>2026-05-03T09:28:05.282Z</time></trkpt><trkpt lat="42.3092867" lon="13.7468267"><ele>495.0</ele><time>2026-05-03T09:28:06.282Z</time></trkpt><trkpt lat="42.3093317" lon="13.74676"><ele>495.0</ele><time>2026-05-03T09:28:07.282Z</time></trkpt><trkpt lat="42.3094017" lon="13.7466583"><ele>495.0</ele><time>2026-05-03T09:28:09.282Z</time></trkpt><trkpt lat="42.30945" lon="13.7465917"><ele>498.5</ele><time>2026-05-03T09:28:11.282Z</time></trkpt><trkpt lat="42.30951" lon="13.7465133"><ele>502.0</ele><time>2026-05-03T09:29:19.282Z</time></trkpt><trkpt lat="42.3095617" lon="13.7464617"><ele>505.5</ele><time>2026-05-03T09:29:21.282Z</time></trkpt><trkpt lat="42.309625" lon="13.746405"><ele>509.0</ele><time>2026-05-03T09:29:23.282Z</time></trkpt><trkpt lat="42.3097083" lon="13.7464083"><ele>512.5</ele><time>2026-05-03T09:29:29.283Z</time></trkpt><trkpt lat="42.3098133" lon="13.746485"><ele>516.0</ele><time>2026-05-03T09:29:31.282Z</time></trkpt><trkpt lat="42.30987" lon="13.7465367"><ele>516.0</ele><time>2026-05-03T09:29:32.282Z</time></trkpt><trkpt lat="42.309935" lon="13.7465817"><ele>516.0</ele><time>2026-05-03T09:29:33.282Z</time></trkpt><trkpt lat="42.3099967" lon="13.746625"><ele>516.0</ele><time>2026-05-03T09:29:34.282Z</time></trkpt><trkpt lat="42.310055" lon="13.7466667"><ele>516.0</ele><time>2026-05-03T09:29:35.282Z</time></trkpt><trkpt lat="42.3101517" lon="13.7467317"><ele>516.0</ele><time>2026-05-03T09:29:37.282Z</time></trkpt><trkpt lat="42.3102433" lon="13.7467767"><ele>516.0</ele><time>2026-05-03T09:29:39.282Z</time></trkpt><trkpt lat="42.3103433" lon="13.7468333"><ele>516.0</ele><time>2026-05-03T09:29:41.282Z</time></trkpt><trkpt lat="42.31041" lon="13.7468717"><ele>516.0</ele><time>2026-05-03T09:29:42.282Z</time></trkpt><trkpt lat="42.3104867" lon="13.7469167"><ele>516.0</ele><time>2026-05-03T09:29:43.282Z</time></trkpt><trkpt lat="42.3105683" lon="13.746965"><ele>516.0</ele><time>2026-05-03T09:29:44.282Z</time></trkpt><trkpt lat="42.3106417" lon="13.74701"><ele>516.0</ele><time>2026-05-03T09:29:45.282Z</time></trkpt><trkpt lat="42.310715" lon="13.7470467"><ele>516.0</ele><time>2026-05-03T09:29:46.282Z</time></trkpt><trkpt lat="42.3107933" lon="13.7470833"><ele>512.5</ele><time>2026-05-03T09:29:47.282Z</time></trkpt><trkpt lat="42.3108767" lon="13.7471217"><ele>509.0</ele><time>2026-05-03T09:29:48.282Z</time></trkpt><trkpt lat="42.3109633" lon="13.74716"><ele>505.5</ele><time>2026-05-03T09:29:49.282Z</time></trkpt><trkpt lat="42.3110433" lon="13.7472033"><ele>502.0</ele><time>2026-05-03T09:29:50.282Z</time></trkpt><trkpt lat="42.3111167" lon="13.7472417"><ele>498.5</ele><time>2026-05-03T09:29:51.282Z</time></trkpt><trkpt lat="42.3111967" lon="13.747275"><ele>495.0</ele><time>2026-05-03T09:29:52.282Z</time></trkpt><trkpt lat="42.311275" lon="13.7473117"><ele>495.0</ele><time>2026-05-03T09:29:53.282Z</time></trkpt><trkpt lat="42.3113517" lon="13.7473467"><ele>495.0</ele><time>2026-05-03T09:29:54.282Z</time></trkpt><trkpt lat="42.31143" lon="13.7473867"><ele>495.0</ele><time>2026-05-03T09:29:55.282Z</time></trkpt><trkpt lat="42.3115083" lon="13.7474267"><ele>495.0</ele><time>2026-05-03T09:29:56.282Z</time></trkpt><trkpt lat="42.3115917" lon="13.74747"><ele>495.0</ele><time>2026-05-03T09:29:57.282Z</time></trkpt><trkpt lat="42.3116767" lon="13.7475167"><ele>495.0</ele><time>2026-05-03T09:29:58.283Z</time></trkpt><trkpt lat="42.3117567" lon="13.74756"><ele>496.6666666666667</ele><time>2026-05-03T09:29:59.282Z</time></trkpt><trkpt lat="42.3118417" lon="13.7476033"><ele>498.33333333333337</ele><time>2026-05-03T09:30:00.282Z</time></trkpt><trkpt lat="42.31192" lon="13.7476483"><ele>500.0</ele><time>2026-05-03T09:30:01.282Z</time></trkpt><trkpt lat="42.311995" lon="13.7476917"><ele>501.6666666666667</ele><time>2026-05-03T09:30:02.282Z</time></trkpt><trkpt lat="42.3120717" lon="13.74773"><ele>503.33333333333337</ele><time>2026-05-03T09:30:03.282Z</time></trkpt><trkpt lat="42.3121533" lon="13.747765"><ele>505.0</ele><time>2026-05-03T09:30:04.282Z</time></trkpt><trkpt lat="42.3122367" lon="13.7478083"><ele>499.83333333333337</ele><time>2026-05-03T09:30:05.282Z</time></trkpt><trkpt lat="42.312325" lon="13.7478533"><ele>494.6666666666667</ele><time>2026-05-03T09:30:06.282Z</time></trkpt><trkpt lat="42.3124017" lon="13.7478933"><ele>489.5</ele><time>2026-05-03T09:30:07.282Z</time></trkpt><trkpt lat="42.312475" lon="13.7479333"><ele>484.33333333333337</ele><time>2026-05-03T09:30:08.282Z</time></trkpt><trkpt lat="42.31254" lon="13.7479633"><ele>479.1666666666667</ele><time>2026-05-03T09:30:09.283Z</time></trkpt><trkpt lat="42.31261" lon="13.7480083"><ele>474.0</ele><time>2026-05-03T09:30:10.283Z</time></trkpt><trkpt lat="42.312685" lon="13.748045"><ele>474.0</ele><time>2026-05-03T09:30:11.282Z</time></trkpt><trkpt lat="42.3127567" lon="13.7480783"><ele>474.0</ele><time>2026-05-03T09:30:12.282Z</time></trkpt><trkpt lat="42.3128333" lon="13.7481167"><ele>474.0</ele><time>2026-05-03T09:30:13.282Z</time></trkpt><trkpt lat="42.3129117" lon="13.7481717"><ele>474.0</ele><time>2026-05-03T09:30:14.282Z</time></trkpt><trkpt lat="42.3130017" lon="13.7482217"><ele>474.0</ele><time>2026-05-03T09:30:15.282Z</time></trkpt><trkpt lat="42.3130883" lon="13.7482767"><ele>474.0</ele><time>2026-05-03T09:30:16.282Z</time></trkpt><trkpt lat="42.3131817" lon="13.7483233"><ele>473.6</ele><time>2026-05-03T09:30:17.283Z</time></trkpt><trkpt lat="42.31328" lon="13.7483717"><ele>473.2</ele><time>2026-05-03T09:30:18.282Z</time></trkpt><trkpt lat="42.313375" lon="13.7484117"><ele>472.80000000000007</ele><time>2026-05-03T09:30:19.282Z</time></trkpt><trkpt lat="42.3134633" lon="13.7484483"><ele>472.40000000000003</ele><time>2026-05-03T09:30:20.282Z</time></trkpt><trkpt lat="42.31354" lon="13.7484883"><ele>472.0</ele><time>2026-05-03T09:30:21.282Z</time></trkpt><trkpt lat="42.313615" lon="13.7485133"><ele>472.00000000000006</ele><time>2026-05-03T09:30:22.282Z</time></trkpt><trkpt lat="42.3136817" lon="13.748535"><ele>472.0</ele><time>2026-05-03T09:30:23.282Z</time></trkpt><trkpt lat="42.3137483" lon="13.7485483"><ele>472.0</ele><time>2026-05-03T09:30:24.282Z</time></trkpt><trkpt lat="42.3138283" lon="13.7485517"><ele>472.0</ele><time>2026-05-03T09:30:25.282Z</time></trkpt><trkpt lat="42.3139333" lon="13.7485567"><ele>472.00000000000006</ele><time>2026-05-03T09:30:26.282Z</time></trkpt><trkpt lat="42.31406" lon="13.74856"><ele>472.0</ele><time>2026-05-03T09:30:27.282Z</time></trkpt><trkpt lat="42.3141917" lon="13.7485583"><ele>466.25</ele><time>2026-05-03T09:30:28.282Z</time></trkpt><trkpt lat="42.3143233" lon="13.74856"><ele>460.5</ele><time>2026-05-03T09:30:29.282Z</time></trkpt><trkpt lat="42.3144467" lon="13.748565"><ele>454.75</ele><time>2026-05-03T09:30:30.282Z</time></trkpt><trkpt lat="42.3145633" lon="13.74857"><ele>449.0</ele><time>2026-05-03T09:30:31.282Z</time></trkpt><trkpt lat="42.3146817" lon="13.7485717"><ele>448.75</ele><time>2026-05-03T09:30:32.282Z</time></trkpt><trkpt lat="42.3148083" lon="13.7485783"><ele>448.5</ele><time>2026-05-03T09:30:33.282Z</time></trkpt><trkpt lat="42.3149383" lon="13.7485817"><ele>448.25</ele><time>2026-05-03T09:30:34.282Z</time></trkpt><trkpt lat="42.3150783" lon="13.7485917"><ele>448.0</ele><time>2026-05-03T09:30:35.282Z</time></trkpt><trkpt lat="42.315195" lon="13.748595"><ele>448.00000000000006</ele><time>2026-05-03T09:30:36.282Z</time></trkpt><trkpt lat="42.3152933" lon="13.7485933"><ele>448.0</ele><time>2026-05-03T09:30:37.283Z</time></trkpt><trkpt lat="42.3153833" lon="13.7485917"><ele>448.0</ele><time>2026-05-03T09:30:38.282Z</time></trkpt><trkpt lat="42.31547" lon="13.7485867"><ele>448.0</ele><time>2026-05-03T09:30:39.282Z</time></trkpt><trkpt lat="42.31555" lon="13.748575"><ele>448.00000000000006</ele><time>2026-05-03T09:30:40.282Z</time></trkpt><trkpt lat="42.3156367" lon="13.7485733"><ele>448.0</ele><time>2026-05-03T09:30:41.282Z</time></trkpt><trkpt lat="42.3157367" lon="13.7485633"><ele>448.59999999999997</ele><time>2026-05-03T09:30:42.283Z</time></trkpt><trkpt lat="42.3158317" lon="13.7485583"><ele>449.19999999999993</ele><time>2026-05-03T09:30:43.282Z</time></trkpt><trkpt lat="42.3159217" lon="13.7485683"><ele>449.8</ele><time>2026-05-03T09:30:44.282Z</time></trkpt><trkpt lat="42.3160117" lon="13.7485783"><ele>450.4</ele><time>2026-05-03T09:30:45.282Z</time></trkpt><trkpt lat="42.31611" lon="13.748595"><ele>451.0</ele><time>2026-05-03T09:30:46.282Z</time></trkpt><trkpt lat="42.3162067" lon="13.7486017"><ele>451.0</ele><time>2026-05-03T09:30:47.282Z</time></trkpt><trkpt lat="42.316295" lon="13.7486167"><ele>451.0</ele><time>2026-05-03T09:30:48.282Z</time></trkpt><trkpt lat="42.316385" lon="13.74865"><ele>451.0</ele><time>2026-05-03T09:30:49.282Z</time></trkpt><trkpt lat="42.3164717" lon="13.7487033"><ele>451.0</ele><time>2026-05-03T09:30:50.282Z</time></trkpt><trkpt lat="42.3165467" lon="13.7487567"><ele>451.0</ele><time>2026-05-03T09:30:51.282Z</time></trkpt><trkpt lat="42.31662" lon="13.7488233"><ele>452.5</ele><time>2026-05-03T09:30:52.282Z</time></trkpt><trkpt lat="42.31668" lon="13.7489017"><ele>454.0</ele><time>2026-05-03T09:30:53.283Z</time></trkpt><trkpt lat="42.3168183" lon="13.7490933"><ele>455.5</ele><time>2026-05-03T09:30:55.282Z</time></trkpt><trkpt lat="42.3168867" lon="13.7491833"><ele>457.0</ele><time>2026-05-03T09:30:56.282Z</time></trkpt><trkpt lat="42.3169533" lon="13.7492567"><ele>457.0</ele><time>2026-05-03T09:30:57.283Z</time></trkpt><trkpt lat="42.3170267" lon="13.7493167"><ele>457.00000000000006</ele><time>2026-05-03T09:30:58.282Z</time></trkpt><trkpt lat="42.3170933" lon="13.749375"><ele>457.00000000000006</ele><time>2026-05-03T09:30:59.282Z</time></trkpt><trkpt lat="42.3171717" lon="13.7494233"><ele>457.0</ele><time>2026-05-03T09:31:00.282Z</time></trkpt><trkpt lat="42.3172617" lon="13.74949"><ele>457.0</ele><time>2026-05-03T09:31:01.282Z</time></trkpt><trkpt lat="42.3173567" lon="13.7495667"><ele>456.20000000000005</ele><time>2026-05-03T09:31:02.282Z</time></trkpt><trkpt lat="42.3174567" lon="13.7496417"><ele>455.40000000000003</ele><time>2026-05-03T09:31:03.282Z</time></trkpt><trkpt lat="42.3175333" lon="13.7497067"><ele>454.59999999999997</ele><time>2026-05-03T09:31:04.282Z</time></trkpt><trkpt lat="42.3176033" lon="13.7497333"><ele>453.79999999999995</ele><time>2026-05-03T09:31:05.282Z</time></trkpt><trkpt lat="42.3177167" lon="13.7498"><ele>453.0</ele><time>2026-05-03T09:31:07.283Z</time></trkpt><trkpt lat="42.317775" lon="13.749855"><ele>453.0</ele><time>2026-05-03T09:31:08.282Z</time></trkpt><trkpt lat="42.317835" lon="13.749915"><ele>453.0</ele><time>2026-05-03T09:31:09.283Z</time></trkpt><trkpt lat="42.317905" lon="13.7499683"><ele>453.0</ele><time>2026-05-03T09:31:10.282Z</time></trkpt><trkpt lat="42.3179883" lon="13.750025"><ele>453.0</ele><time>2026-05-03T09:31:11.282Z</time></trkpt><trkpt lat="42.3180733" lon="13.7500817"><ele>453.0</ele><time>2026-05-03T09:31:12.282Z</time></trkpt><trkpt lat="42.3181383" lon="13.7501267"><ele>453.0</ele><time>2026-05-03T09:31:13.282Z</time></trkpt><trkpt lat="42.318215" lon="13.7502"><ele>452.6666666666667</ele><time>2026-05-03T09:31:15.282Z</time></trkpt><trkpt lat="42.3181917" lon="13.7502867"><ele>452.33333333333337</ele><time>2026-05-03T09:31:17.282Z</time></trkpt><trkpt lat="42.3180983" lon="13.75042"><ele>452.0</ele><time>2026-05-03T09:31:19.282Z</time></trkpt><trkpt lat="42.318045" lon="13.7505"><ele>451.6666666666667</ele><time>2026-05-03T09:31:20.282Z</time></trkpt><trkpt lat="42.3180017" lon="13.7505883"><ele>451.33333333333337</ele><time>2026-05-03T09:31:21.282Z</time></trkpt><trkpt lat="42.31796" lon="13.7506733"><ele>451.0</ele><time>2026-05-03T09:31:22.282Z</time></trkpt><trkpt lat="42.3179167" lon="13.7507683"><ele>449.85714285714283</ele><time>2026-05-03T09:31:23.282Z</time></trkpt><trkpt lat="42.3178733" lon="13.7508533"><ele>448.7142857142857</ele><time>2026-05-03T09:31:24.282Z</time></trkpt><trkpt lat="42.317825" lon="13.7509417"><ele>447.57142857142856</ele><time>2026-05-03T09:31:25.283Z</time></trkpt><trkpt lat="42.3177833" lon="13.751035"><ele>446.42857142857144</ele><time>2026-05-03T09:31:26.282Z</time></trkpt><trkpt lat="42.3177517" lon="13.7511267"><ele>445.28571428571433</ele><time>2026-05-03T09:31:27.282Z</time></trkpt><trkpt lat="42.317715" lon="13.75121"><ele>444.14285714285717</ele><time>2026-05-03T09:31:28.281Z</time></trkpt><trkpt lat="42.3176933" lon="13.75129"><ele>443.0</ele><time>2026-05-03T09:31:29.281Z</time></trkpt><trkpt lat="42.3176667" lon="13.7513967"><ele>442.4</ele><time>2026-05-03T09:31:31.281Z</time></trkpt><trkpt lat="42.3176483" lon="13.7515067"><ele>441.79999999999995</ele><time>2026-05-03T09:31:35.281Z</time></trkpt><trkpt lat="42.3177683" lon="13.7515383"><ele>441.2</ele><time>2026-05-03T09:31:38.281Z</time></trkpt><trkpt lat="42.31787" lon="13.7515333"><ele>440.6</ele><time>2026-05-03T09:31:39.281Z</time></trkpt><trkpt lat="42.317995" lon="13.7515"><ele>440.0</ele><time>2026-05-03T09:31:40.281Z</time></trkpt><trkpt lat="42.31812" lon="13.7514483"><ele>440.0</ele><time>2026-05-03T09:31:41.281Z</time></trkpt><trkpt lat="42.3182367" lon="13.7513833"><ele>440.0</ele><time>2026-05-03T09:31:42.281Z</time></trkpt><trkpt lat="42.3183483" lon="13.7513217"><ele>440.0</ele><time>2026-05-03T09:31:43.281Z</time></trkpt><trkpt lat="42.3184617" lon="13.7512833"><ele>440.0</ele><time>2026-05-03T09:31:44.281Z</time></trkpt><trkpt lat="42.31857" lon="13.7512683"><ele>439.99999999999994</ele><time>2026-05-03T09:31:45.281Z</time></trkpt><trkpt lat="42.3186567" lon="13.7512667"><ele>440.0</ele><time>2026-05-03T09:31:46.281Z</time></trkpt><trkpt lat="42.3187317" lon="13.75128"><ele>440.0</ele><time>2026-05-03T09:31:47.281Z</time></trkpt><trkpt lat="42.3188117" lon="13.7512917"><ele>440.0</ele><time>2026-05-03T09:31:48.281Z</time></trkpt><trkpt lat="42.3188983" lon="13.7513083"><ele>439.99999999999994</ele><time>2026-05-03T09:31:49.281Z</time></trkpt><trkpt lat="42.318975" lon="13.7513167"><ele>440.0</ele><time>2026-05-03T09:31:50.281Z</time></trkpt><trkpt lat="42.319045" lon="13.7513267"><ele>440.99999999999994</ele><time>2026-05-03T09:31:51.281Z</time></trkpt><trkpt lat="42.3191083" lon="13.7513367"><ele>442.0</ele><time>2026-05-03T09:31:52.281Z</time></trkpt><trkpt lat="42.3191983" lon="13.7514117"><ele>443.0</ele><time>2026-05-03T09:31:54.281Z</time></trkpt><trkpt lat="42.319235" lon="13.7515"><ele>444.0</ele><time>2026-05-03T09:31:55.281Z</time></trkpt><trkpt lat="42.3192667" lon="13.7516033"><ele>444.99999999999994</ele><time>2026-05-03T09:31:56.281Z</time></trkpt><trkpt lat="42.31931" lon="13.75171"><ele>446.0</ele><time>2026-05-03T09:31:57.281Z</time></trkpt><trkpt lat="42.3193467" lon="13.7518083"><ele>443.8333333333333</ele><time>2026-05-03T09:31:58.281Z</time></trkpt><trkpt lat="42.31939" lon="13.751905"><ele>441.66666666666663</ele><time>2026-05-03T09:31:59.281Z</time></trkpt><trkpt lat="42.3194317" lon="13.7519883"><ele>439.5</ele><time>2026-05-03T09:32:00.281Z</time></trkpt><trkpt lat="42.3194733" lon="13.7520667"><ele>437.33333333333337</ele><time>2026-05-03T09:32:01.281Z</time></trkpt><trkpt lat="42.3195117" lon="13.7521383"><ele>435.1666666666667</ele><time>2026-05-03T09:32:02.281Z</time></trkpt><trkpt lat="42.3195767" lon="13.752295"><ele>433.0</ele><time>2026-05-03T09:32:04.281Z</time></trkpt><trkpt lat="42.319605" lon="13.75239"><ele>433.00000000000006</ele><time>2026-05-03T09:32:05.282Z</time></trkpt><trkpt lat="42.31963" lon="13.7524867"><ele>433.0</ele><time>2026-05-03T09:32:06.281Z</time></trkpt><trkpt lat="42.319655" lon="13.7525817"><ele>433.0</ele><time>2026-05-03T09:32:07.281Z</time></trkpt><trkpt lat="42.31968" lon="13.7526883"><ele>433.0</ele><time>2026-05-03T09:32:08.281Z</time></trkpt><trkpt lat="42.3197133" lon="13.75281"><ele>433.00000000000006</ele><time>2026-05-03T09:32:09.281Z</time></trkpt><trkpt lat="42.3197483" lon="13.75294"><ele>433.0</ele><time>2026-05-03T09:32:10.281Z</time></trkpt><trkpt lat="42.3197917" lon="13.7530767"><ele>432.59999999999997</ele><time>2026-05-03T09:32:11.282Z</time></trkpt><trkpt lat="42.31982" lon="13.7532117"><ele>432.19999999999993</ele><time>2026-05-03T09:32:12.281Z</time></trkpt><trkpt lat="42.3198567" lon="13.753345"><ele>431.8</ele><time>2026-05-03T09:32:13.281Z</time></trkpt><trkpt lat="42.3198917" lon="13.7534733"><ele>431.4</ele><time>2026-05-03T09:32:14.281Z</time></trkpt><trkpt lat="42.3199217" lon="13.7535917"><ele>431.0</ele><time>2026-05-03T09:32:15.281Z</time></trkpt><trkpt lat="42.3199467" lon="13.7537017"><ele>430.99999999999994</ele><time>2026-05-03T09:32:16.281Z</time></trkpt><trkpt lat="42.3199733" lon="13.7538083"><ele>431.0</ele><time>2026-05-03T09:32:17.281Z</time></trkpt><trkpt lat="42.3200083" lon="13.753915"><ele>431.0</ele><time>2026-05-03T09:32:18.282Z</time></trkpt><trkpt lat="42.32004" lon="13.75402"><ele>431.0</ele><time>2026-05-03T09:32:19.281Z</time></trkpt><trkpt lat="42.32007" lon="13.7541133"><ele>430.99999999999994</ele><time>2026-05-03T09:32:20.281Z</time></trkpt><trkpt lat="42.3201083" lon="13.754215"><ele>431.0</ele><time>2026-05-03T09:32:21.281Z</time></trkpt><trkpt lat="42.3201633" lon="13.7543317"><ele>430.6</ele><time>2026-05-03T09:32:22.281Z</time></trkpt><trkpt lat="42.3202267" lon="13.7544583"><ele>430.20000000000005</ele><time>2026-05-03T09:32:23.281Z</time></trkpt><trkpt lat="42.3202867" lon="13.7545883"><ele>429.79999999999995</ele><time>2026-05-03T09:32:24.281Z</time></trkpt><trkpt lat="42.3203383" lon="13.7547167"><ele>429.4</ele><time>2026-05-03T09:32:25.281Z</time></trkpt><trkpt lat="42.3203817" lon="13.7548467"><ele>429.0</ele><time>2026-05-03T09:32:26.281Z</time></trkpt><trkpt lat="42.3204233" lon="13.75496"><ele>429.0</ele><time>2026-05-03T09:32:27.281Z</time></trkpt><trkpt lat="42.3204533" lon="13.7550767"><ele>429.0</ele><time>2026-05-03T09:32:28.281Z</time></trkpt><trkpt lat="42.3204883" lon="13.7551767"><ele>429.0</ele><time>2026-05-03T09:32:29.281Z</time></trkpt><trkpt lat="42.32052" lon="13.7552667"><ele>429.0</ele><time>2026-05-03T09:32:30.281Z</time></trkpt><trkpt lat="42.3205583" lon="13.755345"><ele>429.0</ele><time>2026-05-03T09:32:31.281Z</time></trkpt><trkpt lat="42.320615" lon="13.7554217"><ele>429.0</ele><time>2026-05-03T09:32:32.281Z</time></trkpt><trkpt lat="42.3206817" lon="13.7554917"><ele>430.6</ele><time>2026-05-03T09:32:33.281Z</time></trkpt><trkpt lat="42.3207667" lon="13.7555633"><ele>432.2</ele><time>2026-05-03T09:32:34.281Z</time></trkpt><trkpt lat="42.320845" lon="13.7556383"><ele>433.80000000000007</ele><time>2026-05-03T09:32:35.281Z</time></trkpt><trkpt lat="42.3209267" lon="13.7557033"><ele>435.40000000000003</ele><time>2026-05-03T09:32:36.281Z</time></trkpt><trkpt lat="42.3210083" lon="13.755775"><ele>437.0</ele><time>2026-05-03T09:32:37.281Z</time></trkpt><trkpt lat="42.3210767" lon="13.755855"><ele>437.0</ele><time>2026-05-03T09:32:38.281Z</time></trkpt><trkpt lat="42.321145" lon="13.7559433"><ele>437.00000000000006</ele><time>2026-05-03T09:32:39.281Z</time></trkpt><trkpt lat="42.3212167" lon="13.7560467"><ele>437.00000000000006</ele><time>2026-05-03T09:32:40.282Z</time></trkpt><trkpt lat="42.3212867" lon="13.7561433"><ele>437.0</ele><time>2026-05-03T09:32:41.281Z</time></trkpt><trkpt lat="42.3213567" lon="13.7562383"><ele>437.0</ele><time>2026-05-03T09:32:42.282Z</time></trkpt><trkpt lat="42.3214383" lon="13.75633"><ele>439.5</ele><time>2026-05-03T09:32:43.281Z</time></trkpt><trkpt lat="42.3215267" lon="13.7564233"><ele>442.0</ele><time>2026-05-03T09:32:44.281Z</time></trkpt><trkpt lat="42.321625" lon="13.75652"><ele>444.5</ele><time>2026-05-03T09:32:45.281Z</time></trkpt><trkpt lat="42.32172" lon="13.75662"><ele>447.0</ele><time>2026-05-03T09:32:46.281Z</time></trkpt><trkpt lat="42.32181" lon="13.7567033"><ele>447.0</ele><time>2026-05-03T09:32:47.281Z</time></trkpt><trkpt lat="42.3218983" lon="13.7567833"><ele>447.00000000000006</ele><time>2026-05-03T09:32:48.281Z</time></trkpt><trkpt lat="42.3219867" lon="13.7568317"><ele>447.00000000000006</ele><time>2026-05-03T09:32:49.281Z</time></trkpt><trkpt lat="42.3220733" lon="13.75688"><ele>447.0</ele><time>2026-05-03T09:32:50.282Z</time></trkpt><trkpt lat="42.32216" lon="13.7569217"><ele>447.0</ele><time>2026-05-03T09:32:51.281Z</time></trkpt><trkpt lat="42.3222267" lon="13.7569833"><ele>448.8333333333333</ele><time>2026-05-03T09:32:52.282Z</time></trkpt><trkpt lat="42.3222867" lon="13.757055"><ele>450.66666666666663</ele><time>2026-05-03T09:32:53.281Z</time></trkpt><trkpt lat="42.3223367" lon="13.7571383"><ele>452.5</ele><time>2026-05-03T09:32:54.281Z</time></trkpt><trkpt lat="42.32239" lon="13.757215"><ele>454.3333333333333</ele><time>2026-05-03T09:32:55.281Z</time></trkpt><trkpt lat="42.322445" lon="13.7572917"><ele>456.16666666666663</ele><time>2026-05-03T09:32:56.281Z</time></trkpt><trkpt lat="42.3224867" lon="13.75737"><ele>458.0</ele><time>2026-05-03T09:32:57.281Z</time></trkpt><trkpt lat="42.3225317" lon="13.7574533"><ele>457.99999999999994</ele><time>2026-05-03T09:32:58.281Z</time></trkpt><trkpt lat="42.3225667" lon="13.7575567"><ele>458.0</ele><time>2026-05-03T09:32:59.282Z</time></trkpt><trkpt lat="42.322605" lon="13.7576733"><ele>458.0</ele><time>2026-05-03T09:33:00.281Z</time></trkpt><trkpt lat="42.3226367" lon="13.7577967"><ele>458.0</ele><time>2026-05-03T09:33:01.281Z</time></trkpt><trkpt lat="42.3226733" lon="13.757905"><ele>457.99999999999994</ele><time>2026-05-03T09:33:02.281Z</time></trkpt><trkpt lat="42.322715" lon="13.7580017"><ele>458.0</ele><time>2026-05-03T09:33:03.281Z</time></trkpt><trkpt lat="42.3227417" lon="13.758085"><ele>458.49999999999994</ele><time>2026-05-03T09:33:04.281Z</time></trkpt><trkpt lat="42.3227917" lon="13.7581567"><ele>459.0</ele><time>2026-05-03T09:33:06.281Z</time></trkpt><trkpt lat="42.3228789" lon="13.7581943"><ele>459.5</ele><time>2026-05-03T09:33:08.281Z</time></trkpt><trkpt lat="42.3229588" lon="13.7582004"><ele>460.0</ele><time>2026-05-03T09:33:09.281Z</time></trkpt><trkpt lat="42.3230462" lon="13.7582167"><ele>460.49999999999994</ele><time>2026-05-03T09:33:10.282Z</time></trkpt><trkpt lat="42.3231463" lon="13.7582494"><ele>461.0</ele><time>2026-05-03T09:33:11.281Z</time></trkpt><trkpt lat="42.3232463" lon="13.7582918"><ele>463.0</ele><time>2026-05-03T09:33:12.281Z</time></trkpt><trkpt lat="42.3233496" lon="13.7583356"><ele>465.0</ele><time>2026-05-03T09:33:13.281Z</time></trkpt><trkpt lat="42.3234511" lon="13.7583865"><ele>467.0</ele><time>2026-05-03T09:33:14.281Z</time></trkpt><trkpt lat="42.3235518" lon="13.758441"><ele>469.0</ele><time>2026-05-03T09:33:15.281Z</time></trkpt><trkpt lat="42.3236422" lon="13.7584963"><ele>471.0</ele><time>2026-05-03T09:33:16.281Z</time></trkpt><trkpt lat="42.3237241" lon="13.7585547"><ele>471.6</ele><time>2026-05-03T09:33:17.281Z</time></trkpt><trkpt lat="42.3237997" lon="13.7586236"><ele>472.20000000000005</ele><time>2026-05-03T09:33:18.281Z</time></trkpt><trkpt lat="42.3238635" lon="13.7587071"><ele>472.79999999999995</ele><time>2026-05-03T09:33:19.281Z</time></trkpt><trkpt lat="42.3239157" lon="13.7588096"><ele>473.4</ele><time>2026-05-03T09:33:20.281Z</time></trkpt><trkpt lat="42.3239565" lon="13.758925"><ele>474.0</ele><time>2026-05-03T09:33:21.281Z</time></trkpt><trkpt lat="42.3239822" lon="13.7590512"><ele>475.0</ele><time>2026-05-03T09:33:22.281Z</time></trkpt><trkpt lat="42.3240027" lon="13.7591744"><ele>476.0</ele><time>2026-05-03T09:33:23.282Z</time></trkpt><trkpt lat="42.3240131" lon="13.7592847"><ele>477.0</ele><time>2026-05-03T09:33:24.281Z</time></trkpt><trkpt lat="42.3240128" lon="13.7593746"><ele>478.0</ele><time>2026-05-03T09:33:25.281Z</time></trkpt><trkpt lat="42.3240624" lon="13.7594741"><ele>479.0</ele><time>2026-05-03T09:33:27.281Z</time></trkpt><trkpt lat="42.32417" lon="13.7594883"><ele>480.0</ele><time>2026-05-03T09:33:29.281Z</time></trkpt><trkpt lat="42.3242433" lon="13.75949"><ele>481.4</ele><time>2026-05-03T09:33:30.282Z</time></trkpt><trkpt lat="42.3243317" lon="13.7594967"><ele>482.8</ele><time>2026-05-03T09:33:31.281Z</time></trkpt><trkpt lat="42.3244267" lon="13.7595017"><ele>484.20000000000005</ele><time>2026-05-03T09:33:32.281Z</time></trkpt><trkpt lat="42.32451" lon="13.7595067"><ele>485.6</ele><time>2026-05-03T09:33:33.281Z</time></trkpt><trkpt lat="42.3246117" lon="13.759515"><ele>487.0</ele><time>2026-05-03T09:33:35.281Z</time></trkpt><trkpt lat="42.3247283" lon="13.7594583"><ele>487.6666666666667</ele><time>2026-05-03T09:33:37.281Z</time></trkpt><trkpt lat="42.32479" lon="13.7593833"><ele>488.33333333333337</ele><time>2026-05-03T09:33:38.281Z</time></trkpt><trkpt lat="42.3248517" lon="13.7592833"><ele>489.0</ele><time>2026-05-03T09:33:39.281Z</time></trkpt><trkpt lat="42.324905" lon="13.7591833"><ele>489.66666666666663</ele><time>2026-05-03T09:33:40.281Z</time></trkpt><trkpt lat="42.32493" lon="13.7590733"><ele>490.3333333333333</ele><time>2026-05-03T09:33:41.281Z</time></trkpt><trkpt lat="42.3249367" lon="13.7589817"><ele>491.0</ele><time>2026-05-03T09:33:42.281Z</time></trkpt><trkpt lat="42.324955" lon="13.758835"><ele>490.99999999999994</ele><time>2026-05-03T09:33:44.281Z</time></trkpt><trkpt lat="42.32502" lon="13.7587933"><ele>491.0</ele><time>2026-05-03T09:33:47.281Z</time></trkpt><trkpt lat="42.32502" lon="13.758925"><ele>491.0</ele><time>2026-05-03T09:33:50.281Z</time></trkpt><trkpt lat="42.3250017" lon="13.75902"><ele>491.0</ele><time>2026-05-03T09:33:51.281Z</time></trkpt><trkpt lat="42.3249783" lon="13.759125"><ele>490.99999999999994</ele><time>2026-05-03T09:33:52.281Z</time></trkpt><trkpt lat="42.3249633" lon="13.7592333"><ele>491.0</ele><time>2026-05-03T09:33:53.281Z</time></trkpt><trkpt lat="42.32495" lon="13.7593383"><ele>491.57142857142856</ele><time>2026-05-03T09:33:54.281Z</time></trkpt><trkpt lat="42.3249767" lon="13.759425"><ele>492.1428571428571</ele><time>2026-05-03T09:33:55.281Z</time></trkpt><trkpt lat="42.325" lon="13.7595067"><ele>492.71428571428567</ele><time>2026-05-03T09:33:56.281Z</time></trkpt><trkpt lat="42.324995" lon="13.7596067"><ele>493.2857142857142</ele><time>2026-05-03T09:33:58.282Z</time></trkpt><trkpt lat="42.3249917" lon="13.7596967"><ele>493.85714285714283</ele><time>2026-05-03T09:34:03.281Z</time></trkpt><trkpt lat="42.32503" lon="13.75977"><ele>494.42857142857133</ele><time>2026-05-03T09:34:07.281Z</time></trkpt><trkpt lat="42.325025" lon="13.7598683"><ele>494.99999999999994</ele><time>2026-05-03T09:34:10.281Z</time></trkpt><trkpt lat="42.325035" lon="13.7599733"><ele>495.0</ele><time>2026-05-03T09:34:13.281Z</time></trkpt><trkpt lat="42.324995" lon="13.7598433"><ele>495.0</ele><time>2026-05-03T09:35:24.281Z</time></trkpt><trkpt lat="42.3250558" lon="13.7597888"><ele>495.0</ele><time>2026-05-03T09:35:32.404Z</time></trkpt><trkpt lat="42.325071" lon="13.7596938"><ele>495.0</ele><time>2026-05-03T09:37:31.408Z</time></trkpt><trkpt lat="42.3251243" lon="13.7597576"><ele>495.0</ele><time>2026-05-03T09:43:45.409Z</time></trkpt><trkpt lat="42.3251077" lon="13.7596595"><ele>495.0</ele><time>2026-05-03T09:49:27.383Z</time></trkpt><trkpt lat="42.3250245" lon="13.7596545"><ele>494.99999999999994</ele><time>2026-05-03T09:53:39.394Z</time></trkpt><trkpt lat="42.3249652" lon="13.7597598"><ele>495.0</ele><time>2026-05-03T09:54:00.341Z</time></trkpt><trkpt lat="42.3250398" lon="13.7598077"><ele>494.99999999999994</ele><time>2026-05-03T09:54:32.348Z</time></trkpt><trkpt lat="42.3251008" lon="13.7597828"><ele>494.99999999999994</ele><time>2026-05-03T09:54:38.409Z</time></trkpt><trkpt lat="42.3250609" lon="13.7596989"><ele>495.0</ele><time>2026-05-03T09:55:26.396Z</time></trkpt><trkpt lat="42.3249962" lon="13.7597095"><ele>494.99999999999994</ele><time>2026-05-03T09:55:30.401Z</time></trkpt><trkpt lat="42.3249381" lon="13.7597438"><ele>494.99999999999994</ele><time>2026-05-03T09:55:37.419Z</time></trkpt><trkpt lat="42.3249874" lon="13.759859"><ele>494.99999999999994</ele><time>2026-05-03T09:56:10.382Z</time></trkpt><trkpt lat="42.3250065" lon="13.7599443"><ele>495.0</ele><time>2026-05-03T09:56:17.217Z</time></trkpt><trkpt lat="42.3249217" lon="13.7599433"><ele>494.99999999999994</ele><time>2026-05-03T09:58:11.281Z</time></trkpt><trkpt lat="42.3249017" lon="13.759855"><ele>494.99999999999994</ele><time>2026-05-03T09:58:15.281Z</time></trkpt><trkpt lat="42.3249417" lon="13.7597817"><ele>495.0</ele><time>2026-05-03T09:58:18.281Z</time></trkpt><trkpt lat="42.3249967" lon="13.7597367"><ele>494.99999999999994</ele><time>2026-05-03T09:58:22.281Z</time></trkpt><trkpt lat="42.3250583" lon="13.759655"><ele>494.99999999999994</ele><time>2026-05-03T09:58:25.281Z</time></trkpt><trkpt lat="42.3250767" lon="13.7595667"><ele>495.0</ele><time>2026-05-03T09:58:28.281Z</time></trkpt><trkpt lat="42.32513" lon="13.75952"><ele>495.0</ele><time>2026-05-03T09:58:30.281Z</time></trkpt><trkpt lat="42.3252133" lon="13.759585"><ele>495.0</ele><time>2026-05-03T09:58:33.281Z</time></trkpt><trkpt lat="42.3252867" lon="13.7597433"><ele>495.0</ele><time>2026-05-03T09:58:35.281Z</time></trkpt><trkpt lat="42.3253233" lon="13.75984"><ele>495.0</ele><time>2026-05-03T09:58:36.281Z</time></trkpt><trkpt lat="42.325385" lon="13.7599617"><ele>495.0</ele><time>2026-05-03T09:58:38.282Z</time></trkpt><trkpt lat="42.3254333" lon="13.7600483"><ele>495.0</ele><time>2026-05-03T09:58:40.281Z</time></trkpt><trkpt lat="42.3254583" lon="13.7601283"><ele>495.0</ele><time>2026-05-03T09:58:42.281Z</time></trkpt><trkpt lat="42.3254233" lon="13.7602167"><ele>495.0</ele><time>2026-05-03T09:58:46.281Z</time></trkpt><trkpt lat="42.325395" lon="13.7603283"><ele>495.0</ele><time>2026-05-03T09:58:48.281Z</time></trkpt><trkpt lat="42.3253717" lon="13.760425"><ele>495.0</ele><time>2026-05-03T09:58:50.282Z</time></trkpt><trkpt lat="42.3253067" lon="13.7604733"><ele>495.8333333333333</ele><time>2026-05-03T09:58:52.28Z</time></trkpt><trkpt lat="42.3252417" lon="13.760475"><ele>496.66666666666663</ele><time>2026-05-03T09:58:53.28Z</time></trkpt><trkpt lat="42.3251733" lon="13.76047"><ele>497.5</ele><time>2026-05-03T09:58:54.281Z</time></trkpt><trkpt lat="42.3251017" lon="13.76047"><ele>498.3333333333333</ele><time>2026-05-03T09:58:55.28Z</time></trkpt><trkpt lat="42.3250367" lon="13.7604867"><ele>499.16666666666663</ele><time>2026-05-03T09:58:56.28Z</time></trkpt><trkpt lat="42.324925" lon="13.760575"><ele>500.0</ele><time>2026-05-03T09:58:58.28Z</time></trkpt><trkpt lat="42.32485" lon="13.7606617"><ele>500.0</ele><time>2026-05-03T09:58:59.28Z</time></trkpt><trkpt lat="42.32477" lon="13.7607483"><ele>500.0</ele><time>2026-05-03T09:59:00.28Z</time></trkpt><trkpt lat="42.3246817" lon="13.7608033"><ele>500.0</ele><time>2026-05-03T09:59:01.28Z</time></trkpt><trkpt lat="42.3245817" lon="13.7608283"><ele>500.0</ele><time>2026-05-03T09:59:02.28Z</time></trkpt><trkpt lat="42.3244617" lon="13.7608433"><ele>500.0</ele><time>2026-05-03T09:59:03.28Z</time></trkpt><trkpt lat="42.32433" lon="13.76084"><ele>500.0</ele><time>2026-05-03T09:59:04.28Z</time></trkpt><trkpt lat="42.324195" lon="13.760815"><ele>500.0</ele><time>2026-05-03T09:59:05.28Z</time></trkpt><trkpt lat="42.3240717" lon="13.7607933"><ele>500.0</ele><time>2026-05-03T09:59:06.28Z</time></trkpt><trkpt lat="42.3239533" lon="13.7607867"><ele>500.0</ele><time>2026-05-03T09:59:07.28Z</time></trkpt><trkpt lat="42.3238367" lon="13.7607833"><ele>499.75</ele><time>2026-05-03T09:59:08.281Z</time></trkpt><trkpt lat="42.323725" lon="13.7607833"><ele>499.5</ele><time>2026-05-03T09:59:09.28Z</time></trkpt><trkpt lat="42.3236067" lon="13.7607783"><ele>499.25</ele><time>2026-05-03T09:59:10.28Z</time></trkpt><trkpt lat="42.3234917" lon="13.7607767"><ele>499.0</ele><time>2026-05-03T09:59:11.28Z</time></trkpt><trkpt lat="42.3233667" lon="13.7607867"><ele>499.0</ele><time>2026-05-03T09:59:12.28Z</time></trkpt><trkpt lat="42.32324" lon="13.7608067"><ele>499.0</ele><time>2026-05-03T09:59:13.28Z</time></trkpt><trkpt lat="42.3231067" lon="13.7608567"><ele>499.0</ele><time>2026-05-03T09:59:14.28Z</time></trkpt><trkpt lat="42.3229817" lon="13.760925"><ele>499.0</ele><time>2026-05-03T09:59:15.28Z</time></trkpt><trkpt lat="42.32285" lon="13.7610117"><ele>498.33333333333337</ele><time>2026-05-03T09:59:16.28Z</time></trkpt><trkpt lat="42.32271" lon="13.7611117"><ele>497.66666666666663</ele><time>2026-05-03T09:59:17.28Z</time></trkpt><trkpt lat="42.3225567" lon="13.7612317"><ele>497.0</ele><time>2026-05-03T09:59:18.28Z</time></trkpt><trkpt lat="42.3223933" lon="13.761345"><ele>497.0</ele><time>2026-05-03T09:59:19.281Z</time></trkpt><trkpt lat="42.322245" lon="13.7614417"><ele>497.0</ele><time>2026-05-03T09:59:20.28Z</time></trkpt><trkpt lat="42.3221117" lon="13.7615333"><ele>497.0</ele><time>2026-05-03T09:59:21.28Z</time></trkpt><trkpt lat="42.3219917" lon="13.7616067"><ele>497.0</ele><time>2026-05-03T09:59:22.28Z</time></trkpt><trkpt lat="42.3219083" lon="13.7616583"><ele>495.16666666666663</ele><time>2026-05-03T09:59:23.28Z</time></trkpt><trkpt lat="42.321825" lon="13.7617133"><ele>493.3333333333333</ele><time>2026-05-03T09:59:24.28Z</time></trkpt><trkpt lat="42.3217633" lon="13.7617533"><ele>491.5</ele><time>2026-05-03T09:59:25.28Z</time></trkpt><trkpt lat="42.3216617" lon="13.761755"><ele>489.66666666666663</ele><time>2026-05-03T09:59:27.28Z</time></trkpt><trkpt lat="42.321605" lon="13.761715"><ele>487.8333333333333</ele><time>2026-05-03T09:59:28.28Z</time></trkpt><trkpt lat="42.3215417" lon="13.76164"><ele>486.0</ele><time>2026-05-03T09:59:29.28Z</time></trkpt><trkpt lat="42.321485" lon="13.7615567"><ele>486.0</ele><time>2026-05-03T09:59:30.28Z</time></trkpt><trkpt lat="42.3214433" lon="13.7614583"><ele>486.0</ele><time>2026-05-03T09:59:31.28Z</time></trkpt><trkpt lat="42.3214133" lon="13.7613683"><ele>486.0</ele><time>2026-05-03T09:59:32.281Z</time></trkpt><trkpt lat="42.3214033" lon="13.76127"><ele>486.0</ele><time>2026-05-03T09:59:33.28Z</time></trkpt><trkpt lat="42.3213967" lon="13.7611617"><ele>486.0</ele><time>2026-05-03T09:59:34.28Z</time></trkpt><trkpt lat="42.3213983" lon="13.761065"><ele>486.0</ele><time>2026-05-03T09:59:35.28Z</time></trkpt><trkpt lat="42.32139" lon="13.76098"><ele>486.0</ele><time>2026-05-03T09:59:36.28Z</time></trkpt><trkpt lat="42.3213733" lon="13.7608933"><ele>483.3333333333333</ele><time>2026-05-03T09:59:37.28Z</time></trkpt><trkpt lat="42.32133" lon="13.7607583"><ele>480.66666666666663</ele><time>2026-05-03T09:59:39.28Z</time></trkpt><trkpt lat="42.3212917" lon="13.7606467"><ele>478.0</ele><time>2026-05-03T09:59:41.28Z</time></trkpt><trkpt lat="42.32124" lon="13.7605633"><ele>475.3333333333333</ele><time>2026-05-03T09:59:46.28Z</time></trkpt><trkpt lat="42.3212483" lon="13.7604733"><ele>472.66666666666663</ele><time>2026-05-03T09:59:48.28Z</time></trkpt><trkpt lat="42.3212567" lon="13.76037"><ele>470.0</ele><time>2026-05-03T09:59:51.28Z</time></trkpt><trkpt lat="42.32118" lon="13.7603733"><ele>469.99999999999994</ele><time>2026-05-03T10:00:01.281Z</time></trkpt><trkpt lat="42.3211183" lon="13.7604233"><ele>470.0</ele><time>2026-05-03T10:00:03.28Z</time></trkpt><trkpt lat="42.3210667" lon="13.76048"><ele>470.0</ele><time>2026-05-03T10:00:06.28Z</time></trkpt><trkpt lat="42.32094" lon="13.76053"><ele>470.0</ele><time>2026-05-03T10:00:26.28Z</time></trkpt><trkpt lat="42.3208783" lon="13.76056"><ele>469.99999999999994</ele><time>2026-05-03T10:00:27.28Z</time></trkpt><trkpt lat="42.3208083" lon="13.7606017"><ele>470.0</ele><time>2026-05-03T10:00:28.28Z</time></trkpt><trkpt lat="42.3207483" lon="13.760645"><ele>470.0</ele><time>2026-05-03T10:00:29.28Z</time></trkpt><trkpt lat="42.3206317" lon="13.760725"><ele>470.0</ele><time>2026-05-03T10:00:31.28Z</time></trkpt><trkpt lat="42.32057" lon="13.760765"><ele>470.0</ele><time>2026-05-03T10:00:32.28Z</time></trkpt><trkpt lat="42.3205017" lon="13.76082"><ele>470.0</ele><time>2026-05-03T10:00:33.28Z</time></trkpt><trkpt lat="42.3204317" lon="13.76089"><ele>470.0</ele><time>2026-05-03T10:00:34.28Z</time></trkpt><trkpt lat="42.3203333" lon="13.7609883"><ele>469.0</ele><time>2026-05-03T10:00:35.28Z</time></trkpt><trkpt lat="42.3202417" lon="13.7611017"><ele>468.0</ele><time>2026-05-03T10:00:36.28Z</time></trkpt><trkpt lat="42.3201533" lon="13.7612033"><ele>467.0</ele><time>2026-05-03T10:00:37.28Z</time></trkpt><trkpt lat="42.3200717" lon="13.761315"><ele>466.0</ele><time>2026-05-03T10:00:38.28Z</time></trkpt><trkpt lat="42.3199783" lon="13.761415"><ele>466.0</ele><time>2026-05-03T10:00:39.28Z</time></trkpt><trkpt lat="42.319885" lon="13.7615033"><ele>466.0</ele><time>2026-05-03T10:00:40.28Z</time></trkpt><trkpt lat="42.31978" lon="13.7615833"><ele>466.0</ele><time>2026-05-03T10:00:41.28Z</time></trkpt><trkpt lat="42.3196833" lon="13.7616633"><ele>466.0</ele><time>2026-05-03T10:00:42.28Z</time></trkpt><trkpt lat="42.31959" lon="13.7617317"><ele>465.6</ele><time>2026-05-03T10:00:43.28Z</time></trkpt><trkpt lat="42.3194967" lon="13.7618067"><ele>465.20000000000005</ele><time>2026-05-03T10:00:44.28Z</time></trkpt><trkpt lat="42.3194033" lon="13.7618733"><ele>464.79999999999995</ele><time>2026-05-03T10:00:45.28Z</time></trkpt><trkpt lat="42.3193117" lon="13.7619383"><ele>464.4</ele><time>2026-05-03T10:00:46.28Z</time></trkpt><trkpt lat="42.3192117" lon="13.7620167"><ele>464.0</ele><time>2026-05-03T10:00:47.28Z</time></trkpt><trkpt lat="42.3191067" lon="13.7620933"><ele>464.0</ele><time>2026-05-03T10:00:48.28Z</time></trkpt><trkpt lat="42.319005" lon="13.7621617"><ele>464.0</ele><time>2026-05-03T10:00:49.28Z</time></trkpt><trkpt lat="42.318905" lon="13.7622333"><ele>464.0</ele><time>2026-05-03T10:00:50.28Z</time></trkpt><trkpt lat="42.3188067" lon="13.76231"><ele>464.0</ele><time>2026-05-03T10:00:51.28Z</time></trkpt><trkpt lat="42.3187017" lon="13.762395"><ele>463.75</ele><time>2026-05-03T10:00:52.28Z</time></trkpt><trkpt lat="42.3185967" lon="13.762485"><ele>463.5</ele><time>2026-05-03T10:00:53.28Z</time></trkpt><trkpt lat="42.31849" lon="13.76258"><ele>463.25</ele><time>2026-05-03T10:00:54.28Z</time></trkpt><trkpt lat="42.31839" lon="13.7626767"><ele>463.0</ele><time>2026-05-03T10:00:55.28Z</time></trkpt><trkpt lat="42.318285" lon="13.762785"><ele>463.0</ele><time>2026-05-03T10:00:56.28Z</time></trkpt><trkpt lat="42.3181833" lon="13.7628717"><ele>462.99999999999994</ele><time>2026-05-03T10:00:57.28Z</time></trkpt><trkpt lat="42.31809" lon="13.762955"><ele>462.99999999999994</ele><time>2026-05-03T10:00:58.28Z</time></trkpt><trkpt lat="42.318005" lon="13.7630283"><ele>463.0</ele><time>2026-05-03T10:00:59.28Z</time></trkpt><trkpt lat="42.317925" lon="13.7631017"><ele>463.0</ele><time>2026-05-03T10:01:00.281Z</time></trkpt><trkpt lat="42.317845" lon="13.7631817"><ele>462.2</ele><time>2026-05-03T10:01:01.28Z</time></trkpt><trkpt lat="42.3177667" lon="13.7632633"><ele>461.4</ele><time>2026-05-03T10:01:02.28Z</time></trkpt><trkpt lat="42.31769" lon="13.7633467"><ele>460.59999999999997</ele><time>2026-05-03T10:01:03.28Z</time></trkpt><trkpt lat="42.3176167" lon="13.7634483"><ele>459.79999999999995</ele><time>2026-05-03T10:01:04.28Z</time></trkpt><trkpt lat="42.3175517" lon="13.7635433"><ele>459.0</ele><time>2026-05-03T10:01:05.28Z</time></trkpt><trkpt lat="42.3174883" lon="13.763645"><ele>459.0</ele><time>2026-05-03T10:01:06.281Z</time></trkpt><trkpt lat="42.3174133" lon="13.7637783"><ele>459.0</ele><time>2026-05-03T10:01:07.28Z</time></trkpt><trkpt lat="42.317315" lon="13.7639533"><ele>459.0</ele><time>2026-05-03T10:01:08.28Z</time></trkpt><trkpt lat="42.3172117" lon="13.7641133"><ele>459.0</ele><time>2026-05-03T10:01:09.28Z</time></trkpt><trkpt lat="42.317115" lon="13.7642683"><ele>457.75</ele><time>2026-05-03T10:01:10.28Z</time></trkpt><trkpt lat="42.3170233" lon="13.76442"><ele>456.5</ele><time>2026-05-03T10:01:11.28Z</time></trkpt><trkpt lat="42.3169317" lon="13.764575"><ele>455.25</ele><time>2026-05-03T10:01:12.28Z</time></trkpt><trkpt lat="42.3168367" lon="13.7647117"><ele>454.0</ele><time>2026-05-03T10:01:13.28Z</time></trkpt><trkpt lat="42.3167317" lon="13.7648417"><ele>454.0</ele><time>2026-05-03T10:01:14.28Z</time></trkpt><trkpt lat="42.31661" lon="13.76496"><ele>454.0</ele><time>2026-05-03T10:01:15.28Z</time></trkpt><trkpt lat="42.31649" lon="13.765065"><ele>454.0</ele><time>2026-05-03T10:01:16.28Z</time></trkpt><trkpt lat="42.3163683" lon="13.7651583"><ele>454.0</ele><time>2026-05-03T10:01:17.28Z</time></trkpt><trkpt lat="42.316245" lon="13.7652483"><ele>454.75</ele><time>2026-05-03T10:01:18.28Z</time></trkpt><trkpt lat="42.3161271" lon="13.76534"><ele>455.5</ele><time>2026-05-03T10:01:19.28Z</time></trkpt><trkpt lat="42.3160138" lon="13.7654409"><ele>456.25</ele><time>2026-05-03T10:01:20.28Z</time></trkpt><trkpt lat="42.3159145" lon="13.7655557"><ele>457.0</ele><time>2026-05-03T10:01:21.28Z</time></trkpt><trkpt lat="42.3158354" lon="13.7656902"><ele>457.0</ele><time>2026-05-03T10:01:22.28Z</time></trkpt><trkpt lat="42.3157707" lon="13.7658399"><ele>457.0</ele><time>2026-05-03T10:01:23.28Z</time></trkpt><trkpt lat="42.3156993" lon="13.7660077"><ele>457.0</ele><time>2026-05-03T10:01:24.28Z</time></trkpt><trkpt lat="42.315617" lon="13.7661776"><ele>457.0</ele><time>2026-05-03T10:01:25.28Z</time></trkpt><trkpt lat="42.3155232" lon="13.76634"><ele>458.0</ele><time>2026-05-03T10:01:26.28Z</time></trkpt><trkpt lat="42.3154269" lon="13.7664857"><ele>459.0</ele><time>2026-05-03T10:01:27.28Z</time></trkpt><trkpt lat="42.315328" lon="13.7666076"><ele>460.0</ele><time>2026-05-03T10:01:28.281Z</time></trkpt><trkpt lat="42.3152184" lon="13.766712"><ele>461.0</ele><time>2026-05-03T10:01:29.281Z</time></trkpt><trkpt lat="42.3150988" lon="13.7668177"><ele>462.0</ele><time>2026-05-03T10:01:30.28Z</time></trkpt><trkpt lat="42.3149727" lon="13.7669356"><ele>463.0</ele><time>2026-05-03T10:01:31.28Z</time></trkpt><trkpt lat="42.3148447" lon="13.7670709"><ele>464.0</ele><time>2026-05-03T10:01:32.28Z</time></trkpt><trkpt lat="42.3147318" lon="13.7672122"><ele>464.0</ele><time>2026-05-03T10:01:33.281Z</time></trkpt><trkpt lat="42.3146417" lon="13.7673466"><ele>464.0</ele><time>2026-05-03T10:01:34.28Z</time></trkpt><trkpt lat="42.3145704" lon="13.7674588"><ele>464.0</ele><time>2026-05-03T10:01:35.28Z</time></trkpt><trkpt lat="42.3145186" lon="13.767535"><ele>464.0</ele><time>2026-05-03T10:01:36.28Z</time></trkpt><trkpt lat="42.3144438" lon="13.7676048"><ele>464.0</ele><time>2026-05-03T10:01:38.28Z</time></trkpt><trkpt lat="42.314316" lon="13.7676468"><ele>463.99999999999994</ele><time>2026-05-03T10:01:40.28Z</time></trkpt><trkpt lat="42.3142387" lon="13.7676718"><ele>464.0</ele><time>2026-05-03T10:01:41.28Z</time></trkpt><trkpt lat="42.3141699" lon="13.7677016"><ele>464.0</ele><time>2026-05-03T10:01:42.28Z</time></trkpt><trkpt lat="42.3141056" lon="13.7677498"><ele>464.0</ele><time>2026-05-03T10:01:43.28Z</time></trkpt><trkpt lat="42.314043" lon="13.7678234"><ele>463.99999999999994</ele><time>2026-05-03T10:01:44.28Z</time></trkpt><trkpt lat="42.3139831" lon="13.7679092"><ele>464.0</ele><time>2026-05-03T10:01:45.28Z</time></trkpt><trkpt lat="42.313931" lon="13.7679999"><ele>460.8333333333333</ele><time>2026-05-03T10:01:46.28Z</time></trkpt><trkpt lat="42.3138887" lon="13.7680946"><ele>457.66666666666663</ele><time>2026-05-03T10:01:47.28Z</time></trkpt><trkpt lat="42.3138551" lon="13.768195"><ele>454.5</ele><time>2026-05-03T10:01:48.28Z</time></trkpt><trkpt lat="42.3138235" lon="13.7682994"><ele>451.33333333333337</ele><time>2026-05-03T10:01:49.28Z</time></trkpt><trkpt lat="42.313785" lon="13.7684025"><ele>448.1666666666667</ele><time>2026-05-03T10:01:50.281Z</time></trkpt><trkpt lat="42.3137351" lon="13.7685067"><ele>445.0</ele><time>2026-05-03T10:01:51.28Z</time></trkpt><trkpt lat="42.3136783" lon="13.7686083"><ele>445.0</ele><time>2026-05-03T10:01:52.281Z</time></trkpt><trkpt lat="42.3136217" lon="13.7687217"><ele>445.0</ele><time>2026-05-03T10:01:53.28Z</time></trkpt><trkpt lat="42.3135633" lon="13.7688517"><ele>445.0</ele><time>2026-05-03T10:01:54.28Z</time></trkpt><trkpt lat="42.3135167" lon="13.7689917"><ele>445.0</ele><time>2026-05-03T10:01:55.28Z</time></trkpt><trkpt lat="42.3134667" lon="13.769125"><ele>445.0</ele><time>2026-05-03T10:01:56.28Z</time></trkpt><trkpt lat="42.3134117" lon="13.7692483"><ele>445.4</ele><time>2026-05-03T10:01:57.28Z</time></trkpt><trkpt lat="42.3133517" lon="13.7693667"><ele>445.8</ele><time>2026-05-03T10:01:58.28Z</time></trkpt><trkpt lat="42.313285" lon="13.769485"><ele>446.20000000000005</ele><time>2026-05-03T10:01:59.28Z</time></trkpt><trkpt lat="42.313215" lon="13.7696017"><ele>446.6</ele><time>2026-05-03T10:02:00.28Z</time></trkpt><trkpt lat="42.3131333" lon="13.7697033"><ele>447.0</ele><time>2026-05-03T10:02:01.281Z</time></trkpt><trkpt lat="42.31304" lon="13.7697967"><ele>443.25</ele><time>2026-05-03T10:02:02.28Z</time></trkpt><trkpt lat="42.3129283" lon="13.7698833"><ele>439.5</ele><time>2026-05-03T10:02:03.28Z</time></trkpt><trkpt lat="42.31281" lon="13.769955"><ele>435.75</ele><time>2026-05-03T10:02:04.28Z</time></trkpt><trkpt lat="42.3126683" lon="13.770025"><ele>432.0</ele><time>2026-05-03T10:02:05.28Z</time></trkpt><trkpt lat="42.3125267" lon="13.7700817"><ele>432.0</ele><time>2026-05-03T10:02:06.28Z</time></trkpt><trkpt lat="42.3123783" lon="13.77012"><ele>432.0</ele><time>2026-05-03T10:02:07.28Z</time></trkpt><trkpt lat="42.3122333" lon="13.7701483"><ele>432.0</ele><time>2026-05-03T10:02:08.28Z</time></trkpt><trkpt lat="42.3121017" lon="13.77017"><ele>432.0</ele><time>2026-05-03T10:02:09.28Z</time></trkpt><trkpt lat="42.3119867" lon="13.7701933"><ele>433.5</ele><time>2026-05-03T10:02:10.28Z</time></trkpt><trkpt lat="42.3118817" lon="13.7702167"><ele>435.0</ele><time>2026-05-03T10:02:11.28Z</time></trkpt><trkpt lat="42.3117933" lon="13.770235"><ele>436.5</ele><time>2026-05-03T10:02:12.28Z</time></trkpt><trkpt lat="42.31171" lon="13.770255"><ele>438.0</ele><time>2026-05-03T10:02:13.281Z</time></trkpt><trkpt lat="42.3116417" lon="13.77027"><ele>439.5</ele><time>2026-05-03T10:02:14.28Z</time></trkpt><trkpt lat="42.3115733" lon="13.7703017"><ele>441.0</ele><time>2026-05-03T10:02:15.28Z</time></trkpt><trkpt lat="42.311495" lon="13.7703517"><ele>440.0</ele><time>2026-05-03T10:02:16.28Z</time></trkpt><trkpt lat="42.3113983" lon="13.7704283"><ele>439.0</ele><time>2026-05-03T10:02:17.28Z</time></trkpt><trkpt lat="42.3112967" lon="13.7705233"><ele>438.0</ele><time>2026-05-03T10:02:18.281Z</time></trkpt><trkpt lat="42.311195" lon="13.770615"><ele>437.0</ele><time>2026-05-03T10:02:19.28Z</time></trkpt><trkpt lat="42.3111067" lon="13.7707033"><ele>436.99999999999994</ele><time>2026-05-03T10:02:20.28Z</time></trkpt><trkpt lat="42.3110267" lon="13.77076"><ele>437.0</ele><time>2026-05-03T10:02:21.28Z</time></trkpt><trkpt lat="42.310945" lon="13.7707917"><ele>437.0</ele><time>2026-05-03T10:02:22.28Z</time></trkpt><trkpt lat="42.3108583" lon="13.77079"><ele>437.0</ele><time>2026-05-03T10:02:23.281Z</time></trkpt><trkpt lat="42.3107633" lon="13.7707683"><ele>436.99999999999994</ele><time>2026-05-03T10:02:24.281Z</time></trkpt><trkpt lat="42.3106733" lon="13.7707633"><ele>437.0</ele><time>2026-05-03T10:02:25.28Z</time></trkpt><trkpt lat="42.3105767" lon="13.7707667"><ele>436.25</ele><time>2026-05-03T10:02:26.28Z</time></trkpt><trkpt lat="42.310465" lon="13.7707917"><ele>435.5</ele><time>2026-05-03T10:02:27.28Z</time></trkpt><trkpt lat="42.3103417" lon="13.7708267"><ele>434.75</ele><time>2026-05-03T10:02:28.28Z</time></trkpt><trkpt lat="42.310225" lon="13.77085"><ele>434.0</ele><time>2026-05-03T10:02:29.28Z</time></trkpt><trkpt lat="42.310125" lon="13.770865"><ele>434.0</ele><time>2026-05-03T10:02:30.28Z</time></trkpt><trkpt lat="42.3100267" lon="13.7708883"><ele>434.0</ele><time>2026-05-03T10:02:31.28Z</time></trkpt><trkpt lat="42.3099433" lon="13.770915"><ele>434.0</ele><time>2026-05-03T10:02:32.28Z</time></trkpt><trkpt lat="42.3098733" lon="13.77095"><ele>434.0</ele><time>2026-05-03T10:02:33.28Z</time></trkpt><trkpt lat="42.3097667" lon="13.7710267"><ele>434.0</ele><time>2026-05-03T10:02:35.28Z</time></trkpt><trkpt lat="42.3096817" lon="13.771125"><ele>436.0</ele><time>2026-05-03T10:02:37.28Z</time></trkpt><trkpt lat="42.3096267" lon="13.771235"><ele>438.0</ele><time>2026-05-03T10:02:39.28Z</time></trkpt><trkpt lat="42.3095517" lon="13.7713567"><ele>440.0</ele><time>2026-05-03T10:02:41.28Z</time></trkpt><trkpt lat="42.309435" lon="13.77146"><ele>442.0</ele><time>2026-05-03T10:02:43.28Z</time></trkpt><trkpt lat="42.3093683" lon="13.771515"><ele>444.0</ele><time>2026-05-03T10:02:44.28Z</time></trkpt><trkpt lat="42.309285" lon="13.7715633"><ele>444.0</ele><time>2026-05-03T10:02:45.28Z</time></trkpt><trkpt lat="42.3092" lon="13.7716033"><ele>444.0</ele><time>2026-05-03T10:02:46.28Z</time></trkpt><trkpt lat="42.30912" lon="13.7716417"><ele>444.0</ele><time>2026-05-03T10:02:47.28Z</time></trkpt><trkpt lat="42.3090517" lon="13.771685"><ele>444.0</ele><time>2026-05-03T10:02:48.28Z</time></trkpt><trkpt lat="42.3089917" lon="13.7717433"><ele>444.0</ele><time>2026-05-03T10:02:49.28Z</time></trkpt><trkpt lat="42.3089367" lon="13.7718083"><ele>444.0</ele><time>2026-05-03T10:02:50.28Z</time></trkpt><trkpt lat="42.3088817" lon="13.7718883"><ele>443.79999999999995</ele><time>2026-05-03T10:02:51.281Z</time></trkpt><trkpt lat="42.3088133" lon="13.7719767"><ele>443.59999999999997</ele><time>2026-05-03T10:02:52.28Z</time></trkpt><trkpt lat="42.3087417" lon="13.7720683"><ele>443.4</ele><time>2026-05-03T10:02:53.28Z</time></trkpt><trkpt lat="42.3086717" lon="13.7721533"><ele>443.2</ele><time>2026-05-03T10:02:54.28Z</time></trkpt><trkpt lat="42.3086033" lon="13.7722317"><ele>443.0</ele><time>2026-05-03T10:02:55.28Z</time></trkpt><trkpt lat="42.3085383" lon="13.7722967"><ele>442.99999999999994</ele><time>2026-05-03T10:02:56.28Z</time></trkpt><trkpt lat="42.3084683" lon="13.772375"><ele>443.0</ele><time>2026-05-03T10:02:57.28Z</time></trkpt><trkpt lat="42.3084" lon="13.7724617"><ele>443.0</ele><time>2026-05-03T10:02:58.28Z</time></trkpt><trkpt lat="42.3083417" lon="13.77255"><ele>443.0</ele><time>2026-05-03T10:02:59.281Z</time></trkpt><trkpt lat="42.3082833" lon="13.772635"><ele>442.99999999999994</ele><time>2026-05-03T10:03:00.28Z</time></trkpt><trkpt lat="42.3082317" lon="13.7727233"><ele>443.0</ele><time>2026-05-03T10:03:01.28Z</time></trkpt><trkpt lat="42.3081733" lon="13.7728017"><ele>443.8333333333333</ele><time>2026-05-03T10:03:02.28Z</time></trkpt><trkpt lat="42.3081117" lon="13.77287"><ele>444.66666666666663</ele><time>2026-05-03T10:03:03.28Z</time></trkpt><trkpt lat="42.3080467" lon="13.7729317"><ele>445.5</ele><time>2026-05-03T10:03:04.28Z</time></trkpt><trkpt lat="42.30798" lon="13.7730033"><ele>446.33333333333337</ele><time>2026-05-03T10:03:05.28Z</time></trkpt><trkpt lat="42.3079133" lon="13.7730767"><ele>447.1666666666667</ele><time>2026-05-03T10:03:06.28Z</time></trkpt><trkpt lat="42.307845" lon="13.7731383"><ele>448.0</ele><time>2026-05-03T10:03:07.28Z</time></trkpt><trkpt lat="42.307775" lon="13.7731883"><ele>445.59999999999997</ele><time>2026-05-03T10:03:08.28Z</time></trkpt><trkpt lat="42.3077017" lon="13.7732483"><ele>443.19999999999993</ele><time>2026-05-03T10:03:09.28Z</time></trkpt><trkpt lat="42.30762" lon="13.7733267"><ele>440.8</ele><time>2026-05-03T10:03:10.28Z</time></trkpt><trkpt lat="42.3075417" lon="13.7734117"><ele>438.4</ele><time>2026-05-03T10:03:11.28Z</time></trkpt><trkpt lat="42.30747" lon="13.7735117"><ele>436.0</ele><time>2026-05-03T10:03:12.281Z</time></trkpt><trkpt lat="42.3073917" lon="13.7736133"><ele>436.0</ele><time>2026-05-03T10:03:13.28Z</time></trkpt><trkpt lat="42.307305" lon="13.7737017"><ele>436.0</ele><time>2026-05-03T10:03:14.28Z</time></trkpt><trkpt lat="42.3072117" lon="13.7737883"><ele>436.0</ele><time>2026-05-03T10:03:15.28Z</time></trkpt><trkpt lat="42.30712" lon="13.7738717"><ele>436.0</ele><time>2026-05-03T10:03:16.28Z</time></trkpt><trkpt lat="42.3070417" lon="13.77395"><ele>436.0</ele><time>2026-05-03T10:03:17.28Z</time></trkpt><trkpt lat="42.306975" lon="13.7740367"><ele>434.4</ele><time>2026-05-03T10:03:18.28Z</time></trkpt><trkpt lat="42.30691" lon="13.774135"><ele>432.8</ele><time>2026-05-03T10:03:19.28Z</time></trkpt><trkpt lat="42.30684" lon="13.7742283"><ele>431.19999999999993</ele><time>2026-05-03T10:03:20.28Z</time></trkpt><trkpt lat="42.3067683" lon="13.774325"><ele>429.59999999999997</ele><time>2026-05-03T10:03:21.28Z</time></trkpt><trkpt lat="42.306705" lon="13.7744267"><ele>428.0</ele><time>2026-05-03T10:03:22.28Z</time></trkpt><trkpt lat="42.3066433" lon="13.7745333"><ele>428.0</ele><time>2026-05-03T10:03:23.28Z</time></trkpt><trkpt lat="42.3065867" lon="13.7746467"><ele>428.0</ele><time>2026-05-03T10:03:24.28Z</time></trkpt><trkpt lat="42.30653" lon="13.7747833"><ele>428.0</ele><time>2026-05-03T10:03:25.28Z</time></trkpt><trkpt lat="42.306475" lon="13.77493"><ele>428.0</ele><time>2026-05-03T10:03:26.28Z</time></trkpt><trkpt lat="42.30642" lon="13.7750883"><ele>427.0</ele><time>2026-05-03T10:03:27.28Z</time></trkpt><trkpt lat="42.3063683" lon="13.775245"><ele>426.0</ele><time>2026-05-03T10:03:28.281Z</time></trkpt><trkpt lat="42.3063283" lon="13.7753917"><ele>425.0</ele><time>2026-05-03T10:03:29.28Z</time></trkpt><trkpt lat="42.3062917" lon="13.7755217"><ele>424.0</ele><time>2026-05-03T10:03:30.28Z</time></trkpt><trkpt lat="42.306255" lon="13.7756567"><ele>424.0</ele><time>2026-05-03T10:03:31.28Z</time></trkpt><trkpt lat="42.3062233" lon="13.77578"><ele>424.0</ele><time>2026-05-03T10:03:32.28Z</time></trkpt><trkpt lat="42.3061967" lon="13.7759033"><ele>424.0</ele><time>2026-05-03T10:03:33.28Z</time></trkpt><trkpt lat="42.3061767" lon="13.77602"><ele>424.0</ele><time>2026-05-03T10:03:34.281Z</time></trkpt><trkpt lat="42.306155" lon="13.7761367"><ele>424.0</ele><time>2026-05-03T10:03:35.281Z</time></trkpt><trkpt lat="42.3061283" lon="13.7762517"><ele>423.8571428571429</ele><time>2026-05-03T10:03:36.28Z</time></trkpt><trkpt lat="42.3060983" lon="13.77636"><ele>423.71428571428567</ele><time>2026-05-03T10:03:37.28Z</time></trkpt><trkpt lat="42.30607" lon="13.7764633"><ele>423.57142857142856</ele><time>2026-05-03T10:03:38.28Z</time></trkpt><trkpt lat="42.3060567" lon="13.77655"><ele>423.42857142857144</ele><time>2026-05-03T10:03:39.28Z</time></trkpt><trkpt lat="42.306055" lon="13.7766367"><ele>423.28571428571433</ele><time>2026-05-03T10:03:40.28Z</time></trkpt><trkpt lat="42.3060617" lon="13.7767233"><ele>423.1428571428571</ele><time>2026-05-03T10:03:41.28Z</time></trkpt><trkpt lat="42.3060717" lon="13.7768167"><ele>423.0</ele><time>2026-05-03T10:03:42.28Z</time></trkpt><trkpt lat="42.30609" lon="13.77691"><ele>422.8333333333333</ele><time>2026-05-03T10:03:43.28Z</time></trkpt><trkpt lat="42.3061083" lon="13.7770033"><ele>422.66666666666663</ele><time>2026-05-03T10:03:44.28Z</time></trkpt><trkpt lat="42.306135" lon="13.7770983"><ele>422.5</ele><time>2026-05-03T10:03:45.281Z</time></trkpt><trkpt lat="42.30615" lon="13.7771883"><ele>422.3333333333333</ele><time>2026-05-03T10:03:46.28Z</time></trkpt><trkpt lat="42.3061267" lon="13.7773633"><ele>422.16666666666663</ele><time>2026-05-03T10:03:48.281Z</time></trkpt><trkpt lat="42.3060883" lon="13.7774517"><ele>422.0</ele><time>2026-05-03T10:03:49.28Z</time></trkpt><trkpt lat="42.3060433" lon="13.7775383"><ele>421.99999999999994</ele><time>2026-05-03T10:03:50.28Z</time></trkpt><trkpt lat="42.3059867" lon="13.7776233"><ele>422.0</ele><time>2026-05-03T10:03:51.28Z</time></trkpt><trkpt lat="42.3059233" lon="13.7776983"><ele>422.0</ele><time>2026-05-03T10:03:52.28Z</time></trkpt><trkpt lat="42.3058567" lon="13.777765"><ele>422.0</ele><time>2026-05-03T10:03:53.28Z</time></trkpt><trkpt lat="42.3057817" lon="13.77784"><ele>421.99999999999994</ele><time>2026-05-03T10:03:54.28Z</time></trkpt><trkpt lat="42.3057133" lon="13.7779233"><ele>422.0</ele><time>2026-05-03T10:03:55.28Z</time></trkpt><trkpt lat="42.3056517" lon="13.7779983"><ele>421.8333333333333</ele><time>2026-05-03T10:03:56.28Z</time></trkpt><trkpt lat="42.3055817" lon="13.7780633"><ele>421.66666666666663</ele><time>2026-05-03T10:03:57.28Z</time></trkpt><trkpt lat="42.305505" lon="13.7781217"><ele>421.5</ele><time>2026-05-03T10:03:58.28Z</time></trkpt><trkpt lat="42.3054333" lon="13.7781733"><ele>421.33333333333337</ele><time>2026-05-03T10:03:59.28Z</time></trkpt><trkpt lat="42.305365" lon="13.778235"><ele>421.1666666666667</ele><time>2026-05-03T10:04:00.28Z</time></trkpt><trkpt lat="42.3052983" lon="13.7783233"><ele>421.0</ele><time>2026-05-03T10:04:01.28Z</time></trkpt><trkpt lat="42.305235" lon="13.7784233"><ele>419.6</ele><time>2026-05-03T10:04:02.28Z</time></trkpt><trkpt lat="42.305175" lon="13.7785233"><ele>418.20000000000005</ele><time>2026-05-03T10:04:03.28Z</time></trkpt><trkpt lat="42.3051217" lon="13.7786317"><ele>416.79999999999995</ele><time>2026-05-03T10:04:04.28Z</time></trkpt><trkpt lat="42.305075" lon="13.7787383"><ele>415.4</ele><time>2026-05-03T10:04:05.28Z</time></trkpt><trkpt lat="42.3050233" lon="13.7788433"><ele>414.0</ele><time>2026-05-03T10:04:06.28Z</time></trkpt><trkpt lat="42.3049683" lon="13.77895"><ele>414.0</ele><time>2026-05-03T10:04:07.28Z</time></trkpt><trkpt lat="42.3049033" lon="13.779045"><ele>414.0</ele><time>2026-05-03T10:04:08.28Z</time></trkpt><trkpt lat="42.304835" lon="13.77914"><ele>414.0</ele><time>2026-05-03T10:04:09.28Z</time></trkpt><trkpt lat="42.3047667" lon="13.77924"><ele>414.0</ele><time>2026-05-03T10:04:10.28Z</time></trkpt><trkpt lat="42.304705" lon="13.7793367"><ele>414.0</ele><time>2026-05-03T10:04:11.28Z</time></trkpt><trkpt lat="42.3046483" lon="13.779425"><ele>412.8571428571429</ele><time>2026-05-03T10:04:12.28Z</time></trkpt><trkpt lat="42.304595" lon="13.7795"><ele>411.7142857142857</ele><time>2026-05-03T10:04:13.28Z</time></trkpt><trkpt lat="42.30454" lon="13.7795633"><ele>410.57142857142856</ele><time>2026-05-03T10:04:14.28Z</time></trkpt><trkpt lat="42.3044817" lon="13.77961"><ele>409.42857142857144</ele><time>2026-05-03T10:04:15.28Z</time></trkpt><trkpt lat="42.3044167" lon="13.7796517"><ele>408.2857142857143</ele><time>2026-05-03T10:04:16.28Z</time></trkpt><trkpt lat="42.30435" lon="13.7796983"><ele>407.14285714285717</ele><time>2026-05-03T10:04:17.28Z</time></trkpt><trkpt lat="42.30428" lon="13.7797333"><ele>406.0</ele><time>2026-05-03T10:04:18.28Z</time></trkpt><trkpt lat="42.3042183" lon="13.77978"><ele>406.00000000000006</ele><time>2026-05-03T10:04:19.28Z</time></trkpt><trkpt lat="42.3041583" lon="13.7798317"><ele>406.0</ele><time>2026-05-03T10:04:20.28Z</time></trkpt><trkpt lat="42.3041" lon="13.7799083"><ele>406.0</ele><time>2026-05-03T10:04:21.28Z</time></trkpt><trkpt lat="42.30404" lon="13.779985"><ele>406.0</ele><time>2026-05-03T10:04:22.28Z</time></trkpt><trkpt lat="42.30399" lon="13.78006"><ele>406.00000000000006</ele><time>2026-05-03T10:04:23.281Z</time></trkpt><trkpt lat="42.3039417" lon="13.7801233"><ele>406.0</ele><time>2026-05-03T10:04:24.281Z</time></trkpt><trkpt lat="42.3038733" lon="13.7802033"><ele>405.50000000000006</ele><time>2026-05-03T10:04:26.28Z</time></trkpt><trkpt lat="42.303785" lon="13.7802083"><ele>405.0</ele><time>2026-05-03T10:04:33.28Z</time></trkpt><trkpt lat="42.3037" lon="13.78024"><ele>404.5</ele><time>2026-05-03T10:04:35.28Z</time></trkpt><trkpt lat="42.3036017" lon="13.780305"><ele>404.0</ele><time>2026-05-03T10:04:37.28Z</time></trkpt><trkpt lat="42.3035417" lon="13.780375"><ele>403.50000000000006</ele><time>2026-05-03T10:04:38.28Z</time></trkpt><trkpt lat="42.303485" lon="13.7804533"><ele>403.0</ele><time>2026-05-03T10:04:39.28Z</time></trkpt><trkpt lat="42.303425" lon="13.78053"><ele>403.00000000000006</ele><time>2026-05-03T10:04:40.28Z</time></trkpt><trkpt lat="42.3033667" lon="13.7806167"><ele>403.0</ele><time>2026-05-03T10:04:41.28Z</time></trkpt><trkpt lat="42.3033117" lon="13.7807033"><ele>403.0</ele><time>2026-05-03T10:04:42.28Z</time></trkpt><trkpt lat="42.303255" lon="13.780785"><ele>403.0</ele><time>2026-05-03T10:04:43.281Z</time></trkpt><trkpt lat="42.3031967" lon="13.7808767"><ele>403.00000000000006</ele><time>2026-05-03T10:04:44.28Z</time></trkpt><trkpt lat="42.3031433" lon="13.7809667"><ele>403.0</ele><time>2026-05-03T10:04:45.28Z</time></trkpt><trkpt lat="42.3030883" lon="13.781055"><ele>401.6666666666667</ele><time>2026-05-03T10:04:46.281Z</time></trkpt><trkpt lat="42.3030317" lon="13.7811467"><ele>400.33333333333337</ele><time>2026-05-03T10:04:47.28Z</time></trkpt><trkpt lat="42.3029767" lon="13.7812267"><ele>399.0</ele><time>2026-05-03T10:04:48.28Z</time></trkpt><trkpt lat="42.3029183" lon="13.781295"><ele>397.66666666666663</ele><time>2026-05-03T10:04:49.28Z</time></trkpt><trkpt lat="42.3028633" lon="13.781345"><ele>396.3333333333333</ele><time>2026-05-03T10:04:50.28Z</time></trkpt><trkpt lat="42.3027983" lon="13.781385"><ele>395.0</ele><time>2026-05-03T10:04:51.28Z</time></trkpt><trkpt lat="42.30272" lon="13.7814183"><ele>395.0</ele><time>2026-05-03T10:04:52.28Z</time></trkpt><trkpt lat="42.3026233" lon="13.7814483"><ele>395.0</ele><time>2026-05-03T10:04:53.28Z</time></trkpt><trkpt lat="42.3025217" lon="13.7814817"><ele>395.0</ele><time>2026-05-03T10:04:54.28Z</time></trkpt><trkpt lat="42.3024217" lon="13.7815267"><ele>395.0</ele><time>2026-05-03T10:04:55.28Z</time></trkpt><trkpt lat="42.3023283" lon="13.7815667"><ele>395.0</ele><time>2026-05-03T10:04:56.28Z</time></trkpt><trkpt lat="42.3022417" lon="13.7816117"><ele>392.8</ele><time>2026-05-03T10:04:57.28Z</time></trkpt><trkpt lat="42.3021767" lon="13.78165"><ele>390.6</ele><time>2026-05-03T10:04:58.28Z</time></trkpt><trkpt lat="42.3020883" lon="13.7817183"><ele>388.4</ele><time>2026-05-03T10:05:00.28Z</time></trkpt><trkpt lat="42.3020283" lon="13.78166"><ele>386.2</ele><time>2026-05-03T10:05:04.281Z</time></trkpt><trkpt lat="42.302005" lon="13.781485"><ele>384.0</ele><time>2026-05-03T10:05:06.28Z</time></trkpt><trkpt lat="42.3019867" lon="13.7813517"><ele>384.0</ele><time>2026-05-03T10:05:07.28Z</time></trkpt><trkpt lat="42.30197" lon="13.7812017"><ele>384.0</ele><time>2026-05-03T10:05:08.28Z</time></trkpt><trkpt lat="42.3019483" lon="13.781055"><ele>384.0</ele><time>2026-05-03T10:05:09.28Z</time></trkpt><trkpt lat="42.3019283" lon="13.7809333"><ele>384.0</ele><time>2026-05-03T10:05:10.281Z</time></trkpt><trkpt lat="42.3019133" lon="13.7808233"><ele>384.0</ele><time>2026-05-03T10:05:11.28Z</time></trkpt><trkpt lat="42.3018983" lon="13.78071"><ele>384.0</ele><time>2026-05-03T10:05:12.28Z</time></trkpt><trkpt lat="42.30189" lon="13.7805883"><ele>384.0</ele><time>2026-05-03T10:05:13.28Z</time></trkpt><trkpt lat="42.3018833" lon="13.7804883"><ele>384.0</ele><time>2026-05-03T10:05:14.28Z</time></trkpt><trkpt lat="42.30188" lon="13.780355"><ele>384.0</ele><time>2026-05-03T10:05:16.28Z</time></trkpt><trkpt lat="42.3019033" lon="13.7802517"><ele>384.0</ele><time>2026-05-03T10:05:18.28Z</time></trkpt><trkpt lat="42.301955" lon="13.780115"><ele>383.6</ele><time>2026-05-03T10:05:20.28Z</time></trkpt><trkpt lat="42.3019367" lon="13.7799517"><ele>383.2</ele><time>2026-05-03T10:05:22.281Z</time></trkpt><trkpt lat="42.3018967" lon="13.7798517"><ele>382.8</ele><time>2026-05-03T10:05:23.28Z</time></trkpt><trkpt lat="42.3018417" lon="13.779725"><ele>382.40000000000003</ele><time>2026-05-03T10:05:24.28Z</time></trkpt><trkpt lat="42.3017917" lon="13.7795933"><ele>382.0</ele><time>2026-05-03T10:05:25.28Z</time></trkpt><trkpt lat="42.3017433" lon="13.77947"><ele>381.40000000000003</ele><time>2026-05-03T10:05:26.28Z</time></trkpt><trkpt lat="42.3017" lon="13.77935"><ele>380.8</ele><time>2026-05-03T10:05:27.28Z</time></trkpt><trkpt lat="42.3016617" lon="13.779215"><ele>380.2</ele><time>2026-05-03T10:05:28.28Z</time></trkpt><trkpt lat="42.301625" lon="13.77907"><ele>379.6</ele><time>2026-05-03T10:05:29.28Z</time></trkpt><trkpt lat="42.301585" lon="13.7789083"><ele>379.0</ele><time>2026-05-03T10:05:30.28Z</time></trkpt><trkpt lat="42.3015483" lon="13.7787567"><ele>379.0</ele><time>2026-05-03T10:05:31.28Z</time></trkpt><trkpt lat="42.3015167" lon="13.77861"><ele>379.0</ele><time>2026-05-03T10:05:32.28Z</time></trkpt><trkpt lat="42.301485" lon="13.7784633"><ele>379.0</ele><time>2026-05-03T10:05:33.28Z</time></trkpt><trkpt lat="42.3014483" lon="13.77832"><ele>379.0</ele><time>2026-05-03T10:05:34.28Z</time></trkpt><trkpt lat="42.3014083" lon="13.7781817"><ele>379.0</ele><time>2026-05-03T10:05:35.28Z</time></trkpt><trkpt lat="42.301365" lon="13.7780467"><ele>377.0</ele><time>2026-05-03T10:05:36.28Z</time></trkpt><trkpt lat="42.3013233" lon="13.7779133"><ele>375.0</ele><time>2026-05-03T10:05:37.28Z</time></trkpt><trkpt lat="42.301285" lon="13.7777817"><ele>373.0</ele><time>2026-05-03T10:05:38.28Z</time></trkpt><trkpt lat="42.301255" lon="13.7776517"><ele>371.0</ele><time>2026-05-03T10:05:39.28Z</time></trkpt><trkpt lat="42.3012333" lon="13.7775083"><ele>369.0</ele><time>2026-05-03T10:05:40.28Z</time></trkpt><trkpt lat="42.3012217" lon="13.7773517"><ele>368.6</ele><time>2026-05-03T10:05:41.28Z</time></trkpt><trkpt lat="42.30123" lon="13.7771883"><ele>368.2</ele><time>2026-05-03T10:05:42.28Z</time></trkpt><trkpt lat="42.3012417" lon="13.7770483"><ele>367.8</ele><time>2026-05-03T10:05:43.28Z</time></trkpt><trkpt lat="42.30125" lon="13.776925"><ele>367.40000000000003</ele><time>2026-05-03T10:05:44.28Z</time></trkpt><trkpt lat="42.3012483" lon="13.7768133"><ele>367.0</ele><time>2026-05-03T10:05:45.28Z</time></trkpt><trkpt lat="42.3012267" lon="13.7767083"><ele>367.0</ele><time>2026-05-03T10:05:46.28Z</time></trkpt><trkpt lat="42.30119" lon="13.77659"><ele>367.0</ele><time>2026-05-03T10:05:47.28Z</time></trkpt><trkpt lat="42.3011333" lon="13.7764717"><ele>367.0</ele><time>2026-05-03T10:05:48.28Z</time></trkpt><trkpt lat="42.3010717" lon="13.77637"><ele>367.0</ele><time>2026-05-03T10:05:49.28Z</time></trkpt><trkpt lat="42.301005" lon="13.7762833"><ele>367.0</ele><time>2026-05-03T10:05:50.28Z</time></trkpt><trkpt lat="42.30094" lon="13.7762233"><ele>367.0</ele><time>2026-05-03T10:05:51.28Z</time></trkpt><trkpt lat="42.3008867" lon="13.7761683"><ele>367.0</ele><time>2026-05-03T10:05:52.28Z</time></trkpt><trkpt lat="42.3008267" lon="13.7760533"><ele>367.0</ele><time>2026-05-03T10:05:54.28Z</time></trkpt><trkpt lat="42.3008517" lon="13.775915"><ele>367.0</ele><time>2026-05-03T10:05:56.28Z</time></trkpt><trkpt lat="42.300865" lon="13.7757733"><ele>367.0</ele><time>2026-05-03T10:05:58.28Z</time></trkpt><trkpt lat="42.30079" lon="13.77569"><ele>367.4285714285714</ele><time>2026-05-03T10:06:00.28Z</time></trkpt><trkpt lat="42.3007333" lon="13.7756317"><ele>367.8571428571429</ele><time>2026-05-03T10:06:01.28Z</time></trkpt><trkpt lat="42.3006733" lon="13.775585"><ele>368.2857142857143</ele><time>2026-05-03T10:06:02.28Z</time></trkpt><trkpt lat="42.3006133" lon="13.775555"><ele>368.71428571428567</ele><time>2026-05-03T10:06:03.28Z</time></trkpt><trkpt lat="42.30055" lon="13.7755383"><ele>369.1428571428571</ele><time>2026-05-03T10:06:04.28Z</time></trkpt><trkpt lat="42.300485" lon="13.775515"><ele>369.57142857142856</ele><time>2026-05-03T10:06:05.28Z</time></trkpt><trkpt lat="42.3004383" lon="13.7754567"><ele>370.0</ele><time>2026-05-03T10:06:06.28Z</time></trkpt><trkpt lat="42.300395" lon="13.7753633"><ele>368.3333333333333</ele><time>2026-05-03T10:06:07.28Z</time></trkpt><trkpt lat="42.300345" lon="13.775265"><ele>366.66666666666663</ele><time>2026-05-03T10:06:08.28Z</time></trkpt><trkpt lat="42.3002833" lon="13.7751767"><ele>365.0</ele><time>2026-05-03T10:06:09.28Z</time></trkpt><trkpt lat="42.30022" lon="13.77511"><ele>363.3333333333333</ele><time>2026-05-03T10:06:10.28Z</time></trkpt><trkpt lat="42.30016" lon="13.775055"><ele>361.6666666666667</ele><time>2026-05-03T10:06:11.28Z</time></trkpt><trkpt lat="42.3000567" lon="13.7750033"><ele>360.0</ele><time>2026-05-03T10:06:13.28Z</time></trkpt><trkpt lat="42.2999333" lon="13.7750683"><ele>360.0</ele><time>2026-05-03T10:06:15.28Z</time></trkpt><trkpt lat="42.2998667" lon="13.775145"><ele>360.0</ele><time>2026-05-03T10:06:16.28Z</time></trkpt><trkpt lat="42.2997767" lon="13.7752583"><ele>360.0</ele><time>2026-05-03T10:06:17.28Z</time></trkpt><trkpt lat="42.2996783" lon="13.77536"><ele>360.0</ele><time>2026-05-03T10:06:18.28Z</time></trkpt><trkpt lat="42.2995917" lon="13.7754433"><ele>360.0</ele><time>2026-05-03T10:06:19.28Z</time></trkpt><trkpt lat="42.29952" lon="13.7754867"><ele>359.6</ele><time>2026-05-03T10:06:20.28Z</time></trkpt><trkpt lat="42.2994117" lon="13.775485"><ele>359.2</ele><time>2026-05-03T10:06:22.28Z</time></trkpt><trkpt lat="42.2993317" lon="13.7754333"><ele>358.79999999999995</ele><time>2026-05-03T10:06:23.28Z</time></trkpt><trkpt lat="42.2992583" lon="13.77537"><ele>358.4</ele><time>2026-05-03T10:06:24.28Z</time></trkpt><trkpt lat="42.2991917" lon="13.7753083"><ele>358.0</ele><time>2026-05-03T10:06:25.28Z</time></trkpt><trkpt lat="42.2990883" lon="13.77525"><ele>358.0</ele><time>2026-05-03T10:06:27.28Z</time></trkpt><trkpt lat="42.298995" lon="13.7753083"><ele>358.0</ele><time>2026-05-03T10:06:29.28Z</time></trkpt><trkpt lat="42.2989567" lon="13.7753767"><ele>358.0</ele><time>2026-05-03T10:06:30.28Z</time></trkpt><trkpt lat="42.298925" lon="13.7754667"><ele>358.0</ele><time>2026-05-03T10:06:31.28Z</time></trkpt><trkpt lat="42.2988883" lon="13.7755883"><ele>358.0</ele><time>2026-05-03T10:06:32.28Z</time></trkpt><trkpt lat="42.2988433" lon="13.77573"><ele>357.5</ele><time>2026-05-03T10:06:33.28Z</time></trkpt><trkpt lat="42.2987983" lon="13.7758983"><ele>357.0</ele><time>2026-05-03T10:06:34.28Z</time></trkpt><trkpt lat="42.29876" lon="13.7760817"><ele>356.5</ele><time>2026-05-03T10:06:35.28Z</time></trkpt><trkpt lat="42.2987317" lon="13.7762567"><ele>356.0</ele><time>2026-05-03T10:06:36.281Z</time></trkpt><trkpt lat="42.2986967" lon="13.7764233"><ele>356.0</ele><time>2026-05-03T10:06:37.28Z</time></trkpt><trkpt lat="42.2986633" lon="13.7765883"><ele>356.0</ele><time>2026-05-03T10:06:38.28Z</time></trkpt><trkpt lat="42.2986283" lon="13.7767517"><ele>356.0</ele><time>2026-05-03T10:06:39.28Z</time></trkpt><trkpt lat="42.298575" lon="13.7769233"><ele>356.0</ele><time>2026-05-03T10:06:40.28Z</time></trkpt><trkpt lat="42.29852" lon="13.7770983"><ele>356.1666666666667</ele><time>2026-05-03T10:06:41.281Z</time></trkpt><trkpt lat="42.2984767" lon="13.777255"><ele>356.33333333333337</ele><time>2026-05-03T10:06:42.28Z</time></trkpt><trkpt lat="42.2984483" lon="13.7773817"><ele>356.5</ele><time>2026-05-03T10:06:43.281Z</time></trkpt><trkpt lat="42.2984217" lon="13.7774917"><ele>356.6666666666667</ele><time>2026-05-03T10:06:44.28Z</time></trkpt><trkpt lat="42.2983967" lon="13.7775783"><ele>356.8333333333333</ele><time>2026-05-03T10:06:45.28Z</time></trkpt><trkpt lat="42.2983617" lon="13.7776633"><ele>357.0</ele><time>2026-05-03T10:06:46.28Z</time></trkpt><trkpt lat="42.2983167" lon="13.77773"><ele>357.0</ele><time>2026-05-03T10:06:47.28Z</time></trkpt><trkpt lat="42.2982417" lon="13.777785"><ele>357.0</ele><time>2026-05-03T10:06:48.28Z</time></trkpt><trkpt lat="42.298155" lon="13.7778517"><ele>357.0</ele><time>2026-05-03T10:06:49.28Z</time></trkpt><trkpt lat="42.298055" lon="13.7779533"><ele>357.0</ele><time>2026-05-03T10:06:50.28Z</time></trkpt><trkpt lat="42.2979517" lon="13.77808"><ele>356.25</ele><time>2026-05-03T10:06:51.28Z</time></trkpt><trkpt lat="42.297845" lon="13.7782067"><ele>355.5</ele><time>2026-05-03T10:06:52.28Z</time></trkpt><trkpt lat="42.297735" lon="13.778335"><ele>354.75</ele><time>2026-05-03T10:06:53.28Z</time></trkpt><trkpt lat="42.2976333" lon="13.7784617"><ele>354.0</ele><time>2026-05-03T10:06:54.28Z</time></trkpt><trkpt lat="42.2975333" lon="13.7785933"><ele>353.5</ele><time>2026-05-03T10:06:55.28Z</time></trkpt><trkpt lat="42.2974267" lon="13.7787217"><ele>353.0</ele><time>2026-05-03T10:06:56.28Z</time></trkpt><trkpt lat="42.2973083" lon="13.7788467"><ele>352.5</ele><time>2026-05-03T10:06:57.281Z</time></trkpt><trkpt lat="42.29719" lon="13.7789583"><ele>352.0</ele><time>2026-05-03T10:06:58.28Z</time></trkpt><trkpt lat="42.2970917" lon="13.7790533"><ele>351.75</ele><time>2026-05-03T10:06:59.28Z</time></trkpt><trkpt lat="42.296995" lon="13.779145"><ele>351.5</ele><time>2026-05-03T10:07:00.28Z</time></trkpt><trkpt lat="42.2969033" lon="13.7792267"><ele>351.25</ele><time>2026-05-03T10:07:01.28Z</time></trkpt><trkpt lat="42.2968233" lon="13.7793267"><ele>351.0</ele><time>2026-05-03T10:07:02.28Z</time></trkpt><trkpt lat="42.29674" lon="13.77945"><ele>351.0</ele><time>2026-05-03T10:07:03.28Z</time></trkpt><trkpt lat="42.296655" lon="13.77959"><ele>351.0</ele><time>2026-05-03T10:07:04.28Z</time></trkpt><trkpt lat="42.296575" lon="13.7797317"><ele>351.0</ele><time>2026-05-03T10:07:05.28Z</time></trkpt><trkpt lat="42.2964967" lon="13.779875"><ele>351.0</ele><time>2026-05-03T10:07:06.28Z</time></trkpt><trkpt lat="42.2964117" lon="13.7800217"><ele>351.0</ele><time>2026-05-03T10:07:07.28Z</time></trkpt><trkpt lat="42.2963283" lon="13.7801667"><ele>351.0</ele><time>2026-05-03T10:07:08.28Z</time></trkpt><trkpt lat="42.29625" lon="13.7803017"><ele>351.0</ele><time>2026-05-03T10:07:09.28Z</time></trkpt><trkpt lat="42.2961833" lon="13.7804517"><ele>351.0</ele><time>2026-05-03T10:07:10.28Z</time></trkpt><trkpt lat="42.2961167" lon="13.7806"><ele>351.25</ele><time>2026-05-03T10:07:11.28Z</time></trkpt><trkpt lat="42.2960333" lon="13.780745"><ele>351.5</ele><time>2026-05-03T10:07:12.28Z</time></trkpt><trkpt lat="42.2959483" lon="13.78089"><ele>351.75</ele><time>2026-05-03T10:07:13.28Z</time></trkpt><trkpt lat="42.2958567" lon="13.78103"><ele>352.0</ele><time>2026-05-03T10:07:14.28Z</time></trkpt><trkpt lat="42.2957667" lon="13.781165"><ele>352.0</ele><time>2026-05-03T10:07:15.281Z</time></trkpt><trkpt lat="42.295685" lon="13.7813083"><ele>352.0</ele><time>2026-05-03T10:07:16.28Z</time></trkpt><trkpt lat="42.2956" lon="13.7814367"><ele>352.0</ele><time>2026-05-03T10:07:17.28Z</time></trkpt><trkpt lat="42.2955133" lon="13.7815667"><ele>352.0</ele><time>2026-05-03T10:07:18.28Z</time></trkpt><trkpt lat="42.29541" lon="13.7816717"><ele>352.0</ele><time>2026-05-03T10:07:19.28Z</time></trkpt><trkpt lat="42.2952817" lon="13.7817883"><ele>352.0</ele><time>2026-05-03T10:07:20.28Z</time></trkpt><trkpt lat="42.29514" lon="13.781915"><ele>352.0</ele><time>2026-05-03T10:07:21.281Z</time></trkpt><trkpt lat="42.295" lon="13.78205"><ele>352.0</ele><time>2026-05-03T10:07:22.28Z</time></trkpt><trkpt lat="42.2948733" lon="13.7821917"><ele>352.0</ele><time>2026-05-03T10:07:23.28Z</time></trkpt><trkpt lat="42.2947483" lon="13.78233"><ele>352.0</ele><time>2026-05-03T10:07:24.28Z</time></trkpt><trkpt lat="42.2946317" lon="13.7824767"><ele>351.3333333333333</ele><time>2026-05-03T10:07:25.28Z</time></trkpt><trkpt lat="42.294515" lon="13.7826267"><ele>350.6666666666667</ele><time>2026-05-03T10:07:26.28Z</time></trkpt><trkpt lat="42.2944033" lon="13.78278"><ele>350.0</ele><time>2026-05-03T10:07:27.28Z</time></trkpt><trkpt lat="42.2942933" lon="13.7829217"><ele>350.0</ele><time>2026-05-03T10:07:28.28Z</time></trkpt><trkpt lat="42.2941933" lon="13.783055"><ele>350.0</ele><time>2026-05-03T10:07:29.28Z</time></trkpt><trkpt lat="42.2941" lon="13.7831933"><ele>350.0</ele><time>2026-05-03T10:07:30.28Z</time></trkpt><trkpt lat="42.2940067" lon="13.7833233"><ele>350.0</ele><time>2026-05-03T10:07:31.28Z</time></trkpt><trkpt lat="42.2939183" lon="13.7834633"><ele>350.25</ele><time>2026-05-03T10:07:32.28Z</time></trkpt><trkpt lat="42.2938383" lon="13.78359"><ele>350.5</ele><time>2026-05-03T10:07:33.281Z</time></trkpt><trkpt lat="42.2937567" lon="13.783715"><ele>350.75</ele><time>2026-05-03T10:07:34.28Z</time></trkpt><trkpt lat="42.293655" lon="13.783845"><ele>351.0</ele><time>2026-05-03T10:07:35.28Z</time></trkpt><trkpt lat="42.2935433" lon="13.78397"><ele>351.0</ele><time>2026-05-03T10:07:36.28Z</time></trkpt><trkpt lat="42.2934367" lon="13.7840867"><ele>351.0</ele><time>2026-05-03T10:07:37.28Z</time></trkpt><trkpt lat="42.2933233" lon="13.7841983"><ele>351.0</ele><time>2026-05-03T10:07:38.28Z</time></trkpt><trkpt lat="42.293225" lon="13.7842967"><ele>351.0</ele><time>2026-05-03T10:07:39.28Z</time></trkpt><trkpt lat="42.293125" lon="13.784385"><ele>351.25</ele><time>2026-05-03T10:07:40.28Z</time></trkpt><trkpt lat="42.2930317" lon="13.784475"><ele>351.5</ele><time>2026-05-03T10:07:41.28Z</time></trkpt><trkpt lat="42.2929267" lon="13.7845583"><ele>351.75</ele><time>2026-05-03T10:07:42.28Z</time></trkpt><trkpt lat="42.292805" lon="13.7846467"><ele>352.0</ele><time>2026-05-03T10:07:43.28Z</time></trkpt><trkpt lat="42.2926833" lon="13.7847233"><ele>352.0</ele><time>2026-05-03T10:07:44.28Z</time></trkpt><trkpt lat="42.2925733" lon="13.7847817"><ele>352.0</ele><time>2026-05-03T10:07:45.28Z</time></trkpt><trkpt lat="42.2924617" lon="13.7848383"><ele>352.0</ele><time>2026-05-03T10:07:46.28Z</time></trkpt><trkpt lat="42.2923467" lon="13.7848867"><ele>352.0</ele><time>2026-05-03T10:07:47.28Z</time></trkpt><trkpt lat="42.29222" lon="13.7849383"><ele>351.5</ele><time>2026-05-03T10:07:48.28Z</time></trkpt><trkpt lat="42.2920917" lon="13.7849867"><ele>351.0</ele><time>2026-05-03T10:07:49.28Z</time></trkpt><trkpt lat="42.2919617" lon="13.7850367"><ele>350.5</ele><time>2026-05-03T10:07:50.28Z</time></trkpt><trkpt lat="42.291835" lon="13.7850933"><ele>350.0</ele><time>2026-05-03T10:07:51.28Z</time></trkpt><trkpt lat="42.2917083" lon="13.785175"><ele>350.25</ele><time>2026-05-03T10:07:52.28Z</time></trkpt><trkpt lat="42.29159" lon="13.785255"><ele>350.5</ele><time>2026-05-03T10:07:53.28Z</time></trkpt><trkpt lat="42.291485" lon="13.785335"><ele>350.75</ele><time>2026-05-03T10:07:54.28Z</time></trkpt><trkpt lat="42.2913767" lon="13.7854133"><ele>351.0</ele><time>2026-05-03T10:07:55.28Z</time></trkpt><trkpt lat="42.2912667" lon="13.7854867"><ele>351.0</ele><time>2026-05-03T10:07:56.28Z</time></trkpt><trkpt lat="42.29115" lon="13.78556"><ele>351.0</ele><time>2026-05-03T10:07:57.28Z</time></trkpt><trkpt lat="42.2910217" lon="13.78565"><ele>351.0</ele><time>2026-05-03T10:07:58.28Z</time></trkpt><trkpt lat="42.2909083" lon="13.78574"><ele>351.0</ele><time>2026-05-03T10:07:59.28Z</time></trkpt><trkpt lat="42.2908" lon="13.78583"><ele>351.0</ele><time>2026-05-03T10:08:00.28Z</time></trkpt><trkpt lat="42.2907017" lon="13.7859133"><ele>351.0</ele><time>2026-05-03T10:08:01.28Z</time></trkpt><trkpt lat="42.2906017" lon="13.7859883"><ele>351.0</ele><time>2026-05-03T10:08:02.28Z</time></trkpt><trkpt lat="42.2905083" lon="13.7860567"><ele>351.0</ele><time>2026-05-03T10:08:03.28Z</time></trkpt><trkpt lat="42.2904217" lon="13.7861267"><ele>351.0</ele><time>2026-05-03T10:08:04.28Z</time></trkpt><trkpt lat="42.2903367" lon="13.7861983"><ele>351.20000000000005</ele><time>2026-05-03T10:08:05.281Z</time></trkpt><trkpt lat="42.290265" lon="13.7862633"><ele>351.40000000000003</ele><time>2026-05-03T10:08:06.28Z</time></trkpt><trkpt lat="42.2901817" lon="13.7863333"><ele>351.6</ele><time>2026-05-03T10:08:07.28Z</time></trkpt><trkpt lat="42.2901017" lon="13.7864"><ele>351.8</ele><time>2026-05-03T10:08:08.28Z</time></trkpt><trkpt lat="42.290025" lon="13.7864583"><ele>352.0</ele><time>2026-05-03T10:08:09.28Z</time></trkpt><trkpt lat="42.2899333" lon="13.7865267"><ele>352.0</ele><time>2026-05-03T10:08:10.28Z</time></trkpt><trkpt lat="42.2898317" lon="13.7866"><ele>352.0</ele><time>2026-05-03T10:08:11.28Z</time></trkpt><trkpt lat="42.2897167" lon="13.78669"><ele>352.0</ele><time>2026-05-03T10:08:12.28Z</time></trkpt><trkpt lat="42.2895917" lon="13.7867767"><ele>352.0</ele><time>2026-05-03T10:08:13.28Z</time></trkpt><trkpt lat="42.2894733" lon="13.7868717"><ele>352.75</ele><time>2026-05-03T10:08:14.28Z</time></trkpt><trkpt lat="42.289355" lon="13.7869733"><ele>353.5</ele><time>2026-05-03T10:08:15.28Z</time></trkpt><trkpt lat="42.2892383" lon="13.787065"><ele>354.25</ele><time>2026-05-03T10:08:16.28Z</time></trkpt><trkpt lat="42.28913" lon="13.7871517"><ele>355.0</ele><time>2026-05-03T10:08:17.28Z</time></trkpt><trkpt lat="42.2890317" lon="13.7872417"><ele>355.0</ele><time>2026-05-03T10:08:18.28Z</time></trkpt><trkpt lat="42.2889283" lon="13.787345"><ele>355.0</ele><time>2026-05-03T10:08:19.28Z</time></trkpt><trkpt lat="42.2888167" lon="13.78745"><ele>355.0</ele><time>2026-05-03T10:08:20.28Z</time></trkpt><trkpt lat="42.288695" lon="13.7875533"><ele>355.0</ele><time>2026-05-03T10:08:21.28Z</time></trkpt><trkpt lat="42.2885667" lon="13.7876517"><ele>356.25</ele><time>2026-05-03T10:08:22.28Z</time></trkpt><trkpt lat="42.28844" lon="13.7877633"><ele>357.5</ele><time>2026-05-03T10:08:23.28Z</time></trkpt><trkpt lat="42.28832" lon="13.7878567"><ele>358.75</ele><time>2026-05-03T10:08:24.28Z</time></trkpt><trkpt lat="42.28821" lon="13.7879367"><ele>360.0</ele><time>2026-05-03T10:08:25.28Z</time></trkpt><trkpt lat="42.2881217" lon="13.7879883"><ele>360.4</ele><time>2026-05-03T10:08:26.28Z</time></trkpt><trkpt lat="42.28802" lon="13.78802"><ele>360.8</ele><time>2026-05-03T10:08:27.28Z</time></trkpt><trkpt lat="42.2879167" lon="13.7880433"><ele>361.20000000000005</ele><time>2026-05-03T10:08:28.28Z</time></trkpt><trkpt lat="42.2878033" lon="13.7880767"><ele>361.6</ele><time>2026-05-03T10:08:29.28Z</time></trkpt><trkpt lat="42.287695" lon="13.7881217"><ele>362.0</ele><time>2026-05-03T10:08:30.28Z</time></trkpt><trkpt lat="42.2875883" lon="13.78817"><ele>362.0</ele><time>2026-05-03T10:08:31.281Z</time></trkpt><trkpt lat="42.2874833" lon="13.7882183"><ele>362.0</ele><time>2026-05-03T10:08:32.28Z</time></trkpt><trkpt lat="42.2873767" lon="13.7882867"><ele>362.0</ele><time>2026-05-03T10:08:33.28Z</time></trkpt><trkpt lat="42.28727" lon="13.7883367"><ele>362.0</ele><time>2026-05-03T10:08:34.28Z</time></trkpt><trkpt lat="42.2871617" lon="13.788405"><ele>362.0</ele><time>2026-05-03T10:08:35.28Z</time></trkpt><trkpt lat="42.28705" lon="13.7884767"><ele>362.0</ele><time>2026-05-03T10:08:36.28Z</time></trkpt><trkpt lat="42.286945" lon="13.78854"><ele>362.0</ele><time>2026-05-03T10:08:37.28Z</time></trkpt><trkpt lat="42.286855" lon="13.7886083"><ele>362.0</ele><time>2026-05-03T10:08:38.28Z</time></trkpt><trkpt lat="42.286775" lon="13.7886667"><ele>362.0</ele><time>2026-05-03T10:08:39.28Z</time></trkpt><trkpt lat="42.2867117" lon="13.7887167"><ele>362.0</ele><time>2026-05-03T10:08:40.281Z</time></trkpt><trkpt lat="42.2866333" lon="13.7887583"><ele>362.0</ele><time>2026-05-03T10:08:42.281Z</time></trkpt><trkpt lat="42.2865917" lon="13.7886733"><ele>362.0</ele><time>2026-05-03T10:08:45.28Z</time></trkpt><trkpt lat="42.28659" lon="13.7885817"><ele>362.0</ele><time>2026-05-03T10:08:46.28Z</time></trkpt><trkpt lat="42.28659" lon="13.788465"><ele>362.0</ele><time>2026-05-03T10:08:47.28Z</time></trkpt><trkpt lat="42.2865867" lon="13.7883"><ele>362.0</ele><time>2026-05-03T10:08:48.28Z</time></trkpt><trkpt lat="42.2865717" lon="13.78807"><ele>360.6666666666667</ele><time>2026-05-03T10:08:49.28Z</time></trkpt><trkpt lat="42.2865433" lon="13.78781"><ele>359.3333333333333</ele><time>2026-05-03T10:08:50.28Z</time></trkpt><trkpt lat="42.286515" lon="13.7875433"><ele>358.0</ele><time>2026-05-03T10:08:51.281Z</time></trkpt><trkpt lat="42.2864833" lon="13.7872867"><ele>356.3333333333333</ele><time>2026-05-03T10:08:52.28Z</time></trkpt><trkpt lat="42.2864517" lon="13.7870183"><ele>354.6666666666667</ele><time>2026-05-03T10:08:53.28Z</time></trkpt><trkpt lat="42.2864117" lon="13.786745"><ele>353.0</ele><time>2026-05-03T10:08:54.28Z</time></trkpt><trkpt lat="42.28637" lon="13.7864767"><ele>350.0</ele><time>2026-05-03T10:08:55.28Z</time></trkpt><trkpt lat="42.286325" lon="13.7862233"><ele>347.0</ele><time>2026-05-03T10:08:56.281Z</time></trkpt><trkpt lat="42.2862867" lon="13.7859817"><ele>344.0</ele><time>2026-05-03T10:08:57.28Z</time></trkpt><trkpt lat="42.2862583" lon="13.7857617"><ele>343.6666666666667</ele><time>2026-05-03T10:08:58.28Z</time></trkpt><trkpt lat="42.286235" lon="13.7855333"><ele>343.3333333333333</ele><time>2026-05-03T10:08:59.28Z</time></trkpt><trkpt lat="42.2862083" lon="13.7853133"><ele>343.0</ele><time>2026-05-03T10:09:00.28Z</time></trkpt><trkpt lat="42.2861833" lon="13.7850933"><ele>343.0</ele><time>2026-05-03T10:09:01.281Z</time></trkpt><trkpt lat="42.2861533" lon="13.784865"><ele>343.0</ele><time>2026-05-03T10:09:02.28Z</time></trkpt><trkpt lat="42.2861217" lon="13.7846367"><ele>343.0</ele><time>2026-05-03T10:09:03.28Z</time></trkpt><trkpt lat="42.286095" lon="13.7844117"><ele>343.66666666666663</ele><time>2026-05-03T10:09:04.28Z</time></trkpt><trkpt lat="42.2860717" lon="13.7841767"><ele>344.3333333333333</ele><time>2026-05-03T10:09:05.28Z</time></trkpt><trkpt lat="42.2860433" lon="13.7839417"><ele>345.0</ele><time>2026-05-03T10:09:06.281Z</time></trkpt><trkpt lat="42.286015" lon="13.7837033"><ele>345.3333333333333</ele><time>2026-05-03T10:09:07.28Z</time></trkpt><trkpt lat="42.2859833" lon="13.78346"><ele>345.66666666666663</ele><time>2026-05-03T10:09:08.28Z</time></trkpt><trkpt lat="42.2859517" lon="13.7832117"><ele>346.0</ele><time>2026-05-03T10:09:09.28Z</time></trkpt><trkpt lat="42.2859183" lon="13.7829633"><ele>346.0</ele><time>2026-05-03T10:09:10.28Z</time></trkpt><trkpt lat="42.28589" lon="13.782715"><ele>346.0</ele><time>2026-05-03T10:09:11.28Z</time></trkpt><trkpt lat="42.2858483" lon="13.7824783"><ele>346.0</ele><time>2026-05-03T10:09:12.28Z</time></trkpt><trkpt lat="42.285785" lon="13.7822367"><ele>345.3333333333333</ele><time>2026-05-03T10:09:13.28Z</time></trkpt><trkpt lat="42.285705" lon="13.781995"><ele>344.6666666666667</ele><time>2026-05-03T10:09:14.28Z</time></trkpt><trkpt lat="42.28561" lon="13.7817483"><ele>344.0</ele><time>2026-05-03T10:09:15.281Z</time></trkpt><trkpt lat="42.2855083" lon="13.781505"><ele>344.0</ele><time>2026-05-03T10:09:16.28Z</time></trkpt><trkpt lat="42.28541" lon="13.7812683"><ele>344.0</ele><time>2026-05-03T10:09:17.279Z</time></trkpt><trkpt lat="42.28531" lon="13.7810283"><ele>344.0</ele><time>2026-05-03T10:09:18.279Z</time></trkpt><trkpt lat="42.2852133" lon="13.7807917"><ele>343.6666666666667</ele><time>2026-05-03T10:09:19.279Z</time></trkpt><trkpt lat="42.28512" lon="13.7805517"><ele>343.3333333333333</ele><time>2026-05-03T10:09:20.279Z</time></trkpt><trkpt lat="42.2850283" lon="13.7803267"><ele>343.0</ele><time>2026-05-03T10:09:21.279Z</time></trkpt><trkpt lat="42.28493" lon="13.7800967"><ele>343.0</ele><time>2026-05-03T10:09:22.279Z</time></trkpt><trkpt lat="42.28483" lon="13.7798667"><ele>343.0</ele><time>2026-05-03T10:09:23.279Z</time></trkpt><trkpt lat="42.284735" lon="13.7796267"><ele>343.0</ele><time>2026-05-03T10:09:24.279Z</time></trkpt><trkpt lat="42.2846367" lon="13.7793867"><ele>343.0</ele><time>2026-05-03T10:09:25.279Z</time></trkpt><trkpt lat="42.2845383" lon="13.779145"><ele>343.0</ele><time>2026-05-03T10:09:26.279Z</time></trkpt><trkpt lat="42.2844417" lon="13.7788983"><ele>343.0</ele><time>2026-05-03T10:09:27.279Z</time></trkpt><trkpt lat="42.2843417" lon="13.77865"><ele>343.3333333333333</ele><time>2026-05-03T10:09:28.279Z</time></trkpt><trkpt lat="42.2842417" lon="13.7783983"><ele>343.6666666666667</ele><time>2026-05-03T10:09:29.279Z</time></trkpt><trkpt lat="42.28414" lon="13.7781417"><ele>344.0</ele><time>2026-05-03T10:09:30.279Z</time></trkpt><trkpt lat="42.2840333" lon="13.7778833"><ele>344.33333333333337</ele><time>2026-05-03T10:09:31.28Z</time></trkpt><trkpt lat="42.2839267" lon="13.7776233"><ele>344.6666666666667</ele><time>2026-05-03T10:09:32.279Z</time></trkpt><trkpt lat="42.283825" lon="13.7773683"><ele>345.0</ele><time>2026-05-03T10:09:33.279Z</time></trkpt><trkpt lat="42.283725" lon="13.7771117"><ele>345.0</ele><time>2026-05-03T10:09:34.279Z</time></trkpt><trkpt lat="42.2836183" lon="13.7768517"><ele>345.0</ele><time>2026-05-03T10:09:35.279Z</time></trkpt><trkpt lat="42.2835117" lon="13.7765983"><ele>345.0</ele><time>2026-05-03T10:09:36.279Z</time></trkpt><trkpt lat="42.2834071" lon="13.7763396"><ele>345.0</ele><time>2026-05-03T10:09:37.279Z</time></trkpt><trkpt lat="42.2833074" lon="13.7760951"><ele>345.0</ele><time>2026-05-03T10:09:38.279Z</time></trkpt><trkpt lat="42.2832149" lon="13.7758668"><ele>345.0</ele><time>2026-05-03T10:09:39.279Z</time></trkpt><trkpt lat="42.2831291" lon="13.7756503"><ele>345.0</ele><time>2026-05-03T10:09:40.279Z</time></trkpt><trkpt lat="42.2830477" lon="13.7754467"><ele>345.0</ele><time>2026-05-03T10:09:41.279Z</time></trkpt><trkpt lat="42.2829665" lon="13.7752586"><ele>345.0</ele><time>2026-05-03T10:09:42.28Z</time></trkpt><trkpt lat="42.2828834" lon="13.7750826"><ele>345.75</ele><time>2026-05-03T10:09:43.279Z</time></trkpt><trkpt lat="42.2827935" lon="13.7749247"><ele>346.5</ele><time>2026-05-03T10:09:44.279Z</time></trkpt><trkpt lat="42.2826863" lon="13.7747961"><ele>347.25</ele><time>2026-05-03T10:09:45.279Z</time></trkpt><trkpt lat="42.2825567" lon="13.7746912"><ele>348.0</ele><time>2026-05-03T10:09:46.279Z</time></trkpt><trkpt lat="42.2824123" lon="13.7746219"><ele>348.25</ele><time>2026-05-03T10:09:47.279Z</time></trkpt><trkpt lat="42.2822595" lon="13.7745738"><ele>348.5</ele><time>2026-05-03T10:09:48.279Z</time></trkpt><trkpt lat="42.2821095" lon="13.7745458"><ele>348.75</ele><time>2026-05-03T10:09:49.279Z</time></trkpt><trkpt lat="42.2819708" lon="13.7745257"><ele>349.0</ele><time>2026-05-03T10:09:50.279Z</time></trkpt><trkpt lat="42.2818425" lon="13.7744889"><ele>349.0</ele><time>2026-05-03T10:09:51.279Z</time></trkpt><trkpt lat="42.2817171" lon="13.7744273"><ele>349.0</ele><time>2026-05-03T10:09:52.28Z</time></trkpt><trkpt lat="42.2815982" lon="13.7743316"><ele>349.0</ele><time>2026-05-03T10:09:53.279Z</time></trkpt><trkpt lat="42.2814891" lon="13.7742066"><ele>349.0</ele><time>2026-05-03T10:09:54.279Z</time></trkpt><trkpt lat="42.2813808" lon="13.7740657"><ele>349.66666666666663</ele><time>2026-05-03T10:09:55.279Z</time></trkpt><trkpt lat="42.2812708" lon="13.7739114"><ele>350.3333333333333</ele><time>2026-05-03T10:09:56.279Z</time></trkpt><trkpt lat="42.2811511" lon="13.7737541"><ele>351.0</ele><time>2026-05-03T10:09:57.279Z</time></trkpt><trkpt lat="42.2810263" lon="13.7735942"><ele>353.3333333333333</ele><time>2026-05-03T10:09:58.279Z</time></trkpt><trkpt lat="42.2809098" lon="13.7734182"><ele>355.66666666666663</ele><time>2026-05-03T10:09:59.279Z</time></trkpt><trkpt lat="42.2808052" lon="13.7732274"><ele>358.0</ele><time>2026-05-03T10:10:00.279Z</time></trkpt><trkpt lat="42.2807059" lon="13.7730239"><ele>358.0</ele><time>2026-05-03T10:10:01.279Z</time></trkpt><trkpt lat="42.2806079" lon="13.7728201"><ele>358.0</ele><time>2026-05-03T10:10:02.279Z</time></trkpt><trkpt lat="42.2805171" lon="13.7726379"><ele>358.0</ele><time>2026-05-03T10:10:03.279Z</time></trkpt><trkpt lat="42.2804317" lon="13.7724735"><ele>357.25</ele><time>2026-05-03T10:10:04.279Z</time></trkpt><trkpt lat="42.2803567" lon="13.7723324"><ele>356.5</ele><time>2026-05-03T10:10:05.28Z</time></trkpt><trkpt lat="42.2802853" lon="13.7722122"><ele>355.75</ele><time>2026-05-03T10:10:06.279Z</time></trkpt><trkpt lat="42.2801957" lon="13.7721067"><ele>355.0</ele><time>2026-05-03T10:10:07.279Z</time></trkpt><trkpt lat="42.2800805" lon="13.7720197"><ele>355.0</ele><time>2026-05-03T10:10:08.279Z</time></trkpt><trkpt lat="42.279955" lon="13.7719462"><ele>355.0</ele><time>2026-05-03T10:10:09.279Z</time></trkpt><trkpt lat="42.2798417" lon="13.7718667"><ele>355.0</ele><time>2026-05-03T10:10:10.279Z</time></trkpt><trkpt lat="42.279745" lon="13.771755"><ele>355.0</ele><time>2026-05-03T10:10:11.279Z</time></trkpt><trkpt lat="42.2796633" lon="13.7716233"><ele>355.66666666666663</ele><time>2026-05-03T10:10:12.28Z</time></trkpt><trkpt lat="42.2795883" lon="13.771455"><ele>356.3333333333333</ele><time>2026-05-03T10:10:13.279Z</time></trkpt><trkpt lat="42.27952" lon="13.771275"><ele>357.0</ele><time>2026-05-03T10:10:14.279Z</time></trkpt><trkpt lat="42.2794617" lon="13.7710783"><ele>357.6666666666667</ele><time>2026-05-03T10:10:15.279Z</time></trkpt><trkpt lat="42.2793917" lon="13.7708783"><ele>358.33333333333337</ele><time>2026-05-03T10:10:16.279Z</time></trkpt><trkpt lat="42.27932" lon="13.770675"><ele>359.0</ele><time>2026-05-03T10:10:17.279Z</time></trkpt><trkpt lat="42.2792483" lon="13.77047"><ele>359.0</ele><time>2026-05-03T10:10:18.279Z</time></trkpt><trkpt lat="42.2791817" lon="13.7702767"><ele>359.0</ele><time>2026-05-03T10:10:19.279Z</time></trkpt><trkpt lat="42.27912" lon="13.7701"><ele>359.0</ele><time>2026-05-03T10:10:20.28Z</time></trkpt><trkpt lat="42.279065" lon="13.76994"><ele>359.0</ele><time>2026-05-03T10:10:21.279Z</time></trkpt><trkpt lat="42.27901" lon="13.7697917"><ele>359.1666666666667</ele><time>2026-05-03T10:10:22.28Z</time></trkpt><trkpt lat="42.2789667" lon="13.7696617"><ele>359.33333333333337</ele><time>2026-05-03T10:10:23.279Z</time></trkpt><trkpt lat="42.2789317" lon="13.7695583"><ele>359.5</ele><time>2026-05-03T10:10:24.279Z</time></trkpt><trkpt lat="42.2789" lon="13.769465"><ele>359.6666666666667</ele><time>2026-05-03T10:10:25.279Z</time></trkpt><trkpt lat="42.27886" lon="13.7693317"><ele>359.8333333333333</ele><time>2026-05-03T10:10:27.279Z</time></trkpt><trkpt lat="42.2788017" lon="13.7692883"><ele>360.0</ele><time>2026-05-03T10:10:30.279Z</time></trkpt><trkpt lat="42.2787067" lon="13.7693483"><ele>360.0</ele><time>2026-05-03T10:10:32.279Z</time></trkpt><trkpt lat="42.2786367" lon="13.7694283"><ele>360.0</ele><time>2026-05-03T10:10:33.279Z</time></trkpt><trkpt lat="42.27855" lon="13.7695233"><ele>360.0</ele><time>2026-05-03T10:10:34.279Z</time></trkpt><trkpt lat="42.27844" lon="13.7696467"><ele>360.0</ele><time>2026-05-03T10:10:35.279Z</time></trkpt><trkpt lat="42.27832" lon="13.7697933"><ele>360.0</ele><time>2026-05-03T10:10:36.279Z</time></trkpt><trkpt lat="42.278185" lon="13.7699583"><ele>360.0</ele><time>2026-05-03T10:10:37.279Z</time></trkpt><trkpt lat="42.278045" lon="13.7701183"><ele>360.0</ele><time>2026-05-03T10:10:38.279Z</time></trkpt><trkpt lat="42.2779017" lon="13.7702667"><ele>358.0</ele><time>2026-05-03T10:10:39.279Z</time></trkpt><trkpt lat="42.2777783" lon="13.7704083"><ele>356.0</ele><time>2026-05-03T10:10:40.279Z</time></trkpt><trkpt lat="42.2776567" lon="13.7705383"><ele>354.0</ele><time>2026-05-03T10:10:41.279Z</time></trkpt><trkpt lat="42.2775283" lon="13.7706233"><ele>354.0</ele><time>2026-05-03T10:10:42.279Z</time></trkpt><trkpt lat="42.277395" lon="13.770665"><ele>354.0</ele><time>2026-05-03T10:10:43.279Z</time></trkpt><trkpt lat="42.2772483" lon="13.770675"><ele>354.0</ele><time>2026-05-03T10:10:44.279Z</time></trkpt><trkpt lat="42.2770833" lon="13.7706683"><ele>354.0</ele><time>2026-05-03T10:10:45.28Z</time></trkpt><trkpt lat="42.2768917" lon="13.7706517"><ele>352.0</ele><time>2026-05-03T10:10:46.279Z</time></trkpt><trkpt lat="42.2766917" lon="13.7706333"><ele>350.0</ele><time>2026-05-03T10:10:47.279Z</time></trkpt><trkpt lat="42.276495" lon="13.770605"><ele>348.0</ele><time>2026-05-03T10:10:48.279Z</time></trkpt><trkpt lat="42.2763167" lon="13.77058"><ele>346.6666666666667</ele><time>2026-05-03T10:10:49.279Z</time></trkpt><trkpt lat="42.2761417" lon="13.77056"><ele>345.33333333333337</ele><time>2026-05-03T10:10:50.279Z</time></trkpt><trkpt lat="42.2759783" lon="13.7705383"><ele>344.0</ele><time>2026-05-03T10:10:51.279Z</time></trkpt><trkpt lat="42.275825" lon="13.770505"><ele>344.0</ele><time>2026-05-03T10:10:52.28Z</time></trkpt><trkpt lat="42.2756867" lon="13.7704767"><ele>344.0</ele><time>2026-05-03T10:10:53.279Z</time></trkpt><trkpt lat="42.2755567" lon="13.7704767"><ele>344.0</ele><time>2026-05-03T10:10:54.279Z</time></trkpt><trkpt lat="42.2754283" lon="13.7705"><ele>344.0</ele><time>2026-05-03T10:10:55.279Z</time></trkpt><trkpt lat="42.275285" lon="13.7705467"><ele>344.4</ele><time>2026-05-03T10:10:56.279Z</time></trkpt><trkpt lat="42.2751667" lon="13.7706033"><ele>344.79999999999995</ele><time>2026-05-03T10:10:57.28Z</time></trkpt><trkpt lat="42.2750717" lon="13.77067"><ele>345.20000000000005</ele><time>2026-05-03T10:10:58.279Z</time></trkpt><trkpt lat="42.2749883" lon="13.7707517"><ele>345.6</ele><time>2026-05-03T10:10:59.279Z</time></trkpt><trkpt lat="42.2749283" lon="13.7708717"><ele>346.0</ele><time>2026-05-03T10:11:00.279Z</time></trkpt><trkpt lat="42.274885" lon="13.7710267"><ele>346.0</ele><time>2026-05-03T10:11:01.279Z</time></trkpt><trkpt lat="42.2748383" lon="13.771225"><ele>346.0</ele><time>2026-05-03T10:11:02.279Z</time></trkpt><trkpt lat="42.2747967" lon="13.7714317"><ele>346.0</ele><time>2026-05-03T10:11:03.279Z</time></trkpt><trkpt lat="42.2747583" lon="13.7716567"><ele>348.66666666666663</ele><time>2026-05-03T10:11:04.28Z</time></trkpt><trkpt lat="42.2747083" lon="13.7718833"><ele>351.3333333333333</ele><time>2026-05-03T10:11:05.279Z</time></trkpt><trkpt lat="42.274665" lon="13.7720867"><ele>354.0</ele><time>2026-05-03T10:11:06.279Z</time></trkpt><trkpt lat="42.2746183" lon="13.7722633"><ele>354.0</ele><time>2026-05-03T10:11:07.279Z</time></trkpt><trkpt lat="42.274565" lon="13.7724267"><ele>354.0</ele><time>2026-05-03T10:11:08.279Z</time></trkpt><trkpt lat="42.274485" lon="13.772595"><ele>354.0</ele><time>2026-05-03T10:11:09.279Z</time></trkpt><trkpt lat="42.27437" lon="13.7727567"><ele>354.0</ele><time>2026-05-03T10:11:10.279Z</time></trkpt><trkpt lat="42.2742433" lon="13.7729183"><ele>353.3333333333333</ele><time>2026-05-03T10:11:11.28Z</time></trkpt><trkpt lat="42.2741067" lon="13.77308"><ele>352.66666666666663</ele><time>2026-05-03T10:11:12.279Z</time></trkpt><trkpt lat="42.27397" lon="13.77325"><ele>352.0</ele><time>2026-05-03T10:11:13.279Z</time></trkpt><trkpt lat="42.2738317" lon="13.7734267"><ele>352.66666666666663</ele><time>2026-05-03T10:11:14.279Z</time></trkpt><trkpt lat="42.2736883" lon="13.773595"><ele>353.3333333333333</ele><time>2026-05-03T10:11:15.279Z</time></trkpt><trkpt lat="42.2735433" lon="13.7737667"><ele>354.0</ele><time>2026-05-03T10:11:16.279Z</time></trkpt><trkpt lat="42.27339" lon="13.7739483"><ele>354.0</ele><time>2026-05-03T10:11:17.279Z</time></trkpt><trkpt lat="42.273235" lon="13.7741417"><ele>354.0</ele><time>2026-05-03T10:11:18.279Z</time></trkpt><trkpt lat="42.2730867" lon="13.7743517"><ele>354.0</ele><time>2026-05-03T10:11:19.28Z</time></trkpt><trkpt lat="42.2729517" lon="13.77457"><ele>355.0</ele><time>2026-05-03T10:11:20.279Z</time></trkpt><trkpt lat="42.2728283" lon="13.7747817"><ele>356.0</ele><time>2026-05-03T10:11:21.279Z</time></trkpt><trkpt lat="42.2727183" lon="13.7749667"><ele>357.0</ele><time>2026-05-03T10:11:22.279Z</time></trkpt><trkpt lat="42.2726167" lon="13.7751383"><ele>356.0</ele><time>2026-05-03T10:11:23.279Z</time></trkpt><trkpt lat="42.2725217" lon="13.7752967"><ele>355.0</ele><time>2026-05-03T10:11:24.279Z</time></trkpt><trkpt lat="42.27244" lon="13.7754467"><ele>354.0</ele><time>2026-05-03T10:11:25.279Z</time></trkpt><trkpt lat="42.2723683" lon="13.7755933"><ele>353.0</ele><time>2026-05-03T10:11:26.279Z</time></trkpt><trkpt lat="42.2723117" lon="13.7757617"><ele>352.33333333333337</ele><time>2026-05-03T10:11:27.28Z</time></trkpt><trkpt lat="42.27227" lon="13.7759417"><ele>351.6666666666667</ele><time>2026-05-03T10:11:28.279Z</time></trkpt><trkpt lat="42.2722433" lon="13.7761467"><ele>351.0</ele><time>2026-05-03T10:11:29.279Z</time></trkpt><trkpt lat="42.2722233" lon="13.7763783"><ele>351.0</ele><time>2026-05-03T10:11:30.279Z</time></trkpt><trkpt lat="42.272205" lon="13.77662"><ele>351.0</ele><time>2026-05-03T10:11:31.279Z</time></trkpt><trkpt lat="42.27219" lon="13.776865"><ele>351.0</ele><time>2026-05-03T10:11:32.279Z</time></trkpt><trkpt lat="42.2721683" lon="13.7771117"><ele>350.0</ele><time>2026-05-03T10:11:33.279Z</time></trkpt><trkpt lat="42.2721433" lon="13.7773617"><ele>349.0</ele><time>2026-05-03T10:11:34.279Z</time></trkpt><trkpt lat="42.2721133" lon="13.7776233"><ele>348.0</ele><time>2026-05-03T10:11:35.279Z</time></trkpt><trkpt lat="42.2720883" lon="13.77788"><ele>347.3333333333333</ele><time>2026-05-03T10:11:36.279Z</time></trkpt><trkpt lat="42.2720633" lon="13.7781317"><ele>346.66666666666663</ele><time>2026-05-03T10:11:37.28Z</time></trkpt><trkpt lat="42.2720417" lon="13.7783733"><ele>346.0</ele><time>2026-05-03T10:11:38.279Z</time></trkpt><trkpt lat="42.2720183" lon="13.7786017"><ele>345.0</ele><time>2026-05-03T10:11:39.279Z</time></trkpt><trkpt lat="42.2719933" lon="13.7788183"><ele>344.0</ele><time>2026-05-03T10:11:40.279Z</time></trkpt><trkpt lat="42.2719717" lon="13.7790267"><ele>343.0</ele><time>2026-05-03T10:11:41.279Z</time></trkpt><trkpt lat="42.271945" lon="13.7792217"><ele>342.25</ele><time>2026-05-03T10:11:42.279Z</time></trkpt><trkpt lat="42.27192" lon="13.7793983"><ele>341.5</ele><time>2026-05-03T10:11:43.279Z</time></trkpt><trkpt lat="42.271885" lon="13.7795583"><ele>340.75</ele><time>2026-05-03T10:11:44.279Z</time></trkpt><trkpt lat="42.271835" lon="13.7797067"><ele>340.0</ele><time>2026-05-03T10:11:45.279Z</time></trkpt><trkpt lat="42.271765" lon="13.7798433"><ele>340.0</ele><time>2026-05-03T10:11:46.279Z</time></trkpt><trkpt lat="42.27168" lon="13.7799867"><ele>340.0</ele><time>2026-05-03T10:11:47.279Z</time></trkpt><trkpt lat="42.2715933" lon="13.78013"><ele>340.0</ele><time>2026-05-03T10:11:48.279Z</time></trkpt><trkpt lat="42.2714933" lon="13.7802667"><ele>340.0</ele><time>2026-05-03T10:11:49.279Z</time></trkpt><trkpt lat="42.2714017" lon="13.78039"><ele>340.2</ele><time>2026-05-03T10:11:50.279Z</time></trkpt><trkpt lat="42.2713217" lon="13.7805133"><ele>340.4</ele><time>2026-05-03T10:11:51.279Z</time></trkpt><trkpt lat="42.2712467" lon="13.7806233"><ele>340.6</ele><time>2026-05-03T10:11:52.28Z</time></trkpt><trkpt lat="42.2711867" lon="13.7807183"><ele>340.8</ele><time>2026-05-03T10:11:53.28Z</time></trkpt><trkpt lat="42.2711467" lon="13.7807933"><ele>341.0</ele><time>2026-05-03T10:11:54.279Z</time></trkpt><trkpt lat="42.2711033" lon="13.7808617"><ele>341.0</ele><time>2026-05-03T10:11:56.279Z</time></trkpt><trkpt lat="42.2710667" lon="13.78094"><ele>341.0</ele><time>2026-05-03T10:12:04.279Z</time></trkpt><trkpt lat="42.27101" lon="13.7810267"><ele>341.0</ele><time>2026-05-03T10:12:10.279Z</time></trkpt><trkpt lat="42.270955" lon="13.7811033"><ele>341.0</ele><time>2026-05-03T10:12:12.279Z</time></trkpt><trkpt lat="42.2709" lon="13.7811717"><ele>341.0</ele><time>2026-05-03T10:12:13.279Z</time></trkpt><trkpt lat="42.2708317" lon="13.7812367"><ele>341.0</ele><time>2026-05-03T10:12:14.28Z</time></trkpt><trkpt lat="42.270765" lon="13.7812933"><ele>340.0</ele><time>2026-05-03T10:12:15.279Z</time></trkpt><trkpt lat="42.270695" lon="13.78135"><ele>339.0</ele><time>2026-05-03T10:12:16.279Z</time></trkpt><trkpt lat="42.2706033" lon="13.7814033"><ele>338.0</ele><time>2026-05-03T10:12:17.28Z</time></trkpt><trkpt lat="42.2705" lon="13.7814617"><ele>337.0</ele><time>2026-05-03T10:12:18.279Z</time></trkpt><trkpt lat="42.2703883" lon="13.7815267"><ele>336.0</ele><time>2026-05-03T10:12:19.279Z</time></trkpt><trkpt lat="42.270275" lon="13.7816183"><ele>336.0</ele><time>2026-05-03T10:12:20.279Z</time></trkpt><trkpt lat="42.2701567" lon="13.7817117"><ele>336.0</ele><time>2026-05-03T10:12:21.279Z</time></trkpt><trkpt lat="42.270045" lon="13.7817917"><ele>336.0</ele><time>2026-05-03T10:12:22.279Z</time></trkpt><trkpt lat="42.2699383" lon="13.78186"><ele>336.0</ele><time>2026-05-03T10:12:23.279Z</time></trkpt><trkpt lat="42.2698367" lon="13.781915"><ele>336.8</ele><time>2026-05-03T10:12:24.279Z</time></trkpt><trkpt lat="42.269735" lon="13.7819567"><ele>337.6</ele><time>2026-05-03T10:12:25.279Z</time></trkpt><trkpt lat="42.26965" lon="13.781975"><ele>338.4</ele><time>2026-05-03T10:12:26.279Z</time></trkpt><trkpt lat="42.269575" lon="13.7820017"><ele>339.2</ele><time>2026-05-03T10:12:27.279Z</time></trkpt><trkpt lat="42.2695117" lon="13.78204"><ele>340.0</ele><time>2026-05-03T10:12:28.279Z</time></trkpt><trkpt lat="42.2694233" lon="13.7821317"><ele>340.0</ele><time>2026-05-03T10:12:30.279Z</time></trkpt><trkpt lat="42.2693633" lon="13.7822633"><ele>340.0</ele><time>2026-05-03T10:12:32.279Z</time></trkpt><trkpt lat="42.269345" lon="13.7823517"><ele>340.0</ele><time>2026-05-03T10:12:33.279Z</time></trkpt><trkpt lat="42.26933" lon="13.78245"><ele>340.0</ele><time>2026-05-03T10:12:34.28Z</time></trkpt><trkpt lat="42.269315" lon="13.7825567"><ele>340.0</ele><time>2026-05-03T10:12:35.279Z</time></trkpt><trkpt lat="42.2692917" lon="13.7826767"><ele>340.0</ele><time>2026-05-03T10:12:36.279Z</time></trkpt><trkpt lat="42.269275" lon="13.7827933"><ele>339.8333333333333</ele><time>2026-05-03T10:12:37.279Z</time></trkpt><trkpt lat="42.269255" lon="13.782905"><ele>339.66666666666663</ele><time>2026-05-03T10:12:38.28Z</time></trkpt><trkpt lat="42.26924" lon="13.7830183"><ele>339.5</ele><time>2026-05-03T10:12:39.279Z</time></trkpt><trkpt lat="42.2692233" lon="13.7831217"><ele>339.3333333333333</ele><time>2026-05-03T10:12:40.279Z</time></trkpt><trkpt lat="42.2692067" lon="13.7832267"><ele>339.1666666666667</ele><time>2026-05-03T10:12:41.279Z</time></trkpt><trkpt lat="42.2691833" lon="13.7833383"><ele>339.0</ele><time>2026-05-03T10:12:42.28Z</time></trkpt><trkpt lat="42.2691617" lon="13.7834367"><ele>339.1666666666667</ele><time>2026-05-03T10:12:43.279Z</time></trkpt><trkpt lat="42.2691333" lon="13.7835283"><ele>339.3333333333333</ele><time>2026-05-03T10:12:44.279Z</time></trkpt><trkpt lat="42.2690983" lon="13.7836233"><ele>339.5</ele><time>2026-05-03T10:12:45.279Z</time></trkpt><trkpt lat="42.2690567" lon="13.783725"><ele>339.66666666666663</ele><time>2026-05-03T10:12:46.279Z</time></trkpt><trkpt lat="42.2690133" lon="13.7838283"><ele>339.8333333333333</ele><time>2026-05-03T10:12:47.279Z</time></trkpt><trkpt lat="42.268965" lon="13.78393"><ele>340.0</ele><time>2026-05-03T10:12:48.279Z</time></trkpt><trkpt lat="42.2689183" lon="13.7840267"><ele>340.5</ele><time>2026-05-03T10:12:49.279Z</time></trkpt><trkpt lat="42.2688717" lon="13.7841233"><ele>341.0</ele><time>2026-05-03T10:12:50.279Z</time></trkpt><trkpt lat="42.2688233" lon="13.784215"><ele>341.5</ele><time>2026-05-03T10:12:51.279Z</time></trkpt><trkpt lat="42.2687767" lon="13.7843167"><ele>342.0</ele><time>2026-05-03T10:12:52.279Z</time></trkpt><trkpt lat="42.2687183" lon="13.7844117"><ele>342.5</ele><time>2026-05-03T10:12:53.279Z</time></trkpt><trkpt lat="42.2686633" lon="13.7844983"><ele>343.0</ele><time>2026-05-03T10:12:54.279Z</time></trkpt><trkpt lat="42.268605" lon="13.78458"><ele>343.0</ele><time>2026-05-03T10:12:55.279Z</time></trkpt><trkpt lat="42.2685467" lon="13.7846567"><ele>343.0</ele><time>2026-05-03T10:12:56.279Z</time></trkpt><trkpt lat="42.2684833" lon="13.7847367"><ele>343.0</ele><time>2026-05-03T10:12:57.279Z</time></trkpt><trkpt lat="42.2684183" lon="13.7848133"><ele>343.0</ele><time>2026-05-03T10:12:58.28Z</time></trkpt><trkpt lat="42.26835" lon="13.7849"><ele>343.0</ele><time>2026-05-03T10:12:59.279Z</time></trkpt><trkpt lat="42.2682683" lon="13.7849817"><ele>343.0</ele><time>2026-05-03T10:13:00.279Z</time></trkpt><trkpt lat="42.2681833" lon="13.7850633"><ele>343.0</ele><time>2026-05-03T10:13:01.279Z</time></trkpt><trkpt lat="42.2680833" lon="13.7851417"><ele>343.0</ele><time>2026-05-03T10:13:02.279Z</time></trkpt><trkpt lat="42.2680017" lon="13.7852133"><ele>343.0</ele><time>2026-05-03T10:13:03.279Z</time></trkpt><trkpt lat="42.2679283" lon="13.7852733"><ele>343.0</ele><time>2026-05-03T10:13:04.279Z</time></trkpt><trkpt lat="42.2678483" lon="13.7853467"><ele>343.79999999999995</ele><time>2026-05-03T10:13:05.28Z</time></trkpt><trkpt lat="42.2677617" lon="13.7854117"><ele>344.6</ele><time>2026-05-03T10:13:06.279Z</time></trkpt><trkpt lat="42.2676733" lon="13.7854883"><ele>345.4</ele><time>2026-05-03T10:13:07.279Z</time></trkpt><trkpt lat="42.267585" lon="13.7855717"><ele>346.20000000000005</ele><time>2026-05-03T10:13:08.279Z</time></trkpt><trkpt lat="42.2674967" lon="13.7856617"><ele>347.0</ele><time>2026-05-03T10:13:09.279Z</time></trkpt><trkpt lat="42.26742" lon="13.7857483"><ele>347.0</ele><time>2026-05-03T10:13:10.279Z</time></trkpt><trkpt lat="42.26735" lon="13.785845"><ele>347.0</ele><time>2026-05-03T10:13:11.279Z</time></trkpt><trkpt lat="42.26727" lon="13.78594"><ele>347.0</ele><time>2026-05-03T10:13:12.28Z</time></trkpt><trkpt lat="42.26719" lon="13.786035"><ele>347.0</ele><time>2026-05-03T10:13:13.279Z</time></trkpt><trkpt lat="42.2671233" lon="13.7861267"><ele>347.0</ele><time>2026-05-03T10:13:14.279Z</time></trkpt><trkpt lat="42.2670483" lon="13.7862117"><ele>347.20000000000005</ele><time>2026-05-03T10:13:15.279Z</time></trkpt><trkpt lat="42.2669783" lon="13.7862917"><ele>347.4</ele><time>2026-05-03T10:13:16.279Z</time></trkpt><trkpt lat="42.2669217" lon="13.7863583"><ele>347.6</ele><time>2026-05-03T10:13:17.279Z</time></trkpt><trkpt lat="42.2668567" lon="13.7864417"><ele>347.79999999999995</ele><time>2026-05-03T10:13:18.279Z</time></trkpt><trkpt lat="42.2667933" lon="13.7865367"><ele>348.0</ele><time>2026-05-03T10:13:19.279Z</time></trkpt><trkpt lat="42.2667167" lon="13.7866467"><ele>348.0</ele><time>2026-05-03T10:13:20.279Z</time></trkpt><trkpt lat="42.26664" lon="13.7867617"><ele>348.0</ele><time>2026-05-03T10:13:21.28Z</time></trkpt><trkpt lat="42.2665717" lon="13.7868733"><ele>348.0</ele><time>2026-05-03T10:13:22.279Z</time></trkpt><trkpt lat="42.2665067" lon="13.7869867"><ele>348.0</ele><time>2026-05-03T10:13:23.279Z</time></trkpt><trkpt lat="42.26644" lon="13.7870967"><ele>348.0</ele><time>2026-05-03T10:13:24.279Z</time></trkpt><trkpt lat="42.2663767" lon="13.7872133"><ele>347.75</ele><time>2026-05-03T10:13:25.279Z</time></trkpt><trkpt lat="42.2663167" lon="13.7873333"><ele>347.5</ele><time>2026-05-03T10:13:26.279Z</time></trkpt><trkpt lat="42.2662467" lon="13.7874667"><ele>347.25</ele><time>2026-05-03T10:13:27.279Z</time></trkpt><trkpt lat="42.26618" lon="13.7875933"><ele>347.0</ele><time>2026-05-03T10:13:28.279Z</time></trkpt><trkpt lat="42.2661117" lon="13.78772"><ele>347.0</ele><time>2026-05-03T10:13:29.279Z</time></trkpt><trkpt lat="42.2660433" lon="13.7878467"><ele>347.0</ele><time>2026-05-03T10:13:30.279Z</time></trkpt><trkpt lat="42.2659733" lon="13.787965"><ele>347.0</ele><time>2026-05-03T10:13:31.279Z</time></trkpt><trkpt lat="42.2659017" lon="13.7880817"><ele>347.0</ele><time>2026-05-03T10:13:32.279Z</time></trkpt><trkpt lat="42.2658317" lon="13.7882"><ele>347.0</ele><time>2026-05-03T10:13:33.279Z</time></trkpt><trkpt lat="42.2657633" lon="13.7883117"><ele>347.0</ele><time>2026-05-03T10:13:34.279Z</time></trkpt><trkpt lat="42.265695" lon="13.7884167"><ele>347.0</ele><time>2026-05-03T10:13:35.279Z</time></trkpt><trkpt lat="42.265635" lon="13.7885217"><ele>347.0</ele><time>2026-05-03T10:13:36.279Z</time></trkpt><trkpt lat="42.2655733" lon="13.78862"><ele>347.0</ele><time>2026-05-03T10:13:37.28Z</time></trkpt><trkpt lat="42.2655083" lon="13.78873"><ele>347.0</ele><time>2026-05-03T10:13:38.279Z</time></trkpt><trkpt lat="42.2654433" lon="13.7888517"><ele>347.0</ele><time>2026-05-03T10:13:39.279Z</time></trkpt><trkpt lat="42.265385" lon="13.78897"><ele>347.0</ele><time>2026-05-03T10:13:40.279Z</time></trkpt><trkpt lat="42.26533" lon="13.7890967"><ele>347.0</ele><time>2026-05-03T10:13:41.28Z</time></trkpt><trkpt lat="42.2652767" lon="13.789225"><ele>347.0</ele><time>2026-05-03T10:13:42.279Z</time></trkpt><trkpt lat="42.2652267" lon="13.7893567"><ele>347.0</ele><time>2026-05-03T10:13:43.28Z</time></trkpt><trkpt lat="42.2651883" lon="13.78948"><ele>347.0</ele><time>2026-05-03T10:13:44.279Z</time></trkpt><trkpt lat="42.2651517" lon="13.7896067"><ele>347.0</ele><time>2026-05-03T10:13:45.279Z</time></trkpt><trkpt lat="42.26511" lon="13.7897333"><ele>347.0</ele><time>2026-05-03T10:13:46.28Z</time></trkpt><trkpt lat="42.265065" lon="13.78986"><ele>347.0</ele><time>2026-05-03T10:13:47.279Z</time></trkpt><trkpt lat="42.2650217" lon="13.7899933"><ele>347.0</ele><time>2026-05-03T10:13:48.279Z</time></trkpt><trkpt lat="42.2649717" lon="13.7901367"><ele>347.0</ele><time>2026-05-03T10:13:49.279Z</time></trkpt><trkpt lat="42.26492" lon="13.7902767"><ele>347.0</ele><time>2026-05-03T10:13:50.279Z</time></trkpt><trkpt lat="42.2648683" lon="13.7904167"><ele>347.0</ele><time>2026-05-03T10:13:51.279Z</time></trkpt><trkpt lat="42.2648217" lon="13.7905533"><ele>347.40000000000003</ele><time>2026-05-03T10:13:52.279Z</time></trkpt><trkpt lat="42.2647783" lon="13.79068"><ele>347.8</ele><time>2026-05-03T10:13:53.28Z</time></trkpt><trkpt lat="42.2647433" lon="13.790805"><ele>348.2</ele><time>2026-05-03T10:13:54.279Z</time></trkpt><trkpt lat="42.2647117" lon="13.790925"><ele>348.6</ele><time>2026-05-03T10:13:55.279Z</time></trkpt><trkpt lat="42.264675" lon="13.7910433"><ele>349.0</ele><time>2026-05-03T10:13:56.279Z</time></trkpt><trkpt lat="42.264635" lon="13.7911683"><ele>349.0</ele><time>2026-05-03T10:13:57.279Z</time></trkpt><trkpt lat="42.264595" lon="13.7912917"><ele>349.0</ele><time>2026-05-03T10:13:58.279Z</time></trkpt><trkpt lat="42.2645567" lon="13.7914167"><ele>349.0</ele><time>2026-05-03T10:13:59.279Z</time></trkpt><trkpt lat="42.26452" lon="13.7915433"><ele>349.0</ele><time>2026-05-03T10:14:00.279Z</time></trkpt><trkpt lat="42.2644783" lon="13.7916767"><ele>349.0</ele><time>2026-05-03T10:14:01.28Z</time></trkpt><trkpt lat="42.2644333" lon="13.7918117"><ele>348.25</ele><time>2026-05-03T10:14:02.279Z</time></trkpt><trkpt lat="42.2643883" lon="13.7919567"><ele>347.5</ele><time>2026-05-03T10:14:03.279Z</time></trkpt><trkpt lat="42.26435" lon="13.7921017"><ele>346.75</ele><time>2026-05-03T10:14:04.279Z</time></trkpt><trkpt lat="42.264315" lon="13.7922533"><ele>346.0</ele><time>2026-05-03T10:14:05.28Z</time></trkpt><trkpt lat="42.26428" lon="13.792405"><ele>346.0</ele><time>2026-05-03T10:14:06.279Z</time></trkpt><trkpt lat="42.2642417" lon="13.7925467"><ele>346.0</ele><time>2026-05-03T10:14:07.279Z</time></trkpt><trkpt lat="42.2642067" lon="13.7926867"><ele>346.0</ele><time>2026-05-03T10:14:08.279Z</time></trkpt><trkpt lat="42.2641667" lon="13.79283"><ele>346.0</ele><time>2026-05-03T10:14:09.279Z</time></trkpt><trkpt lat="42.26413" lon="13.7929683"><ele>346.0</ele><time>2026-05-03T10:14:10.279Z</time></trkpt><trkpt lat="42.2640867" lon="13.7930967"><ele>346.0</ele><time>2026-05-03T10:14:11.279Z</time></trkpt><trkpt lat="42.2640433" lon="13.79322"><ele>346.0</ele><time>2026-05-03T10:14:12.279Z</time></trkpt><trkpt lat="42.264005" lon="13.793345"><ele>346.0</ele><time>2026-05-03T10:14:13.279Z</time></trkpt><trkpt lat="42.26396" lon="13.793465"><ele>346.0</ele><time>2026-05-03T10:14:14.279Z</time></trkpt><trkpt lat="42.263915" lon="13.7935783"><ele>346.0</ele><time>2026-05-03T10:14:15.279Z</time></trkpt><trkpt lat="42.2638833" lon="13.7936883"><ele>346.0</ele><time>2026-05-03T10:14:16.279Z</time></trkpt><trkpt lat="42.2638533" lon="13.7937933"><ele>346.0</ele><time>2026-05-03T10:14:17.279Z</time></trkpt><trkpt lat="42.2638233" lon="13.7938917"><ele>346.0</ele><time>2026-05-03T10:14:18.279Z</time></trkpt><trkpt lat="42.2637917" lon="13.7939883"><ele>346.0</ele><time>2026-05-03T10:14:19.279Z</time></trkpt><trkpt lat="42.2637617" lon="13.7940883"><ele>346.0</ele><time>2026-05-03T10:14:20.279Z</time></trkpt><trkpt lat="42.2637267" lon="13.794185"><ele>346.0</ele><time>2026-05-03T10:14:21.279Z</time></trkpt><trkpt lat="42.2636867" lon="13.7942817"><ele>345.20000000000005</ele><time>2026-05-03T10:14:22.279Z</time></trkpt><trkpt lat="42.2636383" lon="13.7943833"><ele>344.40000000000003</ele><time>2026-05-03T10:14:23.279Z</time></trkpt><trkpt lat="42.263575" lon="13.7944967"><ele>343.6</ele><time>2026-05-03T10:14:24.28Z</time></trkpt><trkpt lat="42.26351" lon="13.79461"><ele>342.8</ele><time>2026-05-03T10:14:25.279Z</time></trkpt><trkpt lat="42.26344" lon="13.7947183"><ele>342.0</ele><time>2026-05-03T10:14:26.279Z</time></trkpt><trkpt lat="42.26336" lon="13.7948383"><ele>342.0</ele><time>2026-05-03T10:14:27.279Z</time></trkpt><trkpt lat="42.263285" lon="13.79496"><ele>342.0</ele><time>2026-05-03T10:14:28.279Z</time></trkpt><trkpt lat="42.2632133" lon="13.795085"><ele>342.0</ele><time>2026-05-03T10:14:29.279Z</time></trkpt><trkpt lat="42.2631383" lon="13.7952067"><ele>342.0</ele><time>2026-05-03T10:14:30.279Z</time></trkpt><trkpt lat="42.26307" lon="13.79532"><ele>342.8</ele><time>2026-05-03T10:14:31.279Z</time></trkpt><trkpt lat="42.263005" lon="13.7954367"><ele>343.6</ele><time>2026-05-03T10:14:32.279Z</time></trkpt><trkpt lat="42.262935" lon="13.7955483"><ele>344.40000000000003</ele><time>2026-05-03T10:14:33.279Z</time></trkpt><trkpt lat="42.262865" lon="13.7956483"><ele>345.20000000000005</ele><time>2026-05-03T10:14:34.279Z</time></trkpt><trkpt lat="42.2628117" lon="13.7957333"><ele>346.0</ele><time>2026-05-03T10:14:35.279Z</time></trkpt><trkpt lat="42.2627667" lon="13.7958067"><ele>346.0</ele><time>2026-05-03T10:14:36.28Z</time></trkpt><trkpt lat="42.262725" lon="13.7958767"><ele>346.0</ele><time>2026-05-03T10:14:37.279Z</time></trkpt><trkpt lat="42.2626633" lon="13.7959967"><ele>346.0</ele><time>2026-05-03T10:14:39.279Z</time></trkpt><trkpt lat="42.262615" lon="13.7960933"><ele>346.0</ele><time>2026-05-03T10:14:41.279Z</time></trkpt><trkpt lat="42.2625683" lon="13.7961667"><ele>346.0</ele><time>2026-05-03T10:14:43.279Z</time></trkpt><trkpt lat="42.262565" lon="13.796255"><ele>346.0</ele><time>2026-05-03T10:14:46.279Z</time></trkpt><trkpt lat="42.2626367" lon="13.7963133"><ele>345.6</ele><time>2026-05-03T10:14:48.279Z</time></trkpt><trkpt lat="42.2627" lon="13.7963367"><ele>345.20000000000005</ele><time>2026-05-03T10:14:49.279Z</time></trkpt><trkpt lat="42.26278" lon="13.79634"><ele>344.79999999999995</ele><time>2026-05-03T10:14:50.279Z</time></trkpt><trkpt lat="42.2628783" lon="13.7963433"><ele>344.4</ele><time>2026-05-03T10:14:51.279Z</time></trkpt><trkpt lat="42.2629983" lon="13.7963533"><ele>344.0</ele><time>2026-05-03T10:14:52.279Z</time></trkpt><trkpt lat="42.26313" lon="13.7963717"><ele>342.75</ele><time>2026-05-03T10:14:53.279Z</time></trkpt><trkpt lat="42.2632667" lon="13.7963833"><ele>341.5</ele><time>2026-05-03T10:14:54.279Z</time></trkpt><trkpt lat="42.2634017" lon="13.7964133"><ele>340.25</ele><time>2026-05-03T10:14:55.279Z</time></trkpt><trkpt lat="42.26354" lon="13.7964367"><ele>339.0</ele><time>2026-05-03T10:14:56.279Z</time></trkpt><trkpt lat="42.2636817" lon="13.7964583"><ele>339.0</ele><time>2026-05-03T10:14:57.279Z</time></trkpt><trkpt lat="42.26381" lon="13.7964883"><ele>339.0</ele><time>2026-05-03T10:14:58.279Z</time></trkpt><trkpt lat="42.263935" lon="13.796515"><ele>339.0</ele><time>2026-05-03T10:14:59.279Z</time></trkpt><trkpt lat="42.264055" lon="13.7965417"><ele>339.0</ele><time>2026-05-03T10:15:00.279Z</time></trkpt><trkpt lat="42.2641717" lon="13.7965733"><ele>338.2</ele><time>2026-05-03T10:15:01.279Z</time></trkpt><trkpt lat="42.26428" lon="13.7966133"><ele>337.4</ele><time>2026-05-03T10:15:02.279Z</time></trkpt><trkpt lat="42.2643833" lon="13.7966717"><ele>336.6</ele><time>2026-05-03T10:15:03.279Z</time></trkpt><trkpt lat="42.2644717" lon="13.79675"><ele>335.8</ele><time>2026-05-03T10:15:04.279Z</time></trkpt><trkpt lat="42.264555" lon="13.7968433"><ele>335.0</ele><time>2026-05-03T10:15:05.279Z</time></trkpt><trkpt lat="42.2646267" lon="13.7969467"><ele>333.6</ele><time>2026-05-03T10:15:06.279Z</time></trkpt><trkpt lat="42.264695" lon="13.7970567"><ele>332.2</ele><time>2026-05-03T10:15:07.279Z</time></trkpt><trkpt lat="42.2647583" lon="13.797185"><ele>330.79999999999995</ele><time>2026-05-03T10:15:08.279Z</time></trkpt><trkpt lat="42.264805" lon="13.7973217"><ele>329.4</ele><time>2026-05-03T10:15:09.279Z</time></trkpt><trkpt lat="42.2648383" lon="13.7974683"><ele>328.0</ele><time>2026-05-03T10:15:10.28Z</time></trkpt><trkpt lat="42.2648533" lon="13.7976117"><ele>327.59999999999997</ele><time>2026-05-03T10:15:11.279Z</time></trkpt><trkpt lat="42.264865" lon="13.7977567"><ele>327.2</ele><time>2026-05-03T10:15:12.279Z</time></trkpt><trkpt lat="42.26487" lon="13.79789"><ele>326.8</ele><time>2026-05-03T10:15:13.279Z</time></trkpt><trkpt lat="42.2648833" lon="13.79802"><ele>326.4</ele><time>2026-05-03T10:15:14.279Z</time></trkpt><trkpt lat="42.2648983" lon="13.7981433"><ele>326.0</ele><time>2026-05-03T10:15:15.279Z</time></trkpt><trkpt lat="42.26491" lon="13.7982617"><ele>326.0</ele><time>2026-05-03T10:15:16.279Z</time></trkpt><trkpt lat="42.26493" lon="13.79837"><ele>326.0</ele><time>2026-05-03T10:15:17.279Z</time></trkpt><trkpt lat="42.26496" lon="13.7984717"><ele>326.0</ele><time>2026-05-03T10:15:18.279Z</time></trkpt><trkpt lat="42.2649933" lon="13.798565"><ele>326.0</ele><time>2026-05-03T10:15:19.279Z</time></trkpt><trkpt lat="42.265025" lon="13.7986467"><ele>326.0</ele><time>2026-05-03T10:15:20.279Z</time></trkpt><trkpt lat="42.26505" lon="13.7987317"><ele>326.0</ele><time>2026-05-03T10:15:21.279Z</time></trkpt><trkpt lat="42.2650933" lon="13.798865"><ele>326.5</ele><time>2026-05-03T10:15:23.279Z</time></trkpt><trkpt lat="42.2651417" lon="13.7989617"><ele>327.0</ele><time>2026-05-03T10:15:25.279Z</time></trkpt><trkpt lat="42.2651717" lon="13.79907"><ele>327.5</ele><time>2026-05-03T10:15:27.279Z</time></trkpt><trkpt lat="42.265135" lon="13.79916"><ele>328.0</ele><time>2026-05-03T10:15:29.279Z</time></trkpt><trkpt lat="42.2650283" lon="13.7992483"><ele>328.5</ele><time>2026-05-03T10:15:31.279Z</time></trkpt><trkpt lat="42.26496" lon="13.79928"><ele>329.0</ele><time>2026-05-03T10:15:32.279Z</time></trkpt><trkpt lat="42.264885" lon="13.7993017"><ele>329.0</ele><time>2026-05-03T10:15:33.279Z</time></trkpt><trkpt lat="42.2648167" lon="13.7993017"><ele>329.0</ele><time>2026-05-03T10:15:34.279Z</time></trkpt><trkpt lat="42.2647417" lon="13.7992933"><ele>329.0</ele><time>2026-05-03T10:15:35.279Z</time></trkpt><trkpt lat="42.2646533" lon="13.7992983"><ele>329.0</ele><time>2026-05-03T10:15:36.279Z</time></trkpt><trkpt lat="42.264565" lon="13.799315"><ele>329.0</ele><time>2026-05-03T10:15:37.279Z</time></trkpt><trkpt lat="42.26447" lon="13.79934"><ele>329.0</ele><time>2026-05-03T10:15:38.279Z</time></trkpt><trkpt lat="42.2643867" lon="13.7993967"><ele>329.83333333333337</ele><time>2026-05-03T10:15:39.279Z</time></trkpt><trkpt lat="42.26431" lon="13.7994667"><ele>330.6666666666667</ele><time>2026-05-03T10:15:40.279Z</time></trkpt><trkpt lat="42.2642483" lon="13.7995567"><ele>331.5</ele><time>2026-05-03T10:15:41.28Z</time></trkpt><trkpt lat="42.2641833" lon="13.7996333"><ele>332.3333333333333</ele><time>2026-05-03T10:15:42.279Z</time></trkpt><trkpt lat="42.2641133" lon="13.79969"><ele>333.16666666666663</ele><time>2026-05-03T10:15:43.279Z</time></trkpt><trkpt lat="42.2640267" lon="13.7997467"><ele>334.0</ele><time>2026-05-03T10:15:44.279Z</time></trkpt><trkpt lat="42.2639333" lon="13.7998017"><ele>334.0</ele><time>2026-05-03T10:15:45.279Z</time></trkpt><trkpt lat="42.2638333" lon="13.79986"><ele>334.0</ele><time>2026-05-03T10:15:46.279Z</time></trkpt><trkpt lat="42.2637317" lon="13.79991"><ele>334.0</ele><time>2026-05-03T10:15:47.279Z</time></trkpt><trkpt lat="42.26363" lon="13.79995"><ele>334.0</ele><time>2026-05-03T10:15:48.279Z</time></trkpt><trkpt lat="42.2635317" lon="13.7999867"><ele>334.0</ele><time>2026-05-03T10:15:49.279Z</time></trkpt><trkpt lat="42.2634417" lon="13.8000217"><ele>334.0</ele><time>2026-05-03T10:15:50.28Z</time></trkpt><trkpt lat="42.2633667" lon="13.8000383"><ele>334.0</ele><time>2026-05-03T10:15:51.279Z</time></trkpt><trkpt lat="42.2633017" lon="13.80005"><ele>334.0</ele><time>2026-05-03T10:15:52.279Z</time></trkpt><trkpt lat="42.263195" lon="13.8000583"><ele>334.0</ele><time>2026-05-03T10:15:54.279Z</time></trkpt><trkpt lat="42.2630833" lon="13.8000383"><ele>334.0</ele><time>2026-05-03T10:15:56.279Z</time></trkpt><trkpt lat="42.26302" lon="13.80002"><ele>334.0</ele><time>2026-05-03T10:15:57.279Z</time></trkpt><trkpt lat="42.2629533" lon="13.7999917"><ele>333.8333333333333</ele><time>2026-05-03T10:15:58.279Z</time></trkpt><trkpt lat="42.262875" lon="13.7999517"><ele>333.66666666666663</ele><time>2026-05-03T10:15:59.279Z</time></trkpt><trkpt lat="42.2627917" lon="13.7999083"><ele>333.5</ele><time>2026-05-03T10:16:00.279Z</time></trkpt><trkpt lat="42.2627117" lon="13.7998817"><ele>333.3333333333333</ele><time>2026-05-03T10:16:01.279Z</time></trkpt><trkpt lat="42.262625" lon="13.7998667"><ele>333.1666666666667</ele><time>2026-05-03T10:16:02.279Z</time></trkpt><trkpt lat="42.2625283" lon="13.7998533"><ele>333.0</ele><time>2026-05-03T10:16:03.279Z</time></trkpt><trkpt lat="42.2624317" lon="13.79984"><ele>333.0</ele><time>2026-05-03T10:16:04.279Z</time></trkpt><trkpt lat="42.2623333" lon="13.7998267"><ele>333.0</ele><time>2026-05-03T10:16:05.279Z</time></trkpt><trkpt lat="42.262235" lon="13.7998117"><ele>333.0</ele><time>2026-05-03T10:16:06.279Z</time></trkpt><trkpt lat="42.2621283" lon="13.7997967"><ele>333.0</ele><time>2026-05-03T10:16:07.279Z</time></trkpt><trkpt lat="42.262035" lon="13.7997917"><ele>333.0</ele><time>2026-05-03T10:16:08.279Z</time></trkpt><trkpt lat="42.2619433" lon="13.7997883"><ele>332.79999999999995</ele><time>2026-05-03T10:16:09.279Z</time></trkpt><trkpt lat="42.26185" lon="13.7997967"><ele>332.6</ele><time>2026-05-03T10:16:10.279Z</time></trkpt><trkpt lat="42.261755" lon="13.7998267"><ele>332.4</ele><time>2026-05-03T10:16:11.279Z</time></trkpt><trkpt lat="42.2616667" lon="13.7998783"><ele>332.20000000000005</ele><time>2026-05-03T10:16:12.279Z</time></trkpt><trkpt lat="42.2615817" lon="13.79994"><ele>332.0</ele><time>2026-05-03T10:16:13.279Z</time></trkpt><trkpt lat="42.2614817" lon="13.8000117"><ele>332.0</ele><time>2026-05-03T10:16:14.279Z</time></trkpt><trkpt lat="42.261395" lon="13.800075"><ele>332.0</ele><time>2026-05-03T10:16:15.279Z</time></trkpt><trkpt lat="42.2613233" lon="13.8001417"><ele>332.0</ele><time>2026-05-03T10:16:16.279Z</time></trkpt><trkpt lat="42.2612583" lon="13.8002067"><ele>332.0</ele><time>2026-05-03T10:16:17.279Z</time></trkpt><trkpt lat="42.2611933" lon="13.8002833"><ele>332.0</ele><time>2026-05-03T10:16:18.279Z</time></trkpt><trkpt lat="42.2611333" lon="13.8003583"><ele>332.0</ele><time>2026-05-03T10:16:19.279Z</time></trkpt><trkpt lat="42.2610733" lon="13.8004467"><ele>332.0</ele><time>2026-05-03T10:16:20.279Z</time></trkpt><trkpt lat="42.2610067" lon="13.8005367"><ele>332.0</ele><time>2026-05-03T10:16:21.279Z</time></trkpt><trkpt lat="42.26094" lon="13.8006283"><ele>332.0</ele><time>2026-05-03T10:16:22.279Z</time></trkpt><trkpt lat="42.260875" lon="13.8007133"><ele>332.0</ele><time>2026-05-03T10:16:23.279Z</time></trkpt><trkpt lat="42.2608133" lon="13.800785"><ele>332.0</ele><time>2026-05-03T10:16:24.279Z</time></trkpt><trkpt lat="42.2607483" lon="13.8008633"><ele>332.0</ele><time>2026-05-03T10:16:25.279Z</time></trkpt><trkpt lat="42.260685" lon="13.8009267"><ele>332.0</ele><time>2026-05-03T10:16:26.279Z</time></trkpt><trkpt lat="42.2606267" lon="13.800965"><ele>332.0</ele><time>2026-05-03T10:16:27.279Z</time></trkpt><trkpt lat="42.260545" lon="13.8010317"><ele>332.0</ele><time>2026-05-03T10:16:29.279Z</time></trkpt><trkpt lat="42.2604867" lon="13.8010817"><ele>332.0</ele><time>2026-05-03T10:16:31.279Z</time></trkpt><trkpt lat="42.2604083" lon="13.8011483"><ele>332.0</ele><time>2026-05-03T10:16:33.279Z</time></trkpt><trkpt lat="42.2603133" lon="13.801235"><ele>332.0</ele><time>2026-05-03T10:16:35.279Z</time></trkpt><trkpt lat="42.2602533" lon="13.8013"><ele>331.8</ele><time>2026-05-03T10:16:36.279Z</time></trkpt><trkpt lat="42.2601917" lon="13.8013683"><ele>331.6</ele><time>2026-05-03T10:16:37.279Z</time></trkpt><trkpt lat="42.2601267" lon="13.8014367"><ele>331.40000000000003</ele><time>2026-05-03T10:16:38.279Z</time></trkpt><trkpt lat="42.2600617" lon="13.8015167"><ele>331.20000000000005</ele><time>2026-05-03T10:16:39.28Z</time></trkpt><trkpt lat="42.2599833" lon="13.80161"><ele>331.0</ele><time>2026-05-03T10:16:40.28Z</time></trkpt><trkpt lat="42.25991" lon="13.8017183"><ele>331.0</ele><time>2026-05-03T10:16:41.279Z</time></trkpt><trkpt lat="42.25985" lon="13.8018267"><ele>331.0</ele><time>2026-05-03T10:16:42.279Z</time></trkpt><trkpt lat="42.2597867" lon="13.8019233"><ele>331.0</ele><time>2026-05-03T10:16:43.279Z</time></trkpt><trkpt lat="42.25972" lon="13.8020067"><ele>331.0</ele><time>2026-05-03T10:16:44.279Z</time></trkpt><trkpt lat="42.259645" lon="13.8020783"><ele>331.0</ele><time>2026-05-03T10:16:45.279Z</time></trkpt><trkpt lat="42.259565" lon="13.802145"><ele>331.8</ele><time>2026-05-03T10:16:46.279Z</time></trkpt><trkpt lat="42.2594717" lon="13.80221"><ele>332.6</ele><time>2026-05-03T10:16:47.279Z</time></trkpt><trkpt lat="42.2593783" lon="13.8022617"><ele>333.4</ele><time>2026-05-03T10:16:48.279Z</time></trkpt><trkpt lat="42.2592833" lon="13.802315"><ele>334.2</ele><time>2026-05-03T10:16:49.279Z</time></trkpt><trkpt lat="42.25919" lon="13.8023483"><ele>335.0</ele><time>2026-05-03T10:16:50.279Z</time></trkpt><trkpt lat="42.2591017" lon="13.80235"><ele>335.0</ele><time>2026-05-03T10:16:51.279Z</time></trkpt><trkpt lat="42.2590083" lon="13.8023433"><ele>335.0</ele><time>2026-05-03T10:16:52.279Z</time></trkpt><trkpt lat="42.2589033" lon="13.8023167"><ele>335.0</ele><time>2026-05-03T10:16:53.279Z</time></trkpt><trkpt lat="42.2587933" lon="13.8022767"><ele>335.0</ele><time>2026-05-03T10:16:54.279Z</time></trkpt><trkpt lat="42.2586783" lon="13.8022317"><ele>335.0</ele><time>2026-05-03T10:16:55.28Z</time></trkpt><trkpt lat="42.258565" lon="13.80218"><ele>335.6</ele><time>2026-05-03T10:16:56.279Z</time></trkpt><trkpt lat="42.2584533" lon="13.8021367"><ele>336.2</ele><time>2026-05-03T10:16:57.279Z</time></trkpt><trkpt lat="42.2583483" lon="13.8020867"><ele>336.79999999999995</ele><time>2026-05-03T10:16:58.28Z</time></trkpt><trkpt lat="42.2582567" lon="13.802035"><ele>337.4</ele><time>2026-05-03T10:16:59.279Z</time></trkpt><trkpt lat="42.2581783" lon="13.8019683"><ele>338.0</ele><time>2026-05-03T10:17:00.28Z</time></trkpt><trkpt lat="42.258115" lon="13.8018817"><ele>337.2</ele><time>2026-05-03T10:17:01.279Z</time></trkpt><trkpt lat="42.258055" lon="13.8017867"><ele>336.4</ele><time>2026-05-03T10:17:02.279Z</time></trkpt><trkpt lat="42.2580033" lon="13.80168"><ele>335.59999999999997</ele><time>2026-05-03T10:17:03.279Z</time></trkpt><trkpt lat="42.2579617" lon="13.8015633"><ele>334.79999999999995</ele><time>2026-05-03T10:17:04.279Z</time></trkpt><trkpt lat="42.2579117" lon="13.80146"><ele>334.0</ele><time>2026-05-03T10:17:05.279Z</time></trkpt><trkpt lat="42.2578517" lon="13.8013683"><ele>334.0</ele><time>2026-05-03T10:17:06.279Z</time></trkpt><trkpt lat="42.2577883" lon="13.8012867"><ele>334.0</ele><time>2026-05-03T10:17:07.279Z</time></trkpt><trkpt lat="42.25772" lon="13.80122"><ele>334.0</ele><time>2026-05-03T10:17:08.279Z</time></trkpt><trkpt lat="42.2576483" lon="13.8011667"><ele>334.0</ele><time>2026-05-03T10:17:09.279Z</time></trkpt><trkpt lat="42.25757" lon="13.8011433"><ele>334.0</ele><time>2026-05-03T10:17:10.279Z</time></trkpt><trkpt lat="42.2574883" lon="13.8011567"><ele>334.0</ele><time>2026-05-03T10:17:11.279Z</time></trkpt><trkpt lat="42.2574033" lon="13.8011967"><ele>334.0</ele><time>2026-05-03T10:17:12.279Z</time></trkpt><trkpt lat="42.2573167" lon="13.8012683"><ele>334.0</ele><time>2026-05-03T10:17:13.279Z</time></trkpt><trkpt lat="42.25722" lon="13.801355"><ele>334.0</ele><time>2026-05-03T10:17:14.279Z</time></trkpt><trkpt lat="42.2571167" lon="13.80145"><ele>334.0</ele><time>2026-05-03T10:17:15.279Z</time></trkpt><trkpt lat="42.257015" lon="13.8015483"><ele>334.25</ele><time>2026-05-03T10:17:16.279Z</time></trkpt><trkpt lat="42.2569267" lon="13.80166"><ele>334.5</ele><time>2026-05-03T10:17:17.279Z</time></trkpt><trkpt lat="42.2568417" lon="13.8017717"><ele>334.75</ele><time>2026-05-03T10:17:18.279Z</time></trkpt><trkpt lat="42.25676" lon="13.8019"><ele>335.0</ele><time>2026-05-03T10:17:19.279Z</time></trkpt><trkpt lat="42.2566767" lon="13.802015"><ele>335.0</ele><time>2026-05-03T10:17:20.279Z</time></trkpt><trkpt lat="42.25659" lon="13.8021233"><ele>335.0</ele><time>2026-05-03T10:17:21.279Z</time></trkpt><trkpt lat="42.2565083" lon="13.8022167"><ele>335.0</ele><time>2026-05-03T10:17:22.279Z</time></trkpt><trkpt lat="42.256425" lon="13.8022833"><ele>335.0</ele><time>2026-05-03T10:17:23.279Z</time></trkpt><trkpt lat="42.2563283" lon="13.8023317"><ele>335.0</ele><time>2026-05-03T10:17:24.279Z</time></trkpt><trkpt lat="42.2562133" lon="13.8023733"><ele>333.75</ele><time>2026-05-03T10:17:25.279Z</time></trkpt><trkpt lat="42.256085" lon="13.8024067"><ele>332.5</ele><time>2026-05-03T10:17:26.279Z</time></trkpt><trkpt lat="42.255945" lon="13.802455"><ele>331.25</ele><time>2026-05-03T10:17:27.279Z</time></trkpt><trkpt lat="42.255805" lon="13.8024983"><ele>330.0</ele><time>2026-05-03T10:17:28.279Z</time></trkpt><trkpt lat="42.2556717" lon="13.80255"><ele>329.0</ele><time>2026-05-03T10:17:29.28Z</time></trkpt><trkpt lat="42.255555" lon="13.8026117"><ele>328.0</ele><time>2026-05-03T10:17:30.279Z</time></trkpt><trkpt lat="42.25545" lon="13.8026817"><ele>327.0</ele><time>2026-05-03T10:17:31.279Z</time></trkpt><trkpt lat="42.2553433" lon="13.8027533"><ele>326.0</ele><time>2026-05-03T10:17:32.279Z</time></trkpt><trkpt lat="42.25523" lon="13.8028217"><ele>327.0</ele><time>2026-05-03T10:17:33.279Z</time></trkpt><trkpt lat="42.25511" lon="13.8028817"><ele>328.0</ele><time>2026-05-03T10:17:34.279Z</time></trkpt><trkpt lat="42.2549783" lon="13.802935"><ele>329.0</ele><time>2026-05-03T10:17:35.279Z</time></trkpt><trkpt lat="42.2548583" lon="13.8029717"><ele>330.0</ele><time>2026-05-03T10:17:36.279Z</time></trkpt><trkpt lat="42.2547483" lon="13.80299"><ele>330.0</ele><time>2026-05-03T10:17:37.279Z</time></trkpt><trkpt lat="42.254635" lon="13.8029867"><ele>330.0</ele><time>2026-05-03T10:17:38.279Z</time></trkpt><trkpt lat="42.2545283" lon="13.8029883"><ele>330.0</ele><time>2026-05-03T10:17:39.279Z</time></trkpt><trkpt lat="42.2544133" lon="13.8030033"><ele>330.0</ele><time>2026-05-03T10:17:40.279Z</time></trkpt><trkpt lat="42.2542883" lon="13.803045"><ele>330.0</ele><time>2026-05-03T10:17:41.279Z</time></trkpt><trkpt lat="42.2541617" lon="13.803095"><ele>330.0</ele><time>2026-05-03T10:17:42.279Z</time></trkpt><trkpt lat="42.254035" lon="13.8031567"><ele>330.0</ele><time>2026-05-03T10:17:43.279Z</time></trkpt><trkpt lat="42.2539133" lon="13.80322"><ele>330.0</ele><time>2026-05-03T10:17:44.279Z</time></trkpt><trkpt lat="42.2537933" lon="13.8032767"><ele>330.5</ele><time>2026-05-03T10:17:45.28Z</time></trkpt><trkpt lat="42.2536833" lon="13.8033167"><ele>331.0</ele><time>2026-05-03T10:17:46.279Z</time></trkpt><trkpt lat="42.2535817" lon="13.8033683"><ele>331.5</ele><time>2026-05-03T10:17:47.279Z</time></trkpt><trkpt lat="42.25348" lon="13.80344"><ele>332.0</ele><time>2026-05-03T10:17:48.279Z</time></trkpt><trkpt lat="42.2533783" lon="13.803515"><ele>332.0</ele><time>2026-05-03T10:17:49.279Z</time></trkpt><trkpt lat="42.2532833" lon="13.8036033"><ele>332.0</ele><time>2026-05-03T10:17:50.279Z</time></trkpt><trkpt lat="42.253195" lon="13.8036917"><ele>332.0</ele><time>2026-05-03T10:17:51.279Z</time></trkpt><trkpt lat="42.2531067" lon="13.8037767"><ele>332.0</ele><time>2026-05-03T10:17:52.279Z</time></trkpt><trkpt lat="42.253015" lon="13.8038567"><ele>332.0</ele><time>2026-05-03T10:17:53.28Z</time></trkpt><trkpt lat="42.252915" lon="13.8039167"><ele>331.0</ele><time>2026-05-03T10:17:54.279Z</time></trkpt><trkpt lat="42.2528133" lon="13.80396"><ele>330.0</ele><time>2026-05-03T10:17:55.28Z</time></trkpt><trkpt lat="42.2526983" lon="13.8039983"><ele>329.0</ele><time>2026-05-03T10:17:56.279Z</time></trkpt><trkpt lat="42.2525833" lon="13.804025"><ele>328.0</ele><time>2026-05-03T10:17:57.279Z</time></trkpt><trkpt lat="42.2524817" lon="13.8040517"><ele>327.0</ele><time>2026-05-03T10:17:58.279Z</time></trkpt><trkpt lat="42.2523883" lon="13.804065"><ele>327.0</ele><time>2026-05-03T10:17:59.279Z</time></trkpt><trkpt lat="42.2523017" lon="13.80407"><ele>327.0</ele><time>2026-05-03T10:18:00.279Z</time></trkpt><trkpt lat="42.2522083" lon="13.804045"><ele>327.0</ele><time>2026-05-03T10:18:01.279Z</time></trkpt><trkpt lat="42.2521067" lon="13.8040183"><ele>327.0</ele><time>2026-05-03T10:18:02.279Z</time></trkpt><trkpt lat="42.25201" lon="13.8039767"><ele>327.0</ele><time>2026-05-03T10:18:03.279Z</time></trkpt><trkpt lat="42.25192" lon="13.8039217"><ele>328.6666666666667</ele><time>2026-05-03T10:18:04.279Z</time></trkpt><trkpt lat="42.2518417" lon="13.8038467"><ele>330.3333333333333</ele><time>2026-05-03T10:18:05.279Z</time></trkpt><trkpt lat="42.2517683" lon="13.8037633"><ele>332.0</ele><time>2026-05-03T10:18:06.279Z</time></trkpt><trkpt lat="42.2516983" lon="13.80369"><ele>333.66666666666663</ele><time>2026-05-03T10:18:07.279Z</time></trkpt><trkpt lat="42.2516333" lon="13.803625"><ele>335.3333333333333</ele><time>2026-05-03T10:18:08.28Z</time></trkpt><trkpt lat="42.2515717" lon="13.803565"><ele>337.0</ele><time>2026-05-03T10:18:09.279Z</time></trkpt><trkpt lat="42.2514967" lon="13.8035017"><ele>335.6</ele><time>2026-05-03T10:18:10.279Z</time></trkpt><trkpt lat="42.2514167" lon="13.80345"><ele>334.20000000000005</ele><time>2026-05-03T10:18:11.279Z</time></trkpt><trkpt lat="42.251325" lon="13.8034133"><ele>332.8</ele><time>2026-05-03T10:18:12.279Z</time></trkpt><trkpt lat="42.251225" lon="13.80338"><ele>331.4</ele><time>2026-05-03T10:18:13.279Z</time></trkpt><trkpt lat="42.25112" lon="13.8033517"><ele>330.0</ele><time>2026-05-03T10:18:14.279Z</time></trkpt><trkpt lat="42.2510183" lon="13.80332"><ele>330.0</ele><time>2026-05-03T10:18:15.28Z</time></trkpt><trkpt lat="42.2509183" lon="13.8033133"><ele>330.0</ele><time>2026-05-03T10:18:16.279Z</time></trkpt><trkpt lat="42.25082" lon="13.8033033"><ele>330.0</ele><time>2026-05-03T10:18:17.279Z</time></trkpt><trkpt lat="42.2507067" lon="13.803325"><ele>330.0</ele><time>2026-05-03T10:18:18.279Z</time></trkpt><trkpt lat="42.2505917" lon="13.803365"><ele>330.0</ele><time>2026-05-03T10:18:19.28Z</time></trkpt><trkpt lat="42.2504717" lon="13.8034233"><ele>330.0</ele><time>2026-05-03T10:18:20.279Z</time></trkpt><trkpt lat="42.250365" lon="13.8034967"><ele>330.0</ele><time>2026-05-03T10:18:21.279Z</time></trkpt><trkpt lat="42.2502633" lon="13.80358"><ele>330.0</ele><time>2026-05-03T10:18:22.279Z</time></trkpt><trkpt lat="42.2501717" lon="13.803655"><ele>330.0</ele><time>2026-05-03T10:18:23.279Z</time></trkpt><trkpt lat="42.2500733" lon="13.80373"><ele>330.8</ele><time>2026-05-03T10:18:24.279Z</time></trkpt><trkpt lat="42.2499767" lon="13.8038133"><ele>331.6</ele><time>2026-05-03T10:18:25.279Z</time></trkpt><trkpt lat="42.249885" lon="13.8039083"><ele>332.4</ele><time>2026-05-03T10:18:26.279Z</time></trkpt><trkpt lat="42.2498067" lon="13.8040133"><ele>333.2</ele><time>2026-05-03T10:18:27.279Z</time></trkpt><trkpt lat="42.24974" lon="13.8041167"><ele>334.0</ele><time>2026-05-03T10:18:28.279Z</time></trkpt><trkpt lat="42.2496833" lon="13.80423"><ele>334.5</ele><time>2026-05-03T10:18:29.279Z</time></trkpt><trkpt lat="42.2496333" lon="13.8043333"><ele>335.0</ele><time>2026-05-03T10:18:30.279Z</time></trkpt><trkpt lat="42.24958" lon="13.80442"><ele>335.5</ele><time>2026-05-03T10:18:31.279Z</time></trkpt><trkpt lat="42.24953" lon="13.8044967"><ele>336.0</ele><time>2026-05-03T10:18:32.279Z</time></trkpt><trkpt lat="42.249485" lon="13.8045667"><ele>336.5</ele><time>2026-05-03T10:18:33.279Z</time></trkpt><trkpt lat="42.2494383" lon="13.8046317"><ele>337.0</ele><time>2026-05-03T10:18:34.279Z</time></trkpt><trkpt lat="42.2493967" lon="13.8046983"><ele>337.0</ele><time>2026-05-03T10:18:35.279Z</time></trkpt><trkpt lat="42.24935" lon="13.8047667"><ele>337.0</ele><time>2026-05-03T10:18:36.279Z</time></trkpt><trkpt lat="42.2492933" lon="13.8048467"><ele>337.0</ele><time>2026-05-03T10:18:37.279Z</time></trkpt><trkpt lat="42.2492183" lon="13.8049333"><ele>337.0</ele><time>2026-05-03T10:18:38.28Z</time></trkpt><trkpt lat="42.249145" lon="13.8050183"><ele>337.0</ele><time>2026-05-03T10:18:39.279Z</time></trkpt><trkpt lat="42.2490633" lon="13.8050817"><ele>337.0</ele><time>2026-05-03T10:18:40.279Z</time></trkpt><trkpt lat="42.2489817" lon="13.8051283"><ele>336.6</ele><time>2026-05-03T10:18:41.279Z</time></trkpt><trkpt lat="42.2488917" lon="13.805165"><ele>336.20000000000005</ele><time>2026-05-03T10:18:42.279Z</time></trkpt><trkpt lat="42.2487817" lon="13.8051783"><ele>335.8</ele><time>2026-05-03T10:18:43.279Z</time></trkpt><trkpt lat="42.248675" lon="13.805215"><ele>335.4</ele><time>2026-05-03T10:18:44.279Z</time></trkpt><trkpt lat="42.2485767" lon="13.8052667"><ele>335.0</ele><time>2026-05-03T10:18:45.279Z</time></trkpt><trkpt lat="42.2484883" lon="13.805335"><ele>334.99999999999994</ele><time>2026-05-03T10:18:46.279Z</time></trkpt><trkpt lat="42.24841" lon="13.8054033"><ele>335.0</ele><time>2026-05-03T10:18:47.28Z</time></trkpt><trkpt lat="42.24835" lon="13.805465"><ele>335.0</ele><time>2026-05-03T10:18:48.279Z</time></trkpt><trkpt lat="42.248305" lon="13.805525"><ele>335.0</ele><time>2026-05-03T10:18:49.279Z</time></trkpt><trkpt lat="42.2482683" lon="13.805595"><ele>335.0</ele><time>2026-05-03T10:18:50.279Z</time></trkpt><trkpt lat="42.2482317" lon="13.8056717"><ele>334.99999999999994</ele><time>2026-05-03T10:18:51.279Z</time></trkpt><trkpt lat="42.24819" lon="13.80574"><ele>335.0</ele><time>2026-05-03T10:18:52.279Z</time></trkpt><trkpt lat="42.2481183" lon="13.80585"><ele>333.83333333333337</ele><time>2026-05-03T10:18:54.28Z</time></trkpt><trkpt lat="42.2480817" lon="13.805935"><ele>332.6666666666667</ele><time>2026-05-03T10:18:56.279Z</time></trkpt><trkpt lat="42.2480433" lon="13.80602"><ele>331.5</ele><time>2026-05-03T10:18:58.279Z</time></trkpt><trkpt lat="42.24799" lon="13.8061317"><ele>330.3333333333333</ele><time>2026-05-03T10:19:01.279Z</time></trkpt><trkpt lat="42.24794" lon="13.8062167"><ele>329.16666666666663</ele><time>2026-05-03T10:19:03.279Z</time></trkpt><trkpt lat="42.24787" lon="13.8063367"><ele>328.0</ele><time>2026-05-03T10:19:05.279Z</time></trkpt><trkpt lat="42.24781" lon="13.8064867"><ele>328.0</ele><time>2026-05-03T10:19:07.279Z</time></trkpt><trkpt lat="42.2477917" lon="13.806585"><ele>328.0</ele><time>2026-05-03T10:19:08.279Z</time></trkpt><trkpt lat="42.2477783" lon="13.8066867"><ele>328.0</ele><time>2026-05-03T10:19:09.279Z</time></trkpt><trkpt lat="42.2477667" lon="13.80679"><ele>328.0</ele><time>2026-05-03T10:19:10.279Z</time></trkpt><trkpt lat="42.2477517" lon="13.8068917"><ele>328.0</ele><time>2026-05-03T10:19:11.279Z</time></trkpt><trkpt lat="42.2477333" lon="13.8069917"><ele>328.0</ele><time>2026-05-03T10:19:12.279Z</time></trkpt><trkpt lat="42.2476917" lon="13.8071417"><ele>328.0</ele><time>2026-05-03T10:19:14.279Z</time></trkpt><trkpt lat="42.2476183" lon="13.8072833"><ele>328.0</ele><time>2026-05-03T10:19:16.279Z</time></trkpt><trkpt lat="42.247565" lon="13.8073567"><ele>328.0</ele><time>2026-05-03T10:19:17.279Z</time></trkpt><trkpt lat="42.2475017" lon="13.8074233"><ele>328.0</ele><time>2026-05-03T10:19:18.279Z</time></trkpt><trkpt lat="42.247425" lon="13.80749"><ele>328.0</ele><time>2026-05-03T10:19:19.279Z</time></trkpt><trkpt lat="42.2473317" lon="13.8075617"><ele>327.4</ele><time>2026-05-03T10:19:20.28Z</time></trkpt><trkpt lat="42.247255" lon="13.8076333"><ele>326.79999999999995</ele><time>2026-05-03T10:19:21.279Z</time></trkpt><trkpt lat="42.2471833" lon="13.8077117"><ele>326.2</ele><time>2026-05-03T10:19:22.279Z</time></trkpt><trkpt lat="42.2471083" lon="13.8077917"><ele>325.6</ele><time>2026-05-03T10:19:23.279Z</time></trkpt><trkpt lat="42.2470367" lon="13.807875"><ele>325.0</ele><time>2026-05-03T10:19:24.279Z</time></trkpt><trkpt lat="42.2469817" lon="13.8079583"><ele>325.0</ele><time>2026-05-03T10:19:25.279Z</time></trkpt><trkpt lat="42.246925" lon="13.80804"><ele>325.0</ele><time>2026-05-03T10:19:26.279Z</time></trkpt><trkpt lat="42.2468733" lon="13.808125"><ele>325.0</ele><time>2026-05-03T10:19:27.279Z</time></trkpt><trkpt lat="42.24683" lon="13.8082233"><ele>325.0</ele><time>2026-05-03T10:19:28.279Z</time></trkpt><trkpt lat="42.2468067" lon="13.8083233"><ele>325.0</ele><time>2026-05-03T10:19:29.279Z</time></trkpt><trkpt lat="42.2467817" lon="13.8084367"><ele>325.0</ele><time>2026-05-03T10:19:30.279Z</time></trkpt><trkpt lat="42.2467667" lon="13.80855"><ele>324.8</ele><time>2026-05-03T10:19:31.279Z</time></trkpt><trkpt lat="42.246745" lon="13.808675"><ele>324.6</ele><time>2026-05-03T10:19:32.279Z</time></trkpt><trkpt lat="42.2467183" lon="13.8088183"><ele>324.4</ele><time>2026-05-03T10:19:33.279Z</time></trkpt><trkpt lat="42.2466767" lon="13.808965"><ele>324.2</ele><time>2026-05-03T10:19:34.279Z</time></trkpt><trkpt lat="42.24664" lon="13.8091083"><ele>324.0</ele><time>2026-05-03T10:19:35.279Z</time></trkpt><trkpt lat="42.2466017" lon="13.80925"><ele>324.2</ele><time>2026-05-03T10:19:36.28Z</time></trkpt><trkpt lat="42.2465583" lon="13.809385"><ele>324.4</ele><time>2026-05-03T10:19:37.279Z</time></trkpt><trkpt lat="42.2465217" lon="13.80952"><ele>324.6</ele><time>2026-05-03T10:19:38.279Z</time></trkpt><trkpt lat="42.24649" lon="13.8096483"><ele>324.8</ele><time>2026-05-03T10:19:39.279Z</time></trkpt><trkpt lat="42.24645" lon="13.8097767"><ele>325.0</ele><time>2026-05-03T10:19:40.279Z</time></trkpt><trkpt lat="42.2464067" lon="13.809895"><ele>325.0</ele><time>2026-05-03T10:19:41.279Z</time></trkpt><trkpt lat="42.2463667" lon="13.8100017"><ele>325.0</ele><time>2026-05-03T10:19:42.279Z</time></trkpt><trkpt lat="42.2463133" lon="13.8100983"><ele>325.0</ele><time>2026-05-03T10:19:43.28Z</time></trkpt><trkpt lat="42.2462533" lon="13.8101933"><ele>325.0</ele><time>2026-05-03T10:19:44.28Z</time></trkpt><trkpt lat="42.2461817" lon="13.8102817"><ele>325.0</ele><time>2026-05-03T10:19:45.279Z</time></trkpt><trkpt lat="42.246115" lon="13.810365"><ele>325.0</ele><time>2026-05-03T10:19:46.279Z</time></trkpt><trkpt lat="42.2460467" lon="13.8104517"><ele>325.0</ele><time>2026-05-03T10:19:47.279Z</time></trkpt><trkpt lat="42.2459833" lon="13.8105333"><ele>325.0</ele><time>2026-05-03T10:19:48.279Z</time></trkpt><trkpt lat="42.24591" lon="13.8106183"><ele>325.0</ele><time>2026-05-03T10:19:49.279Z</time></trkpt><trkpt lat="42.2458283" lon="13.8107233"><ele>325.0</ele><time>2026-05-03T10:19:50.279Z</time></trkpt><trkpt lat="42.2457467" lon="13.810835"><ele>325.0</ele><time>2026-05-03T10:19:51.279Z</time></trkpt><trkpt lat="42.2456517" lon="13.81095"><ele>325.0</ele><time>2026-05-03T10:19:52.279Z</time></trkpt><trkpt lat="42.245555" lon="13.8110633"><ele>325.0</ele><time>2026-05-03T10:19:53.279Z</time></trkpt><trkpt lat="42.2454583" lon="13.8111633"><ele>325.0</ele><time>2026-05-03T10:19:54.279Z</time></trkpt><trkpt lat="42.245365" lon="13.8112567"><ele>324.8</ele><time>2026-05-03T10:19:55.279Z</time></trkpt><trkpt lat="42.2452767" lon="13.8113433"><ele>324.6</ele><time>2026-05-03T10:19:56.279Z</time></trkpt><trkpt lat="42.2452033" lon="13.8114333"><ele>324.4</ele><time>2026-05-03T10:19:57.279Z</time></trkpt><trkpt lat="42.2451467" lon="13.8115333"><ele>324.2</ele><time>2026-05-03T10:19:58.279Z</time></trkpt><trkpt lat="42.24511" lon="13.8116383"><ele>324.0</ele><time>2026-05-03T10:19:59.279Z</time></trkpt><trkpt lat="42.2450817" lon="13.8117533"><ele>324.6666666666667</ele><time>2026-05-03T10:20:00.279Z</time></trkpt><trkpt lat="42.245055" lon="13.81187"><ele>325.3333333333333</ele><time>2026-05-03T10:20:01.279Z</time></trkpt><trkpt lat="42.2450283" lon="13.8119867"><ele>326.0</ele><time>2026-05-03T10:20:02.279Z</time></trkpt><trkpt lat="42.245005" lon="13.8121033"><ele>326.66666666666663</ele><time>2026-05-03T10:20:03.279Z</time></trkpt><trkpt lat="42.24497" lon="13.8122083"><ele>327.3333333333333</ele><time>2026-05-03T10:20:04.279Z</time></trkpt><trkpt lat="42.244935" lon="13.8123033"><ele>328.0</ele><time>2026-05-03T10:20:05.279Z</time></trkpt><trkpt lat="42.2448867" lon="13.8123883"><ele>328.0</ele><time>2026-05-03T10:20:06.28Z</time></trkpt><trkpt lat="42.2448167" lon="13.8124633"><ele>328.0</ele><time>2026-05-03T10:20:07.279Z</time></trkpt><trkpt lat="42.24474" lon="13.8125117"><ele>328.0</ele><time>2026-05-03T10:20:08.28Z</time></trkpt><trkpt lat="42.2446683" lon="13.8125517"><ele>328.0</ele><time>2026-05-03T10:20:09.279Z</time></trkpt><trkpt lat="42.244575" lon="13.812585"><ele>328.0</ele><time>2026-05-03T10:20:10.28Z</time></trkpt><trkpt lat="42.244475" lon="13.812605"><ele>328.0</ele><time>2026-05-03T10:20:11.279Z</time></trkpt><trkpt lat="42.2443717" lon="13.812635"><ele>328.59999999999997</ele><time>2026-05-03T10:20:12.279Z</time></trkpt><trkpt lat="42.244275" lon="13.81267"><ele>329.2</ele><time>2026-05-03T10:20:13.279Z</time></trkpt><trkpt lat="42.2441883" lon="13.812715"><ele>329.8</ele><time>2026-05-03T10:20:14.28Z</time></trkpt><trkpt lat="42.2441033" lon="13.8127717"><ele>330.4</ele><time>2026-05-03T10:20:15.279Z</time></trkpt><trkpt lat="42.2440167" lon="13.8128217"><ele>331.0</ele><time>2026-05-03T10:20:16.279Z</time></trkpt><trkpt lat="42.2439183" lon="13.8128667"><ele>329.8</ele><time>2026-05-03T10:20:17.279Z</time></trkpt><trkpt lat="42.2438083" lon="13.8128967"><ele>328.6</ele><time>2026-05-03T10:20:18.279Z</time></trkpt><trkpt lat="42.2437133" lon="13.8129333"><ele>327.4</ele><time>2026-05-03T10:20:19.279Z</time></trkpt><trkpt lat="42.2436317" lon="13.8129883"><ele>326.2</ele><time>2026-05-03T10:20:20.279Z</time></trkpt><trkpt lat="42.2435567" lon="13.8130567"><ele>325.0</ele><time>2026-05-03T10:20:21.279Z</time></trkpt><trkpt lat="42.243475" lon="13.8131417"><ele>325.0</ele><time>2026-05-03T10:20:22.279Z</time></trkpt><trkpt lat="42.2433933" lon="13.8132333"><ele>325.0</ele><time>2026-05-03T10:20:23.279Z</time></trkpt><trkpt lat="42.2433183" lon="13.813325"><ele>325.0</ele><time>2026-05-03T10:20:24.28Z</time></trkpt><trkpt lat="42.24324" lon="13.8134283"><ele>325.0</ele><time>2026-05-03T10:20:25.279Z</time></trkpt><trkpt lat="42.24317" lon="13.8135233"><ele>325.0</ele><time>2026-05-03T10:20:26.279Z</time></trkpt><trkpt lat="42.2430967" lon="13.8136233"><ele>324.0</ele><time>2026-05-03T10:20:27.279Z</time></trkpt><trkpt lat="42.2430133" lon="13.8137283"><ele>323.0</ele><time>2026-05-03T10:20:28.279Z</time></trkpt><trkpt lat="42.2429283" lon="13.8138233"><ele>322.0</ele><time>2026-05-03T10:20:29.28Z</time></trkpt><trkpt lat="42.2428383" lon="13.81392"><ele>321.0</ele><time>2026-05-03T10:20:30.279Z</time></trkpt><trkpt lat="42.24275" lon="13.8140083"><ele>320.0</ele><time>2026-05-03T10:20:31.279Z</time></trkpt><trkpt lat="42.2426617" lon="13.8141"><ele>320.0</ele><time>2026-05-03T10:20:32.279Z</time></trkpt><trkpt lat="42.2425767" lon="13.814185"><ele>320.0</ele><time>2026-05-03T10:20:33.279Z</time></trkpt><trkpt lat="42.2424983" lon="13.814265"><ele>320.0</ele><time>2026-05-03T10:20:34.279Z</time></trkpt><trkpt lat="42.2424167" lon="13.8143367"><ele>320.0</ele><time>2026-05-03T10:20:35.279Z</time></trkpt><trkpt lat="42.2423433" lon="13.8143967"><ele>320.0</ele><time>2026-05-03T10:20:36.279Z</time></trkpt><trkpt lat="42.2422833" lon="13.814445"><ele>319.83333333333337</ele><time>2026-05-03T10:20:37.279Z</time></trkpt><trkpt lat="42.2422233" lon="13.8144733"><ele>319.6666666666667</ele><time>2026-05-03T10:20:38.279Z</time></trkpt><trkpt lat="42.242145" lon="13.814485"><ele>319.5</ele><time>2026-05-03T10:20:39.28Z</time></trkpt><trkpt lat="42.2420617" lon="13.814495"><ele>319.3333333333333</ele><time>2026-05-03T10:20:40.279Z</time></trkpt><trkpt lat="42.2419833" lon="13.814525"><ele>319.16666666666663</ele><time>2026-05-03T10:20:41.279Z</time></trkpt><trkpt lat="42.2418867" lon="13.8146117"><ele>319.0</ele><time>2026-05-03T10:20:43.279Z</time></trkpt><trkpt lat="42.2418383" lon="13.8147"><ele>319.0</ele><time>2026-05-03T10:20:44.279Z</time></trkpt><trkpt lat="42.2418183" lon="13.8147933"><ele>319.0</ele><time>2026-05-03T10:20:45.279Z</time></trkpt><trkpt lat="42.2417933" lon="13.8149283"><ele>319.0</ele><time>2026-05-03T10:20:46.279Z</time></trkpt><trkpt lat="42.2417633" lon="13.815085"><ele>319.0</ele><time>2026-05-03T10:20:47.279Z</time></trkpt><trkpt lat="42.2417267" lon="13.81524"><ele>319.0</ele><time>2026-05-03T10:20:48.279Z</time></trkpt><trkpt lat="42.2416933" lon="13.815375"><ele>319.3333333333333</ele><time>2026-05-03T10:20:49.279Z</time></trkpt><trkpt lat="42.2416717" lon="13.8155033"><ele>319.66666666666663</ele><time>2026-05-03T10:20:50.28Z</time></trkpt><trkpt lat="42.2416567" lon="13.815635"><ele>320.0</ele><time>2026-05-03T10:20:51.279Z</time></trkpt><trkpt lat="42.24164" lon="13.8157367"><ele>320.3333333333333</ele><time>2026-05-03T10:20:52.279Z</time></trkpt><trkpt lat="42.241615" lon="13.8158367"><ele>320.6666666666667</ele><time>2026-05-03T10:20:53.279Z</time></trkpt><trkpt lat="42.2415667" lon="13.815935"><ele>321.0</ele><time>2026-05-03T10:20:54.279Z</time></trkpt><trkpt lat="42.241485" lon="13.8160367"><ele>323.0</ele><time>2026-05-03T10:20:55.279Z</time></trkpt><trkpt lat="42.2413817" lon="13.8161267"><ele>325.0</ele><time>2026-05-03T10:20:56.279Z</time></trkpt><trkpt lat="42.2412667" lon="13.8161933"><ele>327.0</ele><time>2026-05-03T10:20:57.28Z</time></trkpt><trkpt lat="42.2411633" lon="13.81623"><ele>329.0</ele><time>2026-05-03T10:20:58.279Z</time></trkpt><trkpt lat="42.2410517" lon="13.8162583"><ele>329.0</ele><time>2026-05-03T10:20:59.279Z</time></trkpt><trkpt lat="42.2409283" lon="13.81627"><ele>329.0</ele><time>2026-05-03T10:21:00.279Z</time></trkpt><trkpt lat="42.2407817" lon="13.816275"><ele>329.0</ele><time>2026-05-03T10:21:01.279Z</time></trkpt><trkpt lat="42.2406433" lon="13.8162733"><ele>329.0</ele><time>2026-05-03T10:21:02.279Z</time></trkpt><trkpt lat="42.240525" lon="13.81627"><ele>328.6666666666667</ele><time>2026-05-03T10:21:03.279Z</time></trkpt><trkpt lat="42.240425" lon="13.8162733"><ele>328.33333333333337</ele><time>2026-05-03T10:21:04.279Z</time></trkpt><trkpt lat="42.2403317" lon="13.8162783"><ele>328.0</ele><time>2026-05-03T10:21:05.279Z</time></trkpt><trkpt lat="42.2402433" lon="13.8162817"><ele>327.6666666666667</ele><time>2026-05-03T10:21:06.279Z</time></trkpt><trkpt lat="42.2401583" lon="13.816285"><ele>327.3333333333333</ele><time>2026-05-03T10:21:07.279Z</time></trkpt><trkpt lat="42.2400767" lon="13.8163017"><ele>327.0</ele><time>2026-05-03T10:21:08.279Z</time></trkpt><trkpt lat="42.2399883" lon="13.8163233"><ele>327.0</ele><time>2026-05-03T10:21:09.279Z</time></trkpt><trkpt lat="42.2398967" lon="13.8163683"><ele>327.0</ele><time>2026-05-03T10:21:10.279Z</time></trkpt><trkpt lat="42.2397983" lon="13.8164083"><ele>327.0</ele><time>2026-05-03T10:21:11.279Z</time></trkpt><trkpt lat="42.2397017" lon="13.816445"><ele>327.0</ele><time>2026-05-03T10:21:12.28Z</time></trkpt><trkpt lat="42.2396267" lon="13.81646"><ele>327.0</ele><time>2026-05-03T10:21:13.279Z</time></trkpt><trkpt lat="42.23952" lon="13.8164467"><ele>326.20000000000005</ele><time>2026-05-03T10:21:15.279Z</time></trkpt><trkpt lat="42.23945" lon="13.816375"><ele>325.4</ele><time>2026-05-03T10:21:17.279Z</time></trkpt><trkpt lat="42.2393867" lon="13.8162533"><ele>324.6</ele><time>2026-05-03T10:21:19.279Z</time></trkpt><trkpt lat="42.2392983" lon="13.8161533"><ele>323.79999999999995</ele><time>2026-05-03T10:21:21.279Z</time></trkpt><trkpt lat="42.2391767" lon="13.8161217"><ele>323.0</ele><time>2026-05-03T10:21:23.279Z</time></trkpt><trkpt lat="42.2390967" lon="13.8161183"><ele>323.0</ele><time>2026-05-03T10:21:24.28Z</time></trkpt><trkpt lat="42.2389967" lon="13.8161017"><ele>323.0</ele><time>2026-05-03T10:21:25.279Z</time></trkpt><trkpt lat="42.2388767" lon="13.8160817"><ele>323.0</ele><time>2026-05-03T10:21:26.279Z</time></trkpt><trkpt lat="42.23876" lon="13.81606"><ele>323.0</ele><time>2026-05-03T10:21:27.279Z</time></trkpt><trkpt lat="42.2386467" lon="13.8160433"><ele>322.0</ele><time>2026-05-03T10:21:28.279Z</time></trkpt><trkpt lat="42.23854" lon="13.8160583"><ele>321.0</ele><time>2026-05-03T10:21:29.279Z</time></trkpt><trkpt lat="42.2384317" lon="13.8160933"><ele>320.0</ele><time>2026-05-03T10:21:30.28Z</time></trkpt><trkpt lat="42.2383217" lon="13.816135"><ele>319.0</ele><time>2026-05-03T10:21:31.279Z</time></trkpt><trkpt lat="42.2382033" lon="13.8161933"><ele>319.0</ele><time>2026-05-03T10:21:32.279Z</time></trkpt><trkpt lat="42.2380833" lon="13.8162533"><ele>319.0</ele><time>2026-05-03T10:21:33.279Z</time></trkpt><trkpt lat="42.2379783" lon="13.816305"><ele>319.0</ele><time>2026-05-03T10:21:34.279Z</time></trkpt><trkpt lat="42.2378767" lon="13.8163583"><ele>319.0</ele><time>2026-05-03T10:21:35.279Z</time></trkpt><trkpt lat="42.2377683" lon="13.8164117"><ele>319.0</ele><time>2026-05-03T10:21:36.279Z</time></trkpt><trkpt lat="42.2376567" lon="13.8164617"><ele>319.0</ele><time>2026-05-03T10:21:37.279Z</time></trkpt><trkpt lat="42.23754" lon="13.81652"><ele>319.0</ele><time>2026-05-03T10:21:38.279Z</time></trkpt><trkpt lat="42.237425" lon="13.816585"><ele>319.0</ele><time>2026-05-03T10:21:39.279Z</time></trkpt><trkpt lat="42.2373083" lon="13.8166417"><ele>319.25</ele><time>2026-05-03T10:21:40.28Z</time></trkpt><trkpt lat="42.237195" lon="13.8166767"><ele>319.5</ele><time>2026-05-03T10:21:41.279Z</time></trkpt><trkpt lat="42.237085" lon="13.8166967"><ele>319.75</ele><time>2026-05-03T10:21:42.279Z</time></trkpt><trkpt lat="42.2369633" lon="13.8167033"><ele>320.0</ele><time>2026-05-03T10:21:43.28Z</time></trkpt><trkpt lat="42.236835" lon="13.81669"><ele>320.0</ele><time>2026-05-03T10:21:44.279Z</time></trkpt><trkpt lat="42.2366967" lon="13.8166633"><ele>320.0</ele><time>2026-05-03T10:21:45.279Z</time></trkpt><trkpt lat="42.23656" lon="13.8166083"><ele>320.0</ele><time>2026-05-03T10:21:46.279Z</time></trkpt><trkpt lat="42.23643" lon="13.816535"><ele>320.0</ele><time>2026-05-03T10:21:47.279Z</time></trkpt><trkpt lat="42.2363167" lon="13.8164517"><ele>320.4</ele><time>2026-05-03T10:21:48.279Z</time></trkpt><trkpt lat="42.236215" lon="13.8163683"><ele>320.8</ele><time>2026-05-03T10:21:49.279Z</time></trkpt><trkpt lat="42.23612" lon="13.8162967"><ele>321.20000000000005</ele><time>2026-05-03T10:21:50.279Z</time></trkpt><trkpt lat="42.2360283" lon="13.8162267"><ele>321.6</ele><time>2026-05-03T10:21:51.279Z</time></trkpt><trkpt lat="42.2359417" lon="13.8161917"><ele>322.0</ele><time>2026-05-03T10:21:52.279Z</time></trkpt><trkpt lat="42.2358633" lon="13.81618"><ele>322.0</ele><time>2026-05-03T10:21:53.28Z</time></trkpt><trkpt lat="42.2357883" lon="13.8161817"><ele>322.0</ele><time>2026-05-03T10:21:54.28Z</time></trkpt><trkpt lat="42.2356783" lon="13.81621"><ele>322.0</ele><time>2026-05-03T10:21:56.279Z</time></trkpt><trkpt lat="42.23558" lon="13.8162683"><ele>322.0</ele><time>2026-05-03T10:21:58.279Z</time></trkpt><trkpt lat="42.235495" lon="13.8163383"><ele>322.0</ele><time>2026-05-03T10:22:00.279Z</time></trkpt><trkpt lat="42.23543" lon="13.816405"><ele>321.8333333333333</ele><time>2026-05-03T10:22:02.279Z</time></trkpt><trkpt lat="42.2353717" lon="13.816495"><ele>321.66666666666663</ele><time>2026-05-03T10:22:04.279Z</time></trkpt><trkpt lat="42.2353" lon="13.8166033"><ele>321.5</ele><time>2026-05-03T10:22:06.279Z</time></trkpt><trkpt lat="42.23526" lon="13.8166783"><ele>321.3333333333333</ele><time>2026-05-03T10:22:07.279Z</time></trkpt><trkpt lat="42.2352167" lon="13.8167717"><ele>321.1666666666667</ele><time>2026-05-03T10:22:08.279Z</time></trkpt><trkpt lat="42.23517" lon="13.8168683"><ele>321.0</ele><time>2026-05-03T10:22:09.279Z</time></trkpt><trkpt lat="42.2351233" lon="13.8169717"><ele>321.0</ele><time>2026-05-03T10:22:10.28Z</time></trkpt><trkpt lat="42.2350717" lon="13.8170767"><ele>321.0</ele><time>2026-05-03T10:22:11.279Z</time></trkpt><trkpt lat="42.23502" lon="13.8171817"><ele>321.0</ele><time>2026-05-03T10:22:12.279Z</time></trkpt><trkpt lat="42.2349633" lon="13.8172967"><ele>321.0</ele><time>2026-05-03T10:22:13.279Z</time></trkpt><trkpt lat="42.2349017" lon="13.8174117"><ele>321.0</ele><time>2026-05-03T10:22:14.279Z</time></trkpt><trkpt lat="42.2348417" lon="13.8175233"><ele>320.0</ele><time>2026-05-03T10:22:15.279Z</time></trkpt><trkpt lat="42.2347767" lon="13.8176283"><ele>319.0</ele><time>2026-05-03T10:22:16.279Z</time></trkpt><trkpt lat="42.2347017" lon="13.81773"><ele>318.0</ele><time>2026-05-03T10:22:17.279Z</time></trkpt><trkpt lat="42.2346183" lon="13.81784"><ele>317.0</ele><time>2026-05-03T10:22:18.279Z</time></trkpt><trkpt lat="42.234525" lon="13.817945"><ele>316.0</ele><time>2026-05-03T10:22:19.279Z</time></trkpt><trkpt lat="42.2344333" lon="13.818045"><ele>318.5</ele><time>2026-05-03T10:22:20.279Z</time></trkpt><trkpt lat="42.2343367" lon="13.8181383"><ele>321.0</ele><time>2026-05-03T10:22:21.279Z</time></trkpt><trkpt lat="42.23424" lon="13.81822"><ele>323.5</ele><time>2026-05-03T10:22:22.279Z</time></trkpt><trkpt lat="42.2341333" lon="13.8183067"><ele>326.0</ele><time>2026-05-03T10:22:23.279Z</time></trkpt><trkpt lat="42.2340233" lon="13.818385"><ele>327.25</ele><time>2026-05-03T10:22:24.279Z</time></trkpt><trkpt lat="42.2339067" lon="13.8184617"><ele>328.5</ele><time>2026-05-03T10:22:25.279Z</time></trkpt><trkpt lat="42.2337933" lon="13.818535"><ele>329.75</ele><time>2026-05-03T10:22:26.279Z</time></trkpt><trkpt lat="42.2336767" lon="13.81861"><ele>331.0</ele><time>2026-05-03T10:22:27.279Z</time></trkpt><trkpt lat="42.23354" lon="13.8186833"><ele>331.0</ele><time>2026-05-03T10:22:28.279Z</time></trkpt><trkpt lat="42.2333983" lon="13.8187483"><ele>331.0</ele><time>2026-05-03T10:22:29.279Z</time></trkpt><trkpt lat="42.2332483" lon="13.8188133"><ele>331.0</ele><time>2026-05-03T10:22:30.28Z</time></trkpt><trkpt lat="42.2331067" lon="13.8188733"><ele>328.5</ele><time>2026-05-03T10:22:31.279Z</time></trkpt><trkpt lat="42.232975" lon="13.818925"><ele>326.0</ele><time>2026-05-03T10:22:32.279Z</time></trkpt><trkpt lat="42.2328467" lon="13.8189617"><ele>323.5</ele><time>2026-05-03T10:22:33.279Z</time></trkpt><trkpt lat="42.2327217" lon="13.81899"><ele>321.0</ele><time>2026-05-03T10:22:34.279Z</time></trkpt><trkpt lat="42.2325917" lon="13.819005"><ele>321.0</ele><time>2026-05-03T10:22:35.279Z</time></trkpt><trkpt lat="42.2324567" lon="13.8190067"><ele>321.0</ele><time>2026-05-03T10:22:36.279Z</time></trkpt><trkpt lat="42.2323183" lon="13.8190133"><ele>321.0</ele><time>2026-05-03T10:22:37.279Z</time></trkpt><trkpt lat="42.2321733" lon="13.81902"><ele>321.0</ele><time>2026-05-03T10:22:38.28Z</time></trkpt><trkpt lat="42.2320317" lon="13.81903"><ele>320.75</ele><time>2026-05-03T10:22:39.279Z</time></trkpt><trkpt lat="42.2318867" lon="13.8190433"><ele>320.5</ele><time>2026-05-03T10:22:40.279Z</time></trkpt><trkpt lat="42.23175" lon="13.8190683"><ele>320.25</ele><time>2026-05-03T10:22:41.279Z</time></trkpt><trkpt lat="42.2316283" lon="13.8191133"><ele>320.0</ele><time>2026-05-03T10:22:42.279Z</time></trkpt><trkpt lat="42.2315167" lon="13.8191717"><ele>319.25</ele><time>2026-05-03T10:22:43.279Z</time></trkpt><trkpt lat="42.2314083" lon="13.8192383"><ele>318.5</ele><time>2026-05-03T10:22:44.279Z</time></trkpt><trkpt lat="42.2313017" lon="13.819315"><ele>317.75</ele><time>2026-05-03T10:22:45.279Z</time></trkpt><trkpt lat="42.2311833" lon="13.8193967"><ele>317.0</ele><time>2026-05-03T10:22:46.279Z</time></trkpt><trkpt lat="42.2310633" lon="13.8194633"><ele>317.25</ele><time>2026-05-03T10:22:47.279Z</time></trkpt><trkpt lat="42.2309433" lon="13.8195133"><ele>317.5</ele><time>2026-05-03T10:22:48.279Z</time></trkpt><trkpt lat="42.230815" lon="13.8195417"><ele>317.75</ele><time>2026-05-03T10:22:49.279Z</time></trkpt><trkpt lat="42.23068" lon="13.8195533"><ele>318.0</ele><time>2026-05-03T10:22:50.279Z</time></trkpt><trkpt lat="42.2305433" lon="13.819565"><ele>318.0</ele><time>2026-05-03T10:22:51.279Z</time></trkpt><trkpt lat="42.2304033" lon="13.8195867"><ele>318.0</ele><time>2026-05-03T10:22:52.279Z</time></trkpt><trkpt lat="42.2302733" lon="13.8196117"><ele>318.0</ele><time>2026-05-03T10:22:53.279Z</time></trkpt><trkpt lat="42.2301467" lon="13.8196317"><ele>318.0</ele><time>2026-05-03T10:22:54.279Z</time></trkpt><trkpt lat="42.2300117" lon="13.8196383"><ele>318.0</ele><time>2026-05-03T10:22:55.279Z</time></trkpt><trkpt lat="42.2298717" lon="13.819645"><ele>318.0</ele><time>2026-05-03T10:22:56.279Z</time></trkpt><trkpt lat="42.2297267" lon="13.81965"><ele>318.0</ele><time>2026-05-03T10:22:57.28Z</time></trkpt><trkpt lat="42.2295833" lon="13.8196517"><ele>318.0</ele><time>2026-05-03T10:22:58.279Z</time></trkpt><trkpt lat="42.229435" lon="13.8196617"><ele>318.0</ele><time>2026-05-03T10:22:59.279Z</time></trkpt><trkpt lat="42.2293017" lon="13.8196617"><ele>318.0</ele><time>2026-05-03T10:23:00.279Z</time></trkpt><trkpt lat="42.2291833" lon="13.8196783"><ele>318.0</ele><time>2026-05-03T10:23:01.279Z</time></trkpt><trkpt lat="42.2290667" lon="13.8197"><ele>318.0</ele><time>2026-05-03T10:23:02.279Z</time></trkpt><trkpt lat="42.2289517" lon="13.8197217"><ele>319.75</ele><time>2026-05-03T10:23:03.279Z</time></trkpt><trkpt lat="42.228835" lon="13.8197317"><ele>321.5</ele><time>2026-05-03T10:23:04.279Z</time></trkpt><trkpt lat="42.22871" lon="13.819735"><ele>323.25</ele><time>2026-05-03T10:23:05.279Z</time></trkpt><trkpt lat="42.2285867" lon="13.8197267"><ele>325.0</ele><time>2026-05-03T10:23:06.279Z</time></trkpt><trkpt lat="42.228455" lon="13.8197017"><ele>325.0</ele><time>2026-05-03T10:23:07.279Z</time></trkpt><trkpt lat="42.2283133" lon="13.8196667"><ele>325.0</ele><time>2026-05-03T10:23:08.279Z</time></trkpt><trkpt lat="42.2281767" lon="13.819625"><ele>325.0</ele><time>2026-05-03T10:23:09.279Z</time></trkpt><trkpt lat="42.22805" lon="13.8195833"><ele>325.0</ele><time>2026-05-03T10:23:10.279Z</time></trkpt><trkpt lat="42.22792" lon="13.8195483"><ele>325.0</ele><time>2026-05-03T10:23:11.279Z</time></trkpt><trkpt lat="42.2277933" lon="13.81953"><ele>325.0</ele><time>2026-05-03T10:23:12.279Z</time></trkpt><trkpt lat="42.227655" lon="13.8195267"><ele>325.0</ele><time>2026-05-03T10:23:13.279Z</time></trkpt><trkpt lat="42.22752" lon="13.81953"><ele>325.0</ele><time>2026-05-03T10:23:14.279Z</time></trkpt><trkpt lat="42.227395" lon="13.8195383"><ele>324.5</ele><time>2026-05-03T10:23:15.279Z</time></trkpt><trkpt lat="42.2272667" lon="13.8195567"><ele>324.0</ele><time>2026-05-03T10:23:16.279Z</time></trkpt><trkpt lat="42.2271367" lon="13.8195867"><ele>323.5</ele><time>2026-05-03T10:23:17.279Z</time></trkpt><trkpt lat="42.2270083" lon="13.819615"><ele>323.0</ele><time>2026-05-03T10:23:18.279Z</time></trkpt><trkpt lat="42.226875" lon="13.8196567"><ele>323.0</ele><time>2026-05-03T10:23:19.279Z</time></trkpt><trkpt lat="42.226755" lon="13.81971"><ele>323.0</ele><time>2026-05-03T10:23:20.279Z</time></trkpt><trkpt lat="42.2266483" lon="13.8197833"><ele>323.0</ele><time>2026-05-03T10:23:21.278Z</time></trkpt><trkpt lat="42.2265583" lon="13.8198667"><ele>323.0</ele><time>2026-05-03T10:23:22.278Z</time></trkpt><trkpt lat="42.226475" lon="13.81995"><ele>322.0</ele><time>2026-05-03T10:23:23.278Z</time></trkpt><trkpt lat="42.2264017" lon="13.82004"><ele>321.0</ele><time>2026-05-03T10:23:24.278Z</time></trkpt><trkpt lat="42.22634" lon="13.8201467"><ele>320.0</ele><time>2026-05-03T10:23:25.278Z</time></trkpt><trkpt lat="42.2262767" lon="13.8202667"><ele>319.0</ele><time>2026-05-03T10:23:26.278Z</time></trkpt><trkpt lat="42.2262117" lon="13.8203917"><ele>318.0</ele><time>2026-05-03T10:23:27.278Z</time></trkpt><trkpt lat="42.2261333" lon="13.8205217"><ele>318.0</ele><time>2026-05-03T10:23:28.278Z</time></trkpt><trkpt lat="42.22605" lon="13.8206617"><ele>318.0</ele><time>2026-05-03T10:23:29.278Z</time></trkpt><trkpt lat="42.2259817" lon="13.82081"><ele>318.0</ele><time>2026-05-03T10:23:30.278Z</time></trkpt><trkpt lat="42.2259017" lon="13.8209583"><ele>318.0</ele><time>2026-05-03T10:23:31.278Z</time></trkpt><trkpt lat="42.22582" lon="13.8210933"><ele>318.25</ele><time>2026-05-03T10:23:32.278Z</time></trkpt><trkpt lat="42.2257417" lon="13.8212067"><ele>318.5</ele><time>2026-05-03T10:23:33.278Z</time></trkpt><trkpt lat="42.2256517" lon="13.821315"><ele>318.75</ele><time>2026-05-03T10:23:34.278Z</time></trkpt><trkpt lat="42.22555" lon="13.8214033"><ele>319.0</ele><time>2026-05-03T10:23:35.278Z</time></trkpt><trkpt lat="42.225425" lon="13.821485"><ele>319.0</ele><time>2026-05-03T10:23:36.278Z</time></trkpt><trkpt lat="42.2252933" lon="13.821555"><ele>319.0</ele><time>2026-05-03T10:23:37.278Z</time></trkpt><trkpt lat="42.2251517" lon="13.8216017"><ele>319.0</ele><time>2026-05-03T10:23:38.278Z</time></trkpt><trkpt lat="42.225015" lon="13.82164"><ele>319.0</ele><time>2026-05-03T10:23:39.278Z</time></trkpt><trkpt lat="42.2248767" lon="13.8216767"><ele>318.75</ele><time>2026-05-03T10:23:40.279Z</time></trkpt><trkpt lat="42.2247433" lon="13.8217117"><ele>318.5</ele><time>2026-05-03T10:23:41.278Z</time></trkpt><trkpt lat="42.2246233" lon="13.821755"><ele>318.25</ele><time>2026-05-03T10:23:42.279Z</time></trkpt><trkpt lat="42.2245083" lon="13.821805"><ele>318.0</ele><time>2026-05-03T10:23:43.278Z</time></trkpt><trkpt lat="42.2243917" lon="13.8218717"><ele>318.5</ele><time>2026-05-03T10:23:44.278Z</time></trkpt><trkpt lat="42.2242733" lon="13.82195"><ele>319.0</ele><time>2026-05-03T10:23:45.278Z</time></trkpt><trkpt lat="42.2241567" lon="13.8220433"><ele>319.5</ele><time>2026-05-03T10:23:46.279Z</time></trkpt><trkpt lat="42.224045" lon="13.8221367"><ele>320.0</ele><time>2026-05-03T10:23:47.278Z</time></trkpt><trkpt lat="42.2239333" lon="13.8222317"><ele>320.0</ele><time>2026-05-03T10:23:48.278Z</time></trkpt><trkpt lat="42.22382" lon="13.8223317"><ele>320.0</ele><time>2026-05-03T10:23:49.279Z</time></trkpt><trkpt lat="42.2237067" lon="13.8224317"><ele>320.0</ele><time>2026-05-03T10:23:50.278Z</time></trkpt><trkpt lat="42.2235917" lon="13.8225167"><ele>320.0</ele><time>2026-05-03T10:23:51.279Z</time></trkpt><trkpt lat="42.2234717" lon="13.8225967"><ele>322.0</ele><time>2026-05-03T10:23:52.278Z</time></trkpt><trkpt lat="42.2233483" lon="13.82266"><ele>324.0</ele><time>2026-05-03T10:23:53.278Z</time></trkpt><trkpt lat="42.2232283" lon="13.822705"><ele>326.0</ele><time>2026-05-03T10:23:54.278Z</time></trkpt><trkpt lat="42.2231017" lon="13.8227167"><ele>328.0</ele><time>2026-05-03T10:23:55.278Z</time></trkpt><trkpt lat="42.2229817" lon="13.8227083"><ele>328.0</ele><time>2026-05-03T10:23:56.278Z</time></trkpt><trkpt lat="42.2228683" lon="13.8226783"><ele>328.0</ele><time>2026-05-03T10:23:57.278Z</time></trkpt><trkpt lat="42.222755" lon="13.8226517"><ele>328.0</ele><time>2026-05-03T10:23:58.278Z</time></trkpt><trkpt lat="42.2226367" lon="13.8226233"><ele>328.0</ele><time>2026-05-03T10:23:59.278Z</time></trkpt><trkpt lat="42.2225283" lon="13.8225933"><ele>327.5</ele><time>2026-05-03T10:24:00.278Z</time></trkpt><trkpt lat="42.2224217" lon="13.822565"><ele>327.0</ele><time>2026-05-03T10:24:01.278Z</time></trkpt><trkpt lat="42.22231" lon="13.8225333"><ele>326.5</ele><time>2026-05-03T10:24:02.278Z</time></trkpt><trkpt lat="42.222195" lon="13.8224967"><ele>326.0</ele><time>2026-05-03T10:24:03.278Z</time></trkpt><trkpt lat="42.22208" lon="13.8224583"><ele>326.0</ele><time>2026-05-03T10:24:04.278Z</time></trkpt><trkpt lat="42.2219683" lon="13.82242"><ele>326.0</ele><time>2026-05-03T10:24:05.278Z</time></trkpt><trkpt lat="42.22187" lon="13.8223883"><ele>326.0</ele><time>2026-05-03T10:24:06.278Z</time></trkpt><trkpt lat="42.22178" lon="13.8223617"><ele>326.0</ele><time>2026-05-03T10:24:07.278Z</time></trkpt><trkpt lat="42.2216983" lon="13.82233"><ele>326.0</ele><time>2026-05-03T10:24:08.278Z</time></trkpt><trkpt lat="42.22161" lon="13.8222967"><ele>326.0</ele><time>2026-05-03T10:24:09.278Z</time></trkpt><trkpt lat="42.2215183" lon="13.8222617"><ele>326.0</ele><time>2026-05-03T10:24:10.278Z</time></trkpt><trkpt lat="42.2214217" lon="13.8222283"><ele>326.0</ele><time>2026-05-03T10:24:11.278Z</time></trkpt><trkpt lat="42.2213133" lon="13.822205"><ele>326.0</ele><time>2026-05-03T10:24:12.278Z</time></trkpt><trkpt lat="42.22119" lon="13.82219"><ele>326.0</ele><time>2026-05-03T10:24:13.278Z</time></trkpt><trkpt lat="42.2210717" lon="13.8221933"><ele>326.6</ele><time>2026-05-03T10:24:14.278Z</time></trkpt><trkpt lat="42.2209617" lon="13.822205"><ele>327.20000000000005</ele><time>2026-05-03T10:24:15.278Z</time></trkpt><trkpt lat="42.220865" lon="13.822235"><ele>327.79999999999995</ele><time>2026-05-03T10:24:16.278Z</time></trkpt><trkpt lat="42.220775" lon="13.82228"><ele>328.4</ele><time>2026-05-03T10:24:17.278Z</time></trkpt><trkpt lat="42.2206967" lon="13.8223417"><ele>329.0</ele><time>2026-05-03T10:24:18.278Z</time></trkpt><trkpt lat="42.22062" lon="13.8224233"><ele>327.75</ele><time>2026-05-03T10:24:19.278Z</time></trkpt><trkpt lat="42.2205383" lon="13.82253"><ele>326.5</ele><time>2026-05-03T10:24:20.278Z</time></trkpt><trkpt lat="42.22044" lon="13.822645"><ele>325.25</ele><time>2026-05-03T10:24:21.278Z</time></trkpt><trkpt lat="42.2203417" lon="13.8227767"><ele>324.0</ele><time>2026-05-03T10:24:22.279Z</time></trkpt><trkpt lat="42.2202433" lon="13.8228983"><ele>324.0</ele><time>2026-05-03T10:24:23.279Z</time></trkpt><trkpt lat="42.22015" lon="13.8230117"><ele>324.0</ele><time>2026-05-03T10:24:24.278Z</time></trkpt><trkpt lat="42.22005" lon="13.8231117"><ele>324.0</ele><time>2026-05-03T10:24:25.278Z</time></trkpt><trkpt lat="42.2199567" lon="13.8232083"><ele>324.0</ele><time>2026-05-03T10:24:26.278Z</time></trkpt><trkpt lat="42.2198683" lon="13.8233"><ele>323.4</ele><time>2026-05-03T10:24:27.278Z</time></trkpt><trkpt lat="42.21979" lon="13.8233867"><ele>322.79999999999995</ele><time>2026-05-03T10:24:28.278Z</time></trkpt><trkpt lat="42.2197183" lon="13.82348"><ele>322.20000000000005</ele><time>2026-05-03T10:24:29.278Z</time></trkpt><trkpt lat="42.21964" lon="13.8235617"><ele>321.6</ele><time>2026-05-03T10:24:30.278Z</time></trkpt><trkpt lat="42.21955" lon="13.8236317"><ele>321.0</ele><time>2026-05-03T10:24:31.278Z</time></trkpt><trkpt lat="42.2194567" lon="13.8237117"><ele>321.0</ele><time>2026-05-03T10:24:32.278Z</time></trkpt><trkpt lat="42.2193533" lon="13.8237833"><ele>321.0</ele><time>2026-05-03T10:24:33.278Z</time></trkpt><trkpt lat="42.2192367" lon="13.8238433"><ele>321.0</ele><time>2026-05-03T10:24:34.278Z</time></trkpt><trkpt lat="42.2191167" lon="13.8238983"><ele>321.0</ele><time>2026-05-03T10:24:35.278Z</time></trkpt><trkpt lat="42.2190083" lon="13.8239517"><ele>321.20000000000005</ele><time>2026-05-03T10:24:36.278Z</time></trkpt><trkpt lat="42.2189117" lon="13.8240083"><ele>321.40000000000003</ele><time>2026-05-03T10:24:37.278Z</time></trkpt><trkpt lat="42.2188133" lon="13.824065"><ele>321.6</ele><time>2026-05-03T10:24:38.278Z</time></trkpt><trkpt lat="42.2187033" lon="13.8241133"><ele>321.8</ele><time>2026-05-03T10:24:39.278Z</time></trkpt><trkpt lat="42.2185933" lon="13.8241683"><ele>322.0</ele><time>2026-05-03T10:24:40.278Z</time></trkpt><trkpt lat="42.21849" lon="13.824215"><ele>322.0</ele><time>2026-05-03T10:24:41.278Z</time></trkpt><trkpt lat="42.2183967" lon="13.8242567"><ele>322.0</ele><time>2026-05-03T10:24:42.278Z</time></trkpt><trkpt lat="42.218305" lon="13.8242933"><ele>322.0</ele><time>2026-05-03T10:24:43.278Z</time></trkpt><trkpt lat="42.2182133" lon="13.8243283"><ele>322.0</ele><time>2026-05-03T10:24:44.278Z</time></trkpt><trkpt lat="42.2181167" lon="13.82436"><ele>322.0</ele><time>2026-05-03T10:24:45.278Z</time></trkpt><trkpt lat="42.2180167" lon="13.8243883"><ele>322.40000000000003</ele><time>2026-05-03T10:24:46.278Z</time></trkpt><trkpt lat="42.2179133" lon="13.824425"><ele>322.8</ele><time>2026-05-03T10:24:47.278Z</time></trkpt><trkpt lat="42.2178067" lon="13.8244717"><ele>323.2</ele><time>2026-05-03T10:24:48.278Z</time></trkpt><trkpt lat="42.2177067" lon="13.8245217"><ele>323.6</ele><time>2026-05-03T10:24:49.278Z</time></trkpt><trkpt lat="42.217615" lon="13.8245767"><ele>324.0</ele><time>2026-05-03T10:24:50.278Z</time></trkpt><trkpt lat="42.2175267" lon="13.8246333"><ele>324.0</ele><time>2026-05-03T10:24:51.278Z</time></trkpt><trkpt lat="42.2174433" lon="13.8246867"><ele>324.0</ele><time>2026-05-03T10:24:52.279Z</time></trkpt><trkpt lat="42.2173667" lon="13.8247383"><ele>324.0</ele><time>2026-05-03T10:24:53.278Z</time></trkpt><trkpt lat="42.2172917" lon="13.824785"><ele>324.0</ele><time>2026-05-03T10:24:54.279Z</time></trkpt><trkpt lat="42.2172217" lon="13.824825"><ele>324.0</ele><time>2026-05-03T10:24:55.278Z</time></trkpt><trkpt lat="42.2171567" lon="13.82486"><ele>324.0</ele><time>2026-05-03T10:24:56.278Z</time></trkpt><trkpt lat="42.2170467" lon="13.8248533"><ele>323.6</ele><time>2026-05-03T10:24:58.278Z</time></trkpt><trkpt lat="42.2169517" lon="13.8247333"><ele>323.2</ele><time>2026-05-03T10:25:00.278Z</time></trkpt><trkpt lat="42.2169083" lon="13.8246417"><ele>322.8</ele><time>2026-05-03T10:25:01.278Z</time></trkpt><trkpt lat="42.21686" lon="13.8245133"><ele>322.40000000000003</ele><time>2026-05-03T10:25:02.278Z</time></trkpt><trkpt lat="42.2168033" lon="13.824365"><ele>322.0</ele><time>2026-05-03T10:25:03.278Z</time></trkpt><trkpt lat="42.216745" lon="13.8242183"><ele>321.40000000000003</ele><time>2026-05-03T10:25:04.278Z</time></trkpt><trkpt lat="42.21669" lon="13.824075"><ele>320.8</ele><time>2026-05-03T10:25:05.278Z</time></trkpt><trkpt lat="42.2166317" lon="13.8239383"><ele>320.2</ele><time>2026-05-03T10:25:06.278Z</time></trkpt><trkpt lat="42.2165783" lon="13.8238067"><ele>319.6</ele><time>2026-05-03T10:25:07.278Z</time></trkpt><trkpt lat="42.2165283" lon="13.8236867"><ele>319.0</ele><time>2026-05-03T10:25:08.278Z</time></trkpt><trkpt lat="42.2164733" lon="13.8235733"><ele>317.8</ele><time>2026-05-03T10:25:09.278Z</time></trkpt><trkpt lat="42.2164267" lon="13.8234567"><ele>316.59999999999997</ele><time>2026-05-03T10:25:10.278Z</time></trkpt><trkpt lat="42.2163717" lon="13.8233383"><ele>315.4</ele><time>2026-05-03T10:25:11.278Z</time></trkpt><trkpt lat="42.21632" lon="13.8232233"><ele>314.2</ele><time>2026-05-03T10:25:12.278Z</time></trkpt><trkpt lat="42.2162717" lon="13.823115"><ele>313.0</ele><time>2026-05-03T10:25:13.278Z</time></trkpt><trkpt lat="42.2162283" lon="13.82301"><ele>313.0</ele><time>2026-05-03T10:25:14.279Z</time></trkpt><trkpt lat="42.2161867" lon="13.8229017"><ele>313.0</ele><time>2026-05-03T10:25:15.279Z</time></trkpt><trkpt lat="42.21614" lon="13.8227983"><ele>313.0</ele><time>2026-05-03T10:25:16.278Z</time></trkpt><trkpt lat="42.2160967" lon="13.8227"><ele>313.0</ele><time>2026-05-03T10:25:17.278Z</time></trkpt><trkpt lat="42.216055" lon="13.8226"><ele>313.0</ele><time>2026-05-03T10:25:18.278Z</time></trkpt><trkpt lat="42.2160083" lon="13.8225017"><ele>313.0</ele><time>2026-05-03T10:25:19.278Z</time></trkpt><trkpt lat="42.21595" lon="13.8224033"><ele>313.4</ele><time>2026-05-03T10:25:20.278Z</time></trkpt><trkpt lat="42.2158767" lon="13.8223217"><ele>313.8</ele><time>2026-05-03T10:25:21.278Z</time></trkpt><trkpt lat="42.2157917" lon="13.8222617"><ele>314.2</ele><time>2026-05-03T10:25:22.278Z</time></trkpt><trkpt lat="42.2156917" lon="13.8222383"><ele>314.6</ele><time>2026-05-03T10:25:23.279Z</time></trkpt><trkpt lat="42.215585" lon="13.8222433"><ele>315.0</ele><time>2026-05-03T10:25:24.278Z</time></trkpt><trkpt lat="42.215475" lon="13.8222667"><ele>315.5</ele><time>2026-05-03T10:25:25.278Z</time></trkpt><trkpt lat="42.2153667" lon="13.8223183"><ele>316.0</ele><time>2026-05-03T10:25:26.278Z</time></trkpt><trkpt lat="42.2152517" lon="13.8223933"><ele>316.5</ele><time>2026-05-03T10:25:27.278Z</time></trkpt><trkpt lat="42.2151417" lon="13.82246"><ele>317.0</ele><time>2026-05-03T10:25:28.278Z</time></trkpt><trkpt lat="42.2150317" lon="13.8225267"><ele>317.0</ele><time>2026-05-03T10:25:29.278Z</time></trkpt><trkpt lat="42.214935" lon="13.82259"><ele>317.0</ele><time>2026-05-03T10:25:30.278Z</time></trkpt><trkpt lat="42.214845" lon="13.8226383"><ele>317.0</ele><time>2026-05-03T10:25:31.278Z</time></trkpt><trkpt lat="42.2147517" lon="13.8226833"><ele>317.0</ele><time>2026-05-03T10:25:32.278Z</time></trkpt><trkpt lat="42.2146583" lon="13.82273"><ele>317.0</ele><time>2026-05-03T10:25:33.278Z</time></trkpt><trkpt lat="42.2145683" lon="13.82276"><ele>317.0</ele><time>2026-05-03T10:25:34.279Z</time></trkpt><trkpt lat="42.2144783" lon="13.8227533"><ele>317.0</ele><time>2026-05-03T10:25:35.278Z</time></trkpt><trkpt lat="42.214405" lon="13.8227217"><ele>317.0</ele><time>2026-05-03T10:25:36.278Z</time></trkpt><trkpt lat="42.2143383" lon="13.8226767"><ele>317.0</ele><time>2026-05-03T10:25:37.278Z</time></trkpt><trkpt lat="42.2142717" lon="13.8226133"><ele>317.0</ele><time>2026-05-03T10:25:38.278Z</time></trkpt><trkpt lat="42.2142167" lon="13.8225533"><ele>317.0</ele><time>2026-05-03T10:25:39.278Z</time></trkpt><trkpt lat="42.2141467" lon="13.8224417"><ele>317.0</ele><time>2026-05-03T10:25:41.278Z</time></trkpt><trkpt lat="42.2140983" lon="13.8223583"><ele>317.0</ele><time>2026-05-03T10:25:43.278Z</time></trkpt><trkpt lat="42.2140583" lon="13.82225"><ele>317.0</ele><time>2026-05-03T10:25:45.278Z</time></trkpt><trkpt lat="42.2140167" lon="13.8221483"><ele>317.0</ele><time>2026-05-03T10:25:47.278Z</time></trkpt><trkpt lat="42.213975" lon="13.8220767"><ele>317.0</ele><time>2026-05-03T10:25:50.279Z</time></trkpt><trkpt lat="42.2138833" lon="13.82204"><ele>317.0</ele><time>2026-05-03T10:25:52.278Z</time></trkpt><trkpt lat="42.21377" lon="13.822055"><ele>317.0</ele><time>2026-05-03T10:25:54.278Z</time></trkpt><trkpt lat="42.2136583" lon="13.8220917"><ele>317.0</ele><time>2026-05-03T10:25:56.279Z</time></trkpt><trkpt lat="42.2135983" lon="13.8221217"><ele>317.0</ele><time>2026-05-03T10:25:57.278Z</time></trkpt><trkpt lat="42.213515" lon="13.8221533"><ele>317.0</ele><time>2026-05-03T10:25:58.278Z</time></trkpt><trkpt lat="42.2134283" lon="13.822175"><ele>317.0</ele><time>2026-05-03T10:25:59.278Z</time></trkpt><trkpt lat="42.21334" lon="13.8222033"><ele>317.0</ele><time>2026-05-03T10:26:00.278Z</time></trkpt><trkpt lat="42.2132733" lon="13.8222183"><ele>316.6</ele><time>2026-05-03T10:26:01.278Z</time></trkpt><trkpt lat="42.213155" lon="13.8221917"><ele>316.2</ele><time>2026-05-03T10:26:03.278Z</time></trkpt><trkpt lat="42.2131017" lon="13.8220533"><ele>315.8</ele><time>2026-05-03T10:26:05.278Z</time></trkpt><trkpt lat="42.213095" lon="13.821945"><ele>315.4</ele><time>2026-05-03T10:26:06.278Z</time></trkpt><trkpt lat="42.2131067" lon="13.82182"><ele>315.0</ele><time>2026-05-03T10:26:07.278Z</time></trkpt><trkpt lat="42.2131217" lon="13.821685"><ele>315.0</ele><time>2026-05-03T10:26:08.278Z</time></trkpt><trkpt lat="42.213135" lon="13.8215467"><ele>315.0</ele><time>2026-05-03T10:26:09.278Z</time></trkpt><trkpt lat="42.2131567" lon="13.821415"><ele>315.0</ele><time>2026-05-03T10:26:10.278Z</time></trkpt><trkpt lat="42.2131783" lon="13.8212767"><ele>315.0</ele><time>2026-05-03T10:26:11.278Z</time></trkpt><trkpt lat="42.2131933" lon="13.8211467"><ele>315.0</ele><time>2026-05-03T10:26:12.278Z</time></trkpt><trkpt lat="42.213205" lon="13.821005"><ele>315.0</ele><time>2026-05-03T10:26:13.278Z</time></trkpt><trkpt lat="42.2132083" lon="13.8208717"><ele>315.0</ele><time>2026-05-03T10:26:14.278Z</time></trkpt><trkpt lat="42.213205" lon="13.820735"><ele>315.0</ele><time>2026-05-03T10:26:15.279Z</time></trkpt><trkpt lat="42.2131933" lon="13.8205983"><ele>315.0</ele><time>2026-05-03T10:26:16.279Z</time></trkpt><trkpt lat="42.2131817" lon="13.8204783"><ele>315.0</ele><time>2026-05-03T10:26:17.278Z</time></trkpt><trkpt lat="42.2131567" lon="13.8203483"><ele>315.0</ele><time>2026-05-03T10:26:18.278Z</time></trkpt><trkpt lat="42.2131517" lon="13.8202183"><ele>315.0</ele><time>2026-05-03T10:26:19.278Z</time></trkpt><trkpt lat="42.2131767" lon="13.8201033"><ele>315.0</ele><time>2026-05-03T10:26:20.278Z</time></trkpt><trkpt lat="42.2132417" lon="13.8200183"><ele>315.0</ele><time>2026-05-03T10:26:21.278Z</time></trkpt><trkpt lat="42.2133267" lon="13.819965"><ele>315.0</ele><time>2026-05-03T10:26:22.278Z</time></trkpt><trkpt lat="42.2134233" lon="13.8199617"><ele>315.0</ele><time>2026-05-03T10:26:23.278Z</time></trkpt><trkpt lat="42.2135067" lon="13.8200183"><ele>315.0</ele><time>2026-05-03T10:26:24.279Z</time></trkpt><trkpt lat="42.2135683" lon="13.8201117"><ele>315.0</ele><time>2026-05-03T10:26:25.278Z</time></trkpt><trkpt lat="42.2135967" lon="13.8202183"><ele>315.0</ele><time>2026-05-03T10:26:26.278Z</time></trkpt><trkpt lat="42.2135917" lon="13.8203167"><ele>315.0</ele><time>2026-05-03T10:26:27.278Z</time></trkpt><trkpt lat="42.2135617" lon="13.82041"><ele>315.0</ele><time>2026-05-03T10:26:28.278Z</time></trkpt><trkpt lat="42.2135017" lon="13.8204833"><ele>315.0</ele><time>2026-05-03T10:26:29.278Z</time></trkpt><trkpt lat="42.2134183" lon="13.8205483"><ele>315.0</ele><time>2026-05-03T10:26:30.279Z</time></trkpt><trkpt lat="42.2133" lon="13.8206167"><ele>315.0</ele><time>2026-05-03T10:26:31.278Z</time></trkpt><trkpt lat="42.2131683" lon="13.8206983"><ele>315.0</ele><time>2026-05-03T10:26:32.279Z</time></trkpt><trkpt lat="42.21304" lon="13.8207783"><ele>315.0</ele><time>2026-05-03T10:26:33.278Z</time></trkpt><trkpt lat="42.2129117" lon="13.8208633"><ele>315.0</ele><time>2026-05-03T10:26:34.278Z</time></trkpt><trkpt lat="42.2128" lon="13.82094"><ele>315.0</ele><time>2026-05-03T10:26:35.278Z</time></trkpt><trkpt lat="42.2126883" lon="13.8210117"><ele>315.0</ele><time>2026-05-03T10:26:36.278Z</time></trkpt><trkpt lat="42.2125767" lon="13.821085"><ele>315.0</ele><time>2026-05-03T10:26:37.278Z</time></trkpt><trkpt lat="42.2124633" lon="13.8211533"><ele>315.0</ele><time>2026-05-03T10:26:38.278Z</time></trkpt><trkpt lat="42.2123467" lon="13.8212333"><ele>315.0</ele><time>2026-05-03T10:26:39.278Z</time></trkpt><trkpt lat="42.2122267" lon="13.8213083"><ele>315.0</ele><time>2026-05-03T10:26:40.278Z</time></trkpt><trkpt lat="42.212105" lon="13.82139"><ele>315.25</ele><time>2026-05-03T10:26:41.278Z</time></trkpt><trkpt lat="42.2119867" lon="13.821475"><ele>315.5</ele><time>2026-05-03T10:26:42.278Z</time></trkpt><trkpt lat="42.2118617" lon="13.8215583"><ele>315.75</ele><time>2026-05-03T10:26:43.278Z</time></trkpt><trkpt lat="42.211745" lon="13.8216317"><ele>316.0</ele><time>2026-05-03T10:26:44.278Z</time></trkpt><trkpt lat="42.2116283" lon="13.8217067"><ele>316.0</ele><time>2026-05-03T10:26:45.278Z</time></trkpt><trkpt lat="42.2115117" lon="13.821785"><ele>316.0</ele><time>2026-05-03T10:26:46.278Z</time></trkpt><trkpt lat="42.2113917" lon="13.8218567"><ele>316.0</ele><time>2026-05-03T10:26:47.278Z</time></trkpt><trkpt lat="42.21127" lon="13.8219367"><ele>316.0</ele><time>2026-05-03T10:26:48.278Z</time></trkpt><trkpt lat="42.2111533" lon="13.822015"><ele>315.0</ele><time>2026-05-03T10:26:49.278Z</time></trkpt><trkpt lat="42.211045" lon="13.8220867"><ele>314.0</ele><time>2026-05-03T10:26:50.278Z</time></trkpt><trkpt lat="42.2109367" lon="13.8221583"><ele>313.0</ele><time>2026-05-03T10:26:51.279Z</time></trkpt><trkpt lat="42.2108267" lon="13.8222333"><ele>312.0</ele><time>2026-05-03T10:26:52.278Z</time></trkpt><trkpt lat="42.21071" lon="13.8223083"><ele>311.75</ele><time>2026-05-03T10:26:53.278Z</time></trkpt><trkpt lat="42.2105933" lon="13.8223817"><ele>311.5</ele><time>2026-05-03T10:26:54.279Z</time></trkpt><trkpt lat="42.2104783" lon="13.8224567"><ele>311.25</ele><time>2026-05-03T10:26:55.278Z</time></trkpt><trkpt lat="42.2103733" lon="13.8225283"><ele>311.0</ele><time>2026-05-03T10:26:56.278Z</time></trkpt><trkpt lat="42.2102617" lon="13.8226"><ele>311.0</ele><time>2026-05-03T10:26:57.278Z</time></trkpt><trkpt lat="42.2101467" lon="13.8226717"><ele>311.0</ele><time>2026-05-03T10:26:58.278Z</time></trkpt><trkpt lat="42.2100333" lon="13.82274"><ele>311.0</ele><time>2026-05-03T10:26:59.278Z</time></trkpt><trkpt lat="42.2099133" lon="13.822815"><ele>311.0</ele><time>2026-05-03T10:27:00.278Z</time></trkpt><trkpt lat="42.209795" lon="13.8228883"><ele>312.5</ele><time>2026-05-03T10:27:01.278Z</time></trkpt><trkpt lat="42.2096717" lon="13.82297"><ele>314.0</ele><time>2026-05-03T10:27:02.278Z</time></trkpt><trkpt lat="42.20955" lon="13.823045"><ele>315.5</ele><time>2026-05-03T10:27:03.278Z</time></trkpt><trkpt lat="42.2094333" lon="13.8231183"><ele>317.0</ele><time>2026-05-03T10:27:04.278Z</time></trkpt><trkpt lat="42.2093217" lon="13.823195"><ele>317.0</ele><time>2026-05-03T10:27:05.279Z</time></trkpt><trkpt lat="42.20921" lon="13.8232783"><ele>317.0</ele><time>2026-05-03T10:27:06.278Z</time></trkpt><trkpt lat="42.2091033" lon="13.8233567"><ele>317.0</ele><time>2026-05-03T10:27:07.279Z</time></trkpt><trkpt lat="42.2089967" lon="13.8234417"><ele>317.0</ele><time>2026-05-03T10:27:08.278Z</time></trkpt><trkpt lat="42.2088833" lon="13.8235283"><ele>317.5</ele><time>2026-05-03T10:27:09.278Z</time></trkpt><trkpt lat="42.2087667" lon="13.8236283"><ele>318.0</ele><time>2026-05-03T10:27:10.278Z</time></trkpt><trkpt lat="42.20865" lon="13.8237317"><ele>318.5</ele><time>2026-05-03T10:27:11.278Z</time></trkpt><trkpt lat="42.2085283" lon="13.8238483"><ele>319.0</ele><time>2026-05-03T10:27:12.278Z</time></trkpt><trkpt lat="42.2084067" lon="13.8239733"><ele>319.0</ele><time>2026-05-03T10:27:13.278Z</time></trkpt><trkpt lat="42.2082783" lon="13.8241067"><ele>319.0</ele><time>2026-05-03T10:27:14.278Z</time></trkpt><trkpt lat="42.2081567" lon="13.824255"><ele>319.0</ele><time>2026-05-03T10:27:15.278Z</time></trkpt><trkpt lat="42.2080333" lon="13.8244233"><ele>322.3333333333333</ele><time>2026-05-03T10:27:16.278Z</time></trkpt><trkpt lat="42.2079117" lon="13.8246017"><ele>325.6666666666667</ele><time>2026-05-03T10:27:17.279Z</time></trkpt><trkpt lat="42.2077917" lon="13.8247967"><ele>329.0</ele><time>2026-05-03T10:27:18.278Z</time></trkpt><trkpt lat="42.2076767" lon="13.8249917"><ele>323.6666666666667</ele><time>2026-05-03T10:27:19.278Z</time></trkpt><trkpt lat="42.2075733" lon="13.8251933"><ele>318.3333333333333</ele><time>2026-05-03T10:27:20.278Z</time></trkpt><trkpt lat="42.2074667" lon="13.8253917"><ele>313.0</ele><time>2026-05-03T10:27:21.278Z</time></trkpt><trkpt lat="42.2073633" lon="13.8255967"><ele>313.0</ele><time>2026-05-03T10:27:22.278Z</time></trkpt><trkpt lat="42.2072483" lon="13.8258017"><ele>313.0</ele><time>2026-05-03T10:27:23.278Z</time></trkpt><trkpt lat="42.2071367" lon="13.8260017"><ele>313.0</ele><time>2026-05-03T10:27:24.278Z</time></trkpt><trkpt lat="42.20701" lon="13.8261867"><ele>313.0</ele><time>2026-05-03T10:27:25.278Z</time></trkpt><trkpt lat="42.20688" lon="13.8263783"><ele>313.0</ele><time>2026-05-03T10:27:26.279Z</time></trkpt><trkpt lat="42.2067483" lon="13.82656"><ele>313.0</ele><time>2026-05-03T10:27:27.279Z</time></trkpt><trkpt lat="42.2066067" lon="13.8267317"><ele>316.66666666666663</ele><time>2026-05-03T10:27:28.278Z</time></trkpt><trkpt lat="42.2064583" lon="13.82692"><ele>320.3333333333333</ele><time>2026-05-03T10:27:29.278Z</time></trkpt><trkpt lat="42.20632" lon="13.8271083"><ele>324.0</ele><time>2026-05-03T10:27:30.278Z</time></trkpt><trkpt lat="42.2061967" lon="13.82733"><ele>324.0</ele><time>2026-05-03T10:27:31.278Z</time></trkpt><trkpt lat="42.2060683" lon="13.8275667"><ele>324.0</ele><time>2026-05-03T10:27:32.278Z</time></trkpt><trkpt lat="42.2059617" lon="13.8278217"><ele>324.0</ele><time>2026-05-03T10:27:33.278Z</time></trkpt><trkpt lat="42.2058783" lon="13.8280917"><ele>317.6666666666667</ele><time>2026-05-03T10:27:34.278Z</time></trkpt><trkpt lat="42.2058167" lon="13.828375"><ele>311.33333333333337</ele><time>2026-05-03T10:27:35.278Z</time></trkpt><trkpt lat="42.205775" lon="13.828675"><ele>305.0</ele><time>2026-05-03T10:27:36.278Z</time></trkpt><trkpt lat="42.2057267" lon="13.8289617"><ele>308.0</ele><time>2026-05-03T10:27:37.279Z</time></trkpt><trkpt lat="42.2056867" lon="13.8292367"><ele>311.0</ele><time>2026-05-03T10:27:38.278Z</time></trkpt><trkpt lat="42.205655" lon="13.8295083"><ele>314.0</ele><time>2026-05-03T10:27:39.278Z</time></trkpt><trkpt lat="42.20562" lon="13.8297717"><ele>314.0</ele><time>2026-05-03T10:27:40.278Z</time></trkpt><trkpt lat="42.2055883" lon="13.8300333"><ele>314.0</ele><time>2026-05-03T10:27:41.278Z</time></trkpt><trkpt lat="42.2055467" lon="13.8302833"><ele>314.0</ele><time>2026-05-03T10:27:42.278Z</time></trkpt><trkpt lat="42.2054967" lon="13.8305317"><ele>310.6666666666667</ele><time>2026-05-03T10:27:43.278Z</time></trkpt><trkpt lat="42.2054367" lon="13.8307833"><ele>307.3333333333333</ele><time>2026-05-03T10:27:44.278Z</time></trkpt><trkpt lat="42.2053883" lon="13.8310367"><ele>304.0</ele><time>2026-05-03T10:27:45.278Z</time></trkpt><trkpt lat="42.2053417" lon="13.831285"><ele>301.3333333333333</ele><time>2026-05-03T10:27:46.279Z</time></trkpt><trkpt lat="42.205285" lon="13.831525"><ele>298.6666666666667</ele><time>2026-05-03T10:27:47.278Z</time></trkpt><trkpt lat="42.2052233" lon="13.8317517"><ele>296.0</ele><time>2026-05-03T10:27:48.278Z</time></trkpt><trkpt lat="42.2051617" lon="13.83197"><ele>291.33333333333337</ele><time>2026-05-03T10:27:49.278Z</time></trkpt><trkpt lat="42.205085" lon="13.8321917"><ele>286.6666666666667</ele><time>2026-05-03T10:27:50.278Z</time></trkpt><trkpt lat="42.205005" lon="13.8324183"><ele>282.0</ele><time>2026-05-03T10:27:51.278Z</time></trkpt><trkpt lat="42.20493" lon="13.83265"><ele>277.3333333333333</ele><time>2026-05-03T10:27:52.278Z</time></trkpt><trkpt lat="42.2048317" lon="13.83289"><ele>272.66666666666663</ele><time>2026-05-03T10:27:53.279Z</time></trkpt><trkpt lat="42.20474" lon="13.8331317"><ele>268.0</ele><time>2026-05-03T10:27:54.278Z</time></trkpt><trkpt lat="42.2046417" lon="13.8333767"><ele>272.66666666666663</ele><time>2026-05-03T10:27:55.278Z</time></trkpt><trkpt lat="42.20455" lon="13.8336167"><ele>277.3333333333333</ele><time>2026-05-03T10:27:56.278Z</time></trkpt><trkpt lat="42.2044533" lon="13.8338633"><ele>282.0</ele><time>2026-05-03T10:27:57.278Z</time></trkpt><trkpt lat="42.2043583" lon="13.83411"><ele>277.0</ele><time>2026-05-03T10:27:58.278Z</time></trkpt><trkpt lat="42.2042533" lon="13.8343617"><ele>272.0</ele><time>2026-05-03T10:27:59.278Z</time></trkpt><trkpt lat="42.2041467" lon="13.8346067"><ele>267.0</ele><time>2026-05-03T10:28:00.278Z</time></trkpt><trkpt lat="42.204045" lon="13.8348633"><ele>269.6666666666667</ele><time>2026-05-03T10:28:01.278Z</time></trkpt><trkpt lat="42.20394" lon="13.8351133"><ele>272.33333333333337</ele><time>2026-05-03T10:28:02.278Z</time></trkpt><trkpt lat="42.2038517" lon="13.8353533"><ele>275.0</ele><time>2026-05-03T10:28:03.278Z</time></trkpt><trkpt lat="42.20375" lon="13.8355817"><ele>275.0</ele><time>2026-05-03T10:28:04.278Z</time></trkpt><trkpt lat="42.2036433" lon="13.8357933"><ele>275.0</ele><time>2026-05-03T10:28:05.278Z</time></trkpt><trkpt lat="42.2035283" lon="13.83599"><ele>275.0</ele><time>2026-05-03T10:28:06.278Z</time></trkpt><trkpt lat="42.2033883" lon="13.83618"><ele>271.33333333333337</ele><time>2026-05-03T10:28:07.279Z</time></trkpt><trkpt lat="42.2032383" lon="13.8363517"><ele>267.6666666666667</ele><time>2026-05-03T10:28:08.279Z</time></trkpt><trkpt lat="42.203085" lon="13.836505"><ele>264.0</ele><time>2026-05-03T10:28:09.278Z</time></trkpt><trkpt lat="42.202925" lon="13.83665"><ele>264.0</ele><time>2026-05-03T10:28:10.278Z</time></trkpt><trkpt lat="42.202775" lon="13.836775"><ele>264.0</ele><time>2026-05-03T10:28:11.278Z</time></trkpt><trkpt lat="42.2026117" lon="13.836895"><ele>264.0</ele><time>2026-05-03T10:28:12.278Z</time></trkpt><trkpt lat="42.2024383" lon="13.8369983"><ele>260.6666666666667</ele><time>2026-05-03T10:28:13.278Z</time></trkpt><trkpt lat="42.202265" lon="13.8370767"><ele>257.33333333333337</ele><time>2026-05-03T10:28:14.278Z</time></trkpt><trkpt lat="42.2020833" lon="13.83715"><ele>254.0</ele><time>2026-05-03T10:28:15.278Z</time></trkpt><trkpt lat="42.2018917" lon="13.8372"><ele>254.0</ele><time>2026-05-03T10:28:16.278Z</time></trkpt><trkpt lat="42.2016917" lon="13.837245"><ele>254.0</ele><time>2026-05-03T10:28:17.278Z</time></trkpt><trkpt lat="42.2014967" lon="13.83727"><ele>254.0</ele><time>2026-05-03T10:28:18.278Z</time></trkpt><trkpt lat="42.2012967" lon="13.8372933"><ele>255.0</ele><time>2026-05-03T10:28:19.278Z</time></trkpt><trkpt lat="42.201095" lon="13.8373167"><ele>256.0</ele><time>2026-05-03T10:28:20.278Z</time></trkpt><trkpt lat="42.2008917" lon="13.837355"><ele>257.0</ele><time>2026-05-03T10:28:21.278Z</time></trkpt><trkpt lat="42.2006917" lon="13.8373867"><ele>259.0</ele><time>2026-05-03T10:28:22.278Z</time></trkpt><trkpt lat="42.2004983" lon="13.8374183"><ele>261.0</ele><time>2026-05-03T10:28:23.278Z</time></trkpt><trkpt lat="42.2003033" lon="13.83745"><ele>263.0</ele><time>2026-05-03T10:28:24.278Z</time></trkpt><trkpt lat="42.2001083" lon="13.8374767"><ele>263.0</ele><time>2026-05-03T10:28:25.279Z</time></trkpt><trkpt lat="42.1999133" lon="13.8375067"><ele>263.0</ele><time>2026-05-03T10:28:26.278Z</time></trkpt><trkpt lat="42.19972" lon="13.8375383"><ele>263.0</ele><time>2026-05-03T10:28:27.278Z</time></trkpt><trkpt lat="42.1995233" lon="13.83756"><ele>264.0</ele><time>2026-05-03T10:28:28.279Z</time></trkpt><trkpt lat="42.1993417" lon="13.837585"><ele>265.0</ele><time>2026-05-03T10:28:29.278Z</time></trkpt><trkpt lat="42.1991667" lon="13.8375933"><ele>266.0</ele><time>2026-05-03T10:28:30.279Z</time></trkpt><trkpt lat="42.19899" lon="13.8375767"><ele>266.0</ele><time>2026-05-03T10:28:31.278Z</time></trkpt><trkpt lat="42.1988133" lon="13.8375467"><ele>266.0</ele><time>2026-05-03T10:28:32.278Z</time></trkpt><trkpt lat="42.19864" lon="13.8374933"><ele>266.0</ele><time>2026-05-03T10:28:33.278Z</time></trkpt><trkpt lat="42.1984633" lon="13.837435"><ele>266.0</ele><time>2026-05-03T10:28:34.278Z</time></trkpt><trkpt lat="42.1982833" lon="13.837395"><ele>266.0</ele><time>2026-05-03T10:28:35.278Z</time></trkpt><trkpt lat="42.1980983" lon="13.83738"><ele>266.0</ele><time>2026-05-03T10:28:36.278Z</time></trkpt><trkpt lat="42.1979083" lon="13.8373967"><ele>265.33333333333337</ele><time>2026-05-03T10:28:37.278Z</time></trkpt><trkpt lat="42.1977217" lon="13.83744"><ele>264.6666666666667</ele><time>2026-05-03T10:28:38.279Z</time></trkpt><trkpt lat="42.1975333" lon="13.8375083"><ele>264.0</ele><time>2026-05-03T10:28:39.278Z</time></trkpt><trkpt lat="42.1973483" lon="13.8376133"><ele>265.6666666666667</ele><time>2026-05-03T10:28:40.278Z</time></trkpt><trkpt lat="42.1971683" lon="13.8377333"><ele>267.33333333333337</ele><time>2026-05-03T10:28:41.278Z</time></trkpt><trkpt lat="42.1969933" lon="13.83787"><ele>269.0</ele><time>2026-05-03T10:28:42.278Z</time></trkpt><trkpt lat="42.1968267" lon="13.838015"><ele>269.0</ele><time>2026-05-03T10:28:43.278Z</time></trkpt><trkpt lat="42.1966733" lon="13.83818"><ele>269.0</ele><time>2026-05-03T10:28:44.278Z</time></trkpt><trkpt lat="42.196525" lon="13.838375"><ele>269.0</ele><time>2026-05-03T10:28:45.278Z</time></trkpt><trkpt lat="42.1964017" lon="13.8385883"><ele>278.33333333333337</ele><time>2026-05-03T10:28:46.278Z</time></trkpt><trkpt lat="42.1962933" lon="13.8388083"><ele>287.6666666666667</ele><time>2026-05-03T10:28:47.278Z</time></trkpt><trkpt lat="42.1962" lon="13.8390483"><ele>297.0</ele><time>2026-05-03T10:28:48.278Z</time></trkpt><trkpt lat="42.19612" lon="13.8393"><ele>291.6666666666667</ele><time>2026-05-03T10:28:49.278Z</time></trkpt><trkpt lat="42.1960633" lon="13.83956"><ele>286.33333333333337</ele><time>2026-05-03T10:28:50.278Z</time></trkpt><trkpt lat="42.196025" lon="13.83983"><ele>281.0</ele><time>2026-05-03T10:28:51.278Z</time></trkpt><trkpt lat="42.1960117" lon="13.8401067"><ele>279.0</ele><time>2026-05-03T10:28:52.278Z</time></trkpt><trkpt lat="42.1960083" lon="13.84039"><ele>277.0</ele><time>2026-05-03T10:28:53.279Z</time></trkpt><trkpt lat="42.1960017" lon="13.8406683"><ele>275.0</ele><time>2026-05-03T10:28:54.278Z</time></trkpt><trkpt lat="42.19599" lon="13.8409333"><ele>272.33333333333337</ele><time>2026-05-03T10:28:55.278Z</time></trkpt><trkpt lat="42.1959633" lon="13.8411867"><ele>269.6666666666667</ele><time>2026-05-03T10:28:56.278Z</time></trkpt><trkpt lat="42.1959233" lon="13.84143"><ele>267.0</ele><time>2026-05-03T10:28:57.278Z</time></trkpt><trkpt lat="42.19587" lon="13.8416683"><ele>263.3333333333333</ele><time>2026-05-03T10:28:58.279Z</time></trkpt><trkpt lat="42.195805" lon="13.8419"><ele>259.66666666666663</ele><time>2026-05-03T10:28:59.278Z</time></trkpt><trkpt lat="42.1957333" lon="13.8421133"><ele>256.0</ele><time>2026-05-03T10:29:00.279Z</time></trkpt><trkpt lat="42.1956467" lon="13.8423117"><ele>276.3333333333333</ele><time>2026-05-03T10:29:01.279Z</time></trkpt><trkpt lat="42.195535" lon="13.8425033"><ele>296.6666666666667</ele><time>2026-05-03T10:29:02.278Z</time></trkpt><trkpt lat="42.195425" lon="13.8426933"><ele>317.0</ele><time>2026-05-03T10:29:03.278Z</time></trkpt><trkpt lat="42.1952917" lon="13.8428867"><ele>321.33333333333337</ele><time>2026-05-03T10:29:04.278Z</time></trkpt><trkpt lat="42.1951467" lon="13.8430883"><ele>325.6666666666667</ele><time>2026-05-03T10:29:05.278Z</time></trkpt><trkpt lat="42.19501" lon="13.8432817"><ele>330.0</ele><time>2026-05-03T10:29:06.279Z</time></trkpt><trkpt lat="42.1948667" lon="13.843475"><ele>340.0</ele><time>2026-05-03T10:29:07.278Z</time></trkpt><trkpt lat="42.1947217" lon="13.8436767"><ele>350.0</ele><time>2026-05-03T10:29:08.278Z</time></trkpt><trkpt lat="42.1945767" lon="13.8438783"><ele>360.0</ele><time>2026-05-03T10:29:09.278Z</time></trkpt><trkpt lat="42.19176" lon="13.8463183"><ele>322.6666666666667</ele><time>2026-05-03T10:29:26.287Z</time></trkpt><trkpt lat="42.1916183" lon="13.8464883"><ele>285.33333333333337</ele><time>2026-05-03T10:29:27.287Z</time></trkpt><trkpt lat="42.1914767" lon="13.8466483"><ele>248.0</ele><time>2026-05-03T10:29:28.287Z</time></trkpt><trkpt lat="42.1913517" lon="13.8467917"><ele>246.66666666666669</ele><time>2026-05-03T10:29:29.288Z</time></trkpt><trkpt lat="42.19123" lon="13.8469267"><ele>245.33333333333331</ele><time>2026-05-03T10:29:30.287Z</time></trkpt><trkpt lat="42.1911083" lon="13.847065"><ele>244.0</ele><time>2026-05-03T10:29:31.287Z</time></trkpt><trkpt lat="42.1909867" lon="13.847185"><ele>244.0</ele><time>2026-05-03T10:29:32.287Z</time></trkpt><trkpt lat="42.19087" lon="13.8473083"><ele>244.0</ele><time>2026-05-03T10:29:33.287Z</time></trkpt><trkpt lat="42.1907667" lon="13.8474133"><ele>244.0</ele><time>2026-05-03T10:29:34.287Z</time></trkpt><trkpt lat="42.1906633" lon="13.847495"><ele>244.0</ele><time>2026-05-03T10:29:35.287Z</time></trkpt><trkpt lat="42.1905483" lon="13.8475483"><ele>244.2</ele><time>2026-05-03T10:29:36.287Z</time></trkpt><trkpt lat="42.1904367" lon="13.8475733"><ele>244.39999999999998</ele><time>2026-05-03T10:29:37.287Z</time></trkpt><trkpt lat="42.1903367" lon="13.8475967"><ele>244.6</ele><time>2026-05-03T10:29:38.287Z</time></trkpt><trkpt lat="42.19025" lon="13.847645"><ele>244.8</ele><time>2026-05-03T10:29:39.288Z</time></trkpt><trkpt lat="42.1901883" lon="13.84773"><ele>245.0</ele><time>2026-05-03T10:29:40.287Z</time></trkpt><trkpt lat="42.1901617" lon="13.8478367"><ele>246.6</ele><time>2026-05-03T10:29:41.287Z</time></trkpt><trkpt lat="42.19016" lon="13.8479467"><ele>248.2</ele><time>2026-05-03T10:29:42.287Z</time></trkpt><trkpt lat="42.190215" lon="13.8480567"><ele>249.8</ele><time>2026-05-03T10:29:43.287Z</time></trkpt><trkpt lat="42.1903167" lon="13.8481583"><ele>251.4</ele><time>2026-05-03T10:29:44.288Z</time></trkpt><trkpt lat="42.1904367" lon="13.8482583"><ele>253.0</ele><time>2026-05-03T10:29:45.287Z</time></trkpt><trkpt lat="42.1905583" lon="13.8483817"><ele>251.0</ele><time>2026-05-03T10:29:46.288Z</time></trkpt><trkpt lat="42.19067" lon="13.84856"><ele>249.0</ele><time>2026-05-03T10:29:47.287Z</time></trkpt><trkpt lat="42.1907767" lon="13.8487667"><ele>247.0</ele><time>2026-05-03T10:29:48.287Z</time></trkpt><trkpt lat="42.190895" lon="13.8489867"><ele>247.0</ele><time>2026-05-03T10:29:49.287Z</time></trkpt><trkpt lat="42.1910117" lon="13.8492167"><ele>247.0</ele><time>2026-05-03T10:29:50.287Z</time></trkpt><trkpt lat="42.191125" lon="13.8494417"><ele>247.0</ele><time>2026-05-03T10:29:51.287Z</time></trkpt><trkpt lat="42.19125" lon="13.8496517"><ele>252.0</ele><time>2026-05-03T10:29:52.288Z</time></trkpt><trkpt lat="42.19137" lon="13.8498667"><ele>257.0</ele><time>2026-05-03T10:29:53.287Z</time></trkpt><trkpt lat="42.191495" lon="13.8500683"><ele>262.0</ele><time>2026-05-03T10:29:54.287Z</time></trkpt><trkpt lat="42.191625" lon="13.85025"><ele>262.0</ele><time>2026-05-03T10:29:55.287Z</time></trkpt><trkpt lat="42.1917667" lon="13.8504217"><ele>262.0</ele><time>2026-05-03T10:29:56.287Z</time></trkpt><trkpt lat="42.1919067" lon="13.8505817"><ele>262.0</ele><time>2026-05-03T10:29:57.288Z</time></trkpt><trkpt lat="42.1920467" lon="13.85074"><ele>262.0</ele><time>2026-05-03T10:29:58.287Z</time></trkpt><trkpt lat="42.1921983" lon="13.8508833"><ele>262.0</ele><time>2026-05-03T10:29:59.287Z</time></trkpt><trkpt lat="42.192335" lon="13.8510283"><ele>262.0</ele><time>2026-05-03T10:30:00.287Z</time></trkpt><trkpt lat="42.1924683" lon="13.8511633"><ele>262.3333333333333</ele><time>2026-05-03T10:30:01.287Z</time></trkpt><trkpt lat="42.192595" lon="13.8513"><ele>262.6666666666667</ele><time>2026-05-03T10:30:02.287Z</time></trkpt><trkpt lat="42.1927333" lon="13.8514367"><ele>263.0</ele><time>2026-05-03T10:30:03.287Z</time></trkpt><trkpt lat="42.19287" lon="13.8515783"><ele>263.0</ele><time>2026-05-03T10:30:04.287Z</time></trkpt><trkpt lat="42.193005" lon="13.8517067"><ele>263.0</ele><time>2026-05-03T10:30:05.287Z</time></trkpt><trkpt lat="42.193145" lon="13.851825"><ele>263.0</ele><time>2026-05-03T10:30:06.287Z</time></trkpt><trkpt lat="42.1932917" lon="13.8519017"><ele>268.33333333333337</ele><time>2026-05-03T10:30:07.287Z</time></trkpt><trkpt lat="42.1934567" lon="13.8519517"><ele>273.6666666666667</ele><time>2026-05-03T10:30:08.287Z</time></trkpt><trkpt lat="42.19363" lon="13.8519583"><ele>279.0</ele><time>2026-05-03T10:30:09.287Z</time></trkpt><trkpt lat="42.193805" lon="13.851955"><ele>279.0</ele><time>2026-05-03T10:30:10.287Z</time></trkpt><trkpt lat="42.1939967" lon="13.85197"><ele>279.0</ele><time>2026-05-03T10:30:11.287Z</time></trkpt><trkpt lat="42.194195" lon="13.852"><ele>279.0</ele><time>2026-05-03T10:30:12.287Z</time></trkpt><trkpt lat="42.1943717" lon="13.85206"><ele>272.3333333333333</ele><time>2026-05-03T10:30:13.287Z</time></trkpt><trkpt lat="42.194535" lon="13.8521217"><ele>265.66666666666663</ele><time>2026-05-03T10:30:14.287Z</time></trkpt><trkpt lat="42.1946967" lon="13.8521933"><ele>259.0</ele><time>2026-05-03T10:30:15.287Z</time></trkpt><trkpt lat="42.1948367" lon="13.8522817"><ele>261.0</ele><time>2026-05-03T10:30:16.287Z</time></trkpt><trkpt lat="42.1949617" lon="13.8524"><ele>263.0</ele><time>2026-05-03T10:30:17.287Z</time></trkpt><trkpt lat="42.1950667" lon="13.852535"><ele>265.0</ele><time>2026-05-03T10:30:18.287Z</time></trkpt><trkpt lat="42.1951667" lon="13.852695"><ele>265.0</ele><time>2026-05-03T10:30:19.287Z</time></trkpt><trkpt lat="42.19525" lon="13.8528717"><ele>265.0</ele><time>2026-05-03T10:30:20.287Z</time></trkpt><trkpt lat="42.1953333" lon="13.8530567"><ele>265.0</ele><time>2026-05-03T10:30:21.287Z</time></trkpt><trkpt lat="42.19541" lon="13.8532467"><ele>270.0</ele><time>2026-05-03T10:30:22.287Z</time></trkpt><trkpt lat="42.1954733" lon="13.8534567"><ele>275.0</ele><time>2026-05-03T10:30:23.287Z</time></trkpt><trkpt lat="42.1955333" lon="13.8536767"><ele>280.0</ele><time>2026-05-03T10:30:24.287Z</time></trkpt><trkpt lat="42.1956033" lon="13.8538983"><ele>280.0</ele><time>2026-05-03T10:30:25.287Z</time></trkpt><trkpt lat="42.1956683" lon="13.854115"><ele>280.0</ele><time>2026-05-03T10:30:26.287Z</time></trkpt><trkpt lat="42.1957283" lon="13.85432"><ele>280.0</ele><time>2026-05-03T10:30:27.287Z</time></trkpt><trkpt lat="42.19577" lon="13.8545283"><ele>272.25</ele><time>2026-05-03T10:30:28.287Z</time></trkpt><trkpt lat="42.1958183" lon="13.8547233"><ele>264.5</ele><time>2026-05-03T10:30:29.287Z</time></trkpt><trkpt lat="42.1958667" lon="13.8549133"><ele>256.75</ele><time>2026-05-03T10:30:30.287Z</time></trkpt><trkpt lat="42.1958867" lon="13.8551083"><ele>249.0</ele><time>2026-05-03T10:30:31.287Z</time></trkpt><trkpt lat="42.1958967" lon="13.85531"><ele>249.0</ele><time>2026-05-03T10:30:32.287Z</time></trkpt><trkpt lat="42.1959017" lon="13.8555267"><ele>249.0</ele><time>2026-05-03T10:30:33.287Z</time></trkpt><trkpt lat="42.195895" lon="13.85575"><ele>249.0</ele><time>2026-05-03T10:30:34.287Z</time></trkpt><trkpt lat="42.1958883" lon="13.8559867"><ele>248.33333333333331</ele><time>2026-05-03T10:30:35.287Z</time></trkpt><trkpt lat="42.1958633" lon="13.8562383"><ele>247.66666666666666</ele><time>2026-05-03T10:30:36.287Z</time></trkpt><trkpt lat="42.1958583" lon="13.85649"><ele>247.0</ele><time>2026-05-03T10:30:37.287Z</time></trkpt><trkpt lat="42.19584" lon="13.8567517"><ele>247.33333333333331</ele><time>2026-05-03T10:30:38.287Z</time></trkpt><trkpt lat="42.1958133" lon="13.857005"><ele>247.66666666666669</ele><time>2026-05-03T10:30:39.287Z</time></trkpt><trkpt lat="42.1958017" lon="13.8572617"><ele>248.0</ele><time>2026-05-03T10:30:40.287Z</time></trkpt><trkpt lat="42.1957917" lon="13.85752"><ele>247.0</ele><time>2026-05-03T10:30:41.287Z</time></trkpt><trkpt lat="42.1957667" lon="13.8577733"><ele>246.0</ele><time>2026-05-03T10:30:42.287Z</time></trkpt><trkpt lat="42.19574" lon="13.85803"><ele>245.0</ele><time>2026-05-03T10:30:43.287Z</time></trkpt><trkpt lat="42.195715" lon="13.8582867"><ele>243.66666666666669</ele><time>2026-05-03T10:30:44.287Z</time></trkpt><trkpt lat="42.1956883" lon="13.8585367"><ele>242.33333333333331</ele><time>2026-05-03T10:30:45.287Z</time></trkpt><trkpt lat="42.19566" lon="13.8587883"><ele>241.0</ele><time>2026-05-03T10:30:46.287Z</time></trkpt><trkpt lat="42.195625" lon="13.8590417"><ele>252.66666666666666</ele><time>2026-05-03T10:30:47.287Z</time></trkpt><trkpt lat="42.1955883" lon="13.8592883"><ele>264.3333333333333</ele><time>2026-05-03T10:30:48.287Z</time></trkpt><trkpt lat="42.1955567" lon="13.85952"><ele>276.0</ele><time>2026-05-03T10:30:49.287Z</time></trkpt><trkpt lat="42.1955567" lon="13.859755"><ele>276.0</ele><time>2026-05-03T10:30:50.287Z</time></trkpt><trkpt lat="42.1955483" lon="13.8599717"><ele>276.0</ele><time>2026-05-03T10:30:51.287Z</time></trkpt><trkpt lat="42.19554" lon="13.86019"><ele>276.0</ele><time>2026-05-03T10:30:52.287Z</time></trkpt><trkpt lat="42.1955217" lon="13.86041"><ele>275.3333333333333</ele><time>2026-05-03T10:30:53.287Z</time></trkpt><trkpt lat="42.19551" lon="13.86063"><ele>274.66666666666663</ele><time>2026-05-03T10:30:54.287Z</time></trkpt><trkpt lat="42.1955133" lon="13.860835"><ele>274.0</ele><time>2026-05-03T10:30:55.287Z</time></trkpt><trkpt lat="42.1955067" lon="13.861035"><ele>273.75</ele><time>2026-05-03T10:30:56.287Z</time></trkpt><trkpt lat="42.1955117" lon="13.86122"><ele>273.5</ele><time>2026-05-03T10:30:57.287Z</time></trkpt><trkpt lat="42.1955317" lon="13.8613933"><ele>273.25</ele><time>2026-05-03T10:30:58.287Z</time></trkpt><trkpt lat="42.1955433" lon="13.8615617"><ele>273.0</ele><time>2026-05-03T10:30:59.287Z</time></trkpt><trkpt lat="42.1955567" lon="13.86173"><ele>274.75</ele><time>2026-05-03T10:31:00.287Z</time></trkpt><trkpt lat="42.1955617" lon="13.8618967"><ele>276.5</ele><time>2026-05-03T10:31:01.287Z</time></trkpt><trkpt lat="42.19558" lon="13.8620783"><ele>278.25</ele><time>2026-05-03T10:31:02.287Z</time></trkpt><trkpt lat="42.19561" lon="13.86227"><ele>280.0</ele><time>2026-05-03T10:31:03.287Z</time></trkpt><trkpt lat="42.1956583" lon="13.8624767"><ele>268.66666666666663</ele><time>2026-05-03T10:31:04.287Z</time></trkpt><trkpt lat="42.1957117" lon="13.8626833"><ele>257.3333333333333</ele><time>2026-05-03T10:31:05.288Z</time></trkpt><trkpt lat="42.1957783" lon="13.8629"><ele>246.0</ele><time>2026-05-03T10:31:06.288Z</time></trkpt><trkpt lat="42.195845" lon="13.8631233"><ele>246.0</ele><time>2026-05-03T10:31:07.287Z</time></trkpt><trkpt lat="42.1959183" lon="13.8633567"><ele>246.0</ele><time>2026-05-03T10:31:08.287Z</time></trkpt><trkpt lat="42.1960017" lon="13.863585"><ele>246.0</ele><time>2026-05-03T10:31:09.287Z</time></trkpt><trkpt lat="42.1960817" lon="13.8638083"><ele>251.33333333333331</ele><time>2026-05-03T10:31:10.287Z</time></trkpt><trkpt lat="42.1961667" lon="13.8640383"><ele>256.66666666666663</ele><time>2026-05-03T10:31:11.287Z</time></trkpt><trkpt lat="42.1962583" lon="13.86426"><ele>262.0</ele><time>2026-05-03T10:31:12.287Z</time></trkpt><trkpt lat="42.1963467" lon="13.8644833"><ele>267.0</ele><time>2026-05-03T10:31:13.287Z</time></trkpt><trkpt lat="42.1964333" lon="13.8647133"><ele>272.0</ele><time>2026-05-03T10:31:14.287Z</time></trkpt><trkpt lat="42.1965183" lon="13.8649483"><ele>277.0</ele><time>2026-05-03T10:31:15.287Z</time></trkpt><trkpt lat="42.1965917" lon="13.86518"><ele>266.3333333333333</ele><time>2026-05-03T10:31:16.287Z</time></trkpt><trkpt lat="42.1966667" lon="13.865405"><ele>255.66666666666669</ele><time>2026-05-03T10:31:17.287Z</time></trkpt><trkpt lat="42.1967467" lon="13.865635"><ele>245.0</ele><time>2026-05-03T10:31:18.287Z</time></trkpt><trkpt lat="42.1968017" lon="13.8658733"><ele>248.33333333333334</ele><time>2026-05-03T10:31:19.287Z</time></trkpt><trkpt lat="42.19686" lon="13.866115"><ele>251.66666666666669</ele><time>2026-05-03T10:31:20.287Z</time></trkpt><trkpt lat="42.196905" lon="13.8663617"><ele>255.0</ele><time>2026-05-03T10:31:21.287Z</time></trkpt><trkpt lat="42.1969617" lon="13.8666"><ele>257.6666666666667</ele><time>2026-05-03T10:31:22.287Z</time></trkpt><trkpt lat="42.1970167" lon="13.8668467"><ele>260.33333333333337</ele><time>2026-05-03T10:31:23.287Z</time></trkpt><trkpt lat="42.1970867" lon="13.8670917"><ele>263.0</ele><time>2026-05-03T10:31:24.287Z</time></trkpt><trkpt lat="42.19714" lon="13.86734"><ele>263.0</ele><time>2026-05-03T10:31:25.287Z</time></trkpt><trkpt lat="42.1971967" lon="13.8675883"><ele>263.0</ele><time>2026-05-03T10:31:26.287Z</time></trkpt><trkpt lat="42.1972417" lon="13.86784"><ele>263.0</ele><time>2026-05-03T10:31:27.287Z</time></trkpt><trkpt lat="42.1972967" lon="13.8680917"><ele>255.0</ele><time>2026-05-03T10:31:28.287Z</time></trkpt><trkpt lat="42.1973417" lon="13.8683433"><ele>247.0</ele><time>2026-05-03T10:31:29.287Z</time></trkpt><trkpt lat="42.1973817" lon="13.8686033"><ele>239.0</ele><time>2026-05-03T10:31:30.287Z</time></trkpt><trkpt lat="42.19741" lon="13.8688633"><ele>239.0</ele><time>2026-05-03T10:31:31.287Z</time></trkpt><trkpt lat="42.1974383" lon="13.8691333"><ele>239.0</ele><time>2026-05-03T10:31:32.287Z</time></trkpt><trkpt lat="42.19746" lon="13.8693917"><ele>239.0</ele><time>2026-05-03T10:31:33.287Z</time></trkpt><trkpt lat="42.1974933" lon="13.86964"><ele>238.33333333333334</ele><time>2026-05-03T10:31:34.287Z</time></trkpt><trkpt lat="42.197535" lon="13.86988"><ele>237.66666666666669</ele><time>2026-05-03T10:31:35.287Z</time></trkpt><trkpt lat="42.19756" lon="13.8701133"><ele>237.0</ele><time>2026-05-03T10:31:36.287Z</time></trkpt><trkpt lat="42.1975717" lon="13.8703417"><ele>237.0</ele><time>2026-05-03T10:31:37.287Z</time></trkpt><trkpt lat="42.1976" lon="13.87057"><ele>237.0</ele><time>2026-05-03T10:31:38.287Z</time></trkpt><trkpt lat="42.1976217" lon="13.8707983"><ele>237.0</ele><time>2026-05-03T10:31:39.287Z</time></trkpt><trkpt lat="42.1976483" lon="13.8710333"><ele>238.0</ele><time>2026-05-03T10:31:40.287Z</time></trkpt><trkpt lat="42.1976867" lon="13.871265"><ele>239.0</ele><time>2026-05-03T10:31:41.287Z</time></trkpt><trkpt lat="42.1977167" lon="13.8715033"><ele>240.0</ele><time>2026-05-03T10:31:42.287Z</time></trkpt><trkpt lat="42.197745" lon="13.871745"><ele>243.33333333333331</ele><time>2026-05-03T10:31:43.287Z</time></trkpt><trkpt lat="42.197775" lon="13.8719967"><ele>246.66666666666666</ele><time>2026-05-03T10:31:44.287Z</time></trkpt><trkpt lat="42.19781" lon="13.87225"><ele>250.0</ele><time>2026-05-03T10:31:45.287Z</time></trkpt><trkpt lat="42.197855" lon="13.8725083"><ele>248.66666666666666</ele><time>2026-05-03T10:31:46.287Z</time></trkpt><trkpt lat="42.1978867" lon="13.8727683"><ele>247.33333333333331</ele><time>2026-05-03T10:31:47.287Z</time></trkpt><trkpt lat="42.1979167" lon="13.8730367"><ele>246.0</ele><time>2026-05-03T10:31:48.287Z</time></trkpt><trkpt lat="42.1979683" lon="13.8732933"><ele>250.66666666666669</ele><time>2026-05-03T10:31:49.287Z</time></trkpt><trkpt lat="42.198005" lon="13.8735617"><ele>255.33333333333334</ele><time>2026-05-03T10:31:50.287Z</time></trkpt><trkpt lat="42.19804" lon="13.8738333"><ele>260.0</ele><time>2026-05-03T10:31:51.287Z</time></trkpt><trkpt lat="42.19809" lon="13.8740983"><ele>260.6666666666667</ele><time>2026-05-03T10:31:52.287Z</time></trkpt><trkpt lat="42.1981367" lon="13.87436"><ele>261.3333333333333</ele><time>2026-05-03T10:31:53.287Z</time></trkpt><trkpt lat="42.198175" lon="13.8746133"><ele>262.0</ele><time>2026-05-03T10:31:54.287Z</time></trkpt><trkpt lat="42.1982133" lon="13.8748483"><ele>252.0</ele><time>2026-05-03T10:31:55.287Z</time></trkpt><trkpt lat="42.19825" lon="13.8750717"><ele>242.0</ele><time>2026-05-03T10:31:56.287Z</time></trkpt><trkpt lat="42.1982683" lon="13.87529"><ele>232.0</ele><time>2026-05-03T10:31:57.287Z</time></trkpt><trkpt lat="42.19828" lon="13.8755083"><ele>229.33333333333331</ele><time>2026-05-03T10:31:58.287Z</time></trkpt><trkpt lat="42.1982467" lon="13.8757167"><ele>226.66666666666669</ele><time>2026-05-03T10:31:59.287Z</time></trkpt><trkpt lat="42.1982083" lon="13.8759233"><ele>224.0</ele><time>2026-05-03T10:32:00.287Z</time></trkpt><trkpt lat="42.1981683" lon="13.8761333"><ele>237.0</ele><time>2026-05-03T10:32:01.287Z</time></trkpt><trkpt lat="42.1981117" lon="13.876345"><ele>250.0</ele><time>2026-05-03T10:32:02.287Z</time></trkpt><trkpt lat="42.1980583" lon="13.87656"><ele>263.0</ele><time>2026-05-03T10:32:03.287Z</time></trkpt><trkpt lat="42.19801" lon="13.8767717"><ele>263.0</ele><time>2026-05-03T10:32:04.287Z</time></trkpt><trkpt lat="42.19797" lon="13.8769917"><ele>263.0</ele><time>2026-05-03T10:32:05.287Z</time></trkpt><trkpt lat="42.1979433" lon="13.8772167"><ele>263.0</ele><time>2026-05-03T10:32:06.287Z</time></trkpt><trkpt lat="42.1979383" lon="13.8774367"><ele>264.6666666666667</ele><time>2026-05-03T10:32:07.287Z</time></trkpt><trkpt lat="42.1979733" lon="13.877655"><ele>266.3333333333333</ele><time>2026-05-03T10:32:08.288Z</time></trkpt><trkpt lat="42.19802" lon="13.8778683"><ele>268.0</ele><time>2026-05-03T10:32:09.287Z</time></trkpt><trkpt lat="42.1980867" lon="13.8780883"><ele>258.3333333333333</ele><time>2026-05-03T10:32:10.287Z</time></trkpt><trkpt lat="42.1981683" lon="13.8783033"><ele>248.66666666666669</ele><time>2026-05-03T10:32:11.287Z</time></trkpt><trkpt lat="42.1982667" lon="13.8785017"><ele>239.0</ele><time>2026-05-03T10:32:12.287Z</time></trkpt><trkpt lat="42.1983717" lon="13.8786817"><ele>239.0</ele><time>2026-05-03T10:32:13.287Z</time></trkpt><trkpt lat="42.198505" lon="13.8788383"><ele>239.0</ele><time>2026-05-03T10:32:14.287Z</time></trkpt><trkpt lat="42.1986483" lon="13.8789817"><ele>239.0</ele><time>2026-05-03T10:32:15.287Z</time></trkpt><trkpt lat="42.1987867" lon="13.8791217"><ele>239.0</ele><time>2026-05-03T10:32:16.287Z</time></trkpt><trkpt lat="42.1989183" lon="13.8792583"><ele>239.0</ele><time>2026-05-03T10:32:17.287Z</time></trkpt><trkpt lat="42.199035" lon="13.8794017"><ele>239.0</ele><time>2026-05-03T10:32:18.287Z</time></trkpt><trkpt lat="42.1991483" lon="13.8795533"><ele>238.25</ele><time>2026-05-03T10:32:19.287Z</time></trkpt><trkpt lat="42.1992317" lon="13.8797283"><ele>237.5</ele><time>2026-05-03T10:32:20.287Z</time></trkpt><trkpt lat="42.1992817" lon="13.8799083"><ele>236.75</ele><time>2026-05-03T10:32:21.287Z</time></trkpt><trkpt lat="42.1993033" lon="13.8801033"><ele>236.0</ele><time>2026-05-03T10:32:22.287Z</time></trkpt><trkpt lat="42.199305" lon="13.8803"><ele>236.0</ele><time>2026-05-03T10:32:23.287Z</time></trkpt><trkpt lat="42.1993033" lon="13.880505"><ele>236.0</ele><time>2026-05-03T10:32:24.287Z</time></trkpt><trkpt lat="42.1992767" lon="13.8807033"><ele>236.0</ele><time>2026-05-03T10:32:25.287Z</time></trkpt><trkpt lat="42.1992583" lon="13.8809067"><ele>233.75</ele><time>2026-05-03T10:32:26.287Z</time></trkpt><trkpt lat="42.199245" lon="13.8811033"><ele>231.5</ele><time>2026-05-03T10:32:27.287Z</time></trkpt><trkpt lat="42.19923" lon="13.88129"><ele>229.25</ele><time>2026-05-03T10:32:28.287Z</time></trkpt><trkpt lat="42.1992317" lon="13.8814667"><ele>227.0</ele><time>2026-05-03T10:32:29.288Z</time></trkpt><trkpt lat="42.1992533" lon="13.8816467"><ele>229.0</ele><time>2026-05-03T10:32:30.287Z</time></trkpt><trkpt lat="42.1993083" lon="13.88183"><ele>231.0</ele><time>2026-05-03T10:32:31.287Z</time></trkpt><trkpt lat="42.1993767" lon="13.8820217"><ele>233.0</ele><time>2026-05-03T10:32:32.287Z</time></trkpt><trkpt lat="42.19945" lon="13.8822217"><ele>233.0</ele><time>2026-05-03T10:32:33.287Z</time></trkpt><trkpt lat="42.19952" lon="13.8824167"><ele>233.0</ele><time>2026-05-03T10:32:34.287Z</time></trkpt><trkpt lat="42.1995817" lon="13.8826117"><ele>233.0</ele><time>2026-05-03T10:32:35.287Z</time></trkpt><trkpt lat="42.1996367" lon="13.8828017"><ele>227.33333333333334</ele><time>2026-05-03T10:32:36.287Z</time></trkpt><trkpt lat="42.19972" lon="13.8829617"><ele>221.66666666666669</ele><time>2026-05-03T10:32:37.287Z</time></trkpt><trkpt lat="42.1998233" lon="13.8831183"><ele>216.0</ele><time>2026-05-03T10:32:38.287Z</time></trkpt><trkpt lat="42.1999383" lon="13.8832833"><ele>223.66666666666669</ele><time>2026-05-03T10:32:39.287Z</time></trkpt><trkpt lat="42.200055" lon="13.883445"><ele>231.33333333333334</ele><time>2026-05-03T10:32:40.287Z</time></trkpt><trkpt lat="42.2001683" lon="13.8835867"><ele>239.0</ele><time>2026-05-03T10:32:41.287Z</time></trkpt><trkpt lat="42.20028" lon="13.8837367"><ele>239.0</ele><time>2026-05-03T10:32:42.287Z</time></trkpt><trkpt lat="42.2003783" lon="13.8839067"><ele>239.0</ele><time>2026-05-03T10:32:43.287Z</time></trkpt><trkpt lat="42.2004733" lon="13.8840983"><ele>239.0</ele><time>2026-05-03T10:32:44.287Z</time></trkpt><trkpt lat="42.200555" lon="13.884305"><ele>243.66666666666669</ele><time>2026-05-03T10:32:45.287Z</time></trkpt><trkpt lat="42.200605" lon="13.8845283"><ele>248.33333333333331</ele><time>2026-05-03T10:32:46.287Z</time></trkpt><trkpt lat="42.2006633" lon="13.88474"><ele>253.0</ele><time>2026-05-03T10:32:47.288Z</time></trkpt><trkpt lat="42.2007217" lon="13.8849433"><ele>247.0</ele><time>2026-05-03T10:32:48.287Z</time></trkpt><trkpt lat="42.2008033" lon="13.885125"><ele>241.0</ele><time>2026-05-03T10:32:49.287Z</time></trkpt><trkpt lat="42.2009017" lon="13.8853067"><ele>235.0</ele><time>2026-05-03T10:32:50.288Z</time></trkpt><trkpt lat="42.2010217" lon="13.8854867"><ele>235.0</ele><time>2026-05-03T10:32:51.288Z</time></trkpt><trkpt lat="42.2011733" lon="13.8856633"><ele>235.0</ele><time>2026-05-03T10:32:52.287Z</time></trkpt><trkpt lat="42.201345" lon="13.8858317"><ele>235.0</ele><time>2026-05-03T10:32:53.287Z</time></trkpt><trkpt lat="42.2015083" lon="13.8859917"><ele>233.0</ele><time>2026-05-03T10:32:54.287Z</time></trkpt><trkpt lat="42.2016617" lon="13.8861467"><ele>231.0</ele><time>2026-05-03T10:32:55.287Z</time></trkpt><trkpt lat="42.2018083" lon="13.8862917"><ele>229.0</ele><time>2026-05-03T10:32:56.287Z</time></trkpt><trkpt lat="42.2019217" lon="13.8864133"><ele>229.0</ele><time>2026-05-03T10:32:57.287Z</time></trkpt><trkpt lat="42.2020067" lon="13.8865033"><ele>228.99999999999997</ele><time>2026-05-03T10:32:58.287Z</time></trkpt><trkpt lat="42.2020667" lon="13.8865833"><ele>228.99999999999997</ele><time>2026-05-03T10:32:59.287Z</time></trkpt><trkpt lat="42.202115" lon="13.8866783"><ele>229.0</ele><time>2026-05-03T10:33:01.287Z</time></trkpt><trkpt lat="42.2021783" lon="13.886765"><ele>229.0</ele><time>2026-05-03T10:33:05.287Z</time></trkpt><trkpt lat="42.2022483" lon="13.8868483"><ele>227.39999999999998</ele><time>2026-05-03T10:33:07.287Z</time></trkpt><trkpt lat="42.20232" lon="13.8869467"><ele>225.79999999999998</ele><time>2026-05-03T10:33:09.287Z</time></trkpt><trkpt lat="42.2023933" lon="13.88706"><ele>224.20000000000002</ele><time>2026-05-03T10:33:11.287Z</time></trkpt><trkpt lat="42.2024467" lon="13.8871383"><ele>222.60000000000002</ele><time>2026-05-03T10:33:13.287Z</time></trkpt><trkpt lat="42.2024917" lon="13.8872183"><ele>221.0</ele><time>2026-05-03T10:33:15.287Z</time></trkpt><trkpt lat="42.2025467" lon="13.8873317"><ele>221.0</ele><time>2026-05-03T10:33:17.287Z</time></trkpt><trkpt lat="42.2026167" lon="13.8874483"><ele>221.00000000000003</ele><time>2026-05-03T10:33:19.287Z</time></trkpt><trkpt lat="42.202675" lon="13.887565"><ele>221.00000000000003</ele><time>2026-05-03T10:33:21.287Z</time></trkpt><trkpt lat="42.20275" lon="13.8876867"><ele>221.0</ele><time>2026-05-03T10:33:23.287Z</time></trkpt><trkpt lat="42.2027933" lon="13.8877567"><ele>221.0</ele><time>2026-05-03T10:33:24.287Z</time></trkpt><trkpt lat="42.2028367" lon="13.8878317"><ele>222.42857142857144</ele><time>2026-05-03T10:33:25.287Z</time></trkpt><trkpt lat="42.2028833" lon="13.8879133"><ele>223.85714285714286</ele><time>2026-05-03T10:33:26.287Z</time></trkpt><trkpt lat="42.20293" lon="13.88799"><ele>225.28571428571428</ele><time>2026-05-03T10:33:27.287Z</time></trkpt><trkpt lat="42.2029683" lon="13.88806"><ele>226.71428571428572</ele><time>2026-05-03T10:33:28.287Z</time></trkpt><trkpt lat="42.2030167" lon="13.888135"><ele>228.14285714285714</ele><time>2026-05-03T10:33:29.287Z</time></trkpt><trkpt lat="42.2030633" lon="13.88821"><ele>229.57142857142858</ele><time>2026-05-03T10:33:30.287Z</time></trkpt><trkpt lat="42.2031" lon="13.8882833"><ele>231.0</ele><time>2026-05-03T10:33:31.287Z</time></trkpt><trkpt lat="42.2031667" lon="13.8884133"><ele>233.0</ele><time>2026-05-03T10:33:33.287Z</time></trkpt><trkpt lat="42.203215" lon="13.8884817"><ele>235.0</ele><time>2026-05-03T10:33:34.287Z</time></trkpt><trkpt lat="42.2032567" lon="13.8885467"><ele>237.0</ele><time>2026-05-03T10:33:35.287Z</time></trkpt><trkpt lat="42.2033483" lon="13.88865"><ele>239.0</ele><time>2026-05-03T10:33:37.288Z</time></trkpt><trkpt lat="42.2034083" lon="13.8887467"><ele>241.0</ele><time>2026-05-03T10:33:39.287Z</time></trkpt><trkpt lat="42.2034567" lon="13.8888433"><ele>243.0</ele><time>2026-05-03T10:33:41.287Z</time></trkpt><trkpt lat="42.2035233" lon="13.8889333"><ele>243.0</ele><time>2026-05-03T10:33:43.287Z</time></trkpt><trkpt lat="42.20358" lon="13.88902"><ele>243.0</ele><time>2026-05-03T10:33:45.287Z</time></trkpt><trkpt lat="42.20363" lon="13.8891083"><ele>243.0</ele><time>2026-05-03T10:33:47.287Z</time></trkpt><trkpt lat="42.2036917" lon="13.8892133"><ele>243.0</ele><time>2026-05-03T10:33:49.287Z</time></trkpt><trkpt lat="42.2037633" lon="13.889325"><ele>243.0</ele><time>2026-05-03T10:33:51.287Z</time></trkpt><trkpt lat="42.203835" lon="13.8894283"><ele>244.4</ele><time>2026-05-03T10:33:53.287Z</time></trkpt><trkpt lat="42.2039067" lon="13.8895283"><ele>245.8</ele><time>2026-05-03T10:33:55.287Z</time></trkpt><trkpt lat="42.203965" lon="13.8896417"><ele>247.2</ele><time>2026-05-03T10:33:57.287Z</time></trkpt><trkpt lat="42.2040217" lon="13.8897617"><ele>248.6</ele><time>2026-05-03T10:33:59.287Z</time></trkpt><trkpt lat="42.2040833" lon="13.8898683"><ele>250.0</ele><time>2026-05-03T10:34:01.287Z</time></trkpt><trkpt lat="42.2041633" lon="13.88996"><ele>245.6</ele><time>2026-05-03T10:34:03.287Z</time></trkpt><trkpt lat="42.2042417" lon="13.890025"><ele>241.2</ele><time>2026-05-03T10:34:05.287Z</time></trkpt><trkpt lat="42.2043333" lon="13.8900817"><ele>236.8</ele><time>2026-05-03T10:34:19.287Z</time></trkpt><trkpt lat="42.2043883" lon="13.8901933"><ele>232.4</ele><time>2026-05-03T10:34:21.287Z</time></trkpt><trkpt lat="42.2044333" lon="13.8903483"><ele>228.0</ele><time>2026-05-03T10:34:23.287Z</time></trkpt><trkpt lat="42.2045033" lon="13.890495"><ele>228.0</ele><time>2026-05-03T10:34:25.287Z</time></trkpt><trkpt lat="42.20456" lon="13.890585"><ele>228.0</ele><time>2026-05-03T10:34:26.287Z</time></trkpt><trkpt lat="42.20461" lon="13.8906633"><ele>228.0</ele><time>2026-05-03T10:34:27.287Z</time></trkpt><trkpt lat="42.20466" lon="13.8907383"><ele>228.0</ele><time>2026-05-03T10:34:28.287Z</time></trkpt><trkpt lat="42.20471" lon="13.8908033"><ele>228.0</ele><time>2026-05-03T10:34:29.287Z</time></trkpt><trkpt lat="42.2047533" lon="13.8908833"><ele>228.0</ele><time>2026-05-03T10:34:30.287Z</time></trkpt><trkpt lat="42.2047983" lon="13.890965"><ele>227.66666666666666</ele><time>2026-05-03T10:34:31.287Z</time></trkpt><trkpt lat="42.20485" lon="13.8910417"><ele>227.33333333333331</ele><time>2026-05-03T10:34:32.287Z</time></trkpt><trkpt lat="42.2049033" lon="13.89112"><ele>227.0</ele><time>2026-05-03T10:34:33.287Z</time></trkpt><trkpt lat="42.2049567" lon="13.89119"><ele>226.66666666666666</ele><time>2026-05-03T10:34:34.287Z</time></trkpt><trkpt lat="42.2050133" lon="13.89126"><ele>226.33333333333331</ele><time>2026-05-03T10:34:35.287Z</time></trkpt><trkpt lat="42.2050667" lon="13.8913367"><ele>226.0</ele><time>2026-05-03T10:34:36.287Z</time></trkpt><trkpt lat="42.20511" lon="13.891405"><ele>226.0</ele><time>2026-05-03T10:34:37.287Z</time></trkpt><trkpt lat="42.2051583" lon="13.8914717"><ele>226.0</ele><time>2026-05-03T10:34:38.287Z</time></trkpt><trkpt lat="42.2052117" lon="13.89154"><ele>226.0</ele><time>2026-05-03T10:34:39.287Z</time></trkpt><trkpt lat="42.20526" lon="13.8916083"><ele>226.0</ele><time>2026-05-03T10:34:40.287Z</time></trkpt><trkpt lat="42.2053067" lon="13.8916683"><ele>226.0</ele><time>2026-05-03T10:34:41.287Z</time></trkpt><trkpt lat="42.205355" lon="13.8917483"><ele>226.0</ele><time>2026-05-03T10:34:42.287Z</time></trkpt><trkpt lat="42.2054067" lon="13.8918167"><ele>226.0</ele><time>2026-05-03T10:34:43.287Z</time></trkpt><trkpt lat="42.2054633" lon="13.8918883"><ele>225.99999999999997</ele><time>2026-05-03T10:34:44.287Z</time></trkpt><trkpt lat="42.2055183" lon="13.8919667"><ele>226.0</ele><time>2026-05-03T10:34:45.287Z</time></trkpt><trkpt lat="42.205575" lon="13.892055"><ele>226.0</ele><time>2026-05-03T10:34:46.287Z</time></trkpt><trkpt lat="42.2056433" lon="13.8921367"><ele>226.0</ele><time>2026-05-03T10:34:47.287Z</time></trkpt><trkpt lat="42.20571" lon="13.8922317"><ele>225.99999999999997</ele><time>2026-05-03T10:34:48.287Z</time></trkpt><trkpt lat="42.2057733" lon="13.8923267"><ele>226.0</ele><time>2026-05-03T10:34:49.287Z</time></trkpt><trkpt lat="42.2058383" lon="13.8924217"><ele>225.99999999999997</ele><time>2026-05-03T10:34:50.287Z</time></trkpt><trkpt lat="42.2058933" lon="13.892495"><ele>226.0</ele><time>2026-05-03T10:34:51.287Z</time></trkpt><trkpt lat="42.2059517" lon="13.892575"><ele>226.0</ele><time>2026-05-03T10:34:52.287Z</time></trkpt><trkpt lat="42.2060183" lon="13.8926617"><ele>226.0</ele><time>2026-05-03T10:34:53.288Z</time></trkpt><trkpt lat="42.2060783" lon="13.8927533"><ele>225.99999999999997</ele><time>2026-05-03T10:34:54.287Z</time></trkpt><trkpt lat="42.2061367" lon="13.8928367"><ele>226.0</ele><time>2026-05-03T10:34:55.287Z</time></trkpt><trkpt lat="42.206205" lon="13.8929317"><ele>226.49999999999997</ele><time>2026-05-03T10:34:56.287Z</time></trkpt><trkpt lat="42.2062667" lon="13.8930217"><ele>227.0</ele><time>2026-05-03T10:34:57.287Z</time></trkpt><trkpt lat="42.2063283" lon="13.8931033"><ele>227.5</ele><time>2026-05-03T10:34:58.287Z</time></trkpt><trkpt lat="42.2063783" lon="13.8931767"><ele>228.0</ele><time>2026-05-03T10:34:59.287Z</time></trkpt><trkpt lat="42.2064283" lon="13.8932483"><ele>228.49999999999997</ele><time>2026-05-03T10:35:00.287Z</time></trkpt><trkpt lat="42.20648" lon="13.8933217"><ele>229.0</ele><time>2026-05-03T10:35:01.287Z</time></trkpt><trkpt lat="42.20653" lon="13.8933933"><ele>230.39999999999998</ele><time>2026-05-03T10:35:02.287Z</time></trkpt><trkpt lat="42.20658" lon="13.8934567"><ele>231.79999999999998</ele><time>2026-05-03T10:35:03.287Z</time></trkpt><trkpt lat="42.2066333" lon="13.8935267"><ele>233.20000000000002</ele><time>2026-05-03T10:35:04.287Z</time></trkpt><trkpt lat="42.2066917" lon="13.8936167"><ele>234.60000000000002</ele><time>2026-05-03T10:35:05.287Z</time></trkpt><trkpt lat="42.2067617" lon="13.8937183"><ele>236.0</ele><time>2026-05-03T10:35:06.287Z</time></trkpt><trkpt lat="42.2068383" lon="13.8938367"><ele>236.0</ele><time>2026-05-03T10:35:07.287Z</time></trkpt><trkpt lat="42.2069133" lon="13.893955"><ele>236.00000000000003</ele><time>2026-05-03T10:35:08.287Z</time></trkpt><trkpt lat="42.2069767" lon="13.8940483"><ele>236.00000000000003</ele><time>2026-05-03T10:35:09.288Z</time></trkpt><trkpt lat="42.207045" lon="13.8941467"><ele>236.0</ele><time>2026-05-03T10:35:10.287Z</time></trkpt><trkpt lat="42.20711" lon="13.8942367"><ele>236.0</ele><time>2026-05-03T10:35:11.287Z</time></trkpt><trkpt lat="42.207175" lon="13.8943333"><ele>236.66666666666669</ele><time>2026-05-03T10:35:12.287Z</time></trkpt><trkpt lat="42.2072417" lon="13.89443"><ele>237.33333333333334</ele><time>2026-05-03T10:35:13.288Z</time></trkpt><trkpt lat="42.2072967" lon="13.894515"><ele>238.0</ele><time>2026-05-03T10:35:14.287Z</time></trkpt><trkpt lat="42.20734" lon="13.8945967"><ele>238.66666666666669</ele><time>2026-05-03T10:35:15.288Z</time></trkpt><trkpt lat="42.20739" lon="13.8946833"><ele>239.33333333333334</ele><time>2026-05-03T10:35:16.288Z</time></trkpt><trkpt lat="42.20745" lon="13.8947733"><ele>240.0</ele><time>2026-05-03T10:35:17.288Z</time></trkpt><trkpt lat="42.2075183" lon="13.89487"><ele>238.2</ele><time>2026-05-03T10:35:18.287Z</time></trkpt><trkpt lat="42.2075833" lon="13.89496"><ele>236.4</ele><time>2026-05-03T10:35:19.287Z</time></trkpt><trkpt lat="42.207635" lon="13.8950367"><ele>234.60000000000002</ele><time>2026-05-03T10:35:20.287Z</time></trkpt><trkpt lat="42.207685" lon="13.895125"><ele>232.8</ele><time>2026-05-03T10:35:22.287Z</time></trkpt><trkpt lat="42.2077467" lon="13.895225"><ele>231.0</ele><time>2026-05-03T10:35:36.287Z</time></trkpt><trkpt lat="42.20783" lon="13.8953367"><ele>231.0</ele><time>2026-05-03T10:35:38.287Z</time></trkpt><trkpt lat="42.207885" lon="13.8954033"><ele>231.0</ele><time>2026-05-03T10:35:39.287Z</time></trkpt><trkpt lat="42.2079383" lon="13.895475"><ele>231.0</ele><time>2026-05-03T10:35:40.287Z</time></trkpt><trkpt lat="42.207995" lon="13.8955633"><ele>231.0</ele><time>2026-05-03T10:35:41.287Z</time></trkpt><trkpt lat="42.2080533" lon="13.8956533"><ele>231.0</ele><time>2026-05-03T10:35:42.287Z</time></trkpt><trkpt lat="42.2081033" lon="13.8957383"><ele>231.0</ele><time>2026-05-03T10:35:43.287Z</time></trkpt><trkpt lat="42.2081583" lon="13.8958183"><ele>230.83333333333334</ele><time>2026-05-03T10:35:44.287Z</time></trkpt><trkpt lat="42.208215" lon="13.8958967"><ele>230.66666666666669</ele><time>2026-05-03T10:35:45.287Z</time></trkpt><trkpt lat="42.2082767" lon="13.895975"><ele>230.5</ele><time>2026-05-03T10:35:46.287Z</time></trkpt><trkpt lat="42.2083333" lon="13.89605"><ele>230.33333333333334</ele><time>2026-05-03T10:35:47.287Z</time></trkpt><trkpt lat="42.2083833" lon="13.8961117"><ele>230.16666666666669</ele><time>2026-05-03T10:35:48.288Z</time></trkpt><trkpt lat="42.20846" lon="13.8962133"><ele>230.0</ele><time>2026-05-03T10:35:50.288Z</time></trkpt><trkpt lat="42.2085583" lon="13.8963083"><ele>230.0</ele><time>2026-05-03T10:35:52.287Z</time></trkpt><trkpt lat="42.2086317" lon="13.89644"><ele>230.0</ele><time>2026-05-03T10:35:54.287Z</time></trkpt><trkpt lat="42.20867" lon="13.8965117"><ele>230.0</ele><time>2026-05-03T10:35:55.287Z</time></trkpt><trkpt lat="42.2087083" lon="13.89658"><ele>230.0</ele><time>2026-05-03T10:35:56.287Z</time></trkpt><trkpt lat="42.208785" lon="13.8967233"><ele>230.0</ele><time>2026-05-03T10:35:58.287Z</time></trkpt><trkpt lat="42.20883" lon="13.8968033"><ele>231.0</ele><time>2026-05-03T10:35:59.287Z</time></trkpt><trkpt lat="42.2088817" lon="13.8968867"><ele>232.0</ele><time>2026-05-03T10:36:00.288Z</time></trkpt><trkpt lat="42.2089317" lon="13.896965"><ele>233.0</ele><time>2026-05-03T10:36:01.287Z</time></trkpt><trkpt lat="42.20899" lon="13.8970567"><ele>234.0</ele><time>2026-05-03T10:36:02.287Z</time></trkpt><trkpt lat="42.2090633" lon="13.897155"><ele>235.0</ele><time>2026-05-03T10:36:03.287Z</time></trkpt><trkpt lat="42.2091367" lon="13.8972683"><ele>235.0</ele><time>2026-05-03T10:36:04.287Z</time></trkpt><trkpt lat="42.2092167" lon="13.897385"><ele>235.0</ele><time>2026-05-03T10:36:05.287Z</time></trkpt><trkpt lat="42.2092883" lon="13.8974983"><ele>235.0</ele><time>2026-05-03T10:36:06.287Z</time></trkpt><trkpt lat="42.2093567" lon="13.897605"><ele>235.0</ele><time>2026-05-03T10:36:07.287Z</time></trkpt><trkpt lat="42.2094167" lon="13.8977"><ele>235.0</ele><time>2026-05-03T10:36:08.287Z</time></trkpt><trkpt lat="42.2094733" lon="13.897785"><ele>236.0</ele><time>2026-05-03T10:36:09.287Z</time></trkpt><trkpt lat="42.2095233" lon="13.8978633"><ele>237.0</ele><time>2026-05-03T10:36:10.287Z</time></trkpt><trkpt lat="42.2095667" lon="13.8979383"><ele>238.0</ele><time>2026-05-03T10:36:11.288Z</time></trkpt><trkpt lat="42.209605" lon="13.8980267"><ele>239.0</ele><time>2026-05-03T10:36:12.287Z</time></trkpt><trkpt lat="42.209645" lon="13.8981833"><ele>240.0</ele><time>2026-05-03T10:36:14.287Z</time></trkpt><trkpt lat="42.2097133" lon="13.8982917"><ele>240.0</ele><time>2026-05-03T10:36:16.287Z</time></trkpt><trkpt lat="42.209815" lon="13.8983"><ele>240.0</ele><time>2026-05-03T10:36:18.287Z</time></trkpt><trkpt lat="42.2099067" lon="13.8983217"><ele>240.0</ele><time>2026-05-03T10:36:20.287Z</time></trkpt><trkpt lat="42.2099683" lon="13.89843"><ele>240.0</ele><time>2026-05-03T10:36:22.287Z</time></trkpt><trkpt lat="42.2100283" lon="13.898565"><ele>240.0</ele><time>2026-05-03T10:36:24.288Z</time></trkpt><trkpt lat="42.2101067" lon="13.8986883"><ele>239.0</ele><time>2026-05-03T10:36:26.287Z</time></trkpt><trkpt lat="42.2101917" lon="13.8988217"><ele>238.0</ele><time>2026-05-03T10:36:28.287Z</time></trkpt><trkpt lat="42.21025" lon="13.8989017"><ele>237.0</ele><time>2026-05-03T10:36:29.287Z</time></trkpt><trkpt lat="42.2103117" lon="13.89898"><ele>236.0</ele><time>2026-05-03T10:36:30.287Z</time></trkpt><trkpt lat="42.21037" lon="13.8990667"><ele>235.0</ele><time>2026-05-03T10:36:31.287Z</time></trkpt><trkpt lat="42.210425" lon="13.8991483"><ele>234.99999999999997</ele><time>2026-05-03T10:36:32.287Z</time></trkpt><trkpt lat="42.2104683" lon="13.8992283"><ele>235.0</ele><time>2026-05-03T10:36:33.287Z</time></trkpt><trkpt lat="42.2105083" lon="13.89931"><ele>235.0</ele><time>2026-05-03T10:36:34.287Z</time></trkpt><trkpt lat="42.210555" lon="13.8994"><ele>235.0</ele><time>2026-05-03T10:36:35.287Z</time></trkpt><trkpt lat="42.2106017" lon="13.8994967"><ele>234.99999999999997</ele><time>2026-05-03T10:36:36.287Z</time></trkpt><trkpt lat="42.2106433" lon="13.899605"><ele>235.0</ele><time>2026-05-03T10:36:37.287Z</time></trkpt><trkpt lat="42.21069" lon="13.8997117"><ele>233.2</ele><time>2026-05-03T10:36:38.287Z</time></trkpt><trkpt lat="42.21074" lon="13.89982"><ele>231.4</ele><time>2026-05-03T10:36:39.288Z</time></trkpt><trkpt lat="42.2107967" lon="13.899925"><ele>229.60000000000002</ele><time>2026-05-03T10:36:40.287Z</time></trkpt><trkpt lat="42.2108583" lon="13.9000217"><ele>227.8</ele><time>2026-05-03T10:36:41.288Z</time></trkpt><trkpt lat="42.2109233" lon="13.9001083"><ele>226.0</ele><time>2026-05-03T10:36:42.287Z</time></trkpt><trkpt lat="42.2109833" lon="13.9001883"><ele>226.0</ele><time>2026-05-03T10:36:43.287Z</time></trkpt><trkpt lat="42.2110383" lon="13.9002567"><ele>226.0</ele><time>2026-05-03T10:36:44.288Z</time></trkpt><trkpt lat="42.2110817" lon="13.9003217"><ele>226.0</ele><time>2026-05-03T10:36:45.287Z</time></trkpt><trkpt lat="42.2111267" lon="13.90039"><ele>226.0</ele><time>2026-05-03T10:36:46.287Z</time></trkpt><trkpt lat="42.2111617" lon="13.9004617"><ele>226.0</ele><time>2026-05-03T10:36:47.287Z</time></trkpt><trkpt lat="42.2111967" lon="13.900535"><ele>226.0</ele><time>2026-05-03T10:36:48.287Z</time></trkpt><trkpt lat="42.21124" lon="13.9005967"><ele>226.0</ele><time>2026-05-03T10:36:49.288Z</time></trkpt><trkpt lat="42.211335" lon="13.90066"><ele>225.99999999999997</ele><time>2026-05-03T10:36:51.287Z</time></trkpt><trkpt lat="42.21143" lon="13.90064"><ele>226.0</ele><time>2026-05-03T10:36:53.287Z</time></trkpt><trkpt lat="42.2114983" lon="13.9006067"><ele>226.0</ele><time>2026-05-03T10:36:55.287Z</time></trkpt><trkpt lat="42.2115717" lon="13.9006733"><ele>226.0</ele><time>2026-05-03T10:36:59.287Z</time></trkpt><trkpt lat="42.2116" lon="13.90075"><ele>225.99999999999997</ele><time>2026-05-03T10:37:00.287Z</time></trkpt><trkpt lat="42.2116217" lon="13.9008317"><ele>226.0</ele><time>2026-05-03T10:37:01.288Z</time></trkpt><trkpt lat="42.2116317" lon="13.900945"><ele>225.66666666666666</ele><time>2026-05-03T10:37:03.288Z</time></trkpt><trkpt lat="42.2115767" lon="13.9010467"><ele>225.33333333333331</ele><time>2026-05-03T10:37:05.287Z</time></trkpt><trkpt lat="42.2114933" lon="13.901145"><ele>225.0</ele><time>2026-05-03T10:37:07.287Z</time></trkpt><trkpt lat="42.21146" lon="13.901245"><ele>224.66666666666669</ele><time>2026-05-03T10:37:10.287Z</time></trkpt><trkpt lat="42.2114833" lon="13.9013383"><ele>224.33333333333334</ele><time>2026-05-03T10:37:14.287Z</time></trkpt><trkpt lat="42.211475" lon="13.9014467"><ele>224.0</ele><time>2026-05-03T10:37:17.288Z</time></trkpt><trkpt lat="42.2113933" lon="13.901475"><ele>227.33333333333334</ele><time>2026-05-03T10:37:20.287Z</time></trkpt><trkpt lat="42.2113283" lon="13.9014217"><ele>230.66666666666669</ele><time>2026-05-03T10:37:22.287Z</time></trkpt><trkpt lat="42.2112617" lon="13.9013617"><ele>234.0</ele><time>2026-05-03T10:37:24.288Z</time></trkpt><trkpt lat="42.2111883" lon="13.9013317"><ele>237.33333333333331</ele><time>2026-05-03T10:37:26.287Z</time></trkpt><trkpt lat="42.21109" lon="13.9013117"><ele>240.66666666666666</ele><time>2026-05-03T10:37:28.287Z</time></trkpt><trkpt lat="42.2109833" lon="13.901325"><ele>244.0</ele><time>2026-05-03T10:37:30.287Z</time></trkpt><trkpt lat="42.210915" lon="13.9013683"><ele>243.99999999999997</ele><time>2026-05-03T10:37:32.287Z</time></trkpt><trkpt lat="42.2108983" lon="13.901475"><ele>244.0</ele><time>2026-05-03T10:37:35.287Z</time></trkpt><trkpt lat="42.210945" lon="13.9015783"><ele>244.0</ele><time>2026-05-03T10:37:38.288Z</time></trkpt><trkpt lat="42.2109983" lon="13.9016317"><ele>244.0</ele><time>2026-05-03T10:37:40.288Z</time></trkpt><trkpt lat="42.2110683" lon="13.9017083"><ele>243.99999999999997</ele><time>2026-05-03T10:37:42.288Z</time></trkpt><trkpt lat="42.2111233" lon="13.9017967"><ele>244.0</ele><time>2026-05-03T10:37:44.287Z</time></trkpt><trkpt lat="42.2111467" lon="13.9018883"><ele>247.49999999999997</ele><time>2026-05-03T10:37:46.287Z</time></trkpt><trkpt lat="42.2111394" lon="13.9019851"><ele>251.0</ele><time>2026-05-03T10:37:50.338Z</time></trkpt><trkpt lat="42.2110735" lon="13.9020075"><ele>254.5</ele><time>2026-05-03T10:37:52.438Z</time></trkpt><trkpt lat="42.2110097" lon="13.9019336"><ele>258.0</ele><time>2026-05-03T10:37:54.459Z</time></trkpt><trkpt lat="42.210946" lon="13.9018513"><ele>261.5</ele><time>2026-05-03T10:37:56.4Z</time></trkpt><trkpt lat="42.2108672" lon="13.9017836"><ele>265.0</ele><time>2026-05-03T10:37:58.421Z</time></trkpt><trkpt lat="42.2108014" lon="13.90176"><ele>265.0</ele><time>2026-05-03T10:38:00.334Z</time></trkpt><trkpt lat="42.2107419" lon="13.9018051"><ele>265.0</ele><time>2026-05-03T10:38:03.418Z</time></trkpt><trkpt lat="42.2107587" lon="13.9018924"><ele>265.0</ele><time>2026-05-03T10:38:06.278Z</time></trkpt><trkpt lat="42.2108796" lon="13.90203"><ele>265.0</ele><time>2026-05-03T10:38:09.288Z</time></trkpt><trkpt lat="42.2109229" lon="13.9021325"><ele>265.0</ele><time>2026-05-03T10:38:11.287Z</time></trkpt><trkpt lat="42.2109392" lon="13.9022307"><ele>265.0</ele><time>2026-05-03T10:38:13.287Z</time></trkpt><trkpt lat="42.2109512" lon="13.9023456"><ele>265.0</ele><time>2026-05-03T10:38:15.287Z</time></trkpt><trkpt lat="42.2109468" lon="13.9024677"><ele>265.0</ele><time>2026-05-03T10:38:17.287Z</time></trkpt><trkpt lat="42.2109307" lon="13.9026346"><ele>265.0</ele><time>2026-05-03T10:38:19.288Z</time></trkpt><trkpt lat="42.2109206" lon="13.9027809"><ele>265.0</ele><time>2026-05-03T10:38:21.287Z</time></trkpt><trkpt lat="42.2109245" lon="13.9029139"><ele>268.2</ele><time>2026-05-03T10:38:23.287Z</time></trkpt><trkpt lat="42.2109533" lon="13.9030467"><ele>271.4</ele><time>2026-05-03T10:38:25.287Z</time></trkpt><trkpt lat="42.2109983" lon="13.9031867"><ele>274.6</ele><time>2026-05-03T10:38:27.287Z</time></trkpt><trkpt lat="42.2110467" lon="13.9033033"><ele>277.8</ele><time>2026-05-03T10:38:29.287Z</time></trkpt><trkpt lat="42.21109" lon="13.903425"><ele>281.0</ele><time>2026-05-03T10:38:31.287Z</time></trkpt><trkpt lat="42.2111217" lon="13.9035133"><ele>283.0</ele><time>2026-05-03T10:38:33.288Z</time></trkpt><trkpt lat="42.2111567" lon="13.9036367"><ele>285.0</ele><time>2026-05-03T10:38:35.287Z</time></trkpt><trkpt lat="42.2111817" lon="13.90373"><ele>287.0</ele><time>2026-05-03T10:38:36.287Z</time></trkpt><trkpt lat="42.2112033" lon="13.903825"><ele>289.0</ele><time>2026-05-03T10:38:37.287Z</time></trkpt><trkpt lat="42.2112233" lon="13.903925"><ele>291.0</ele><time>2026-05-03T10:38:38.287Z</time></trkpt><trkpt lat="42.211245" lon="13.9040317"><ele>293.0</ele><time>2026-05-03T10:38:39.287Z</time></trkpt><trkpt lat="42.211265" lon="13.904145"><ele>295.4</ele><time>2026-05-03T10:38:40.287Z</time></trkpt><trkpt lat="42.2112817" lon="13.9042683"><ele>297.8</ele><time>2026-05-03T10:38:41.287Z</time></trkpt><trkpt lat="42.2113" lon="13.9043933"><ele>300.2</ele><time>2026-05-03T10:38:42.287Z</time></trkpt><trkpt lat="42.21133" lon="13.90451"><ele>302.6</ele><time>2026-05-03T10:38:43.287Z</time></trkpt><trkpt lat="42.21136" lon="13.904635"><ele>305.0</ele><time>2026-05-03T10:38:44.287Z</time></trkpt><trkpt lat="42.2113917" lon="13.9047767"><ele>305.0</ele><time>2026-05-03T10:38:45.287Z</time></trkpt><trkpt lat="42.2114333" lon="13.90492"><ele>305.0</ele><time>2026-05-03T10:38:46.288Z</time></trkpt><trkpt lat="42.21145" lon="13.9050683"><ele>305.0</ele><time>2026-05-03T10:38:47.287Z</time></trkpt><trkpt lat="42.21147" lon="13.905215"><ele>305.0</ele><time>2026-05-03T10:38:48.287Z</time></trkpt><trkpt lat="42.2114933" lon="13.9053533"><ele>305.0</ele><time>2026-05-03T10:38:49.287Z</time></trkpt><trkpt lat="42.211515" lon="13.905485"><ele>305.4</ele><time>2026-05-03T10:38:50.287Z</time></trkpt><trkpt lat="42.2115367" lon="13.9056167"><ele>305.8</ele><time>2026-05-03T10:38:51.288Z</time></trkpt><trkpt lat="42.2115633" lon="13.9057367"><ele>306.2</ele><time>2026-05-03T10:38:52.287Z</time></trkpt><trkpt lat="42.2116033" lon="13.9058667"><ele>306.6</ele><time>2026-05-03T10:38:53.287Z</time></trkpt><trkpt lat="42.21164" lon="13.905995"><ele>307.0</ele><time>2026-05-03T10:38:54.287Z</time></trkpt><trkpt lat="42.21167" lon="13.9061233"><ele>308.3333333333333</ele><time>2026-05-03T10:38:55.287Z</time></trkpt><trkpt lat="42.2117083" lon="13.90623"><ele>309.66666666666663</ele><time>2026-05-03T10:38:56.288Z</time></trkpt><trkpt lat="42.211745" lon="13.9063317"><ele>311.0</ele><time>2026-05-03T10:38:57.287Z</time></trkpt><trkpt lat="42.2117833" lon="13.9064367"><ele>312.3333333333333</ele><time>2026-05-03T10:38:58.287Z</time></trkpt><trkpt lat="42.2118117" lon="13.9065467"><ele>313.6666666666667</ele><time>2026-05-03T10:38:59.287Z</time></trkpt><trkpt lat="42.2118367" lon="13.90666"><ele>315.0</ele><time>2026-05-03T10:39:00.287Z</time></trkpt><trkpt lat="42.2118567" lon="13.90677"><ele>317.2</ele><time>2026-05-03T10:39:01.287Z</time></trkpt><trkpt lat="42.21188" lon="13.9068883"><ele>319.4</ele><time>2026-05-03T10:39:02.287Z</time></trkpt><trkpt lat="42.2119067" lon="13.9070083"><ele>321.6</ele><time>2026-05-03T10:39:03.287Z</time></trkpt><trkpt lat="42.21194" lon="13.9071467"><ele>323.8</ele><time>2026-05-03T10:39:04.287Z</time></trkpt><trkpt lat="42.21199" lon="13.90732"><ele>326.0</ele><time>2026-05-03T10:39:05.287Z</time></trkpt><trkpt lat="42.2120333" lon="13.90748"><ele>326.6</ele><time>2026-05-03T10:39:06.287Z</time></trkpt><trkpt lat="42.2120633" lon="13.9076217"><ele>327.20000000000005</ele><time>2026-05-03T10:39:07.287Z</time></trkpt><trkpt lat="42.2120883" lon="13.9077683"><ele>327.79999999999995</ele><time>2026-05-03T10:39:08.287Z</time></trkpt><trkpt lat="42.2121067" lon="13.9079117"><ele>328.4</ele><time>2026-05-03T10:39:09.287Z</time></trkpt><trkpt lat="42.2121233" lon="13.908045"><ele>329.0</ele><time>2026-05-03T10:39:10.287Z</time></trkpt><trkpt lat="42.2121383" lon="13.90817"><ele>329.0</ele><time>2026-05-03T10:39:11.286Z</time></trkpt><trkpt lat="42.2121433" lon="13.9082983"><ele>329.0</ele><time>2026-05-03T10:39:12.286Z</time></trkpt><trkpt lat="42.21215" lon="13.908425"><ele>329.0</ele><time>2026-05-03T10:39:13.286Z</time></trkpt><trkpt lat="42.21214" lon="13.9085383"><ele>329.0</ele><time>2026-05-03T10:39:14.286Z</time></trkpt><trkpt lat="42.2121333" lon="13.9086533"><ele>329.0</ele><time>2026-05-03T10:39:15.286Z</time></trkpt><trkpt lat="42.21213" lon="13.9087617"><ele>329.0</ele><time>2026-05-03T10:39:16.286Z</time></trkpt><trkpt lat="42.2121067" lon="13.9088733"><ele>329.75</ele><time>2026-05-03T10:39:17.286Z</time></trkpt><trkpt lat="42.2120583" lon="13.9090017"><ele>330.5</ele><time>2026-05-03T10:39:18.286Z</time></trkpt><trkpt lat="42.2119833" lon="13.90914"><ele>331.25</ele><time>2026-05-03T10:39:19.286Z</time></trkpt><trkpt lat="42.2119117" lon="13.909275"><ele>332.0</ele><time>2026-05-03T10:39:20.286Z</time></trkpt><trkpt lat="42.211845" lon="13.9093917"><ele>332.8</ele><time>2026-05-03T10:39:21.287Z</time></trkpt><trkpt lat="42.21179" lon="13.9094833"><ele>333.6</ele><time>2026-05-03T10:39:22.286Z</time></trkpt><trkpt lat="42.211755" lon="13.9095783"><ele>334.40000000000003</ele><time>2026-05-03T10:39:23.286Z</time></trkpt><trkpt lat="42.211755" lon="13.909685"><ele>335.20000000000005</ele><time>2026-05-03T10:39:24.286Z</time></trkpt><trkpt lat="42.2117633" lon="13.909815"><ele>336.0</ele><time>2026-05-03T10:39:25.286Z</time></trkpt><trkpt lat="42.2117733" lon="13.9099683"><ele>336.0</ele><time>2026-05-03T10:39:26.286Z</time></trkpt><trkpt lat="42.2117867" lon="13.910125"><ele>336.0</ele><time>2026-05-03T10:39:27.286Z</time></trkpt><trkpt lat="42.2118033" lon="13.91027"><ele>336.0</ele><time>2026-05-03T10:39:28.287Z</time></trkpt><trkpt lat="42.2118217" lon="13.9104083"><ele>336.0</ele><time>2026-05-03T10:39:29.286Z</time></trkpt><trkpt lat="42.2118317" lon="13.910545"><ele>336.0</ele><time>2026-05-03T10:39:30.286Z</time></trkpt><trkpt lat="42.2118317" lon="13.9106717"><ele>336.0</ele><time>2026-05-03T10:39:31.286Z</time></trkpt><trkpt lat="42.2118283" lon="13.910815"><ele>336.0</ele><time>2026-05-03T10:39:32.286Z</time></trkpt><trkpt lat="42.2118217" lon="13.910945"><ele>336.0</ele><time>2026-05-03T10:39:33.286Z</time></trkpt><trkpt lat="42.211805" lon="13.9110817"><ele>336.0</ele><time>2026-05-03T10:39:34.287Z</time></trkpt><trkpt lat="42.2117883" lon="13.9112017"><ele>336.0</ele><time>2026-05-03T10:39:35.286Z</time></trkpt><trkpt lat="42.2117817" lon="13.9113217"><ele>336.0</ele><time>2026-05-03T10:39:36.286Z</time></trkpt><trkpt lat="42.2117683" lon="13.911435"><ele>336.0</ele><time>2026-05-03T10:39:37.286Z</time></trkpt><trkpt lat="42.21176" lon="13.911535"><ele>336.0</ele><time>2026-05-03T10:39:38.286Z</time></trkpt><trkpt lat="42.2117517" lon="13.91164"><ele>336.0</ele><time>2026-05-03T10:39:39.286Z</time></trkpt><trkpt lat="42.21177" lon="13.9117483"><ele>336.0</ele><time>2026-05-03T10:39:40.286Z</time></trkpt><trkpt lat="42.211785" lon="13.911845"><ele>336.0</ele><time>2026-05-03T10:39:41.286Z</time></trkpt><trkpt lat="42.2118133" lon="13.9119217"><ele>335.5</ele><time>2026-05-03T10:39:42.286Z</time></trkpt><trkpt lat="42.211885" lon="13.9120517"><ele>335.0</ele><time>2026-05-03T10:39:44.286Z</time></trkpt><trkpt lat="42.2119283" lon="13.9121183"><ele>334.5</ele><time>2026-05-03T10:39:45.286Z</time></trkpt><trkpt lat="42.2119767" lon="13.9121917"><ele>334.0</ele><time>2026-05-03T10:39:46.286Z</time></trkpt><trkpt lat="42.2120333" lon="13.9122667"><ele>333.5</ele><time>2026-05-03T10:39:47.287Z</time></trkpt><trkpt lat="42.21209" lon="13.912345"><ele>333.0</ele><time>2026-05-03T10:39:48.286Z</time></trkpt><trkpt lat="42.2121467" lon="13.9124233"><ele>333.0</ele><time>2026-05-03T10:39:49.286Z</time></trkpt><trkpt lat="42.2121983" lon="13.9125033"><ele>333.0</ele><time>2026-05-03T10:39:50.286Z</time></trkpt><trkpt lat="42.212255" lon="13.91258"><ele>333.0</ele><time>2026-05-03T10:39:51.286Z</time></trkpt><trkpt lat="42.21233" lon="13.9126517"><ele>333.0</ele><time>2026-05-03T10:39:52.286Z</time></trkpt><trkpt lat="42.2123933" lon="13.9127283"><ele>333.0</ele><time>2026-05-03T10:39:53.286Z</time></trkpt><trkpt lat="42.212475" lon="13.9127967"><ele>333.0</ele><time>2026-05-03T10:39:54.287Z</time></trkpt><trkpt lat="42.21256" lon="13.912865"><ele>333.79999999999995</ele><time>2026-05-03T10:39:55.286Z</time></trkpt><trkpt lat="42.2126433" lon="13.9129333"><ele>334.6</ele><time>2026-05-03T10:39:56.286Z</time></trkpt><trkpt lat="42.212715" lon="13.9129883"><ele>335.4</ele><time>2026-05-03T10:39:57.286Z</time></trkpt><trkpt lat="42.212785" lon="13.9130183"><ele>336.20000000000005</ele><time>2026-05-03T10:39:58.287Z</time></trkpt><trkpt lat="42.2128767" lon="13.9130683"><ele>337.0</ele><time>2026-05-03T10:40:00.286Z</time></trkpt><trkpt lat="42.2129983" lon="13.913125"><ele>337.0</ele><time>2026-05-03T10:40:02.286Z</time></trkpt><trkpt lat="42.2130833" lon="13.9131517"><ele>337.0</ele><time>2026-05-03T10:40:03.287Z</time></trkpt><trkpt lat="42.2131817" lon="13.9131717"><ele>337.0</ele><time>2026-05-03T10:40:04.287Z</time></trkpt><trkpt lat="42.2132783" lon="13.9131933"><ele>337.0</ele><time>2026-05-03T10:40:05.286Z</time></trkpt><trkpt lat="42.2133783" lon="13.91321"><ele>337.0</ele><time>2026-05-03T10:40:06.287Z</time></trkpt><trkpt lat="42.2134783" lon="13.9132283"><ele>337.8</ele><time>2026-05-03T10:40:07.286Z</time></trkpt><trkpt lat="42.21358" lon="13.913245"><ele>338.6</ele><time>2026-05-03T10:40:08.286Z</time></trkpt><trkpt lat="42.2136833" lon="13.913265"><ele>339.40000000000003</ele><time>2026-05-03T10:40:09.286Z</time></trkpt><trkpt lat="42.2137667" lon="13.9132783"><ele>340.20000000000005</ele><time>2026-05-03T10:40:10.286Z</time></trkpt><trkpt lat="42.2138567" lon="13.9132767"><ele>341.0</ele><time>2026-05-03T10:40:11.286Z</time></trkpt><trkpt lat="42.2139367" lon="13.9132733"><ele>341.4</ele><time>2026-05-03T10:40:12.286Z</time></trkpt><trkpt lat="42.2140167" lon="13.913275"><ele>341.8</ele><time>2026-05-03T10:40:13.286Z</time></trkpt><trkpt lat="42.21412" lon="13.9132867"><ele>342.2</ele><time>2026-05-03T10:40:14.286Z</time></trkpt><trkpt lat="42.2142117" lon="13.9132783"><ele>342.59999999999997</ele><time>2026-05-03T10:40:15.286Z</time></trkpt><trkpt lat="42.2143167" lon="13.9132633"><ele>343.0</ele><time>2026-05-03T10:40:16.286Z</time></trkpt><trkpt lat="42.2144067" lon="13.913235"><ele>343.0</ele><time>2026-05-03T10:40:17.286Z</time></trkpt><trkpt lat="42.2144967" lon="13.9131933"><ele>343.0</ele><time>2026-05-03T10:40:18.286Z</time></trkpt><trkpt lat="42.2145767" lon="13.91315"><ele>343.0</ele><time>2026-05-03T10:40:19.286Z</time></trkpt><trkpt lat="42.2146483" lon="13.9131133"><ele>343.0</ele><time>2026-05-03T10:40:20.286Z</time></trkpt><trkpt lat="42.2147267" lon="13.9130817"><ele>343.0</ele><time>2026-05-03T10:40:21.286Z</time></trkpt><trkpt lat="42.21481" lon="13.9130617"><ele>343.0</ele><time>2026-05-03T10:40:22.287Z</time></trkpt><trkpt lat="42.2148917" lon="13.9130567"><ele>342.2</ele><time>2026-05-03T10:40:23.287Z</time></trkpt><trkpt lat="42.2149867" lon="13.91309"><ele>341.4</ele><time>2026-05-03T10:40:24.286Z</time></trkpt><trkpt lat="42.2150817" lon="13.9131533"><ele>340.59999999999997</ele><time>2026-05-03T10:40:25.287Z</time></trkpt><trkpt lat="42.2151783" lon="13.9132367"><ele>339.79999999999995</ele><time>2026-05-03T10:40:26.287Z</time></trkpt><trkpt lat="42.2152733" lon="13.9133317"><ele>339.0</ele><time>2026-05-03T10:40:27.286Z</time></trkpt><trkpt lat="42.2153617" lon="13.9134067"><ele>338.6</ele><time>2026-05-03T10:40:28.286Z</time></trkpt><trkpt lat="42.2154567" lon="13.91348"><ele>338.2</ele><time>2026-05-03T10:40:29.286Z</time></trkpt><trkpt lat="42.2155467" lon="13.9135483"><ele>337.8</ele><time>2026-05-03T10:40:30.286Z</time></trkpt><trkpt lat="42.21564" lon="13.9136117"><ele>337.40000000000003</ele><time>2026-05-03T10:40:31.286Z</time></trkpt><trkpt lat="42.2157317" lon="13.9137"><ele>337.0</ele><time>2026-05-03T10:40:32.286Z</time></trkpt><trkpt lat="42.215835" lon="13.9137567"><ele>336.66666666666663</ele><time>2026-05-03T10:40:33.286Z</time></trkpt><trkpt lat="42.2159283" lon="13.9138083"><ele>336.3333333333333</ele><time>2026-05-03T10:40:34.286Z</time></trkpt><trkpt lat="42.2160117" lon="13.913875"><ele>336.0</ele><time>2026-05-03T10:40:35.286Z</time></trkpt><trkpt lat="42.2160833" lon="13.913935"><ele>335.6666666666667</ele><time>2026-05-03T10:40:36.286Z</time></trkpt><trkpt lat="42.21614" lon="13.913995"><ele>335.33333333333337</ele><time>2026-05-03T10:40:37.286Z</time></trkpt><trkpt lat="42.216185" lon="13.9140983"><ele>335.0</ele><time>2026-05-03T10:40:39.286Z</time></trkpt><trkpt lat="42.2161567" lon="13.91421"><ele>334.0</ele><time>2026-05-03T10:40:41.286Z</time></trkpt><trkpt lat="42.216075" lon="13.9143567"><ele>333.0</ele><time>2026-05-03T10:40:43.286Z</time></trkpt><trkpt lat="42.2160167" lon="13.91443"><ele>332.0</ele><time>2026-05-03T10:40:44.286Z</time></trkpt><trkpt lat="42.2159417" lon="13.9144867"><ele>331.0</ele><time>2026-05-03T10:40:45.287Z</time></trkpt><trkpt lat="42.2158617" lon="13.91455"><ele>330.0</ele><time>2026-05-03T10:40:46.286Z</time></trkpt><trkpt lat="42.215775" lon="13.914605"><ele>330.0</ele><time>2026-05-03T10:40:47.287Z</time></trkpt><trkpt lat="42.215695" lon="13.9146667"><ele>330.0</ele><time>2026-05-03T10:40:48.286Z</time></trkpt><trkpt lat="42.2156233" lon="13.9147283"><ele>330.0</ele><time>2026-05-03T10:40:49.286Z</time></trkpt><trkpt lat="42.2155517" lon="13.9147917"><ele>330.0</ele><time>2026-05-03T10:40:50.286Z</time></trkpt><trkpt lat="42.21547" lon="13.9148417"><ele>330.0</ele><time>2026-05-03T10:40:51.286Z</time></trkpt><trkpt lat="42.215385" lon="13.9148867"><ele>330.0</ele><time>2026-05-03T10:40:52.286Z</time></trkpt><trkpt lat="42.2152867" lon="13.9149167"><ele>330.3333333333333</ele><time>2026-05-03T10:40:53.286Z</time></trkpt><trkpt lat="42.215205" lon="13.9149483"><ele>330.6666666666667</ele><time>2026-05-03T10:40:54.286Z</time></trkpt><trkpt lat="42.2151367" lon="13.914985"><ele>331.0</ele><time>2026-05-03T10:40:55.286Z</time></trkpt><trkpt lat="42.2150417" lon="13.9150833"><ele>331.33333333333337</ele><time>2026-05-03T10:40:57.286Z</time></trkpt><trkpt lat="42.214995" lon="13.9151433"><ele>331.6666666666667</ele><time>2026-05-03T10:40:58.286Z</time></trkpt><trkpt lat="42.2149233" lon="13.9152083"><ele>332.0</ele><time>2026-05-03T10:40:59.286Z</time></trkpt><trkpt lat="42.2148433" lon="13.9152833"><ele>330.25</ele><time>2026-05-03T10:41:00.286Z</time></trkpt><trkpt lat="42.214745" lon="13.91536"><ele>328.5</ele><time>2026-05-03T10:41:01.287Z</time></trkpt><trkpt lat="42.2146433" lon="13.91544"><ele>326.75</ele><time>2026-05-03T10:41:02.286Z</time></trkpt><trkpt lat="42.2145433" lon="13.9155217"><ele>325.0</ele><time>2026-05-03T10:41:03.286Z</time></trkpt><trkpt lat="42.2144467" lon="13.9156067"><ele>325.0</ele><time>2026-05-03T10:41:04.287Z</time></trkpt><trkpt lat="42.21435" lon="13.915715"><ele>325.0</ele><time>2026-05-03T10:41:05.286Z</time></trkpt><trkpt lat="42.2142483" lon="13.915815"><ele>325.0</ele><time>2026-05-03T10:41:06.286Z</time></trkpt><trkpt lat="42.2141483" lon="13.9159267"><ele>325.0</ele><time>2026-05-03T10:41:07.286Z</time></trkpt><trkpt lat="42.2140517" lon="13.916035"><ele>323.5</ele><time>2026-05-03T10:41:08.286Z</time></trkpt><trkpt lat="42.2139567" lon="13.9161317"><ele>322.0</ele><time>2026-05-03T10:41:09.286Z</time></trkpt><trkpt lat="42.213845" lon="13.9162183"><ele>320.5</ele><time>2026-05-03T10:41:10.286Z</time></trkpt><trkpt lat="42.2137433" lon="13.9162967"><ele>319.0</ele><time>2026-05-03T10:41:11.287Z</time></trkpt><trkpt lat="42.2136467" lon="13.9163583"><ele>319.0</ele><time>2026-05-03T10:41:12.286Z</time></trkpt><trkpt lat="42.2135717" lon="13.9164233"><ele>319.0</ele><time>2026-05-03T10:41:13.286Z</time></trkpt><trkpt lat="42.2135133" lon="13.9164983"><ele>319.0</ele><time>2026-05-03T10:41:14.286Z</time></trkpt><trkpt lat="42.2134683" lon="13.916595"><ele>319.0</ele><time>2026-05-03T10:41:15.286Z</time></trkpt><trkpt lat="42.2134433" lon="13.9167117"><ele>319.0</ele><time>2026-05-03T10:41:16.286Z</time></trkpt><trkpt lat="42.21344" lon="13.9168333"><ele>319.0</ele><time>2026-05-03T10:41:17.286Z</time></trkpt><trkpt lat="42.2134533" lon="13.9169733"><ele>319.5</ele><time>2026-05-03T10:41:18.286Z</time></trkpt><trkpt lat="42.213465" lon="13.9171183"><ele>320.0</ele><time>2026-05-03T10:41:19.287Z</time></trkpt><trkpt lat="42.213475" lon="13.9172817"><ele>320.5</ele><time>2026-05-03T10:41:20.286Z</time></trkpt><trkpt lat="42.2134833" lon="13.9174533"><ele>321.0</ele><time>2026-05-03T10:41:21.287Z</time></trkpt><trkpt lat="42.2134867" lon="13.9176233"><ele>321.6666666666667</ele><time>2026-05-03T10:41:22.286Z</time></trkpt><trkpt lat="42.21348" lon="13.917765"><ele>322.3333333333333</ele><time>2026-05-03T10:41:23.286Z</time></trkpt><trkpt lat="42.2134683" lon="13.9178817"><ele>323.0</ele><time>2026-05-03T10:41:24.287Z</time></trkpt><trkpt lat="42.2134467" lon="13.917965"><ele>323.66666666666663</ele><time>2026-05-03T10:41:25.286Z</time></trkpt><trkpt lat="42.2134433" lon="13.91808"><ele>324.3333333333333</ele><time>2026-05-03T10:41:27.286Z</time></trkpt><trkpt lat="42.2135167" lon="13.918155"><ele>325.0</ele><time>2026-05-03T10:41:29.286Z</time></trkpt><trkpt lat="42.2135883" lon="13.9181783"><ele>325.0</ele><time>2026-05-03T10:41:30.286Z</time></trkpt><trkpt lat="42.21366" lon="13.91821"><ele>325.0</ele><time>2026-05-03T10:41:31.286Z</time></trkpt><trkpt lat="42.213725" lon="13.9182633"><ele>325.0</ele><time>2026-05-03T10:41:32.286Z</time></trkpt><trkpt lat="42.2137917" lon="13.918345"><ele>325.0</ele><time>2026-05-03T10:41:33.286Z</time></trkpt><trkpt lat="42.21387" lon="13.918455"><ele>325.0</ele><time>2026-05-03T10:41:34.286Z</time></trkpt><trkpt lat="42.2139533" lon="13.9185683"><ele>324.8</ele><time>2026-05-03T10:41:35.287Z</time></trkpt><trkpt lat="42.2140267" lon="13.9186717"><ele>324.6</ele><time>2026-05-03T10:41:36.286Z</time></trkpt><trkpt lat="42.2140967" lon="13.918775"><ele>324.4</ele><time>2026-05-03T10:41:37.286Z</time></trkpt><trkpt lat="42.214175" lon="13.91888"><ele>324.2</ele><time>2026-05-03T10:41:38.286Z</time></trkpt><trkpt lat="42.2142683" lon="13.9189883"><ele>324.0</ele><time>2026-05-03T10:41:39.286Z</time></trkpt><trkpt lat="42.2143717" lon="13.91909"><ele>324.0</ele><time>2026-05-03T10:41:40.286Z</time></trkpt><trkpt lat="42.2144833" lon="13.9191933"><ele>324.0</ele><time>2026-05-03T10:41:41.286Z</time></trkpt><trkpt lat="42.2146017" lon="13.9193"><ele>324.0</ele><time>2026-05-03T10:41:42.286Z</time></trkpt><trkpt lat="42.21472" lon="13.9193983"><ele>324.0</ele><time>2026-05-03T10:41:43.287Z</time></trkpt><trkpt lat="42.21485" lon="13.9194933"><ele>323.75</ele><time>2026-05-03T10:41:44.286Z</time></trkpt><trkpt lat="42.2149767" lon="13.9195967"><ele>323.5</ele><time>2026-05-03T10:41:45.286Z</time></trkpt><trkpt lat="42.2150967" lon="13.919705"><ele>323.25</ele><time>2026-05-03T10:41:46.286Z</time></trkpt><trkpt lat="42.2152183" lon="13.919825"><ele>323.0</ele><time>2026-05-03T10:41:47.287Z</time></trkpt><trkpt lat="42.215345" lon="13.9199467"><ele>323.0</ele><time>2026-05-03T10:41:48.286Z</time></trkpt><trkpt lat="42.215475" lon="13.920065"><ele>323.0</ele><time>2026-05-03T10:41:49.286Z</time></trkpt><trkpt lat="42.215595" lon="13.9201833"><ele>323.0</ele><time>2026-05-03T10:41:50.286Z</time></trkpt><trkpt lat="42.215705" lon="13.9202917"><ele>323.0</ele><time>2026-05-03T10:41:51.286Z</time></trkpt><trkpt lat="42.2158017" lon="13.9204017"><ele>322.25</ele><time>2026-05-03T10:41:52.286Z</time></trkpt><trkpt lat="42.2158917" lon="13.9205"><ele>321.5</ele><time>2026-05-03T10:41:53.286Z</time></trkpt><trkpt lat="42.21598" lon="13.9205967"><ele>320.75</ele><time>2026-05-03T10:41:54.286Z</time></trkpt><trkpt lat="42.2160733" lon="13.9206917"><ele>320.0</ele><time>2026-05-03T10:41:55.286Z</time></trkpt><trkpt lat="42.21616" lon="13.9208033"><ele>319.75</ele><time>2026-05-03T10:41:56.286Z</time></trkpt><trkpt lat="42.2162483" lon="13.9209317"><ele>319.5</ele><time>2026-05-03T10:41:57.286Z</time></trkpt><trkpt lat="42.21634" lon="13.9210667"><ele>319.25</ele><time>2026-05-03T10:41:58.287Z</time></trkpt><trkpt lat="42.21643" lon="13.9211983"><ele>319.0</ele><time>2026-05-03T10:41:59.286Z</time></trkpt><trkpt lat="42.2165183" lon="13.9213267"><ele>319.0</ele><time>2026-05-03T10:42:00.286Z</time></trkpt><trkpt lat="42.2166033" lon="13.9214417"><ele>319.0</ele><time>2026-05-03T10:42:01.286Z</time></trkpt><trkpt lat="42.2166917" lon="13.9215433"><ele>319.0</ele><time>2026-05-03T10:42:02.286Z</time></trkpt><trkpt lat="42.2167717" lon="13.9216367"><ele>319.0</ele><time>2026-05-03T10:42:03.286Z</time></trkpt><trkpt lat="42.2168433" lon="13.9217283"><ele>319.0</ele><time>2026-05-03T10:42:04.287Z</time></trkpt><trkpt lat="42.2169167" lon="13.921825"><ele>318.59999999999997</ele><time>2026-05-03T10:42:05.286Z</time></trkpt><trkpt lat="42.2169833" lon="13.921925"><ele>318.2</ele><time>2026-05-03T10:42:06.286Z</time></trkpt><trkpt lat="42.2170367" lon="13.9220217"><ele>317.79999999999995</ele><time>2026-05-03T10:42:07.286Z</time></trkpt><trkpt lat="42.217075" lon="13.9221083"><ele>317.4</ele><time>2026-05-03T10:42:08.286Z</time></trkpt><trkpt lat="42.2171267" lon="13.9222517"><ele>317.0</ele><time>2026-05-03T10:42:10.286Z</time></trkpt><trkpt lat="42.2171517" lon="13.9223433"><ele>317.0</ele><time>2026-05-03T10:42:11.287Z</time></trkpt><trkpt lat="42.21718" lon="13.9224433"><ele>317.0</ele><time>2026-05-03T10:42:12.286Z</time></trkpt><trkpt lat="42.2172133" lon="13.9225467"><ele>317.0</ele><time>2026-05-03T10:42:13.286Z</time></trkpt><trkpt lat="42.2172467" lon="13.9226567"><ele>317.0</ele><time>2026-05-03T10:42:14.286Z</time></trkpt><trkpt lat="42.2172783" lon="13.9227583"><ele>317.0</ele><time>2026-05-03T10:42:15.286Z</time></trkpt><trkpt lat="42.2173017" lon="13.922855"><ele>317.0</ele><time>2026-05-03T10:42:16.286Z</time></trkpt><trkpt lat="42.2173333" lon="13.9229383"><ele>316.0</ele><time>2026-05-03T10:42:17.286Z</time></trkpt><trkpt lat="42.2173783" lon="13.9230683"><ele>315.0</ele><time>2026-05-03T10:42:19.286Z</time></trkpt><trkpt lat="42.217415" lon="13.923155"><ele>314.0</ele><time>2026-05-03T10:42:21.286Z</time></trkpt><trkpt lat="42.21746" lon="13.9232383"><ele>313.0</ele><time>2026-05-03T10:42:24.286Z</time></trkpt><trkpt lat="42.2175233" lon="13.9232483"><ele>312.0</ele><time>2026-05-03T10:42:48.286Z</time></trkpt><trkpt lat="42.2176183" lon="13.92335"><ele>311.0</ele><time>2026-05-03T10:42:50.286Z</time></trkpt><trkpt lat="42.2177" lon="13.923415"><ele>310.25</ele><time>2026-05-03T10:42:51.287Z</time></trkpt><trkpt lat="42.2177917" lon="13.9234833"><ele>309.5</ele><time>2026-05-03T10:42:52.286Z</time></trkpt><trkpt lat="42.217895" lon="13.923555"><ele>308.75</ele><time>2026-05-03T10:42:53.286Z</time></trkpt><trkpt lat="42.2180067" lon="13.9236333"><ele>308.0</ele><time>2026-05-03T10:42:54.286Z</time></trkpt><trkpt lat="42.218115" lon="13.9237117"><ele>308.0</ele><time>2026-05-03T10:42:55.286Z</time></trkpt><trkpt lat="42.2182283" lon="13.92382"><ele>308.0</ele><time>2026-05-03T10:42:56.286Z</time></trkpt><trkpt lat="42.2183533" lon="13.9239367"><ele>308.0</ele><time>2026-05-03T10:42:57.286Z</time></trkpt><trkpt lat="42.2184883" lon="13.9240433"><ele>308.0</ele><time>2026-05-03T10:42:58.286Z</time></trkpt><trkpt lat="42.2186083" lon="13.924135"><ele>308.0</ele><time>2026-05-03T10:42:59.287Z</time></trkpt><trkpt lat="42.2187067" lon="13.9242083"><ele>308.0</ele><time>2026-05-03T10:43:00.286Z</time></trkpt><trkpt lat="42.2187917" lon="13.92427"><ele>308.0</ele><time>2026-05-03T10:43:01.286Z</time></trkpt><trkpt lat="42.21888" lon="13.9243133"><ele>308.0</ele><time>2026-05-03T10:43:02.286Z</time></trkpt><trkpt lat="42.2189633" lon="13.924355"><ele>308.0</ele><time>2026-05-03T10:43:03.286Z</time></trkpt><trkpt lat="42.2190467" lon="13.9243983"><ele>307.0</ele><time>2026-05-03T10:43:04.286Z</time></trkpt><trkpt lat="42.2191217" lon="13.9244367"><ele>306.0</ele><time>2026-05-03T10:43:05.286Z</time></trkpt><trkpt lat="42.219195" lon="13.92448"><ele>305.0</ele><time>2026-05-03T10:43:06.286Z</time></trkpt><trkpt lat="42.21926" lon="13.9245267"><ele>304.0</ele><time>2026-05-03T10:43:07.286Z</time></trkpt><trkpt lat="42.2193217" lon="13.9245833"><ele>303.0</ele><time>2026-05-03T10:43:08.286Z</time></trkpt><trkpt lat="42.219385" lon="13.9246567"><ele>302.0</ele><time>2026-05-03T10:43:09.287Z</time></trkpt><trkpt lat="42.219445" lon="13.9247367"><ele>302.0</ele><time>2026-05-03T10:43:10.286Z</time></trkpt><trkpt lat="42.2194933" lon="13.924815"><ele>302.0</ele><time>2026-05-03T10:43:11.286Z</time></trkpt><trkpt lat="42.219545" lon="13.924895"><ele>302.0</ele><time>2026-05-03T10:43:12.286Z</time></trkpt><trkpt lat="42.2196033" lon="13.92497"><ele>302.0</ele><time>2026-05-03T10:43:13.286Z</time></trkpt><trkpt lat="42.2196617" lon="13.9250433"><ele>302.0</ele><time>2026-05-03T10:43:14.286Z</time></trkpt><trkpt lat="42.2197183" lon="13.9251317"><ele>302.0</ele><time>2026-05-03T10:43:15.286Z</time></trkpt><trkpt lat="42.2197767" lon="13.925215"><ele>301.33333333333337</ele><time>2026-05-03T10:43:16.286Z</time></trkpt><trkpt lat="42.219835" lon="13.9252983"><ele>300.6666666666667</ele><time>2026-05-03T10:43:17.286Z</time></trkpt><trkpt lat="42.2199033" lon="13.92537"><ele>300.0</ele><time>2026-05-03T10:43:18.286Z</time></trkpt><trkpt lat="42.2199683" lon="13.9254417"><ele>299.3333333333333</ele><time>2026-05-03T10:43:19.286Z</time></trkpt><trkpt lat="42.2200417" lon="13.9255083"><ele>298.66666666666663</ele><time>2026-05-03T10:43:20.286Z</time></trkpt><trkpt lat="42.2201117" lon="13.925555"><ele>298.0</ele><time>2026-05-03T10:43:21.286Z</time></trkpt><trkpt lat="42.22018" lon="13.925585"><ele>298.0</ele><time>2026-05-03T10:43:22.286Z</time></trkpt><trkpt lat="42.22026" lon="13.9256033"><ele>298.0</ele><time>2026-05-03T10:43:23.286Z</time></trkpt><trkpt lat="42.2203333" lon="13.9256117"><ele>298.0</ele><time>2026-05-03T10:43:24.286Z</time></trkpt><trkpt lat="42.2204017" lon="13.9256183"><ele>298.0</ele><time>2026-05-03T10:43:25.286Z</time></trkpt><trkpt lat="42.2205167" lon="13.9256317"><ele>298.0</ele><time>2026-05-03T10:43:27.286Z</time></trkpt><trkpt lat="42.220635" lon="13.9256117"><ele>297.1428571428571</ele><time>2026-05-03T10:43:29.286Z</time></trkpt><trkpt lat="42.2207017" lon="13.9255817"><ele>296.2857142857143</ele><time>2026-05-03T10:43:30.286Z</time></trkpt><trkpt lat="42.2207833" lon="13.925555"><ele>295.42857142857144</ele><time>2026-05-03T10:43:31.286Z</time></trkpt><trkpt lat="42.2208567" lon="13.9255317"><ele>294.57142857142856</ele><time>2026-05-03T10:43:32.287Z</time></trkpt><trkpt lat="42.2209233" lon="13.9255183"><ele>293.7142857142857</ele><time>2026-05-03T10:43:33.287Z</time></trkpt><trkpt lat="42.2209917" lon="13.9255183"><ele>292.85714285714283</ele><time>2026-05-03T10:43:34.286Z</time></trkpt><trkpt lat="42.22106" lon="13.9255233"><ele>292.0</ele><time>2026-05-03T10:43:35.286Z</time></trkpt><trkpt lat="42.2211267" lon="13.9255267"><ele>292.0</ele><time>2026-05-03T10:43:36.286Z</time></trkpt><trkpt lat="42.2211967" lon="13.9255317"><ele>292.0</ele><time>2026-05-03T10:43:37.286Z</time></trkpt><trkpt lat="42.221265" lon="13.9255333"><ele>292.0</ele><time>2026-05-03T10:43:38.286Z</time></trkpt><trkpt lat="42.22133" lon="13.9255333"><ele>292.0</ele><time>2026-05-03T10:43:39.286Z</time></trkpt><trkpt lat="42.2214567" lon="13.9255317"><ele>292.0</ele><time>2026-05-03T10:43:41.286Z</time></trkpt><trkpt lat="42.2215233" lon="13.92554"><ele>292.0</ele><time>2026-05-03T10:43:42.286Z</time></trkpt><trkpt lat="42.2215867" lon="13.9255467"><ele>290.3333333333333</ele><time>2026-05-03T10:43:43.286Z</time></trkpt><trkpt lat="42.2216533" lon="13.9255533"><ele>288.66666666666663</ele><time>2026-05-03T10:43:44.287Z</time></trkpt><trkpt lat="42.2217717" lon="13.92557"><ele>287.0</ele><time>2026-05-03T10:43:46.286Z</time></trkpt><trkpt lat="42.2218383" lon="13.9255833"><ele>285.3333333333333</ele><time>2026-05-03T10:43:47.286Z</time></trkpt><trkpt lat="42.2219083" lon="13.9255983"><ele>283.6666666666667</ele><time>2026-05-03T10:43:48.287Z</time></trkpt><trkpt lat="42.2219767" lon="13.9256217"><ele>282.0</ele><time>2026-05-03T10:43:49.286Z</time></trkpt><trkpt lat="42.22208" lon="13.92567"><ele>282.0</ele><time>2026-05-03T10:43:51.286Z</time></trkpt><trkpt lat="42.2221583" lon="13.925705"><ele>282.0</ele><time>2026-05-03T10:44:01.286Z</time></trkpt><trkpt lat="42.222245" lon="13.925735"><ele>282.0</ele><time>2026-05-03T10:44:03.286Z</time></trkpt><trkpt lat="42.2223467" lon="13.9257783"><ele>282.0</ele><time>2026-05-03T10:44:05.286Z</time></trkpt><trkpt lat="42.2224533" lon="13.92581"><ele>282.0</ele><time>2026-05-03T10:44:07.286Z</time></trkpt><trkpt lat="42.22256" lon="13.925825"><ele>279.2</ele><time>2026-05-03T10:44:09.286Z</time></trkpt><trkpt lat="42.2226717" lon="13.9258083"><ele>276.4</ele><time>2026-05-03T10:44:11.286Z</time></trkpt><trkpt lat="42.2227367" lon="13.92581"><ele>273.6</ele><time>2026-05-03T10:44:12.286Z</time></trkpt><trkpt lat="42.2228333" lon="13.92582"><ele>270.8</ele><time>2026-05-03T10:44:14.286Z</time></trkpt><trkpt lat="42.2229417" lon="13.9258983"><ele>268.0</ele><time>2026-05-03T10:44:22.286Z</time></trkpt><trkpt lat="42.222965" lon="13.92601"><ele>266.16666666666663</ele><time>2026-05-03T10:44:25.286Z</time></trkpt><trkpt lat="42.2229483" lon="13.9261083"><ele>264.3333333333333</ele><time>2026-05-03T10:44:27.286Z</time></trkpt><trkpt lat="42.2229083" lon="13.92621"><ele>262.5</ele><time>2026-05-03T10:44:29.286Z</time></trkpt><trkpt lat="42.2228767" lon="13.926315"><ele>260.6666666666667</ele><time>2026-05-03T10:44:31.286Z</time></trkpt><trkpt lat="42.2228417" lon="13.926425"><ele>258.83333333333337</ele><time>2026-05-03T10:44:33.286Z</time></trkpt><trkpt lat="42.2228" lon="13.9265417"><ele>257.0</ele><time>2026-05-03T10:44:35.286Z</time></trkpt><trkpt lat="42.2227533" lon="13.9266833"><ele>255.0</ele><time>2026-05-03T10:44:37.286Z</time></trkpt><trkpt lat="42.2227133" lon="13.9268233"><ele>253.0</ele><time>2026-05-03T10:44:39.287Z</time></trkpt><trkpt lat="42.2226583" lon="13.9269633"><ele>251.0</ele><time>2026-05-03T10:44:41.286Z</time></trkpt><trkpt lat="42.222595" lon="13.9270983"><ele>249.0</ele><time>2026-05-03T10:44:43.286Z</time></trkpt><trkpt lat="42.2225717" lon="13.9271783"><ele>247.0</ele><time>2026-05-03T10:44:44.286Z</time></trkpt><trkpt lat="42.2225483" lon="13.92726"><ele>247.0</ele><time>2026-05-03T10:44:45.286Z</time></trkpt><trkpt lat="42.2225217" lon="13.927345"><ele>247.0</ele><time>2026-05-03T10:44:46.286Z</time></trkpt><trkpt lat="42.2224933" lon="13.92743"><ele>247.0</ele><time>2026-05-03T10:44:47.286Z</time></trkpt><trkpt lat="42.2224583" lon="13.9275217"><ele>247.0</ele><time>2026-05-03T10:44:48.286Z</time></trkpt><trkpt lat="42.2224283" lon="13.9276117"><ele>247.0</ele><time>2026-05-03T10:44:49.287Z</time></trkpt><trkpt lat="42.2224" lon="13.927695"><ele>247.0</ele><time>2026-05-03T10:44:50.286Z</time></trkpt><trkpt lat="42.2223717" lon="13.9277917"><ele>247.0</ele><time>2026-05-03T10:44:51.286Z</time></trkpt><trkpt lat="42.2223367" lon="13.92789"><ele>246.99999999999997</ele><time>2026-05-03T10:44:52.286Z</time></trkpt><trkpt lat="42.2222967" lon="13.9280017"><ele>247.0</ele><time>2026-05-03T10:44:53.287Z</time></trkpt><trkpt lat="42.22226" lon="13.928105"><ele>247.0</ele><time>2026-05-03T10:44:54.286Z</time></trkpt><trkpt lat="42.22222" lon="13.92821"><ele>247.0</ele><time>2026-05-03T10:44:55.286Z</time></trkpt><trkpt lat="42.222185" lon="13.9283183"><ele>246.99999999999997</ele><time>2026-05-03T10:44:56.286Z</time></trkpt><trkpt lat="42.222145" lon="13.9284183"><ele>247.0</ele><time>2026-05-03T10:44:57.286Z</time></trkpt><trkpt lat="42.2220933" lon="13.9285267"><ele>247.0</ele><time>2026-05-03T10:44:58.286Z</time></trkpt><trkpt lat="42.2220417" lon="13.92865"><ele>247.0</ele><time>2026-05-03T10:44:59.286Z</time></trkpt><trkpt lat="42.2219817" lon="13.9287883"><ele>247.0</ele><time>2026-05-03T10:45:00.286Z</time></trkpt><trkpt lat="42.22191" lon="13.928965"><ele>247.0</ele><time>2026-05-03T10:45:01.286Z</time></trkpt><trkpt lat="42.2218217" lon="13.9291717"><ele>246.33333333333331</ele><time>2026-05-03T10:45:02.286Z</time></trkpt><trkpt lat="42.22173" lon="13.9293883"><ele>245.66666666666669</ele><time>2026-05-03T10:45:03.286Z</time></trkpt><trkpt lat="42.2216333" lon="13.9296267"><ele>245.0</ele><time>2026-05-03T10:45:04.287Z</time></trkpt><trkpt lat="42.2215317" lon="13.929875"><ele>250.66666666666669</ele><time>2026-05-03T10:45:05.287Z</time></trkpt><trkpt lat="42.2214233" lon="13.930105"><ele>256.3333333333333</ele><time>2026-05-03T10:45:06.286Z</time></trkpt><trkpt lat="42.2213117" lon="13.9303167"><ele>262.0</ele><time>2026-05-03T10:45:07.287Z</time></trkpt><trkpt lat="42.221195" lon="13.9304883"><ele>262.0</ele><time>2026-05-03T10:45:08.286Z</time></trkpt><trkpt lat="42.2210667" lon="13.9306367"><ele>262.0</ele><time>2026-05-03T10:45:09.286Z</time></trkpt><trkpt lat="42.2209517" lon="13.9307433"><ele>262.0</ele><time>2026-05-03T10:45:10.286Z</time></trkpt><trkpt lat="42.2208467" lon="13.93081"><ele>262.0</ele><time>2026-05-03T10:45:11.286Z</time></trkpt><trkpt lat="42.220755" lon="13.93085"><ele>262.0</ele><time>2026-05-03T10:45:12.286Z</time></trkpt><trkpt lat="42.2206767" lon="13.930865"><ele>262.0</ele><time>2026-05-03T10:45:13.286Z</time></trkpt><trkpt lat="42.2206067" lon="13.930885"><ele>262.0</ele><time>2026-05-03T10:45:14.286Z</time></trkpt><trkpt lat="42.2205367" lon="13.9309917"><ele>262.0</ele><time>2026-05-03T10:45:16.286Z</time></trkpt><trkpt lat="42.2205633" lon="13.9311617"><ele>262.0</ele><time>2026-05-03T10:45:18.286Z</time></trkpt><trkpt lat="42.2206017" lon="13.9312717"><ele>261.0</ele><time>2026-05-03T10:45:19.286Z</time></trkpt><trkpt lat="42.2206417" lon="13.931405"><ele>260.0</ele><time>2026-05-03T10:45:20.287Z</time></trkpt><trkpt lat="42.2206783" lon="13.9315467"><ele>259.0</ele><time>2026-05-03T10:45:21.286Z</time></trkpt><trkpt lat="42.22071" lon="13.9316817"><ele>258.0</ele><time>2026-05-03T10:45:22.286Z</time></trkpt><trkpt lat="42.2207417" lon="13.9318217"><ele>257.0</ele><time>2026-05-03T10:45:23.286Z</time></trkpt><trkpt lat="42.220775" lon="13.9319633"><ele>255.39999999999998</ele><time>2026-05-03T10:45:24.286Z</time></trkpt><trkpt lat="42.220805" lon="13.9321017"><ele>253.79999999999998</ele><time>2026-05-03T10:45:25.286Z</time></trkpt><trkpt lat="42.2208433" lon="13.9322383"><ele>252.2</ele><time>2026-05-03T10:45:26.286Z</time></trkpt><trkpt lat="42.2208867" lon="13.93237"><ele>250.6</ele><time>2026-05-03T10:45:27.286Z</time></trkpt><trkpt lat="42.2209383" lon="13.932485"><ele>249.0</ele><time>2026-05-03T10:45:28.286Z</time></trkpt><trkpt lat="42.2210083" lon="13.9325917"><ele>246.75</ele><time>2026-05-03T10:45:29.286Z</time></trkpt><trkpt lat="42.2210833" lon="13.93269"><ele>244.5</ele><time>2026-05-03T10:45:30.286Z</time></trkpt><trkpt lat="42.2211633" lon="13.9327883"><ele>242.25</ele><time>2026-05-03T10:45:31.286Z</time></trkpt><trkpt lat="42.2212467" lon="13.9328967"><ele>240.0</ele><time>2026-05-03T10:45:32.286Z</time></trkpt><trkpt lat="42.221335" lon="13.9330167"><ele>240.0</ele><time>2026-05-03T10:45:33.286Z</time></trkpt><trkpt lat="42.22142" lon="13.9331417"><ele>240.0</ele><time>2026-05-03T10:45:34.286Z</time></trkpt><trkpt lat="42.2215067" lon="13.93327"><ele>240.0</ele><time>2026-05-03T10:45:35.286Z</time></trkpt><trkpt lat="42.2215867" lon="13.9333933"><ele>240.0</ele><time>2026-05-03T10:45:36.286Z</time></trkpt><trkpt lat="42.22166" lon="13.93351"><ele>237.6</ele><time>2026-05-03T10:45:37.286Z</time></trkpt><trkpt lat="42.2217317" lon="13.9336233"><ele>235.2</ele><time>2026-05-03T10:45:38.286Z</time></trkpt><trkpt lat="42.221825" lon="13.9337167"><ele>232.8</ele><time>2026-05-03T10:45:39.286Z</time></trkpt><trkpt lat="42.221925" lon="13.9337667"><ele>230.4</ele><time>2026-05-03T10:45:40.287Z</time></trkpt><trkpt lat="42.2220267" lon="13.933795"><ele>228.0</ele><time>2026-05-03T10:45:41.286Z</time></trkpt><trkpt lat="42.222125" lon="13.9338167"><ele>228.0</ele><time>2026-05-03T10:45:42.286Z</time></trkpt><trkpt lat="42.2222117" lon="13.9338683"><ele>228.0</ele><time>2026-05-03T10:45:43.287Z</time></trkpt><trkpt lat="42.2222733" lon="13.93396"><ele>228.0</ele><time>2026-05-03T10:45:44.286Z</time></trkpt><trkpt lat="42.2223117" lon="13.9340783"><ele>228.0</ele><time>2026-05-03T10:45:45.287Z</time></trkpt><trkpt lat="42.2223317" lon="13.9342133"><ele>228.0</ele><time>2026-05-03T10:45:46.286Z</time></trkpt><trkpt lat="42.2223433" lon="13.9343517"><ele>225.2</ele><time>2026-05-03T10:45:47.286Z</time></trkpt><trkpt lat="42.2223583" lon="13.9344933"><ele>222.4</ele><time>2026-05-03T10:45:48.286Z</time></trkpt><trkpt lat="42.22237" lon="13.9346317"><ele>219.59999999999997</ele><time>2026-05-03T10:45:49.287Z</time></trkpt><trkpt lat="42.222385" lon="13.9347483"><ele>216.79999999999998</ele><time>2026-05-03T10:45:50.286Z</time></trkpt><trkpt lat="42.2224217" lon="13.93485"><ele>214.0</ele><time>2026-05-03T10:45:51.286Z</time></trkpt><trkpt lat="42.2224883" lon="13.9349383"><ele>214.0</ele><time>2026-05-03T10:45:52.287Z</time></trkpt><trkpt lat="42.2225717" lon="13.9350083"><ele>214.0</ele><time>2026-05-03T10:45:53.286Z</time></trkpt><trkpt lat="42.2226833" lon="13.9350633"><ele>214.0</ele><time>2026-05-03T10:45:54.286Z</time></trkpt><trkpt lat="42.2228133" lon="13.9351083"><ele>214.0</ele><time>2026-05-03T10:45:55.286Z</time></trkpt><trkpt lat="42.2229417" lon="13.9351733"><ele>212.5</ele><time>2026-05-03T10:45:56.286Z</time></trkpt><trkpt lat="42.2230567" lon="13.9352633"><ele>211.0</ele><time>2026-05-03T10:45:57.286Z</time></trkpt><trkpt lat="42.2231733" lon="13.9353733"><ele>209.5</ele><time>2026-05-03T10:45:58.287Z</time></trkpt><trkpt lat="42.22328" lon="13.9355"><ele>208.0</ele><time>2026-05-03T10:45:59.286Z</time></trkpt><trkpt lat="42.2233667" lon="13.93563"><ele>207.2</ele><time>2026-05-03T10:46:00.286Z</time></trkpt><trkpt lat="42.2234367" lon="13.9357633"><ele>206.4</ele><time>2026-05-03T10:46:01.286Z</time></trkpt><trkpt lat="42.2234933" lon="13.9358967"><ele>205.6</ele><time>2026-05-03T10:46:02.286Z</time></trkpt><trkpt lat="42.22354" lon="13.9360283"><ele>204.79999999999998</ele><time>2026-05-03T10:46:03.286Z</time></trkpt><trkpt lat="42.2235817" lon="13.9361517"><ele>204.0</ele><time>2026-05-03T10:46:04.286Z</time></trkpt><trkpt lat="42.22363" lon="13.9362617"><ele>203.66666666666666</ele><time>2026-05-03T10:46:05.286Z</time></trkpt><trkpt lat="42.2237067" lon="13.936335"><ele>203.33333333333331</ele><time>2026-05-03T10:46:06.286Z</time></trkpt><trkpt lat="42.223785" lon="13.9363717"><ele>203.0</ele><time>2026-05-03T10:46:07.286Z</time></trkpt><trkpt lat="42.22387" lon="13.936385"><ele>202.66666666666666</ele><time>2026-05-03T10:46:08.286Z</time></trkpt><trkpt lat="42.2239567" lon="13.9363817"><ele>202.33333333333331</ele><time>2026-05-03T10:46:09.286Z</time></trkpt><trkpt lat="42.224045" lon="13.9363967"><ele>202.0</ele><time>2026-05-03T10:46:10.286Z</time></trkpt><trkpt lat="42.224135" lon="13.9364483"><ele>200.66666666666666</ele><time>2026-05-03T10:46:11.286Z</time></trkpt><trkpt lat="42.22425" lon="13.9365167"><ele>199.33333333333331</ele><time>2026-05-03T10:46:12.286Z</time></trkpt><trkpt lat="42.2243933" lon="13.9365917"><ele>198.0</ele><time>2026-05-03T10:46:13.286Z</time></trkpt><trkpt lat="42.22457" lon="13.9366567"><ele>198.0</ele><time>2026-05-03T10:46:14.286Z</time></trkpt><trkpt lat="42.22476" lon="13.9367167"><ele>198.0</ele><time>2026-05-03T10:46:15.286Z</time></trkpt><trkpt lat="42.2249417" lon="13.93678"><ele>198.0</ele><time>2026-05-03T10:46:16.286Z</time></trkpt><trkpt lat="42.2251083" lon="13.9368383"><ele>197.5</ele><time>2026-05-03T10:46:17.287Z</time></trkpt><trkpt lat="42.2252467" lon="13.9368833"><ele>197.0</ele><time>2026-05-03T10:46:18.286Z</time></trkpt><trkpt lat="42.225365" lon="13.936925"><ele>196.5</ele><time>2026-05-03T10:46:19.287Z</time></trkpt><trkpt lat="42.2254633" lon="13.93697"><ele>196.0</ele><time>2026-05-03T10:46:20.286Z</time></trkpt><trkpt lat="42.22554" lon="13.9370217"><ele>195.99999999999997</ele><time>2026-05-03T10:46:21.287Z</time></trkpt><trkpt lat="42.2256093" lon="13.9370847"><ele>196.0</ele><time>2026-05-03T10:46:22.286Z</time></trkpt><trkpt lat="42.2256682" lon="13.9371617"><ele>196.0</ele><time>2026-05-03T10:46:23.286Z</time></trkpt><trkpt lat="42.225713" lon="13.9372506"><ele>196.0</ele><time>2026-05-03T10:46:24.286Z</time></trkpt><trkpt lat="42.2257437" lon="13.9373519"><ele>195.99999999999997</ele><time>2026-05-03T10:46:25.286Z</time></trkpt><trkpt lat="42.2257545" lon="13.9374788"><ele>196.0</ele><time>2026-05-03T10:46:26.286Z</time></trkpt><trkpt lat="42.2257515" lon="13.9376424"><ele>195.66666666666666</ele><time>2026-05-03T10:46:27.286Z</time></trkpt><trkpt lat="42.2257467" lon="13.9378344"><ele>195.33333333333331</ele><time>2026-05-03T10:46:28.286Z</time></trkpt><trkpt lat="42.2257475" lon="13.9380425"><ele>195.0</ele><time>2026-05-03T10:46:29.286Z</time></trkpt><trkpt lat="42.2257529" lon="13.9382811"><ele>195.33333333333331</ele><time>2026-05-03T10:46:30.286Z</time></trkpt><trkpt lat="42.2257529" lon="13.9385535"><ele>195.66666666666666</ele><time>2026-05-03T10:46:31.286Z</time></trkpt><trkpt lat="42.2257452" lon="13.938846"><ele>196.0</ele><time>2026-05-03T10:46:32.286Z</time></trkpt><trkpt lat="42.2257315" lon="13.9391249"><ele>195.66666666666666</ele><time>2026-05-03T10:46:33.286Z</time></trkpt><trkpt lat="42.2257215" lon="13.9393924"><ele>195.33333333333331</ele><time>2026-05-03T10:46:34.286Z</time></trkpt><trkpt lat="42.2257149" lon="13.9396473"><ele>195.0</ele><time>2026-05-03T10:46:35.286Z</time></trkpt><trkpt lat="42.2257128" lon="13.9398831"><ele>194.66666666666669</ele><time>2026-05-03T10:46:36.286Z</time></trkpt><trkpt lat="42.2257088" lon="13.9401082"><ele>194.33333333333334</ele><time>2026-05-03T10:46:37.286Z</time></trkpt><trkpt lat="42.2257097" lon="13.9403311"><ele>194.0</ele><time>2026-05-03T10:46:38.286Z</time></trkpt><trkpt lat="42.2257188" lon="13.9405667"><ele>194.0</ele><time>2026-05-03T10:46:39.286Z</time></trkpt><trkpt lat="42.2257507" lon="13.9408281"><ele>194.0</ele><time>2026-05-03T10:46:40.286Z</time></trkpt><trkpt lat="42.2258081" lon="13.9411036"><ele>194.0</ele><time>2026-05-03T10:46:41.287Z</time></trkpt><trkpt lat="42.225882" lon="13.94137"><ele>193.66666666666669</ele><time>2026-05-03T10:46:42.285Z</time></trkpt><trkpt lat="42.2259554" lon="13.9416169"><ele>193.33333333333331</ele><time>2026-05-03T10:46:43.285Z</time></trkpt><trkpt lat="42.2260254" lon="13.9418529"><ele>193.0</ele><time>2026-05-03T10:46:44.285Z</time></trkpt><trkpt lat="42.2260932" lon="13.9420892"><ele>193.0</ele><time>2026-05-03T10:46:45.285Z</time></trkpt><trkpt lat="42.2261617" lon="13.9423311"><ele>193.0</ele><time>2026-05-03T10:46:46.285Z</time></trkpt><trkpt lat="42.2262349" lon="13.9425766"><ele>193.0</ele><time>2026-05-03T10:46:47.285Z</time></trkpt><trkpt lat="42.2263101" lon="13.9428319"><ele>193.0</ele><time>2026-05-03T10:46:48.285Z</time></trkpt><trkpt lat="42.2263856" lon="13.9430943"><ele>193.0</ele><time>2026-05-03T10:46:49.285Z</time></trkpt><trkpt lat="42.2264588" lon="13.943355"><ele>193.0</ele><time>2026-05-03T10:46:50.286Z</time></trkpt><trkpt lat="42.2265342" lon="13.9436124"><ele>194.0</ele><time>2026-05-03T10:46:51.285Z</time></trkpt><trkpt lat="42.2266103" lon="13.9438677"><ele>195.0</ele><time>2026-05-03T10:46:52.285Z</time></trkpt><trkpt lat="42.2266823" lon="13.9441251"><ele>196.0</ele><time>2026-05-03T10:46:53.285Z</time></trkpt><trkpt lat="42.226754" lon="13.9443831"><ele>196.66666666666666</ele><time>2026-05-03T10:46:54.285Z</time></trkpt><trkpt lat="42.226825" lon="13.9446417"><ele>197.33333333333331</ele><time>2026-05-03T10:46:55.285Z</time></trkpt><trkpt lat="42.2269" lon="13.9448983"><ele>198.0</ele><time>2026-05-03T10:46:56.285Z</time></trkpt><trkpt lat="42.226975" lon="13.945155"><ele>198.0</ele><time>2026-05-03T10:46:57.285Z</time></trkpt><trkpt lat="42.227045" lon="13.94541"><ele>198.0</ele><time>2026-05-03T10:46:58.285Z</time></trkpt><trkpt lat="42.227115" lon="13.9456617"><ele>198.0</ele><time>2026-05-03T10:46:59.285Z</time></trkpt><trkpt lat="42.2271883" lon="13.9459233"><ele>198.66666666666669</ele><time>2026-05-03T10:47:00.285Z</time></trkpt><trkpt lat="42.2272633" lon="13.9461867"><ele>199.33333333333334</ele><time>2026-05-03T10:47:01.285Z</time></trkpt><trkpt lat="42.22734" lon="13.94645"><ele>200.0</ele><time>2026-05-03T10:47:02.285Z</time></trkpt><trkpt lat="42.2274167" lon="13.9467183"><ele>201.33333333333334</ele><time>2026-05-03T10:47:03.285Z</time></trkpt><trkpt lat="42.2274967" lon="13.9469883"><ele>202.66666666666669</ele><time>2026-05-03T10:47:04.285Z</time></trkpt><trkpt lat="42.2275767" lon="13.947255"><ele>204.0</ele><time>2026-05-03T10:47:05.285Z</time></trkpt><trkpt lat="42.227655" lon="13.9475167"><ele>205.0</ele><time>2026-05-03T10:47:06.286Z</time></trkpt><trkpt lat="42.22773" lon="13.9477583"><ele>206.0</ele><time>2026-05-03T10:47:07.285Z</time></trkpt><trkpt lat="42.2277983" lon="13.9479867"><ele>207.0</ele><time>2026-05-03T10:47:08.286Z</time></trkpt><trkpt lat="42.22788" lon="13.9481717"><ele>207.0</ele><time>2026-05-03T10:47:09.285Z</time></trkpt><trkpt lat="42.2279933" lon="13.9483383"><ele>207.0</ele><time>2026-05-03T10:47:10.285Z</time></trkpt><trkpt lat="42.2281283" lon="13.948485"><ele>207.0</ele><time>2026-05-03T10:47:11.285Z</time></trkpt><trkpt lat="42.2282683" lon="13.94862"><ele>208.0</ele><time>2026-05-03T10:47:12.285Z</time></trkpt><trkpt lat="42.228425" lon="13.9487517"><ele>209.0</ele><time>2026-05-03T10:47:13.286Z</time></trkpt><trkpt lat="42.2285783" lon="13.948885"><ele>210.0</ele><time>2026-05-03T10:47:14.285Z</time></trkpt><trkpt lat="42.2287183" lon="13.9490217"><ele>210.0</ele><time>2026-05-03T10:47:15.285Z</time></trkpt><trkpt lat="42.2288583" lon="13.9491633"><ele>210.0</ele><time>2026-05-03T10:47:16.285Z</time></trkpt><trkpt lat="42.228995" lon="13.9492967"><ele>210.0</ele><time>2026-05-03T10:47:17.285Z</time></trkpt><trkpt lat="42.2291517" lon="13.9494267"><ele>213.33333333333331</ele><time>2026-05-03T10:47:18.285Z</time></trkpt><trkpt lat="42.229295" lon="13.94956"><ele>216.66666666666666</ele><time>2026-05-03T10:47:19.285Z</time></trkpt><trkpt lat="42.2294383" lon="13.9496883"><ele>220.0</ele><time>2026-05-03T10:47:20.285Z</time></trkpt><trkpt lat="42.2295867" lon="13.94982"><ele>220.0</ele><time>2026-05-03T10:47:21.285Z</time></trkpt><trkpt lat="42.2297383" lon="13.9499367"><ele>220.0</ele><time>2026-05-03T10:47:22.285Z</time></trkpt><trkpt lat="42.2298917" lon="13.95003"><ele>220.0</ele><time>2026-05-03T10:47:23.285Z</time></trkpt><trkpt lat="42.2300533" lon="13.9500833"><ele>223.0</ele><time>2026-05-03T10:47:24.285Z</time></trkpt><trkpt lat="42.2302283" lon="13.9501133"><ele>226.0</ele><time>2026-05-03T10:47:25.285Z</time></trkpt><trkpt lat="42.230395" lon="13.9501383"><ele>229.0</ele><time>2026-05-03T10:47:26.285Z</time></trkpt><trkpt lat="42.2305617" lon="13.9501733"><ele>233.0</ele><time>2026-05-03T10:47:27.285Z</time></trkpt><trkpt lat="42.2307233" lon="13.9502083"><ele>237.0</ele><time>2026-05-03T10:47:28.285Z</time></trkpt><trkpt lat="42.2308873" lon="13.9502399"><ele>241.0</ele><time>2026-05-03T10:47:29.285Z</time></trkpt><trkpt lat="42.231048" lon="13.9502796"><ele>241.0</ele><time>2026-05-03T10:47:30.285Z</time></trkpt><trkpt lat="42.2312079" lon="13.9503253"><ele>241.0</ele><time>2026-05-03T10:47:31.285Z</time></trkpt><trkpt lat="42.2313677" lon="13.9503727"><ele>241.0</ele><time>2026-05-03T10:47:32.285Z</time></trkpt><trkpt lat="42.2315286" lon="13.9504243"><ele>242.0</ele><time>2026-05-03T10:47:33.285Z</time></trkpt><trkpt lat="42.231687" lon="13.9504806"><ele>243.0</ele><time>2026-05-03T10:47:34.285Z</time></trkpt><trkpt lat="42.2318583" lon="13.9505346"><ele>244.0</ele><time>2026-05-03T10:47:35.285Z</time></trkpt><trkpt lat="42.2320436" lon="13.9505855"><ele>244.0</ele><time>2026-05-03T10:47:36.286Z</time></trkpt><trkpt lat="42.2322292" lon="13.9506422"><ele>244.0</ele><time>2026-05-03T10:47:37.285Z</time></trkpt><trkpt lat="42.2323968" lon="13.9506978"><ele>244.0</ele><time>2026-05-03T10:47:38.285Z</time></trkpt><trkpt lat="42.232557" lon="13.9507435"><ele>244.25</ele><time>2026-05-03T10:47:39.285Z</time></trkpt><trkpt lat="42.2327033" lon="13.9507833"><ele>244.5</ele><time>2026-05-03T10:47:40.285Z</time></trkpt><trkpt lat="42.2328426" lon="13.9508151"><ele>244.75</ele><time>2026-05-03T10:47:41.285Z</time></trkpt><trkpt lat="42.2329792" lon="13.95085"><ele>245.0</ele><time>2026-05-03T10:47:42.285Z</time></trkpt><trkpt lat="42.2331071" lon="13.9508931"><ele>244.0</ele><time>2026-05-03T10:47:43.285Z</time></trkpt><trkpt lat="42.233246" lon="13.9509425"><ele>243.0</ele><time>2026-05-03T10:47:44.285Z</time></trkpt><trkpt lat="42.2333969" lon="13.9509906"><ele>242.0</ele><time>2026-05-03T10:47:45.285Z</time></trkpt><trkpt lat="42.233561" lon="13.9510378"><ele>242.0</ele><time>2026-05-03T10:47:46.285Z</time></trkpt><trkpt lat="42.233732" lon="13.95109"><ele>242.0</ele><time>2026-05-03T10:47:47.285Z</time></trkpt><trkpt lat="42.2339046" lon="13.951145"><ele>242.0</ele><time>2026-05-03T10:47:48.285Z</time></trkpt><trkpt lat="42.2340757" lon="13.9512008"><ele>239.0</ele><time>2026-05-03T10:47:49.286Z</time></trkpt><trkpt lat="42.2342451" lon="13.9512483"><ele>236.0</ele><time>2026-05-03T10:47:50.285Z</time></trkpt><trkpt lat="42.2344045" lon="13.9512949"><ele>233.0</ele><time>2026-05-03T10:47:51.285Z</time></trkpt><trkpt lat="42.2345611" lon="13.9513458"><ele>233.0</ele><time>2026-05-03T10:47:52.285Z</time></trkpt><trkpt lat="42.2347219" lon="13.9513987"><ele>233.0</ele><time>2026-05-03T10:47:53.285Z</time></trkpt><trkpt lat="42.2348819" lon="13.9514542"><ele>233.0</ele><time>2026-05-03T10:47:54.285Z</time></trkpt><trkpt lat="42.2350335" lon="13.9515054"><ele>231.0</ele><time>2026-05-03T10:47:55.285Z</time></trkpt><trkpt lat="42.2351876" lon="13.9515594"><ele>229.0</ele><time>2026-05-03T10:47:56.286Z</time></trkpt><trkpt lat="42.2353478" lon="13.9516282"><ele>227.0</ele><time>2026-05-03T10:47:57.285Z</time></trkpt><trkpt lat="42.2355035" lon="13.9517215"><ele>225.66666666666669</ele><time>2026-05-03T10:47:58.285Z</time></trkpt><trkpt lat="42.2356557" lon="13.9518391"><ele>224.33333333333331</ele><time>2026-05-03T10:47:59.286Z</time></trkpt><trkpt lat="42.2357987" lon="13.9519928"><ele>223.0</ele><time>2026-05-03T10:48:00.285Z</time></trkpt><trkpt lat="42.2359292" lon="13.9521661"><ele>223.0</ele><time>2026-05-03T10:48:01.285Z</time></trkpt><trkpt lat="42.2360524" lon="13.9523317"><ele>223.0</ele><time>2026-05-03T10:48:02.285Z</time></trkpt><trkpt lat="42.2361704" lon="13.9524859"><ele>223.0</ele><time>2026-05-03T10:48:03.285Z</time></trkpt><trkpt lat="42.2363018" lon="13.9526069"><ele>224.66666666666666</ele><time>2026-05-03T10:48:04.285Z</time></trkpt><trkpt lat="42.2364424" lon="13.9527044"><ele>226.33333333333331</ele><time>2026-05-03T10:48:05.285Z</time></trkpt><trkpt lat="42.2366038" lon="13.9527811"><ele>228.0</ele><time>2026-05-03T10:48:06.285Z</time></trkpt><trkpt lat="42.2367808" lon="13.9528369"><ele>228.0</ele><time>2026-05-03T10:48:07.285Z</time></trkpt><trkpt lat="42.2369577" lon="13.9528909"><ele>228.0</ele><time>2026-05-03T10:48:08.285Z</time></trkpt><trkpt lat="42.2371293" lon="13.9529436"><ele>228.0</ele><time>2026-05-03T10:48:09.285Z</time></trkpt><trkpt lat="42.2372899" lon="13.9529974"><ele>224.33333333333331</ele><time>2026-05-03T10:48:10.285Z</time></trkpt><trkpt lat="42.2374461" lon="13.9530503"><ele>220.66666666666666</ele><time>2026-05-03T10:48:11.285Z</time></trkpt><trkpt lat="42.2375952" lon="13.9530946"><ele>217.0</ele><time>2026-05-03T10:48:12.286Z</time></trkpt><trkpt lat="42.2377426" lon="13.9531415"><ele>217.0</ele><time>2026-05-03T10:48:13.285Z</time></trkpt><trkpt lat="42.2378865" lon="13.9531879"><ele>217.0</ele><time>2026-05-03T10:48:14.285Z</time></trkpt><trkpt lat="42.238035" lon="13.9532351"><ele>217.0</ele><time>2026-05-03T10:48:15.285Z</time></trkpt><trkpt lat="42.2381785" lon="13.9532758"><ele>217.0</ele><time>2026-05-03T10:48:16.285Z</time></trkpt><trkpt lat="42.23832" lon="13.9533178"><ele>217.33333333333331</ele><time>2026-05-03T10:48:17.285Z</time></trkpt><trkpt lat="42.2384676" lon="13.9533478"><ele>217.66666666666669</ele><time>2026-05-03T10:48:18.285Z</time></trkpt><trkpt lat="42.2386196" lon="13.9533508"><ele>218.0</ele><time>2026-05-03T10:48:19.286Z</time></trkpt><trkpt lat="42.2387692" lon="13.9533179"><ele>218.0</ele><time>2026-05-03T10:48:20.285Z</time></trkpt><trkpt lat="42.2389177" lon="13.9532552"><ele>218.0</ele><time>2026-05-03T10:48:21.285Z</time></trkpt><trkpt lat="42.2390581" lon="13.9531546"><ele>218.0</ele><time>2026-05-03T10:48:22.285Z</time></trkpt><trkpt lat="42.2391778" lon="13.9530258"><ele>217.0</ele><time>2026-05-03T10:48:23.285Z</time></trkpt><trkpt lat="42.2392739" lon="13.9528729"><ele>216.0</ele><time>2026-05-03T10:48:24.285Z</time></trkpt><trkpt lat="42.2393455" lon="13.9526907"><ele>215.0</ele><time>2026-05-03T10:48:25.285Z</time></trkpt><trkpt lat="42.2393918" lon="13.9524847"><ele>213.0</ele><time>2026-05-03T10:48:26.285Z</time></trkpt><trkpt lat="42.2394248" lon="13.9522755"><ele>211.0</ele><time>2026-05-03T10:48:27.285Z</time></trkpt><trkpt lat="42.2394527" lon="13.9520677"><ele>209.0</ele><time>2026-05-03T10:48:28.285Z</time></trkpt><trkpt lat="42.2394754" lon="13.9518667"><ele>207.25</ele><time>2026-05-03T10:48:29.286Z</time></trkpt><trkpt lat="42.239496" lon="13.9516786"><ele>205.5</ele><time>2026-05-03T10:48:30.285Z</time></trkpt><trkpt lat="42.2395099" lon="13.9515026"><ele>203.75</ele><time>2026-05-03T10:48:31.285Z</time></trkpt><trkpt lat="42.2395217" lon="13.9513489"><ele>202.0</ele><time>2026-05-03T10:48:32.285Z</time></trkpt><trkpt lat="42.2395504" lon="13.9512082"><ele>202.0</ele><time>2026-05-03T10:48:33.286Z</time></trkpt><trkpt lat="42.2396062" lon="13.9510809"><ele>202.0</ele><time>2026-05-03T10:48:34.285Z</time></trkpt><trkpt lat="42.2396936" lon="13.9509745"><ele>202.0</ele><time>2026-05-03T10:48:35.286Z</time></trkpt><trkpt lat="42.23981" lon="13.95089"><ele>202.0</ele><time>2026-05-03T10:48:36.285Z</time></trkpt><trkpt lat="42.2399383" lon="13.950825"><ele>200.0</ele><time>2026-05-03T10:48:37.285Z</time></trkpt><trkpt lat="42.2400733" lon="13.9507717"><ele>198.0</ele><time>2026-05-03T10:48:38.285Z</time></trkpt><trkpt lat="42.240225" lon="13.9507367"><ele>196.0</ele><time>2026-05-03T10:48:39.285Z</time></trkpt><trkpt lat="42.2403883" lon="13.9507317"><ele>196.0</ele><time>2026-05-03T10:48:40.286Z</time></trkpt><trkpt lat="42.2405567" lon="13.9507517"><ele>196.0</ele><time>2026-05-03T10:48:41.285Z</time></trkpt><trkpt lat="42.2407367" lon="13.9507817"><ele>196.0</ele><time>2026-05-03T10:48:42.285Z</time></trkpt><trkpt lat="42.2409133" lon="13.95083"><ele>197.66666666666666</ele><time>2026-05-03T10:48:43.285Z</time></trkpt><trkpt lat="42.2410933" lon="13.9508967"><ele>199.33333333333331</ele><time>2026-05-03T10:48:44.285Z</time></trkpt><trkpt lat="42.24127" lon="13.9509667"><ele>201.0</ele><time>2026-05-03T10:48:45.285Z</time></trkpt><trkpt lat="42.2414483" lon="13.9510283"><ele>198.0</ele><time>2026-05-03T10:48:46.286Z</time></trkpt><trkpt lat="42.241625" lon="13.951085"><ele>195.0</ele><time>2026-05-03T10:48:47.285Z</time></trkpt><trkpt lat="42.241795" lon="13.951135"><ele>192.0</ele><time>2026-05-03T10:48:48.285Z</time></trkpt><trkpt lat="42.2419617" lon="13.9511833"><ele>192.0</ele><time>2026-05-03T10:48:49.285Z</time></trkpt><trkpt lat="42.242135" lon="13.9512233"><ele>192.0</ele><time>2026-05-03T10:48:50.285Z</time></trkpt><trkpt lat="42.2423033" lon="13.9512433"><ele>192.0</ele><time>2026-05-03T10:48:51.285Z</time></trkpt><trkpt lat="42.2424867" lon="13.9512433"><ele>189.66666666666666</ele><time>2026-05-03T10:48:52.285Z</time></trkpt><trkpt lat="42.2426717" lon="13.9512067"><ele>187.33333333333331</ele><time>2026-05-03T10:48:53.285Z</time></trkpt><trkpt lat="42.242865" lon="13.9511383"><ele>185.0</ele><time>2026-05-03T10:48:54.285Z</time></trkpt><trkpt lat="42.24306" lon="13.9510567"><ele>184.33333333333331</ele><time>2026-05-03T10:48:55.285Z</time></trkpt><trkpt lat="42.2432417" lon="13.9509717"><ele>183.66666666666666</ele><time>2026-05-03T10:48:56.285Z</time></trkpt><trkpt lat="42.2434233" lon="13.9508867"><ele>183.0</ele><time>2026-05-03T10:48:57.285Z</time></trkpt><trkpt lat="42.2435983" lon="13.9508117"><ele>179.33333333333334</ele><time>2026-05-03T10:48:58.285Z</time></trkpt><trkpt lat="42.2437767" lon="13.9507383"><ele>175.66666666666669</ele><time>2026-05-03T10:48:59.285Z</time></trkpt><trkpt lat="42.2439617" lon="13.9506733"><ele>172.0</ele><time>2026-05-03T10:49:00.285Z</time></trkpt><trkpt lat="42.2441567" lon="13.950635"><ele>170.66666666666669</ele><time>2026-05-03T10:49:01.285Z</time></trkpt><trkpt lat="42.2443467" lon="13.950615"><ele>169.33333333333334</ele><time>2026-05-03T10:49:02.285Z</time></trkpt><trkpt lat="42.244535" lon="13.9506083"><ele>168.0</ele><time>2026-05-03T10:49:03.285Z</time></trkpt><trkpt lat="42.24472" lon="13.950615"><ele>165.66666666666666</ele><time>2026-05-03T10:49:04.286Z</time></trkpt><trkpt lat="42.2449033" lon="13.950625"><ele>163.33333333333331</ele><time>2026-05-03T10:49:05.285Z</time></trkpt><trkpt lat="42.245075" lon="13.9506533"><ele>161.0</ele><time>2026-05-03T10:49:06.285Z</time></trkpt><trkpt lat="42.2452467" lon="13.95071"><ele>161.0</ele><time>2026-05-03T10:49:07.285Z</time></trkpt><trkpt lat="42.2454067" lon="13.9507933"><ele>161.0</ele><time>2026-05-03T10:49:08.285Z</time></trkpt><trkpt lat="42.24558" lon="13.950875"><ele>161.0</ele><time>2026-05-03T10:49:09.285Z</time></trkpt><trkpt lat="42.2457417" lon="13.9509767"><ele>158.66666666666666</ele><time>2026-05-03T10:49:10.285Z</time></trkpt><trkpt lat="42.2458817" lon="13.9511017"><ele>156.33333333333334</ele><time>2026-05-03T10:49:11.285Z</time></trkpt><trkpt lat="42.2460067" lon="13.9512483"><ele>154.0</ele><time>2026-05-03T10:49:12.285Z</time></trkpt><trkpt lat="42.2461217" lon="13.9514067"><ele>154.0</ele><time>2026-05-03T10:49:13.285Z</time></trkpt><trkpt lat="42.2462267" lon="13.951565"><ele>154.0</ele><time>2026-05-03T10:49:14.285Z</time></trkpt><trkpt lat="42.246335" lon="13.9517133"><ele>154.0</ele><time>2026-05-03T10:49:15.286Z</time></trkpt><trkpt lat="42.24644" lon="13.9518567"><ele>151.75</ele><time>2026-05-03T10:49:16.285Z</time></trkpt><trkpt lat="42.2465517" lon="13.9519633"><ele>149.5</ele><time>2026-05-03T10:49:17.285Z</time></trkpt><trkpt lat="42.246665" lon="13.95206"><ele>147.25</ele><time>2026-05-03T10:49:18.285Z</time></trkpt><trkpt lat="42.2468017" lon="13.9521117"><ele>145.0</ele><time>2026-05-03T10:49:19.285Z</time></trkpt><trkpt lat="42.2469567" lon="13.9521183"><ele>145.0</ele><time>2026-05-03T10:49:20.285Z</time></trkpt><trkpt lat="42.2471133" lon="13.9520967"><ele>145.0</ele><time>2026-05-03T10:49:21.285Z</time></trkpt><trkpt lat="42.2472617" lon="13.9520783"><ele>145.0</ele><time>2026-05-03T10:49:22.285Z</time></trkpt><trkpt lat="42.2474017" lon="13.952055"><ele>145.0</ele><time>2026-05-03T10:49:23.285Z</time></trkpt><trkpt lat="42.2475417" lon="13.952035"><ele>143.75</ele><time>2026-05-03T10:49:24.286Z</time></trkpt><trkpt lat="42.2476767" lon="13.95203"><ele>142.5</ele><time>2026-05-03T10:49:25.286Z</time></trkpt><trkpt lat="42.2478133" lon="13.952015"><ele>141.25</ele><time>2026-05-03T10:49:26.285Z</time></trkpt><trkpt lat="42.2479567" lon="13.9520033"><ele>140.0</ele><time>2026-05-03T10:49:27.285Z</time></trkpt><trkpt lat="42.2481017" lon="13.9519917"><ele>139.5</ele><time>2026-05-03T10:49:28.285Z</time></trkpt><trkpt lat="42.2482433" lon="13.95197"><ele>139.0</ele><time>2026-05-03T10:49:29.285Z</time></trkpt><trkpt lat="42.24839" lon="13.9519533"><ele>138.5</ele><time>2026-05-03T10:49:30.285Z</time></trkpt><trkpt lat="42.2485383" lon="13.9519383"><ele>138.0</ele><time>2026-05-03T10:49:31.285Z</time></trkpt><trkpt lat="42.2486917" lon="13.9519233"><ele>138.0</ele><time>2026-05-03T10:49:32.285Z</time></trkpt><trkpt lat="42.24884" lon="13.9519183"><ele>138.0</ele><time>2026-05-03T10:49:33.285Z</time></trkpt><trkpt lat="42.2489983" lon="13.951905"><ele>138.0</ele><time>2026-05-03T10:49:34.285Z</time></trkpt><trkpt lat="42.2491517" lon="13.9518867"><ele>138.75</ele><time>2026-05-03T10:49:35.285Z</time></trkpt><trkpt lat="42.2493033" lon="13.9518733"><ele>139.5</ele><time>2026-05-03T10:49:36.286Z</time></trkpt><trkpt lat="42.2494483" lon="13.9518383"><ele>140.25</ele><time>2026-05-03T10:49:37.285Z</time></trkpt><trkpt lat="42.2495967" lon="13.9518083"><ele>141.0</ele><time>2026-05-03T10:49:38.285Z</time></trkpt><trkpt lat="42.249755" lon="13.9518017"><ele>140.25</ele><time>2026-05-03T10:49:39.285Z</time></trkpt><trkpt lat="42.24991" lon="13.9517933"><ele>139.5</ele><time>2026-05-03T10:49:40.285Z</time></trkpt><trkpt lat="42.2500567" lon="13.9517733"><ele>138.75</ele><time>2026-05-03T10:49:41.285Z</time></trkpt><trkpt lat="42.2501883" lon="13.9517517"><ele>138.0</ele><time>2026-05-03T10:49:42.285Z</time></trkpt><trkpt lat="42.250315" lon="13.9517417"><ele>138.0</ele><time>2026-05-03T10:49:43.285Z</time></trkpt><trkpt lat="42.2504283" lon="13.9517217"><ele>138.0</ele><time>2026-05-03T10:49:44.285Z</time></trkpt><trkpt lat="42.2505522" lon="13.9517134"><ele>138.0</ele><time>2026-05-03T10:49:45.285Z</time></trkpt><trkpt lat="42.2506702" lon="13.9517096"><ele>138.0</ele><time>2026-05-03T10:49:46.285Z</time></trkpt><trkpt lat="42.2507876" lon="13.9517034"><ele>137.75</ele><time>2026-05-03T10:49:47.286Z</time></trkpt><trkpt lat="42.2509083" lon="13.9516963"><ele>137.5</ele><time>2026-05-03T10:49:48.285Z</time></trkpt><trkpt lat="42.2510355" lon="13.9516783"><ele>137.25</ele><time>2026-05-03T10:49:49.285Z</time></trkpt><trkpt lat="42.2511692" lon="13.9516497"><ele>137.0</ele><time>2026-05-03T10:49:50.286Z</time></trkpt><trkpt lat="42.2513035" lon="13.9516357"><ele>137.0</ele><time>2026-05-03T10:49:51.285Z</time></trkpt><trkpt lat="42.2514294" lon="13.9516525"><ele>137.0</ele><time>2026-05-03T10:49:52.285Z</time></trkpt><trkpt lat="42.2515439" lon="13.951676"><ele>137.0</ele><time>2026-05-03T10:49:53.285Z</time></trkpt><trkpt lat="42.2516574" lon="13.9517016"><ele>137.0</ele><time>2026-05-03T10:49:54.285Z</time></trkpt><trkpt lat="42.2517659" lon="13.9517192"><ele>136.16666666666666</ele><time>2026-05-03T10:49:55.285Z</time></trkpt><trkpt lat="42.2518701" lon="13.951743"><ele>135.33333333333331</ele><time>2026-05-03T10:49:56.285Z</time></trkpt><trkpt lat="42.2519574" lon="13.951766"><ele>134.5</ele><time>2026-05-03T10:49:57.285Z</time></trkpt><trkpt lat="42.2520296" lon="13.9517755"><ele>133.66666666666666</ele><time>2026-05-03T10:49:58.285Z</time></trkpt><trkpt lat="42.2520946" lon="13.9517862"><ele>132.83333333333334</ele><time>2026-05-03T10:49:59.285Z</time></trkpt><trkpt lat="42.2521663" lon="13.9518006"><ele>132.0</ele><time>2026-05-03T10:50:00.285Z</time></trkpt><trkpt lat="42.2522384" lon="13.9518193"><ele>131.5</ele><time>2026-05-03T10:50:01.285Z</time></trkpt><trkpt lat="42.2523057" lon="13.9518301"><ele>131.0</ele><time>2026-05-03T10:50:02.285Z</time></trkpt><trkpt lat="42.252373" lon="13.9518387"><ele>130.5</ele><time>2026-05-03T10:50:03.285Z</time></trkpt><trkpt lat="42.2524534" lon="13.9518542"><ele>130.0</ele><time>2026-05-03T10:50:04.285Z</time></trkpt><trkpt lat="42.2525456" lon="13.9518777"><ele>129.5</ele><time>2026-05-03T10:50:05.285Z</time></trkpt><trkpt lat="42.2526456" lon="13.951903"><ele>129.0</ele><time>2026-05-03T10:50:06.285Z</time></trkpt><trkpt lat="42.2527439" lon="13.9519248"><ele>129.0</ele><time>2026-05-03T10:50:07.285Z</time></trkpt><trkpt lat="42.2528341" lon="13.951943"><ele>129.0</ele><time>2026-05-03T10:50:08.285Z</time></trkpt><trkpt lat="42.2529195" lon="13.9519599"><ele>129.0</ele><time>2026-05-03T10:50:09.285Z</time></trkpt><trkpt lat="42.2530001" lon="13.9519767"><ele>129.0</ele><time>2026-05-03T10:50:10.285Z</time></trkpt><trkpt lat="42.2530738" lon="13.9519899"><ele>129.0</ele><time>2026-05-03T10:50:11.285Z</time></trkpt><trkpt lat="42.2531406" lon="13.9520051"><ele>129.0</ele><time>2026-05-03T10:50:12.285Z</time></trkpt><trkpt lat="42.2532079" lon="13.9520262"><ele>129.33333333333334</ele><time>2026-05-03T10:50:13.285Z</time></trkpt><trkpt lat="42.2532837" lon="13.9520488"><ele>129.66666666666666</ele><time>2026-05-03T10:50:14.285Z</time></trkpt><trkpt lat="42.2533615" lon="13.9520697"><ele>130.0</ele><time>2026-05-03T10:50:15.285Z</time></trkpt><trkpt lat="42.2534455" lon="13.9520723"><ele>130.33333333333331</ele><time>2026-05-03T10:50:16.285Z</time></trkpt><trkpt lat="42.2535417" lon="13.952053"><ele>130.66666666666666</ele><time>2026-05-03T10:50:17.285Z</time></trkpt><trkpt lat="42.2536477" lon="13.95201"><ele>131.0</ele><time>2026-05-03T10:50:18.285Z</time></trkpt><trkpt lat="42.2537605" lon="13.9519622"><ele>131.0</ele><time>2026-05-03T10:50:19.285Z</time></trkpt><trkpt lat="42.253885" lon="13.9519057"><ele>131.0</ele><time>2026-05-03T10:50:20.285Z</time></trkpt><trkpt lat="42.2540191" lon="13.9518437"><ele>131.0</ele><time>2026-05-03T10:50:21.285Z</time></trkpt><trkpt lat="42.2541556" lon="13.9517925"><ele>131.0</ele><time>2026-05-03T10:50:22.285Z</time></trkpt><trkpt lat="42.2542938" lon="13.951739"><ele>132.66666666666666</ele><time>2026-05-03T10:50:23.285Z</time></trkpt><trkpt lat="42.2544366" lon="13.9516866"><ele>134.33333333333334</ele><time>2026-05-03T10:50:24.285Z</time></trkpt><trkpt lat="42.254608" lon="13.9516343"><ele>136.0</ele><time>2026-05-03T10:50:25.285Z</time></trkpt><trkpt lat="42.2548052" lon="13.9515702"><ele>138.5</ele><time>2026-05-03T10:50:26.286Z</time></trkpt><trkpt lat="42.2550272" lon="13.9515137"><ele>141.0</ele><time>2026-05-03T10:50:27.285Z</time></trkpt><trkpt lat="42.2552643" lon="13.9514572"><ele>141.0</ele><time>2026-05-03T10:50:28.285Z</time></trkpt><trkpt lat="42.2555102" lon="13.9514035"><ele>141.0</ele><time>2026-05-03T10:50:29.285Z</time></trkpt><trkpt lat="42.2557425" lon="13.9513458"><ele>141.66666666666666</ele><time>2026-05-03T10:50:30.285Z</time></trkpt><trkpt lat="42.2559488" lon="13.9512862"><ele>142.33333333333331</ele><time>2026-05-03T10:50:31.285Z</time></trkpt><trkpt lat="42.25615" lon="13.9512271"><ele>143.0</ele><time>2026-05-03T10:50:32.286Z</time></trkpt><trkpt lat="42.2563551" lon="13.9511722"><ele>143.33333333333331</ele><time>2026-05-03T10:50:33.285Z</time></trkpt><trkpt lat="42.2565654" lon="13.9511332"><ele>143.66666666666666</ele><time>2026-05-03T10:50:34.285Z</time></trkpt><trkpt lat="42.2567772" lon="13.9511163"><ele>144.0</ele><time>2026-05-03T10:50:35.285Z</time></trkpt><trkpt lat="42.2569886" lon="13.9511167"><ele>144.0</ele><time>2026-05-03T10:50:36.285Z</time></trkpt><trkpt lat="42.2571891" lon="13.9511243"><ele>144.0</ele><time>2026-05-03T10:50:37.285Z</time></trkpt><trkpt lat="42.2573836" lon="13.9511356"><ele>144.0</ele><time>2026-05-03T10:50:38.285Z</time></trkpt><trkpt lat="42.257563" lon="13.9511473"><ele>143.66666666666666</ele><time>2026-05-03T10:50:39.285Z</time></trkpt><trkpt lat="42.2577343" lon="13.951159"><ele>143.33333333333331</ele><time>2026-05-03T10:50:40.285Z</time></trkpt><trkpt lat="42.2579076" lon="13.95118"><ele>143.0</ele><time>2026-05-03T10:50:41.285Z</time></trkpt><trkpt lat="42.2580855" lon="13.9512088"><ele>143.66666666666666</ele><time>2026-05-03T10:50:42.285Z</time></trkpt><trkpt lat="42.2582648" lon="13.9512514"><ele>144.33333333333334</ele><time>2026-05-03T10:50:43.285Z</time></trkpt><trkpt lat="42.2584433" lon="13.9513104"><ele>145.0</ele><time>2026-05-03T10:50:44.285Z</time></trkpt><trkpt lat="42.2586213" lon="13.9513795"><ele>145.0</ele><time>2026-05-03T10:50:45.285Z</time></trkpt><trkpt lat="42.2587968" lon="13.9514613"><ele>145.0</ele><time>2026-05-03T10:50:46.285Z</time></trkpt><trkpt lat="42.2589628" lon="13.9515571"><ele>145.0</ele><time>2026-05-03T10:50:47.285Z</time></trkpt><trkpt lat="42.2591332" lon="13.9516662"><ele>146.0</ele><time>2026-05-03T10:50:48.286Z</time></trkpt><trkpt lat="42.2592964" lon="13.9517823"><ele>147.0</ele><time>2026-05-03T10:50:49.285Z</time></trkpt><trkpt lat="42.2594536" lon="13.9519136"><ele>148.0</ele><time>2026-05-03T10:50:50.285Z</time></trkpt><trkpt lat="42.2596026" lon="13.9520683"><ele>148.0</ele><time>2026-05-03T10:50:51.285Z</time></trkpt><trkpt lat="42.259746" lon="13.9522361"><ele>148.0</ele><time>2026-05-03T10:50:52.286Z</time></trkpt><trkpt lat="42.2598894" lon="13.9524153"><ele>148.0</ele><time>2026-05-03T10:50:53.285Z</time></trkpt><trkpt lat="42.2600303" lon="13.9526078"><ele>147.66666666666669</ele><time>2026-05-03T10:50:54.285Z</time></trkpt><trkpt lat="42.2601625" lon="13.9528086"><ele>147.33333333333334</ele><time>2026-05-03T10:50:55.285Z</time></trkpt><trkpt lat="42.2602783" lon="13.9530178"><ele>147.0</ele><time>2026-05-03T10:50:56.285Z</time></trkpt><trkpt lat="42.2603858" lon="13.9532365"><ele>149.0</ele><time>2026-05-03T10:50:57.285Z</time></trkpt><trkpt lat="42.2604814" lon="13.9534637"><ele>151.0</ele><time>2026-05-03T10:50:58.285Z</time></trkpt><trkpt lat="42.2605658" lon="13.9536987"><ele>153.0</ele><time>2026-05-03T10:50:59.285Z</time></trkpt><trkpt lat="42.2606433" lon="13.9539405"><ele>148.0</ele><time>2026-05-03T10:51:00.285Z</time></trkpt><trkpt lat="42.2607146" lon="13.954188"><ele>143.0</ele><time>2026-05-03T10:51:01.286Z</time></trkpt><trkpt lat="42.2607741" lon="13.9544392"><ele>138.0</ele><time>2026-05-03T10:51:02.286Z</time></trkpt><trkpt lat="42.2608328" lon="13.9546928"><ele>138.0</ele><time>2026-05-03T10:51:03.285Z</time></trkpt><trkpt lat="42.2608929" lon="13.9549435"><ele>138.0</ele><time>2026-05-03T10:51:04.285Z</time></trkpt><trkpt lat="42.2609478" lon="13.9551916"><ele>138.0</ele><time>2026-05-03T10:51:05.285Z</time></trkpt><trkpt lat="42.2609966" lon="13.9554323"><ele>138.0</ele><time>2026-05-03T10:51:06.286Z</time></trkpt><trkpt lat="42.2610383" lon="13.9556592"><ele>138.0</ele><time>2026-05-03T10:51:07.285Z</time></trkpt><trkpt lat="42.261082" lon="13.9558747"><ele>138.0</ele><time>2026-05-03T10:51:08.285Z</time></trkpt><trkpt lat="42.261122" lon="13.9560757"><ele>138.5</ele><time>2026-05-03T10:51:09.285Z</time></trkpt><trkpt lat="42.26116" lon="13.9562638"><ele>139.0</ele><time>2026-05-03T10:51:10.285Z</time></trkpt><trkpt lat="42.2611952" lon="13.9564366"><ele>139.5</ele><time>2026-05-03T10:51:11.285Z</time></trkpt><trkpt lat="42.2612269" lon="13.9565837"><ele>140.0</ele><time>2026-05-03T10:51:12.285Z</time></trkpt><trkpt lat="42.2612607" lon="13.9567063"><ele>141.2</ele><time>2026-05-03T10:51:13.285Z</time></trkpt><trkpt lat="42.2612859" lon="13.9568063"><ele>142.4</ele><time>2026-05-03T10:51:14.286Z</time></trkpt><trkpt lat="42.2612862" lon="13.9569542"><ele>143.6</ele><time>2026-05-03T10:51:16.285Z</time></trkpt><trkpt lat="42.2612124" lon="13.9570581"><ele>144.8</ele><time>2026-05-03T10:51:18.285Z</time></trkpt><trkpt lat="42.261145" lon="13.9570978"><ele>146.0</ele><time>2026-05-03T10:51:19.285Z</time></trkpt><trkpt lat="42.2610612" lon="13.9571504"><ele>146.0</ele><time>2026-05-03T10:51:20.285Z</time></trkpt><trkpt lat="42.2609586" lon="13.9572161"><ele>146.0</ele><time>2026-05-03T10:51:21.285Z</time></trkpt><trkpt lat="42.2608271" lon="13.9573049"><ele>146.0</ele><time>2026-05-03T10:51:22.285Z</time></trkpt><trkpt lat="42.2606643" lon="13.9573988"><ele>146.0</ele><time>2026-05-03T10:51:23.285Z</time></trkpt><trkpt lat="42.2604824" lon="13.957496"><ele>150.66666666666666</ele><time>2026-05-03T10:51:24.286Z</time></trkpt><trkpt lat="42.2602939" lon="13.9575983"><ele>155.33333333333334</ele><time>2026-05-03T10:51:25.285Z</time></trkpt><trkpt lat="42.2600917" lon="13.957715"><ele>160.0</ele><time>2026-05-03T10:51:26.285Z</time></trkpt><trkpt lat="42.259885" lon="13.957855"><ele>164.0</ele><time>2026-05-03T10:51:27.285Z</time></trkpt><trkpt lat="42.2596733" lon="13.95801"><ele>168.0</ele><time>2026-05-03T10:51:28.285Z</time></trkpt><trkpt lat="42.2594883" lon="13.95815"><ele>168.0</ele><time>2026-05-03T10:51:29.285Z</time></trkpt><trkpt lat="42.25933" lon="13.9582733"><ele>168.0</ele><time>2026-05-03T10:51:30.285Z</time></trkpt><trkpt lat="42.2591833" lon="13.958385"><ele>168.0</ele><time>2026-05-03T10:51:31.285Z</time></trkpt><trkpt lat="42.2590283" lon="13.9584983"><ele>173.0</ele><time>2026-05-03T10:51:32.285Z</time></trkpt><trkpt lat="42.2588517" lon="13.9586017"><ele>178.0</ele><time>2026-05-03T10:51:33.286Z</time></trkpt><trkpt lat="42.2586717" lon="13.9587033"><ele>183.0</ele><time>2026-05-03T10:51:34.285Z</time></trkpt><trkpt lat="42.2585" lon="13.9587983"><ele>183.0</ele><time>2026-05-03T10:51:35.285Z</time></trkpt><trkpt lat="42.25833" lon="13.958895"><ele>183.0</ele><time>2026-05-03T10:51:36.285Z</time></trkpt><trkpt lat="42.2581617" lon="13.9589967"><ele>183.0</ele><time>2026-05-03T10:51:37.285Z</time></trkpt><trkpt lat="42.2579767" lon="13.9591"><ele>187.0</ele><time>2026-05-03T10:51:38.286Z</time></trkpt><trkpt lat="42.2578117" lon="13.9591917"><ele>191.0</ele><time>2026-05-03T10:51:39.285Z</time></trkpt><trkpt lat="42.2576667" lon="13.9592733"><ele>195.0</ele><time>2026-05-03T10:51:40.285Z</time></trkpt><trkpt lat="42.257535" lon="13.9593533"><ele>195.6</ele><time>2026-05-03T10:51:41.285Z</time></trkpt><trkpt lat="42.2574217" lon="13.959425"><ele>196.2</ele><time>2026-05-03T10:51:42.285Z</time></trkpt><trkpt lat="42.25733" lon="13.9594783"><ele>196.8</ele><time>2026-05-03T10:51:43.286Z</time></trkpt><trkpt lat="42.2572517" lon="13.9595267"><ele>197.4</ele><time>2026-05-03T10:51:44.285Z</time></trkpt><trkpt lat="42.2571717" lon="13.959565"><ele>198.0</ele><time>2026-05-03T10:51:45.286Z</time></trkpt><trkpt lat="42.2570883" lon="13.9596083"><ele>198.0</ele><time>2026-05-03T10:51:46.285Z</time></trkpt><trkpt lat="42.2570233" lon="13.95965"><ele>198.0</ele><time>2026-05-03T10:51:47.285Z</time></trkpt><trkpt lat="42.2569717" lon="13.9597133"><ele>198.0</ele><time>2026-05-03T10:51:48.286Z</time></trkpt><trkpt lat="42.2569533" lon="13.9598617"><ele>198.0</ele><time>2026-05-03T10:51:50.285Z</time></trkpt><trkpt lat="42.25698" lon="13.959945"><ele>198.0</ele><time>2026-05-03T10:51:51.285Z</time></trkpt><trkpt lat="42.2570183" lon="13.96004"><ele>198.0</ele><time>2026-05-03T10:51:52.285Z</time></trkpt><trkpt lat="42.25707" lon="13.9601583"><ele>197.5</ele><time>2026-05-03T10:51:53.285Z</time></trkpt><trkpt lat="42.2571217" lon="13.9602933"><ele>197.0</ele><time>2026-05-03T10:51:54.285Z</time></trkpt><trkpt lat="42.2571767" lon="13.9604267"><ele>196.5</ele><time>2026-05-03T10:51:55.285Z</time></trkpt><trkpt lat="42.2572267" lon="13.9605617"><ele>196.0</ele><time>2026-05-03T10:51:56.285Z</time></trkpt><trkpt lat="42.2572783" lon="13.960705"><ele>196.75</ele><time>2026-05-03T10:51:57.285Z</time></trkpt><trkpt lat="42.2573317" lon="13.96085"><ele>197.5</ele><time>2026-05-03T10:51:58.285Z</time></trkpt><trkpt lat="42.25739" lon="13.9610067"><ele>198.25</ele><time>2026-05-03T10:51:59.285Z</time></trkpt><trkpt lat="42.2574483" lon="13.961165"><ele>199.0</ele><time>2026-05-03T10:52:00.285Z</time></trkpt><trkpt lat="42.2575054" lon="13.961327"><ele>199.0</ele><time>2026-05-03T10:52:01.285Z</time></trkpt><trkpt lat="42.2575651" lon="13.9614865"><ele>199.0</ele><time>2026-05-03T10:52:02.285Z</time></trkpt><trkpt lat="42.2576275" lon="13.9616498"><ele>199.0</ele><time>2026-05-03T10:52:03.285Z</time></trkpt><trkpt lat="42.2576908" lon="13.9618137"><ele>199.0</ele><time>2026-05-03T10:52:04.286Z</time></trkpt><trkpt lat="42.2577534" lon="13.961971"><ele>199.0</ele><time>2026-05-03T10:52:05.285Z</time></trkpt><trkpt lat="42.2578164" lon="13.9621185"><ele>199.0</ele><time>2026-05-03T10:52:06.285Z</time></trkpt><trkpt lat="42.257872" lon="13.9622541"><ele>199.0</ele><time>2026-05-03T10:52:07.285Z</time></trkpt><trkpt lat="42.2579235" lon="13.9623897"><ele>199.0</ele><time>2026-05-03T10:52:08.285Z</time></trkpt><trkpt lat="42.2579749" lon="13.9625228"><ele>198.6</ele><time>2026-05-03T10:52:09.285Z</time></trkpt><trkpt lat="42.2580199" lon="13.9626444"><ele>198.2</ele><time>2026-05-03T10:52:10.286Z</time></trkpt><trkpt lat="42.2580658" lon="13.9627558"><ele>197.79999999999998</ele><time>2026-05-03T10:52:11.285Z</time></trkpt><trkpt lat="42.2581139" lon="13.9628717"><ele>197.39999999999998</ele><time>2026-05-03T10:52:12.285Z</time></trkpt><trkpt lat="42.2581612" lon="13.9629993"><ele>197.0</ele><time>2026-05-03T10:52:13.285Z</time></trkpt><trkpt lat="42.2582109" lon="13.9631251"><ele>198.39999999999998</ele><time>2026-05-03T10:52:14.285Z</time></trkpt><trkpt lat="42.2582557" lon="13.9632399"><ele>199.79999999999998</ele><time>2026-05-03T10:52:15.285Z</time></trkpt><trkpt lat="42.2582964" lon="13.9633517"><ele>201.2</ele><time>2026-05-03T10:52:16.285Z</time></trkpt><trkpt lat="42.2583392" lon="13.9634603"><ele>202.6</ele><time>2026-05-03T10:52:17.285Z</time></trkpt><trkpt lat="42.2583856" lon="13.9635633"><ele>204.0</ele><time>2026-05-03T10:52:18.285Z</time></trkpt><trkpt lat="42.2584365" lon="13.9636591"><ele>204.2</ele><time>2026-05-03T10:52:19.285Z</time></trkpt><trkpt lat="42.2585013" lon="13.9637469"><ele>204.39999999999998</ele><time>2026-05-03T10:52:20.285Z</time></trkpt><trkpt lat="42.258567" lon="13.9638422"><ele>204.6</ele><time>2026-05-03T10:52:21.285Z</time></trkpt><trkpt lat="42.2586277" lon="13.9639564"><ele>204.8</ele><time>2026-05-03T10:52:22.286Z</time></trkpt><trkpt lat="42.2586881" lon="13.9640963"><ele>205.0</ele><time>2026-05-03T10:52:23.286Z</time></trkpt><trkpt lat="42.2587603" lon="13.9642536"><ele>205.33333333333331</ele><time>2026-05-03T10:52:24.285Z</time></trkpt><trkpt lat="42.258839" lon="13.9644236"><ele>205.66666666666669</ele><time>2026-05-03T10:52:25.285Z</time></trkpt><trkpt lat="42.2589206" lon="13.9645981"><ele>206.0</ele><time>2026-05-03T10:52:26.285Z</time></trkpt><trkpt lat="42.2590064" lon="13.964773"><ele>206.5</ele><time>2026-05-03T10:52:27.286Z</time></trkpt><trkpt lat="42.2590846" lon="13.9649306"><ele>207.0</ele><time>2026-05-03T10:52:28.285Z</time></trkpt><trkpt lat="42.2591619" lon="13.9650843"><ele>207.5</ele><time>2026-05-03T10:52:29.286Z</time></trkpt><trkpt lat="42.2592306" lon="13.9652372"><ele>208.0</ele><time>2026-05-03T10:52:30.285Z</time></trkpt><trkpt lat="42.259296" lon="13.9653776"><ele>207.99999999999997</ele><time>2026-05-03T10:52:31.285Z</time></trkpt><trkpt lat="42.2593558" lon="13.9655003"><ele>208.0</ele><time>2026-05-03T10:52:32.285Z</time></trkpt><trkpt lat="42.2594063" lon="13.965609"><ele>208.0</ele><time>2026-05-03T10:52:33.285Z</time></trkpt><trkpt lat="42.25945" lon="13.9656967"><ele>208.0</ele><time>2026-05-03T10:52:34.285Z</time></trkpt><trkpt lat="42.2594868" lon="13.9657717"><ele>207.99999999999997</ele><time>2026-05-03T10:52:35.285Z</time></trkpt><trkpt lat="42.2595229" lon="13.9658612"><ele>208.0</ele><time>2026-05-03T10:52:37.286Z</time></trkpt><trkpt lat="42.2595317" lon="13.9659967"><ele>208.4</ele><time>2026-05-03T10:52:40.285Z</time></trkpt><trkpt lat="42.2595383" lon="13.96611"><ele>208.8</ele><time>2026-05-03T10:52:44.285Z</time></trkpt><trkpt lat="42.2595533" lon="13.9661933"><ele>209.2</ele><time>2026-05-03T10:52:49.285Z</time></trkpt><trkpt lat="42.2595317" lon="13.966345"><ele>209.6</ele><time>2026-05-03T10:56:19.284Z</time></trkpt><trkpt lat="42.2595667" lon="13.96648"><ele>210.0</ele><time>2026-05-03T10:56:21.284Z</time></trkpt><trkpt lat="42.2596033" lon="13.9665933"><ele>210.8</ele><time>2026-05-03T10:56:23.284Z</time></trkpt><trkpt lat="42.259585" lon="13.966725"><ele>211.6</ele><time>2026-05-03T10:56:25.284Z</time></trkpt><trkpt lat="42.2595617" lon="13.9668483"><ele>212.39999999999998</ele><time>2026-05-03T10:56:27.284Z</time></trkpt><trkpt lat="42.25958" lon="13.9669583"><ele>213.2</ele><time>2026-05-03T10:56:29.284Z</time></trkpt><trkpt lat="42.259635" lon="13.9671017"><ele>214.0</ele><time>2026-05-03T10:56:31.284Z</time></trkpt><trkpt lat="42.2596633" lon="13.9671783"><ele>214.0</ele><time>2026-05-03T10:56:32.285Z</time></trkpt><trkpt lat="42.259715" lon="13.9673117"><ele>213.99999999999997</ele><time>2026-05-03T10:56:34.284Z</time></trkpt><trkpt lat="42.2597617" lon="13.9674633"><ele>213.99999999999997</ele><time>2026-05-03T10:56:36.284Z</time></trkpt><trkpt lat="42.2597883" lon="13.9675483"><ele>214.0</ele><time>2026-05-03T10:56:37.284Z</time></trkpt><trkpt lat="42.2598117" lon="13.96763"><ele>214.0</ele><time>2026-05-03T10:56:38.284Z</time></trkpt><trkpt lat="42.2598483" lon="13.967785"><ele>210.2</ele><time>2026-05-03T10:56:40.284Z</time></trkpt><trkpt lat="42.259895" lon="13.9679217"><ele>206.39999999999998</ele><time>2026-05-03T10:56:42.284Z</time></trkpt><trkpt lat="42.2599617" lon="13.9680567"><ele>202.6</ele><time>2026-05-03T10:56:44.284Z</time></trkpt><trkpt lat="42.2599983" lon="13.9681383"><ele>198.8</ele><time>2026-05-03T10:56:45.285Z</time></trkpt><trkpt lat="42.26004" lon="13.9682317"><ele>195.0</ele><time>2026-05-03T10:56:46.284Z</time></trkpt><trkpt lat="42.2600817" lon="13.96834"><ele>194.8</ele><time>2026-05-03T10:56:47.285Z</time></trkpt><trkpt lat="42.26013" lon="13.9684633"><ele>194.6</ele><time>2026-05-03T10:56:48.284Z</time></trkpt><trkpt lat="42.2601817" lon="13.9685883"><ele>194.39999999999998</ele><time>2026-05-03T10:56:49.284Z</time></trkpt><trkpt lat="42.2602367" lon="13.9687183"><ele>194.2</ele><time>2026-05-03T10:56:50.284Z</time></trkpt><trkpt lat="42.260295" lon="13.9688517"><ele>194.0</ele><time>2026-05-03T10:56:51.284Z</time></trkpt><trkpt lat="42.260345" lon="13.9689767"><ele>194.0</ele><time>2026-05-03T10:56:52.284Z</time></trkpt><trkpt lat="42.2603967" lon="13.9691"><ele>194.0</ele><time>2026-05-03T10:56:53.284Z</time></trkpt><trkpt lat="42.2604333" lon="13.96921"><ele>194.0</ele><time>2026-05-03T10:56:54.284Z</time></trkpt><trkpt lat="42.2604733" lon="13.9693217"><ele>194.0</ele><time>2026-05-03T10:56:55.284Z</time></trkpt><trkpt lat="42.2605183" lon="13.9694433"><ele>194.0</ele><time>2026-05-03T10:56:56.284Z</time></trkpt><trkpt lat="42.260565" lon="13.96958"><ele>194.5</ele><time>2026-05-03T10:56:57.284Z</time></trkpt><trkpt lat="42.2606183" lon="13.9697283"><ele>195.0</ele><time>2026-05-03T10:56:58.284Z</time></trkpt><trkpt lat="42.26067" lon="13.9698783"><ele>195.5</ele><time>2026-05-03T10:56:59.284Z</time></trkpt><trkpt lat="42.260725" lon="13.970025"><ele>196.0</ele><time>2026-05-03T10:57:00.284Z</time></trkpt><trkpt lat="42.2607733" lon="13.970165"><ele>196.0</ele><time>2026-05-03T10:57:01.284Z</time></trkpt><trkpt lat="42.2608233" lon="13.970285"><ele>196.0</ele><time>2026-05-03T10:57:02.284Z</time></trkpt><trkpt lat="42.2608683" lon="13.9704"><ele>196.0</ele><time>2026-05-03T10:57:03.284Z</time></trkpt><trkpt lat="42.2609117" lon="13.9705033"><ele>196.0</ele><time>2026-05-03T10:57:04.284Z</time></trkpt><trkpt lat="42.2609533" lon="13.9706033"><ele>196.0</ele><time>2026-05-03T10:57:05.284Z</time></trkpt><trkpt lat="42.2609883" lon="13.970705"><ele>195.99999999999997</ele><time>2026-05-03T10:57:06.284Z</time></trkpt><trkpt lat="42.26102" lon="13.97081"><ele>196.0</ele><time>2026-05-03T10:57:07.284Z</time></trkpt><trkpt lat="42.26106" lon="13.970925"><ele>196.0</ele><time>2026-05-03T10:57:08.284Z</time></trkpt><trkpt lat="42.261105" lon="13.9710467"><ele>196.0</ele><time>2026-05-03T10:57:09.285Z</time></trkpt><trkpt lat="42.2611433" lon="13.971135"><ele>195.99999999999997</ele><time>2026-05-03T10:57:10.284Z</time></trkpt><trkpt lat="42.2611783" lon="13.9712267"><ele>196.0</ele><time>2026-05-03T10:57:11.284Z</time></trkpt><trkpt lat="42.261205" lon="13.97131"><ele>197.0</ele><time>2026-05-03T10:57:12.284Z</time></trkpt><trkpt lat="42.26122" lon="13.97144"><ele>198.0</ele><time>2026-05-03T10:57:14.284Z</time></trkpt><trkpt lat="42.2612917" lon="13.9716017"><ele>199.0</ele><time>2026-05-03T10:57:16.284Z</time></trkpt><trkpt lat="42.2613483" lon="13.9717167"><ele>200.0</ele><time>2026-05-03T10:57:17.284Z</time></trkpt><trkpt lat="42.261395" lon="13.97182"><ele>201.0</ele><time>2026-05-03T10:57:18.284Z</time></trkpt><trkpt lat="42.26144" lon="13.971915"><ele>199.83333333333334</ele><time>2026-05-03T10:57:19.285Z</time></trkpt><trkpt lat="42.2614717" lon="13.971995"><ele>198.66666666666669</ele><time>2026-05-03T10:57:20.284Z</time></trkpt><trkpt lat="42.2614933" lon="13.9720783"><ele>197.5</ele><time>2026-05-03T10:57:21.284Z</time></trkpt><trkpt lat="42.2615167" lon="13.9721667"><ele>196.33333333333334</ele><time>2026-05-03T10:57:22.284Z</time></trkpt><trkpt lat="42.2615433" lon="13.972275"><ele>195.16666666666669</ele><time>2026-05-03T10:57:23.284Z</time></trkpt><trkpt lat="42.2615783" lon="13.972385"><ele>194.0</ele><time>2026-05-03T10:57:24.284Z</time></trkpt><trkpt lat="42.2616217" lon="13.972495"><ele>193.83333333333334</ele><time>2026-05-03T10:57:25.284Z</time></trkpt><trkpt lat="42.2616767" lon="13.97261"><ele>193.66666666666669</ele><time>2026-05-03T10:57:26.284Z</time></trkpt><trkpt lat="42.2617267" lon="13.9727033"><ele>193.5</ele><time>2026-05-03T10:57:27.284Z</time></trkpt><trkpt lat="42.2617717" lon="13.9727817"><ele>193.33333333333331</ele><time>2026-05-03T10:57:28.284Z</time></trkpt><trkpt lat="42.2618183" lon="13.972875"><ele>193.16666666666666</ele><time>2026-05-03T10:57:29.284Z</time></trkpt><trkpt lat="42.2618433" lon="13.9729667"><ele>193.0</ele><time>2026-05-03T10:57:30.284Z</time></trkpt><trkpt lat="42.261865" lon="13.9730617"><ele>192.99999999999997</ele><time>2026-05-03T10:57:31.284Z</time></trkpt><trkpt lat="42.26189" lon="13.9731583"><ele>193.0</ele><time>2026-05-03T10:57:32.284Z</time></trkpt><trkpt lat="42.2619167" lon="13.9732467"><ele>193.0</ele><time>2026-05-03T10:57:33.284Z</time></trkpt><trkpt lat="42.2619567" lon="13.97333"><ele>193.0</ele><time>2026-05-03T10:57:34.284Z</time></trkpt><trkpt lat="42.2619817" lon="13.9734117"><ele>192.99999999999997</ele><time>2026-05-03T10:57:35.284Z</time></trkpt><trkpt lat="42.2620167" lon="13.9735717"><ele>193.0</ele><time>2026-05-03T10:57:37.284Z</time></trkpt><trkpt lat="42.2620633" lon="13.97371"><ele>192.66666666666666</ele><time>2026-05-03T10:57:39.284Z</time></trkpt><trkpt lat="42.2621" lon="13.9737883"><ele>192.33333333333331</ele><time>2026-05-03T10:57:40.284Z</time></trkpt><trkpt lat="42.26214" lon="13.97387"><ele>192.0</ele><time>2026-05-03T10:57:41.284Z</time></trkpt><trkpt lat="42.2621767" lon="13.9739567"><ele>191.66666666666666</ele><time>2026-05-03T10:57:42.284Z</time></trkpt><trkpt lat="42.2622133" lon="13.9740383"><ele>191.33333333333331</ele><time>2026-05-03T10:57:43.284Z</time></trkpt><trkpt lat="42.2622533" lon="13.9741367"><ele>191.0</ele><time>2026-05-03T10:57:44.285Z</time></trkpt><trkpt lat="42.262295" lon="13.9742667"><ele>191.0</ele><time>2026-05-03T10:57:45.284Z</time></trkpt><trkpt lat="42.2623483" lon="13.974375"><ele>191.0</ele><time>2026-05-03T10:57:46.284Z</time></trkpt><trkpt lat="42.2624033" lon="13.974485"><ele>191.0</ele><time>2026-05-03T10:57:47.284Z</time></trkpt><trkpt lat="42.2624167" lon="13.9746017"><ele>191.0</ele><time>2026-05-03T10:57:48.284Z</time></trkpt><trkpt lat="42.2624467" lon="13.9747283"><ele>191.0</ele><time>2026-05-03T10:57:49.284Z</time></trkpt><trkpt lat="42.26247" lon="13.9748683"><ele>193.5</ele><time>2026-05-03T10:57:50.284Z</time></trkpt><trkpt lat="42.2625017" lon="13.9750333"><ele>196.0</ele><time>2026-05-03T10:57:51.285Z</time></trkpt><trkpt lat="42.2625383" lon="13.9752033"><ele>198.5</ele><time>2026-05-03T10:57:52.284Z</time></trkpt><trkpt lat="42.262575" lon="13.9753867"><ele>201.0</ele><time>2026-05-03T10:57:53.285Z</time></trkpt><trkpt lat="42.2625967" lon="13.975535"><ele>201.0</ele><time>2026-05-03T10:57:54.284Z</time></trkpt><trkpt lat="42.2626217" lon="13.9756383"><ele>201.0</ele><time>2026-05-03T10:57:55.284Z</time></trkpt><trkpt lat="42.26264" lon="13.975725"><ele>201.0</ele><time>2026-05-03T10:57:56.284Z</time></trkpt><trkpt lat="42.26263" lon="13.975815"><ele>201.0</ele><time>2026-05-03T10:57:57.284Z</time></trkpt><trkpt lat="42.2625883" lon="13.9759383"><ele>201.0</ele><time>2026-05-03T10:57:59.284Z</time></trkpt><trkpt lat="42.2625183" lon="13.9760517"><ele>201.0</ele><time>2026-05-03T10:58:01.284Z</time></trkpt><trkpt lat="42.262475" lon="13.9761683"><ele>203.0</ele><time>2026-05-03T10:58:03.284Z</time></trkpt><trkpt lat="42.2624867" lon="13.9763267"><ele>205.0</ele><time>2026-05-03T10:58:05.285Z</time></trkpt><trkpt lat="42.262495" lon="13.97644"><ele>207.0</ele><time>2026-05-03T10:58:06.284Z</time></trkpt><trkpt lat="42.26251" lon="13.9765933"><ele>209.0</ele><time>2026-05-03T10:58:07.284Z</time></trkpt><trkpt lat="42.26257" lon="13.976795"><ele>211.33333333333334</ele><time>2026-05-03T10:58:08.285Z</time></trkpt><trkpt lat="42.262625" lon="13.9770267"><ele>213.66666666666669</ele><time>2026-05-03T10:58:09.284Z</time></trkpt><trkpt lat="42.2626917" lon="13.977265"><ele>216.0</ele><time>2026-05-03T10:58:10.284Z</time></trkpt><trkpt lat="42.2627567" lon="13.9775083"><ele>218.66666666666669</ele><time>2026-05-03T10:58:11.284Z</time></trkpt><trkpt lat="42.2628233" lon="13.9777267"><ele>221.33333333333334</ele><time>2026-05-03T10:58:12.284Z</time></trkpt><trkpt lat="42.2628733" lon="13.9779383"><ele>224.0</ele><time>2026-05-03T10:58:13.284Z</time></trkpt><trkpt lat="42.26291" lon="13.9781333"><ele>224.0</ele><time>2026-05-03T10:58:14.284Z</time></trkpt><trkpt lat="42.2629367" lon="13.978325"><ele>224.0</ele><time>2026-05-03T10:58:15.284Z</time></trkpt><trkpt lat="42.2629717" lon="13.97852"><ele>224.0</ele><time>2026-05-03T10:58:16.284Z</time></trkpt><trkpt lat="42.2629817" lon="13.9786933"><ele>224.0</ele><time>2026-05-03T10:58:17.284Z</time></trkpt><trkpt lat="42.2629883" lon="13.9788483"><ele>225.2</ele><time>2026-05-03T10:58:18.284Z</time></trkpt><trkpt lat="42.2629917" lon="13.978995"><ele>226.39999999999998</ele><time>2026-05-03T10:58:19.284Z</time></trkpt><trkpt lat="42.262995" lon="13.97913"><ele>227.6</ele><time>2026-05-03T10:58:20.284Z</time></trkpt><trkpt lat="42.2630017" lon="13.979255"><ele>228.8</ele><time>2026-05-03T10:58:21.284Z</time></trkpt><trkpt lat="42.263" lon="13.9793517"><ele>230.0</ele><time>2026-05-03T10:58:22.285Z</time></trkpt><trkpt lat="42.2630117" lon="13.9794917"><ele>230.16666666666669</ele><time>2026-05-03T10:58:24.284Z</time></trkpt><trkpt lat="42.2631" lon="13.9796"><ele>230.33333333333334</ele><time>2026-05-03T10:58:26.285Z</time></trkpt><trkpt lat="42.263145" lon="13.9796667"><ele>230.5</ele><time>2026-05-03T10:58:27.284Z</time></trkpt><trkpt lat="42.2632033" lon="13.9797317"><ele>230.66666666666669</ele><time>2026-05-03T10:58:28.284Z</time></trkpt><trkpt lat="42.26326" lon="13.9798217"><ele>230.83333333333334</ele><time>2026-05-03T10:58:29.284Z</time></trkpt><trkpt lat="42.26331" lon="13.979925"><ele>231.0</ele><time>2026-05-03T10:58:30.284Z</time></trkpt><trkpt lat="42.2633567" lon="13.9800367"><ele>228.20000000000002</ele><time>2026-05-03T10:58:31.284Z</time></trkpt><trkpt lat="42.2633917" lon="13.9801733"><ele>225.40000000000003</ele><time>2026-05-03T10:58:32.284Z</time></trkpt><trkpt lat="42.263425" lon="13.98033"><ele>222.6</ele><time>2026-05-03T10:58:33.284Z</time></trkpt><trkpt lat="42.2634317" lon="13.9804583"><ele>219.8</ele><time>2026-05-03T10:58:34.285Z</time></trkpt><trkpt lat="42.2634267" lon="13.9805733"><ele>217.0</ele><time>2026-05-03T10:58:35.284Z</time></trkpt><trkpt lat="42.2634117" lon="13.9806817"><ele>216.99999999999997</ele><time>2026-05-03T10:58:36.284Z</time></trkpt><trkpt lat="42.26339" lon="13.98079"><ele>217.0</ele><time>2026-05-03T10:58:37.285Z</time></trkpt><trkpt lat="42.2633717" lon="13.9808967"><ele>217.0</ele><time>2026-05-03T10:58:38.284Z</time></trkpt><trkpt lat="42.2633667" lon="13.9810083"><ele>217.0</ele><time>2026-05-03T10:58:39.284Z</time></trkpt><trkpt lat="42.2633933" lon="13.9811217"><ele>216.99999999999997</ele><time>2026-05-03T10:58:40.284Z</time></trkpt><trkpt lat="42.2634067" lon="13.9812083"><ele>217.0</ele><time>2026-05-03T10:58:41.284Z</time></trkpt><trkpt lat="42.2634433" lon="13.9812883"><ele>217.2</ele><time>2026-05-03T10:58:43.285Z</time></trkpt><trkpt lat="42.2635267" lon="13.9813117"><ele>217.39999999999998</ele><time>2026-05-03T10:58:45.284Z</time></trkpt><trkpt lat="42.263595" lon="13.981285"><ele>217.60000000000002</ele><time>2026-05-03T10:58:46.284Z</time></trkpt><trkpt lat="42.2637133" lon="13.9811983"><ele>217.8</ele><time>2026-05-03T10:58:48.284Z</time></trkpt><trkpt lat="42.2638033" lon="13.9811067"><ele>218.0</ele><time>2026-05-03T10:58:50.284Z</time></trkpt><trkpt lat="42.2639017" lon="13.9810233"><ele>215.83333333333334</ele><time>2026-05-03T10:58:52.284Z</time></trkpt><trkpt lat="42.2639917" lon="13.9810017"><ele>213.66666666666669</ele><time>2026-05-03T10:58:54.284Z</time></trkpt><trkpt lat="42.2640833" lon="13.981075"><ele>211.5</ele><time>2026-05-03T10:58:56.284Z</time></trkpt><trkpt lat="42.2641167" lon="13.9811533"><ele>209.33333333333331</ele><time>2026-05-03T10:58:57.284Z</time></trkpt><trkpt lat="42.264155" lon="13.9812433"><ele>207.16666666666666</ele><time>2026-05-03T10:58:58.284Z</time></trkpt><trkpt lat="42.2641967" lon="13.9813333"><ele>205.0</ele><time>2026-05-03T10:58:59.284Z</time></trkpt><trkpt lat="42.2642483" lon="13.9814217"><ele>204.99999999999997</ele><time>2026-05-03T10:59:00.284Z</time></trkpt><trkpt lat="42.2642967" lon="13.9814983"><ele>205.0</ele><time>2026-05-03T10:59:01.284Z</time></trkpt><trkpt lat="42.264395" lon="13.9815817"><ele>205.0</ele><time>2026-05-03T10:59:03.284Z</time></trkpt><trkpt lat="42.264495" lon="13.981645"><ele>205.0</ele><time>2026-05-03T10:59:05.284Z</time></trkpt><trkpt lat="42.2645517" lon="13.981695"><ele>204.99999999999997</ele><time>2026-05-03T10:59:06.284Z</time></trkpt><trkpt lat="42.2646117" lon="13.9817633"><ele>205.0</ele><time>2026-05-03T10:59:07.284Z</time></trkpt><trkpt lat="42.2646533" lon="13.9818533"><ele>205.0</ele><time>2026-05-03T10:59:08.284Z</time></trkpt><trkpt lat="42.2646867" lon="13.9819417"><ele>205.0</ele><time>2026-05-03T10:59:09.284Z</time></trkpt><trkpt lat="42.2647217" lon="13.98202"><ele>205.0</ele><time>2026-05-03T10:59:10.284Z</time></trkpt><trkpt lat="42.264745" lon="13.982115"><ele>205.0</ele><time>2026-05-03T10:59:11.284Z</time></trkpt><trkpt lat="42.2647583" lon="13.98221"><ele>205.0</ele><time>2026-05-03T10:59:12.284Z</time></trkpt><trkpt lat="42.2647733" lon="13.9823083"><ele>205.0</ele><time>2026-05-03T10:59:13.285Z</time></trkpt><trkpt lat="42.2647817" lon="13.9824"><ele>205.0</ele><time>2026-05-03T10:59:14.285Z</time></trkpt><trkpt lat="42.26481" lon="13.98256"><ele>202.33333333333331</ele><time>2026-05-03T10:59:16.284Z</time></trkpt><trkpt lat="42.2648333" lon="13.9827067"><ele>199.66666666666666</ele><time>2026-05-03T10:59:18.284Z</time></trkpt><trkpt lat="42.26485" lon="13.982805"><ele>197.0</ele><time>2026-05-03T10:59:19.284Z</time></trkpt><trkpt lat="42.26487" lon="13.9829233"><ele>194.33333333333331</ele><time>2026-05-03T10:59:20.284Z</time></trkpt><trkpt lat="42.2648783" lon="13.9830267"><ele>191.66666666666666</ele><time>2026-05-03T10:59:21.284Z</time></trkpt><trkpt lat="42.2648883" lon="13.9831317"><ele>189.0</ele><time>2026-05-03T10:59:22.284Z</time></trkpt><trkpt lat="42.2648917" lon="13.9832417"><ele>189.0</ele><time>2026-05-03T10:59:23.284Z</time></trkpt><trkpt lat="42.26489" lon="13.9833317"><ele>189.0</ele><time>2026-05-03T10:59:24.284Z</time></trkpt><trkpt lat="42.264895" lon="13.9834517"><ele>189.0</ele><time>2026-05-03T10:59:25.284Z</time></trkpt><trkpt lat="42.2649017" lon="13.9835533"><ele>189.0</ele><time>2026-05-03T10:59:26.284Z</time></trkpt><trkpt lat="42.264925" lon="13.98364"><ele>189.0</ele><time>2026-05-03T10:59:27.284Z</time></trkpt><trkpt lat="42.264955" lon="13.9837867"><ele>189.0</ele><time>2026-05-03T10:59:29.284Z</time></trkpt><trkpt lat="42.2650083" lon="13.983895"><ele>188.33333333333334</ele><time>2026-05-03T10:59:31.284Z</time></trkpt><trkpt lat="42.2650783" lon="13.983925"><ele>187.66666666666666</ele><time>2026-05-03T10:59:33.284Z</time></trkpt><trkpt lat="42.2651817" lon="13.98384"><ele>187.0</ele><time>2026-05-03T10:59:35.284Z</time></trkpt><trkpt lat="42.2652317" lon="13.9837617"><ele>186.33333333333331</ele><time>2026-05-03T10:59:36.284Z</time></trkpt><trkpt lat="42.2652533" lon="13.983675"><ele>185.66666666666666</ele><time>2026-05-03T10:59:37.284Z</time></trkpt><trkpt lat="42.2652617" lon="13.98357"><ele>185.0</ele><time>2026-05-03T10:59:38.284Z</time></trkpt><trkpt lat="42.265255" lon="13.9834633"><ele>185.8</ele><time>2026-05-03T10:59:39.284Z</time></trkpt><trkpt lat="42.2652433" lon="13.9833433"><ele>186.6</ele><time>2026-05-03T10:59:40.284Z</time></trkpt><trkpt lat="42.26523" lon="13.9832217"><ele>187.39999999999998</ele><time>2026-05-03T10:59:41.284Z</time></trkpt><trkpt lat="42.26521" lon="13.9830917"><ele>188.2</ele><time>2026-05-03T10:59:42.284Z</time></trkpt><trkpt lat="42.2652017" lon="13.9829633"><ele>189.0</ele><time>2026-05-03T10:59:43.284Z</time></trkpt><trkpt lat="42.2652067" lon="13.9828433"><ele>189.0</ele><time>2026-05-03T10:59:44.284Z</time></trkpt><trkpt lat="42.2652367" lon="13.98273"><ele>189.0</ele><time>2026-05-03T10:59:45.284Z</time></trkpt><trkpt lat="42.2652667" lon="13.9826183"><ele>189.0</ele><time>2026-05-03T10:59:46.284Z</time></trkpt><trkpt lat="42.2652967" lon="13.9825183"><ele>189.0</ele><time>2026-05-03T10:59:47.284Z</time></trkpt><trkpt lat="42.2653383" lon="13.982425"><ele>189.0</ele><time>2026-05-03T10:59:48.284Z</time></trkpt><trkpt lat="42.26537" lon="13.9823417"><ele>189.0</ele><time>2026-05-03T10:59:49.284Z</time></trkpt><trkpt lat="42.2654083" lon="13.9822617"><ele>189.0</ele><time>2026-05-03T10:59:50.285Z</time></trkpt><trkpt lat="42.2655017" lon="13.9821633"><ele>189.0</ele><time>2026-05-03T10:59:52.284Z</time></trkpt><trkpt lat="42.2655983" lon="13.9821333"><ele>189.0</ele><time>2026-05-03T10:59:54.284Z</time></trkpt><trkpt lat="42.2656533" lon="13.9821833"><ele>189.0</ele><time>2026-05-03T10:59:55.284Z</time></trkpt><trkpt lat="42.2657167" lon="13.9822683"><ele>189.0</ele><time>2026-05-03T10:59:56.284Z</time></trkpt><trkpt lat="42.26578" lon="13.982365"><ele>184.75</ele><time>2026-05-03T10:59:57.285Z</time></trkpt><trkpt lat="42.26586" lon="13.98247"><ele>180.5</ele><time>2026-05-03T10:59:58.284Z</time></trkpt><trkpt lat="42.26596" lon="13.98259"><ele>176.25</ele><time>2026-05-03T10:59:59.284Z</time></trkpt><trkpt lat="42.26605" lon="13.9826933"><ele>172.0</ele><time>2026-05-03T11:00:00.284Z</time></trkpt><trkpt lat="42.2661417" lon="13.9827883"><ele>172.0</ele><time>2026-05-03T11:00:01.284Z</time></trkpt><trkpt lat="42.26624" lon="13.98286"><ele>172.0</ele><time>2026-05-03T11:00:02.284Z</time></trkpt><trkpt lat="42.2663433" lon="13.9828933"><ele>172.0</ele><time>2026-05-03T11:00:03.284Z</time></trkpt><trkpt lat="42.266455" lon="13.9829"><ele>172.0</ele><time>2026-05-03T11:00:04.284Z</time></trkpt><trkpt lat="42.26657" lon="13.9828883"><ele>172.0</ele><time>2026-05-03T11:00:05.284Z</time></trkpt><trkpt lat="42.2666717" lon="13.9828917"><ele>170.66666666666669</ele><time>2026-05-03T11:00:06.284Z</time></trkpt><trkpt lat="42.2667517" lon="13.9829233"><ele>169.33333333333334</ele><time>2026-05-03T11:00:07.284Z</time></trkpt><trkpt lat="42.2668117" lon="13.9829583"><ele>168.0</ele><time>2026-05-03T11:00:08.284Z</time></trkpt><trkpt lat="42.2668583" lon="13.9830283"><ele>166.66666666666666</ele><time>2026-05-03T11:00:09.284Z</time></trkpt><trkpt lat="42.2668917" lon="13.98311"><ele>165.33333333333331</ele><time>2026-05-03T11:00:10.284Z</time></trkpt><trkpt lat="42.26691" lon="13.983225"><ele>164.0</ele><time>2026-05-03T11:00:11.285Z</time></trkpt><trkpt lat="42.266945" lon="13.9833967"><ele>164.0</ele><time>2026-05-03T11:00:12.284Z</time></trkpt><trkpt lat="42.2669483" lon="13.9835967"><ele>164.0</ele><time>2026-05-03T11:00:13.284Z</time></trkpt><trkpt lat="42.2669483" lon="13.983825"><ele>164.0</ele><time>2026-05-03T11:00:14.284Z</time></trkpt><trkpt lat="42.2669717" lon="13.9841067"><ele>162.33333333333331</ele><time>2026-05-03T11:00:15.284Z</time></trkpt><trkpt lat="42.2670067" lon="13.9843917"><ele>160.66666666666666</ele><time>2026-05-03T11:00:16.284Z</time></trkpt><trkpt lat="42.2670583" lon="13.9846733"><ele>159.0</ele><time>2026-05-03T11:00:17.284Z</time></trkpt><trkpt lat="42.2670733" lon="13.9849567"><ele>157.0</ele><time>2026-05-03T11:00:18.284Z</time></trkpt><trkpt lat="42.2670917" lon="13.9852267"><ele>155.0</ele><time>2026-05-03T11:00:19.285Z</time></trkpt><trkpt lat="42.2670883" lon="13.9854767"><ele>153.0</ele><time>2026-05-03T11:00:20.284Z</time></trkpt><trkpt lat="42.2670917" lon="13.98573"><ele>151.33333333333334</ele><time>2026-05-03T11:00:21.284Z</time></trkpt><trkpt lat="42.26707" lon="13.98599"><ele>149.66666666666669</ele><time>2026-05-03T11:00:22.284Z</time></trkpt><trkpt lat="42.2670233" lon="13.986245"><ele>148.0</ele><time>2026-05-03T11:00:23.284Z</time></trkpt><trkpt lat="42.267005" lon="13.9865167"><ele>146.0</ele><time>2026-05-03T11:00:24.284Z</time></trkpt><trkpt lat="42.266935" lon="13.9867683"><ele>144.0</ele><time>2026-05-03T11:00:25.284Z</time></trkpt><trkpt lat="42.2668733" lon="13.986995"><ele>142.0</ele><time>2026-05-03T11:00:26.284Z</time></trkpt><trkpt lat="42.2668217" lon="13.9872183"><ele>142.0</ele><time>2026-05-03T11:00:27.284Z</time></trkpt><trkpt lat="42.2667767" lon="13.9874367"><ele>142.0</ele><time>2026-05-03T11:00:28.284Z</time></trkpt><trkpt lat="42.2667233" lon="13.9876417"><ele>142.0</ele><time>2026-05-03T11:00:29.284Z</time></trkpt><trkpt lat="42.2666717" lon="13.9878433"><ele>140.33333333333334</ele><time>2026-05-03T11:00:30.285Z</time></trkpt><trkpt lat="42.266635" lon="13.9880517"><ele>138.66666666666666</ele><time>2026-05-03T11:00:31.284Z</time></trkpt><trkpt lat="42.2666117" lon="13.9882633"><ele>137.0</ele><time>2026-05-03T11:00:32.284Z</time></trkpt><trkpt lat="42.2665933" lon="13.988485"><ele>135.33333333333331</ele><time>2026-05-03T11:00:33.284Z</time></trkpt><trkpt lat="42.2666133" lon="13.9887183"><ele>133.66666666666666</ele><time>2026-05-03T11:00:34.284Z</time></trkpt><trkpt lat="42.2666283" lon="13.988955"><ele>132.0</ele><time>2026-05-03T11:00:35.284Z</time></trkpt><trkpt lat="42.26665" lon="13.9891983"><ele>132.0</ele><time>2026-05-03T11:00:36.285Z</time></trkpt><trkpt lat="42.2666767" lon="13.9894433"><ele>132.0</ele><time>2026-05-03T11:00:37.284Z</time></trkpt><trkpt lat="42.2667117" lon="13.98967"><ele>132.0</ele><time>2026-05-03T11:00:38.284Z</time></trkpt><trkpt lat="42.2667517" lon="13.9898833"><ele>131.66666666666666</ele><time>2026-05-03T11:00:39.285Z</time></trkpt><trkpt lat="42.266785" lon="13.9901083"><ele>131.33333333333331</ele><time>2026-05-03T11:00:40.285Z</time></trkpt><trkpt lat="42.2668283" lon="13.99033"><ele>131.0</ele><time>2026-05-03T11:00:41.284Z</time></trkpt><trkpt lat="42.2668367" lon="13.9905533"><ele>131.0</ele><time>2026-05-03T11:00:42.284Z</time></trkpt><trkpt lat="42.2668317" lon="13.9907783"><ele>131.0</ele><time>2026-05-03T11:00:43.284Z</time></trkpt><trkpt lat="42.266815" lon="13.9910167"><ele>131.0</ele><time>2026-05-03T11:00:44.284Z</time></trkpt><trkpt lat="42.266785" lon="13.991245"><ele>129.0</ele><time>2026-05-03T11:00:45.284Z</time></trkpt><trkpt lat="42.2667533" lon="13.9914783"><ele>127.0</ele><time>2026-05-03T11:00:46.284Z</time></trkpt><trkpt lat="42.2667267" lon="13.9917183"><ele>125.0</ele><time>2026-05-03T11:00:47.284Z</time></trkpt><trkpt lat="42.2667067" lon="13.9919567"><ele>123.33333333333333</ele><time>2026-05-03T11:00:48.284Z</time></trkpt><trkpt lat="42.2666667" lon="13.9921767"><ele>121.66666666666666</ele><time>2026-05-03T11:00:49.284Z</time></trkpt><trkpt lat="42.2666267" lon="13.9923967"><ele>120.0</ele><time>2026-05-03T11:00:50.284Z</time></trkpt><trkpt lat="42.266595" lon="13.9926067"><ele>119.5</ele><time>2026-05-03T11:00:51.285Z</time></trkpt><trkpt lat="42.2665567" lon="13.992815"><ele>119.0</ele><time>2026-05-03T11:00:52.284Z</time></trkpt><trkpt lat="42.2665317" lon="13.9930033"><ele>118.5</ele><time>2026-05-03T11:00:53.284Z</time></trkpt><trkpt lat="42.266485" lon="13.9931833"><ele>118.0</ele><time>2026-05-03T11:00:54.284Z</time></trkpt><trkpt lat="42.2664517" lon="13.9933767"><ele>121.0</ele><time>2026-05-03T11:00:55.285Z</time></trkpt><trkpt lat="42.266405" lon="13.9935667"><ele>124.0</ele><time>2026-05-03T11:00:56.284Z</time></trkpt><trkpt lat="42.2663717" lon="13.993745"><ele>127.0</ele><time>2026-05-03T11:00:57.284Z</time></trkpt><trkpt lat="42.26635" lon="13.9939183"><ele>130.0</ele><time>2026-05-03T11:00:58.284Z</time></trkpt><trkpt lat="42.26632" lon="13.9940767"><ele>128.8</ele><time>2026-05-03T11:00:59.284Z</time></trkpt><trkpt lat="42.266305" lon="13.99424"><ele>127.6</ele><time>2026-05-03T11:01:00.284Z</time></trkpt><trkpt lat="42.266285" lon="13.99438"><ele>126.4</ele><time>2026-05-03T11:01:01.284Z</time></trkpt><trkpt lat="42.26626" lon="13.99451"><ele>125.2</ele><time>2026-05-03T11:01:02.284Z</time></trkpt><trkpt lat="42.2662217" lon="13.99464"><ele>124.0</ele><time>2026-05-03T11:01:03.284Z</time></trkpt><trkpt lat="42.266185" lon="13.9947667"><ele>124.00000000000001</ele><time>2026-05-03T11:01:04.284Z</time></trkpt><trkpt lat="42.2661533" lon="13.994885"><ele>124.0</ele><time>2026-05-03T11:01:05.284Z</time></trkpt><trkpt lat="42.266115" lon="13.99499"><ele>124.0</ele><time>2026-05-03T11:01:06.284Z</time></trkpt><trkpt lat="42.2660617" lon="13.9950883"><ele>124.0</ele><time>2026-05-03T11:01:07.284Z</time></trkpt><trkpt lat="42.266025" lon="13.9951967"><ele>124.00000000000001</ele><time>2026-05-03T11:01:08.284Z</time></trkpt><trkpt lat="42.26601" lon="13.99531"><ele>124.0</ele><time>2026-05-03T11:01:09.284Z</time></trkpt><trkpt lat="42.2660067" lon="13.995455"><ele>123.5</ele><time>2026-05-03T11:01:10.284Z</time></trkpt><trkpt lat="42.2660067" lon="13.9956117"><ele>123.0</ele><time>2026-05-03T11:01:11.284Z</time></trkpt><trkpt lat="42.266025" lon="13.9957967"><ele>122.5</ele><time>2026-05-03T11:01:12.284Z</time></trkpt><trkpt lat="42.2659883" lon="13.99596"><ele>122.0</ele><time>2026-05-03T11:01:13.284Z</time></trkpt><trkpt lat="42.2659683" lon="13.9961233"><ele>121.5</ele><time>2026-05-03T11:01:14.284Z</time></trkpt><trkpt lat="42.26594" lon="13.9962767"><ele>121.0</ele><time>2026-05-03T11:01:15.285Z</time></trkpt><trkpt lat="42.2659117" lon="13.9964267"><ele>120.5</ele><time>2026-05-03T11:01:16.284Z</time></trkpt><trkpt lat="42.26589" lon="13.9965817"><ele>120.0</ele><time>2026-05-03T11:01:17.284Z</time></trkpt><trkpt lat="42.2658633" lon="13.99674"><ele>120.0</ele><time>2026-05-03T11:01:18.284Z</time></trkpt><trkpt lat="42.2658267" lon="13.9968967"><ele>120.0</ele><time>2026-05-03T11:01:19.284Z</time></trkpt><trkpt lat="42.2657967" lon="13.99706"><ele>120.0</ele><time>2026-05-03T11:01:20.284Z</time></trkpt><trkpt lat="42.2657717" lon="13.99723"><ele>120.0</ele><time>2026-05-03T11:01:21.284Z</time></trkpt><trkpt lat="42.2657467" lon="13.9974117"><ele>119.5</ele><time>2026-05-03T11:01:22.284Z</time></trkpt><trkpt lat="42.2657117" lon="13.997585"><ele>119.0</ele><time>2026-05-03T11:01:23.284Z</time></trkpt><trkpt lat="42.265665" lon="13.9977533"><ele>118.5</ele><time>2026-05-03T11:01:24.284Z</time></trkpt><trkpt lat="42.2656183" lon="13.997925"><ele>118.0</ele><time>2026-05-03T11:01:25.284Z</time></trkpt><trkpt lat="42.265565" lon="13.9981083"><ele>117.66666666666667</ele><time>2026-05-03T11:01:26.284Z</time></trkpt><trkpt lat="42.2654883" lon="13.9982983"><ele>117.33333333333334</ele><time>2026-05-03T11:01:27.284Z</time></trkpt><trkpt lat="42.26539" lon="13.99849"><ele>117.0</ele><time>2026-05-03T11:01:28.284Z</time></trkpt><trkpt lat="42.26528" lon="13.9986733"><ele>117.0</ele><time>2026-05-03T11:01:29.283Z</time></trkpt><trkpt lat="42.2651433" lon="13.9988383"><ele>117.0</ele><time>2026-05-03T11:01:30.283Z</time></trkpt><trkpt lat="42.2649967" lon="13.9989983"><ele>117.0</ele><time>2026-05-03T11:01:31.283Z</time></trkpt><trkpt lat="42.2648283" lon="13.999155"><ele>117.33333333333334</ele><time>2026-05-03T11:01:32.283Z</time></trkpt><trkpt lat="42.2646817" lon="13.9993117"><ele>117.66666666666667</ele><time>2026-05-03T11:01:33.283Z</time></trkpt><trkpt lat="42.26452" lon="13.999465"><ele>118.0</ele><time>2026-05-03T11:01:34.283Z</time></trkpt><trkpt lat="42.2643883" lon="13.9996133"><ele>118.0</ele><time>2026-05-03T11:01:35.283Z</time></trkpt><trkpt lat="42.2642383" lon="13.9997533"><ele>118.0</ele><time>2026-05-03T11:01:36.284Z</time></trkpt><trkpt lat="42.2641" lon="13.999895"><ele>118.0</ele><time>2026-05-03T11:01:37.283Z</time></trkpt><trkpt lat="42.263965" lon="14.0000383"><ele>119.66666666666667</ele><time>2026-05-03T11:01:38.283Z</time></trkpt><trkpt lat="42.2638267" lon="14.000175"><ele>121.33333333333334</ele><time>2026-05-03T11:01:39.283Z</time></trkpt><trkpt lat="42.2636833" lon="14.000305"><ele>123.0</ele><time>2026-05-03T11:01:40.283Z</time></trkpt><trkpt lat="42.26354" lon="14.00044"><ele>123.0</ele><time>2026-05-03T11:01:41.283Z</time></trkpt><trkpt lat="42.2634133" lon="14.0006167"><ele>123.0</ele><time>2026-05-03T11:01:42.283Z</time></trkpt><trkpt lat="42.2633117" lon="14.0008067"><ele>123.0</ele><time>2026-05-03T11:01:43.283Z</time></trkpt><trkpt lat="42.2632433" lon="14.0010117"><ele>120.66666666666666</ele><time>2026-05-03T11:01:44.283Z</time></trkpt><trkpt lat="42.2632133" lon="14.001225"><ele>118.33333333333333</ele><time>2026-05-03T11:01:45.283Z</time></trkpt><trkpt lat="42.2631967" lon="14.001445"><ele>116.0</ele><time>2026-05-03T11:01:46.283Z</time></trkpt><trkpt lat="42.2632033" lon="14.0016633"><ele>114.33333333333333</ele><time>2026-05-03T11:01:47.283Z</time></trkpt><trkpt lat="42.2632417" lon="14.00187"><ele>112.66666666666666</ele><time>2026-05-03T11:01:48.283Z</time></trkpt><trkpt lat="42.2633" lon="14.0020617"><ele>111.0</ele><time>2026-05-03T11:01:49.283Z</time></trkpt><trkpt lat="42.2633783" lon="14.0022517"><ele>111.0</ele><time>2026-05-03T11:01:50.283Z</time></trkpt><trkpt lat="42.2634583" lon="14.0024283"><ele>111.0</ele><time>2026-05-03T11:01:51.283Z</time></trkpt><trkpt lat="42.2635383" lon="14.0025967"><ele>111.0</ele><time>2026-05-03T11:01:52.283Z</time></trkpt><trkpt lat="42.26361" lon="14.0027517"><ele>111.0</ele><time>2026-05-03T11:01:53.283Z</time></trkpt><trkpt lat="42.2636867" lon="14.0029"><ele>110.6</ele><time>2026-05-03T11:01:54.283Z</time></trkpt><trkpt lat="42.2637583" lon="14.0030417"><ele>110.19999999999999</ele><time>2026-05-03T11:01:55.283Z</time></trkpt><trkpt lat="42.263825" lon="14.0031667"><ele>109.80000000000001</ele><time>2026-05-03T11:01:56.283Z</time></trkpt><trkpt lat="42.263875" lon="14.003295"><ele>109.4</ele><time>2026-05-03T11:01:57.283Z</time></trkpt><trkpt lat="42.26392" lon="14.0034017"><ele>109.0</ele><time>2026-05-03T11:01:58.283Z</time></trkpt><trkpt lat="42.2639567" lon="14.0035083"><ele>109.0</ele><time>2026-05-03T11:01:59.283Z</time></trkpt><trkpt lat="42.2639717" lon="14.0036033"><ele>109.0</ele><time>2026-05-03T11:02:00.283Z</time></trkpt><trkpt lat="42.26396" lon="14.0037"><ele>109.0</ele><time>2026-05-03T11:02:01.283Z</time></trkpt><trkpt lat="42.2639533" lon="14.003795"><ele>109.0</ele><time>2026-05-03T11:02:02.283Z</time></trkpt><trkpt lat="42.2639483" lon="14.003885"><ele>109.0</ele><time>2026-05-03T11:02:03.283Z</time></trkpt><trkpt lat="42.2639617" lon="14.0039717"><ele>109.0</ele><time>2026-05-03T11:02:04.283Z</time></trkpt><trkpt lat="42.2639917" lon="14.0040517"><ele>109.0</ele><time>2026-05-03T11:02:05.283Z</time></trkpt><trkpt lat="42.2640433" lon="14.0041067"><ele>109.2</ele><time>2026-05-03T11:02:06.283Z</time></trkpt><trkpt lat="42.264115" lon="14.0041633"><ele>109.4</ele><time>2026-05-03T11:02:07.283Z</time></trkpt><trkpt lat="42.2642067" lon="14.0042517"><ele>109.6</ele><time>2026-05-03T11:02:08.283Z</time></trkpt><trkpt lat="42.2642833" lon="14.0043683"><ele>109.8</ele><time>2026-05-03T11:02:09.283Z</time></trkpt><trkpt lat="42.26434" lon="14.004465"><ele>110.0</ele><time>2026-05-03T11:02:10.283Z</time></trkpt><trkpt lat="42.2643917" lon="14.0045533"><ele>109.99999999999999</ele><time>2026-05-03T11:02:11.283Z</time></trkpt><trkpt lat="42.2644267" lon="14.004635"><ele>110.0</ele><time>2026-05-03T11:02:12.284Z</time></trkpt><trkpt lat="42.2644683" lon="14.0047167"><ele>110.0</ele><time>2026-05-03T11:02:13.283Z</time></trkpt><trkpt lat="42.264515" lon="14.0048017"><ele>110.0</ele><time>2026-05-03T11:02:14.283Z</time></trkpt><trkpt lat="42.2645533" lon="14.0048983"><ele>109.99999999999999</ele><time>2026-05-03T11:02:15.283Z</time></trkpt><trkpt lat="42.2646017" lon="14.0050067"><ele>110.0</ele><time>2026-05-03T11:02:16.283Z</time></trkpt><trkpt lat="42.2646683" lon="14.00512"><ele>109.0</ele><time>2026-05-03T11:02:17.283Z</time></trkpt><trkpt lat="42.2647083" lon="14.00523"><ele>108.0</ele><time>2026-05-03T11:02:18.283Z</time></trkpt><trkpt lat="42.2647583" lon="14.0053483"><ele>107.0</ele><time>2026-05-03T11:02:19.283Z</time></trkpt><trkpt lat="42.2648033" lon="14.005455"><ele>106.0</ele><time>2026-05-03T11:02:20.283Z</time></trkpt><trkpt lat="42.264845" lon="14.0055583"><ele>105.0</ele><time>2026-05-03T11:02:21.283Z</time></trkpt><trkpt lat="42.2648867" lon="14.0056717"><ele>105.0</ele><time>2026-05-03T11:02:22.283Z</time></trkpt><trkpt lat="42.26493" lon="14.0057733"><ele>105.0</ele><time>2026-05-03T11:02:23.283Z</time></trkpt><trkpt lat="42.2649767" lon="14.00588"><ele>105.0</ele><time>2026-05-03T11:02:24.283Z</time></trkpt><trkpt lat="42.2650183" lon="14.0059817"><ele>105.0</ele><time>2026-05-03T11:02:25.283Z</time></trkpt><trkpt lat="42.26506" lon="14.006085"><ele>105.0</ele><time>2026-05-03T11:02:26.284Z</time></trkpt><trkpt lat="42.2651067" lon="14.006185"><ele>105.0</ele><time>2026-05-03T11:02:27.284Z</time></trkpt><trkpt lat="42.2651567" lon="14.0062817"><ele>104.4</ele><time>2026-05-03T11:02:28.284Z</time></trkpt><trkpt lat="42.2651983" lon="14.0063767"><ele>103.8</ele><time>2026-05-03T11:02:29.284Z</time></trkpt><trkpt lat="42.2652483" lon="14.006485"><ele>103.19999999999999</ele><time>2026-05-03T11:02:30.283Z</time></trkpt><trkpt lat="42.2653083" lon="14.0065967"><ele>102.6</ele><time>2026-05-03T11:02:31.283Z</time></trkpt><trkpt lat="42.26536" lon="14.0067217"><ele>102.0</ele><time>2026-05-03T11:02:32.283Z</time></trkpt><trkpt lat="42.2654083" lon="14.0068483"><ele>102.0</ele><time>2026-05-03T11:02:33.283Z</time></trkpt><trkpt lat="42.2654717" lon="14.0069883"><ele>102.0</ele><time>2026-05-03T11:02:34.283Z</time></trkpt><trkpt lat="42.2655333" lon="14.0071333"><ele>102.0</ele><time>2026-05-03T11:02:35.283Z</time></trkpt><trkpt lat="42.2656083" lon="14.00729"><ele>102.0</ele><time>2026-05-03T11:02:36.283Z</time></trkpt><trkpt lat="42.26568" lon="14.0074317"><ele>101.75</ele><time>2026-05-03T11:02:37.283Z</time></trkpt><trkpt lat="42.2657533" lon="14.0075517"><ele>101.5</ele><time>2026-05-03T11:02:38.283Z</time></trkpt><trkpt lat="42.26583" lon="14.007645"><ele>101.25</ele><time>2026-05-03T11:02:39.283Z</time></trkpt><trkpt lat="42.26592" lon="14.0077533"><ele>101.0</ele><time>2026-05-03T11:02:40.283Z</time></trkpt><trkpt lat="42.2660333" lon="14.00786"><ele>101.0</ele><time>2026-05-03T11:02:41.283Z</time></trkpt><trkpt lat="42.266135" lon="14.007965"><ele>101.0</ele><time>2026-05-03T11:02:42.283Z</time></trkpt><trkpt lat="42.2662133" lon="14.0080717"><ele>101.0</ele><time>2026-05-03T11:02:43.284Z</time></trkpt><trkpt lat="42.2662933" lon="14.0081633"><ele>101.0</ele><time>2026-05-03T11:02:44.284Z</time></trkpt><trkpt lat="42.26636" lon="14.00825"><ele>101.0</ele><time>2026-05-03T11:02:45.284Z</time></trkpt><trkpt lat="42.2664383" lon="14.008355"><ele>100.5</ele><time>2026-05-03T11:02:46.283Z</time></trkpt><trkpt lat="42.26652" lon="14.0084817"><ele>100.0</ele><time>2026-05-03T11:02:47.283Z</time></trkpt><trkpt lat="42.2665983" lon="14.008615"><ele>99.5</ele><time>2026-05-03T11:02:48.283Z</time></trkpt><trkpt lat="42.26669" lon="14.0087767"><ele>99.0</ele><time>2026-05-03T11:02:49.283Z</time></trkpt><trkpt lat="42.266765" lon="14.0089283"><ele>99.0</ele><time>2026-05-03T11:02:50.283Z</time></trkpt><trkpt lat="42.26683" lon="14.0090867"><ele>99.0</ele><time>2026-05-03T11:02:51.283Z</time></trkpt><trkpt lat="42.266895" lon="14.00924"><ele>99.0</ele><time>2026-05-03T11:02:52.283Z</time></trkpt><trkpt lat="42.2669567" lon="14.009375"><ele>99.0</ele><time>2026-05-03T11:02:53.284Z</time></trkpt><trkpt lat="42.2670133" lon="14.009505"><ele>99.16666666666667</ele><time>2026-05-03T11:02:54.283Z</time></trkpt><trkpt lat="42.2670667" lon="14.009625"><ele>99.33333333333334</ele><time>2026-05-03T11:02:55.283Z</time></trkpt><trkpt lat="42.2671117" lon="14.0097367"><ele>99.5</ele><time>2026-05-03T11:02:56.283Z</time></trkpt><trkpt lat="42.26715" lon="14.009845"><ele>99.66666666666667</ele><time>2026-05-03T11:02:57.283Z</time></trkpt><trkpt lat="42.2671833" lon="14.0099367"><ele>99.83333333333334</ele><time>2026-05-03T11:02:58.283Z</time></trkpt><trkpt lat="42.267215" lon="14.0100217"><ele>100.0</ele><time>2026-05-03T11:02:59.283Z</time></trkpt><trkpt lat="42.2672333" lon="14.0101767"><ele>100.00000000000001</ele><time>2026-05-03T11:03:01.283Z</time></trkpt><trkpt lat="42.2672167" lon="14.01027"><ele>100.0</ele><time>2026-05-03T11:03:02.284Z</time></trkpt><trkpt lat="42.2672" lon="14.0103667"><ele>100.0</ele><time>2026-05-03T11:03:03.283Z</time></trkpt><trkpt lat="42.2671767" lon="14.010455"><ele>100.0</ele><time>2026-05-03T11:03:04.283Z</time></trkpt><trkpt lat="42.2671217" lon="14.0105283"><ele>100.00000000000001</ele><time>2026-05-03T11:03:05.283Z</time></trkpt><trkpt lat="42.2670467" lon="14.0106267"><ele>100.0</ele><time>2026-05-03T11:03:07.283Z</time></trkpt><trkpt lat="42.2669833" lon="14.01068"><ele>100.0</ele><time>2026-05-03T11:03:09.283Z</time></trkpt><trkpt lat="42.2668783" lon="14.0107583"><ele>100.0</ele><time>2026-05-03T11:03:11.283Z</time></trkpt><trkpt lat="42.2668117" lon="14.0108117"><ele>100.0</ele><time>2026-05-03T11:03:12.284Z</time></trkpt><trkpt lat="42.266735" lon="14.0108733"><ele>100.0</ele><time>2026-05-03T11:03:13.283Z</time></trkpt><trkpt lat="42.2666533" lon="14.0109367"><ele>100.0</ele><time>2026-05-03T11:03:14.283Z</time></trkpt><trkpt lat="42.2665633" lon="14.0110117"><ele>99.8</ele><time>2026-05-03T11:03:15.283Z</time></trkpt><trkpt lat="42.26647" lon="14.0110933"><ele>99.6</ele><time>2026-05-03T11:03:16.284Z</time></trkpt><trkpt lat="42.2663817" lon="14.0111733"><ele>99.4</ele><time>2026-05-03T11:03:17.283Z</time></trkpt><trkpt lat="42.26629" lon="14.0112517"><ele>99.2</ele><time>2026-05-03T11:03:18.283Z</time></trkpt><trkpt lat="42.266195" lon="14.01133"><ele>99.0</ele><time>2026-05-03T11:03:19.283Z</time></trkpt><trkpt lat="42.2661033" lon="14.0114133"><ele>99.25</ele><time>2026-05-03T11:03:20.283Z</time></trkpt><trkpt lat="42.2660067" lon="14.0114933"><ele>99.5</ele><time>2026-05-03T11:03:21.283Z</time></trkpt><trkpt lat="42.2659033" lon="14.01158"><ele>99.75</ele><time>2026-05-03T11:03:22.283Z</time></trkpt><trkpt lat="42.2658033" lon="14.0116533"><ele>100.0</ele><time>2026-05-03T11:03:23.284Z</time></trkpt><trkpt lat="42.265695" lon="14.01173"><ele>101.75</ele><time>2026-05-03T11:03:24.283Z</time></trkpt><trkpt lat="42.265585" lon="14.0118133"><ele>103.5</ele><time>2026-05-03T11:03:25.283Z</time></trkpt><trkpt lat="42.26548" lon="14.0118967"><ele>105.25</ele><time>2026-05-03T11:03:26.283Z</time></trkpt><trkpt lat="42.2653767" lon="14.0119883"><ele>107.0</ele><time>2026-05-03T11:03:27.283Z</time></trkpt><trkpt lat="42.2652667" lon="14.0120933"><ele>107.0</ele><time>2026-05-03T11:03:28.283Z</time></trkpt><trkpt lat="42.265175" lon="14.012195"><ele>107.0</ele><time>2026-05-03T11:03:29.283Z</time></trkpt><trkpt lat="42.2650817" lon="14.0122933"><ele>107.0</ele><time>2026-05-03T11:03:30.283Z</time></trkpt><trkpt lat="42.26501" lon="14.01241"><ele>107.0</ele><time>2026-05-03T11:03:31.283Z</time></trkpt><trkpt lat="42.2649717" lon="14.0125517"><ele>104.0</ele><time>2026-05-03T11:03:32.283Z</time></trkpt><trkpt lat="42.2649417" lon="14.012705"><ele>101.0</ele><time>2026-05-03T11:03:33.283Z</time></trkpt><trkpt lat="42.264935" lon="14.01288"><ele>98.0</ele><time>2026-05-03T11:03:34.283Z</time></trkpt><trkpt lat="42.2649383" lon="14.0130467"><ele>95.0</ele><time>2026-05-03T11:03:35.283Z</time></trkpt><trkpt lat="42.2649617" lon="14.01321"><ele>94.0</ele><time>2026-05-03T11:03:36.283Z</time></trkpt><trkpt lat="42.2650183" lon="14.0133783"><ele>93.0</ele><time>2026-05-03T11:03:37.283Z</time></trkpt><trkpt lat="42.265095" lon="14.0135383"><ele>92.0</ele><time>2026-05-03T11:03:38.284Z</time></trkpt><trkpt lat="42.2652117" lon="14.0136917"><ele>91.0</ele><time>2026-05-03T11:03:39.284Z</time></trkpt><trkpt lat="42.2652933" lon="14.0138467"><ele>91.0</ele><time>2026-05-03T11:03:40.283Z</time></trkpt><trkpt lat="42.265375" lon="14.0139917"><ele>91.0</ele><time>2026-05-03T11:03:41.283Z</time></trkpt><trkpt lat="42.2654583" lon="14.0141317"><ele>91.0</ele><time>2026-05-03T11:03:42.283Z</time></trkpt><trkpt lat="42.2655233" lon="14.0142567"><ele>91.0</ele><time>2026-05-03T11:03:43.283Z</time></trkpt><trkpt lat="42.2655867" lon="14.01437"><ele>90.4</ele><time>2026-05-03T11:03:44.283Z</time></trkpt><trkpt lat="42.2656467" lon="14.0144733"><ele>89.8</ele><time>2026-05-03T11:03:45.283Z</time></trkpt><trkpt lat="42.26571" lon="14.014575"><ele>89.2</ele><time>2026-05-03T11:03:46.283Z</time></trkpt><trkpt lat="42.2657733" lon="14.0146983"><ele>88.60000000000001</ele><time>2026-05-03T11:03:47.284Z</time></trkpt><trkpt lat="42.2658367" lon="14.0148017"><ele>88.0</ele><time>2026-05-03T11:03:48.283Z</time></trkpt><trkpt lat="42.2658883" lon="14.0148883"><ele>88.0</ele><time>2026-05-03T11:03:49.283Z</time></trkpt><trkpt lat="42.2659317" lon="14.0149783"><ele>88.0</ele><time>2026-05-03T11:03:50.283Z</time></trkpt><trkpt lat="42.2659667" lon="14.0150533"><ele>88.0</ele><time>2026-05-03T11:03:51.283Z</time></trkpt><trkpt lat="42.2660283" lon="14.0151567"><ele>88.0</ele><time>2026-05-03T11:03:53.283Z</time></trkpt><trkpt lat="42.2660883" lon="14.0152267"><ele>88.0</ele><time>2026-05-03T11:03:55.283Z</time></trkpt><trkpt lat="42.2661583" lon="14.0153"><ele>88.0</ele><time>2026-05-03T11:03:59.283Z</time></trkpt><trkpt lat="42.2662417" lon="14.0152917"><ele>88.0</ele><time>2026-05-03T11:04:02.283Z</time></trkpt><trkpt lat="42.2663283" lon="14.0152"><ele>88.0</ele><time>2026-05-03T11:04:05.283Z</time></trkpt><trkpt lat="42.2663967" lon="14.0151333"><ele>88.0</ele><time>2026-05-03T11:04:07.283Z</time></trkpt><trkpt lat="42.266465" lon="14.0150617"><ele>88.0</ele><time>2026-05-03T11:04:09.283Z</time></trkpt><trkpt lat="42.266525" lon="14.0149983"><ele>88.0</ele><time>2026-05-03T11:04:11.283Z</time></trkpt><trkpt lat="42.2666017" lon="14.014925"><ele>88.0</ele><time>2026-05-03T11:04:14.283Z</time></trkpt><trkpt lat="42.2666517" lon="14.0148567"><ele>88.0</ele><time>2026-05-03T11:04:16.284Z</time></trkpt><trkpt lat="42.266705" lon="14.0147833"><ele>88.0</ele><time>2026-05-03T11:04:18.284Z</time></trkpt><trkpt lat="42.2667583" lon="14.0147283"><ele>88.0</ele><time>2026-05-03T11:04:20.283Z</time></trkpt><trkpt lat="42.2668017" lon="14.0146383"><ele>88.0</ele><time>2026-05-03T11:04:23.283Z</time></trkpt><trkpt lat="42.2667283" lon="14.0147033"><ele>88.0</ele><time>2026-05-03T11:04:40.283Z</time></trkpt><trkpt lat="42.26666" lon="14.0147533"><ele>88.0</ele><time>2026-05-03T11:06:32.283Z</time></trkpt><trkpt lat="42.2665945" lon="14.0147938"><ele>88.0</ele><time>2026-05-03T11:06:41.366Z</time></trkpt><trkpt lat="42.2665464" lon="14.0148601"><ele>88.0</ele><time>2026-05-03T11:06:49.343Z</time></trkpt><trkpt lat="42.2665183" lon="14.014988"><ele>88.0</ele><time>2026-05-03T11:07:10.402Z</time></trkpt><trkpt lat="42.2665692" lon="14.0150404"><ele>88.0</ele><time>2026-05-03T11:07:20.293Z</time></trkpt><trkpt lat="42.2665059" lon="14.0150687"><ele>88.0</ele><time>2026-05-03T11:16:31.422Z</time></trkpt><trkpt lat="42.266519" lon="14.0149795"><ele>88.0</ele><time>2026-05-03T11:16:38.335Z</time></trkpt><trkpt lat="42.2665677" lon="14.0149147"><ele>88.0</ele><time>2026-05-03T11:16:45.354Z</time></trkpt><trkpt lat="42.2666249" lon="14.0148693"><ele>88.0</ele><time>2026-05-03T11:16:51.317Z</time></trkpt><trkpt lat="42.2666764" lon="14.0148031"><ele>88.0</ele><time>2026-05-03T11:16:57.392Z</time></trkpt><trkpt lat="42.266733" lon="14.0147411"><ele>88.0</ele><time>2026-05-03T11:17:04.595Z</time></trkpt><trkpt lat="42.2666456" lon="14.0148222"><ele>88.0</ele><time>2026-05-03T11:19:01.371Z</time></trkpt><trkpt lat="42.266595" lon="14.0148795"><ele>88.0</ele><time>2026-05-03T11:19:03.273Z</time></trkpt><trkpt lat="42.2665537" lon="14.0149655"><ele>87.80000000000001</ele><time>2026-05-03T11:19:05.395Z</time></trkpt><trkpt lat="42.2664944" lon="14.0150309"><ele>87.6</ele><time>2026-05-03T11:19:07.327Z</time></trkpt><trkpt lat="42.2664166" lon="14.0150945"><ele>87.4</ele><time>2026-05-03T11:19:09.394Z</time></trkpt><trkpt lat="42.266335" lon="14.0151708"><ele>87.19999999999999</ele><time>2026-05-03T11:19:11.369Z</time></trkpt><trkpt lat="42.2662573" lon="14.0152458"><ele>87.0</ele><time>2026-05-03T11:19:13.283Z</time></trkpt><trkpt lat="42.266178" lon="14.0153118"><ele>87.16666666666667</ele><time>2026-05-03T11:19:15.297Z</time></trkpt><trkpt lat="42.2661364" lon="14.0154023"><ele>87.33333333333333</ele><time>2026-05-03T11:19:17.375Z</time></trkpt><trkpt lat="42.2661782" lon="14.0155001"><ele>87.5</ele><time>2026-05-03T11:19:19.346Z</time></trkpt><trkpt lat="42.2662412" lon="14.0155546"><ele>87.66666666666666</ele><time>2026-05-03T11:19:20.281Z</time></trkpt><trkpt lat="42.2663064" lon="14.0156424"><ele>87.83333333333333</ele><time>2026-05-03T11:19:21.281Z</time></trkpt><trkpt lat="42.2663789" lon="14.015746"><ele>88.0</ele><time>2026-05-03T11:19:22.281Z</time></trkpt><trkpt lat="42.2664556" lon="14.0158637"><ele>88.0</ele><time>2026-05-03T11:19:23.281Z</time></trkpt><trkpt lat="42.2665297" lon="14.0159793"><ele>88.0</ele><time>2026-05-03T11:19:24.281Z</time></trkpt><trkpt lat="42.2666041" lon="14.0160927"><ele>88.0</ele><time>2026-05-03T11:19:25.281Z</time></trkpt><trkpt lat="42.2666808" lon="14.016211"><ele>88.0</ele><time>2026-05-03T11:19:26.281Z</time></trkpt><trkpt lat="42.26676" lon="14.01634"><ele>88.0</ele><time>2026-05-03T11:19:27.281Z</time></trkpt><trkpt lat="42.26683" lon="14.0164783"><ele>88.0</ele><time>2026-05-03T11:19:28.281Z</time></trkpt><trkpt lat="42.26691" lon="14.0166067"><ele>88.0</ele><time>2026-05-03T11:19:29.281Z</time></trkpt><trkpt lat="42.26699" lon="14.0167383"><ele>88.0</ele><time>2026-05-03T11:19:30.281Z</time></trkpt><trkpt lat="42.2670683" lon="14.016875"><ele>87.75</ele><time>2026-05-03T11:19:31.281Z</time></trkpt><trkpt lat="42.26715" lon="14.0170183"><ele>87.5</ele><time>2026-05-03T11:19:32.282Z</time></trkpt><trkpt lat="42.2672383" lon="14.0171583"><ele>87.25</ele><time>2026-05-03T11:19:33.282Z</time></trkpt><trkpt lat="42.2673233" lon="14.0172933"><ele>87.0</ele><time>2026-05-03T11:19:34.281Z</time></trkpt><trkpt lat="42.2673883" lon="14.0174333"><ele>87.5</ele><time>2026-05-03T11:19:35.281Z</time></trkpt><trkpt lat="42.267455" lon="14.0175683"><ele>88.0</ele><time>2026-05-03T11:19:36.281Z</time></trkpt><trkpt lat="42.267525" lon="14.0176967"><ele>88.5</ele><time>2026-05-03T11:19:37.281Z</time></trkpt><trkpt lat="42.2676033" lon="14.0178017"><ele>89.0</ele><time>2026-05-03T11:19:38.281Z</time></trkpt><trkpt lat="42.2676933" lon="14.0179133"><ele>89.0</ele><time>2026-05-03T11:19:39.281Z</time></trkpt><trkpt lat="42.2678083" lon="14.0180083"><ele>89.0</ele><time>2026-05-03T11:19:40.281Z</time></trkpt><trkpt lat="42.2679283" lon="14.0180883"><ele>89.0</ele><time>2026-05-03T11:19:41.281Z</time></trkpt><trkpt lat="42.26808" lon="14.0181483"><ele>89.0</ele><time>2026-05-03T11:19:42.281Z</time></trkpt><trkpt lat="42.2682533" lon="14.018205"><ele>88.33333333333334</ele><time>2026-05-03T11:19:43.281Z</time></trkpt><trkpt lat="42.268435" lon="14.0182417"><ele>87.66666666666667</ele><time>2026-05-03T11:19:44.281Z</time></trkpt><trkpt lat="42.2685917" lon="14.0182667"><ele>87.0</ele><time>2026-05-03T11:19:45.281Z</time></trkpt><trkpt lat="42.2687483" lon="14.0183"><ele>88.0</ele><time>2026-05-03T11:19:46.281Z</time></trkpt><trkpt lat="42.2689" lon="14.0183333"><ele>89.0</ele><time>2026-05-03T11:19:47.281Z</time></trkpt><trkpt lat="42.2690567" lon="14.0183683"><ele>90.0</ele><time>2026-05-03T11:19:48.281Z</time></trkpt><trkpt lat="42.2692183" lon="14.01841"><ele>90.66666666666667</ele><time>2026-05-03T11:19:49.281Z</time></trkpt><trkpt lat="42.2693817" lon="14.01845"><ele>91.33333333333334</ele><time>2026-05-03T11:19:50.282Z</time></trkpt><trkpt lat="42.26952" lon="14.0185017"><ele>92.0</ele><time>2026-05-03T11:19:51.281Z</time></trkpt><trkpt lat="42.2696533" lon="14.0185617"><ele>92.0</ele><time>2026-05-03T11:19:52.281Z</time></trkpt><trkpt lat="42.269785" lon="14.018645"><ele>92.0</ele><time>2026-05-03T11:19:53.281Z</time></trkpt><trkpt lat="42.269915" lon="14.018735"><ele>92.0</ele><time>2026-05-03T11:19:54.281Z</time></trkpt><trkpt lat="42.2700467" lon="14.0188267"><ele>92.0</ele><time>2026-05-03T11:19:55.282Z</time></trkpt><trkpt lat="42.27019" lon="14.01892"><ele>92.0</ele><time>2026-05-03T11:19:56.281Z</time></trkpt><trkpt lat="42.27033" lon="14.0190117"><ele>92.0</ele><time>2026-05-03T11:19:57.281Z</time></trkpt><trkpt lat="42.2704417" lon="14.0190983"><ele>92.0</ele><time>2026-05-03T11:19:58.281Z</time></trkpt><trkpt lat="42.2705533" lon="14.0191667"><ele>92.0</ele><time>2026-05-03T11:19:59.282Z</time></trkpt><trkpt lat="42.270655" lon="14.01923"><ele>93.39999999999999</ele><time>2026-05-03T11:20:00.281Z</time></trkpt><trkpt lat="42.2707417" lon="14.0192783"><ele>94.8</ele><time>2026-05-03T11:20:01.281Z</time></trkpt><trkpt lat="42.270815" lon="14.019325"><ele>96.2</ele><time>2026-05-03T11:20:02.281Z</time></trkpt><trkpt lat="42.2708967" lon="14.01942"><ele>97.6</ele><time>2026-05-03T11:20:04.281Z</time></trkpt><trkpt lat="42.27091" lon="14.019535"><ele>99.0</ele><time>2026-05-03T11:20:06.281Z</time></trkpt><trkpt lat="42.2708567" lon="14.0196833"><ele>99.0</ele><time>2026-05-03T11:20:08.281Z</time></trkpt><trkpt lat="42.27081" lon="14.0197617"><ele>99.0</ele><time>2026-05-03T11:20:09.281Z</time></trkpt><trkpt lat="42.2707117" lon="14.0198333"><ele>99.0</ele><time>2026-05-03T11:20:11.281Z</time></trkpt><trkpt lat="42.2705683" lon="14.0197967"><ele>99.0</ele><time>2026-05-03T11:20:13.281Z</time></trkpt><trkpt lat="42.2704717" lon="14.0197717"><ele>99.0</ele><time>2026-05-03T11:20:14.281Z</time></trkpt><trkpt lat="42.2703683" lon="14.019745"><ele>99.6</ele><time>2026-05-03T11:20:15.281Z</time></trkpt><trkpt lat="42.2702733" lon="14.0197117"><ele>100.2</ele><time>2026-05-03T11:20:16.281Z</time></trkpt><trkpt lat="42.270175" lon="14.0196733"><ele>100.8</ele><time>2026-05-03T11:20:17.281Z</time></trkpt><trkpt lat="42.27009" lon="14.0196217"><ele>101.39999999999999</ele><time>2026-05-03T11:20:18.281Z</time></trkpt><trkpt lat="42.270005" lon="14.0195867"><ele>102.0</ele><time>2026-05-03T11:20:19.281Z</time></trkpt><trkpt lat="42.269925" lon="14.01955"><ele>102.0</ele><time>2026-05-03T11:20:20.281Z</time></trkpt><trkpt lat="42.26984" lon="14.01951"><ele>102.0</ele><time>2026-05-03T11:20:21.281Z</time></trkpt><trkpt lat="42.2697467" lon="14.01947"><ele>102.0</ele><time>2026-05-03T11:20:22.281Z</time></trkpt><trkpt lat="42.2696517" lon="14.0194533"><ele>102.0</ele><time>2026-05-03T11:20:23.281Z</time></trkpt><trkpt lat="42.2695633" lon="14.0194317"><ele>102.0</ele><time>2026-05-03T11:20:24.281Z</time></trkpt><trkpt lat="42.2694983" lon="14.01942"><ele>102.0</ele><time>2026-05-03T11:20:25.281Z</time></trkpt><trkpt lat="42.2694067" lon="14.0194233"><ele>102.8</ele><time>2026-05-03T11:20:27.281Z</time></trkpt><trkpt lat="42.2692667" lon="14.0194617"><ele>103.6</ele><time>2026-05-03T11:20:29.281Z</time></trkpt><trkpt lat="42.2691867" lon="14.0194883"><ele>104.39999999999999</ele><time>2026-05-03T11:20:30.281Z</time></trkpt><trkpt lat="42.269115" lon="14.0195217"><ele>105.19999999999999</ele><time>2026-05-03T11:20:31.281Z</time></trkpt><trkpt lat="42.269025" lon="14.019625"><ele>106.0</ele><time>2026-05-03T11:20:33.282Z</time></trkpt><trkpt lat="42.268995" lon="14.0197017"><ele>106.0</ele><time>2026-05-03T11:20:34.281Z</time></trkpt><trkpt lat="42.2689817" lon="14.0197867"><ele>106.0</ele><time>2026-05-03T11:20:35.281Z</time></trkpt><trkpt lat="42.2689983" lon="14.019875"><ele>106.0</ele><time>2026-05-03T11:20:36.281Z</time></trkpt><trkpt lat="42.2690367" lon="14.0200233"><ele>106.0</ele><time>2026-05-03T11:20:38.281Z</time></trkpt><trkpt lat="42.2690717" lon="14.02016"><ele>106.0</ele><time>2026-05-03T11:20:40.281Z</time></trkpt><trkpt lat="42.2691065" lon="14.0203049"><ele>108.16666666666667</ele><time>2026-05-03T11:20:42.281Z</time></trkpt><trkpt lat="42.2691327" lon="14.0204461"><ele>110.33333333333334</ele><time>2026-05-03T11:20:44.281Z</time></trkpt><trkpt lat="42.2691383" lon="14.0205483"><ele>112.5</ele><time>2026-05-03T11:20:46.281Z</time></trkpt><trkpt lat="42.2691367" lon="14.0206567"><ele>114.66666666666666</ele><time>2026-05-03T11:20:55.281Z</time></trkpt><trkpt lat="42.2691367" lon="14.0207667"><ele>116.83333333333333</ele><time>2026-05-03T11:20:57.281Z</time></trkpt><trkpt lat="42.2691217" lon="14.0208833"><ele>119.0</ele><time>2026-05-03T11:20:59.281Z</time></trkpt><trkpt lat="42.2691" lon="14.0209967"><ele>120.99999999999999</ele><time>2026-05-03T11:21:01.281Z</time></trkpt><trkpt lat="42.269085" lon="14.02108"><ele>123.0</ele><time>2026-05-03T11:21:04.281Z</time></trkpt><trkpt lat="42.26907" lon="14.0211933"><ele>125.0</ele><time>2026-05-03T11:21:06.281Z</time></trkpt><trkpt lat="42.2690633" lon="14.0213"><ele>127.0</ele><time>2026-05-03T11:21:08.281Z</time></trkpt><trkpt lat="42.269095" lon="14.0213967"><ele>129.0</ele><time>2026-05-03T11:21:10.281Z</time></trkpt><trkpt lat="42.26916" lon="14.0214617"><ele>131.0</ele><time>2026-05-03T11:21:12.281Z</time></trkpt><trkpt lat="42.2692233" lon="14.0215233"><ele>131.0</ele><time>2026-05-03T11:21:14.281Z</time></trkpt><trkpt lat="42.2693133" lon="14.0215883"><ele>131.0</ele><time>2026-05-03T11:21:16.282Z</time></trkpt><trkpt lat="42.2694017" lon="14.02166"><ele>131.0</ele><time>2026-05-03T11:21:18.281Z</time></trkpt><trkpt lat="42.2694967" lon="14.0217383"><ele>131.0</ele><time>2026-05-03T11:21:20.281Z</time></trkpt><trkpt lat="42.269545" lon="14.0218"><ele>131.0</ele><time>2026-05-03T11:21:21.282Z</time></trkpt><trkpt lat="42.2695967" lon="14.0218617"><ele>132.14285714285714</ele><time>2026-05-03T11:21:22.281Z</time></trkpt><trkpt lat="42.2696483" lon="14.02192"><ele>133.2857142857143</ele><time>2026-05-03T11:21:23.281Z</time></trkpt><trkpt lat="42.2697033" lon="14.02198"><ele>134.42857142857144</ele><time>2026-05-03T11:21:24.281Z</time></trkpt><trkpt lat="42.2697517" lon="14.0220383"><ele>135.57142857142858</ele><time>2026-05-03T11:21:25.281Z</time></trkpt><trkpt lat="42.2697983" lon="14.0221067"><ele>136.71428571428572</ele><time>2026-05-03T11:21:26.282Z</time></trkpt><trkpt lat="42.269845" lon="14.0221783"><ele>137.85714285714286</ele><time>2026-05-03T11:21:27.281Z</time></trkpt><trkpt lat="42.2698883" lon="14.02225"><ele>139.0</ele><time>2026-05-03T11:21:28.281Z</time></trkpt><trkpt lat="42.2699383" lon="14.022315"><ele>139.0</ele><time>2026-05-03T11:21:29.281Z</time></trkpt><trkpt lat="42.2699833" lon="14.0223817"><ele>139.0</ele><time>2026-05-03T11:21:30.282Z</time></trkpt><trkpt lat="42.2700283" lon="14.0224467"><ele>139.0</ele><time>2026-05-03T11:21:31.281Z</time></trkpt><trkpt lat="42.2701117" lon="14.0225633"><ele>139.0</ele><time>2026-05-03T11:21:33.281Z</time></trkpt><trkpt lat="42.27018" lon="14.0226533"><ele>139.0</ele><time>2026-05-03T11:21:35.281Z</time></trkpt><trkpt lat="42.27024" lon="14.0226833"><ele>139.0</ele><time>2026-05-03T11:21:49.281Z</time></trkpt><trkpt lat="42.2703117" lon="14.02273"><ele>140.0</ele><time>2026-05-03T11:21:51.281Z</time></trkpt><trkpt lat="42.2703983" lon="14.0228267"><ele>141.0</ele><time>2026-05-03T11:21:53.281Z</time></trkpt><trkpt lat="42.270485" lon="14.022945"><ele>142.0</ele><time>2026-05-03T11:21:55.281Z</time></trkpt><trkpt lat="42.27053" lon="14.0230133"><ele>143.0</ele><time>2026-05-03T11:21:56.281Z</time></trkpt><trkpt lat="42.2705783" lon="14.0230783"><ele>144.0</ele><time>2026-05-03T11:21:57.281Z</time></trkpt><trkpt lat="42.2706283" lon="14.0231417"><ele>145.0</ele><time>2026-05-03T11:21:58.281Z</time></trkpt><trkpt lat="42.2706717" lon="14.0232167"><ele>145.0</ele><time>2026-05-03T11:21:59.281Z</time></trkpt><trkpt lat="42.2707167" lon="14.023285"><ele>145.0</ele><time>2026-05-03T11:22:00.281Z</time></trkpt><trkpt lat="42.2707933" lon="14.0234067"><ele>145.0</ele><time>2026-05-03T11:22:02.281Z</time></trkpt><trkpt lat="42.2708483" lon="14.0235167"><ele>145.0</ele><time>2026-05-03T11:22:04.281Z</time></trkpt><trkpt lat="42.27091" lon="14.0236567"><ele>145.0</ele><time>2026-05-03T11:22:06.281Z</time></trkpt><trkpt lat="42.2709383" lon="14.0237367"><ele>147.16666666666669</ele><time>2026-05-03T11:22:07.281Z</time></trkpt><trkpt lat="42.2709567" lon="14.0238883"><ele>149.33333333333334</ele><time>2026-05-03T11:22:09.282Z</time></trkpt><trkpt lat="42.2709383" lon="14.023995"><ele>151.5</ele><time>2026-05-03T11:22:11.281Z</time></trkpt><trkpt lat="42.2708867" lon="14.024055"><ele>153.66666666666666</ele><time>2026-05-03T11:22:13.281Z</time></trkpt><trkpt lat="42.2708117" lon="14.02409"><ele>155.83333333333331</ele><time>2026-05-03T11:22:15.282Z</time></trkpt><trkpt lat="42.2707183" lon="14.024105"><ele>158.0</ele><time>2026-05-03T11:22:17.281Z</time></trkpt><trkpt lat="42.2706233" lon="14.0241017"><ele>159.60000000000002</ele><time>2026-05-03T11:22:19.281Z</time></trkpt><trkpt lat="42.2705067" lon="14.0240933"><ele>161.20000000000002</ele><time>2026-05-03T11:22:21.281Z</time></trkpt><trkpt lat="42.2703867" lon="14.0240917"><ele>162.8</ele><time>2026-05-03T11:22:23.281Z</time></trkpt><trkpt lat="42.2703183" lon="14.0240917"><ele>164.4</ele><time>2026-05-03T11:22:24.281Z</time></trkpt><trkpt lat="42.270245" lon="14.0240917"><ele>166.0</ele><time>2026-05-03T11:22:25.281Z</time></trkpt><trkpt lat="42.2701733" lon="14.0240883"><ele>166.0</ele><time>2026-05-03T11:22:26.281Z</time></trkpt><trkpt lat="42.2700917" lon="14.0240833"><ele>166.0</ele><time>2026-05-03T11:22:27.282Z</time></trkpt><trkpt lat="42.2700117" lon="14.024085"><ele>166.0</ele><time>2026-05-03T11:22:28.281Z</time></trkpt><trkpt lat="42.2699267" lon="14.0240967"><ele>166.0</ele><time>2026-05-03T11:22:29.281Z</time></trkpt><trkpt lat="42.2698517" lon="14.0241167"><ele>166.0</ele><time>2026-05-03T11:22:30.281Z</time></trkpt><trkpt lat="42.2697867" lon="14.024145"><ele>166.0</ele><time>2026-05-03T11:22:31.281Z</time></trkpt><trkpt lat="42.2697283" lon="14.024185"><ele>172.0</ele><time>2026-05-03T11:22:32.281Z</time></trkpt><trkpt lat="42.2696317" lon="14.0242417"><ele>178.0</ele><time>2026-05-03T11:22:34.281Z</time></trkpt><trkpt lat="42.2695133" lon="14.0242283"><ele>184.0</ele><time>2026-05-03T11:22:36.281Z</time></trkpt><trkpt lat="42.2694367" lon="14.024205"><ele>190.0</ele><time>2026-05-03T11:22:37.282Z</time></trkpt><trkpt lat="42.2693583" lon="14.0241783"><ele>196.0</ele><time>2026-05-03T11:22:38.281Z</time></trkpt><trkpt lat="42.2692867" lon="14.0241533"><ele>195.99999999999997</ele><time>2026-05-03T11:22:39.281Z</time></trkpt><trkpt lat="42.2691833" lon="14.024125"><ele>196.0</ele><time>2026-05-03T11:22:41.281Z</time></trkpt><trkpt lat="42.269085" lon="14.0241817"><ele>196.0</ele><time>2026-05-03T11:22:43.281Z</time></trkpt><trkpt lat="42.2690233" lon="14.024215"><ele>196.0</ele><time>2026-05-03T11:22:44.281Z</time></trkpt><trkpt lat="42.2689467" lon="14.0242567"><ele>195.99999999999997</ele><time>2026-05-03T11:22:45.281Z</time></trkpt><trkpt lat="42.2688683" lon="14.024295"><ele>196.0</ele><time>2026-05-03T11:22:46.281Z</time></trkpt><trkpt lat="42.2687783" lon="14.0243333"><ele>196.60000000000002</ele><time>2026-05-03T11:22:47.281Z</time></trkpt><trkpt lat="42.2686817" lon="14.0243683"><ele>197.2</ele><time>2026-05-03T11:22:48.281Z</time></trkpt><trkpt lat="42.268585" lon="14.0244"><ele>197.8</ele><time>2026-05-03T11:22:49.282Z</time></trkpt><trkpt lat="42.26849" lon="14.0244417"><ele>198.39999999999998</ele><time>2026-05-03T11:22:50.281Z</time></trkpt><trkpt lat="42.2684017" lon="14.024495"><ele>199.0</ele><time>2026-05-03T11:22:51.281Z</time></trkpt><trkpt lat="42.26832" lon="14.0245517"><ele>198.99999999999997</ele><time>2026-05-03T11:22:52.281Z</time></trkpt><trkpt lat="42.2682417" lon="14.0246067"><ele>199.0</ele><time>2026-05-03T11:22:53.281Z</time></trkpt><trkpt lat="42.2681683" lon="14.0246683"><ele>199.0</ele><time>2026-05-03T11:22:54.281Z</time></trkpt><trkpt lat="42.26809" lon="14.0247367"><ele>199.0</ele><time>2026-05-03T11:22:55.282Z</time></trkpt><trkpt lat="42.2680133" lon="14.0248017"><ele>198.99999999999997</ele><time>2026-05-03T11:22:56.281Z</time></trkpt><trkpt lat="42.2679467" lon="14.0248633"><ele>199.0</ele><time>2026-05-03T11:22:57.281Z</time></trkpt><trkpt lat="42.267875" lon="14.0249183"><ele>199.16666666666666</ele><time>2026-05-03T11:22:58.281Z</time></trkpt><trkpt lat="42.2678033" lon="14.024965"><ele>199.33333333333331</ele><time>2026-05-03T11:22:59.281Z</time></trkpt><trkpt lat="42.2677317" lon="14.024995"><ele>199.5</ele><time>2026-05-03T11:23:00.281Z</time></trkpt><trkpt lat="42.2676617" lon="14.0250383"><ele>199.66666666666669</ele><time>2026-05-03T11:23:01.281Z</time></trkpt><trkpt lat="42.267595" lon="14.02508"><ele>199.83333333333334</ele><time>2026-05-03T11:23:02.281Z</time></trkpt><trkpt lat="42.2675233" lon="14.0251217"><ele>200.0</ele><time>2026-05-03T11:23:03.281Z</time></trkpt><trkpt lat="42.2674567" lon="14.0251517"><ele>206.6</ele><time>2026-05-03T11:23:04.282Z</time></trkpt><trkpt lat="42.2673667" lon="14.0252583"><ele>213.2</ele><time>2026-05-03T11:23:06.281Z</time></trkpt><trkpt lat="42.26727" lon="14.0253067"><ele>219.8</ele><time>2026-05-03T11:23:08.281Z</time></trkpt><trkpt lat="42.2671683" lon="14.0253017"><ele>226.4</ele><time>2026-05-03T11:23:10.281Z</time></trkpt><trkpt lat="42.2671067" lon="14.02528"><ele>233.0</ele><time>2026-05-03T11:23:13.281Z</time></trkpt><trkpt lat="42.2670317" lon="14.0251717"><ele>234.8</ele><time>2026-05-03T11:23:19.281Z</time></trkpt><trkpt lat="42.26697" lon="14.0250867"><ele>236.60000000000002</ele><time>2026-05-03T11:23:21.282Z</time></trkpt><trkpt lat="42.2668817" lon="14.0249817"><ele>238.39999999999998</ele><time>2026-05-03T11:23:23.281Z</time></trkpt><trkpt lat="42.2667817" lon="14.0248683"><ele>240.2</ele><time>2026-05-03T11:23:25.281Z</time></trkpt><trkpt lat="42.266725" lon="14.0248067"><ele>242.0</ele><time>2026-05-03T11:23:26.281Z</time></trkpt><trkpt lat="42.2666633" lon="14.0247417"><ele>237.39999999999998</ele><time>2026-05-03T11:23:27.281Z</time></trkpt><trkpt lat="42.2666083" lon="14.0246733"><ele>232.79999999999998</ele><time>2026-05-03T11:23:28.281Z</time></trkpt><trkpt lat="42.2665267" lon="14.0245633"><ele>228.2</ele><time>2026-05-03T11:23:30.281Z</time></trkpt><trkpt lat="42.2664433" lon="14.0244667"><ele>223.6</ele><time>2026-05-03T11:23:32.281Z</time></trkpt><trkpt lat="42.2663517" lon="14.024415"><ele>219.0</ele><time>2026-05-03T11:23:34.282Z</time></trkpt><trkpt lat="42.2662483" lon="14.0243583"><ele>219.0</ele><time>2026-05-03T11:23:36.281Z</time></trkpt><trkpt lat="42.26619" lon="14.02425"><ele>219.0</ele><time>2026-05-03T11:23:38.281Z</time></trkpt><trkpt lat="42.2661167" lon="14.024215"><ele>219.0</ele><time>2026-05-03T11:23:40.282Z</time></trkpt><trkpt lat="42.2660283" lon="14.024275"><ele>219.0</ele><time>2026-05-03T11:23:42.281Z</time></trkpt><trkpt lat="42.2659683" lon="14.0243283"><ele>219.0</ele><time>2026-05-03T11:23:43.281Z</time></trkpt><trkpt lat="42.2659117" lon="14.0243717"><ele>219.0</ele><time>2026-05-03T11:23:44.281Z</time></trkpt><trkpt lat="42.2657933" lon="14.0244333"><ele>219.0</ele><time>2026-05-03T11:23:46.281Z</time></trkpt><trkpt lat="42.2656683" lon="14.0244617"><ele>219.0</ele><time>2026-05-03T11:23:48.281Z</time></trkpt><trkpt lat="42.2655967" lon="14.0244683"><ele>219.0</ele><time>2026-05-03T11:23:49.281Z</time></trkpt><trkpt lat="42.2655167" lon="14.0244783"><ele>219.0</ele><time>2026-05-03T11:23:50.281Z</time></trkpt><trkpt lat="42.2654333" lon="14.0244933"><ele>219.0</ele><time>2026-05-03T11:23:51.281Z</time></trkpt><trkpt lat="42.26535" lon="14.0245133"><ele>219.0</ele><time>2026-05-03T11:23:52.281Z</time></trkpt><trkpt lat="42.2652667" lon="14.0245333"><ele>216.66666666666666</ele><time>2026-05-03T11:23:53.281Z</time></trkpt><trkpt lat="42.26519" lon="14.0245467"><ele>214.33333333333331</ele><time>2026-05-03T11:23:54.281Z</time></trkpt><trkpt lat="42.26512" lon="14.02456"><ele>212.0</ele><time>2026-05-03T11:23:55.281Z</time></trkpt><trkpt lat="42.2650567" lon="14.0245717"><ele>209.66666666666666</ele><time>2026-05-03T11:23:56.281Z</time></trkpt><trkpt lat="42.2649767" lon="14.0246483"><ele>207.33333333333331</ele><time>2026-05-03T11:23:58.281Z</time></trkpt><trkpt lat="42.2649433" lon="14.0248017"><ele>205.0</ele><time>2026-05-03T11:24:00.281Z</time></trkpt><trkpt lat="42.264915" lon="14.0248817"><ele>204.99999999999997</ele><time>2026-05-03T11:24:01.281Z</time></trkpt><trkpt lat="42.2648683" lon="14.0249417"><ele>205.0</ele><time>2026-05-03T11:24:02.281Z</time></trkpt><trkpt lat="42.264765" lon="14.0250233"><ele>205.0</ele><time>2026-05-03T11:24:04.281Z</time></trkpt><trkpt lat="42.2647017" lon="14.025035"><ele>205.0</ele><time>2026-05-03T11:24:05.281Z</time></trkpt><trkpt lat="42.2646233" lon="14.0250333"><ele>204.99999999999997</ele><time>2026-05-03T11:24:06.281Z</time></trkpt><trkpt lat="42.2645333" lon="14.0250383"><ele>205.0</ele><time>2026-05-03T11:24:07.282Z</time></trkpt><trkpt lat="42.2644517" lon="14.0250483"><ele>205.33333333333331</ele><time>2026-05-03T11:24:08.281Z</time></trkpt><trkpt lat="42.26437" lon="14.0250567"><ele>205.66666666666666</ele><time>2026-05-03T11:24:09.281Z</time></trkpt><trkpt lat="42.2642917" lon="14.02505"><ele>206.0</ele><time>2026-05-03T11:24:10.281Z</time></trkpt><trkpt lat="42.26421" lon="14.0250283"><ele>206.33333333333331</ele><time>2026-05-03T11:24:11.281Z</time></trkpt><trkpt lat="42.2641367" lon="14.024995"><ele>206.66666666666666</ele><time>2026-05-03T11:24:12.281Z</time></trkpt><trkpt lat="42.26406" lon="14.0249617"><ele>207.0</ele><time>2026-05-03T11:24:13.281Z</time></trkpt><trkpt lat="42.2639933" lon="14.0249433"><ele>209.66666666666666</ele><time>2026-05-03T11:24:14.281Z</time></trkpt><trkpt lat="42.2639241" lon="14.0249174"><ele>212.33333333333331</ele><time>2026-05-03T11:24:15.282Z</time></trkpt><trkpt lat="42.2638583" lon="14.0248917"><ele>215.0</ele><time>2026-05-03T11:24:16.281Z</time></trkpt><trkpt lat="42.2637947" lon="14.024868"><ele>217.66666666666666</ele><time>2026-05-03T11:24:17.281Z</time></trkpt><trkpt lat="42.2636815" lon="14.0248023"><ele>220.33333333333331</ele><time>2026-05-03T11:24:19.281Z</time></trkpt><trkpt lat="42.2635747" lon="14.0247454"><ele>223.0</ele><time>2026-05-03T11:24:21.281Z</time></trkpt><trkpt lat="42.2634969" lon="14.0246755"><ele>222.99999999999997</ele><time>2026-05-03T11:24:23.281Z</time></trkpt><trkpt lat="42.26344" lon="14.02454"><ele>223.0</ele><time>2026-05-03T11:24:25.281Z</time></trkpt><trkpt lat="42.2633983" lon="14.0244533"><ele>223.0</ele><time>2026-05-03T11:24:26.281Z</time></trkpt><trkpt lat="42.2633517" lon="14.0243617"><ele>223.0</ele><time>2026-05-03T11:24:27.281Z</time></trkpt><trkpt lat="42.2633033" lon="14.0242617"><ele>222.99999999999997</ele><time>2026-05-03T11:24:28.281Z</time></trkpt><trkpt lat="42.2632567" lon="14.0241733"><ele>223.0</ele><time>2026-05-03T11:24:29.282Z</time></trkpt><trkpt lat="42.2632133" lon="14.024085"><ele>224.16666666666666</ele><time>2026-05-03T11:24:30.281Z</time></trkpt><trkpt lat="42.263165" lon="14.024015"><ele>225.33333333333331</ele><time>2026-05-03T11:24:31.281Z</time></trkpt><trkpt lat="42.2631167" lon="14.0239567"><ele>226.5</ele><time>2026-05-03T11:24:32.281Z</time></trkpt><trkpt lat="42.263" lon="14.02391"><ele>227.66666666666669</ele><time>2026-05-03T11:24:34.281Z</time></trkpt><trkpt lat="42.2629367" lon="14.02391"><ele>228.83333333333334</ele><time>2026-05-03T11:24:35.281Z</time></trkpt><trkpt lat="42.2628233" lon="14.0239367"><ele>230.0</ele><time>2026-05-03T11:24:37.281Z</time></trkpt><trkpt lat="42.2627233" lon="14.02395"><ele>230.00000000000003</ele><time>2026-05-03T11:24:39.28Z</time></trkpt><trkpt lat="42.2626317" lon="14.0239183"><ele>230.0</ele><time>2026-05-03T11:24:41.28Z</time></trkpt><trkpt lat="42.2625667" lon="14.023865"><ele>230.0</ele><time>2026-05-03T11:24:43.28Z</time></trkpt><trkpt lat="42.2625267" lon="14.0237767"><ele>230.0</ele><time>2026-05-03T11:24:47.28Z</time></trkpt><trkpt lat="42.2624572" lon="14.0237695"><ele>230.00000000000003</ele><time>2026-05-03T11:24:51.431Z</time></trkpt><trkpt lat="42.2623623" lon="14.0237605"><ele>230.0</ele><time>2026-05-03T11:24:54.836Z</time></trkpt><trkpt lat="42.2622554" lon="14.0236988"><ele>229.83333333333334</ele><time>2026-05-03T11:24:57.28Z</time></trkpt><trkpt lat="42.2621903" lon="14.0236419"><ele>229.66666666666669</ele><time>2026-05-03T11:24:58.28Z</time></trkpt><trkpt lat="42.2621332" lon="14.0235896"><ele>229.5</ele><time>2026-05-03T11:24:59.28Z</time></trkpt><trkpt lat="42.262075" lon="14.0235359"><ele>229.33333333333331</ele><time>2026-05-03T11:25:00.281Z</time></trkpt><trkpt lat="42.2620197" lon="14.0234818"><ele>229.16666666666666</ele><time>2026-05-03T11:25:01.281Z</time></trkpt><trkpt lat="42.2619462" lon="14.0233663"><ele>229.0</ele><time>2026-05-03T11:25:03.28Z</time></trkpt><trkpt lat="42.2619034" lon="14.0232569"><ele>229.0</ele><time>2026-05-03T11:25:05.28Z</time></trkpt><trkpt lat="42.2619883" lon="14.0232164"><ele>228.99999999999997</ele><time>2026-05-03T11:25:14.327Z</time></trkpt><trkpt lat="42.262056" lon="14.023133"><ele>228.99999999999997</ele><time>2026-05-03T11:25:15.28Z</time></trkpt><trkpt lat="42.2621063" lon="14.023012"><ele>229.0</ele><time>2026-05-03T11:25:16.28Z</time></trkpt><trkpt lat="42.2621409" lon="14.0228543"><ele>229.0</ele><time>2026-05-03T11:25:17.28Z</time></trkpt><trkpt lat="42.2621709" lon="14.0226932"><ele>229.0</ele><time>2026-05-03T11:25:18.28Z</time></trkpt><trkpt lat="42.2621898" lon="14.0225496"><ele>228.99999999999997</ele><time>2026-05-03T11:25:19.28Z</time></trkpt><trkpt lat="42.2621958" lon="14.0224217"><ele>228.99999999999997</ele><time>2026-05-03T11:25:20.281Z</time></trkpt><trkpt lat="42.2621809" lon="14.0223146"><ele>229.0</ele><time>2026-05-03T11:25:21.28Z</time></trkpt><trkpt lat="42.2621416" lon="14.022223"><ele>229.0</ele><time>2026-05-03T11:25:22.281Z</time></trkpt><trkpt lat="42.2620767" lon="14.02214"><ele>226.6</ele><time>2026-05-03T11:25:23.28Z</time></trkpt><trkpt lat="42.2619967" lon="14.0220483"><ele>224.2</ele><time>2026-05-03T11:25:24.28Z</time></trkpt><trkpt lat="42.2619033" lon="14.02197"><ele>221.79999999999998</ele><time>2026-05-03T11:25:25.28Z</time></trkpt><trkpt lat="42.2618133" lon="14.0219117"><ele>219.39999999999998</ele><time>2026-05-03T11:25:26.28Z</time></trkpt><trkpt lat="42.2617167" lon="14.0218783"><ele>217.0</ele><time>2026-05-03T11:25:27.28Z</time></trkpt><trkpt lat="42.2616233" lon="14.021865"><ele>216.99999999999997</ele><time>2026-05-03T11:25:28.28Z</time></trkpt><trkpt lat="42.2615267" lon="14.0218783"><ele>217.0</ele><time>2026-05-03T11:25:29.28Z</time></trkpt><trkpt lat="42.2614367" lon="14.0219"><ele>217.0</ele><time>2026-05-03T11:25:30.28Z</time></trkpt><trkpt lat="42.26135" lon="14.0219267"><ele>217.0</ele><time>2026-05-03T11:25:31.28Z</time></trkpt><trkpt lat="42.26127" lon="14.0219483"><ele>216.99999999999997</ele><time>2026-05-03T11:25:32.28Z</time></trkpt><trkpt lat="42.261195" lon="14.0219767"><ele>217.0</ele><time>2026-05-03T11:25:33.28Z</time></trkpt><trkpt lat="42.2611283" lon="14.021995"><ele>215.0</ele><time>2026-05-03T11:25:34.28Z</time></trkpt><trkpt lat="42.2610267" lon="14.0220767"><ele>213.0</ele><time>2026-05-03T11:25:36.28Z</time></trkpt><trkpt lat="42.2609433" lon="14.02221"><ele>211.0</ele><time>2026-05-03T11:25:38.28Z</time></trkpt><trkpt lat="42.2608883" lon="14.022295"><ele>209.0</ele><time>2026-05-03T11:25:39.28Z</time></trkpt><trkpt lat="42.2608217" lon="14.0223833"><ele>207.0</ele><time>2026-05-03T11:25:40.28Z</time></trkpt><trkpt lat="42.2607717" lon="14.0224667"><ele>207.16666666666666</ele><time>2026-05-03T11:25:41.28Z</time></trkpt><trkpt lat="42.2607233" lon="14.0225533"><ele>207.33333333333331</ele><time>2026-05-03T11:25:42.28Z</time></trkpt><trkpt lat="42.260675" lon="14.022655"><ele>207.5</ele><time>2026-05-03T11:25:43.28Z</time></trkpt><trkpt lat="42.260615" lon="14.0227633"><ele>207.66666666666666</ele><time>2026-05-03T11:25:44.28Z</time></trkpt><trkpt lat="42.2605667" lon="14.0228683"><ele>207.83333333333331</ele><time>2026-05-03T11:25:45.28Z</time></trkpt><trkpt lat="42.2605167" lon="14.0229567"><ele>208.0</ele><time>2026-05-03T11:25:46.28Z</time></trkpt><trkpt lat="42.2604717" lon="14.0230517"><ele>207.99999999999997</ele><time>2026-05-03T11:25:47.28Z</time></trkpt><trkpt lat="42.2604267" lon="14.02312"><ele>208.0</ele><time>2026-05-03T11:25:48.281Z</time></trkpt><trkpt lat="42.2603617" lon="14.0231767"><ele>208.0</ele><time>2026-05-03T11:25:49.28Z</time></trkpt><trkpt lat="42.2602883" lon="14.023215"><ele>208.0</ele><time>2026-05-03T11:25:50.28Z</time></trkpt><trkpt lat="42.260205" lon="14.0232283"><ele>207.99999999999997</ele><time>2026-05-03T11:25:51.28Z</time></trkpt><trkpt lat="42.2601083" lon="14.02324"><ele>208.0</ele><time>2026-05-03T11:25:52.28Z</time></trkpt><trkpt lat="42.25999" lon="14.0232383"><ele>207.99999999999997</ele><time>2026-05-03T11:25:53.28Z</time></trkpt><trkpt lat="42.2598767" lon="14.02324"><ele>208.0</ele><time>2026-05-03T11:25:54.28Z</time></trkpt><trkpt lat="42.2597783" lon="14.0232417"><ele>208.0</ele><time>2026-05-03T11:25:55.28Z</time></trkpt><trkpt lat="42.2596983" lon="14.0232433"><ele>208.0</ele><time>2026-05-03T11:25:56.28Z</time></trkpt><trkpt lat="42.2596283" lon="14.0232433"><ele>207.99999999999997</ele><time>2026-05-03T11:25:57.281Z</time></trkpt><trkpt lat="42.2595615" lon="14.0232419"><ele>208.0</ele><time>2026-05-03T11:25:58.28Z</time></trkpt><trkpt lat="42.2594859" lon="14.023252"><ele>209.66666666666666</ele><time>2026-05-03T11:26:00.28Z</time></trkpt><trkpt lat="42.2594517" lon="14.02333"><ele>211.33333333333331</ele><time>2026-05-03T11:26:02.28Z</time></trkpt><trkpt lat="42.259445" lon="14.0234417"><ele>213.0</ele><time>2026-05-03T11:26:04.28Z</time></trkpt><trkpt lat="42.2594733" lon="14.0236017"><ele>214.66666666666669</ele><time>2026-05-03T11:26:06.28Z</time></trkpt><trkpt lat="42.2594917" lon="14.023705"><ele>216.33333333333334</ele><time>2026-05-03T11:26:07.28Z</time></trkpt><trkpt lat="42.259505" lon="14.0237967"><ele>218.0</ele><time>2026-05-03T11:26:08.28Z</time></trkpt><trkpt lat="42.25952" lon="14.02388"><ele>218.00000000000003</ele><time>2026-05-03T11:26:09.28Z</time></trkpt><trkpt lat="42.2595217" lon="14.0239683"><ele>218.0</ele><time>2026-05-03T11:26:10.28Z</time></trkpt><trkpt lat="42.259515" lon="14.0240533"><ele>218.0</ele><time>2026-05-03T11:26:11.28Z</time></trkpt><trkpt lat="42.259475" lon="14.0242283"><ele>218.0</ele><time>2026-05-03T11:26:13.28Z</time></trkpt><trkpt lat="42.25946" lon="14.024335"><ele>218.00000000000003</ele><time>2026-05-03T11:26:14.28Z</time></trkpt><trkpt lat="42.2594467" lon="14.0244617"><ele>218.0</ele><time>2026-05-03T11:26:15.28Z</time></trkpt><trkpt lat="42.2594367" lon="14.0245917"><ele>220.00000000000003</ele><time>2026-05-03T11:26:16.28Z</time></trkpt><trkpt lat="42.2594267" lon="14.02471"><ele>222.0</ele><time>2026-05-03T11:26:17.28Z</time></trkpt><trkpt lat="42.25942" lon="14.024825"><ele>224.0</ele><time>2026-05-03T11:26:18.28Z</time></trkpt><trkpt lat="42.25941" lon="14.0249333"><ele>226.0</ele><time>2026-05-03T11:26:19.28Z</time></trkpt><trkpt lat="42.2594067" lon="14.0250317"><ele>228.00000000000003</ele><time>2026-05-03T11:26:20.28Z</time></trkpt><trkpt lat="42.25942" lon="14.0251283"><ele>230.0</ele><time>2026-05-03T11:26:21.28Z</time></trkpt><trkpt lat="42.2594467" lon="14.0252167"><ele>232.16666666666669</ele><time>2026-05-03T11:26:22.28Z</time></trkpt><trkpt lat="42.2595367" lon="14.025315"><ele>234.33333333333334</ele><time>2026-05-03T11:26:24.28Z</time></trkpt><trkpt lat="42.2595983" lon="14.0253467"><ele>236.5</ele><time>2026-05-03T11:26:25.28Z</time></trkpt><trkpt lat="42.25967" lon="14.0253817"><ele>238.66666666666669</ele><time>2026-05-03T11:26:26.28Z</time></trkpt><trkpt lat="42.2597417" lon="14.0254317"><ele>240.83333333333334</ele><time>2026-05-03T11:26:27.28Z</time></trkpt><trkpt lat="42.2598117" lon="14.025485"><ele>243.0</ele><time>2026-05-03T11:26:28.28Z</time></trkpt><trkpt lat="42.2598817" lon="14.0255417"><ele>243.33333333333334</ele><time>2026-05-03T11:26:29.28Z</time></trkpt><trkpt lat="42.25996" lon="14.025595"><ele>243.66666666666669</ele><time>2026-05-03T11:26:30.28Z</time></trkpt><trkpt lat="42.260015" lon="14.0256633"><ele>244.0</ele><time>2026-05-03T11:26:31.28Z</time></trkpt><trkpt lat="42.2600633" lon="14.0257383"><ele>244.33333333333334</ele><time>2026-05-03T11:26:32.28Z</time></trkpt><trkpt lat="42.2601017" lon="14.025815"><ele>244.66666666666669</ele><time>2026-05-03T11:26:33.28Z</time></trkpt><trkpt lat="42.2601483" lon="14.0258833"><ele>245.0</ele><time>2026-05-03T11:26:34.28Z</time></trkpt><trkpt lat="42.260265" lon="14.025945"><ele>248.50000000000003</ele><time>2026-05-03T11:26:36.28Z</time></trkpt><trkpt lat="42.2603283" lon="14.0259617"><ele>252.0</ele><time>2026-05-03T11:26:37.28Z</time></trkpt><trkpt lat="42.260395" lon="14.0260333"><ele>255.5</ele><time>2026-05-03T11:26:39.28Z</time></trkpt><trkpt lat="42.2604383" lon="14.0261633"><ele>259.0</ele><time>2026-05-03T11:26:41.28Z</time></trkpt><trkpt lat="42.260485" lon="14.026295"><ele>262.5</ele><time>2026-05-03T11:26:43.28Z</time></trkpt><trkpt lat="42.2605217" lon="14.0263667"><ele>266.0</ele><time>2026-05-03T11:26:44.28Z</time></trkpt><trkpt lat="42.2605733" lon="14.0264517"><ele>268.2</ele><time>2026-05-03T11:26:45.28Z</time></trkpt><trkpt lat="42.2606233" lon="14.02654"><ele>270.40000000000003</ele><time>2026-05-03T11:26:46.28Z</time></trkpt><trkpt lat="42.2606767" lon="14.0266417"><ele>272.6</ele><time>2026-05-03T11:26:47.281Z</time></trkpt><trkpt lat="42.2607233" lon="14.0267417"><ele>274.8</ele><time>2026-05-03T11:26:48.28Z</time></trkpt><trkpt lat="42.2607717" lon="14.0268467"><ele>277.0</ele><time>2026-05-03T11:26:49.28Z</time></trkpt><trkpt lat="42.26083" lon="14.02695"><ele>278.66666666666663</ele><time>2026-05-03T11:26:50.28Z</time></trkpt><trkpt lat="42.260885" lon="14.0270433"><ele>280.3333333333333</ele><time>2026-05-03T11:26:51.28Z</time></trkpt><trkpt lat="42.2609417" lon="14.0271133"><ele>282.0</ele><time>2026-05-03T11:26:52.28Z</time></trkpt><trkpt lat="42.2610183" lon="14.0271967"><ele>283.6666666666667</ele><time>2026-05-03T11:26:54.28Z</time></trkpt><trkpt lat="42.2611083" lon="14.0271917"><ele>285.33333333333337</ele><time>2026-05-03T11:26:56.28Z</time></trkpt><trkpt lat="42.2611517" lon="14.0270933"><ele>287.0</ele><time>2026-05-03T11:26:58.28Z</time></trkpt><trkpt lat="42.26112" lon="14.0269633"><ele>287.0</ele><time>2026-05-03T11:27:00.28Z</time></trkpt><trkpt lat="42.2610783" lon="14.0268767"><ele>287.0</ele><time>2026-05-03T11:27:01.281Z</time></trkpt><trkpt lat="42.2610417" lon="14.0267817"><ele>287.0</ele><time>2026-05-03T11:27:02.28Z</time></trkpt><trkpt lat="42.2610133" lon="14.0266883"><ele>287.0</ele><time>2026-05-03T11:27:03.28Z</time></trkpt><trkpt lat="42.26099" lon="14.0265967"><ele>287.0</ele><time>2026-05-03T11:27:04.28Z</time></trkpt><trkpt lat="42.2609733" lon="14.0265017"><ele>287.0</ele><time>2026-05-03T11:27:05.28Z</time></trkpt><trkpt lat="42.2609483" lon="14.026415"><ele>287.0</ele><time>2026-05-03T11:27:06.28Z</time></trkpt><trkpt lat="42.2609117" lon="14.0262567"><ele>285.33333333333337</ele><time>2026-05-03T11:27:08.28Z</time></trkpt><trkpt lat="42.2608883" lon="14.0261533"><ele>283.6666666666667</ele><time>2026-05-03T11:27:10.28Z</time></trkpt><trkpt lat="42.2609367" lon="14.0260767"><ele>282.0</ele><time>2026-05-03T11:27:13.28Z</time></trkpt><trkpt lat="42.260985" lon="14.0261617"><ele>280.3333333333333</ele><time>2026-05-03T11:27:16.28Z</time></trkpt><trkpt lat="42.2610217" lon="14.0263217"><ele>278.66666666666663</ele><time>2026-05-03T11:27:18.28Z</time></trkpt><trkpt lat="42.2610417" lon="14.0264333"><ele>277.0</ele><time>2026-05-03T11:27:19.28Z</time></trkpt><trkpt lat="42.2610783" lon="14.0265767"><ele>280.3333333333333</ele><time>2026-05-03T11:27:20.28Z</time></trkpt><trkpt lat="42.2611367" lon="14.0267683"><ele>283.6666666666667</ele><time>2026-05-03T11:27:21.28Z</time></trkpt><trkpt lat="42.2612183" lon="14.0269767"><ele>287.0</ele><time>2026-05-03T11:27:22.28Z</time></trkpt><trkpt lat="42.2613017" lon="14.0271917"><ele>287.0</ele><time>2026-05-03T11:27:23.281Z</time></trkpt><trkpt lat="42.2613567" lon="14.0273667"><ele>287.0</ele><time>2026-05-03T11:27:24.28Z</time></trkpt><trkpt lat="42.2614033" lon="14.027525"><ele>287.0</ele><time>2026-05-03T11:27:25.28Z</time></trkpt><trkpt lat="42.2614583" lon="14.0276933"><ele>287.0</ele><time>2026-05-03T11:27:26.28Z</time></trkpt><trkpt lat="42.261535" lon="14.0278533"><ele>293.0</ele><time>2026-05-03T11:27:27.28Z</time></trkpt><trkpt lat="42.26163" lon="14.0280033"><ele>299.0</ele><time>2026-05-03T11:27:28.28Z</time></trkpt><trkpt lat="42.2617383" lon="14.02817"><ele>305.0</ele><time>2026-05-03T11:27:29.28Z</time></trkpt><trkpt lat="42.26183" lon="14.0283417"><ele>305.8</ele><time>2026-05-03T11:27:30.28Z</time></trkpt><trkpt lat="42.2619017" lon="14.0284917"><ele>306.6</ele><time>2026-05-03T11:27:31.281Z</time></trkpt><trkpt lat="42.261955" lon="14.0286133"><ele>307.4</ele><time>2026-05-03T11:27:32.281Z</time></trkpt><trkpt lat="42.2620033" lon="14.0287217"><ele>308.2</ele><time>2026-05-03T11:27:33.28Z</time></trkpt><trkpt lat="42.2620467" lon="14.0287983"><ele>309.0</ele><time>2026-05-03T11:27:34.28Z</time></trkpt><trkpt lat="42.2621083" lon="14.028865"><ele>309.0</ele><time>2026-05-03T11:27:36.28Z</time></trkpt><trkpt lat="42.2621883" lon="14.0288067"><ele>309.0</ele><time>2026-05-03T11:27:38.28Z</time></trkpt><trkpt lat="42.2622417" lon="14.0287267"><ele>309.0</ele><time>2026-05-03T11:27:39.28Z</time></trkpt><trkpt lat="42.2623033" lon="14.0286317"><ele>309.0</ele><time>2026-05-03T11:27:40.28Z</time></trkpt><trkpt lat="42.2623567" lon="14.028545"><ele>309.0</ele><time>2026-05-03T11:27:41.28Z</time></trkpt><trkpt lat="42.2624117" lon="14.0284817"><ele>309.0</ele><time>2026-05-03T11:27:42.28Z</time></trkpt><trkpt lat="42.2625233" lon="14.0284233"><ele>309.0</ele><time>2026-05-03T11:27:44.28Z</time></trkpt><trkpt lat="42.2625883" lon="14.028445"><ele>309.0</ele><time>2026-05-03T11:27:45.28Z</time></trkpt><trkpt lat="42.2626733" lon="14.028495"><ele>309.0</ele><time>2026-05-03T11:27:46.281Z</time></trkpt><trkpt lat="42.2627817" lon="14.0285833"><ele>309.0</ele><time>2026-05-03T11:27:47.28Z</time></trkpt><trkpt lat="42.26292" lon="14.028675"><ele>309.0</ele><time>2026-05-03T11:27:48.28Z</time></trkpt><trkpt lat="42.263075" lon="14.028775"><ele>307.3333333333333</ele><time>2026-05-03T11:27:49.28Z</time></trkpt><trkpt lat="42.26324" lon="14.028885"><ele>305.66666666666663</ele><time>2026-05-03T11:27:50.28Z</time></trkpt><trkpt lat="42.263405" lon="14.0289917"><ele>304.0</ele><time>2026-05-03T11:27:51.28Z</time></trkpt><trkpt lat="42.2635567" lon="14.02909"><ele>304.66666666666663</ele><time>2026-05-03T11:27:52.28Z</time></trkpt><trkpt lat="42.263695" lon="14.0291717"><ele>305.3333333333333</ele><time>2026-05-03T11:27:53.28Z</time></trkpt><trkpt lat="42.2638417" lon="14.0292583"><ele>306.0</ele><time>2026-05-03T11:27:54.28Z</time></trkpt><trkpt lat="42.2639967" lon="14.0293233"><ele>306.0</ele><time>2026-05-03T11:27:55.28Z</time></trkpt><trkpt lat="42.2641367" lon="14.0293733"><ele>306.0</ele><time>2026-05-03T11:27:56.28Z</time></trkpt><trkpt lat="42.2642717" lon="14.0294033"><ele>306.0</ele><time>2026-05-03T11:27:57.28Z</time></trkpt><trkpt lat="42.2644033" lon="14.0294133"><ele>306.0</ele><time>2026-05-03T11:27:58.28Z</time></trkpt><trkpt lat="42.2645217" lon="14.029405"><ele>306.0</ele><time>2026-05-03T11:27:59.28Z</time></trkpt><trkpt lat="42.2646283" lon="14.029385"><ele>306.0</ele><time>2026-05-03T11:28:00.28Z</time></trkpt><trkpt lat="42.2647233" lon="14.0293633"><ele>306.0</ele><time>2026-05-03T11:28:01.28Z</time></trkpt><trkpt lat="42.2648033" lon="14.0293267"><ele>306.0</ele><time>2026-05-03T11:28:02.28Z</time></trkpt><trkpt lat="42.2648783" lon="14.0293183"><ele>306.0</ele><time>2026-05-03T11:28:03.28Z</time></trkpt><trkpt lat="42.2649867" lon="14.0293583"><ele>306.0</ele><time>2026-05-03T11:28:05.28Z</time></trkpt><trkpt lat="42.265025" lon="14.029435"><ele>306.0</ele><time>2026-05-03T11:28:06.28Z</time></trkpt><trkpt lat="42.2650633" lon="14.029525"><ele>306.0</ele><time>2026-05-03T11:28:07.28Z</time></trkpt><trkpt lat="42.2651" lon="14.0296267"><ele>306.0</ele><time>2026-05-03T11:28:08.28Z</time></trkpt><trkpt lat="42.265115" lon="14.02973"><ele>306.0</ele><time>2026-05-03T11:28:09.28Z</time></trkpt><trkpt lat="42.2651383" lon="14.0298317"><ele>306.0</ele><time>2026-05-03T11:28:10.28Z</time></trkpt><trkpt lat="42.2651567" lon="14.0299333"><ele>306.3333333333333</ele><time>2026-05-03T11:28:11.281Z</time></trkpt><trkpt lat="42.2651617" lon="14.03003"><ele>306.6666666666667</ele><time>2026-05-03T11:28:12.28Z</time></trkpt><trkpt lat="42.2651533" lon="14.03015"><ele>307.0</ele><time>2026-05-03T11:28:14.28Z</time></trkpt><trkpt lat="42.26515" lon="14.0302633"><ele>307.33333333333337</ele><time>2026-05-03T11:28:19.28Z</time></trkpt><trkpt lat="42.2651633" lon="14.03035"><ele>307.6666666666667</ele><time>2026-05-03T11:28:21.28Z</time></trkpt><trkpt lat="42.2652183" lon="14.03043"><ele>308.0</ele><time>2026-05-03T11:28:23.28Z</time></trkpt><trkpt lat="42.265275" lon="14.0305317"><ele>308.0</ele><time>2026-05-03T11:28:25.28Z</time></trkpt><trkpt lat="42.2653283" lon="14.030635"><ele>308.0</ele><time>2026-05-03T11:28:27.28Z</time></trkpt><trkpt lat="42.2653717" lon="14.0307467"><ele>308.0</ele><time>2026-05-03T11:28:29.28Z</time></trkpt><trkpt lat="42.265385" lon="14.030845"><ele>308.0</ele><time>2026-05-03T11:28:31.28Z</time></trkpt><trkpt lat="42.26541" lon="14.030985"><ele>308.0</ele><time>2026-05-03T11:28:33.28Z</time></trkpt><trkpt lat="42.2654233" lon="14.0310767"><ele>308.0</ele><time>2026-05-03T11:28:34.281Z</time></trkpt><trkpt lat="42.2654433" lon="14.03118"><ele>308.0</ele><time>2026-05-03T11:28:35.28Z</time></trkpt><trkpt lat="42.2654817" lon="14.03129"><ele>308.0</ele><time>2026-05-03T11:28:36.28Z</time></trkpt><trkpt lat="42.26552" lon="14.0313833"><ele>308.0</ele><time>2026-05-03T11:28:37.28Z</time></trkpt><trkpt lat="42.2655717" lon="14.0314733"><ele>308.0</ele><time>2026-05-03T11:28:38.28Z</time></trkpt><trkpt lat="42.26561" lon="14.0315483"><ele>308.0</ele><time>2026-05-03T11:28:39.28Z</time></trkpt><trkpt lat="42.2656483" lon="14.03163"><ele>308.0</ele><time>2026-05-03T11:28:40.28Z</time></trkpt><trkpt lat="42.2656767" lon="14.03171"><ele>304.83333333333337</ele><time>2026-05-03T11:28:41.28Z</time></trkpt><trkpt lat="42.26571" lon="14.031805"><ele>301.6666666666667</ele><time>2026-05-03T11:28:42.281Z</time></trkpt><trkpt lat="42.2657333" lon="14.031905"><ele>298.5</ele><time>2026-05-03T11:28:43.28Z</time></trkpt><trkpt lat="42.26576" lon="14.031995"><ele>295.3333333333333</ele><time>2026-05-03T11:28:44.28Z</time></trkpt><trkpt lat="42.2657783" lon="14.0320767"><ele>292.16666666666663</ele><time>2026-05-03T11:28:45.28Z</time></trkpt><trkpt lat="42.265805" lon="14.0321583"><ele>289.0</ele><time>2026-05-03T11:28:46.28Z</time></trkpt><trkpt lat="42.265855" lon="14.032295"><ele>289.0</ele><time>2026-05-03T11:28:48.281Z</time></trkpt><trkpt lat="42.265925" lon="14.0324283"><ele>289.0</ele><time>2026-05-03T11:28:50.28Z</time></trkpt><trkpt lat="42.2659717" lon="14.0324983"><ele>289.0</ele><time>2026-05-03T11:28:51.28Z</time></trkpt><trkpt lat="42.2660117" lon="14.032565"><ele>289.0</ele><time>2026-05-03T11:28:52.281Z</time></trkpt><trkpt lat="42.2661" lon="14.0326917"><ele>289.0</ele><time>2026-05-03T11:28:54.28Z</time></trkpt><trkpt lat="42.2661517" lon="14.0327517"><ele>287.66666666666663</ele><time>2026-05-03T11:28:55.28Z</time></trkpt><trkpt lat="42.2662017" lon="14.032805"><ele>286.3333333333333</ele><time>2026-05-03T11:28:56.28Z</time></trkpt><trkpt lat="42.26629" lon="14.0328933"><ele>285.0</ele><time>2026-05-03T11:28:58.28Z</time></trkpt><trkpt lat="42.26635" lon="14.0329367"><ele>283.6666666666667</ele><time>2026-05-03T11:29:00.28Z</time></trkpt><trkpt lat="42.2664383" lon="14.0329433"><ele>282.33333333333337</ele><time>2026-05-03T11:29:03.281Z</time></trkpt><trkpt lat="42.2664967" lon="14.0328867"><ele>281.0</ele><time>2026-05-03T11:29:05.28Z</time></trkpt><trkpt lat="42.266565" lon="14.032815"><ele>278.6666666666667</ele><time>2026-05-03T11:29:07.28Z</time></trkpt><trkpt lat="42.2666183" lon="14.0327583"><ele>276.33333333333337</ele><time>2026-05-03T11:29:09.28Z</time></trkpt><trkpt lat="42.266675" lon="14.0327083"><ele>274.0</ele><time>2026-05-03T11:29:11.28Z</time></trkpt><trkpt lat="42.2667517" lon="14.03269"><ele>271.6666666666667</ele><time>2026-05-03T11:29:14.28Z</time></trkpt><trkpt lat="42.2667767" lon="14.03278"><ele>269.3333333333333</ele><time>2026-05-03T11:29:16.28Z</time></trkpt><trkpt lat="42.26677" lon="14.0329417"><ele>267.0</ele><time>2026-05-03T11:29:18.281Z</time></trkpt><trkpt lat="42.2667617" lon="14.03304"><ele>267.0</ele><time>2026-05-03T11:29:19.28Z</time></trkpt><trkpt lat="42.266755" lon="14.0331433"><ele>267.0</ele><time>2026-05-03T11:29:20.28Z</time></trkpt><trkpt lat="42.26675" lon="14.03324"><ele>267.0</ele><time>2026-05-03T11:29:21.28Z</time></trkpt><trkpt lat="42.2667417" lon="14.0333367"><ele>267.0</ele><time>2026-05-03T11:29:22.28Z</time></trkpt><trkpt lat="42.2667467" lon="14.03348"><ele>267.0</ele><time>2026-05-03T11:29:24.28Z</time></trkpt><trkpt lat="42.2667383" lon="14.0335917"><ele>267.0</ele><time>2026-05-03T11:29:26.28Z</time></trkpt><trkpt lat="42.266725" lon="14.0336817"><ele>265.0</ele><time>2026-05-03T11:29:28.28Z</time></trkpt><trkpt lat="42.2667483" lon="14.0338067"><ele>263.0</ele><time>2026-05-03T11:29:31.28Z</time></trkpt><trkpt lat="42.2667833" lon="14.033895"><ele>261.0</ele><time>2026-05-03T11:29:33.28Z</time></trkpt><trkpt lat="42.2668183" lon="14.03399"><ele>259.0</ele><time>2026-05-03T11:29:37.28Z</time></trkpt><trkpt lat="42.2668517" lon="14.0340717"><ele>257.0</ele><time>2026-05-03T11:29:39.28Z</time></trkpt><trkpt lat="42.2669067" lon="14.0341717"><ele>255.0</ele><time>2026-05-03T11:29:41.28Z</time></trkpt><trkpt lat="42.2669533" lon="14.03424"><ele>253.2</ele><time>2026-05-03T11:29:43.28Z</time></trkpt><trkpt lat="42.2670067" lon="14.0343367"><ele>251.4</ele><time>2026-05-03T11:29:45.28Z</time></trkpt><trkpt lat="42.2670733" lon="14.0344233"><ele>249.60000000000002</ele><time>2026-05-03T11:29:47.28Z</time></trkpt><trkpt lat="42.267135" lon="14.034515"><ele>247.8</ele><time>2026-05-03T11:29:49.28Z</time></trkpt><trkpt lat="42.2671983" lon="14.0346217"><ele>246.0</ele><time>2026-05-03T11:29:51.281Z</time></trkpt><trkpt lat="42.267265" lon="14.0347333"><ele>246.0</ele><time>2026-05-03T11:29:53.28Z</time></trkpt><trkpt lat="42.2673083" lon="14.0348417"><ele>246.0</ele><time>2026-05-03T11:29:55.28Z</time></trkpt><trkpt lat="42.2673433" lon="14.03494"><ele>246.0</ele><time>2026-05-03T11:29:57.28Z</time></trkpt><trkpt lat="42.267375" lon="14.0350367"><ele>246.0</ele><time>2026-05-03T11:29:59.28Z</time></trkpt><trkpt lat="42.2673767" lon="14.0351467"><ele>246.0</ele><time>2026-05-03T11:30:01.28Z</time></trkpt><trkpt lat="42.2673617" lon="14.03527"><ele>246.0</ele><time>2026-05-03T11:30:03.28Z</time></trkpt><trkpt lat="42.26736" lon="14.035375"><ele>244.20000000000002</ele><time>2026-05-03T11:30:05.28Z</time></trkpt><trkpt lat="42.2673617" lon="14.035485"><ele>242.40000000000003</ele><time>2026-05-03T11:30:07.28Z</time></trkpt><trkpt lat="42.2673517" lon="14.0356233"><ele>240.6</ele><time>2026-05-03T11:30:09.28Z</time></trkpt><trkpt lat="42.2673367" lon="14.035765"><ele>238.8</ele><time>2026-05-03T11:30:11.28Z</time></trkpt><trkpt lat="42.2673133" lon="14.0358817"><ele>237.0</ele><time>2026-05-03T11:30:13.28Z</time></trkpt><trkpt lat="42.2672617" lon="14.0359483"><ele>236.33333333333334</ele><time>2026-05-03T11:30:15.28Z</time></trkpt><trkpt lat="42.2672433" lon="14.03603"><ele>235.66666666666669</ele><time>2026-05-03T11:30:17.281Z</time></trkpt><trkpt lat="42.2672883" lon="14.036125"><ele>235.0</ele><time>2026-05-03T11:30:19.28Z</time></trkpt><trkpt lat="42.2673717" lon="14.0361867"><ele>234.33333333333334</ele><time>2026-05-03T11:30:21.28Z</time></trkpt><trkpt lat="42.2674417" lon="14.03626"><ele>233.66666666666669</ele><time>2026-05-03T11:30:23.28Z</time></trkpt><trkpt lat="42.267505" lon="14.0363517"><ele>233.0</ele><time>2026-05-03T11:30:25.28Z</time></trkpt><trkpt lat="42.2675683" lon="14.036465"><ele>231.4</ele><time>2026-05-03T11:30:27.28Z</time></trkpt><trkpt lat="42.2676317" lon="14.0365567"><ele>229.8</ele><time>2026-05-03T11:30:29.28Z</time></trkpt><trkpt lat="42.26772" lon="14.0365783"><ele>228.2</ele><time>2026-05-03T11:30:32.28Z</time></trkpt><trkpt lat="42.2678317" lon="14.0366017"><ele>226.6</ele><time>2026-05-03T11:31:51.28Z</time></trkpt><trkpt lat="42.2677338" lon="14.0366367"><ele>225.0</ele><time>2026-05-03T11:32:38.337Z</time></trkpt><trkpt lat="42.2676867" lon="14.0367483"><ele>225.0</ele><time>2026-05-03T11:32:50.279Z</time></trkpt><trkpt lat="42.2676883" lon="14.0366317"><ele>225.0</ele><time>2026-05-03T11:33:55.279Z</time></trkpt><trkpt lat="42.2677417" lon="14.0365483"><ele>225.0</ele><time>2026-05-03T11:33:57.28Z</time></trkpt><trkpt lat="42.2678167" lon="14.0364667"><ele>225.0</ele><time>2026-05-03T11:33:59.279Z</time></trkpt><trkpt lat="42.2678883" lon="14.03641"><ele>225.0</ele><time>2026-05-03T11:34:01.28Z</time></trkpt><trkpt lat="42.267975" lon="14.0363483"><ele>225.0</ele><time>2026-05-03T11:34:03.279Z</time></trkpt><trkpt lat="42.268075" lon="14.0362867"><ele>227.66666666666666</ele><time>2026-05-03T11:34:05.279Z</time></trkpt><trkpt lat="42.2681767" lon="14.03624"><ele>230.33333333333331</ele><time>2026-05-03T11:34:07.279Z</time></trkpt><trkpt lat="42.26826" lon="14.03619"><ele>233.0</ele><time>2026-05-03T11:34:09.279Z</time></trkpt><trkpt lat="42.268325" lon="14.0361333"><ele>235.66666666666666</ele><time>2026-05-03T11:34:12.279Z</time></trkpt><trkpt lat="42.2684033" lon="14.0360633"><ele>238.33333333333331</ele><time>2026-05-03T11:36:41.279Z</time></trkpt><trkpt lat="42.2684633" lon="14.0360317"><ele>241.0</ele><time>2026-05-03T11:36:46.279Z</time></trkpt><trkpt lat="42.268525" lon="14.0359983"><ele>240.99999999999997</ele><time>2026-05-03T11:36:52.279Z</time></trkpt><trkpt lat="42.2686017" lon="14.035965"><ele>241.0</ele><time>2026-05-03T11:37:07.279Z</time></trkpt><trkpt lat="42.268665" lon="14.0359417"><ele>241.0</ele><time>2026-05-03T11:37:10.279Z</time></trkpt><trkpt lat="42.2687667" lon="14.0359217"><ele>241.0</ele><time>2026-05-03T11:37:13.279Z</time></trkpt><trkpt lat="42.2688617" lon="14.035915"><ele>240.99999999999997</ele><time>2026-05-03T11:37:15.279Z</time></trkpt><trkpt lat="42.2689433" lon="14.0359117"><ele>241.0</ele><time>2026-05-03T11:37:17.279Z</time></trkpt><trkpt lat="42.2690317" lon="14.03589"><ele>242.4</ele><time>2026-05-03T11:37:19.279Z</time></trkpt><trkpt lat="42.2691017" lon="14.035885"><ele>243.8</ele><time>2026-05-03T11:37:21.279Z</time></trkpt><trkpt lat="42.269185" lon="14.0358717"><ele>245.20000000000002</ele><time>2026-05-03T11:37:24.279Z</time></trkpt><trkpt lat="42.2693083" lon="14.03588"><ele>246.60000000000002</ele><time>2026-05-03T11:38:43.279Z</time></trkpt><trkpt lat="42.2694333" lon="14.035915"><ele>248.0</ele><time>2026-05-03T11:38:45.279Z</time></trkpt><trkpt lat="42.2695033" lon="14.035935"><ele>248.0</ele><time>2026-05-03T11:38:46.279Z</time></trkpt><trkpt lat="42.2695733" lon="14.0359583"><ele>248.00000000000003</ele><time>2026-05-03T11:38:47.279Z</time></trkpt><trkpt lat="42.2696467" lon="14.03599"><ele>248.0</ele><time>2026-05-03T11:38:48.28Z</time></trkpt><trkpt lat="42.2697117" lon="14.0360167"><ele>248.0</ele><time>2026-05-03T11:38:49.279Z</time></trkpt><trkpt lat="42.2697867" lon="14.0360483"><ele>248.00000000000003</ele><time>2026-05-03T11:38:50.279Z</time></trkpt><trkpt lat="42.2698583" lon="14.0360667"><ele>248.0</ele><time>2026-05-03T11:38:51.279Z</time></trkpt><trkpt lat="42.2699267" lon="14.03609"><ele>248.0</ele><time>2026-05-03T11:38:52.279Z</time></trkpt><trkpt lat="42.2700317" lon="14.036145"><ele>250.60000000000002</ele><time>2026-05-03T11:38:54.279Z</time></trkpt><trkpt lat="42.270135" lon="14.0361833"><ele>253.20000000000002</ele><time>2026-05-03T11:38:56.279Z</time></trkpt><trkpt lat="42.2702417" lon="14.03618"><ele>255.8</ele><time>2026-05-03T11:38:58.279Z</time></trkpt><trkpt lat="42.270305" lon="14.0361583"><ele>258.40000000000003</ele><time>2026-05-03T11:38:59.279Z</time></trkpt><trkpt lat="42.27043" lon="14.0360933"><ele>261.0</ele><time>2026-05-03T11:39:01.279Z</time></trkpt><trkpt lat="42.2704917" lon="14.0360717"><ele>261.0</ele><time>2026-05-03T11:39:02.278Z</time></trkpt><trkpt lat="42.27058" lon="14.03605"><ele>261.0</ele><time>2026-05-03T11:39:04.278Z</time></trkpt><trkpt lat="42.2706567" lon="14.0360567"><ele>261.0</ele><time>2026-05-03T11:39:06.278Z</time></trkpt><trkpt lat="42.270745" lon="14.0360783"><ele>261.0</ele><time>2026-05-03T11:39:08.278Z</time></trkpt><trkpt lat="42.2708467" lon="14.0361117"><ele>261.0</ele><time>2026-05-03T11:39:10.278Z</time></trkpt><trkpt lat="42.27096" lon="14.0361467"><ele>259.40000000000003</ele><time>2026-05-03T11:39:12.278Z</time></trkpt><trkpt lat="42.2710417" lon="14.0361833"><ele>257.8</ele><time>2026-05-03T11:39:14.278Z</time></trkpt><trkpt lat="42.2711283" lon="14.036215"><ele>256.20000000000005</ele><time>2026-05-03T11:39:17.278Z</time></trkpt><trkpt lat="42.2712133" lon="14.036145"><ele>254.60000000000002</ele><time>2026-05-03T11:39:23.278Z</time></trkpt><trkpt lat="42.2712383" lon="14.0360517"><ele>253.0</ele><time>2026-05-03T11:39:25.278Z</time></trkpt><trkpt lat="42.271275" lon="14.0359217"><ele>255.0</ele><time>2026-05-03T11:39:27.278Z</time></trkpt><trkpt lat="42.2713283" lon="14.0357933"><ele>257.0</ele><time>2026-05-03T11:39:29.278Z</time></trkpt><trkpt lat="42.2713567" lon="14.035655"><ele>259.0</ele><time>2026-05-03T11:39:31.278Z</time></trkpt><trkpt lat="42.2713683" lon="14.0355"><ele>261.0</ele><time>2026-05-03T11:39:33.278Z</time></trkpt><trkpt lat="42.2713617" lon="14.0354067"><ele>263.0</ele><time>2026-05-03T11:39:34.278Z</time></trkpt><trkpt lat="42.2713467" lon="14.0353067"><ele>263.0</ele><time>2026-05-03T11:39:35.278Z</time></trkpt><trkpt lat="42.271345" lon="14.0351983"><ele>263.0</ele><time>2026-05-03T11:39:36.278Z</time></trkpt><trkpt lat="42.27135" lon="14.0350867"><ele>263.0</ele><time>2026-05-03T11:39:37.278Z</time></trkpt><trkpt lat="42.2713683" lon="14.03498"><ele>263.0</ele><time>2026-05-03T11:39:38.278Z</time></trkpt><trkpt lat="42.2713967" lon="14.0348817"><ele>263.0</ele><time>2026-05-03T11:39:39.278Z</time></trkpt><trkpt lat="42.2714267" lon="14.03479"><ele>263.0</ele><time>2026-05-03T11:39:40.278Z</time></trkpt><trkpt lat="42.2714567" lon="14.0347017"><ele>263.6666666666667</ele><time>2026-05-03T11:39:41.278Z</time></trkpt><trkpt lat="42.2714833" lon="14.0346067"><ele>264.33333333333337</ele><time>2026-05-03T11:39:42.278Z</time></trkpt><trkpt lat="42.2715" lon="14.0345133"><ele>265.0</ele><time>2026-05-03T11:39:43.278Z</time></trkpt><trkpt lat="42.2715233" lon="14.03441"><ele>265.6666666666667</ele><time>2026-05-03T11:39:44.278Z</time></trkpt><trkpt lat="42.2715417" lon="14.0343117"><ele>266.3333333333333</ele><time>2026-05-03T11:39:45.278Z</time></trkpt><trkpt lat="42.27156" lon="14.0342133"><ele>267.0</ele><time>2026-05-03T11:39:46.279Z</time></trkpt><trkpt lat="42.2715717" lon="14.0341117"><ele>267.0</ele><time>2026-05-03T11:39:47.278Z</time></trkpt><trkpt lat="42.2715917" lon="14.0340067"><ele>267.0</ele><time>2026-05-03T11:39:48.278Z</time></trkpt><trkpt lat="42.2716117" lon="14.03391"><ele>267.0</ele><time>2026-05-03T11:39:49.278Z</time></trkpt><trkpt lat="42.2716283" lon="14.033825"><ele>267.0</ele><time>2026-05-03T11:39:50.278Z</time></trkpt><trkpt lat="42.2716533" lon="14.0337433"><ele>267.0</ele><time>2026-05-03T11:39:51.278Z</time></trkpt><trkpt lat="42.2716983" lon="14.0335833"><ele>267.0</ele><time>2026-05-03T11:39:53.279Z</time></trkpt><trkpt lat="42.2717167" lon="14.0335017"><ele>267.0</ele><time>2026-05-03T11:39:54.278Z</time></trkpt><trkpt lat="42.27175" lon="14.0333483"><ele>267.0</ele><time>2026-05-03T11:39:56.278Z</time></trkpt><trkpt lat="42.27175" lon="14.0332017"><ele>267.0</ele><time>2026-05-03T11:39:58.278Z</time></trkpt><trkpt lat="42.27174" lon="14.0330583"><ele>267.0</ele><time>2026-05-03T11:40:00.278Z</time></trkpt><trkpt lat="42.2717483" lon="14.0329283"><ele>267.0</ele><time>2026-05-03T11:40:02.279Z</time></trkpt><trkpt lat="42.2718017" lon="14.0328667"><ele>269.6</ele><time>2026-05-03T11:40:04.278Z</time></trkpt><trkpt lat="42.2718767" lon="14.0328333"><ele>272.2</ele><time>2026-05-03T11:40:06.278Z</time></trkpt><trkpt lat="42.2719417" lon="14.03277"><ele>274.8</ele><time>2026-05-03T11:40:08.278Z</time></trkpt><trkpt lat="42.2719633" lon="14.0326267"><ele>277.4</ele><time>2026-05-03T11:40:10.278Z</time></trkpt><trkpt lat="42.27198" lon="14.032465"><ele>280.0</ele><time>2026-05-03T11:40:12.278Z</time></trkpt><trkpt lat="42.2719983" lon="14.0323717"><ele>282.0</ele><time>2026-05-03T11:40:13.278Z</time></trkpt><trkpt lat="42.27203" lon="14.032215"><ele>284.0</ele><time>2026-05-03T11:40:15.278Z</time></trkpt><trkpt lat="42.27204" lon="14.03213"><ele>286.0</ele><time>2026-05-03T11:40:16.278Z</time></trkpt><trkpt lat="42.2720517" lon="14.032045"><ele>288.0</ele><time>2026-05-03T11:40:17.279Z</time></trkpt><trkpt lat="42.2720617" lon="14.0318833"><ele>290.0</ele><time>2026-05-03T11:40:19.278Z</time></trkpt><trkpt lat="42.2720717" lon="14.0317183"><ele>290.4</ele><time>2026-05-03T11:40:21.278Z</time></trkpt><trkpt lat="42.272085" lon="14.0315667"><ele>290.8</ele><time>2026-05-03T11:40:23.278Z</time></trkpt><trkpt lat="42.27211" lon="14.031415"><ele>291.2</ele><time>2026-05-03T11:40:25.279Z</time></trkpt><trkpt lat="42.2721233" lon="14.0313317"><ele>291.6</ele><time>2026-05-03T11:40:26.279Z</time></trkpt><trkpt lat="42.2721433" lon="14.0312483"><ele>292.0</ele><time>2026-05-03T11:40:27.278Z</time></trkpt><trkpt lat="42.272175" lon="14.031105"><ele>292.0</ele><time>2026-05-03T11:40:29.278Z</time></trkpt><trkpt lat="42.272195" lon="14.0309767"><ele>292.0</ele><time>2026-05-03T11:40:31.278Z</time></trkpt><trkpt lat="42.2722567" lon="14.0308817"><ele>292.0</ele><time>2026-05-03T11:40:34.279Z</time></trkpt><trkpt lat="42.2723533" lon="14.0308483"><ele>292.0</ele><time>2026-05-03T11:40:36.278Z</time></trkpt><trkpt lat="42.2724233" lon="14.0308367"><ele>292.0</ele><time>2026-05-03T11:40:37.278Z</time></trkpt><trkpt lat="42.2724967" lon="14.0308267"><ele>292.0</ele><time>2026-05-03T11:40:38.278Z</time></trkpt><trkpt lat="42.2725667" lon="14.0308167"><ele>288.6</ele><time>2026-05-03T11:40:39.279Z</time></trkpt><trkpt lat="42.2726483" lon="14.0308033"><ele>285.2</ele><time>2026-05-03T11:40:40.278Z</time></trkpt><trkpt lat="42.2727383" lon="14.0307933"><ele>281.8</ele><time>2026-05-03T11:40:41.278Z</time></trkpt><trkpt lat="42.2728483" lon="14.030795"><ele>278.4</ele><time>2026-05-03T11:40:42.278Z</time></trkpt><trkpt lat="42.27296" lon="14.0308"><ele>275.0</ele><time>2026-05-03T11:40:43.278Z</time></trkpt><trkpt lat="42.2730833" lon="14.0308033"><ele>276.2</ele><time>2026-05-03T11:40:44.278Z</time></trkpt><trkpt lat="42.273195" lon="14.0308217"><ele>277.4</ele><time>2026-05-03T11:40:45.279Z</time></trkpt><trkpt lat="42.2732967" lon="14.0308517"><ele>278.6</ele><time>2026-05-03T11:40:46.278Z</time></trkpt><trkpt lat="42.2733883" lon="14.0308867"><ele>279.8</ele><time>2026-05-03T11:40:47.278Z</time></trkpt><trkpt lat="42.273475" lon="14.0309367"><ele>281.0</ele><time>2026-05-03T11:40:48.278Z</time></trkpt><trkpt lat="42.2735767" lon="14.0310067"><ele>281.0</ele><time>2026-05-03T11:40:49.278Z</time></trkpt><trkpt lat="42.2736733" lon="14.0310833"><ele>281.0</ele><time>2026-05-03T11:40:50.278Z</time></trkpt><trkpt lat="42.2737833" lon="14.03118"><ele>281.0</ele><time>2026-05-03T11:40:51.278Z</time></trkpt><trkpt lat="42.2738983" lon="14.0312817"><ele>281.0</ele><time>2026-05-03T11:40:52.278Z</time></trkpt><trkpt lat="42.2740017" lon="14.0313817"><ele>280.40000000000003</ele><time>2026-05-03T11:40:53.279Z</time></trkpt><trkpt lat="42.2741033" lon="14.0314767"><ele>279.8</ele><time>2026-05-03T11:40:54.279Z</time></trkpt><trkpt lat="42.2742067" lon="14.031565"><ele>279.20000000000005</ele><time>2026-05-03T11:40:55.278Z</time></trkpt><trkpt lat="42.2743017" lon="14.0316333"><ele>278.6</ele><time>2026-05-03T11:40:56.278Z</time></trkpt><trkpt lat="42.27439" lon="14.03168"><ele>278.0</ele><time>2026-05-03T11:40:57.278Z</time></trkpt><trkpt lat="42.274495" lon="14.0316867"><ele>278.0</ele><time>2026-05-03T11:40:58.278Z</time></trkpt><trkpt lat="42.2746133" lon="14.0316567"><ele>278.0</ele><time>2026-05-03T11:40:59.278Z</time></trkpt><trkpt lat="42.2747417" lon="14.03161"><ele>278.0</ele><time>2026-05-03T11:41:00.278Z</time></trkpt><trkpt lat="42.2748817" lon="14.0315567"><ele>278.0</ele><time>2026-05-03T11:41:01.278Z</time></trkpt><trkpt lat="42.2750317" lon="14.0314983"><ele>270.0</ele><time>2026-05-03T11:41:02.278Z</time></trkpt><trkpt lat="42.27517" lon="14.031435"><ele>262.0</ele><time>2026-05-03T11:41:03.278Z</time></trkpt><trkpt lat="42.2753" lon="14.031365"><ele>254.0</ele><time>2026-05-03T11:41:04.278Z</time></trkpt><trkpt lat="42.27542" lon="14.0313017"><ele>246.0</ele><time>2026-05-03T11:41:05.278Z</time></trkpt><trkpt lat="42.2755417" lon="14.031235"><ele>247.5</ele><time>2026-05-03T11:41:06.279Z</time></trkpt><trkpt lat="42.275655" lon="14.0311767"><ele>249.0</ele><time>2026-05-03T11:41:07.278Z</time></trkpt><trkpt lat="42.27576" lon="14.0311217"><ele>250.5</ele><time>2026-05-03T11:41:08.278Z</time></trkpt><trkpt lat="42.2758717" lon="14.0310683"><ele>252.0</ele><time>2026-05-03T11:41:09.278Z</time></trkpt><trkpt lat="42.2759733" lon="14.03102"><ele>252.0</ele><time>2026-05-03T11:41:10.278Z</time></trkpt><trkpt lat="42.2760717" lon="14.0309917"><ele>252.0</ele><time>2026-05-03T11:41:11.279Z</time></trkpt><trkpt lat="42.2761767" lon="14.0309783"><ele>252.0</ele><time>2026-05-03T11:41:12.278Z</time></trkpt><trkpt lat="42.2762783" lon="14.031005"><ele>252.0</ele><time>2026-05-03T11:41:13.279Z</time></trkpt><trkpt lat="42.2763767" lon="14.0310667"><ele>252.0</ele><time>2026-05-03T11:41:14.278Z</time></trkpt><trkpt lat="42.2764783" lon="14.0311683"><ele>252.75</ele><time>2026-05-03T11:41:15.278Z</time></trkpt><trkpt lat="42.2765583" lon="14.0313017"><ele>253.5</ele><time>2026-05-03T11:41:16.278Z</time></trkpt><trkpt lat="42.27664" lon="14.031445"><ele>254.25</ele><time>2026-05-03T11:41:17.278Z</time></trkpt><trkpt lat="42.2767317" lon="14.03161"><ele>255.0</ele><time>2026-05-03T11:41:18.278Z</time></trkpt><trkpt lat="42.2768383" lon="14.0317917"><ele>255.0</ele><time>2026-05-03T11:41:19.278Z</time></trkpt><trkpt lat="42.276945" lon="14.0319667"><ele>255.0</ele><time>2026-05-03T11:41:20.278Z</time></trkpt><trkpt lat="42.2770483" lon="14.03212"><ele>255.0</ele><time>2026-05-03T11:41:21.279Z</time></trkpt><trkpt lat="42.27715" lon="14.0322867"><ele>255.0</ele><time>2026-05-03T11:41:22.278Z</time></trkpt><trkpt lat="42.2772467" lon="14.0324467"><ele>255.0</ele><time>2026-05-03T11:41:23.278Z</time></trkpt><trkpt lat="42.277345" lon="14.0325883"><ele>255.0</ele><time>2026-05-03T11:41:24.278Z</time></trkpt><trkpt lat="42.2774333" lon="14.0327283"><ele>255.0</ele><time>2026-05-03T11:41:25.278Z</time></trkpt><trkpt lat="42.2775267" lon="14.0328633"><ele>252.25</ele><time>2026-05-03T11:41:26.278Z</time></trkpt><trkpt lat="42.27761" lon="14.032995"><ele>249.5</ele><time>2026-05-03T11:41:27.278Z</time></trkpt><trkpt lat="42.2776983" lon="14.033135"><ele>246.75</ele><time>2026-05-03T11:41:28.278Z</time></trkpt><trkpt lat="42.2777717" lon="14.03326"><ele>244.0</ele><time>2026-05-03T11:41:29.278Z</time></trkpt><trkpt lat="42.2778383" lon="14.0333833"><ele>244.0</ele><time>2026-05-03T11:41:30.279Z</time></trkpt><trkpt lat="42.2779083" lon="14.0335167"><ele>244.0</ele><time>2026-05-03T11:41:31.278Z</time></trkpt><trkpt lat="42.27798" lon="14.0336617"><ele>244.0</ele><time>2026-05-03T11:41:32.279Z</time></trkpt><trkpt lat="42.278055" lon="14.0338033"><ele>244.0</ele><time>2026-05-03T11:41:33.278Z</time></trkpt><trkpt lat="42.2781283" lon="14.03395"><ele>240.5</ele><time>2026-05-03T11:41:34.278Z</time></trkpt><trkpt lat="42.2781933" lon="14.03409"><ele>237.0</ele><time>2026-05-03T11:41:35.278Z</time></trkpt><trkpt lat="42.2782667" lon="14.03424"><ele>233.5</ele><time>2026-05-03T11:41:36.278Z</time></trkpt><trkpt lat="42.2783383" lon="14.0343983"><ele>230.0</ele><time>2026-05-03T11:41:37.278Z</time></trkpt><trkpt lat="42.278405" lon="14.0345517"><ele>230.0</ele><time>2026-05-03T11:41:38.278Z</time></trkpt><trkpt lat="42.2784717" lon="14.0347033"><ele>230.0</ele><time>2026-05-03T11:41:39.278Z</time></trkpt><trkpt lat="42.2785533" lon="14.0348533"><ele>230.0</ele><time>2026-05-03T11:41:40.279Z</time></trkpt><trkpt lat="42.2786567" lon="14.0349883"><ele>230.0</ele><time>2026-05-03T11:41:41.278Z</time></trkpt><trkpt lat="42.2787617" lon="14.0351133"><ele>230.5</ele><time>2026-05-03T11:41:42.278Z</time></trkpt><trkpt lat="42.2788833" lon="14.0352433"><ele>231.0</ele><time>2026-05-03T11:41:43.278Z</time></trkpt><trkpt lat="42.27899" lon="14.0353833"><ele>231.5</ele><time>2026-05-03T11:41:44.278Z</time></trkpt><trkpt lat="42.279095" lon="14.0355183"><ele>232.0</ele><time>2026-05-03T11:41:45.278Z</time></trkpt><trkpt lat="42.2791867" lon="14.03566"><ele>230.0</ele><time>2026-05-03T11:41:46.278Z</time></trkpt><trkpt lat="42.2792667" lon="14.0357983"><ele>228.0</ele><time>2026-05-03T11:41:47.278Z</time></trkpt><trkpt lat="42.2793383" lon="14.0359533"><ele>226.0</ele><time>2026-05-03T11:41:48.278Z</time></trkpt><trkpt lat="42.2794117" lon="14.03612"><ele>224.0</ele><time>2026-05-03T11:41:49.278Z</time></trkpt><trkpt lat="42.279485" lon="14.036295"><ele>224.0</ele><time>2026-05-03T11:41:50.278Z</time></trkpt><trkpt lat="42.2795633" lon="14.036465"><ele>224.0</ele><time>2026-05-03T11:41:51.278Z</time></trkpt><trkpt lat="42.279645" lon="14.036635"><ele>224.0</ele><time>2026-05-03T11:41:52.278Z</time></trkpt><trkpt lat="42.27973" lon="14.0368083"><ele>223.25</ele><time>2026-05-03T11:41:53.278Z</time></trkpt><trkpt lat="42.279815" lon="14.03697"><ele>222.5</ele><time>2026-05-03T11:41:54.278Z</time></trkpt><trkpt lat="42.2798917" lon="14.0371317"><ele>221.75</ele><time>2026-05-03T11:41:55.278Z</time></trkpt><trkpt lat="42.279965" lon="14.0372867"><ele>221.0</ele><time>2026-05-03T11:41:56.278Z</time></trkpt><trkpt lat="42.280035" lon="14.0374417"><ele>221.0</ele><time>2026-05-03T11:41:57.278Z</time></trkpt><trkpt lat="42.2801067" lon="14.0376"><ele>221.0</ele><time>2026-05-03T11:41:58.278Z</time></trkpt><trkpt lat="42.2801867" lon="14.0377567"><ele>221.0</ele><time>2026-05-03T11:41:59.278Z</time></trkpt><trkpt lat="42.2802733" lon="14.0379167"><ele>221.0</ele><time>2026-05-03T11:42:00.278Z</time></trkpt><trkpt lat="42.2803717" lon="14.0380767"><ele>221.0</ele><time>2026-05-03T11:42:01.278Z</time></trkpt><trkpt lat="42.2804767" lon="14.0382367"><ele>221.0</ele><time>2026-05-03T11:42:02.278Z</time></trkpt><trkpt lat="42.2805883" lon="14.0383983"><ele>221.0</ele><time>2026-05-03T11:42:03.278Z</time></trkpt><trkpt lat="42.2807067" lon="14.0385533"><ele>218.33333333333334</ele><time>2026-05-03T11:42:04.278Z</time></trkpt><trkpt lat="42.2808167" lon="14.0386967"><ele>215.66666666666669</ele><time>2026-05-03T11:42:05.278Z</time></trkpt><trkpt lat="42.2809233" lon="14.0388383"><ele>213.0</ele><time>2026-05-03T11:42:06.278Z</time></trkpt><trkpt lat="42.2810367" lon="14.0389717"><ele>213.0</ele><time>2026-05-03T11:42:07.278Z</time></trkpt><trkpt lat="42.2811617" lon="14.0390933"><ele>213.0</ele><time>2026-05-03T11:42:08.278Z</time></trkpt><trkpt lat="42.28129" lon="14.0392033"><ele>213.0</ele><time>2026-05-03T11:42:09.279Z</time></trkpt><trkpt lat="42.2814283" lon="14.0392967"><ele>212.75</ele><time>2026-05-03T11:42:10.278Z</time></trkpt><trkpt lat="42.2815617" lon="14.0393717"><ele>212.5</ele><time>2026-05-03T11:42:11.278Z</time></trkpt><trkpt lat="42.2816967" lon="14.0394383"><ele>212.25</ele><time>2026-05-03T11:42:12.278Z</time></trkpt><trkpt lat="42.2818217" lon="14.0395"><ele>212.0</ele><time>2026-05-03T11:42:13.278Z</time></trkpt><trkpt lat="42.2819517" lon="14.0395733"><ele>212.0</ele><time>2026-05-03T11:42:14.278Z</time></trkpt><trkpt lat="42.2820667" lon="14.03965"><ele>212.0</ele><time>2026-05-03T11:42:15.278Z</time></trkpt><trkpt lat="42.282185" lon="14.0397517"><ele>212.0</ele><time>2026-05-03T11:42:16.278Z</time></trkpt><trkpt lat="42.2822883" lon="14.03986"><ele>212.0</ele><time>2026-05-03T11:42:17.278Z</time></trkpt><trkpt lat="42.28238" lon="14.0399833"><ele>211.0</ele><time>2026-05-03T11:42:18.278Z</time></trkpt><trkpt lat="42.2824733" lon="14.0401217"><ele>210.0</ele><time>2026-05-03T11:42:19.278Z</time></trkpt><trkpt lat="42.28257" lon="14.0402533"><ele>209.0</ele><time>2026-05-03T11:42:20.278Z</time></trkpt><trkpt lat="42.2826617" lon="14.0403824"><ele>208.0</ele><time>2026-05-03T11:42:21.279Z</time></trkpt><trkpt lat="42.2827514" lon="14.0405122"><ele>208.0</ele><time>2026-05-03T11:42:22.278Z</time></trkpt><trkpt lat="42.2828281" lon="14.0406526"><ele>208.0</ele><time>2026-05-03T11:42:23.278Z</time></trkpt><trkpt lat="42.2828893" lon="14.0408048"><ele>208.0</ele><time>2026-05-03T11:42:24.278Z</time></trkpt><trkpt lat="42.2829328" lon="14.0409575"><ele>208.0</ele><time>2026-05-03T11:42:25.278Z</time></trkpt><trkpt lat="42.2829714" lon="14.0410981"><ele>207.2</ele><time>2026-05-03T11:42:26.279Z</time></trkpt><trkpt lat="42.2830169" lon="14.0412274"><ele>206.4</ele><time>2026-05-03T11:42:27.278Z</time></trkpt><trkpt lat="42.2830768" lon="14.0413424"><ele>205.6</ele><time>2026-05-03T11:42:28.278Z</time></trkpt><trkpt lat="42.283152" lon="14.04144"><ele>204.79999999999998</ele><time>2026-05-03T11:42:29.278Z</time></trkpt><trkpt lat="42.2832612" lon="14.0415024"><ele>204.0</ele><time>2026-05-03T11:42:30.278Z</time></trkpt><trkpt lat="42.2833818" lon="14.04153"><ele>204.0</ele><time>2026-05-03T11:42:31.279Z</time></trkpt><trkpt lat="42.2835175" lon="14.0415484"><ele>204.0</ele><time>2026-05-03T11:42:32.278Z</time></trkpt><trkpt lat="42.2836582" lon="14.0415649"><ele>204.0</ele><time>2026-05-03T11:42:33.279Z</time></trkpt><trkpt lat="42.2837935" lon="14.0415891"><ele>204.0</ele><time>2026-05-03T11:42:34.278Z</time></trkpt><trkpt lat="42.2839238" lon="14.0416262"><ele>201.0</ele><time>2026-05-03T11:42:35.278Z</time></trkpt><trkpt lat="42.2840641" lon="14.041687"><ele>198.0</ele><time>2026-05-03T11:42:36.278Z</time></trkpt><trkpt lat="42.2842213" lon="14.0417508"><ele>195.0</ele><time>2026-05-03T11:42:37.278Z</time></trkpt><trkpt lat="42.2843988" lon="14.0418197"><ele>195.0</ele><time>2026-05-03T11:42:38.278Z</time></trkpt><trkpt lat="42.2845972" lon="14.0418929"><ele>195.0</ele><time>2026-05-03T11:42:39.278Z</time></trkpt><trkpt lat="42.2847918" lon="14.0419639"><ele>195.0</ele><time>2026-05-03T11:42:40.278Z</time></trkpt><trkpt lat="42.2849745" lon="14.0420289"><ele>192.0</ele><time>2026-05-03T11:42:41.278Z</time></trkpt><trkpt lat="42.2851426" lon="14.0420913"><ele>189.0</ele><time>2026-05-03T11:42:42.278Z</time></trkpt><trkpt lat="42.2853014" lon="14.0421511"><ele>186.0</ele><time>2026-05-03T11:42:43.279Z</time></trkpt><trkpt lat="42.2854541" lon="14.0421967"><ele>185.0</ele><time>2026-05-03T11:42:44.278Z</time></trkpt><trkpt lat="42.2856101" lon="14.0422327"><ele>184.0</ele><time>2026-05-03T11:42:45.278Z</time></trkpt><trkpt lat="42.2857698" lon="14.0422636"><ele>183.0</ele><time>2026-05-03T11:42:46.278Z</time></trkpt><trkpt lat="42.2859378" lon="14.0422891"><ele>183.0</ele><time>2026-05-03T11:42:47.278Z</time></trkpt><trkpt lat="42.2861086" lon="14.0423202"><ele>183.0</ele><time>2026-05-03T11:42:48.278Z</time></trkpt><trkpt lat="42.2862676" lon="14.0423584"><ele>183.0</ele><time>2026-05-03T11:42:49.278Z</time></trkpt><trkpt lat="42.2864315" lon="14.0424045"><ele>181.33333333333334</ele><time>2026-05-03T11:42:50.278Z</time></trkpt><trkpt lat="42.2866038" lon="14.0424545"><ele>179.66666666666669</ele><time>2026-05-03T11:42:51.278Z</time></trkpt><trkpt lat="42.2867917" lon="14.042511"><ele>178.0</ele><time>2026-05-03T11:42:52.278Z</time></trkpt><trkpt lat="42.2869739" lon="14.0425652"><ele>175.33333333333334</ele><time>2026-05-03T11:42:53.278Z</time></trkpt><trkpt lat="42.287155" lon="14.0426167"><ele>172.66666666666666</ele><time>2026-05-03T11:42:54.278Z</time></trkpt><trkpt lat="42.2873283" lon="14.0426583"><ele>170.0</ele><time>2026-05-03T11:42:55.278Z</time></trkpt><trkpt lat="42.2874983" lon="14.0427033"><ele>168.66666666666666</ele><time>2026-05-03T11:42:56.278Z</time></trkpt><trkpt lat="42.28766" lon="14.042735"><ele>167.33333333333334</ele><time>2026-05-03T11:42:57.278Z</time></trkpt><trkpt lat="42.287825" lon="14.042765"><ele>166.0</ele><time>2026-05-03T11:42:58.278Z</time></trkpt><trkpt lat="42.28799" lon="14.0427867"><ele>163.33333333333334</ele><time>2026-05-03T11:42:59.278Z</time></trkpt><trkpt lat="42.2881567" lon="14.0427983"><ele>160.66666666666666</ele><time>2026-05-03T11:43:00.278Z</time></trkpt><trkpt lat="42.2883367" lon="14.0428067"><ele>158.0</ele><time>2026-05-03T11:43:01.278Z</time></trkpt><trkpt lat="42.28851" lon="14.0428117"><ele>158.0</ele><time>2026-05-03T11:43:02.279Z</time></trkpt><trkpt lat="42.288665" lon="14.0428033"><ele>158.0</ele><time>2026-05-03T11:43:03.278Z</time></trkpt><trkpt lat="42.288805" lon="14.0427933"><ele>158.0</ele><time>2026-05-03T11:43:04.278Z</time></trkpt><trkpt lat="42.2889317" lon="14.0427867"><ele>158.0</ele><time>2026-05-03T11:43:05.279Z</time></trkpt><trkpt lat="42.2890483" lon="14.0427917"><ele>156.20000000000002</ele><time>2026-05-03T11:43:06.278Z</time></trkpt><trkpt lat="42.2891383" lon="14.04279"><ele>154.4</ele><time>2026-05-03T11:43:07.279Z</time></trkpt><trkpt lat="42.2892083" lon="14.0427967"><ele>152.60000000000002</ele><time>2026-05-03T11:43:08.278Z</time></trkpt><trkpt lat="42.2892967" lon="14.042875"><ele>150.8</ele><time>2026-05-03T11:43:10.278Z</time></trkpt><trkpt lat="42.2892767" lon="14.0429833"><ele>149.0</ele><time>2026-05-03T11:43:12.278Z</time></trkpt><trkpt lat="42.2891533" lon="14.0430167"><ele>149.0</ele><time>2026-05-03T11:43:14.278Z</time></trkpt><trkpt lat="42.289065" lon="14.043065"><ele>149.0</ele><time>2026-05-03T11:43:16.278Z</time></trkpt><trkpt lat="42.28905" lon="14.0431517"><ele>149.0</ele><time>2026-05-03T11:43:18.278Z</time></trkpt><trkpt lat="42.2891283" lon="14.043225"><ele>149.0</ele><time>2026-05-03T11:43:20.278Z</time></trkpt><trkpt lat="42.289195" lon="14.0432533"><ele>149.0</ele><time>2026-05-03T11:43:21.278Z</time></trkpt><trkpt lat="42.28928" lon="14.0432717"><ele>149.0</ele><time>2026-05-03T11:43:22.278Z</time></trkpt><trkpt lat="42.289385" lon="14.0432767"><ele>149.0</ele><time>2026-05-03T11:43:23.278Z</time></trkpt><trkpt lat="42.2895033" lon="14.0432583"><ele>149.0</ele><time>2026-05-03T11:43:24.278Z</time></trkpt><trkpt lat="42.289625" lon="14.0432183"><ele>149.0</ele><time>2026-05-03T11:43:25.278Z</time></trkpt><trkpt lat="42.2897767" lon="14.0431633"><ele>149.0</ele><time>2026-05-03T11:43:26.278Z</time></trkpt><trkpt lat="42.2899467" lon="14.0430917"><ele>145.75</ele><time>2026-05-03T11:43:27.278Z</time></trkpt><trkpt lat="42.2900883" lon="14.04305"><ele>142.5</ele><time>2026-05-03T11:43:28.278Z</time></trkpt><trkpt lat="42.29021" lon="14.0430167"><ele>139.25</ele><time>2026-05-03T11:43:29.278Z</time></trkpt><trkpt lat="42.29031" lon="14.0430033"><ele>136.0</ele><time>2026-05-03T11:43:30.278Z</time></trkpt><trkpt lat="42.290395" lon="14.0429917"><ele>136.0</ele><time>2026-05-03T11:43:31.278Z</time></trkpt><trkpt lat="42.2905183" lon="14.0430033"><ele>136.0</ele><time>2026-05-03T11:43:33.278Z</time></trkpt><trkpt lat="42.2905417" lon="14.0431283"><ele>136.0</ele><time>2026-05-03T11:43:35.278Z</time></trkpt><trkpt lat="42.29049" lon="14.0431933"><ele>136.0</ele><time>2026-05-03T11:43:36.278Z</time></trkpt><trkpt lat="42.29041" lon="14.0432583"><ele>136.0</ele><time>2026-05-03T11:43:37.278Z</time></trkpt><trkpt lat="42.2903067" lon="14.04334"><ele>132.2</ele><time>2026-05-03T11:43:38.278Z</time></trkpt><trkpt lat="42.2902083" lon="14.043435"><ele>128.39999999999998</ele><time>2026-05-03T11:43:39.278Z</time></trkpt><trkpt lat="42.2901133" lon="14.04352"><ele>124.6</ele><time>2026-05-03T11:43:40.278Z</time></trkpt><trkpt lat="42.29003" lon="14.0436"><ele>120.8</ele><time>2026-05-03T11:43:41.278Z</time></trkpt><trkpt lat="42.28997" lon="14.04368"><ele>117.0</ele><time>2026-05-03T11:43:42.278Z</time></trkpt><trkpt lat="42.289935" lon="14.0438083"><ele>117.0</ele><time>2026-05-03T11:43:44.278Z</time></trkpt><trkpt lat="42.2899883" lon="14.0438933"><ele>116.99999999999999</ele><time>2026-05-03T11:43:46.278Z</time></trkpt><trkpt lat="42.2901017" lon="14.04391"><ele>116.99999999999999</ele><time>2026-05-03T11:43:48.278Z</time></trkpt><trkpt lat="42.29017" lon="14.0439567"><ele>117.0</ele><time>2026-05-03T11:43:50.278Z</time></trkpt><trkpt lat="42.2900733" lon="14.0440283"><ele>117.0</ele><time>2026-05-03T11:43:53.278Z</time></trkpt><trkpt lat="42.2900017" lon="14.04405"><ele>117.0</ele><time>2026-05-03T11:43:54.278Z</time></trkpt><trkpt lat="42.2899133" lon="14.0440733"><ele>116.99999999999999</ele><time>2026-05-03T11:43:55.278Z</time></trkpt><trkpt lat="42.2898167" lon="14.0441083"><ele>116.99999999999999</ele><time>2026-05-03T11:43:56.278Z</time></trkpt><trkpt lat="42.289715" lon="14.0441533"><ele>117.0</ele><time>2026-05-03T11:43:57.279Z</time></trkpt><trkpt lat="42.289615" lon="14.0441883"><ele>117.0</ele><time>2026-05-03T11:43:58.278Z</time></trkpt><trkpt lat="42.289515" lon="14.0442283"><ele>114.25</ele><time>2026-05-03T11:43:59.278Z</time></trkpt><trkpt lat="42.289405" lon="14.0442783"><ele>111.5</ele><time>2026-05-03T11:44:00.279Z</time></trkpt><trkpt lat="42.2892933" lon="14.0443317"><ele>108.75</ele><time>2026-05-03T11:44:01.278Z</time></trkpt><trkpt lat="42.2891733" lon="14.044395"><ele>106.0</ele><time>2026-05-03T11:44:02.278Z</time></trkpt><trkpt lat="42.2890683" lon="14.0444617"><ele>106.0</ele><time>2026-05-03T11:44:03.278Z</time></trkpt><trkpt lat="42.2889783" lon="14.0445183"><ele>106.0</ele><time>2026-05-03T11:44:04.278Z</time></trkpt><trkpt lat="42.2888933" lon="14.044595"><ele>106.0</ele><time>2026-05-03T11:44:05.279Z</time></trkpt><trkpt lat="42.2888183" lon="14.0446883"><ele>106.0</ele><time>2026-05-03T11:44:06.278Z</time></trkpt><trkpt lat="42.2887767" lon="14.044765"><ele>106.0</ele><time>2026-05-03T11:44:07.278Z</time></trkpt><trkpt lat="42.288705" lon="14.0448867"><ele>105.6</ele><time>2026-05-03T11:44:08.278Z</time></trkpt><trkpt lat="42.2886533" lon="14.045005"><ele>105.19999999999999</ele><time>2026-05-03T11:44:09.279Z</time></trkpt><trkpt lat="42.2885917" lon="14.0451133"><ele>104.80000000000001</ele><time>2026-05-03T11:44:10.278Z</time></trkpt><trkpt lat="42.2885133" lon="14.0452083"><ele>104.4</ele><time>2026-05-03T11:44:11.278Z</time></trkpt><trkpt lat="42.2884183" lon="14.04529"><ele>104.0</ele><time>2026-05-03T11:44:12.278Z</time></trkpt><trkpt lat="42.2883083" lon="14.0453317"><ele>104.0</ele><time>2026-05-03T11:44:13.278Z</time></trkpt><trkpt lat="42.2881883" lon="14.0453617"><ele>104.0</ele><time>2026-05-03T11:44:14.278Z</time></trkpt><trkpt lat="42.2880583" lon="14.045375"><ele>104.0</ele><time>2026-05-03T11:44:15.278Z</time></trkpt><trkpt lat="42.2879283" lon="14.0453933"><ele>104.0</ele><time>2026-05-03T11:44:16.278Z</time></trkpt><trkpt lat="42.287795" lon="14.04543"><ele>107.25</ele><time>2026-05-03T11:44:17.278Z</time></trkpt><trkpt lat="42.287665" lon="14.0454917"><ele>110.5</ele><time>2026-05-03T11:44:18.278Z</time></trkpt><trkpt lat="42.2875333" lon="14.0455683"><ele>113.75</ele><time>2026-05-03T11:44:19.278Z</time></trkpt><trkpt lat="42.2874083" lon="14.0456417"><ele>117.0</ele><time>2026-05-03T11:44:20.278Z</time></trkpt><trkpt lat="42.2872733" lon="14.045705"><ele>118.8</ele><time>2026-05-03T11:44:21.278Z</time></trkpt><trkpt lat="42.28715" lon="14.0457583"><ele>120.6</ele><time>2026-05-03T11:44:22.278Z</time></trkpt><trkpt lat="42.28703" lon="14.0457967"><ele>122.39999999999999</ele><time>2026-05-03T11:44:23.278Z</time></trkpt><trkpt lat="42.286925" lon="14.0458233"><ele>124.19999999999999</ele><time>2026-05-03T11:44:24.278Z</time></trkpt><trkpt lat="42.2868417" lon="14.0458433"><ele>126.0</ele><time>2026-05-03T11:44:25.278Z</time></trkpt><trkpt lat="42.2867617" lon="14.04586"><ele>122.16666666666667</ele><time>2026-05-03T11:44:26.278Z</time></trkpt><trkpt lat="42.2866717" lon="14.0459333"><ele>118.33333333333334</ele><time>2026-05-03T11:44:28.278Z</time></trkpt><trkpt lat="42.286665" lon="14.046065"><ele>114.5</ele><time>2026-05-03T11:44:30.278Z</time></trkpt><trkpt lat="42.2866867" lon="14.0461483"><ele>110.66666666666667</ele><time>2026-05-03T11:44:31.278Z</time></trkpt><trkpt lat="42.2867133" lon="14.0462317"><ele>106.83333333333334</ele><time>2026-05-03T11:44:32.278Z</time></trkpt><trkpt lat="42.28674" lon="14.0463567"><ele>103.0</ele><time>2026-05-03T11:44:34.278Z</time></trkpt><trkpt lat="42.2867017" lon="14.0464433"><ele>103.0</ele><time>2026-05-03T11:44:37.278Z</time></trkpt><trkpt lat="42.28664" lon="14.0464833"><ele>103.0</ele><time>2026-05-03T11:44:38.278Z</time></trkpt><trkpt lat="42.2865583" lon="14.0465283"><ele>103.0</ele><time>2026-05-03T11:44:39.278Z</time></trkpt><trkpt lat="42.2864683" lon="14.0465733"><ele>103.0</ele><time>2026-05-03T11:44:40.278Z</time></trkpt><trkpt lat="42.28637" lon="14.04663"><ele>103.0</ele><time>2026-05-03T11:44:41.278Z</time></trkpt><trkpt lat="42.2862583" lon="14.0466783"><ele>101.0</ele><time>2026-05-03T11:44:42.278Z</time></trkpt><trkpt lat="42.286145" lon="14.0467433"><ele>99.0</ele><time>2026-05-03T11:44:43.278Z</time></trkpt><trkpt lat="42.2860383" lon="14.0468067"><ele>97.0</ele><time>2026-05-03T11:44:44.278Z</time></trkpt><trkpt lat="42.2859233" lon="14.0468767"><ele>95.0</ele><time>2026-05-03T11:44:45.278Z</time></trkpt><trkpt lat="42.2858033" lon="14.04695"><ele>95.0</ele><time>2026-05-03T11:44:46.278Z</time></trkpt><trkpt lat="42.285685" lon="14.04703"><ele>95.0</ele><time>2026-05-03T11:44:47.278Z</time></trkpt><trkpt lat="42.2855667" lon="14.047115"><ele>95.0</ele><time>2026-05-03T11:44:48.278Z</time></trkpt><trkpt lat="42.28544" lon="14.0471933"><ele>95.0</ele><time>2026-05-03T11:44:49.278Z</time></trkpt><trkpt lat="42.2853133" lon="14.0472667"><ele>95.0</ele><time>2026-05-03T11:44:50.278Z</time></trkpt><trkpt lat="42.2851883" lon="14.04734"><ele>95.0</ele><time>2026-05-03T11:44:51.278Z</time></trkpt><trkpt lat="42.2850633" lon="14.047405"><ele>95.0</ele><time>2026-05-03T11:44:52.278Z</time></trkpt><trkpt lat="42.2849517" lon="14.04745"><ele>95.0</ele><time>2026-05-03T11:44:53.278Z</time></trkpt><trkpt lat="42.284855" lon="14.0474933"><ele>95.66666666666667</ele><time>2026-05-03T11:44:54.278Z</time></trkpt><trkpt lat="42.2847767" lon="14.0475317"><ele>96.33333333333334</ele><time>2026-05-03T11:44:55.278Z</time></trkpt><trkpt lat="42.2847117" lon="14.04755"><ele>97.0</ele><time>2026-05-03T11:44:56.278Z</time></trkpt><trkpt lat="42.2846483" lon="14.0475983"><ele>97.66666666666667</ele><time>2026-05-03T11:44:58.279Z</time></trkpt><trkpt lat="42.2846933" lon="14.0476967"><ele>98.33333333333333</ele><time>2026-05-03T11:45:01.278Z</time></trkpt><trkpt lat="42.284805" lon="14.0476767"><ele>99.0</ele><time>2026-05-03T11:45:03.278Z</time></trkpt><trkpt lat="42.28489" lon="14.0476517"><ele>99.33333333333333</ele><time>2026-05-03T11:45:04.279Z</time></trkpt><trkpt lat="42.2849783" lon="14.0476367"><ele>99.66666666666666</ele><time>2026-05-03T11:45:05.278Z</time></trkpt><trkpt lat="42.2850617" lon="14.0476483"><ele>100.0</ele><time>2026-05-03T11:45:06.278Z</time></trkpt><trkpt lat="42.2851283" lon="14.0476833"><ele>100.33333333333333</ele><time>2026-05-03T11:45:07.278Z</time></trkpt><trkpt lat="42.2851933" lon="14.0477467"><ele>100.66666666666666</ele><time>2026-05-03T11:45:08.278Z</time></trkpt><trkpt lat="42.2852483" lon="14.047805"><ele>101.0</ele><time>2026-05-03T11:45:09.278Z</time></trkpt><trkpt lat="42.28531" lon="14.047855"><ele>101.0</ele><time>2026-05-03T11:45:10.278Z</time></trkpt><trkpt lat="42.2853783" lon="14.04786"><ele>101.0</ele><time>2026-05-03T11:45:11.279Z</time></trkpt><trkpt lat="42.285455" lon="14.0478433"><ele>101.0</ele><time>2026-05-03T11:45:12.278Z</time></trkpt><trkpt lat="42.2855367" lon="14.0477917"><ele>101.0</ele><time>2026-05-03T11:45:13.278Z</time></trkpt><trkpt lat="42.2856283" lon="14.0477167"><ele>101.0</ele><time>2026-05-03T11:45:14.278Z</time></trkpt><trkpt lat="42.2857367" lon="14.0476233"><ele>101.8</ele><time>2026-05-03T11:45:15.278Z</time></trkpt><trkpt lat="42.2858417" lon="14.04756"><ele>102.6</ele><time>2026-05-03T11:45:16.278Z</time></trkpt><trkpt lat="42.28594" lon="14.0475267"><ele>103.4</ele><time>2026-05-03T11:45:17.278Z</time></trkpt><trkpt lat="42.286055" lon="14.0475067"><ele>104.2</ele><time>2026-05-03T11:45:18.278Z</time></trkpt><trkpt lat="42.2861633" lon="14.0474933"><ele>105.0</ele><time>2026-05-03T11:45:19.278Z</time></trkpt><trkpt lat="42.286275" lon="14.0475"><ele>105.0</ele><time>2026-05-03T11:45:20.278Z</time></trkpt><trkpt lat="42.2863833" lon="14.047545"><ele>105.0</ele><time>2026-05-03T11:45:21.278Z</time></trkpt><trkpt lat="42.2864983" lon="14.0476017"><ele>105.0</ele><time>2026-05-03T11:45:22.278Z</time></trkpt><trkpt lat="42.28662" lon="14.0476817"><ele>105.0</ele><time>2026-05-03T11:45:23.278Z</time></trkpt><trkpt lat="42.286725" lon="14.0477633"><ele>106.25</ele><time>2026-05-03T11:45:24.278Z</time></trkpt><trkpt lat="42.28684" lon="14.0478367"><ele>107.5</ele><time>2026-05-03T11:45:25.278Z</time></trkpt><trkpt lat="42.2869717" lon="14.04789"><ele>108.75</ele><time>2026-05-03T11:45:26.278Z</time></trkpt><trkpt lat="42.2871117" lon="14.047935"><ele>110.0</ele><time>2026-05-03T11:45:27.279Z</time></trkpt><trkpt lat="42.2872567" lon="14.0479583"><ele>109.25</ele><time>2026-05-03T11:45:28.278Z</time></trkpt><trkpt lat="42.2874" lon="14.0479683"><ele>108.5</ele><time>2026-05-03T11:45:29.278Z</time></trkpt><trkpt lat="42.2875383" lon="14.0479617"><ele>107.75</ele><time>2026-05-03T11:45:30.278Z</time></trkpt><trkpt lat="42.287695" lon="14.0479417"><ele>107.0</ele><time>2026-05-03T11:45:31.277Z</time></trkpt><trkpt lat="42.28784" lon="14.0479133"><ele>107.0</ele><time>2026-05-03T11:45:32.277Z</time></trkpt><trkpt lat="42.2879667" lon="14.04788"><ele>107.0</ele><time>2026-05-03T11:45:33.277Z</time></trkpt><trkpt lat="42.2880767" lon="14.0478667"><ele>107.0</ele><time>2026-05-03T11:45:34.277Z</time></trkpt><trkpt lat="42.28819" lon="14.04786"><ele>107.0</ele><time>2026-05-03T11:45:35.277Z</time></trkpt><trkpt lat="42.2883033" lon="14.0478517"><ele>108.75</ele><time>2026-05-03T11:45:36.277Z</time></trkpt><trkpt lat="42.288415" lon="14.0478683"><ele>110.5</ele><time>2026-05-03T11:45:37.278Z</time></trkpt><trkpt lat="42.288525" lon="14.0478833"><ele>112.25</ele><time>2026-05-03T11:45:38.277Z</time></trkpt><trkpt lat="42.2886433" lon="14.0478983"><ele>114.0</ele><time>2026-05-03T11:45:39.277Z</time></trkpt><trkpt lat="42.2887717" lon="14.04792"><ele>114.0</ele><time>2026-05-03T11:45:40.277Z</time></trkpt><trkpt lat="42.288895" lon="14.04793"><ele>114.0</ele><time>2026-05-03T11:45:41.277Z</time></trkpt><trkpt lat="42.2890217" lon="14.0479483"><ele>114.0</ele><time>2026-05-03T11:45:42.277Z</time></trkpt><trkpt lat="42.2891483" lon="14.0479633"><ele>114.0</ele><time>2026-05-03T11:45:43.277Z</time></trkpt><trkpt lat="42.2892933" lon="14.04799"><ele>115.25</ele><time>2026-05-03T11:45:44.277Z</time></trkpt><trkpt lat="42.2894433" lon="14.0480233"><ele>116.5</ele><time>2026-05-03T11:45:45.277Z</time></trkpt><trkpt lat="42.289585" lon="14.0480617"><ele>117.75</ele><time>2026-05-03T11:45:46.277Z</time></trkpt><trkpt lat="42.2897217" lon="14.04809"><ele>119.0</ele><time>2026-05-03T11:45:47.277Z</time></trkpt><trkpt lat="42.289855" lon="14.0481017"><ele>119.6</ele><time>2026-05-03T11:45:48.277Z</time></trkpt><trkpt lat="42.2899667" lon="14.0481083"><ele>120.2</ele><time>2026-05-03T11:45:49.277Z</time></trkpt><trkpt lat="42.2900667" lon="14.0481117"><ele>120.79999999999998</ele><time>2026-05-03T11:45:50.277Z</time></trkpt><trkpt lat="42.2901483" lon="14.0481283"><ele>121.39999999999999</ele><time>2026-05-03T11:45:51.277Z</time></trkpt><trkpt lat="42.2902183" lon="14.0481833"><ele>122.0</ele><time>2026-05-03T11:45:52.278Z</time></trkpt><trkpt lat="42.2902717" lon="14.0482667"><ele>127.6</ele><time>2026-05-03T11:45:53.277Z</time></trkpt><trkpt lat="42.2903183" lon="14.0483667"><ele>133.2</ele><time>2026-05-03T11:45:54.277Z</time></trkpt><trkpt lat="42.29036" lon="14.0484917"><ele>138.8</ele><time>2026-05-03T11:45:55.277Z</time></trkpt><trkpt lat="42.29041" lon="14.0486367"><ele>144.4</ele><time>2026-05-03T11:45:56.277Z</time></trkpt><trkpt lat="42.2904683" lon="14.04879"><ele>150.0</ele><time>2026-05-03T11:45:57.277Z</time></trkpt><trkpt lat="42.2905517" lon="14.04896"><ele>150.25</ele><time>2026-05-03T11:45:58.277Z</time></trkpt><trkpt lat="42.2906467" lon="14.0491183"><ele>150.5</ele><time>2026-05-03T11:45:59.277Z</time></trkpt><trkpt lat="42.2907367" lon="14.0492783"><ele>150.75</ele><time>2026-05-03T11:46:00.277Z</time></trkpt><trkpt lat="42.2908283" lon="14.04943"><ele>151.0</ele><time>2026-05-03T11:46:01.277Z</time></trkpt><trkpt lat="42.290915" lon="14.04958"><ele>151.0</ele><time>2026-05-03T11:46:02.277Z</time></trkpt><trkpt lat="42.2910033" lon="14.0497233"><ele>151.0</ele><time>2026-05-03T11:46:03.277Z</time></trkpt><trkpt lat="42.2910933" lon="14.04986"><ele>151.0</ele><time>2026-05-03T11:46:04.277Z</time></trkpt><trkpt lat="42.29119" lon="14.0499933"><ele>151.0</ele><time>2026-05-03T11:46:05.277Z</time></trkpt><trkpt lat="42.291285" lon="14.0501117"><ele>152.75</ele><time>2026-05-03T11:46:06.277Z</time></trkpt><trkpt lat="42.291375" lon="14.0502067"><ele>154.5</ele><time>2026-05-03T11:46:07.277Z</time></trkpt><trkpt lat="42.29148" lon="14.050285"><ele>156.25</ele><time>2026-05-03T11:46:08.277Z</time></trkpt><trkpt lat="42.2915917" lon="14.0503367"><ele>158.0</ele><time>2026-05-03T11:46:09.277Z</time></trkpt><trkpt lat="42.2916967" lon="14.0503667"><ele>158.0</ele><time>2026-05-03T11:46:10.277Z</time></trkpt><trkpt lat="42.291775" lon="14.0504083"><ele>158.0</ele><time>2026-05-03T11:46:11.277Z</time></trkpt><trkpt lat="42.2918583" lon="14.050445"><ele>158.0</ele><time>2026-05-03T11:46:12.277Z</time></trkpt><trkpt lat="42.291915" lon="14.050525"><ele>158.0</ele><time>2026-05-03T11:46:13.277Z</time></trkpt><trkpt lat="42.29195" lon="14.0506283"><ele>158.0</ele><time>2026-05-03T11:46:14.277Z</time></trkpt><trkpt lat="42.2919783" lon="14.0507667"><ele>158.0</ele><time>2026-05-03T11:46:15.277Z</time></trkpt><trkpt lat="42.2920083" lon="14.0509417"><ele>161.0</ele><time>2026-05-03T11:46:16.277Z</time></trkpt><trkpt lat="42.29205" lon="14.05114"><ele>164.0</ele><time>2026-05-03T11:46:17.277Z</time></trkpt><trkpt lat="42.2920867" lon="14.0513"><ele>167.0</ele><time>2026-05-03T11:46:18.277Z</time></trkpt><trkpt lat="42.2921383" lon="14.051445"><ele>170.0</ele><time>2026-05-03T11:46:19.277Z</time></trkpt><trkpt lat="42.2921817" lon="14.0515817"><ele>170.6</ele><time>2026-05-03T11:46:20.278Z</time></trkpt><trkpt lat="42.2922317" lon="14.0517183"><ele>171.2</ele><time>2026-05-03T11:46:21.277Z</time></trkpt><trkpt lat="42.2922733" lon="14.0518517"><ele>171.8</ele><time>2026-05-03T11:46:22.277Z</time></trkpt><trkpt lat="42.2923117" lon="14.051985"><ele>172.4</ele><time>2026-05-03T11:46:23.277Z</time></trkpt><trkpt lat="42.2923467" lon="14.0521067"><ele>173.0</ele><time>2026-05-03T11:46:24.278Z</time></trkpt><trkpt lat="42.29237" lon="14.0522033"><ele>173.0</ele><time>2026-05-03T11:46:25.277Z</time></trkpt><trkpt lat="42.2923767" lon="14.0523617"><ele>173.0</ele><time>2026-05-03T11:46:27.277Z</time></trkpt><trkpt lat="42.2924067" lon="14.052455"><ele>173.0</ele><time>2026-05-03T11:46:29.277Z</time></trkpt><trkpt lat="42.2925117" lon="14.0524817"><ele>173.0</ele><time>2026-05-03T11:46:32.277Z</time></trkpt><trkpt lat="42.292575" lon="14.0524667"><ele>173.0</ele><time>2026-05-03T11:46:33.277Z</time></trkpt><trkpt lat="42.2926383" lon="14.0524617"><ele>173.0</ele><time>2026-05-03T11:46:34.278Z</time></trkpt><trkpt lat="42.2927633" lon="14.0524817"><ele>173.16666666666666</ele><time>2026-05-03T11:46:36.278Z</time></trkpt><trkpt lat="42.2928267" lon="14.0525133"><ele>173.33333333333331</ele><time>2026-05-03T11:46:37.277Z</time></trkpt><trkpt lat="42.2929133" lon="14.0525667"><ele>173.5</ele><time>2026-05-03T11:46:38.277Z</time></trkpt><trkpt lat="42.2930033" lon="14.0526183"><ele>173.66666666666666</ele><time>2026-05-03T11:46:39.277Z</time></trkpt><trkpt lat="42.2930933" lon="14.0526733"><ele>173.83333333333334</ele><time>2026-05-03T11:46:40.277Z</time></trkpt><trkpt lat="42.2931717" lon="14.0527233"><ele>174.0</ele><time>2026-05-03T11:46:41.277Z</time></trkpt><trkpt lat="42.2932383" lon="14.05278"><ele>173.6</ele><time>2026-05-03T11:46:42.277Z</time></trkpt><trkpt lat="42.2933017" lon="14.0528567"><ele>173.2</ele><time>2026-05-03T11:46:43.277Z</time></trkpt><trkpt lat="42.2933667" lon="14.0529567"><ele>172.79999999999998</ele><time>2026-05-03T11:46:44.277Z</time></trkpt><trkpt lat="42.2934267" lon="14.0530683"><ele>172.39999999999998</ele><time>2026-05-03T11:46:45.277Z</time></trkpt><trkpt lat="42.2935" lon="14.0531917"><ele>172.0</ele><time>2026-05-03T11:46:46.277Z</time></trkpt><trkpt lat="42.293585" lon="14.053335"><ele>173.0</ele><time>2026-05-03T11:46:47.277Z</time></trkpt><trkpt lat="42.2936633" lon="14.0534717"><ele>174.0</ele><time>2026-05-03T11:46:48.277Z</time></trkpt><trkpt lat="42.2937333" lon="14.053585"><ele>175.0</ele><time>2026-05-03T11:46:49.277Z</time></trkpt><trkpt lat="42.293795" lon="14.0536917"><ele>176.0</ele><time>2026-05-03T11:46:50.277Z</time></trkpt><trkpt lat="42.293855" lon="14.0537967"><ele>177.0</ele><time>2026-05-03T11:46:51.277Z</time></trkpt><trkpt lat="42.2939067" lon="14.0538917"><ele>177.0</ele><time>2026-05-03T11:46:52.277Z</time></trkpt><trkpt lat="42.2939633" lon="14.0539783"><ele>177.0</ele><time>2026-05-03T11:46:53.277Z</time></trkpt><trkpt lat="42.2940317" lon="14.0540617"><ele>177.0</ele><time>2026-05-03T11:46:54.277Z</time></trkpt><trkpt lat="42.294105" lon="14.0541533"><ele>177.0</ele><time>2026-05-03T11:46:55.277Z</time></trkpt><trkpt lat="42.294185" lon="14.0542433"><ele>177.0</ele><time>2026-05-03T11:46:56.277Z</time></trkpt><trkpt lat="42.2942667" lon="14.0543283"><ele>177.0</ele><time>2026-05-03T11:46:57.277Z</time></trkpt><trkpt lat="42.2943417" lon="14.05441"><ele>177.0</ele><time>2026-05-03T11:46:58.277Z</time></trkpt><trkpt lat="42.29442" lon="14.05449"><ele>177.0</ele><time>2026-05-03T11:46:59.277Z</time></trkpt><trkpt lat="42.2945033" lon="14.0545717"><ele>177.0</ele><time>2026-05-03T11:47:00.277Z</time></trkpt><trkpt lat="42.29458" lon="14.054645"><ele>177.0</ele><time>2026-05-03T11:47:01.277Z</time></trkpt><trkpt lat="42.29465" lon="14.0547283"><ele>177.0</ele><time>2026-05-03T11:47:02.277Z</time></trkpt><trkpt lat="42.29473" lon="14.0548033"><ele>177.0</ele><time>2026-05-03T11:47:03.277Z</time></trkpt><trkpt lat="42.2947967" lon="14.054875"><ele>177.0</ele><time>2026-05-03T11:47:04.277Z</time></trkpt><trkpt lat="42.2948667" lon="14.0549433"><ele>177.0</ele><time>2026-05-03T11:47:05.278Z</time></trkpt><trkpt lat="42.294925" lon="14.0550033"><ele>177.0</ele><time>2026-05-03T11:47:06.277Z</time></trkpt><trkpt lat="42.2949867" lon="14.05505"><ele>177.0</ele><time>2026-05-03T11:47:07.277Z</time></trkpt><trkpt lat="42.295045" lon="14.0550833"><ele>176.5</ele><time>2026-05-03T11:47:08.277Z</time></trkpt><trkpt lat="42.2951667" lon="14.05513"><ele>176.0</ele><time>2026-05-03T11:47:10.277Z</time></trkpt><trkpt lat="42.29524" lon="14.0551317"><ele>175.5</ele><time>2026-05-03T11:47:11.277Z</time></trkpt><trkpt lat="42.2953133" lon="14.0551317"><ele>175.0</ele><time>2026-05-03T11:47:12.277Z</time></trkpt><trkpt lat="42.2953867" lon="14.0551283"><ele>174.5</ele><time>2026-05-03T11:47:13.277Z</time></trkpt><trkpt lat="42.2954533" lon="14.0551333"><ele>174.0</ele><time>2026-05-03T11:47:14.277Z</time></trkpt><trkpt lat="42.2955533" lon="14.055145"><ele>172.83333333333334</ele><time>2026-05-03T11:47:16.277Z</time></trkpt><trkpt lat="42.295625" lon="14.05515"><ele>171.66666666666666</ele><time>2026-05-03T11:47:18.277Z</time></trkpt><trkpt lat="42.2956842" lon="14.0551813"><ele>170.5</ele><time>2026-05-03T11:47:27.367Z</time></trkpt><trkpt lat="42.2957186" lon="14.0552999"><ele>169.33333333333331</ele><time>2026-05-03T11:47:29.387Z</time></trkpt><trkpt lat="42.295805" lon="14.0554391"><ele>168.16666666666666</ele><time>2026-05-03T11:47:31.277Z</time></trkpt><trkpt lat="42.2958532" lon="14.0555064"><ele>167.0</ele><time>2026-05-03T11:47:32.277Z</time></trkpt><trkpt lat="42.2959015" lon="14.0555855"><ele>167.0</ele><time>2026-05-03T11:47:33.277Z</time></trkpt><trkpt lat="42.295955" lon="14.0556833"><ele>167.0</ele><time>2026-05-03T11:47:34.277Z</time></trkpt><trkpt lat="42.296005" lon="14.0557917"><ele>167.0</ele><time>2026-05-03T11:47:35.277Z</time></trkpt><trkpt lat="42.2960567" lon="14.0558983"><ele>167.0</ele><time>2026-05-03T11:47:36.277Z</time></trkpt><trkpt lat="42.2961" lon="14.05599"><ele>167.0</ele><time>2026-05-03T11:47:37.277Z</time></trkpt><trkpt lat="42.296135" lon="14.0560867"><ele>167.0</ele><time>2026-05-03T11:47:38.277Z</time></trkpt><trkpt lat="42.2961717" lon="14.0561733"><ele>167.2</ele><time>2026-05-03T11:47:39.278Z</time></trkpt><trkpt lat="42.2962117" lon="14.0562733"><ele>167.39999999999998</ele><time>2026-05-03T11:47:40.277Z</time></trkpt><trkpt lat="42.2962533" lon="14.0563767"><ele>167.60000000000002</ele><time>2026-05-03T11:47:41.277Z</time></trkpt><trkpt lat="42.296305" lon="14.0564883"><ele>167.8</ele><time>2026-05-03T11:47:42.277Z</time></trkpt><trkpt lat="42.2963567" lon="14.0565983"><ele>168.0</ele><time>2026-05-03T11:47:43.277Z</time></trkpt><trkpt lat="42.2964067" lon="14.056695"><ele>167.33333333333334</ele><time>2026-05-03T11:47:44.277Z</time></trkpt><trkpt lat="42.2964583" lon="14.05679"><ele>166.66666666666666</ele><time>2026-05-03T11:47:45.277Z</time></trkpt><trkpt lat="42.2965117" lon="14.0568917"><ele>166.0</ele><time>2026-05-03T11:47:46.277Z</time></trkpt><trkpt lat="42.2965617" lon="14.05699"><ele>165.33333333333331</ele><time>2026-05-03T11:47:47.277Z</time></trkpt><trkpt lat="42.29661" lon="14.0570883"><ele>164.66666666666666</ele><time>2026-05-03T11:47:48.277Z</time></trkpt><trkpt lat="42.2966583" lon="14.0571733"><ele>164.0</ele><time>2026-05-03T11:47:49.277Z</time></trkpt><trkpt lat="42.296705" lon="14.05726"><ele>164.0</ele><time>2026-05-03T11:47:50.277Z</time></trkpt><trkpt lat="42.2967533" lon="14.0573567"><ele>164.0</ele><time>2026-05-03T11:47:51.277Z</time></trkpt><trkpt lat="42.2967967" lon="14.057455"><ele>164.0</ele><time>2026-05-03T11:47:52.278Z</time></trkpt><trkpt lat="42.29684" lon="14.05756"><ele>164.0</ele><time>2026-05-03T11:47:53.277Z</time></trkpt><trkpt lat="42.2968833" lon="14.0576667"><ele>164.0</ele><time>2026-05-03T11:47:54.277Z</time></trkpt><trkpt lat="42.29693" lon="14.0577767"><ele>164.0</ele><time>2026-05-03T11:47:55.277Z</time></trkpt><trkpt lat="42.2969783" lon="14.0578833"><ele>163.5</ele><time>2026-05-03T11:47:56.277Z</time></trkpt><trkpt lat="42.2970283" lon="14.057975"><ele>163.0</ele><time>2026-05-03T11:47:57.278Z</time></trkpt><trkpt lat="42.297075" lon="14.0580633"><ele>162.5</ele><time>2026-05-03T11:47:58.277Z</time></trkpt><trkpt lat="42.2971183" lon="14.0581467"><ele>162.0</ele><time>2026-05-03T11:47:59.277Z</time></trkpt><trkpt lat="42.297155" lon="14.0582183"><ele>161.5</ele><time>2026-05-03T11:48:00.277Z</time></trkpt><trkpt lat="42.297215" lon="14.05833"><ele>161.0</ele><time>2026-05-03T11:48:02.277Z</time></trkpt><trkpt lat="42.2972883" lon="14.0584267"><ele>160.4</ele><time>2026-05-03T11:48:07.277Z</time></trkpt><trkpt lat="42.2973483" lon="14.0584783"><ele>159.8</ele><time>2026-05-03T11:48:08.277Z</time></trkpt><trkpt lat="42.2974317" lon="14.058525"><ele>159.20000000000002</ele><time>2026-05-03T11:48:09.277Z</time></trkpt><trkpt lat="42.2975467" lon="14.0585783"><ele>158.60000000000002</ele><time>2026-05-03T11:48:10.277Z</time></trkpt><trkpt lat="42.2976983" lon="14.058645"><ele>158.0</ele><time>2026-05-03T11:48:11.277Z</time></trkpt><trkpt lat="42.29787" lon="14.05872"><ele>158.0</ele><time>2026-05-03T11:48:12.277Z</time></trkpt><trkpt lat="42.2980383" lon="14.0587867"><ele>158.0</ele><time>2026-05-03T11:48:13.277Z</time></trkpt><trkpt lat="42.2981867" lon="14.0588483"><ele>158.0</ele><time>2026-05-03T11:48:14.277Z</time></trkpt><trkpt lat="42.2983283" lon="14.0589083"><ele>157.25</ele><time>2026-05-03T11:48:15.277Z</time></trkpt><trkpt lat="42.298465" lon="14.0589733"><ele>156.5</ele><time>2026-05-03T11:48:16.277Z</time></trkpt><trkpt lat="42.2985933" lon="14.0590367"><ele>155.75</ele><time>2026-05-03T11:48:17.277Z</time></trkpt><trkpt lat="42.298705" lon="14.0590933"><ele>155.0</ele><time>2026-05-03T11:48:18.277Z</time></trkpt><trkpt lat="42.2988083" lon="14.0591383"><ele>154.66666666666666</ele><time>2026-05-03T11:48:19.277Z</time></trkpt><trkpt lat="42.2988783" lon="14.0591733"><ele>154.33333333333331</ele><time>2026-05-03T11:48:20.277Z</time></trkpt><trkpt lat="42.2989467" lon="14.0592117"><ele>154.0</ele><time>2026-05-03T11:48:21.277Z</time></trkpt><trkpt lat="42.2990267" lon="14.0593"><ele>153.66666666666666</ele><time>2026-05-03T11:48:23.277Z</time></trkpt><trkpt lat="42.2989717" lon="14.05941"><ele>153.33333333333334</ele><time>2026-05-03T11:48:25.277Z</time></trkpt><trkpt lat="42.2989033" lon="14.0594383"><ele>153.0</ele><time>2026-05-03T11:48:26.278Z</time></trkpt><trkpt lat="42.2988117" lon="14.059445"><ele>153.0</ele><time>2026-05-03T11:48:27.277Z</time></trkpt><trkpt lat="42.2987033" lon="14.0594483"><ele>153.0</ele><time>2026-05-03T11:48:28.277Z</time></trkpt><trkpt lat="42.298585" lon="14.0594233"><ele>153.0</ele><time>2026-05-03T11:48:29.278Z</time></trkpt><trkpt lat="42.2984683" lon="14.0593733"><ele>153.0</ele><time>2026-05-03T11:48:30.278Z</time></trkpt><trkpt lat="42.29836" lon="14.0592933"><ele>153.0</ele><time>2026-05-03T11:48:31.277Z</time></trkpt><trkpt lat="42.2982683" lon="14.0591967"><ele>153.0</ele><time>2026-05-03T11:48:32.277Z</time></trkpt><trkpt lat="42.2981817" lon="14.0591133"><ele>153.0</ele><time>2026-05-03T11:48:33.277Z</time></trkpt><trkpt lat="42.298095" lon="14.059055"><ele>153.0</ele><time>2026-05-03T11:48:34.277Z</time></trkpt><trkpt lat="42.2980067" lon="14.05904"><ele>153.0</ele><time>2026-05-03T11:48:35.277Z</time></trkpt><trkpt lat="42.2979217" lon="14.059075"><ele>153.0</ele><time>2026-05-03T11:48:36.277Z</time></trkpt><trkpt lat="42.29786" lon="14.059145"><ele>153.0</ele><time>2026-05-03T11:48:37.277Z</time></trkpt><trkpt lat="42.2978267" lon="14.0592517"><ele>153.0</ele><time>2026-05-03T11:48:38.277Z</time></trkpt><trkpt lat="42.2978267" lon="14.0593633"><ele>153.0</ele><time>2026-05-03T11:48:39.277Z</time></trkpt><trkpt lat="42.2978733" lon="14.0594583"><ele>153.0</ele><time>2026-05-03T11:48:40.277Z</time></trkpt><trkpt lat="42.2979617" lon="14.0595417"><ele>153.0</ele><time>2026-05-03T11:48:41.277Z</time></trkpt><trkpt lat="42.29809" lon="14.0596417"><ele>153.0</ele><time>2026-05-03T11:48:42.277Z</time></trkpt><trkpt lat="42.2982317" lon="14.05976"><ele>153.0</ele><time>2026-05-03T11:48:43.277Z</time></trkpt><trkpt lat="42.2983717" lon="14.0598867"><ele>153.0</ele><time>2026-05-03T11:48:44.277Z</time></trkpt><trkpt lat="42.2985183" lon="14.0600133"><ele>149.66666666666666</ele><time>2026-05-03T11:48:45.277Z</time></trkpt><trkpt lat="42.29867" lon="14.06015"><ele>146.33333333333331</ele><time>2026-05-03T11:48:46.277Z</time></trkpt><trkpt lat="42.2988183" lon="14.0602967"><ele>143.0</ele><time>2026-05-03T11:48:47.277Z</time></trkpt><trkpt lat="42.298975" lon="14.0604583"><ele>143.0</ele><time>2026-05-03T11:48:48.277Z</time></trkpt><trkpt lat="42.299125" lon="14.0606317"><ele>143.0</ele><time>2026-05-03T11:48:49.277Z</time></trkpt><trkpt lat="42.29928" lon="14.0608167"><ele>143.0</ele><time>2026-05-03T11:48:50.277Z</time></trkpt><trkpt lat="42.2994267" lon="14.06101"><ele>137.66666666666666</ele><time>2026-05-03T11:48:51.277Z</time></trkpt><trkpt lat="42.2995667" lon="14.0612233"><ele>132.33333333333334</ele><time>2026-05-03T11:48:52.277Z</time></trkpt><trkpt lat="42.2997083" lon="14.0614383"><ele>127.0</ele><time>2026-05-03T11:48:53.277Z</time></trkpt><trkpt lat="42.2998433" lon="14.061645"><ele>123.66666666666667</ele><time>2026-05-03T11:48:54.277Z</time></trkpt><trkpt lat="42.29998" lon="14.0618483"><ele>120.33333333333334</ele><time>2026-05-03T11:48:55.277Z</time></trkpt><trkpt lat="42.30012" lon="14.0620433"><ele>117.0</ele><time>2026-05-03T11:48:56.278Z</time></trkpt><trkpt lat="42.3002517" lon="14.0622433"><ele>117.0</ele><time>2026-05-03T11:48:57.277Z</time></trkpt><trkpt lat="42.3003733" lon="14.06244"><ele>117.0</ele><time>2026-05-03T11:48:58.277Z</time></trkpt><trkpt lat="42.3005" lon="14.06263"><ele>117.0</ele><time>2026-05-03T11:48:59.277Z</time></trkpt><trkpt lat="42.3006317" lon="14.0628083"><ele>115.66666666666666</ele><time>2026-05-03T11:49:00.277Z</time></trkpt><trkpt lat="42.30077" lon="14.0629883"><ele>114.33333333333333</ele><time>2026-05-03T11:49:01.278Z</time></trkpt><trkpt lat="42.3009083" lon="14.0631667"><ele>113.0</ele><time>2026-05-03T11:49:02.277Z</time></trkpt><trkpt lat="42.301055" lon="14.0633467"><ele>113.0</ele><time>2026-05-03T11:49:03.278Z</time></trkpt><trkpt lat="42.30121" lon="14.0635167"><ele>113.0</ele><time>2026-05-03T11:49:04.277Z</time></trkpt><trkpt lat="42.3013767" lon="14.0636717"><ele>113.0</ele><time>2026-05-03T11:49:05.277Z</time></trkpt><trkpt lat="42.3015417" lon="14.06382"><ele>113.0</ele><time>2026-05-03T11:49:06.277Z</time></trkpt><trkpt lat="42.301705" lon="14.0639533"><ele>113.0</ele><time>2026-05-03T11:49:07.277Z</time></trkpt><trkpt lat="42.3018567" lon="14.0640883"><ele>113.0</ele><time>2026-05-03T11:49:08.277Z</time></trkpt><trkpt lat="42.3020033" lon="14.0642233"><ele>108.33333333333333</ele><time>2026-05-03T11:49:09.277Z</time></trkpt><trkpt lat="42.3021517" lon="14.06434"><ele>103.66666666666666</ele><time>2026-05-03T11:49:10.277Z</time></trkpt><trkpt lat="42.30231" lon="14.0644367"><ele>99.0</ele><time>2026-05-03T11:49:11.277Z</time></trkpt><trkpt lat="42.3024733" lon="14.0645283"><ele>99.0</ele><time>2026-05-03T11:49:12.277Z</time></trkpt><trkpt lat="42.3026333" lon="14.0646117"><ele>99.0</ele><time>2026-05-03T11:49:13.277Z</time></trkpt><trkpt lat="42.3027833" lon="14.0647067"><ele>99.0</ele><time>2026-05-03T11:49:14.277Z</time></trkpt><trkpt lat="42.3029367" lon="14.06477"><ele>103.0</ele><time>2026-05-03T11:49:15.277Z</time></trkpt><trkpt lat="42.3030867" lon="14.0648333"><ele>107.0</ele><time>2026-05-03T11:49:16.277Z</time></trkpt><trkpt lat="42.3032317" lon="14.0648967"><ele>111.0</ele><time>2026-05-03T11:49:17.277Z</time></trkpt><trkpt lat="42.3033817" lon="14.0649517"><ele>104.75</ele><time>2026-05-03T11:49:18.278Z</time></trkpt><trkpt lat="42.3035283" lon="14.065005"><ele>98.5</ele><time>2026-05-03T11:49:19.277Z</time></trkpt><trkpt lat="42.3036683" lon="14.0650533"><ele>92.25</ele><time>2026-05-03T11:49:20.277Z</time></trkpt><trkpt lat="42.3038067" lon="14.06508"><ele>86.0</ele><time>2026-05-03T11:49:21.277Z</time></trkpt><trkpt lat="42.3039367" lon="14.065105"><ele>85.8</ele><time>2026-05-03T11:49:22.277Z</time></trkpt><trkpt lat="42.3040483" lon="14.06513"><ele>85.6</ele><time>2026-05-03T11:49:23.277Z</time></trkpt><trkpt lat="42.3041417" lon="14.06515"><ele>85.4</ele><time>2026-05-03T11:49:24.277Z</time></trkpt><trkpt lat="42.3042233" lon="14.0651817"><ele>85.2</ele><time>2026-05-03T11:49:25.277Z</time></trkpt><trkpt lat="42.3042883" lon="14.0652183"><ele>85.0</ele><time>2026-05-03T11:49:26.277Z</time></trkpt><trkpt lat="42.3043667" lon="14.0652683"><ele>85.0</ele><time>2026-05-03T11:49:28.277Z</time></trkpt><trkpt lat="42.3044533" lon="14.0652933"><ele>85.0</ele><time>2026-05-03T11:49:34.277Z</time></trkpt><trkpt lat="42.3045317" lon="14.0652983"><ele>85.0</ele><time>2026-05-03T11:49:35.277Z</time></trkpt><trkpt lat="42.30463" lon="14.065305"><ele>85.0</ele><time>2026-05-03T11:49:36.277Z</time></trkpt><trkpt lat="42.30474" lon="14.0653083"><ele>85.0</ele><time>2026-05-03T11:49:37.277Z</time></trkpt><trkpt lat="42.3048517" lon="14.0653083"><ele>84.75</ele><time>2026-05-03T11:49:38.277Z</time></trkpt><trkpt lat="42.3049667" lon="14.065305"><ele>84.5</ele><time>2026-05-03T11:49:39.277Z</time></trkpt><trkpt lat="42.3050817" lon="14.0652867"><ele>84.25</ele><time>2026-05-03T11:49:40.277Z</time></trkpt><trkpt lat="42.3052" lon="14.0652367"><ele>84.0</ele><time>2026-05-03T11:49:41.277Z</time></trkpt><trkpt lat="42.305305" lon="14.0651567"><ele>84.0</ele><time>2026-05-03T11:49:42.277Z</time></trkpt><trkpt lat="42.3054017" lon="14.06505"><ele>84.0</ele><time>2026-05-03T11:49:43.277Z</time></trkpt><trkpt lat="42.3054933" lon="14.0649283"><ele>84.0</ele><time>2026-05-03T11:49:44.277Z</time></trkpt><trkpt lat="42.305585" lon="14.064805"><ele>84.0</ele><time>2026-05-03T11:49:45.277Z</time></trkpt><trkpt lat="42.3056817" lon="14.0646783"><ele>83.25</ele><time>2026-05-03T11:49:46.277Z</time></trkpt><trkpt lat="42.3057717" lon="14.064545"><ele>82.5</ele><time>2026-05-03T11:49:47.277Z</time></trkpt><trkpt lat="42.30587" lon="14.0644133"><ele>81.75</ele><time>2026-05-03T11:49:48.277Z</time></trkpt><trkpt lat="42.3059617" lon="14.0642833"><ele>81.0</ele><time>2026-05-03T11:49:49.277Z</time></trkpt><trkpt lat="42.306075" lon="14.06414"><ele>80.33333333333333</ele><time>2026-05-03T11:49:50.277Z</time></trkpt><trkpt lat="42.3061867" lon="14.0640033"><ele>79.66666666666666</ele><time>2026-05-03T11:49:51.277Z</time></trkpt><trkpt lat="42.306295" lon="14.0638667"><ele>79.0</ele><time>2026-05-03T11:49:52.277Z</time></trkpt><trkpt lat="42.3063983" lon="14.06371"><ele>77.33333333333333</ele><time>2026-05-03T11:49:53.277Z</time></trkpt><trkpt lat="42.3065167" lon="14.0635733"><ele>75.66666666666667</ele><time>2026-05-03T11:49:54.277Z</time></trkpt><trkpt lat="42.3066183" lon="14.0634217"><ele>74.0</ele><time>2026-05-03T11:49:55.277Z</time></trkpt><trkpt lat="42.30673" lon="14.063275"><ele>73.75</ele><time>2026-05-03T11:49:56.278Z</time></trkpt><trkpt lat="42.30684" lon="14.06315"><ele>73.5</ele><time>2026-05-03T11:49:57.277Z</time></trkpt><trkpt lat="42.3069317" lon="14.0630267"><ele>73.25</ele><time>2026-05-03T11:49:58.277Z</time></trkpt><trkpt lat="42.307035" lon="14.0629233"><ele>73.0</ele><time>2026-05-03T11:49:59.277Z</time></trkpt><trkpt lat="42.3071167" lon="14.0628033"><ele>73.0</ele><time>2026-05-03T11:50:00.277Z</time></trkpt><trkpt lat="42.307195" lon="14.0627033"><ele>73.0</ele><time>2026-05-03T11:50:01.277Z</time></trkpt><trkpt lat="42.3072767" lon="14.0626067"><ele>73.0</ele><time>2026-05-03T11:50:02.277Z</time></trkpt><trkpt lat="42.3073517" lon="14.06248"><ele>73.0</ele><time>2026-05-03T11:50:03.277Z</time></trkpt><trkpt lat="42.3074367" lon="14.0623617"><ele>72.75</ele><time>2026-05-03T11:50:04.278Z</time></trkpt><trkpt lat="42.3075383" lon="14.0622517"><ele>72.5</ele><time>2026-05-03T11:50:05.277Z</time></trkpt><trkpt lat="42.3076283" lon="14.0621467"><ele>72.25</ele><time>2026-05-03T11:50:06.277Z</time></trkpt><trkpt lat="42.3076917" lon="14.0620317"><ele>72.0</ele><time>2026-05-03T11:50:07.277Z</time></trkpt><trkpt lat="42.3077633" lon="14.0619317"><ele>72.0</ele><time>2026-05-03T11:50:08.277Z</time></trkpt><trkpt lat="42.3078283" lon="14.0618433"><ele>72.0</ele><time>2026-05-03T11:50:09.277Z</time></trkpt><trkpt lat="42.3078883" lon="14.061785"><ele>72.0</ele><time>2026-05-03T11:50:10.277Z</time></trkpt><trkpt lat="42.3079883" lon="14.0617317"><ele>72.0</ele><time>2026-05-03T11:50:12.277Z</time></trkpt><trkpt lat="42.308065" lon="14.0617633"><ele>72.0</ele><time>2026-05-03T11:50:14.277Z</time></trkpt><trkpt lat="42.3081483" lon="14.061895"><ele>72.0</ele><time>2026-05-03T11:50:16.277Z</time></trkpt><trkpt lat="42.3081817" lon="14.061985"><ele>72.0</ele><time>2026-05-03T11:50:17.277Z</time></trkpt><trkpt lat="42.3082183" lon="14.0620733"><ele>72.0</ele><time>2026-05-03T11:50:18.277Z</time></trkpt><trkpt lat="42.30827" lon="14.0621933"><ele>72.0</ele><time>2026-05-03T11:50:20.277Z</time></trkpt><trkpt lat="42.30832" lon="14.06229"><ele>72.0</ele><time>2026-05-03T11:50:22.277Z</time></trkpt><trkpt lat="42.3083617" lon="14.0623633"><ele>72.0</ele><time>2026-05-03T11:50:25.277Z</time></trkpt><trkpt lat="42.308475" lon="14.0624433"><ele>72.16666666666667</ele><time>2026-05-03T11:55:15.276Z</time></trkpt><trkpt lat="42.30853" lon="14.06254"><ele>72.33333333333333</ele><time>2026-05-03T11:55:17.276Z</time></trkpt><trkpt lat="42.3085933" lon="14.0626883"><ele>72.5</ele><time>2026-05-03T11:55:19.276Z</time></trkpt><trkpt lat="42.3086317" lon="14.06277"><ele>72.66666666666666</ele><time>2026-05-03T11:55:20.277Z</time></trkpt><trkpt lat="42.3086683" lon="14.06285"><ele>72.83333333333333</ele><time>2026-05-03T11:55:21.276Z</time></trkpt><trkpt lat="42.3087033" lon="14.0629383"><ele>73.0</ele><time>2026-05-03T11:55:22.276Z</time></trkpt><trkpt lat="42.308735" lon="14.063035"><ele>73.0</ele><time>2026-05-03T11:55:23.276Z</time></trkpt><trkpt lat="42.308775" lon="14.0631317"><ele>73.0</ele><time>2026-05-03T11:55:24.276Z</time></trkpt><trkpt lat="42.3088133" lon="14.0632283"><ele>73.0</ele><time>2026-05-03T11:55:25.276Z</time></trkpt><trkpt lat="42.308855" lon="14.06332"><ele>73.0</ele><time>2026-05-03T11:55:26.276Z</time></trkpt><trkpt lat="42.3088983" lon="14.0634167"><ele>73.0</ele><time>2026-05-03T11:55:27.276Z</time></trkpt><trkpt lat="42.3089483" lon="14.0635283"><ele>73.0</ele><time>2026-05-03T11:55:28.276Z</time></trkpt><trkpt lat="42.309005" lon="14.0636467"><ele>73.0</ele><time>2026-05-03T11:55:29.276Z</time></trkpt><trkpt lat="42.3090717" lon="14.0637633"><ele>73.0</ele><time>2026-05-03T11:55:30.276Z</time></trkpt><trkpt lat="42.3091283" lon="14.06388"><ele>73.0</ele><time>2026-05-03T11:55:31.276Z</time></trkpt><trkpt lat="42.3091867" lon="14.0639983"><ele>73.0</ele><time>2026-05-03T11:55:32.276Z</time></trkpt><trkpt lat="42.3092483" lon="14.0641283"><ele>73.0</ele><time>2026-05-03T11:55:33.276Z</time></trkpt><trkpt lat="42.30931" lon="14.0642733"><ele>71.75</ele><time>2026-05-03T11:55:34.276Z</time></trkpt><trkpt lat="42.30938" lon="14.0644233"><ele>70.5</ele><time>2026-05-03T11:55:35.276Z</time></trkpt><trkpt lat="42.3094467" lon="14.0645783"><ele>69.25</ele><time>2026-05-03T11:55:36.276Z</time></trkpt><trkpt lat="42.3095167" lon="14.06472"><ele>68.0</ele><time>2026-05-03T11:55:37.277Z</time></trkpt><trkpt lat="42.3095833" lon="14.0648667"><ele>68.75</ele><time>2026-05-03T11:55:38.276Z</time></trkpt><trkpt lat="42.3096617" lon="14.06501"><ele>69.5</ele><time>2026-05-03T11:55:39.276Z</time></trkpt><trkpt lat="42.3097333" lon="14.06516"><ele>70.25</ele><time>2026-05-03T11:55:40.276Z</time></trkpt><trkpt lat="42.3097967" lon="14.0653133"><ele>71.0</ele><time>2026-05-03T11:55:41.276Z</time></trkpt><trkpt lat="42.30985" lon="14.065455"><ele>71.0</ele><time>2026-05-03T11:55:42.276Z</time></trkpt><trkpt lat="42.3099233" lon="14.06561"><ele>71.0</ele><time>2026-05-03T11:55:43.276Z</time></trkpt><trkpt lat="42.3100017" lon="14.0657567"><ele>71.0</ele><time>2026-05-03T11:55:44.276Z</time></trkpt><trkpt lat="42.3100833" lon="14.0658983"><ele>71.0</ele><time>2026-05-03T11:55:45.276Z</time></trkpt><trkpt lat="42.31015" lon="14.0660367"><ele>71.0</ele><time>2026-05-03T11:55:46.276Z</time></trkpt><trkpt lat="42.310215" lon="14.0661667"><ele>71.0</ele><time>2026-05-03T11:55:47.276Z</time></trkpt><trkpt lat="42.31027" lon="14.0662817"><ele>71.0</ele><time>2026-05-03T11:55:48.276Z</time></trkpt><trkpt lat="42.3103283" lon="14.066405"><ele>71.0</ele><time>2026-05-03T11:55:49.276Z</time></trkpt><trkpt lat="42.3103817" lon="14.066505"><ele>71.0</ele><time>2026-05-03T11:55:50.276Z</time></trkpt><trkpt lat="42.31044" lon="14.0666017"><ele>71.0</ele><time>2026-05-03T11:55:51.276Z</time></trkpt><trkpt lat="42.3104967" lon="14.0667067"><ele>71.0</ele><time>2026-05-03T11:55:52.276Z</time></trkpt><trkpt lat="42.3105417" lon="14.06681"><ele>71.0</ele><time>2026-05-03T11:55:53.276Z</time></trkpt><trkpt lat="42.310565" lon="14.0669167"><ele>71.0</ele><time>2026-05-03T11:55:54.277Z</time></trkpt><trkpt lat="42.3105833" lon="14.0670283"><ele>71.0</ele><time>2026-05-03T11:55:55.276Z</time></trkpt><trkpt lat="42.3106267" lon="14.0671383"><ele>71.0</ele><time>2026-05-03T11:55:56.276Z</time></trkpt><trkpt lat="42.3106883" lon="14.06726"><ele>71.0</ele><time>2026-05-03T11:55:57.276Z</time></trkpt><trkpt lat="42.3107633" lon="14.0673967"><ele>71.0</ele><time>2026-05-03T11:55:58.276Z</time></trkpt><trkpt lat="42.310845" lon="14.06755"><ele>71.0</ele><time>2026-05-03T11:55:59.276Z</time></trkpt><trkpt lat="42.3109383" lon="14.0677167"><ele>71.0</ele><time>2026-05-03T11:56:00.276Z</time></trkpt><trkpt lat="42.311025" lon="14.06788"><ele>71.25</ele><time>2026-05-03T11:56:01.276Z</time></trkpt><trkpt lat="42.3111017" lon="14.0680417"><ele>71.5</ele><time>2026-05-03T11:56:02.276Z</time></trkpt><trkpt lat="42.3111667" lon="14.068195"><ele>71.75</ele><time>2026-05-03T11:56:03.276Z</time></trkpt><trkpt lat="42.311245" lon="14.0683617"><ele>72.0</ele><time>2026-05-03T11:56:04.276Z</time></trkpt><trkpt lat="42.3113233" lon="14.0685317"><ele>72.0</ele><time>2026-05-03T11:56:05.276Z</time></trkpt><trkpt lat="42.3113983" lon="14.0686917"><ele>72.0</ele><time>2026-05-03T11:56:06.276Z</time></trkpt><trkpt lat="42.3114833" lon="14.06886"><ele>72.0</ele><time>2026-05-03T11:56:07.277Z</time></trkpt><trkpt lat="42.3115533" lon="14.06903"><ele>72.0</ele><time>2026-05-03T11:56:08.277Z</time></trkpt><trkpt lat="42.311635" lon="14.069195"><ele>72.0</ele><time>2026-05-03T11:56:09.276Z</time></trkpt><trkpt lat="42.31172" lon="14.0693683"><ele>72.0</ele><time>2026-05-03T11:56:10.276Z</time></trkpt><trkpt lat="42.3118117" lon="14.0695417"><ele>72.0</ele><time>2026-05-03T11:56:11.276Z</time></trkpt><trkpt lat="42.311895" lon="14.069715"><ele>72.0</ele><time>2026-05-03T11:56:12.276Z</time></trkpt><trkpt lat="42.311975" lon="14.0698917"><ele>72.0</ele><time>2026-05-03T11:56:13.277Z</time></trkpt><trkpt lat="42.31206" lon="14.0700617"><ele>72.0</ele><time>2026-05-03T11:56:14.276Z</time></trkpt><trkpt lat="42.3121283" lon="14.070235"><ele>71.75</ele><time>2026-05-03T11:56:15.276Z</time></trkpt><trkpt lat="42.312205" lon="14.070395"><ele>71.5</ele><time>2026-05-03T11:56:16.276Z</time></trkpt><trkpt lat="42.312275" lon="14.0705283"><ele>71.25</ele><time>2026-05-03T11:56:17.276Z</time></trkpt><trkpt lat="42.31234" lon="14.0706583"><ele>71.0</ele><time>2026-05-03T11:56:18.277Z</time></trkpt><trkpt lat="42.312405" lon="14.0707817"><ele>70.6</ele><time>2026-05-03T11:56:19.276Z</time></trkpt><trkpt lat="42.3124683" lon="14.0709067"><ele>70.19999999999999</ele><time>2026-05-03T11:56:20.276Z</time></trkpt><trkpt lat="42.3125183" lon="14.0710167"><ele>69.80000000000001</ele><time>2026-05-03T11:56:21.276Z</time></trkpt><trkpt lat="42.31257" lon="14.07112"><ele>69.4</ele><time>2026-05-03T11:56:22.276Z</time></trkpt><trkpt lat="42.3126283" lon="14.0712283"><ele>69.0</ele><time>2026-05-03T11:56:23.276Z</time></trkpt><trkpt lat="42.3126883" lon="14.0713433"><ele>69.0</ele><time>2026-05-03T11:56:24.276Z</time></trkpt><trkpt lat="42.3127467" lon="14.071465"><ele>69.0</ele><time>2026-05-03T11:56:25.276Z</time></trkpt><trkpt lat="42.3128083" lon="14.0715933"><ele>69.0</ele><time>2026-05-03T11:56:26.276Z</time></trkpt><trkpt lat="42.3128783" lon="14.0717183"><ele>69.0</ele><time>2026-05-03T11:56:27.276Z</time></trkpt><trkpt lat="42.312935" lon="14.0718267"><ele>69.0</ele><time>2026-05-03T11:56:28.276Z</time></trkpt><trkpt lat="42.3129883" lon="14.0719383"><ele>69.2</ele><time>2026-05-03T11:56:29.276Z</time></trkpt><trkpt lat="42.3130433" lon="14.0720383"><ele>69.4</ele><time>2026-05-03T11:56:30.277Z</time></trkpt><trkpt lat="42.313095" lon="14.07214"><ele>69.6</ele><time>2026-05-03T11:56:31.276Z</time></trkpt><trkpt lat="42.3131433" lon="14.0722483"><ele>69.8</ele><time>2026-05-03T11:56:32.276Z</time></trkpt><trkpt lat="42.3131917" lon="14.0723567"><ele>70.0</ele><time>2026-05-03T11:56:33.277Z</time></trkpt><trkpt lat="42.313245" lon="14.0724783"><ele>69.0</ele><time>2026-05-03T11:56:34.276Z</time></trkpt><trkpt lat="42.3133067" lon="14.0726133"><ele>68.0</ele><time>2026-05-03T11:56:35.276Z</time></trkpt><trkpt lat="42.3133783" lon="14.0727617"><ele>67.0</ele><time>2026-05-03T11:56:36.276Z</time></trkpt><trkpt lat="42.3134483" lon="14.0729283"><ele>66.0</ele><time>2026-05-03T11:56:37.276Z</time></trkpt><trkpt lat="42.313525" lon="14.0730883"><ele>66.0</ele><time>2026-05-03T11:56:38.276Z</time></trkpt><trkpt lat="42.313605" lon="14.0732467"><ele>66.0</ele><time>2026-05-03T11:56:39.276Z</time></trkpt><trkpt lat="42.3136833" lon="14.0734067"><ele>66.0</ele><time>2026-05-03T11:56:40.276Z</time></trkpt><trkpt lat="42.3137617" lon="14.0735833"><ele>66.0</ele><time>2026-05-03T11:56:41.276Z</time></trkpt><trkpt lat="42.31384" lon="14.0737367"><ele>66.25</ele><time>2026-05-03T11:56:42.276Z</time></trkpt><trkpt lat="42.3139133" lon="14.0738983"><ele>66.5</ele><time>2026-05-03T11:56:43.277Z</time></trkpt><trkpt lat="42.314" lon="14.074055"><ele>66.75</ele><time>2026-05-03T11:56:44.276Z</time></trkpt><trkpt lat="42.31408" lon="14.074215"><ele>67.0</ele><time>2026-05-03T11:56:45.276Z</time></trkpt><trkpt lat="42.3141533" lon="14.0743783"><ele>67.25</ele><time>2026-05-03T11:56:46.277Z</time></trkpt><trkpt lat="42.3142233" lon="14.074535"><ele>67.5</ele><time>2026-05-03T11:56:47.276Z</time></trkpt><trkpt lat="42.3142883" lon="14.0746767"><ele>67.75</ele><time>2026-05-03T11:56:48.276Z</time></trkpt><trkpt lat="42.31436" lon="14.0748133"><ele>68.0</ele><time>2026-05-03T11:56:49.276Z</time></trkpt><trkpt lat="42.3144267" lon="14.0749217"><ele>68.0</ele><time>2026-05-03T11:56:50.276Z</time></trkpt><trkpt lat="42.31449" lon="14.075035"><ele>68.0</ele><time>2026-05-03T11:56:51.276Z</time></trkpt><trkpt lat="42.314545" lon="14.0751533"><ele>68.0</ele><time>2026-05-03T11:56:52.277Z</time></trkpt><trkpt lat="42.3146033" lon="14.0752917"><ele>68.0</ele><time>2026-05-03T11:56:53.277Z</time></trkpt><trkpt lat="42.3146683" lon="14.0754533"><ele>68.33333333333334</ele><time>2026-05-03T11:56:54.276Z</time></trkpt><trkpt lat="42.31475" lon="14.075645"><ele>68.66666666666667</ele><time>2026-05-03T11:56:55.276Z</time></trkpt><trkpt lat="42.31484" lon="14.0758433"><ele>69.0</ele><time>2026-05-03T11:56:56.276Z</time></trkpt><trkpt lat="42.3149333" lon="14.0760283"><ele>69.0</ele><time>2026-05-03T11:56:57.275Z</time></trkpt><trkpt lat="42.3150133" lon="14.0762083"><ele>69.0</ele><time>2026-05-03T11:56:58.275Z</time></trkpt><trkpt lat="42.3150917" lon="14.0763917"><ele>69.0</ele><time>2026-05-03T11:56:59.275Z</time></trkpt><trkpt lat="42.31517" lon="14.0765783"><ele>69.0</ele><time>2026-05-03T11:57:00.275Z</time></trkpt><trkpt lat="42.315265" lon="14.076755"><ele>69.0</ele><time>2026-05-03T11:57:01.275Z</time></trkpt><trkpt lat="42.3153583" lon="14.076935"><ele>69.0</ele><time>2026-05-03T11:57:02.275Z</time></trkpt><trkpt lat="42.31545" lon="14.0771333"><ele>69.0</ele><time>2026-05-03T11:57:03.276Z</time></trkpt><trkpt lat="42.3155433" lon="14.07733"><ele>69.0</ele><time>2026-05-03T11:57:04.275Z</time></trkpt><trkpt lat="42.315645" lon="14.0775317"><ele>69.0</ele><time>2026-05-03T11:57:05.275Z</time></trkpt><trkpt lat="42.3157533" lon="14.0777483"><ele>68.66666666666667</ele><time>2026-05-03T11:57:06.275Z</time></trkpt><trkpt lat="42.3158617" lon="14.0779467"><ele>68.33333333333334</ele><time>2026-05-03T11:57:07.276Z</time></trkpt><trkpt lat="42.3159633" lon="14.0781683"><ele>68.0</ele><time>2026-05-03T11:57:08.275Z</time></trkpt><trkpt lat="42.3160667" lon="14.0783833"><ele>68.0</ele><time>2026-05-03T11:57:09.275Z</time></trkpt><trkpt lat="42.3161733" lon="14.078605"><ele>68.0</ele><time>2026-05-03T11:57:10.275Z</time></trkpt><trkpt lat="42.3162733" lon="14.078825"><ele>68.0</ele><time>2026-05-03T11:57:11.275Z</time></trkpt><trkpt lat="42.31637" lon="14.0790267"><ele>67.66666666666667</ele><time>2026-05-03T11:57:12.275Z</time></trkpt><trkpt lat="42.3164667" lon="14.0792283"><ele>67.33333333333333</ele><time>2026-05-03T11:57:13.275Z</time></trkpt><trkpt lat="42.3165533" lon="14.0794317"><ele>67.0</ele><time>2026-05-03T11:57:14.275Z</time></trkpt><trkpt lat="42.31665" lon="14.0796317"><ele>67.0</ele><time>2026-05-03T11:57:15.275Z</time></trkpt><trkpt lat="42.3167483" lon="14.0798117"><ele>67.0</ele><time>2026-05-03T11:57:16.275Z</time></trkpt><trkpt lat="42.31683" lon="14.079985"><ele>67.0</ele><time>2026-05-03T11:57:17.275Z</time></trkpt><trkpt lat="42.3169033" lon="14.080145"><ele>67.0</ele><time>2026-05-03T11:57:18.275Z</time></trkpt><trkpt lat="42.31698" lon="14.0802867"><ele>67.0</ele><time>2026-05-03T11:57:19.275Z</time></trkpt><trkpt lat="42.31705" lon="14.08044"><ele>67.0</ele><time>2026-05-03T11:57:20.275Z</time></trkpt><trkpt lat="42.31712" lon="14.0805883"><ele>67.0</ele><time>2026-05-03T11:57:21.275Z</time></trkpt><trkpt lat="42.31719" lon="14.08074"><ele>66.5</ele><time>2026-05-03T11:57:22.275Z</time></trkpt><trkpt lat="42.3172733" lon="14.080895"><ele>66.0</ele><time>2026-05-03T11:57:23.275Z</time></trkpt><trkpt lat="42.31735" lon="14.0810467"><ele>65.5</ele><time>2026-05-03T11:57:24.275Z</time></trkpt><trkpt lat="42.3174217" lon="14.0811967"><ele>65.0</ele><time>2026-05-03T11:57:25.275Z</time></trkpt><trkpt lat="42.3175033" lon="14.0813567"><ele>65.0</ele><time>2026-05-03T11:57:26.275Z</time></trkpt><trkpt lat="42.31758" lon="14.08152"><ele>65.0</ele><time>2026-05-03T11:57:27.275Z</time></trkpt><trkpt lat="42.317665" lon="14.0817033"><ele>65.0</ele><time>2026-05-03T11:57:28.275Z</time></trkpt><trkpt lat="42.3177583" lon="14.0819"><ele>64.66666666666667</ele><time>2026-05-03T11:57:29.275Z</time></trkpt><trkpt lat="42.3178483" lon="14.0821083"><ele>64.33333333333333</ele><time>2026-05-03T11:57:30.275Z</time></trkpt><trkpt lat="42.3179433" lon="14.0823183"><ele>64.0</ele><time>2026-05-03T11:57:31.275Z</time></trkpt><trkpt lat="42.31805" lon="14.0825333"><ele>64.0</ele><time>2026-05-03T11:57:32.275Z</time></trkpt><trkpt lat="42.31816" lon="14.082745"><ele>64.0</ele><time>2026-05-03T11:57:33.275Z</time></trkpt><trkpt lat="42.3182533" lon="14.08297"><ele>64.0</ele><time>2026-05-03T11:57:34.275Z</time></trkpt><trkpt lat="42.3183617" lon="14.083215"><ele>63.666666666666664</ele><time>2026-05-03T11:57:35.275Z</time></trkpt><trkpt lat="42.31848" lon="14.08347"><ele>63.33333333333333</ele><time>2026-05-03T11:57:36.275Z</time></trkpt><trkpt lat="42.3186" lon="14.0837133"><ele>63.0</ele><time>2026-05-03T11:57:37.275Z</time></trkpt><trkpt lat="42.3187117" lon="14.083945"><ele>63.0</ele><time>2026-05-03T11:57:38.275Z</time></trkpt><trkpt lat="42.318815" lon="14.0841617"><ele>63.0</ele><time>2026-05-03T11:57:39.275Z</time></trkpt><trkpt lat="42.3189233" lon="14.0843767"><ele>63.0</ele><time>2026-05-03T11:57:40.275Z</time></trkpt><trkpt lat="42.3190267" lon="14.0845867"><ele>63.0</ele><time>2026-05-03T11:57:41.275Z</time></trkpt><trkpt lat="42.319135" lon="14.0847983"><ele>63.0</ele><time>2026-05-03T11:57:42.275Z</time></trkpt><trkpt lat="42.319245" lon="14.0850067"><ele>63.0</ele><time>2026-05-03T11:57:43.275Z</time></trkpt><trkpt lat="42.319345" lon="14.0852283"><ele>62.66666666666667</ele><time>2026-05-03T11:57:44.275Z</time></trkpt><trkpt lat="42.3194483" lon="14.0854483"><ele>62.333333333333336</ele><time>2026-05-03T11:57:45.275Z</time></trkpt><trkpt lat="42.3195567" lon="14.0856767"><ele>62.0</ele><time>2026-05-03T11:57:46.275Z</time></trkpt><trkpt lat="42.3196633" lon="14.0858933"><ele>61.0</ele><time>2026-05-03T11:57:47.276Z</time></trkpt><trkpt lat="42.3197733" lon="14.08611"><ele>60.0</ele><time>2026-05-03T11:57:48.275Z</time></trkpt><trkpt lat="42.319875" lon="14.0863367"><ele>59.0</ele><time>2026-05-03T11:57:49.275Z</time></trkpt><trkpt lat="42.31998" lon="14.0865567"><ele>59.66666666666667</ele><time>2026-05-03T11:57:50.275Z</time></trkpt><trkpt lat="42.3200767" lon="14.0867667"><ele>60.33333333333333</ele><time>2026-05-03T11:57:51.275Z</time></trkpt><trkpt lat="42.3201667" lon="14.0869617"><ele>61.0</ele><time>2026-05-03T11:57:52.275Z</time></trkpt><trkpt lat="42.3202483" lon="14.0871483"><ele>61.0</ele><time>2026-05-03T11:57:53.275Z</time></trkpt><trkpt lat="42.3203417" lon="14.0873133"><ele>61.0</ele><time>2026-05-03T11:57:54.275Z</time></trkpt><trkpt lat="42.3204283" lon="14.0874933"><ele>61.0</ele><time>2026-05-03T11:57:55.275Z</time></trkpt><trkpt lat="42.32051" lon="14.0876633"><ele>60.666666666666664</ele><time>2026-05-03T11:57:56.275Z</time></trkpt><trkpt lat="42.3205917" lon="14.0878333"><ele>60.33333333333333</ele><time>2026-05-03T11:57:57.275Z</time></trkpt><trkpt lat="42.32067" lon="14.0880133"><ele>60.0</ele><time>2026-05-03T11:57:58.276Z</time></trkpt><trkpt lat="42.32076" lon="14.0881867"><ele>60.0</ele><time>2026-05-03T11:57:59.275Z</time></trkpt><trkpt lat="42.3208517" lon="14.0883667"><ele>60.0</ele><time>2026-05-03T11:58:00.275Z</time></trkpt><trkpt lat="42.3209333" lon="14.08854"><ele>60.0</ele><time>2026-05-03T11:58:01.275Z</time></trkpt><trkpt lat="42.3210067" lon="14.0887167"><ele>60.0</ele><time>2026-05-03T11:58:02.275Z</time></trkpt><trkpt lat="42.3210883" lon="14.0889017"><ele>60.0</ele><time>2026-05-03T11:58:03.275Z</time></trkpt><trkpt lat="42.321175" lon="14.0890767"><ele>60.0</ele><time>2026-05-03T11:58:04.275Z</time></trkpt><trkpt lat="42.3212633" lon="14.0892583"><ele>59.66666666666667</ele><time>2026-05-03T11:58:05.275Z</time></trkpt><trkpt lat="42.3213533" lon="14.089445"><ele>59.333333333333336</ele><time>2026-05-03T11:58:06.275Z</time></trkpt><trkpt lat="42.3214283" lon="14.0896217"><ele>59.0</ele><time>2026-05-03T11:58:07.276Z</time></trkpt><trkpt lat="42.3215117" lon="14.0897933"><ele>58.75</ele><time>2026-05-03T11:58:08.275Z</time></trkpt><trkpt lat="42.3216" lon="14.0899583"><ele>58.5</ele><time>2026-05-03T11:58:09.275Z</time></trkpt><trkpt lat="42.3216867" lon="14.0901117"><ele>58.25</ele><time>2026-05-03T11:58:10.275Z</time></trkpt><trkpt lat="42.3217583" lon="14.0902767"><ele>58.0</ele><time>2026-05-03T11:58:11.275Z</time></trkpt><trkpt lat="42.321835" lon="14.09042"><ele>58.0</ele><time>2026-05-03T11:58:12.275Z</time></trkpt><trkpt lat="42.3218983" lon="14.0905783"><ele>58.0</ele><time>2026-05-03T11:58:13.275Z</time></trkpt><trkpt lat="42.3219683" lon="14.0907283"><ele>58.0</ele><time>2026-05-03T11:58:14.275Z</time></trkpt><trkpt lat="42.3220467" lon="14.0908683"><ele>58.0</ele><time>2026-05-03T11:58:15.275Z</time></trkpt><trkpt lat="42.32211" lon="14.091005"><ele>58.0</ele><time>2026-05-03T11:58:16.275Z</time></trkpt><trkpt lat="42.32217" lon="14.09114"><ele>58.0</ele><time>2026-05-03T11:58:17.275Z</time></trkpt><trkpt lat="42.322235" lon="14.09126"><ele>58.0</ele><time>2026-05-03T11:58:18.275Z</time></trkpt><trkpt lat="42.3222917" lon="14.0913683"><ele>58.0</ele><time>2026-05-03T11:58:19.275Z</time></trkpt><trkpt lat="42.3223433" lon="14.0914683"><ele>58.0</ele><time>2026-05-03T11:58:20.276Z</time></trkpt><trkpt lat="42.32239" lon="14.0915767"><ele>58.2</ele><time>2026-05-03T11:58:21.276Z</time></trkpt><trkpt lat="42.3224317" lon="14.09168"><ele>58.4</ele><time>2026-05-03T11:58:22.275Z</time></trkpt><trkpt lat="42.3224883" lon="14.0917917"><ele>58.60000000000001</ele><time>2026-05-03T11:58:23.275Z</time></trkpt><trkpt lat="42.322545" lon="14.0919117"><ele>58.800000000000004</ele><time>2026-05-03T11:58:24.275Z</time></trkpt><trkpt lat="42.3226117" lon="14.0920467"><ele>59.0</ele><time>2026-05-03T11:58:25.276Z</time></trkpt><trkpt lat="42.3226783" lon="14.092195"><ele>59.0</ele><time>2026-05-03T11:58:26.275Z</time></trkpt><trkpt lat="42.322755" lon="14.0923517"><ele>59.0</ele><time>2026-05-03T11:58:27.275Z</time></trkpt><trkpt lat="42.322825" lon="14.0925117"><ele>59.0</ele><time>2026-05-03T11:58:28.275Z</time></trkpt><trkpt lat="42.3228997" lon="14.0926601"><ele>59.0</ele><time>2026-05-03T11:58:29.275Z</time></trkpt><trkpt lat="42.3229716" lon="14.0928036"><ele>58.75</ele><time>2026-05-03T11:58:30.275Z</time></trkpt><trkpt lat="42.3230444" lon="14.0929506"><ele>58.5</ele><time>2026-05-03T11:58:31.275Z</time></trkpt><trkpt lat="42.3231159" lon="14.093101"><ele>58.25</ele><time>2026-05-03T11:58:32.275Z</time></trkpt><trkpt lat="42.3231881" lon="14.0932594"><ele>58.0</ele><time>2026-05-03T11:58:33.275Z</time></trkpt><trkpt lat="42.3232591" lon="14.0934244"><ele>58.0</ele><time>2026-05-03T11:58:34.275Z</time></trkpt><trkpt lat="42.3233388" lon="14.0935961"><ele>58.0</ele><time>2026-05-03T11:58:35.275Z</time></trkpt><trkpt lat="42.3234149" lon="14.0937756"><ele>58.0</ele><time>2026-05-03T11:58:36.276Z</time></trkpt><trkpt lat="42.3234906" lon="14.0939508"><ele>58.0</ele><time>2026-05-03T11:58:37.275Z</time></trkpt><trkpt lat="42.32356" lon="14.0941376"><ele>58.0</ele><time>2026-05-03T11:58:38.275Z</time></trkpt><trkpt lat="42.3236117" lon="14.0943276"><ele>58.0</ele><time>2026-05-03T11:58:39.275Z</time></trkpt><trkpt lat="42.3236579" lon="14.0945229"><ele>58.0</ele><time>2026-05-03T11:58:40.275Z</time></trkpt><trkpt lat="42.3237038" lon="14.0947321"><ele>58.0</ele><time>2026-05-03T11:58:41.275Z</time></trkpt><trkpt lat="42.3237524" lon="14.0949341"><ele>58.0</ele><time>2026-05-03T11:58:42.275Z</time></trkpt><trkpt lat="42.3237958" lon="14.0951417"><ele>58.0</ele><time>2026-05-03T11:58:43.275Z</time></trkpt><trkpt lat="42.3238313" lon="14.0953636"><ele>58.0</ele><time>2026-05-03T11:58:44.276Z</time></trkpt><trkpt lat="42.3238736" lon="14.0955863"><ele>58.0</ele><time>2026-05-03T11:58:45.275Z</time></trkpt><trkpt lat="42.3239203" lon="14.095812"><ele>58.0</ele><time>2026-05-03T11:58:46.275Z</time></trkpt><trkpt lat="42.3239693" lon="14.0960404"><ele>58.0</ele><time>2026-05-03T11:58:47.275Z</time></trkpt><trkpt lat="42.324015" lon="14.0962687"><ele>58.0</ele><time>2026-05-03T11:58:48.276Z</time></trkpt><trkpt lat="42.3240591" lon="14.0965036"><ele>58.0</ele><time>2026-05-03T11:58:49.275Z</time></trkpt><trkpt lat="42.3241039" lon="14.0967355"><ele>58.0</ele><time>2026-05-03T11:58:50.275Z</time></trkpt><trkpt lat="42.3241512" lon="14.0969697"><ele>58.0</ele><time>2026-05-03T11:58:51.276Z</time></trkpt><trkpt lat="42.3241993" lon="14.0972022"><ele>57.666666666666664</ele><time>2026-05-03T11:58:52.275Z</time></trkpt><trkpt lat="42.3242521" lon="14.0974302"><ele>57.33333333333333</ele><time>2026-05-03T11:58:53.275Z</time></trkpt><trkpt lat="42.3243125" lon="14.0976572"><ele>57.0</ele><time>2026-05-03T11:58:54.275Z</time></trkpt><trkpt lat="42.324386" lon="14.0978712"><ele>57.0</ele><time>2026-05-03T11:58:55.275Z</time></trkpt><trkpt lat="42.3244791" lon="14.0980803"><ele>57.0</ele><time>2026-05-03T11:58:56.275Z</time></trkpt><trkpt lat="42.3245858" lon="14.0982723"><ele>57.0</ele><time>2026-05-03T11:58:57.275Z</time></trkpt><trkpt lat="42.3246934" lon="14.0984594"><ele>55.66666666666667</ele><time>2026-05-03T11:58:58.275Z</time></trkpt><trkpt lat="42.324803" lon="14.0986465"><ele>54.333333333333336</ele><time>2026-05-03T11:58:59.275Z</time></trkpt><trkpt lat="42.3249175" lon="14.0988351"><ele>53.0</ele><time>2026-05-03T11:59:00.275Z</time></trkpt><trkpt lat="42.325036" lon="14.0990236"><ele>54.0</ele><time>2026-05-03T11:59:01.275Z</time></trkpt><trkpt lat="42.3251576" lon="14.0992089"><ele>55.0</ele><time>2026-05-03T11:59:02.275Z</time></trkpt><trkpt lat="42.3252892" lon="14.0993949"><ele>56.0</ele><time>2026-05-03T11:59:03.275Z</time></trkpt><trkpt lat="42.3254085" lon="14.0995963"><ele>56.0</ele><time>2026-05-03T11:59:04.275Z</time></trkpt><trkpt lat="42.3255237" lon="14.0997878"><ele>56.0</ele><time>2026-05-03T11:59:05.275Z</time></trkpt><trkpt lat="42.3256297" lon="14.0999551"><ele>56.0</ele><time>2026-05-03T11:59:06.275Z</time></trkpt><trkpt lat="42.3257227" lon="14.1001034"><ele>55.25</ele><time>2026-05-03T11:59:07.276Z</time></trkpt><trkpt lat="42.3258052" lon="14.1002401"><ele>54.5</ele><time>2026-05-03T11:59:08.275Z</time></trkpt><trkpt lat="42.3258899" lon="14.100366"><ele>53.75</ele><time>2026-05-03T11:59:09.275Z</time></trkpt><trkpt lat="42.3259666" lon="14.100487"><ele>53.0</ele><time>2026-05-03T11:59:10.275Z</time></trkpt><trkpt lat="42.3260276" lon="14.1006042"><ele>53.0</ele><time>2026-05-03T11:59:11.275Z</time></trkpt><trkpt lat="42.3260801" lon="14.1007243"><ele>53.0</ele><time>2026-05-03T11:59:12.275Z</time></trkpt><trkpt lat="42.3261124" lon="14.1008513"><ele>53.0</ele><time>2026-05-03T11:59:13.275Z</time></trkpt><trkpt lat="42.3261337" lon="14.1009693"><ele>53.0</ele><time>2026-05-03T11:59:14.275Z</time></trkpt><trkpt lat="42.3261609" lon="14.1010722"><ele>53.0</ele><time>2026-05-03T11:59:15.276Z</time></trkpt><trkpt lat="42.3262084" lon="14.1011569"><ele>53.4</ele><time>2026-05-03T11:59:16.275Z</time></trkpt><trkpt lat="42.3262772" lon="14.1012192"><ele>53.8</ele><time>2026-05-03T11:59:17.275Z</time></trkpt><trkpt lat="42.3263623" lon="14.101272"><ele>54.2</ele><time>2026-05-03T11:59:18.275Z</time></trkpt><trkpt lat="42.3264678" lon="14.1013481"><ele>54.6</ele><time>2026-05-03T11:59:19.275Z</time></trkpt><trkpt lat="42.3265743" lon="14.1014615"><ele>55.0</ele><time>2026-05-03T11:59:20.275Z</time></trkpt><trkpt lat="42.3266733" lon="14.1016139"><ele>55.0</ele><time>2026-05-03T11:59:21.276Z</time></trkpt><trkpt lat="42.3267765" lon="14.1018001"><ele>55.0</ele><time>2026-05-03T11:59:22.276Z</time></trkpt><trkpt lat="42.3268825" lon="14.1019959"><ele>55.0</ele><time>2026-05-03T11:59:23.275Z</time></trkpt><trkpt lat="42.3269875" lon="14.1021807"><ele>55.0</ele><time>2026-05-03T11:59:24.275Z</time></trkpt><trkpt lat="42.3270856" lon="14.1023639"><ele>55.0</ele><time>2026-05-03T11:59:25.276Z</time></trkpt><trkpt lat="42.327177" lon="14.102558"><ele>55.0</ele><time>2026-05-03T11:59:26.275Z</time></trkpt><trkpt lat="42.3272622" lon="14.102769"><ele>53.0</ele><time>2026-05-03T11:59:27.275Z</time></trkpt><trkpt lat="42.3273397" lon="14.1029892"><ele>51.0</ele><time>2026-05-03T11:59:28.275Z</time></trkpt><trkpt lat="42.3274144" lon="14.1032158"><ele>49.0</ele><time>2026-05-03T11:59:29.275Z</time></trkpt><trkpt lat="42.327486" lon="14.1034413"><ele>49.0</ele><time>2026-05-03T11:59:30.275Z</time></trkpt><trkpt lat="42.3275496" lon="14.10367"><ele>49.0</ele><time>2026-05-03T11:59:31.275Z</time></trkpt><trkpt lat="42.3276159" lon="14.1038866"><ele>49.0</ele><time>2026-05-03T11:59:32.275Z</time></trkpt><trkpt lat="42.3276846" lon="14.1040937"><ele>48.33333333333333</ele><time>2026-05-03T11:59:33.275Z</time></trkpt><trkpt lat="42.3277519" lon="14.1043022"><ele>47.666666666666664</ele><time>2026-05-03T11:59:34.275Z</time></trkpt><trkpt lat="42.3278126" lon="14.1045142"><ele>47.0</ele><time>2026-05-03T11:59:35.275Z</time></trkpt><trkpt lat="42.3278838" lon="14.1047274"><ele>46.666666666666664</ele><time>2026-05-03T11:59:36.275Z</time></trkpt><trkpt lat="42.3279518" lon="14.1049375"><ele>46.333333333333336</ele><time>2026-05-03T11:59:37.275Z</time></trkpt><trkpt lat="42.3280191" lon="14.1051512"><ele>46.0</ele><time>2026-05-03T11:59:38.275Z</time></trkpt><trkpt lat="42.3280821" lon="14.1053581"><ele>46.0</ele><time>2026-05-03T11:59:39.275Z</time></trkpt><trkpt lat="42.3281457" lon="14.1055649"><ele>46.0</ele><time>2026-05-03T11:59:40.275Z</time></trkpt><trkpt lat="42.3282082" lon="14.1057613"><ele>46.0</ele><time>2026-05-03T11:59:41.275Z</time></trkpt><trkpt lat="42.3282693" lon="14.1059478"><ele>46.0</ele><time>2026-05-03T11:59:42.275Z</time></trkpt><trkpt lat="42.3283323" lon="14.1061363"><ele>46.0</ele><time>2026-05-03T11:59:43.275Z</time></trkpt><trkpt lat="42.3283936" lon="14.1063247"><ele>46.0</ele><time>2026-05-03T11:59:44.275Z</time></trkpt><trkpt lat="42.3284552" lon="14.1065182"><ele>46.0</ele><time>2026-05-03T11:59:45.275Z</time></trkpt><trkpt lat="42.3285119" lon="14.106719"><ele>46.0</ele><time>2026-05-03T11:59:46.275Z</time></trkpt><trkpt lat="42.3285705" lon="14.1069149"><ele>46.0</ele><time>2026-05-03T11:59:47.275Z</time></trkpt><trkpt lat="42.3286299" lon="14.1071049"><ele>46.0</ele><time>2026-05-03T11:59:48.275Z</time></trkpt><trkpt lat="42.3286924" lon="14.1072915"><ele>46.0</ele><time>2026-05-03T11:59:49.275Z</time></trkpt><trkpt lat="42.3287518" lon="14.1074763"><ele>46.0</ele><time>2026-05-03T11:59:50.275Z</time></trkpt><trkpt lat="42.3288191" lon="14.1076632"><ele>46.0</ele><time>2026-05-03T11:59:51.275Z</time></trkpt><trkpt lat="42.3288788" lon="14.1078437"><ele>46.0</ele><time>2026-05-03T11:59:52.275Z</time></trkpt><trkpt lat="42.3289338" lon="14.1080281"><ele>46.0</ele><time>2026-05-03T11:59:53.275Z</time></trkpt><trkpt lat="42.3289924" lon="14.1082141"><ele>46.0</ele><time>2026-05-03T11:59:54.275Z</time></trkpt><trkpt lat="42.329048" lon="14.1083991"><ele>45.25</ele><time>2026-05-03T11:59:55.276Z</time></trkpt><trkpt lat="42.3291024" lon="14.108578"><ele>44.5</ele><time>2026-05-03T11:59:56.275Z</time></trkpt><trkpt lat="42.3291622" lon="14.1087596"><ele>43.75</ele><time>2026-05-03T11:59:57.275Z</time></trkpt><trkpt lat="42.3292184" lon="14.1089353"><ele>43.0</ele><time>2026-05-03T11:59:58.275Z</time></trkpt><trkpt lat="42.3292706" lon="14.1091003"><ele>43.0</ele><time>2026-05-03T11:59:59.275Z</time></trkpt><trkpt lat="42.3293168" lon="14.1092501"><ele>43.0</ele><time>2026-05-03T12:00:00.276Z</time></trkpt><trkpt lat="42.3293663" lon="14.109401"><ele>43.0</ele><time>2026-05-03T12:00:01.275Z</time></trkpt><trkpt lat="42.3294086" lon="14.1095578"><ele>43.0</ele><time>2026-05-03T12:00:02.275Z</time></trkpt><trkpt lat="42.329454" lon="14.1097132"><ele>43.0</ele><time>2026-05-03T12:00:03.276Z</time></trkpt><trkpt lat="42.3295026" lon="14.1098745"><ele>43.0</ele><time>2026-05-03T12:00:04.275Z</time></trkpt><trkpt lat="42.3295536" lon="14.1100301"><ele>43.0</ele><time>2026-05-03T12:00:05.275Z</time></trkpt><trkpt lat="42.3296031" lon="14.1101967"><ele>43.0</ele><time>2026-05-03T12:00:06.275Z</time></trkpt><trkpt lat="42.3296561" lon="14.1103669"><ele>43.25</ele><time>2026-05-03T12:00:07.275Z</time></trkpt><trkpt lat="42.3297126" lon="14.1105398"><ele>43.5</ele><time>2026-05-03T12:00:08.275Z</time></trkpt><trkpt lat="42.3297736" lon="14.1107164"><ele>43.75</ele><time>2026-05-03T12:00:09.275Z</time></trkpt><trkpt lat="42.3298344" lon="14.1108971"><ele>44.0</ele><time>2026-05-03T12:00:10.275Z</time></trkpt><trkpt lat="42.329895" lon="14.1110745"><ele>43.666666666666664</ele><time>2026-05-03T12:00:11.275Z</time></trkpt><trkpt lat="42.3299592" lon="14.1112588"><ele>43.333333333333336</ele><time>2026-05-03T12:00:12.275Z</time></trkpt><trkpt lat="42.3300254" lon="14.1114579"><ele>43.0</ele><time>2026-05-03T12:00:13.275Z</time></trkpt><trkpt lat="42.3300938" lon="14.1116647"><ele>43.0</ele><time>2026-05-03T12:00:14.275Z</time></trkpt><trkpt lat="42.3301618" lon="14.1118812"><ele>43.0</ele><time>2026-05-03T12:00:15.276Z</time></trkpt><trkpt lat="42.3302326" lon="14.1120986"><ele>43.0</ele><time>2026-05-03T12:00:16.276Z</time></trkpt><trkpt lat="42.3302916" lon="14.1122984"><ele>43.0</ele><time>2026-05-03T12:00:17.275Z</time></trkpt><trkpt lat="42.3303418" lon="14.1124693"><ele>43.0</ele><time>2026-05-03T12:00:18.275Z</time></trkpt><trkpt lat="42.3303804" lon="14.1126217"><ele>43.0</ele><time>2026-05-03T12:00:19.275Z</time></trkpt><trkpt lat="42.3304103" lon="14.1127648"><ele>43.0</ele><time>2026-05-03T12:00:20.275Z</time></trkpt><trkpt lat="42.3304223" lon="14.1129073"><ele>43.0</ele><time>2026-05-03T12:00:21.275Z</time></trkpt><trkpt lat="42.3304323" lon="14.1130469"><ele>43.0</ele><time>2026-05-03T12:00:22.275Z</time></trkpt><trkpt lat="42.3304558" lon="14.1131719"><ele>43.0</ele><time>2026-05-03T12:00:23.275Z</time></trkpt><trkpt lat="42.3305002" lon="14.113268"><ele>43.0</ele><time>2026-05-03T12:00:24.276Z</time></trkpt><trkpt lat="42.3305588" lon="14.113356"><ele>43.0</ele><time>2026-05-03T12:00:25.275Z</time></trkpt><trkpt lat="42.330621" lon="14.113465"><ele>41.75</ele><time>2026-05-03T12:00:26.276Z</time></trkpt><trkpt lat="42.3306721" lon="14.1135995"><ele>40.5</ele><time>2026-05-03T12:00:27.275Z</time></trkpt><trkpt lat="42.3307203" lon="14.1137508"><ele>39.25</ele><time>2026-05-03T12:00:28.275Z</time></trkpt><trkpt lat="42.3307679" lon="14.1139139"><ele>38.0</ele><time>2026-05-03T12:00:29.275Z</time></trkpt><trkpt lat="42.3308234" lon="14.1140848"><ele>38.0</ele><time>2026-05-03T12:00:30.275Z</time></trkpt><trkpt lat="42.3308791" lon="14.1142586"><ele>38.0</ele><time>2026-05-03T12:00:31.275Z</time></trkpt><trkpt lat="42.3309401" lon="14.1144453"><ele>38.0</ele><time>2026-05-03T12:00:32.276Z</time></trkpt><trkpt lat="42.3309982" lon="14.1146238"><ele>38.0</ele><time>2026-05-03T12:00:33.276Z</time></trkpt><trkpt lat="42.3310526" lon="14.1147958"><ele>38.0</ele><time>2026-05-03T12:00:34.275Z</time></trkpt><trkpt lat="42.3311033" lon="14.1149635"><ele>38.0</ele><time>2026-05-03T12:00:35.275Z</time></trkpt><trkpt lat="42.3311592" lon="14.1151375"><ele>38.0</ele><time>2026-05-03T12:00:36.275Z</time></trkpt><trkpt lat="42.3312146" lon="14.1153097"><ele>38.0</ele><time>2026-05-03T12:00:37.275Z</time></trkpt><trkpt lat="42.3312641" lon="14.1154839"><ele>38.0</ele><time>2026-05-03T12:00:38.275Z</time></trkpt><trkpt lat="42.3313185" lon="14.1156558"><ele>38.0</ele><time>2026-05-03T12:00:39.275Z</time></trkpt><trkpt lat="42.3313808" lon="14.1158357"><ele>38.0</ele><time>2026-05-03T12:00:40.275Z</time></trkpt><trkpt lat="42.3314369" lon="14.1160114"><ele>38.0</ele><time>2026-05-03T12:00:41.275Z</time></trkpt><trkpt lat="42.3314968" lon="14.1161834"><ele>38.0</ele><time>2026-05-03T12:00:42.275Z</time></trkpt><trkpt lat="42.3315586" lon="14.1163742"><ele>38.0</ele><time>2026-05-03T12:00:43.275Z</time></trkpt><trkpt lat="42.3316169" lon="14.1165578"><ele>38.0</ele><time>2026-05-03T12:00:44.275Z</time></trkpt><trkpt lat="42.3316731" lon="14.1167493"><ele>38.0</ele><time>2026-05-03T12:00:45.275Z</time></trkpt><trkpt lat="42.3317327" lon="14.1169395"><ele>38.0</ele><time>2026-05-03T12:00:46.275Z</time></trkpt><trkpt lat="42.3317919" lon="14.1171409"><ele>38.0</ele><time>2026-05-03T12:00:47.275Z</time></trkpt><trkpt lat="42.3318553" lon="14.1173437"><ele>38.666666666666664</ele><time>2026-05-03T12:00:48.275Z</time></trkpt><trkpt lat="42.3319172" lon="14.1175515"><ele>39.333333333333336</ele><time>2026-05-03T12:00:49.275Z</time></trkpt><trkpt lat="42.3319825" lon="14.1177536"><ele>40.0</ele><time>2026-05-03T12:00:50.275Z</time></trkpt><trkpt lat="42.3320467" lon="14.1179594"><ele>40.0</ele><time>2026-05-03T12:00:51.275Z</time></trkpt><trkpt lat="42.3321095" lon="14.1181726"><ele>40.0</ele><time>2026-05-03T12:00:52.275Z</time></trkpt><trkpt lat="42.332168" lon="14.1183911"><ele>40.0</ele><time>2026-05-03T12:00:53.275Z</time></trkpt><trkpt lat="42.3322329" lon="14.1186052"><ele>39.333333333333336</ele><time>2026-05-03T12:00:54.275Z</time></trkpt><trkpt lat="42.3322991" lon="14.1188115"><ele>38.666666666666664</ele><time>2026-05-03T12:00:55.275Z</time></trkpt><trkpt lat="42.332367" lon="14.1190286"><ele>38.0</ele><time>2026-05-03T12:00:56.275Z</time></trkpt><trkpt lat="42.3324352" lon="14.1192477"><ele>37.666666666666664</ele><time>2026-05-03T12:00:57.275Z</time></trkpt><trkpt lat="42.3325068" lon="14.1194573"><ele>37.333333333333336</ele><time>2026-05-03T12:00:58.276Z</time></trkpt><trkpt lat="42.3325773" lon="14.1196792"><ele>37.0</ele><time>2026-05-03T12:00:59.275Z</time></trkpt><trkpt lat="42.3326474" lon="14.119902"><ele>38.0</ele><time>2026-05-03T12:01:00.275Z</time></trkpt><trkpt lat="42.3327192" lon="14.1201321"><ele>39.0</ele><time>2026-05-03T12:01:01.275Z</time></trkpt><trkpt lat="42.3327958" lon="14.120363"><ele>40.0</ele><time>2026-05-03T12:01:02.276Z</time></trkpt><trkpt lat="42.3328663" lon="14.1205897"><ele>40.0</ele><time>2026-05-03T12:01:03.275Z</time></trkpt><trkpt lat="42.3329339" lon="14.1208192"><ele>40.0</ele><time>2026-05-03T12:01:04.275Z</time></trkpt><trkpt lat="42.333006" lon="14.1210425"><ele>40.0</ele><time>2026-05-03T12:01:05.275Z</time></trkpt><trkpt lat="42.3330792" lon="14.1212745"><ele>40.66666666666667</ele><time>2026-05-03T12:01:06.275Z</time></trkpt><trkpt lat="42.3331471" lon="14.1214899"><ele>41.333333333333336</ele><time>2026-05-03T12:01:07.276Z</time></trkpt><trkpt lat="42.3332162" lon="14.1217057"><ele>42.0</ele><time>2026-05-03T12:01:08.275Z</time></trkpt><trkpt lat="42.3332822" lon="14.1219256"><ele>42.0</ele><time>2026-05-03T12:01:09.275Z</time></trkpt><trkpt lat="42.3333535" lon="14.1221458"><ele>42.0</ele><time>2026-05-03T12:01:10.276Z</time></trkpt><trkpt lat="42.3334269" lon="14.1223711"><ele>42.0</ele><time>2026-05-03T12:01:11.275Z</time></trkpt><trkpt lat="42.3334984" lon="14.1226048"><ele>42.333333333333336</ele><time>2026-05-03T12:01:12.275Z</time></trkpt><trkpt lat="42.3335683" lon="14.1228402"><ele>42.66666666666667</ele><time>2026-05-03T12:01:13.275Z</time></trkpt><trkpt lat="42.3336426" lon="14.1230691"><ele>43.0</ele><time>2026-05-03T12:01:14.275Z</time></trkpt><trkpt lat="42.3337104" lon="14.1232778"><ele>43.0</ele><time>2026-05-03T12:01:15.275Z</time></trkpt><trkpt lat="42.3337737" lon="14.1234691"><ele>43.0</ele><time>2026-05-03T12:01:16.275Z</time></trkpt><trkpt lat="42.3338333" lon="14.12365"><ele>43.0</ele><time>2026-05-03T12:01:17.275Z</time></trkpt><trkpt lat="42.3338933" lon="14.1238283"><ele>43.0</ele><time>2026-05-03T12:01:18.275Z</time></trkpt><trkpt lat="42.3339583" lon="14.1240083"><ele>42.5</ele><time>2026-05-03T12:01:19.275Z</time></trkpt><trkpt lat="42.3340167" lon="14.1241983"><ele>42.0</ele><time>2026-05-03T12:01:20.275Z</time></trkpt><trkpt lat="42.33407" lon="14.1243767"><ele>41.5</ele><time>2026-05-03T12:01:21.275Z</time></trkpt><trkpt lat="42.3341217" lon="14.1245467"><ele>41.0</ele><time>2026-05-03T12:01:22.275Z</time></trkpt><trkpt lat="42.3341767" lon="14.124725"><ele>41.666666666666664</ele><time>2026-05-03T12:01:23.275Z</time></trkpt><trkpt lat="42.3342383" lon="14.1249083"><ele>42.333333333333336</ele><time>2026-05-03T12:01:24.275Z</time></trkpt><trkpt lat="42.3342967" lon="14.1250967"><ele>43.0</ele><time>2026-05-03T12:01:25.275Z</time></trkpt><trkpt lat="42.3343533" lon="14.1252883"><ele>43.0</ele><time>2026-05-03T12:01:26.275Z</time></trkpt><trkpt lat="42.3344167" lon="14.12549"><ele>43.0</ele><time>2026-05-03T12:01:27.275Z</time></trkpt><trkpt lat="42.3344717" lon="14.125675"><ele>43.0</ele><time>2026-05-03T12:01:28.275Z</time></trkpt><trkpt lat="42.3345267" lon="14.1258533"><ele>43.5</ele><time>2026-05-03T12:01:29.275Z</time></trkpt><trkpt lat="42.3345817" lon="14.1260267"><ele>44.0</ele><time>2026-05-03T12:01:30.275Z</time></trkpt><trkpt lat="42.3346333" lon="14.1261933"><ele>44.5</ele><time>2026-05-03T12:01:31.275Z</time></trkpt><trkpt lat="42.334695" lon="14.1263667"><ele>45.0</ele><time>2026-05-03T12:01:32.276Z</time></trkpt><trkpt lat="42.334755" lon="14.1265517"><ele>45.333333333333336</ele><time>2026-05-03T12:01:33.275Z</time></trkpt><trkpt lat="42.33482" lon="14.1267367"><ele>45.66666666666667</ele><time>2026-05-03T12:01:34.276Z</time></trkpt><trkpt lat="42.33487" lon="14.1269217"><ele>46.0</ele><time>2026-05-03T12:01:35.275Z</time></trkpt><trkpt lat="42.33493" lon="14.1271117"><ele>46.0</ele><time>2026-05-03T12:01:36.275Z</time></trkpt><trkpt lat="42.3349917" lon="14.1273067"><ele>46.0</ele><time>2026-05-03T12:01:37.275Z</time></trkpt><trkpt lat="42.33505" lon="14.1275017"><ele>46.0</ele><time>2026-05-03T12:01:38.275Z</time></trkpt><trkpt lat="42.33511" lon="14.1276967"><ele>46.5</ele><time>2026-05-03T12:01:39.275Z</time></trkpt><trkpt lat="42.3351633" lon="14.127875"><ele>47.0</ele><time>2026-05-03T12:01:40.275Z</time></trkpt><trkpt lat="42.3352217" lon="14.1280417"><ele>47.5</ele><time>2026-05-03T12:01:41.275Z</time></trkpt><trkpt lat="42.3352733" lon="14.1282017"><ele>48.0</ele><time>2026-05-03T12:01:42.275Z</time></trkpt><trkpt lat="42.33533" lon="14.128365"><ele>48.25</ele><time>2026-05-03T12:01:43.275Z</time></trkpt><trkpt lat="42.3353733" lon="14.1285283"><ele>48.5</ele><time>2026-05-03T12:01:44.275Z</time></trkpt><trkpt lat="42.335425" lon="14.1286883"><ele>48.75</ele><time>2026-05-03T12:01:45.275Z</time></trkpt><trkpt lat="42.3354767" lon="14.1288433"><ele>49.0</ele><time>2026-05-03T12:01:46.275Z</time></trkpt><trkpt lat="42.3355233" lon="14.1289967"><ele>49.25</ele><time>2026-05-03T12:01:47.275Z</time></trkpt><trkpt lat="42.3355733" lon="14.1291533"><ele>49.5</ele><time>2026-05-03T12:01:48.275Z</time></trkpt><trkpt lat="42.33562" lon="14.1293117"><ele>49.75</ele><time>2026-05-03T12:01:49.275Z</time></trkpt><trkpt lat="42.335675" lon="14.129475"><ele>50.0</ele><time>2026-05-03T12:01:50.275Z</time></trkpt><trkpt lat="42.33573" lon="14.129635"><ele>50.0</ele><time>2026-05-03T12:01:51.275Z</time></trkpt><trkpt lat="42.3357808" lon="14.1298035"><ele>50.0</ele><time>2026-05-03T12:01:52.275Z</time></trkpt><trkpt lat="42.3358338" lon="14.1299707"><ele>50.0</ele><time>2026-05-03T12:01:53.275Z</time></trkpt><trkpt lat="42.3358839" lon="14.1301403"><ele>50.0</ele><time>2026-05-03T12:01:54.275Z</time></trkpt><trkpt lat="42.3359358" lon="14.1303101"><ele>50.5</ele><time>2026-05-03T12:01:55.275Z</time></trkpt><trkpt lat="42.3359877" lon="14.1304853"><ele>51.0</ele><time>2026-05-03T12:01:56.275Z</time></trkpt><trkpt lat="42.3360418" lon="14.1306608"><ele>51.5</ele><time>2026-05-03T12:01:57.275Z</time></trkpt><trkpt lat="42.3360954" lon="14.13083"><ele>52.0</ele><time>2026-05-03T12:01:58.275Z</time></trkpt><trkpt lat="42.3361478" lon="14.1309947"><ele>52.0</ele><time>2026-05-03T12:01:59.275Z</time></trkpt><trkpt lat="42.3361957" lon="14.1311555"><ele>52.0</ele><time>2026-05-03T12:02:00.275Z</time></trkpt><trkpt lat="42.3362404" lon="14.1313166"><ele>52.0</ele><time>2026-05-03T12:02:01.275Z</time></trkpt><trkpt lat="42.3362879" lon="14.1314786"><ele>52.0</ele><time>2026-05-03T12:02:02.275Z</time></trkpt><trkpt lat="42.3363401" lon="14.131631"><ele>52.0</ele><time>2026-05-03T12:02:03.275Z</time></trkpt><trkpt lat="42.336399" lon="14.1317828"><ele>52.0</ele><time>2026-05-03T12:02:04.276Z</time></trkpt><trkpt lat="42.3364595" lon="14.131934"><ele>52.0</ele><time>2026-05-03T12:02:05.275Z</time></trkpt><trkpt lat="42.3365283" lon="14.132076"><ele>52.0</ele><time>2026-05-03T12:02:06.275Z</time></trkpt><trkpt lat="42.3366083" lon="14.1322134"><ele>52.0</ele><time>2026-05-03T12:02:07.275Z</time></trkpt><trkpt lat="42.3367004" lon="14.1323386"><ele>52.0</ele><time>2026-05-03T12:02:08.275Z</time></trkpt><trkpt lat="42.3368035" lon="14.1324554"><ele>52.0</ele><time>2026-05-03T12:02:09.275Z</time></trkpt><trkpt lat="42.3369114" lon="14.1325656"><ele>52.0</ele><time>2026-05-03T12:02:10.275Z</time></trkpt><trkpt lat="42.3370235" lon="14.1326649"><ele>52.5</ele><time>2026-05-03T12:02:11.275Z</time></trkpt><trkpt lat="42.3371338" lon="14.1327531"><ele>53.0</ele><time>2026-05-03T12:02:12.276Z</time></trkpt><trkpt lat="42.3372473" lon="14.1328267"><ele>53.5</ele><time>2026-05-03T12:02:13.275Z</time></trkpt><trkpt lat="42.3373587" lon="14.132895"><ele>54.0</ele><time>2026-05-03T12:02:14.276Z</time></trkpt><trkpt lat="42.3374769" lon="14.1329479"><ele>54.25</ele><time>2026-05-03T12:02:15.275Z</time></trkpt><trkpt lat="42.3375973" lon="14.132986"><ele>54.5</ele><time>2026-05-03T12:02:16.275Z</time></trkpt><trkpt lat="42.3377177" lon="14.1330107"><ele>54.75</ele><time>2026-05-03T12:02:17.275Z</time></trkpt><trkpt lat="42.3378356" lon="14.1330415"><ele>55.0</ele><time>2026-05-03T12:02:18.275Z</time></trkpt><trkpt lat="42.3379571" lon="14.1330741"><ele>55.0</ele><time>2026-05-03T12:02:19.276Z</time></trkpt><trkpt lat="42.3380744" lon="14.1331126"><ele>55.0</ele><time>2026-05-03T12:02:20.276Z</time></trkpt><trkpt lat="42.3382018" lon="14.1331527"><ele>55.0</ele><time>2026-05-03T12:02:21.275Z</time></trkpt><trkpt lat="42.3383342" lon="14.1331925"><ele>55.0</ele><time>2026-05-03T12:02:22.275Z</time></trkpt><trkpt lat="42.3384624" lon="14.1332305"><ele>55.0</ele><time>2026-05-03T12:02:23.275Z</time></trkpt><trkpt lat="42.3385847" lon="14.1332682"><ele>55.0</ele><time>2026-05-03T12:02:24.275Z</time></trkpt><trkpt lat="42.3387089" lon="14.1333051"><ele>55.0</ele><time>2026-05-03T12:02:25.276Z</time></trkpt><trkpt lat="42.338831" lon="14.1333404"><ele>55.0</ele><time>2026-05-03T12:02:26.275Z</time></trkpt><trkpt lat="42.3389429" lon="14.1333748"><ele>55.2</ele><time>2026-05-03T12:02:27.275Z</time></trkpt><trkpt lat="42.339046" lon="14.1334094"><ele>55.4</ele><time>2026-05-03T12:02:28.276Z</time></trkpt><trkpt lat="42.3391467" lon="14.1334413"><ele>55.599999999999994</ele><time>2026-05-03T12:02:29.275Z</time></trkpt><trkpt lat="42.3392456" lon="14.1334647"><ele>55.8</ele><time>2026-05-03T12:02:30.275Z</time></trkpt><trkpt lat="42.3393483" lon="14.1334953"><ele>56.0</ele><time>2026-05-03T12:02:31.275Z</time></trkpt><trkpt lat="42.3394488" lon="14.1335175"><ele>56.00000000000001</ele><time>2026-05-03T12:02:32.275Z</time></trkpt><trkpt lat="42.3395421" lon="14.1335475"><ele>56.0</ele><time>2026-05-03T12:02:33.275Z</time></trkpt><trkpt lat="42.3396284" lon="14.1335786"><ele>56.0</ele><time>2026-05-03T12:02:34.276Z</time></trkpt><trkpt lat="42.3397104" lon="14.1336061"><ele>56.0</ele><time>2026-05-03T12:02:35.275Z</time></trkpt><trkpt lat="42.3397964" lon="14.1336356"><ele>56.00000000000001</ele><time>2026-05-03T12:02:36.275Z</time></trkpt><trkpt lat="42.3398764" lon="14.133662"><ele>56.0</ele><time>2026-05-03T12:02:37.275Z</time></trkpt><trkpt lat="42.3399573" lon="14.1336843"><ele>55.833333333333336</ele><time>2026-05-03T12:02:38.275Z</time></trkpt><trkpt lat="42.3400383" lon="14.1337067"><ele>55.66666666666667</ele><time>2026-05-03T12:02:39.275Z</time></trkpt><trkpt lat="42.3401152" lon="14.1337306"><ele>55.5</ele><time>2026-05-03T12:02:40.275Z</time></trkpt><trkpt lat="42.3401816" lon="14.1337478"><ele>55.33333333333333</ele><time>2026-05-03T12:02:41.275Z</time></trkpt><trkpt lat="42.3402663" lon="14.1337761"><ele>55.166666666666664</ele><time>2026-05-03T12:02:43.275Z</time></trkpt><trkpt lat="42.340345" lon="14.1338033"><ele>55.0</ele><time>2026-05-03T12:02:54.275Z</time></trkpt><trkpt lat="42.3404333" lon="14.1338567"><ele>55.0</ele><time>2026-05-03T12:02:56.275Z</time></trkpt><trkpt lat="42.34052" lon="14.1339583"><ele>55.0</ele><time>2026-05-03T12:02:58.275Z</time></trkpt><trkpt lat="42.3406133" lon="14.1339983"><ele>55.0</ele><time>2026-05-03T12:03:00.276Z</time></trkpt><trkpt lat="42.3406917" lon="14.1339067"><ele>55.0</ele><time>2026-05-03T12:03:02.275Z</time></trkpt><trkpt lat="42.3406967" lon="14.13376"><ele>55.0</ele><time>2026-05-03T12:03:04.275Z</time></trkpt><trkpt lat="42.3406667" lon="14.13362"><ele>54.6</ele><time>2026-05-03T12:03:06.275Z</time></trkpt><trkpt lat="42.340685" lon="14.1334517"><ele>54.2</ele><time>2026-05-03T12:03:08.275Z</time></trkpt><trkpt lat="42.340715" lon="14.133365"><ele>53.8</ele><time>2026-05-03T12:03:09.275Z</time></trkpt><trkpt lat="42.34076" lon="14.13327"><ele>53.4</ele><time>2026-05-03T12:03:10.275Z</time></trkpt><trkpt lat="42.34081" lon="14.1331683"><ele>53.0</ele><time>2026-05-03T12:03:11.276Z</time></trkpt><trkpt lat="42.34087" lon="14.1330767"><ele>52.599999999999994</ele><time>2026-05-03T12:03:12.275Z</time></trkpt><trkpt lat="42.34092" lon="14.13297"><ele>52.199999999999996</ele><time>2026-05-03T12:03:13.275Z</time></trkpt><trkpt lat="42.3409783" lon="14.1328683"><ele>51.8</ele><time>2026-05-03T12:03:14.275Z</time></trkpt><trkpt lat="42.3410383" lon="14.1327817"><ele>51.4</ele><time>2026-05-03T12:03:15.275Z</time></trkpt><trkpt lat="42.3410983" lon="14.132695"><ele>51.0</ele><time>2026-05-03T12:03:16.276Z</time></trkpt><trkpt lat="42.3411583" lon="14.1326"><ele>51.0</ele><time>2026-05-03T12:03:17.275Z</time></trkpt><trkpt lat="42.3412217" lon="14.1325"><ele>51.0</ele><time>2026-05-03T12:03:18.275Z</time></trkpt><trkpt lat="42.3412833" lon="14.13242"><ele>51.0</ele><time>2026-05-03T12:03:19.275Z</time></trkpt><trkpt lat="42.3413417" lon="14.1323333"><ele>51.0</ele><time>2026-05-03T12:03:20.275Z</time></trkpt><trkpt lat="42.3413983" lon="14.1322417"><ele>51.0</ele><time>2026-05-03T12:03:21.276Z</time></trkpt><trkpt lat="42.34145" lon="14.1321433"><ele>51.0</ele><time>2026-05-03T12:03:22.275Z</time></trkpt><trkpt lat="42.341495" lon="14.1320483"><ele>50.5</ele><time>2026-05-03T12:03:23.275Z</time></trkpt><trkpt lat="42.3415267" lon="14.13195"><ele>50.0</ele><time>2026-05-03T12:03:24.275Z</time></trkpt><trkpt lat="42.3415567" lon="14.1318533"><ele>49.5</ele><time>2026-05-03T12:03:25.275Z</time></trkpt><trkpt lat="42.341585" lon="14.1317517"><ele>49.0</ele><time>2026-05-03T12:03:26.275Z</time></trkpt><trkpt lat="42.3416183" lon="14.13164"><ele>48.5</ele><time>2026-05-03T12:03:27.275Z</time></trkpt><trkpt lat="42.3416533" lon="14.131525"><ele>48.0</ele><time>2026-05-03T12:03:28.275Z</time></trkpt><trkpt lat="42.3416867" lon="14.1314333"><ele>47.833333333333336</ele><time>2026-05-03T12:03:29.275Z</time></trkpt><trkpt lat="42.341715" lon="14.13134"><ele>47.666666666666664</ele><time>2026-05-03T12:03:30.275Z</time></trkpt><trkpt lat="42.3417567" lon="14.1312517"><ele>47.5</ele><time>2026-05-03T12:03:31.276Z</time></trkpt><trkpt lat="42.3417967" lon="14.1311583"><ele>47.33333333333333</ele><time>2026-05-03T12:03:32.274Z</time></trkpt><trkpt lat="42.341825" lon="14.1310717"><ele>47.166666666666664</ele><time>2026-05-03T12:03:33.275Z</time></trkpt><trkpt lat="42.3418567" lon="14.130945"><ele>47.0</ele><time>2026-05-03T12:03:34.274Z</time></trkpt><trkpt lat="42.34188" lon="14.1308083"><ele>46.8</ele><time>2026-05-03T12:03:35.274Z</time></trkpt><trkpt lat="42.3419117" lon="14.1306733"><ele>46.6</ele><time>2026-05-03T12:03:36.274Z</time></trkpt><trkpt lat="42.3419383" lon="14.1305383"><ele>46.4</ele><time>2026-05-03T12:03:37.274Z</time></trkpt><trkpt lat="42.34197" lon="14.1304183"><ele>46.199999999999996</ele><time>2026-05-03T12:03:38.275Z</time></trkpt><trkpt lat="42.342005" lon="14.1303017"><ele>46.0</ele><time>2026-05-03T12:03:39.274Z</time></trkpt><trkpt lat="42.3420267" lon="14.13019"><ele>46.0</ele><time>2026-05-03T12:03:40.274Z</time></trkpt><trkpt lat="42.34204" lon="14.13009"><ele>46.0</ele><time>2026-05-03T12:03:41.274Z</time></trkpt><trkpt lat="42.3420433" lon="14.1299917"><ele>46.0</ele><time>2026-05-03T12:03:42.274Z</time></trkpt><trkpt lat="42.3420483" lon="14.1298283"><ele>46.0</ele><time>2026-05-03T12:03:44.274Z</time></trkpt><trkpt lat="42.3420817" lon="14.1296933"><ele>46.0</ele><time>2026-05-03T12:03:46.274Z</time></trkpt><trkpt lat="42.342125" lon="14.1296233"><ele>46.0</ele><time>2026-05-03T12:03:47.274Z</time></trkpt><trkpt lat="42.3421683" lon="14.129545"><ele>45.66666666666667</ele><time>2026-05-03T12:03:48.274Z</time></trkpt><trkpt lat="42.3421917" lon="14.1294467"><ele>45.333333333333336</ele><time>2026-05-03T12:03:49.275Z</time></trkpt><trkpt lat="42.34219" lon="14.1293417"><ele>45.0</ele><time>2026-05-03T12:03:50.274Z</time></trkpt><trkpt lat="42.3421583" lon="14.12925"><ele>44.666666666666664</ele><time>2026-05-03T12:03:51.275Z</time></trkpt><trkpt lat="42.342115" lon="14.1291733"><ele>44.33333333333333</ele><time>2026-05-03T12:03:52.274Z</time></trkpt><trkpt lat="42.3420383" lon="14.1291067"><ele>44.0</ele><time>2026-05-03T12:03:53.274Z</time></trkpt><trkpt lat="42.3419583" lon="14.1290183"><ele>43.0</ele><time>2026-05-03T12:03:54.274Z</time></trkpt><trkpt lat="42.3418983" lon="14.128915"><ele>42.0</ele><time>2026-05-03T12:03:55.274Z</time></trkpt><trkpt lat="42.341855" lon="14.1287867"><ele>41.0</ele><time>2026-05-03T12:03:56.274Z</time></trkpt><trkpt lat="42.3418233" lon="14.128635"><ele>40.0</ele><time>2026-05-03T12:03:57.274Z</time></trkpt><trkpt lat="42.341795" lon="14.1284617"><ele>39.0</ele><time>2026-05-03T12:03:58.274Z</time></trkpt><trkpt lat="42.34177" lon="14.1282817"><ele>38.333333333333336</ele><time>2026-05-03T12:03:59.274Z</time></trkpt><trkpt lat="42.34174" lon="14.1280833"><ele>37.66666666666667</ele><time>2026-05-03T12:04:00.274Z</time></trkpt><trkpt lat="42.3416967" lon="14.1278867"><ele>37.0</ele><time>2026-05-03T12:04:01.274Z</time></trkpt><trkpt lat="42.34166" lon="14.12768"><ele>37.0</ele><time>2026-05-03T12:04:02.274Z</time></trkpt><trkpt lat="42.34163" lon="14.1274533"><ele>37.0</ele><time>2026-05-03T12:04:03.274Z</time></trkpt><trkpt lat="42.3415917" lon="14.12723"><ele>37.0</ele><time>2026-05-03T12:04:04.274Z</time></trkpt><trkpt lat="42.341555" lon="14.1270133"><ele>36.333333333333336</ele><time>2026-05-03T12:04:05.274Z</time></trkpt><trkpt lat="42.3415133" lon="14.1267917"><ele>35.666666666666664</ele><time>2026-05-03T12:04:06.274Z</time></trkpt><trkpt lat="42.34147" lon="14.1265667"><ele>35.0</ele><time>2026-05-03T12:04:07.274Z</time></trkpt><trkpt lat="42.34144" lon="14.1263633"><ele>35.0</ele><time>2026-05-03T12:04:08.274Z</time></trkpt><trkpt lat="42.3414" lon="14.12616"><ele>35.0</ele><time>2026-05-03T12:04:09.274Z</time></trkpt><trkpt lat="42.3413717" lon="14.12595"><ele>35.0</ele><time>2026-05-03T12:04:10.275Z</time></trkpt><trkpt lat="42.341335" lon="14.1257467"><ele>34.666666666666664</ele><time>2026-05-03T12:04:11.274Z</time></trkpt><trkpt lat="42.3412967" lon="14.1255283"><ele>34.333333333333336</ele><time>2026-05-03T12:04:12.274Z</time></trkpt><trkpt lat="42.341255" lon="14.125305"><ele>34.0</ele><time>2026-05-03T12:04:13.275Z</time></trkpt><trkpt lat="42.341215" lon="14.1250633"><ele>34.333333333333336</ele><time>2026-05-03T12:04:14.274Z</time></trkpt><trkpt lat="42.3411767" lon="14.12483"><ele>34.666666666666664</ele><time>2026-05-03T12:04:15.274Z</time></trkpt><trkpt lat="42.3411367" lon="14.1245867"><ele>35.0</ele><time>2026-05-03T12:04:16.274Z</time></trkpt><trkpt lat="42.3410917" lon="14.1243333"><ele>35.0</ele><time>2026-05-03T12:04:17.274Z</time></trkpt><trkpt lat="42.341055" lon="14.1240983"><ele>35.0</ele><time>2026-05-03T12:04:18.274Z</time></trkpt><trkpt lat="42.341015" lon="14.123865"><ele>35.0</ele><time>2026-05-03T12:04:19.274Z</time></trkpt><trkpt lat="42.3409774" lon="14.1236338"><ele>35.0</ele><time>2026-05-03T12:04:20.274Z</time></trkpt><trkpt lat="42.3409395" lon="14.1234063"><ele>35.0</ele><time>2026-05-03T12:04:21.275Z</time></trkpt><trkpt lat="42.340905" lon="14.123191"><ele>35.0</ele><time>2026-05-03T12:04:22.274Z</time></trkpt><trkpt lat="42.3408682" lon="14.12299"><ele>35.0</ele><time>2026-05-03T12:04:23.275Z</time></trkpt><trkpt lat="42.3408375" lon="14.1228"><ele>35.0</ele><time>2026-05-03T12:04:24.275Z</time></trkpt><trkpt lat="42.3408085" lon="14.1226091"><ele>35.0</ele><time>2026-05-03T12:04:25.274Z</time></trkpt><trkpt lat="42.3407928" lon="14.1224091"><ele>35.0</ele><time>2026-05-03T12:04:26.274Z</time></trkpt><trkpt lat="42.3407885" lon="14.122206"><ele>34.75</ele><time>2026-05-03T12:04:27.274Z</time></trkpt><trkpt lat="42.3408039" lon="14.1220163"><ele>34.5</ele><time>2026-05-03T12:04:28.274Z</time></trkpt><trkpt lat="42.34083" lon="14.1218541"><ele>34.25</ele><time>2026-05-03T12:04:29.274Z</time></trkpt><trkpt lat="42.3408823" lon="14.1217335"><ele>34.0</ele><time>2026-05-03T12:04:30.274Z</time></trkpt><trkpt lat="42.3409538" lon="14.1216404"><ele>34.0</ele><time>2026-05-03T12:04:31.274Z</time></trkpt><trkpt lat="42.34103" lon="14.121572"><ele>34.0</ele><time>2026-05-03T12:04:32.274Z</time></trkpt><trkpt lat="42.3411024" lon="14.1215148"><ele>34.0</ele><time>2026-05-03T12:04:33.274Z</time></trkpt><trkpt lat="42.3411607" lon="14.1214456"><ele>34.0</ele><time>2026-05-03T12:04:34.275Z</time></trkpt><trkpt lat="42.3412016" lon="14.1213564"><ele>34.0</ele><time>2026-05-03T12:04:35.274Z</time></trkpt><trkpt lat="42.3412173" lon="14.1212368"><ele>34.0</ele><time>2026-05-03T12:04:36.274Z</time></trkpt><trkpt lat="42.3412242" lon="14.1211058"><ele>33.75</ele><time>2026-05-03T12:04:37.274Z</time></trkpt><trkpt lat="42.3412468" lon="14.1209683"><ele>33.5</ele><time>2026-05-03T12:04:38.274Z</time></trkpt><trkpt lat="42.3412951" lon="14.1208232"><ele>33.25</ele><time>2026-05-03T12:04:39.274Z</time></trkpt><trkpt lat="42.3413658" lon="14.1206809"><ele>33.0</ele><time>2026-05-03T12:04:40.274Z</time></trkpt><trkpt lat="42.3414539" lon="14.1205407"><ele>33.0</ele><time>2026-05-03T12:04:41.274Z</time></trkpt><trkpt lat="42.3415395" lon="14.1203878"><ele>33.0</ele><time>2026-05-03T12:04:42.274Z</time></trkpt><trkpt lat="42.3416302" lon="14.1202299"><ele>33.0</ele><time>2026-05-03T12:04:43.274Z</time></trkpt><trkpt lat="42.3417237" lon="14.1200628"><ele>33.0</ele><time>2026-05-03T12:04:44.274Z</time></trkpt><trkpt lat="42.3418264" lon="14.1198845"><ele>32.333333333333336</ele><time>2026-05-03T12:04:45.274Z</time></trkpt><trkpt lat="42.3419296" lon="14.1197085"><ele>31.666666666666668</ele><time>2026-05-03T12:04:46.274Z</time></trkpt><trkpt lat="42.3420227" lon="14.1195354"><ele>31.0</ele><time>2026-05-03T12:04:47.274Z</time></trkpt><trkpt lat="42.3421164" lon="14.1193592"><ele>31.0</ele><time>2026-05-03T12:04:48.274Z</time></trkpt><trkpt lat="42.3422124" lon="14.1191811"><ele>31.0</ele><time>2026-05-03T12:04:49.274Z</time></trkpt><trkpt lat="42.3423037" lon="14.1190051"><ele>31.0</ele><time>2026-05-03T12:04:50.274Z</time></trkpt><trkpt lat="42.3423957" lon="14.1188146"><ele>31.666666666666668</ele><time>2026-05-03T12:04:51.274Z</time></trkpt><trkpt lat="42.3424679" lon="14.1186056"><ele>32.333333333333336</ele><time>2026-05-03T12:04:52.275Z</time></trkpt><trkpt lat="42.3425267" lon="14.11837"><ele>33.0</ele><time>2026-05-03T12:04:53.274Z</time></trkpt><trkpt lat="42.34258" lon="14.1181283"><ele>35.0</ele><time>2026-05-03T12:04:54.274Z</time></trkpt><trkpt lat="42.3426283" lon="14.117885"><ele>37.0</ele><time>2026-05-03T12:04:55.274Z</time></trkpt><trkpt lat="42.3426733" lon="14.1176333"><ele>39.0</ele><time>2026-05-03T12:04:56.274Z</time></trkpt><trkpt lat="42.34271" lon="14.1173933"><ele>41.0</ele><time>2026-05-03T12:04:57.274Z</time></trkpt><trkpt lat="42.3427517" lon="14.1171767"><ele>43.0</ele><time>2026-05-03T12:04:58.274Z</time></trkpt><trkpt lat="42.3427983" lon="14.1169833"><ele>45.0</ele><time>2026-05-03T12:04:59.274Z</time></trkpt><trkpt lat="42.3428517" lon="14.11677"><ele>45.333333333333336</ele><time>2026-05-03T12:05:00.274Z</time></trkpt><trkpt lat="42.3428883" lon="14.116545"><ele>45.66666666666667</ele><time>2026-05-03T12:05:01.274Z</time></trkpt><trkpt lat="42.342915" lon="14.1163233"><ele>46.0</ele><time>2026-05-03T12:05:02.274Z</time></trkpt><trkpt lat="42.34295" lon="14.1161017"><ele>46.0</ele><time>2026-05-03T12:05:03.274Z</time></trkpt><trkpt lat="42.342985" lon="14.1158717"><ele>46.0</ele><time>2026-05-03T12:05:04.274Z</time></trkpt><trkpt lat="42.3430317" lon="14.1156567"><ele>46.0</ele><time>2026-05-03T12:05:05.274Z</time></trkpt><trkpt lat="42.3430633" lon="14.1154233"><ele>46.66666666666667</ele><time>2026-05-03T12:05:06.275Z</time></trkpt><trkpt lat="42.3430933" lon="14.115205"><ele>47.333333333333336</ele><time>2026-05-03T12:05:07.274Z</time></trkpt><trkpt lat="42.34312" lon="14.115"><ele>48.0</ele><time>2026-05-03T12:05:08.274Z</time></trkpt><trkpt lat="42.3431517" lon="14.1147917"><ele>48.0</ele><time>2026-05-03T12:05:09.274Z</time></trkpt><trkpt lat="42.3431817" lon="14.1145983"><ele>48.0</ele><time>2026-05-03T12:05:10.274Z</time></trkpt><trkpt lat="42.34321" lon="14.1144017"><ele>48.0</ele><time>2026-05-03T12:05:11.274Z</time></trkpt><trkpt lat="42.3432317" lon="14.11421"><ele>48.0</ele><time>2026-05-03T12:05:12.274Z</time></trkpt><trkpt lat="42.34326" lon="14.11403"><ele>47.75</ele><time>2026-05-03T12:05:13.274Z</time></trkpt><trkpt lat="42.343285" lon="14.1138583"><ele>47.5</ele><time>2026-05-03T12:05:14.274Z</time></trkpt><trkpt lat="42.3433067" lon="14.113685"><ele>47.25</ele><time>2026-05-03T12:05:15.274Z</time></trkpt><trkpt lat="42.343335" lon="14.11351"><ele>47.0</ele><time>2026-05-03T12:05:16.274Z</time></trkpt><trkpt lat="42.3433533" lon="14.1133283"><ele>47.0</ele><time>2026-05-03T12:05:17.274Z</time></trkpt><trkpt lat="42.3433733" lon="14.11315"><ele>47.0</ele><time>2026-05-03T12:05:18.274Z</time></trkpt><trkpt lat="42.3433933" lon="14.1129617"><ele>47.0</ele><time>2026-05-03T12:05:19.275Z</time></trkpt><trkpt lat="42.3434217" lon="14.11278"><ele>47.0</ele><time>2026-05-03T12:05:20.274Z</time></trkpt><trkpt lat="42.3434417" lon="14.112605"><ele>47.0</ele><time>2026-05-03T12:05:21.274Z</time></trkpt><trkpt lat="42.34346" lon="14.1124367"><ele>47.0</ele><time>2026-05-03T12:05:22.274Z</time></trkpt><trkpt lat="42.34348" lon="14.1122733"><ele>47.0</ele><time>2026-05-03T12:05:23.274Z</time></trkpt><trkpt lat="42.3435033" lon="14.1121217"><ele>47.0</ele><time>2026-05-03T12:05:24.274Z</time></trkpt><trkpt lat="42.3435267" lon="14.1119717"><ele>47.0</ele><time>2026-05-03T12:05:25.274Z</time></trkpt><trkpt lat="42.3435517" lon="14.1118267"><ele>47.0</ele><time>2026-05-03T12:05:26.275Z</time></trkpt><trkpt lat="42.34357" lon="14.111695"><ele>47.0</ele><time>2026-05-03T12:05:27.274Z</time></trkpt><trkpt lat="42.34359" lon="14.1115867"><ele>47.0</ele><time>2026-05-03T12:05:28.274Z</time></trkpt><trkpt lat="42.3436217" lon="14.1114983"><ele>47.0</ele><time>2026-05-03T12:05:29.274Z</time></trkpt><trkpt lat="42.3437117" lon="14.1114133"><ele>47.2</ele><time>2026-05-03T12:05:31.274Z</time></trkpt><trkpt lat="42.3438317" lon="14.1114683"><ele>47.400000000000006</ele><time>2026-05-03T12:05:33.274Z</time></trkpt><trkpt lat="42.3439083" lon="14.1115317"><ele>47.599999999999994</ele><time>2026-05-03T12:05:34.274Z</time></trkpt><trkpt lat="42.343995" lon="14.1116017"><ele>47.8</ele><time>2026-05-03T12:05:35.274Z</time></trkpt><trkpt lat="42.3441017" lon="14.111675"><ele>48.0</ele><time>2026-05-03T12:05:36.274Z</time></trkpt><trkpt lat="42.3442217" lon="14.1117633"><ele>48.0</ele><time>2026-05-03T12:05:37.274Z</time></trkpt><trkpt lat="42.3443483" lon="14.11185"><ele>48.0</ele><time>2026-05-03T12:05:38.275Z</time></trkpt><trkpt lat="42.3444817" lon="14.1119317"><ele>48.0</ele><time>2026-05-03T12:05:39.274Z</time></trkpt><trkpt lat="42.3446217" lon="14.1120317"><ele>48.0</ele><time>2026-05-03T12:05:40.274Z</time></trkpt><trkpt lat="42.3447617" lon="14.1121317"><ele>47.0</ele><time>2026-05-03T12:05:41.274Z</time></trkpt><trkpt lat="42.34491" lon="14.112215"><ele>46.0</ele><time>2026-05-03T12:05:42.274Z</time></trkpt><trkpt lat="42.3450633" lon="14.1123033"><ele>45.0</ele><time>2026-05-03T12:05:43.275Z</time></trkpt><trkpt lat="42.3452233" lon="14.1123667"><ele>45.333333333333336</ele><time>2026-05-03T12:05:44.274Z</time></trkpt><trkpt lat="42.3453767" lon="14.1124267"><ele>45.66666666666667</ele><time>2026-05-03T12:05:45.274Z</time></trkpt><trkpt lat="42.34554" lon="14.1124933"><ele>46.0</ele><time>2026-05-03T12:05:46.274Z</time></trkpt><trkpt lat="42.3457033" lon="14.1125433"><ele>46.0</ele><time>2026-05-03T12:05:47.274Z</time></trkpt><trkpt lat="42.3458683" lon="14.112585"><ele>46.0</ele><time>2026-05-03T12:05:48.275Z</time></trkpt><trkpt lat="42.3460433" lon="14.1126383"><ele>46.0</ele><time>2026-05-03T12:05:49.274Z</time></trkpt><trkpt lat="42.3462183" lon="14.1127067"><ele>45.333333333333336</ele><time>2026-05-03T12:05:50.274Z</time></trkpt><trkpt lat="42.34639" lon="14.1127817"><ele>44.666666666666664</ele><time>2026-05-03T12:05:51.274Z</time></trkpt><trkpt lat="42.34656" lon="14.1128633"><ele>44.0</ele><time>2026-05-03T12:05:52.274Z</time></trkpt><trkpt lat="42.3467283" lon="14.1129417"><ele>44.0</ele><time>2026-05-03T12:05:53.274Z</time></trkpt><trkpt lat="42.3468983" lon="14.1130317"><ele>44.0</ele><time>2026-05-03T12:05:54.275Z</time></trkpt><trkpt lat="42.3470817" lon="14.1131133"><ele>44.0</ele><time>2026-05-03T12:05:55.274Z</time></trkpt><trkpt lat="42.3472483" lon="14.1131917"><ele>44.25</ele><time>2026-05-03T12:05:56.274Z</time></trkpt><trkpt lat="42.347395" lon="14.113265"><ele>44.5</ele><time>2026-05-03T12:05:57.275Z</time></trkpt><trkpt lat="42.3475333" lon="14.1133383"><ele>44.75</ele><time>2026-05-03T12:05:58.274Z</time></trkpt><trkpt lat="42.3476667" lon="14.1134067"><ele>45.0</ele><time>2026-05-03T12:05:59.274Z</time></trkpt><trkpt lat="42.3477967" lon="14.113475"><ele>45.0</ele><time>2026-05-03T12:06:00.274Z</time></trkpt><trkpt lat="42.347925" lon="14.1135283"><ele>45.0</ele><time>2026-05-03T12:06:01.274Z</time></trkpt><trkpt lat="42.3480533" lon="14.113585"><ele>45.0</ele><time>2026-05-03T12:06:02.274Z</time></trkpt><trkpt lat="42.34818" lon="14.1136533"><ele>45.0</ele><time>2026-05-03T12:06:03.274Z</time></trkpt><trkpt lat="42.3482983" lon="14.1136667"><ele>45.0</ele><time>2026-05-03T12:06:04.274Z</time></trkpt><trkpt lat="42.3484183" lon="14.113645"><ele>45.0</ele><time>2026-05-03T12:06:05.274Z</time></trkpt><trkpt lat="42.3485383" lon="14.1135883"><ele>45.0</ele><time>2026-05-03T12:06:06.274Z</time></trkpt><trkpt lat="42.3486683" lon="14.11351"><ele>45.0</ele><time>2026-05-03T12:06:07.274Z</time></trkpt><trkpt lat="42.3488067" lon="14.113415"><ele>44.0</ele><time>2026-05-03T12:06:08.274Z</time></trkpt><trkpt lat="42.3489467" lon="14.113325"><ele>43.0</ele><time>2026-05-03T12:06:09.274Z</time></trkpt><trkpt lat="42.3490867" lon="14.1132333"><ele>42.0</ele><time>2026-05-03T12:06:10.274Z</time></trkpt><trkpt lat="42.3492167" lon="14.1131517"><ele>41.75</ele><time>2026-05-03T12:06:11.274Z</time></trkpt><trkpt lat="42.349345" lon="14.1130717"><ele>41.5</ele><time>2026-05-03T12:06:12.274Z</time></trkpt><trkpt lat="42.3494583" lon="14.11299"><ele>41.25</ele><time>2026-05-03T12:06:13.275Z</time></trkpt><trkpt lat="42.3495717" lon="14.112915"><ele>41.0</ele><time>2026-05-03T12:06:14.274Z</time></trkpt><trkpt lat="42.3496767" lon="14.11285"><ele>41.75</ele><time>2026-05-03T12:06:15.275Z</time></trkpt><trkpt lat="42.34978" lon="14.112775"><ele>42.5</ele><time>2026-05-03T12:06:16.274Z</time></trkpt><trkpt lat="42.349885" lon="14.1127083"><ele>43.25</ele><time>2026-05-03T12:06:17.274Z</time></trkpt><trkpt lat="42.3500067" lon="14.11265"><ele>44.0</ele><time>2026-05-03T12:06:18.274Z</time></trkpt><trkpt lat="42.350135" lon="14.112595"><ele>44.0</ele><time>2026-05-03T12:06:19.274Z</time></trkpt><trkpt lat="42.3502683" lon="14.11255"><ele>44.0</ele><time>2026-05-03T12:06:20.274Z</time></trkpt><trkpt lat="42.3504017" lon="14.1125183"><ele>44.0</ele><time>2026-05-03T12:06:21.274Z</time></trkpt><trkpt lat="42.3505483" lon="14.112505"><ele>44.0</ele><time>2026-05-03T12:06:22.274Z</time></trkpt><trkpt lat="42.3506967" lon="14.112525"><ele>44.0</ele><time>2026-05-03T12:06:23.275Z</time></trkpt><trkpt lat="42.3508467" lon="14.1125567"><ele>44.0</ele><time>2026-05-03T12:06:24.274Z</time></trkpt><trkpt lat="42.3510017" lon="14.1126017"><ele>44.0</ele><time>2026-05-03T12:06:25.274Z</time></trkpt><trkpt lat="42.3511517" lon="14.11264"><ele>44.0</ele><time>2026-05-03T12:06:26.274Z</time></trkpt><trkpt lat="42.3512933" lon="14.1126833"><ele>44.0</ele><time>2026-05-03T12:06:27.274Z</time></trkpt><trkpt lat="42.3514333" lon="14.1127317"><ele>44.0</ele><time>2026-05-03T12:06:28.274Z</time></trkpt><trkpt lat="42.3515767" lon="14.11279"><ele>44.0</ele><time>2026-05-03T12:06:29.274Z</time></trkpt><trkpt lat="42.3517183" lon="14.1128533"><ele>42.666666666666664</ele><time>2026-05-03T12:06:30.274Z</time></trkpt><trkpt lat="42.3518683" lon="14.1129117"><ele>41.333333333333336</ele><time>2026-05-03T12:06:31.274Z</time></trkpt><trkpt lat="42.3520183" lon="14.1129767"><ele>40.0</ele><time>2026-05-03T12:06:32.274Z</time></trkpt><trkpt lat="42.3521717" lon="14.1130433"><ele>38.333333333333336</ele><time>2026-05-03T12:06:33.274Z</time></trkpt><trkpt lat="42.35233" lon="14.1131117"><ele>36.666666666666664</ele><time>2026-05-03T12:06:34.274Z</time></trkpt><trkpt lat="42.3524867" lon="14.1131667"><ele>35.0</ele><time>2026-05-03T12:06:35.274Z</time></trkpt><trkpt lat="42.3526467" lon="14.11323"><ele>35.0</ele><time>2026-05-03T12:06:36.275Z</time></trkpt><trkpt lat="42.3528017" lon="14.113285"><ele>35.0</ele><time>2026-05-03T12:06:37.275Z</time></trkpt><trkpt lat="42.3529567" lon="14.113355"><ele>35.0</ele><time>2026-05-03T12:06:38.274Z</time></trkpt><trkpt lat="42.3531067" lon="14.113415"><ele>35.0</ele><time>2026-05-03T12:06:39.274Z</time></trkpt><trkpt lat="42.3532667" lon="14.1134783"><ele>35.0</ele><time>2026-05-03T12:06:40.275Z</time></trkpt><trkpt lat="42.3534483" lon="14.1135483"><ele>35.0</ele><time>2026-05-03T12:06:41.274Z</time></trkpt><trkpt lat="42.3536583" lon="14.1136167"><ele>35.0</ele><time>2026-05-03T12:06:42.274Z</time></trkpt><trkpt lat="42.3538683" lon="14.1137"><ele>35.0</ele><time>2026-05-03T12:06:43.274Z</time></trkpt><trkpt lat="42.3540733" lon="14.1137817"><ele>35.0</ele><time>2026-05-03T12:06:44.274Z</time></trkpt><trkpt lat="42.3542733" lon="14.1138617"><ele>35.33333333333333</ele><time>2026-05-03T12:06:45.274Z</time></trkpt><trkpt lat="42.3544533" lon="14.1139367"><ele>35.666666666666664</ele><time>2026-05-03T12:06:46.274Z</time></trkpt><trkpt lat="42.3546367" lon="14.11401"><ele>36.0</ele><time>2026-05-03T12:06:47.275Z</time></trkpt><trkpt lat="42.3548217" lon="14.11408"><ele>36.333333333333336</ele><time>2026-05-03T12:06:48.275Z</time></trkpt><trkpt lat="42.354995" lon="14.114155"><ele>36.66666666666667</ele><time>2026-05-03T12:06:49.274Z</time></trkpt><trkpt lat="42.3551717" lon="14.114235"><ele>37.0</ele><time>2026-05-03T12:06:50.274Z</time></trkpt><trkpt lat="42.355355" lon="14.1143117"><ele>37.0</ele><time>2026-05-03T12:06:51.274Z</time></trkpt><trkpt lat="42.3555333" lon="14.1143967"><ele>37.0</ele><time>2026-05-03T12:06:52.274Z</time></trkpt><trkpt lat="42.3557183" lon="14.11446"><ele>37.0</ele><time>2026-05-03T12:06:53.274Z</time></trkpt><trkpt lat="42.3559033" lon="14.1145483"><ele>40.333333333333336</ele><time>2026-05-03T12:06:54.274Z</time></trkpt><trkpt lat="42.3560717" lon="14.114625"><ele>43.666666666666664</ele><time>2026-05-03T12:06:55.274Z</time></trkpt><trkpt lat="42.35624" lon="14.11469"><ele>47.0</ele><time>2026-05-03T12:06:56.274Z</time></trkpt><trkpt lat="42.35642" lon="14.114765"><ele>47.666666666666664</ele><time>2026-05-03T12:06:57.275Z</time></trkpt><trkpt lat="42.356615" lon="14.11483"><ele>48.33333333333333</ele><time>2026-05-03T12:06:58.274Z</time></trkpt><trkpt lat="42.3568083" lon="14.1149033"><ele>49.0</ele><time>2026-05-03T12:06:59.274Z</time></trkpt><trkpt lat="42.3569933" lon="14.1149817"><ele>46.33333333333333</ele><time>2026-05-03T12:07:00.274Z</time></trkpt><trkpt lat="42.357185" lon="14.1150667"><ele>43.666666666666664</ele><time>2026-05-03T12:07:01.275Z</time></trkpt><trkpt lat="42.3573817" lon="14.1151467"><ele>41.0</ele><time>2026-05-03T12:07:02.275Z</time></trkpt><trkpt lat="42.3575817" lon="14.1152167"><ele>41.0</ele><time>2026-05-03T12:07:03.274Z</time></trkpt><trkpt lat="42.35778" lon="14.1152883"><ele>41.0</ele><time>2026-05-03T12:07:04.274Z</time></trkpt><trkpt lat="42.3579833" lon="14.11537"><ele>41.0</ele><time>2026-05-03T12:07:05.275Z</time></trkpt><trkpt lat="42.3581833" lon="14.1154567"><ele>41.0</ele><time>2026-05-03T12:07:06.274Z</time></trkpt><trkpt lat="42.3583867" lon="14.11554"><ele>41.0</ele><time>2026-05-03T12:07:07.274Z</time></trkpt><trkpt lat="42.3585933" lon="14.115625"><ele>41.0</ele><time>2026-05-03T12:07:08.274Z</time></trkpt><trkpt lat="42.3587967" lon="14.1157133"><ele>38.5</ele><time>2026-05-03T12:07:09.274Z</time></trkpt><trkpt lat="42.3590117" lon="14.1158117"><ele>36.0</ele><time>2026-05-03T12:07:10.274Z</time></trkpt><trkpt lat="42.3592283" lon="14.1159033"><ele>36.0</ele><time>2026-05-03T12:07:11.274Z</time></trkpt><trkpt lat="42.3594467" lon="14.115995"><ele>36.0</ele><time>2026-05-03T12:07:12.274Z</time></trkpt><trkpt lat="42.3596717" lon="14.1160867"><ele>36.5</ele><time>2026-05-03T12:07:13.274Z</time></trkpt><trkpt lat="42.3598917" lon="14.11618"><ele>37.0</ele><time>2026-05-03T12:07:14.275Z</time></trkpt><trkpt lat="42.3601117" lon="14.1162833"><ele>37.0</ele><time>2026-05-03T12:07:15.274Z</time></trkpt><trkpt lat="42.3603383" lon="14.1163817"><ele>37.0</ele><time>2026-05-03T12:07:16.274Z</time></trkpt><trkpt lat="42.3605667" lon="14.116485"><ele>33.5</ele><time>2026-05-03T12:07:17.274Z</time></trkpt><trkpt lat="42.3607967" lon="14.1165867"><ele>30.0</ele><time>2026-05-03T12:07:18.274Z</time></trkpt><trkpt lat="42.3610183" lon="14.1166917"><ele>30.0</ele><time>2026-05-03T12:07:19.274Z</time></trkpt><trkpt lat="42.3612467" lon="14.1167883"><ele>30.0</ele><time>2026-05-03T12:07:20.274Z</time></trkpt><trkpt lat="42.361475" lon="14.116895"><ele>33.0</ele><time>2026-05-03T12:07:21.274Z</time></trkpt><trkpt lat="42.3617017" lon="14.117005"><ele>36.0</ele><time>2026-05-03T12:07:22.274Z</time></trkpt><trkpt lat="42.3619183" lon="14.1171133"><ele>36.0</ele><time>2026-05-03T12:07:23.274Z</time></trkpt><trkpt lat="42.3621433" lon="14.117215"><ele>36.0</ele><time>2026-05-03T12:07:24.275Z</time></trkpt><trkpt lat="42.3623567" lon="14.1173133"><ele>33.666666666666664</ele><time>2026-05-03T12:07:25.274Z</time></trkpt><trkpt lat="42.3625583" lon="14.1173883"><ele>31.333333333333332</ele><time>2026-05-03T12:07:26.274Z</time></trkpt><trkpt lat="42.3627617" lon="14.1174467"><ele>29.0</ele><time>2026-05-03T12:07:27.274Z</time></trkpt><trkpt lat="42.36295" lon="14.1174717"><ele>29.666666666666664</ele><time>2026-05-03T12:07:28.274Z</time></trkpt><trkpt lat="42.3631383" lon="14.1174767"><ele>30.333333333333336</ele><time>2026-05-03T12:07:29.274Z</time></trkpt><trkpt lat="42.3633267" lon="14.1174867"><ele>31.0</ele><time>2026-05-03T12:07:30.274Z</time></trkpt><trkpt lat="42.363515" lon="14.1174917"><ele>31.0</ele><time>2026-05-03T12:07:31.274Z</time></trkpt><trkpt lat="42.363705" lon="14.1174833"><ele>31.0</ele><time>2026-05-03T12:07:32.274Z</time></trkpt><trkpt lat="42.3638917" lon="14.1174883"><ele>31.0</ele><time>2026-05-03T12:07:33.275Z</time></trkpt><trkpt lat="42.364085" lon="14.1175083"><ele>31.666666666666668</ele><time>2026-05-03T12:07:34.274Z</time></trkpt><trkpt lat="42.36426" lon="14.117545"><ele>32.333333333333336</ele><time>2026-05-03T12:07:35.274Z</time></trkpt><trkpt lat="42.3644367" lon="14.117615"><ele>33.0</ele><time>2026-05-03T12:07:36.274Z</time></trkpt><trkpt lat="42.36461" lon="14.1177067"><ele>32.666666666666664</ele><time>2026-05-03T12:07:37.274Z</time></trkpt><trkpt lat="42.3647883" lon="14.1178167"><ele>32.33333333333333</ele><time>2026-05-03T12:07:38.274Z</time></trkpt><trkpt lat="42.3649583" lon="14.1179367"><ele>32.0</ele><time>2026-05-03T12:07:39.274Z</time></trkpt><trkpt lat="42.3651417" lon="14.1180467"><ele>32.0</ele><time>2026-05-03T12:07:40.274Z</time></trkpt><trkpt lat="42.3653167" lon="14.1181517"><ele>32.0</ele><time>2026-05-03T12:07:41.274Z</time></trkpt><trkpt lat="42.3654833" lon="14.118265"><ele>32.0</ele><time>2026-05-03T12:07:42.274Z</time></trkpt><trkpt lat="42.3656567" lon="14.118375"><ele>30.666666666666664</ele><time>2026-05-03T12:07:43.274Z</time></trkpt><trkpt lat="42.3658283" lon="14.1184917"><ele>29.333333333333336</ele><time>2026-05-03T12:07:44.274Z</time></trkpt><trkpt lat="42.3659933" lon="14.1186017"><ele>28.0</ele><time>2026-05-03T12:07:45.275Z</time></trkpt><trkpt lat="42.3661617" lon="14.1187083"><ele>28.0</ele><time>2026-05-03T12:07:46.274Z</time></trkpt><trkpt lat="42.3663283" lon="14.1188117"><ele>28.0</ele><time>2026-05-03T12:07:47.274Z</time></trkpt><trkpt lat="42.36649" lon="14.118935"><ele>28.0</ele><time>2026-05-03T12:07:48.274Z</time></trkpt><trkpt lat="42.366655" lon="14.1190483"><ele>27.666666666666668</ele><time>2026-05-03T12:07:49.274Z</time></trkpt><trkpt lat="42.366825" lon="14.11916"><ele>27.333333333333336</ele><time>2026-05-03T12:07:50.274Z</time></trkpt><trkpt lat="42.36699" lon="14.1192933"><ele>27.0</ele><time>2026-05-03T12:07:51.275Z</time></trkpt><trkpt lat="42.3671567" lon="14.119415"><ele>27.333333333333336</ele><time>2026-05-03T12:07:52.274Z</time></trkpt><trkpt lat="42.3673317" lon="14.1195433"><ele>27.666666666666668</ele><time>2026-05-03T12:07:53.274Z</time></trkpt><trkpt lat="42.36751" lon="14.1196717"><ele>28.0</ele><time>2026-05-03T12:07:54.274Z</time></trkpt><trkpt lat="42.3676833" lon="14.1197867"><ele>28.0</ele><time>2026-05-03T12:07:55.274Z</time></trkpt><trkpt lat="42.367855" lon="14.1199117"><ele>28.0</ele><time>2026-05-03T12:07:56.274Z</time></trkpt><trkpt lat="42.36802" lon="14.1200183"><ele>28.0</ele><time>2026-05-03T12:07:57.274Z</time></trkpt><trkpt lat="42.3681867" lon="14.1201133"><ele>28.333333333333336</ele><time>2026-05-03T12:07:58.274Z</time></trkpt><trkpt lat="42.36836" lon="14.12019"><ele>28.666666666666664</ele><time>2026-05-03T12:07:59.274Z</time></trkpt><trkpt lat="42.3685233" lon="14.1202483"><ele>29.0</ele><time>2026-05-03T12:08:00.274Z</time></trkpt><trkpt lat="42.3687017" lon="14.120285"><ele>31.666666666666664</ele><time>2026-05-03T12:08:01.274Z</time></trkpt><trkpt lat="42.3688917" lon="14.12031"><ele>34.333333333333336</ele><time>2026-05-03T12:08:02.274Z</time></trkpt><trkpt lat="42.369085" lon="14.1203383"><ele>37.0</ele><time>2026-05-03T12:08:03.274Z</time></trkpt><trkpt lat="42.369275" lon="14.120365"><ele>37.0</ele><time>2026-05-03T12:08:04.274Z</time></trkpt><trkpt lat="42.3694733" lon="14.12039"><ele>37.0</ele><time>2026-05-03T12:08:05.274Z</time></trkpt><trkpt lat="42.3696783" lon="14.120415"><ele>37.0</ele><time>2026-05-03T12:08:06.274Z</time></trkpt><trkpt lat="42.3698733" lon="14.1204383"><ele>37.0</ele><time>2026-05-03T12:08:07.274Z</time></trkpt><trkpt lat="42.37008" lon="14.120465"><ele>37.0</ele><time>2026-05-03T12:08:08.274Z</time></trkpt><trkpt lat="42.3702767" lon="14.12049"><ele>37.0</ele><time>2026-05-03T12:08:09.274Z</time></trkpt><trkpt lat="42.3704667" lon="14.1205183"><ele>37.333333333333336</ele><time>2026-05-03T12:08:10.274Z</time></trkpt><trkpt lat="42.37066" lon="14.1205617"><ele>37.666666666666664</ele><time>2026-05-03T12:08:11.275Z</time></trkpt><trkpt lat="42.3708467" lon="14.1206067"><ele>38.0</ele><time>2026-05-03T12:08:12.274Z</time></trkpt><trkpt lat="42.3710333" lon="14.1206567"><ele>38.0</ele><time>2026-05-03T12:08:13.274Z</time></trkpt><trkpt lat="42.37122" lon="14.12072"><ele>38.0</ele><time>2026-05-03T12:08:14.274Z</time></trkpt><trkpt lat="42.3713967" lon="14.1208"><ele>38.0</ele><time>2026-05-03T12:08:15.274Z</time></trkpt><trkpt lat="42.371575" lon="14.1208717"><ele>36.33333333333333</ele><time>2026-05-03T12:08:16.274Z</time></trkpt><trkpt lat="42.3717433" lon="14.1209433"><ele>34.666666666666664</ele><time>2026-05-03T12:08:17.274Z</time></trkpt><trkpt lat="42.3719058" lon="14.1210235"><ele>33.0</ele><time>2026-05-03T12:08:18.274Z</time></trkpt><trkpt lat="42.3720678" lon="14.1211137"><ele>36.333333333333336</ele><time>2026-05-03T12:08:19.275Z</time></trkpt><trkpt lat="42.3722147" lon="14.1212106"><ele>39.66666666666667</ele><time>2026-05-03T12:08:20.274Z</time></trkpt><trkpt lat="42.3723513" lon="14.121319"><ele>43.0</ele><time>2026-05-03T12:08:21.274Z</time></trkpt><trkpt lat="42.3724943" lon="14.1214324"><ele>43.0</ele><time>2026-05-03T12:08:22.274Z</time></trkpt><trkpt lat="42.3726345" lon="14.1215434"><ele>43.0</ele><time>2026-05-03T12:08:23.274Z</time></trkpt><trkpt lat="42.3727776" lon="14.1216569"><ele>43.0</ele><time>2026-05-03T12:08:24.274Z</time></trkpt><trkpt lat="42.3729196" lon="14.1217702"><ele>42.333333333333336</ele><time>2026-05-03T12:08:25.274Z</time></trkpt><trkpt lat="42.3730615" lon="14.1218849"><ele>41.666666666666664</ele><time>2026-05-03T12:08:26.274Z</time></trkpt><trkpt lat="42.3732006" lon="14.1219949"><ele>41.0</ele><time>2026-05-03T12:08:27.274Z</time></trkpt><trkpt lat="42.373328" lon="14.1220998"><ele>41.0</ele><time>2026-05-03T12:08:28.274Z</time></trkpt><trkpt lat="42.3734506" lon="14.1222009"><ele>41.0</ele><time>2026-05-03T12:08:29.274Z</time></trkpt><trkpt lat="42.3735672" lon="14.1222874"><ele>41.0</ele><time>2026-05-03T12:08:30.274Z</time></trkpt><trkpt lat="42.3736756" lon="14.1223606"><ele>41.0</ele><time>2026-05-03T12:08:31.274Z</time></trkpt><trkpt lat="42.3737751" lon="14.1224288"><ele>41.0</ele><time>2026-05-03T12:08:32.274Z</time></trkpt><trkpt lat="42.3738652" lon="14.1224977"><ele>41.0</ele><time>2026-05-03T12:08:33.274Z</time></trkpt><trkpt lat="42.3739438" lon="14.1225577"><ele>41.0</ele><time>2026-05-03T12:08:34.274Z</time></trkpt><trkpt lat="42.3740131" lon="14.1226172"><ele>41.0</ele><time>2026-05-03T12:08:35.274Z</time></trkpt><trkpt lat="42.3740721" lon="14.1226687"><ele>41.0</ele><time>2026-05-03T12:08:36.274Z</time></trkpt><trkpt lat="42.3741259" lon="14.1227169"><ele>41.0</ele><time>2026-05-03T12:08:37.274Z</time></trkpt><trkpt lat="42.3741937" lon="14.1227623"><ele>41.0</ele><time>2026-05-03T12:08:38.275Z</time></trkpt><trkpt lat="42.3742741" lon="14.1228274"><ele>41.0</ele><time>2026-05-03T12:08:39.274Z</time></trkpt><trkpt lat="42.3743811" lon="14.1229104"><ele>41.0</ele><time>2026-05-03T12:08:40.275Z</time></trkpt><trkpt lat="42.3745141" lon="14.1230106"><ele>41.0</ele><time>2026-05-03T12:08:41.275Z</time></trkpt><trkpt lat="42.374666" lon="14.1231258"><ele>40.33333333333333</ele><time>2026-05-03T12:08:42.274Z</time></trkpt><trkpt lat="42.3748239" lon="14.1232517"><ele>39.666666666666664</ele><time>2026-05-03T12:08:43.274Z</time></trkpt><trkpt lat="42.3749767" lon="14.123381"><ele>39.0</ele><time>2026-05-03T12:08:44.274Z</time></trkpt><trkpt lat="42.3751197" lon="14.1235055"><ele>39.0</ele><time>2026-05-03T12:08:45.274Z</time></trkpt><trkpt lat="42.375252" lon="14.123616"><ele>39.0</ele><time>2026-05-03T12:08:46.274Z</time></trkpt><trkpt lat="42.3753899" lon="14.1237196"><ele>39.0</ele><time>2026-05-03T12:08:47.274Z</time></trkpt><trkpt lat="42.3755329" lon="14.1238182"><ele>40.333333333333336</ele><time>2026-05-03T12:08:48.274Z</time></trkpt><trkpt lat="42.375681" lon="14.1239109"><ele>41.66666666666667</ele><time>2026-05-03T12:08:49.274Z</time></trkpt><trkpt lat="42.3758197" lon="14.1239795"><ele>43.0</ele><time>2026-05-03T12:08:50.274Z</time></trkpt><trkpt lat="42.3759557" lon="14.1240305"><ele>43.0</ele><time>2026-05-03T12:08:51.274Z</time></trkpt><trkpt lat="42.3760738" lon="14.1240627"><ele>43.0</ele><time>2026-05-03T12:08:52.274Z</time></trkpt><trkpt lat="42.376169" lon="14.1240979"><ele>43.0</ele><time>2026-05-03T12:08:53.274Z</time></trkpt><trkpt lat="42.3762492" lon="14.1241493"><ele>43.0</ele><time>2026-05-03T12:08:54.275Z</time></trkpt><trkpt lat="42.3763143" lon="14.1242281"><ele>43.0</ele><time>2026-05-03T12:08:55.274Z</time></trkpt><trkpt lat="42.3763681" lon="14.1243236"><ele>42.0</ele><time>2026-05-03T12:08:56.273Z</time></trkpt><trkpt lat="42.3764178" lon="14.1244183"><ele>41.0</ele><time>2026-05-03T12:08:57.275Z</time></trkpt><trkpt lat="42.3764702" lon="14.124492"><ele>40.0</ele><time>2026-05-03T12:08:58.274Z</time></trkpt><trkpt lat="42.3765315" lon="14.124532"><ele>39.0</ele><time>2026-05-03T12:08:59.274Z</time></trkpt><trkpt lat="42.3766436" lon="14.1244841"><ele>38.0</ele><time>2026-05-03T12:09:01.274Z</time></trkpt><trkpt lat="42.3766946" lon="14.1244038"><ele>37.0</ele><time>2026-05-03T12:09:02.274Z</time></trkpt><trkpt lat="42.3767476" lon="14.1242861"><ele>37.0</ele><time>2026-05-03T12:09:03.274Z</time></trkpt><trkpt lat="42.3768191" lon="14.1241453"><ele>37.0</ele><time>2026-05-03T12:09:04.274Z</time></trkpt><trkpt lat="42.3769065" lon="14.1239949"><ele>37.0</ele><time>2026-05-03T12:09:05.274Z</time></trkpt><trkpt lat="42.3769966" lon="14.1238388"><ele>37.0</ele><time>2026-05-03T12:09:06.274Z</time></trkpt><trkpt lat="42.3770783" lon="14.1236883"><ele>38.75</ele><time>2026-05-03T12:09:07.274Z</time></trkpt><trkpt lat="42.3771615" lon="14.1235528"><ele>40.5</ele><time>2026-05-03T12:09:08.274Z</time></trkpt><trkpt lat="42.3772584" lon="14.1234606"><ele>42.25</ele><time>2026-05-03T12:09:09.274Z</time></trkpt><trkpt lat="42.3773679" lon="14.1234012"><ele>44.0</ele><time>2026-05-03T12:09:10.274Z</time></trkpt><trkpt lat="42.3774867" lon="14.1233859"><ele>44.5</ele><time>2026-05-03T12:09:11.274Z</time></trkpt><trkpt lat="42.3776126" lon="14.1234039"><ele>45.0</ele><time>2026-05-03T12:09:12.274Z</time></trkpt><trkpt lat="42.3777511" lon="14.1234305"><ele>45.5</ele><time>2026-05-03T12:09:13.274Z</time></trkpt><trkpt lat="42.3779004" lon="14.1234616"><ele>46.0</ele><time>2026-05-03T12:09:14.274Z</time></trkpt><trkpt lat="42.3780638" lon="14.123495"><ele>49.0</ele><time>2026-05-03T12:09:15.274Z</time></trkpt><trkpt lat="42.3782369" lon="14.1235209"><ele>52.0</ele><time>2026-05-03T12:09:16.274Z</time></trkpt><trkpt lat="42.3784149" lon="14.1235463"><ele>55.0</ele><time>2026-05-03T12:09:17.274Z</time></trkpt><trkpt lat="42.3786025" lon="14.1235767"><ele>55.0</ele><time>2026-05-03T12:09:18.274Z</time></trkpt><trkpt lat="42.3787874" lon="14.123611"><ele>55.0</ele><time>2026-05-03T12:09:19.274Z</time></trkpt><trkpt lat="42.3789587" lon="14.1236378"><ele>55.0</ele><time>2026-05-03T12:09:20.274Z</time></trkpt><trkpt lat="42.3791167" lon="14.1236705"><ele>56.0</ele><time>2026-05-03T12:09:21.274Z</time></trkpt><trkpt lat="42.3792524" lon="14.1237229"><ele>57.0</ele><time>2026-05-03T12:09:22.275Z</time></trkpt><trkpt lat="42.3793794" lon="14.1237927"><ele>58.0</ele><time>2026-05-03T12:09:23.274Z</time></trkpt><trkpt lat="42.3794957" lon="14.1238757"><ele>59.0</ele><time>2026-05-03T12:09:24.274Z</time></trkpt><trkpt lat="42.379595" lon="14.1239833"><ele>57.25</ele><time>2026-05-03T12:09:25.274Z</time></trkpt><trkpt lat="42.3797033" lon="14.1241017"><ele>55.5</ele><time>2026-05-03T12:09:26.274Z</time></trkpt><trkpt lat="42.3798217" lon="14.12421"><ele>53.75</ele><time>2026-05-03T12:09:27.274Z</time></trkpt><trkpt lat="42.3799667" lon="14.1243183"><ele>52.0</ele><time>2026-05-03T12:09:28.274Z</time></trkpt><trkpt lat="42.380125" lon="14.12444"><ele>52.0</ele><time>2026-05-03T12:09:29.274Z</time></trkpt><trkpt lat="42.38029" lon="14.1245633"><ele>52.0</ele><time>2026-05-03T12:09:30.274Z</time></trkpt><trkpt lat="42.3804667" lon="14.1246933"><ele>52.0</ele><time>2026-05-03T12:09:31.274Z</time></trkpt><trkpt lat="42.3806433" lon="14.1248217"><ele>50.666666666666664</ele><time>2026-05-03T12:09:32.274Z</time></trkpt><trkpt lat="42.380825" lon="14.1249517"><ele>49.33333333333333</ele><time>2026-05-03T12:09:33.274Z</time></trkpt><trkpt lat="42.3810067" lon="14.12508"><ele>48.0</ele><time>2026-05-03T12:09:34.274Z</time></trkpt><trkpt lat="42.38119" lon="14.1252067"><ele>49.66666666666667</ele><time>2026-05-03T12:09:35.274Z</time></trkpt><trkpt lat="42.3813767" lon="14.1253567"><ele>51.333333333333336</ele><time>2026-05-03T12:09:36.274Z</time></trkpt><trkpt lat="42.3815667" lon="14.1255033"><ele>53.0</ele><time>2026-05-03T12:09:37.275Z</time></trkpt><trkpt lat="42.3817517" lon="14.125645"><ele>53.0</ele><time>2026-05-03T12:09:38.274Z</time></trkpt><trkpt lat="42.38192" lon="14.1257867"><ele>53.0</ele><time>2026-05-03T12:09:39.274Z</time></trkpt><trkpt lat="42.3820783" lon="14.1259267"><ele>53.0</ele><time>2026-05-03T12:09:40.274Z</time></trkpt><trkpt lat="42.3822183" lon="14.1260717"><ele>53.0</ele><time>2026-05-03T12:09:41.274Z</time></trkpt><trkpt lat="42.3823533" lon="14.126195"><ele>53.0</ele><time>2026-05-03T12:09:42.274Z</time></trkpt><trkpt lat="42.3824967" lon="14.1262833"><ele>53.0</ele><time>2026-05-03T12:09:43.274Z</time></trkpt><trkpt lat="42.3826467" lon="14.1263417"><ele>53.0</ele><time>2026-05-03T12:09:44.275Z</time></trkpt><trkpt lat="42.3827983" lon="14.126385"><ele>53.0</ele><time>2026-05-03T12:09:45.275Z</time></trkpt><trkpt lat="42.3829533" lon="14.1264017"><ele>53.0</ele><time>2026-05-03T12:09:46.274Z</time></trkpt><trkpt lat="42.38309" lon="14.1264033"><ele>53.0</ele><time>2026-05-03T12:09:47.274Z</time></trkpt><trkpt lat="42.3832233" lon="14.1264"><ele>53.0</ele><time>2026-05-03T12:09:48.274Z</time></trkpt><trkpt lat="42.3833533" lon="14.1264133"><ele>53.0</ele><time>2026-05-03T12:09:49.274Z</time></trkpt><trkpt lat="42.383485" lon="14.1264583"><ele>53.0</ele><time>2026-05-03T12:09:50.274Z</time></trkpt><trkpt lat="42.3836183" lon="14.12653"><ele>53.0</ele><time>2026-05-03T12:09:51.274Z</time></trkpt><trkpt lat="42.383755" lon="14.1266217"><ele>49.333333333333336</ele><time>2026-05-03T12:09:52.274Z</time></trkpt><trkpt lat="42.3839033" lon="14.1267133"><ele>45.66666666666667</ele><time>2026-05-03T12:09:53.274Z</time></trkpt><trkpt lat="42.3840633" lon="14.1268017"><ele>42.0</ele><time>2026-05-03T12:09:54.274Z</time></trkpt><trkpt lat="42.3842333" lon="14.1268783"><ele>42.0</ele><time>2026-05-03T12:09:55.274Z</time></trkpt><trkpt lat="42.3843883" lon="14.1269583"><ele>42.0</ele><time>2026-05-03T12:09:56.274Z</time></trkpt><trkpt lat="42.384545" lon="14.1270233"><ele>42.0</ele><time>2026-05-03T12:09:57.274Z</time></trkpt><trkpt lat="42.384695" lon="14.127075"><ele>43.0</ele><time>2026-05-03T12:09:58.274Z</time></trkpt><trkpt lat="42.3848483" lon="14.12713"><ele>44.0</ele><time>2026-05-03T12:09:59.274Z</time></trkpt><trkpt lat="42.385" lon="14.1272183"><ele>45.0</ele><time>2026-05-03T12:10:00.274Z</time></trkpt><trkpt lat="42.3851283" lon="14.1273267"><ele>42.0</ele><time>2026-05-03T12:10:01.274Z</time></trkpt><trkpt lat="42.38526" lon="14.1274567"><ele>39.0</ele><time>2026-05-03T12:10:02.274Z</time></trkpt><trkpt lat="42.3853917" lon="14.1275917"><ele>36.0</ele><time>2026-05-03T12:10:03.274Z</time></trkpt><trkpt lat="42.38552" lon="14.1277333"><ele>36.0</ele><time>2026-05-03T12:10:04.274Z</time></trkpt><trkpt lat="42.385655" lon="14.12788"><ele>36.0</ele><time>2026-05-03T12:10:05.274Z</time></trkpt><trkpt lat="42.385805" lon="14.128015"><ele>36.0</ele><time>2026-05-03T12:10:06.274Z</time></trkpt><trkpt lat="42.3859433" lon="14.12813"><ele>35.666666666666664</ele><time>2026-05-03T12:10:07.274Z</time></trkpt><trkpt lat="42.3860733" lon="14.1282567"><ele>35.33333333333333</ele><time>2026-05-03T12:10:08.274Z</time></trkpt><trkpt lat="42.3862017" lon="14.128405"><ele>35.0</ele><time>2026-05-03T12:10:09.274Z</time></trkpt><trkpt lat="42.386315" lon="14.128565"><ele>35.666666666666664</ele><time>2026-05-03T12:10:10.274Z</time></trkpt><trkpt lat="42.38642" lon="14.1287267"><ele>36.333333333333336</ele><time>2026-05-03T12:10:11.274Z</time></trkpt><trkpt lat="42.3865117" lon="14.1288817"><ele>37.0</ele><time>2026-05-03T12:10:12.274Z</time></trkpt><trkpt lat="42.3866067" lon="14.1290283"><ele>36.0</ele><time>2026-05-03T12:10:13.274Z</time></trkpt><trkpt lat="42.386695" lon="14.129165"><ele>35.0</ele><time>2026-05-03T12:10:14.274Z</time></trkpt><trkpt lat="42.3867783" lon="14.1292983"><ele>34.0</ele><time>2026-05-03T12:10:15.274Z</time></trkpt><trkpt lat="42.3868667" lon="14.1294383"><ele>33.0</ele><time>2026-05-03T12:10:16.274Z</time></trkpt><trkpt lat="42.3869683" lon="14.1295567"><ele>33.0</ele><time>2026-05-03T12:10:17.274Z</time></trkpt><trkpt lat="42.38708" lon="14.129665"><ele>33.0</ele><time>2026-05-03T12:10:18.274Z</time></trkpt><trkpt lat="42.387195" lon="14.1297817"><ele>33.0</ele><time>2026-05-03T12:10:19.274Z</time></trkpt><trkpt lat="42.3873217" lon="14.12989"><ele>33.0</ele><time>2026-05-03T12:10:20.275Z</time></trkpt><trkpt lat="42.3874467" lon="14.1300117"><ele>32.75</ele><time>2026-05-03T12:10:21.274Z</time></trkpt><trkpt lat="42.387555" lon="14.1301183"><ele>32.5</ele><time>2026-05-03T12:10:22.275Z</time></trkpt><trkpt lat="42.3876567" lon="14.1302233"><ele>32.25</ele><time>2026-05-03T12:10:23.274Z</time></trkpt><trkpt lat="42.3877533" lon="14.13032"><ele>32.0</ele><time>2026-05-03T12:10:24.274Z</time></trkpt><trkpt lat="42.3878533" lon="14.1303983"><ele>32.0</ele><time>2026-05-03T12:10:25.274Z</time></trkpt><trkpt lat="42.38795" lon="14.1304583"><ele>32.0</ele><time>2026-05-03T12:10:26.274Z</time></trkpt><trkpt lat="42.3880533" lon="14.1305083"><ele>32.0</ele><time>2026-05-03T12:10:27.275Z</time></trkpt><trkpt lat="42.3881783" lon="14.1305633"><ele>32.0</ele><time>2026-05-03T12:10:28.274Z</time></trkpt><trkpt lat="42.3883183" lon="14.130635"><ele>32.0</ele><time>2026-05-03T12:10:29.274Z</time></trkpt><trkpt lat="42.3884583" lon="14.130715"><ele>32.0</ele><time>2026-05-03T12:10:30.274Z</time></trkpt><trkpt lat="42.3886083" lon="14.130805"><ele>32.0</ele><time>2026-05-03T12:10:31.274Z</time></trkpt><trkpt lat="42.3887533" lon="14.1308833"><ele>32.25</ele><time>2026-05-03T12:10:32.274Z</time></trkpt><trkpt lat="42.3888917" lon="14.13097"><ele>32.5</ele><time>2026-05-03T12:10:33.274Z</time></trkpt><trkpt lat="42.3890083" lon="14.13106"><ele>32.75</ele><time>2026-05-03T12:10:34.274Z</time></trkpt><trkpt lat="42.38913" lon="14.1311483"><ele>33.0</ele><time>2026-05-03T12:10:35.274Z</time></trkpt><trkpt lat="42.3892533" lon="14.131245"><ele>33.0</ele><time>2026-05-03T12:10:36.274Z</time></trkpt><trkpt lat="42.389375" lon="14.1313467"><ele>33.0</ele><time>2026-05-03T12:10:37.274Z</time></trkpt><trkpt lat="42.3895033" lon="14.1314567"><ele>33.0</ele><time>2026-05-03T12:10:38.274Z</time></trkpt><trkpt lat="42.38963" lon="14.1315583"><ele>33.0</ele><time>2026-05-03T12:10:39.274Z</time></trkpt><trkpt lat="42.389765" lon="14.13168"><ele>32.333333333333336</ele><time>2026-05-03T12:10:40.274Z</time></trkpt><trkpt lat="42.38991" lon="14.1317967"><ele>31.666666666666668</ele><time>2026-05-03T12:10:41.274Z</time></trkpt><trkpt lat="42.3900583" lon="14.1319233"><ele>31.0</ele><time>2026-05-03T12:10:42.274Z</time></trkpt><trkpt lat="42.3902033" lon="14.13205"><ele>31.0</ele><time>2026-05-03T12:10:43.274Z</time></trkpt><trkpt lat="42.3903483" lon="14.1321867"><ele>31.0</ele><time>2026-05-03T12:10:44.274Z</time></trkpt><trkpt lat="42.3904867" lon="14.1323217"><ele>31.0</ele><time>2026-05-03T12:10:45.274Z</time></trkpt><trkpt lat="42.3906283" lon="14.1324567"><ele>30.666666666666668</ele><time>2026-05-03T12:10:46.274Z</time></trkpt><trkpt lat="42.3907667" lon="14.1325833"><ele>30.333333333333336</ele><time>2026-05-03T12:10:47.274Z</time></trkpt><trkpt lat="42.3909133" lon="14.1327217"><ele>30.0</ele><time>2026-05-03T12:10:48.275Z</time></trkpt><trkpt lat="42.3910633" lon="14.1328483"><ele>30.0</ele><time>2026-05-03T12:10:49.274Z</time></trkpt><trkpt lat="42.3912117" lon="14.132975"><ele>30.0</ele><time>2026-05-03T12:10:50.275Z</time></trkpt><trkpt lat="42.39136" lon="14.1330933"><ele>30.0</ele><time>2026-05-03T12:10:51.274Z</time></trkpt><trkpt lat="42.3915083" lon="14.1332233"><ele>30.0</ele><time>2026-05-03T12:10:52.274Z</time></trkpt><trkpt lat="42.3916533" lon="14.133365"><ele>30.0</ele><time>2026-05-03T12:10:53.274Z</time></trkpt><trkpt lat="42.3917967" lon="14.1335033"><ele>30.0</ele><time>2026-05-03T12:10:54.274Z</time></trkpt><trkpt lat="42.3919517" lon="14.1336333"><ele>30.0</ele><time>2026-05-03T12:10:55.274Z</time></trkpt><trkpt lat="42.3921017" lon="14.133755"><ele>30.0</ele><time>2026-05-03T12:10:56.274Z</time></trkpt><trkpt lat="42.3922567" lon="14.1338883"><ele>30.0</ele><time>2026-05-03T12:10:57.274Z</time></trkpt><trkpt lat="42.3924167" lon="14.1340183"><ele>29.666666666666664</ele><time>2026-05-03T12:10:58.274Z</time></trkpt><trkpt lat="42.3925733" lon="14.1341717"><ele>29.333333333333332</ele><time>2026-05-03T12:10:59.274Z</time></trkpt><trkpt lat="42.3927083" lon="14.1343283"><ele>29.0</ele><time>2026-05-03T12:11:00.274Z</time></trkpt><trkpt lat="42.3928967" lon="14.1345667"><ele>29.5</ele><time>2026-05-03T12:11:01.274Z</time></trkpt><trkpt lat="42.3930967" lon="14.1347283"><ele>30.0</ele><time>2026-05-03T12:11:02.274Z</time></trkpt><trkpt lat="42.3932967" lon="14.134875"><ele>29.0</ele><time>2026-05-03T12:11:03.274Z</time></trkpt><trkpt lat="42.393475" lon="14.135025"><ele>28.0</ele><time>2026-05-03T12:11:04.274Z</time></trkpt><trkpt lat="42.39364" lon="14.13516"><ele>27.0</ele><time>2026-05-03T12:11:05.275Z</time></trkpt><trkpt lat="42.39379" lon="14.1352833"><ele>28.0</ele><time>2026-05-03T12:11:06.274Z</time></trkpt><trkpt lat="42.3939317" lon="14.135415"><ele>29.0</ele><time>2026-05-03T12:11:07.274Z</time></trkpt><trkpt lat="42.3940767" lon="14.1355317"><ele>30.0</ele><time>2026-05-03T12:11:08.274Z</time></trkpt><trkpt lat="42.3942183" lon="14.1356533"><ele>29.75</ele><time>2026-05-03T12:11:09.274Z</time></trkpt><trkpt lat="42.394355" lon="14.1357683"><ele>29.5</ele><time>2026-05-03T12:11:10.274Z</time></trkpt><trkpt lat="42.39448" lon="14.13588"><ele>29.25</ele><time>2026-05-03T12:11:11.274Z</time></trkpt><trkpt lat="42.3945867" lon="14.135985"><ele>29.0</ele><time>2026-05-03T12:11:12.274Z</time></trkpt><trkpt lat="42.3946917" lon="14.1360767"><ele>29.0</ele><time>2026-05-03T12:11:13.274Z</time></trkpt><trkpt lat="42.3948033" lon="14.1361733"><ele>29.0</ele><time>2026-05-03T12:11:14.275Z</time></trkpt><trkpt lat="42.3949183" lon="14.1362733"><ele>29.0</ele><time>2026-05-03T12:11:15.274Z</time></trkpt><trkpt lat="42.3950367" lon="14.136375"><ele>29.0</ele><time>2026-05-03T12:11:16.275Z</time></trkpt><trkpt lat="42.3951533" lon="14.1364783"><ele>28.25</ele><time>2026-05-03T12:11:17.274Z</time></trkpt><trkpt lat="42.3952667" lon="14.1365867"><ele>27.5</ele><time>2026-05-03T12:11:18.274Z</time></trkpt><trkpt lat="42.3953817" lon="14.1366917"><ele>26.75</ele><time>2026-05-03T12:11:19.274Z</time></trkpt><trkpt lat="42.3955033" lon="14.1368"><ele>26.0</ele><time>2026-05-03T12:11:20.274Z</time></trkpt><trkpt lat="42.3956283" lon="14.1369117"><ele>26.0</ele><time>2026-05-03T12:11:21.274Z</time></trkpt><trkpt lat="42.3957467" lon="14.13702"><ele>26.0</ele><time>2026-05-03T12:11:22.274Z</time></trkpt><trkpt lat="42.3958617" lon="14.13712"><ele>26.0</ele><time>2026-05-03T12:11:23.274Z</time></trkpt><trkpt lat="42.3959767" lon="14.1372183"><ele>26.0</ele><time>2026-05-03T12:11:24.274Z</time></trkpt><trkpt lat="42.396085" lon="14.1373083"><ele>26.25</ele><time>2026-05-03T12:11:25.274Z</time></trkpt><trkpt lat="42.3961883" lon="14.1373933"><ele>26.5</ele><time>2026-05-03T12:11:26.275Z</time></trkpt><trkpt lat="42.3962867" lon="14.1374883"><ele>26.75</ele><time>2026-05-03T12:11:27.274Z</time></trkpt><trkpt lat="42.3963867" lon="14.13758"><ele>27.0</ele><time>2026-05-03T12:11:28.274Z</time></trkpt><trkpt lat="42.396485" lon="14.1376767"><ele>27.0</ele><time>2026-05-03T12:11:29.273Z</time></trkpt><trkpt lat="42.396595" lon="14.137775"><ele>27.0</ele><time>2026-05-03T12:11:30.273Z</time></trkpt><trkpt lat="42.3967083" lon="14.1378717"><ele>27.0</ele><time>2026-05-03T12:11:31.273Z</time></trkpt><trkpt lat="42.3968183" lon="14.1379683"><ele>27.0</ele><time>2026-05-03T12:11:32.274Z</time></trkpt><trkpt lat="42.3969283" lon="14.13807"><ele>27.0</ele><time>2026-05-03T12:11:33.273Z</time></trkpt><trkpt lat="42.39704" lon="14.1381667"><ele>27.0</ele><time>2026-05-03T12:11:34.273Z</time></trkpt><trkpt lat="42.3971483" lon="14.13827"><ele>27.0</ele><time>2026-05-03T12:11:35.273Z</time></trkpt><trkpt lat="42.397245" lon="14.138365"><ele>27.0</ele><time>2026-05-03T12:11:36.274Z</time></trkpt><trkpt lat="42.3973467" lon="14.1384567"><ele>26.75</ele><time>2026-05-03T12:11:37.273Z</time></trkpt><trkpt lat="42.3974517" lon="14.13855"><ele>26.5</ele><time>2026-05-03T12:11:38.273Z</time></trkpt><trkpt lat="42.39756" lon="14.138635"><ele>26.25</ele><time>2026-05-03T12:11:39.273Z</time></trkpt><trkpt lat="42.3976617" lon="14.1387383"><ele>26.0</ele><time>2026-05-03T12:11:40.273Z</time></trkpt><trkpt lat="42.3977633" lon="14.1388433"><ele>26.0</ele><time>2026-05-03T12:11:41.273Z</time></trkpt><trkpt lat="42.3978717" lon="14.13894"><ele>26.0</ele><time>2026-05-03T12:11:42.274Z</time></trkpt><trkpt lat="42.3979817" lon="14.139035"><ele>26.0</ele><time>2026-05-03T12:11:43.273Z</time></trkpt><trkpt lat="42.3980967" lon="14.1391367"><ele>26.0</ele><time>2026-05-03T12:11:44.273Z</time></trkpt><trkpt lat="42.39821" lon="14.1392333"><ele>26.0</ele><time>2026-05-03T12:11:45.273Z</time></trkpt><trkpt lat="42.3983233" lon="14.13934"><ele>26.0</ele><time>2026-05-03T12:11:46.273Z</time></trkpt><trkpt lat="42.3984533" lon="14.1394583"><ele>26.0</ele><time>2026-05-03T12:11:47.273Z</time></trkpt><trkpt lat="42.39859" lon="14.13957"><ele>26.0</ele><time>2026-05-03T12:11:48.273Z</time></trkpt><trkpt lat="42.398725" lon="14.13969"><ele>26.0</ele><time>2026-05-03T12:11:49.273Z</time></trkpt><trkpt lat="42.3988617" lon="14.13982"><ele>26.0</ele><time>2026-05-03T12:11:50.274Z</time></trkpt><trkpt lat="42.399" lon="14.1399517"><ele>25.666666666666664</ele><time>2026-05-03T12:11:51.273Z</time></trkpt><trkpt lat="42.3991417" lon="14.1400867"><ele>25.333333333333336</ele><time>2026-05-03T12:11:52.273Z</time></trkpt><trkpt lat="42.3992867" lon="14.140215"><ele>25.0</ele><time>2026-05-03T12:11:53.273Z</time></trkpt><trkpt lat="42.3994367" lon="14.1403467"><ele>25.0</ele><time>2026-05-03T12:11:54.274Z</time></trkpt><trkpt lat="42.3995933" lon="14.1404917"><ele>25.0</ele><time>2026-05-03T12:11:55.273Z</time></trkpt><trkpt lat="42.3997533" lon="14.1406333"><ele>25.0</ele><time>2026-05-03T12:11:56.273Z</time></trkpt><trkpt lat="42.3999133" lon="14.1407667"><ele>25.333333333333336</ele><time>2026-05-03T12:11:57.273Z</time></trkpt><trkpt lat="42.4000733" lon="14.1409067"><ele>25.666666666666664</ele><time>2026-05-03T12:11:58.273Z</time></trkpt><trkpt lat="42.400235" lon="14.14105"><ele>26.0</ele><time>2026-05-03T12:11:59.273Z</time></trkpt><trkpt lat="42.4003967" lon="14.1412017"><ele>25.666666666666664</ele><time>2026-05-03T12:12:00.273Z</time></trkpt><trkpt lat="42.40056" lon="14.1413483"><ele>25.333333333333336</ele><time>2026-05-03T12:12:01.273Z</time></trkpt><trkpt lat="42.40071" lon="14.1414717"><ele>25.0</ele><time>2026-05-03T12:12:02.273Z</time></trkpt><trkpt lat="42.4008483" lon="14.1415967"><ele>25.0</ele><time>2026-05-03T12:12:03.273Z</time></trkpt><trkpt lat="42.4009883" lon="14.1417167"><ele>25.0</ele><time>2026-05-03T12:12:04.273Z</time></trkpt><trkpt lat="42.401135" lon="14.141835"><ele>25.0</ele><time>2026-05-03T12:12:05.273Z</time></trkpt><trkpt lat="42.4012783" lon="14.1419633"><ele>25.0</ele><time>2026-05-03T12:12:06.274Z</time></trkpt><trkpt lat="42.4014233" lon="14.142095"><ele>25.0</ele><time>2026-05-03T12:12:07.273Z</time></trkpt><trkpt lat="42.4015683" lon="14.1422283"><ele>25.0</ele><time>2026-05-03T12:12:08.273Z</time></trkpt><trkpt lat="42.4017167" lon="14.142365"><ele>24.333333333333336</ele><time>2026-05-03T12:12:09.273Z</time></trkpt><trkpt lat="42.4018617" lon="14.142505"><ele>23.666666666666668</ele><time>2026-05-03T12:12:10.274Z</time></trkpt><trkpt lat="42.40201" lon="14.1426333"><ele>23.0</ele><time>2026-05-03T12:12:11.273Z</time></trkpt><trkpt lat="42.4021583" lon="14.1427733"><ele>23.333333333333336</ele><time>2026-05-03T12:12:12.273Z</time></trkpt><trkpt lat="42.4023133" lon="14.1428967"><ele>23.666666666666668</ele><time>2026-05-03T12:12:13.274Z</time></trkpt><trkpt lat="42.4024683" lon="14.1430283"><ele>24.0</ele><time>2026-05-03T12:12:14.273Z</time></trkpt><trkpt lat="42.4026216" lon="14.1431622"><ele>24.0</ele><time>2026-05-03T12:12:15.273Z</time></trkpt><trkpt lat="42.4027726" lon="14.1432955"><ele>24.0</ele><time>2026-05-03T12:12:16.273Z</time></trkpt><trkpt lat="42.4029236" lon="14.1434264"><ele>24.0</ele><time>2026-05-03T12:12:17.273Z</time></trkpt><trkpt lat="42.4030604" lon="14.1435479"><ele>24.0</ele><time>2026-05-03T12:12:18.273Z</time></trkpt><trkpt lat="42.4031903" lon="14.1436593"><ele>24.0</ele><time>2026-05-03T12:12:19.273Z</time></trkpt><trkpt lat="42.4033132" lon="14.1437744"><ele>24.0</ele><time>2026-05-03T12:12:20.273Z</time></trkpt><trkpt lat="42.4034326" lon="14.143887"><ele>24.0</ele><time>2026-05-03T12:12:21.273Z</time></trkpt><trkpt lat="42.4035423" lon="14.1439937"><ele>24.25</ele><time>2026-05-03T12:12:22.273Z</time></trkpt><trkpt lat="42.4036538" lon="14.144093"><ele>24.5</ele><time>2026-05-03T12:12:23.273Z</time></trkpt><trkpt lat="42.4037676" lon="14.1441927"><ele>24.75</ele><time>2026-05-03T12:12:24.273Z</time></trkpt><trkpt lat="42.4038756" lon="14.1442896"><ele>25.0</ele><time>2026-05-03T12:12:25.273Z</time></trkpt><trkpt lat="42.4039764" lon="14.1443847"><ele>25.0</ele><time>2026-05-03T12:12:26.274Z</time></trkpt><trkpt lat="42.4040827" lon="14.1444744"><ele>25.0</ele><time>2026-05-03T12:12:27.273Z</time></trkpt><trkpt lat="42.4041857" lon="14.1445599"><ele>25.0</ele><time>2026-05-03T12:12:28.273Z</time></trkpt><trkpt lat="42.4042809" lon="14.1446483"><ele>25.0</ele><time>2026-05-03T12:12:29.273Z</time></trkpt><trkpt lat="42.404376" lon="14.1447335"><ele>25.0</ele><time>2026-05-03T12:12:30.273Z</time></trkpt><trkpt lat="42.4044734" lon="14.1448198"><ele>25.0</ele><time>2026-05-03T12:12:31.274Z</time></trkpt><trkpt lat="42.4045737" lon="14.1449119"><ele>25.0</ele><time>2026-05-03T12:12:32.273Z</time></trkpt><trkpt lat="42.4046789" lon="14.145003"><ele>25.0</ele><time>2026-05-03T12:12:33.273Z</time></trkpt><trkpt lat="42.4047802" lon="14.1450908"><ele>24.6</ele><time>2026-05-03T12:12:34.273Z</time></trkpt><trkpt lat="42.404872" lon="14.1451751"><ele>24.2</ele><time>2026-05-03T12:12:35.273Z</time></trkpt><trkpt lat="42.4049568" lon="14.1452509"><ele>23.799999999999997</ele><time>2026-05-03T12:12:36.273Z</time></trkpt><trkpt lat="42.4050387" lon="14.1453235"><ele>23.4</ele><time>2026-05-03T12:12:37.273Z</time></trkpt><trkpt lat="42.4051142" lon="14.1453893"><ele>23.0</ele><time>2026-05-03T12:12:38.273Z</time></trkpt><trkpt lat="42.4051839" lon="14.1454467"><ele>23.0</ele><time>2026-05-03T12:12:39.273Z</time></trkpt><trkpt lat="42.4052487" lon="14.145505"><ele>23.0</ele><time>2026-05-03T12:12:40.273Z</time></trkpt><trkpt lat="42.4053129" lon="14.1455653"><ele>23.0</ele><time>2026-05-03T12:12:41.273Z</time></trkpt><trkpt lat="42.4053713" lon="14.1456251"><ele>23.0</ele><time>2026-05-03T12:12:42.273Z</time></trkpt><trkpt lat="42.4054201" lon="14.1456874"><ele>23.0</ele><time>2026-05-03T12:12:43.273Z</time></trkpt><trkpt lat="42.4054549" lon="14.145836"><ele>23.0</ele><time>2026-05-03T12:12:45.273Z</time></trkpt><trkpt lat="42.4054496" lon="14.1459644"><ele>22.833333333333336</ele><time>2026-05-03T12:12:47.274Z</time></trkpt><trkpt lat="42.4054916" lon="14.1460643"><ele>22.666666666666668</ele><time>2026-05-03T12:12:49.273Z</time></trkpt><trkpt lat="42.4055863" lon="14.1460841"><ele>22.5</ele><time>2026-05-03T12:12:51.273Z</time></trkpt><trkpt lat="42.4056483" lon="14.1460632"><ele>22.333333333333332</ele><time>2026-05-03T12:12:52.273Z</time></trkpt><trkpt lat="42.405716" lon="14.1460391"><ele>22.166666666666664</ele><time>2026-05-03T12:12:53.273Z</time></trkpt><trkpt lat="42.4057916" lon="14.1460398"><ele>22.0</ele><time>2026-05-03T12:12:54.273Z</time></trkpt><trkpt lat="42.4058594" lon="14.1460605"><ele>22.0</ele><time>2026-05-03T12:12:55.273Z</time></trkpt><trkpt lat="42.4059341" lon="14.1461135"><ele>22.0</ele><time>2026-05-03T12:12:56.273Z</time></trkpt><trkpt lat="42.406011" lon="14.146192"><ele>22.0</ele><time>2026-05-03T12:12:57.273Z</time></trkpt><trkpt lat="42.4061022" lon="14.1462822"><ele>22.0</ele><time>2026-05-03T12:12:58.273Z</time></trkpt><trkpt lat="42.4061954" lon="14.146372"><ele>22.0</ele><time>2026-05-03T12:12:59.274Z</time></trkpt><trkpt lat="42.4062895" lon="14.1464563"><ele>22.0</ele><time>2026-05-03T12:13:00.273Z</time></trkpt><trkpt lat="42.4063846" lon="14.1465401"><ele>22.0</ele><time>2026-05-03T12:13:01.273Z</time></trkpt><trkpt lat="42.4064799" lon="14.1466285"><ele>22.0</ele><time>2026-05-03T12:13:02.273Z</time></trkpt><trkpt lat="42.4065869" lon="14.1467095"><ele>22.0</ele><time>2026-05-03T12:13:03.274Z</time></trkpt><trkpt lat="42.4067056" lon="14.1467896"><ele>22.0</ele><time>2026-05-03T12:13:04.273Z</time></trkpt><trkpt lat="42.4068371" lon="14.1468644"><ele>22.0</ele><time>2026-05-03T12:13:05.273Z</time></trkpt><trkpt lat="42.4069779" lon="14.1469276"><ele>22.0</ele><time>2026-05-03T12:13:06.273Z</time></trkpt><trkpt lat="42.4071232" lon="14.1469822"><ele>22.0</ele><time>2026-05-03T12:13:07.273Z</time></trkpt><trkpt lat="42.4072785" lon="14.1470298"><ele>20.666666666666664</ele><time>2026-05-03T12:13:08.273Z</time></trkpt><trkpt lat="42.4074513" lon="14.1470668"><ele>19.333333333333332</ele><time>2026-05-03T12:13:09.273Z</time></trkpt><trkpt lat="42.4076247" lon="14.1471011"><ele>18.0</ele><time>2026-05-03T12:13:10.274Z</time></trkpt><trkpt lat="42.4077837" lon="14.1471298"><ele>18.0</ele><time>2026-05-03T12:13:11.273Z</time></trkpt><trkpt lat="42.4079363" lon="14.1471552"><ele>18.0</ele><time>2026-05-03T12:13:12.274Z</time></trkpt><trkpt lat="42.4080938" lon="14.1471889"><ele>18.0</ele><time>2026-05-03T12:13:13.274Z</time></trkpt><trkpt lat="42.4082504" lon="14.1472386"><ele>17.666666666666668</ele><time>2026-05-03T12:13:14.273Z</time></trkpt><trkpt lat="42.4084089" lon="14.1473012"><ele>17.333333333333336</ele><time>2026-05-03T12:13:15.273Z</time></trkpt><trkpt lat="42.4085723" lon="14.1473814"><ele>17.0</ele><time>2026-05-03T12:13:16.273Z</time></trkpt><trkpt lat="42.4087296" lon="14.1474704"><ele>17.0</ele><time>2026-05-03T12:13:17.273Z</time></trkpt><trkpt lat="42.4088854" lon="14.1475724"><ele>17.0</ele><time>2026-05-03T12:13:18.273Z</time></trkpt><trkpt lat="42.4090375" lon="14.1476843"><ele>17.0</ele><time>2026-05-03T12:13:19.273Z</time></trkpt><trkpt lat="42.4091884" lon="14.1478015"><ele>17.0</ele><time>2026-05-03T12:13:20.273Z</time></trkpt><trkpt lat="42.4093449" lon="14.1479316"><ele>17.0</ele><time>2026-05-03T12:13:21.273Z</time></trkpt><trkpt lat="42.4095041" lon="14.148063"><ele>17.0</ele><time>2026-05-03T12:13:22.273Z</time></trkpt><trkpt lat="42.4096656" lon="14.1481973"><ele>17.666666666666668</ele><time>2026-05-03T12:13:23.273Z</time></trkpt><trkpt lat="42.4098248" lon="14.1483237"><ele>18.333333333333332</ele><time>2026-05-03T12:13:24.273Z</time></trkpt><trkpt lat="42.4099877" lon="14.1484464"><ele>19.0</ele><time>2026-05-03T12:13:25.273Z</time></trkpt><trkpt lat="42.4101457" lon="14.1485689"><ele>19.0</ele><time>2026-05-03T12:13:26.273Z</time></trkpt><trkpt lat="42.4103079" lon="14.1486935"><ele>19.0</ele><time>2026-05-03T12:13:27.274Z</time></trkpt><trkpt lat="42.4104745" lon="14.1488268"><ele>19.0</ele><time>2026-05-03T12:13:28.273Z</time></trkpt><trkpt lat="42.4106475" lon="14.1489669"><ele>19.666666666666664</ele><time>2026-05-03T12:13:29.273Z</time></trkpt><trkpt lat="42.4108288" lon="14.149108"><ele>20.333333333333332</ele><time>2026-05-03T12:13:30.273Z</time></trkpt><trkpt lat="42.4110171" lon="14.1492555"><ele>21.0</ele><time>2026-05-03T12:13:31.273Z</time></trkpt><trkpt lat="42.4112172" lon="14.1494114"><ele>21.0</ele><time>2026-05-03T12:13:32.273Z</time></trkpt><trkpt lat="42.4114233" lon="14.1495702"><ele>21.0</ele><time>2026-05-03T12:13:33.273Z</time></trkpt><trkpt lat="42.4116177" lon="14.1497309"><ele>20.0</ele><time>2026-05-03T12:13:34.274Z</time></trkpt><trkpt lat="42.4117996" lon="14.1498869"><ele>19.0</ele><time>2026-05-03T12:13:35.273Z</time></trkpt><trkpt lat="42.411972" lon="14.1500215"><ele>18.0</ele><time>2026-05-03T12:13:36.273Z</time></trkpt><trkpt lat="42.4121438" lon="14.150155"><ele>17.0</ele><time>2026-05-03T12:13:37.273Z</time></trkpt><trkpt lat="42.4123174" lon="14.1502884"><ele>16.0</ele><time>2026-05-03T12:13:38.273Z</time></trkpt><trkpt lat="42.4124877" lon="14.1504223"><ele>15.0</ele><time>2026-05-03T12:13:39.273Z</time></trkpt><trkpt lat="42.4126514" lon="14.1505596"><ele>15.0</ele><time>2026-05-03T12:13:40.273Z</time></trkpt><trkpt lat="42.4128077" lon="14.1506936"><ele>15.0</ele><time>2026-05-03T12:13:41.274Z</time></trkpt><trkpt lat="42.4129528" lon="14.1508327"><ele>15.0</ele><time>2026-05-03T12:13:42.273Z</time></trkpt><trkpt lat="42.413095" lon="14.1509883"><ele>15.0</ele><time>2026-05-03T12:13:43.273Z</time></trkpt><trkpt lat="42.4132333" lon="14.1511333"><ele>15.0</ele><time>2026-05-03T12:13:44.273Z</time></trkpt><trkpt lat="42.413375" lon="14.1512783"><ele>15.0</ele><time>2026-05-03T12:13:45.273Z</time></trkpt><trkpt lat="42.4135233" lon="14.1514167"><ele>15.333333333333332</ele><time>2026-05-03T12:13:46.273Z</time></trkpt><trkpt lat="42.4136733" lon="14.1515433"><ele>15.666666666666666</ele><time>2026-05-03T12:13:47.273Z</time></trkpt><trkpt lat="42.41383" lon="14.15165"><ele>16.0</ele><time>2026-05-03T12:13:48.274Z</time></trkpt><trkpt lat="42.413995" lon="14.1517583"><ele>16.0</ele><time>2026-05-03T12:13:49.273Z</time></trkpt><trkpt lat="42.4141517" lon="14.1518467"><ele>16.0</ele><time>2026-05-03T12:13:50.273Z</time></trkpt><trkpt lat="42.4143017" lon="14.1519183"><ele>16.0</ele><time>2026-05-03T12:13:51.273Z</time></trkpt><trkpt lat="42.41446" lon="14.15197"><ele>16.0</ele><time>2026-05-03T12:13:52.274Z</time></trkpt><trkpt lat="42.4146133" lon="14.152015"><ele>16.0</ele><time>2026-05-03T12:13:53.273Z</time></trkpt><trkpt lat="42.4147733" lon="14.152035"><ele>16.0</ele><time>2026-05-03T12:13:54.273Z</time></trkpt><trkpt lat="42.4149333" lon="14.1520583"><ele>15.666666666666666</ele><time>2026-05-03T12:13:55.273Z</time></trkpt><trkpt lat="42.4151017" lon="14.1520667"><ele>15.333333333333332</ele><time>2026-05-03T12:13:56.273Z</time></trkpt><trkpt lat="42.4152683" lon="14.1520767"><ele>15.0</ele><time>2026-05-03T12:13:57.274Z</time></trkpt><trkpt lat="42.4154317" lon="14.15209"><ele>15.333333333333332</ele><time>2026-05-03T12:13:58.273Z</time></trkpt><trkpt lat="42.4156033" lon="14.152105"><ele>15.666666666666666</ele><time>2026-05-03T12:13:59.273Z</time></trkpt><trkpt lat="42.41577" lon="14.1521183"><ele>16.0</ele><time>2026-05-03T12:14:00.273Z</time></trkpt><trkpt lat="42.4159233" lon="14.1521683"><ele>16.0</ele><time>2026-05-03T12:14:01.274Z</time></trkpt><trkpt lat="42.4160733" lon="14.15224"><ele>16.0</ele><time>2026-05-03T12:14:02.273Z</time></trkpt><trkpt lat="42.4162167" lon="14.1523367"><ele>16.0</ele><time>2026-05-03T12:14:03.273Z</time></trkpt><trkpt lat="42.4163467" lon="14.152455"><ele>17.333333333333332</ele><time>2026-05-03T12:14:04.273Z</time></trkpt><trkpt lat="42.4164683" lon="14.152595"><ele>18.666666666666668</ele><time>2026-05-03T12:14:05.273Z</time></trkpt><trkpt lat="42.4165833" lon="14.1527433"><ele>20.0</ele><time>2026-05-03T12:14:06.273Z</time></trkpt><trkpt lat="42.4166917" lon="14.1529033"><ele>20.0</ele><time>2026-05-03T12:14:07.273Z</time></trkpt><trkpt lat="42.4168083" lon="14.153065"><ele>20.0</ele><time>2026-05-03T12:14:08.273Z</time></trkpt><trkpt lat="42.4169317" lon="14.1532267"><ele>20.0</ele><time>2026-05-03T12:14:09.273Z</time></trkpt><trkpt lat="42.4170617" lon="14.153385"><ele>20.333333333333336</ele><time>2026-05-03T12:14:10.273Z</time></trkpt><trkpt lat="42.4171767" lon="14.15354"><ele>20.666666666666668</ele><time>2026-05-03T12:14:11.273Z</time></trkpt><trkpt lat="42.4172917" lon="14.1536867"><ele>21.0</ele><time>2026-05-03T12:14:12.273Z</time></trkpt><trkpt lat="42.4174" lon="14.15384"><ele>21.0</ele><time>2026-05-03T12:14:13.273Z</time></trkpt><trkpt lat="42.4175133" lon="14.1539883"><ele>21.0</ele><time>2026-05-03T12:14:14.273Z</time></trkpt><trkpt lat="42.4176267" lon="14.154135"><ele>21.0</ele><time>2026-05-03T12:14:15.273Z</time></trkpt><trkpt lat="42.4177267" lon="14.1542833"><ele>20.333333333333332</ele><time>2026-05-03T12:14:16.273Z</time></trkpt><trkpt lat="42.4178351" lon="14.1544239"><ele>19.666666666666664</ele><time>2026-05-03T12:14:17.273Z</time></trkpt><trkpt lat="42.4179528" lon="14.1545733"><ele>19.0</ele><time>2026-05-03T12:14:18.273Z</time></trkpt><trkpt lat="42.41808" lon="14.1547311"><ele>18.333333333333332</ele><time>2026-05-03T12:14:19.273Z</time></trkpt><trkpt lat="42.4182035" lon="14.1548973"><ele>17.666666666666668</ele><time>2026-05-03T12:14:20.274Z</time></trkpt><trkpt lat="42.4183235" lon="14.155075"><ele>17.0</ele><time>2026-05-03T12:14:21.273Z</time></trkpt><trkpt lat="42.4184431" lon="14.1552616"><ele>17.0</ele><time>2026-05-03T12:14:22.273Z</time></trkpt><trkpt lat="42.4185727" lon="14.1554516"><ele>17.0</ele><time>2026-05-03T12:14:23.273Z</time></trkpt><trkpt lat="42.4187003" lon="14.1556414"><ele>17.0</ele><time>2026-05-03T12:14:24.273Z</time></trkpt><trkpt lat="42.4188246" lon="14.1558166"><ele>19.0</ele><time>2026-05-03T12:14:25.273Z</time></trkpt><trkpt lat="42.4189424" lon="14.1560001"><ele>21.0</ele><time>2026-05-03T12:14:26.273Z</time></trkpt><trkpt lat="42.4190693" lon="14.1561744"><ele>23.0</ele><time>2026-05-03T12:14:27.273Z</time></trkpt><trkpt lat="42.4192079" lon="14.1563169"><ele>23.0</ele><time>2026-05-03T12:14:28.273Z</time></trkpt><trkpt lat="42.4193536" lon="14.1564208"><ele>23.0</ele><time>2026-05-03T12:14:29.273Z</time></trkpt><trkpt lat="42.4195202" lon="14.1564971"><ele>23.0</ele><time>2026-05-03T12:14:30.273Z</time></trkpt><trkpt lat="42.4197021" lon="14.1565663"><ele>22.0</ele><time>2026-05-03T12:14:31.274Z</time></trkpt><trkpt lat="42.4198942" lon="14.1566354"><ele>21.0</ele><time>2026-05-03T12:14:32.273Z</time></trkpt><trkpt lat="42.4200898" lon="14.1567173"><ele>20.0</ele><time>2026-05-03T12:14:33.273Z</time></trkpt><trkpt lat="42.420289" lon="14.1567984"><ele>20.333333333333336</ele><time>2026-05-03T12:14:34.273Z</time></trkpt><trkpt lat="42.4204872" lon="14.1568814"><ele>20.666666666666668</ele><time>2026-05-03T12:14:35.273Z</time></trkpt><trkpt lat="42.420678" lon="14.1569625"><ele>21.0</ele><time>2026-05-03T12:14:36.273Z</time></trkpt><trkpt lat="42.4208559" lon="14.1570324"><ele>21.0</ele><time>2026-05-03T12:14:37.273Z</time></trkpt><trkpt lat="42.4210254" lon="14.1571071"><ele>21.0</ele><time>2026-05-03T12:14:38.273Z</time></trkpt><trkpt lat="42.421181" lon="14.1571848"><ele>21.0</ele><time>2026-05-03T12:14:39.273Z</time></trkpt><trkpt lat="42.4213251" lon="14.1572492"><ele>21.5</ele><time>2026-05-03T12:14:40.274Z</time></trkpt><trkpt lat="42.4214615" lon="14.1572947"><ele>22.0</ele><time>2026-05-03T12:14:41.273Z</time></trkpt><trkpt lat="42.4215893" lon="14.1573448"><ele>22.5</ele><time>2026-05-03T12:14:42.273Z</time></trkpt><trkpt lat="42.4217173" lon="14.1573919"><ele>23.0</ele><time>2026-05-03T12:14:43.273Z</time></trkpt><trkpt lat="42.4218466" lon="14.1574306"><ele>22.4</ele><time>2026-05-03T12:14:44.273Z</time></trkpt><trkpt lat="42.4219655" lon="14.1574369"><ele>21.799999999999997</ele><time>2026-05-03T12:14:45.274Z</time></trkpt><trkpt lat="42.4220573" lon="14.1574318"><ele>21.2</ele><time>2026-05-03T12:14:46.273Z</time></trkpt><trkpt lat="42.4221239" lon="14.1574233"><ele>20.6</ele><time>2026-05-03T12:14:47.273Z</time></trkpt><trkpt lat="42.4222237" lon="14.1574303"><ele>20.0</ele><time>2026-05-03T12:14:49.273Z</time></trkpt><trkpt lat="42.42233" lon="14.1574967"><ele>20.0</ele><time>2026-05-03T12:14:51.273Z</time></trkpt><trkpt lat="42.42241" lon="14.15753"><ele>20.0</ele><time>2026-05-03T12:14:52.273Z</time></trkpt><trkpt lat="42.422495" lon="14.1575583"><ele>20.0</ele><time>2026-05-03T12:14:53.273Z</time></trkpt><trkpt lat="42.42257" lon="14.1575917"><ele>20.0</ele><time>2026-05-03T12:14:54.273Z</time></trkpt><trkpt lat="42.422635" lon="14.15764"><ele>20.0</ele><time>2026-05-03T12:14:55.273Z</time></trkpt><trkpt lat="42.42272" lon="14.15773"><ele>20.0</ele><time>2026-05-03T12:14:57.273Z</time></trkpt><trkpt lat="42.4228183" lon="14.1577933"><ele>20.0</ele><time>2026-05-03T12:14:59.273Z</time></trkpt><trkpt lat="42.42293" lon="14.1578417"><ele>20.0</ele><time>2026-05-03T12:15:01.273Z</time></trkpt><trkpt lat="42.4230217" lon="14.1578983"><ele>20.0</ele><time>2026-05-03T12:15:03.273Z</time></trkpt><trkpt lat="42.423155" lon="14.157955"><ele>20.0</ele><time>2026-05-03T12:15:05.273Z</time></trkpt><trkpt lat="42.4232433" lon="14.1579867"><ele>20.0</ele><time>2026-05-03T12:15:06.273Z</time></trkpt><trkpt lat="42.423345" lon="14.1580317"><ele>19.5</ele><time>2026-05-03T12:15:07.273Z</time></trkpt><trkpt lat="42.4234533" lon="14.1580733"><ele>19.0</ele><time>2026-05-03T12:15:08.273Z</time></trkpt><trkpt lat="42.423565" lon="14.1581283"><ele>18.5</ele><time>2026-05-03T12:15:09.274Z</time></trkpt><trkpt lat="42.4236783" lon="14.1581733"><ele>18.0</ele><time>2026-05-03T12:15:10.273Z</time></trkpt><trkpt lat="42.4237983" lon="14.1582233"><ele>17.75</ele><time>2026-05-03T12:15:11.273Z</time></trkpt><trkpt lat="42.4239183" lon="14.1582783"><ele>17.5</ele><time>2026-05-03T12:15:12.273Z</time></trkpt><trkpt lat="42.4240467" lon="14.15833"><ele>17.25</ele><time>2026-05-03T12:15:13.273Z</time></trkpt><trkpt lat="42.4241783" lon="14.158385"><ele>17.0</ele><time>2026-05-03T12:15:14.273Z</time></trkpt><trkpt lat="42.4243117" lon="14.1584467"><ele>17.0</ele><time>2026-05-03T12:15:15.273Z</time></trkpt><trkpt lat="42.4244633" lon="14.1585117"><ele>17.0</ele><time>2026-05-03T12:15:16.273Z</time></trkpt><trkpt lat="42.4246133" lon="14.1585733"><ele>17.0</ele><time>2026-05-03T12:15:17.273Z</time></trkpt><trkpt lat="42.4247633" lon="14.1586417"><ele>17.25</ele><time>2026-05-03T12:15:18.273Z</time></trkpt><trkpt lat="42.4249033" lon="14.1587067"><ele>17.5</ele><time>2026-05-03T12:15:19.273Z</time></trkpt><trkpt lat="42.42503" lon="14.1587567"><ele>17.75</ele><time>2026-05-03T12:15:20.273Z</time></trkpt><trkpt lat="42.4251467" lon="14.1588083"><ele>18.0</ele><time>2026-05-03T12:15:21.273Z</time></trkpt><trkpt lat="42.4252717" lon="14.1588767"><ele>18.0</ele><time>2026-05-03T12:15:22.273Z</time></trkpt><trkpt lat="42.4253983" lon="14.1589283"><ele>18.0</ele><time>2026-05-03T12:15:23.274Z</time></trkpt><trkpt lat="42.4255167" lon="14.1589767"><ele>18.0</ele><time>2026-05-03T12:15:24.273Z</time></trkpt><trkpt lat="42.4256417" lon="14.1590333"><ele>18.0</ele><time>2026-05-03T12:15:25.273Z</time></trkpt><trkpt lat="42.4257717" lon="14.1591033"><ele>18.25</ele><time>2026-05-03T12:15:26.273Z</time></trkpt><trkpt lat="42.4258967" lon="14.1591717"><ele>18.5</ele><time>2026-05-03T12:15:27.273Z</time></trkpt><trkpt lat="42.42602" lon="14.1592467"><ele>18.75</ele><time>2026-05-03T12:15:28.273Z</time></trkpt><trkpt lat="42.4261517" lon="14.1593333"><ele>19.0</ele><time>2026-05-03T12:15:29.273Z</time></trkpt><trkpt lat="42.4262817" lon="14.1594217"><ele>19.25</ele><time>2026-05-03T12:15:30.273Z</time></trkpt><trkpt lat="42.4264067" lon="14.159515"><ele>19.5</ele><time>2026-05-03T12:15:31.273Z</time></trkpt><trkpt lat="42.426535" lon="14.159605"><ele>19.75</ele><time>2026-05-03T12:15:32.274Z</time></trkpt><trkpt lat="42.42667" lon="14.1596933"><ele>20.0</ele><time>2026-05-03T12:15:33.273Z</time></trkpt><trkpt lat="42.4267983" lon="14.1598017"><ele>19.666666666666668</ele><time>2026-05-03T12:15:34.273Z</time></trkpt><trkpt lat="42.4269367" lon="14.1599133"><ele>19.333333333333332</ele><time>2026-05-03T12:15:35.273Z</time></trkpt><trkpt lat="42.4270783" lon="14.16002"><ele>19.0</ele><time>2026-05-03T12:15:36.273Z</time></trkpt><trkpt lat="42.4272167" lon="14.1601267"><ele>18.666666666666664</ele><time>2026-05-03T12:15:37.273Z</time></trkpt><trkpt lat="42.4273533" lon="14.16024"><ele>18.333333333333332</ele><time>2026-05-03T12:15:38.273Z</time></trkpt><trkpt lat="42.42748" lon="14.16035"><ele>18.0</ele><time>2026-05-03T12:15:39.273Z</time></trkpt><trkpt lat="42.4276283" lon="14.1604833"><ele>18.0</ele><time>2026-05-03T12:15:40.273Z</time></trkpt><trkpt lat="42.4277633" lon="14.1606117"><ele>18.0</ele><time>2026-05-03T12:15:41.273Z</time></trkpt><trkpt lat="42.4279017" lon="14.16074"><ele>18.0</ele><time>2026-05-03T12:15:42.273Z</time></trkpt><trkpt lat="42.4280317" lon="14.1608717"><ele>17.75</ele><time>2026-05-03T12:15:43.273Z</time></trkpt><trkpt lat="42.4281467" lon="14.1609967"><ele>17.5</ele><time>2026-05-03T12:15:44.273Z</time></trkpt><trkpt lat="42.4282633" lon="14.1611133"><ele>17.25</ele><time>2026-05-03T12:15:45.273Z</time></trkpt><trkpt lat="42.428375" lon="14.161225"><ele>17.0</ele><time>2026-05-03T12:15:46.273Z</time></trkpt><trkpt lat="42.4284917" lon="14.1613383"><ele>17.0</ele><time>2026-05-03T12:15:47.273Z</time></trkpt><trkpt lat="42.4286017" lon="14.1614467"><ele>17.0</ele><time>2026-05-03T12:15:48.273Z</time></trkpt><trkpt lat="42.428715" lon="14.1615517"><ele>17.0</ele><time>2026-05-03T12:15:49.273Z</time></trkpt><trkpt lat="42.42883" lon="14.1616667"><ele>17.0</ele><time>2026-05-03T12:15:50.273Z</time></trkpt><trkpt lat="42.428935" lon="14.1617767"><ele>19.5</ele><time>2026-05-03T12:15:51.273Z</time></trkpt><trkpt lat="42.4290417" lon="14.1618867"><ele>22.0</ele><time>2026-05-03T12:15:52.273Z</time></trkpt><trkpt lat="42.4291483" lon="14.1619983"><ele>24.5</ele><time>2026-05-03T12:15:53.273Z</time></trkpt><trkpt lat="42.4292617" lon="14.1621167"><ele>27.0</ele><time>2026-05-03T12:15:54.273Z</time></trkpt><trkpt lat="42.42938" lon="14.162235"><ele>27.0</ele><time>2026-05-03T12:15:55.273Z</time></trkpt><trkpt lat="42.4294933" lon="14.1623467"><ele>27.0</ele><time>2026-05-03T12:15:56.273Z</time></trkpt><trkpt lat="42.4296033" lon="14.1624417"><ele>27.0</ele><time>2026-05-03T12:15:57.273Z</time></trkpt><trkpt lat="42.4297117" lon="14.1625217"><ele>27.0</ele><time>2026-05-03T12:15:58.273Z</time></trkpt><trkpt lat="42.4298233" lon="14.16259"><ele>25.5</ele><time>2026-05-03T12:15:59.273Z</time></trkpt><trkpt lat="42.4299417" lon="14.162655"><ele>24.0</ele><time>2026-05-03T12:16:00.273Z</time></trkpt><trkpt lat="42.4300667" lon="14.1627083"><ele>22.5</ele><time>2026-05-03T12:16:01.274Z</time></trkpt><trkpt lat="42.4301933" lon="14.1627617"><ele>21.0</ele><time>2026-05-03T12:16:02.273Z</time></trkpt><trkpt lat="42.4303183" lon="14.1627817"><ele>21.0</ele><time>2026-05-03T12:16:03.273Z</time></trkpt><trkpt lat="42.4304133" lon="14.16279"><ele>21.0</ele><time>2026-05-03T12:16:04.273Z</time></trkpt><trkpt lat="42.430485" lon="14.1627917"><ele>21.0</ele><time>2026-05-03T12:16:05.273Z</time></trkpt><trkpt lat="42.4305533" lon="14.1627317"><ele>21.0</ele><time>2026-05-03T12:16:07.273Z</time></trkpt><trkpt lat="42.4305283" lon="14.16265"><ele>21.0</ele><time>2026-05-03T12:16:09.273Z</time></trkpt><trkpt lat="42.4304483" lon="14.16257"><ele>21.0</ele><time>2026-05-03T12:16:11.273Z</time></trkpt><trkpt lat="42.43037" lon="14.1624767"><ele>21.4</ele><time>2026-05-03T12:16:13.273Z</time></trkpt><trkpt lat="42.43036" lon="14.162325"><ele>21.8</ele><time>2026-05-03T12:16:15.274Z</time></trkpt><trkpt lat="42.4303867" lon="14.1622217"><ele>22.2</ele><time>2026-05-03T12:16:16.274Z</time></trkpt><trkpt lat="42.430425" lon="14.1621267"><ele>22.599999999999998</ele><time>2026-05-03T12:16:17.273Z</time></trkpt><trkpt lat="42.4304683" lon="14.162025"><ele>23.0</ele><time>2026-05-03T12:16:18.274Z</time></trkpt><trkpt lat="42.4305183" lon="14.1619067"><ele>23.0</ele><time>2026-05-03T12:16:19.274Z</time></trkpt><trkpt lat="42.4305783" lon="14.1617583"><ele>23.0</ele><time>2026-05-03T12:16:20.274Z</time></trkpt><trkpt lat="42.43064" lon="14.161605"><ele>23.0</ele><time>2026-05-03T12:16:21.273Z</time></trkpt><trkpt lat="42.430685" lon="14.16147"><ele>23.0</ele><time>2026-05-03T12:16:22.273Z</time></trkpt><trkpt lat="42.4307367" lon="14.161345"><ele>23.666666666666668</ele><time>2026-05-03T12:16:23.273Z</time></trkpt><trkpt lat="42.4307783" lon="14.1612383"><ele>24.333333333333336</ele><time>2026-05-03T12:16:24.274Z</time></trkpt><trkpt lat="42.4308133" lon="14.1611533"><ele>25.0</ele><time>2026-05-03T12:16:25.273Z</time></trkpt><trkpt lat="42.430855" lon="14.161075"><ele>25.666666666666668</ele><time>2026-05-03T12:16:26.273Z</time></trkpt><trkpt lat="42.430905" lon="14.160965"><ele>26.333333333333332</ele><time>2026-05-03T12:16:27.273Z</time></trkpt><trkpt lat="42.430965" lon="14.1608217"><ele>27.0</ele><time>2026-05-03T12:16:28.273Z</time></trkpt><trkpt lat="42.4310433" lon="14.1606517"><ele>27.0</ele><time>2026-05-03T12:16:29.273Z</time></trkpt><trkpt lat="42.43112" lon="14.1604583"><ele>27.0</ele><time>2026-05-03T12:16:30.273Z</time></trkpt><trkpt lat="42.4311967" lon="14.160265"><ele>27.0</ele><time>2026-05-03T12:16:31.273Z</time></trkpt><trkpt lat="42.4312783" lon="14.1600667"><ele>28.0</ele><time>2026-05-03T12:16:32.273Z</time></trkpt><trkpt lat="42.4313633" lon="14.1598683"><ele>29.0</ele><time>2026-05-03T12:16:33.273Z</time></trkpt><trkpt lat="42.431445" lon="14.15966"><ele>30.0</ele><time>2026-05-03T12:16:34.273Z</time></trkpt><trkpt lat="42.4315333" lon="14.1594567"><ele>30.666666666666664</ele><time>2026-05-03T12:16:35.273Z</time></trkpt><trkpt lat="42.4316217" lon="14.15925"><ele>31.333333333333332</ele><time>2026-05-03T12:16:36.273Z</time></trkpt><trkpt lat="42.4317167" lon="14.1590217"><ele>32.0</ele><time>2026-05-03T12:16:37.273Z</time></trkpt><trkpt lat="42.4318083" lon="14.158785"><ele>32.33333333333333</ele><time>2026-05-03T12:16:38.273Z</time></trkpt><trkpt lat="42.4318967" lon="14.15856"><ele>32.666666666666664</ele><time>2026-05-03T12:16:39.273Z</time></trkpt><trkpt lat="42.4319817" lon="14.1583517"><ele>33.0</ele><time>2026-05-03T12:16:40.273Z</time></trkpt><trkpt lat="42.432055" lon="14.15816"><ele>33.25</ele><time>2026-05-03T12:16:41.273Z</time></trkpt><trkpt lat="42.4321333" lon="14.1579783"><ele>33.5</ele><time>2026-05-03T12:16:42.274Z</time></trkpt><trkpt lat="42.432205" lon="14.1578217"><ele>33.75</ele><time>2026-05-03T12:16:43.273Z</time></trkpt><trkpt lat="42.4322683" lon="14.1576667"><ele>34.0</ele><time>2026-05-03T12:16:44.273Z</time></trkpt><trkpt lat="42.4323583" lon="14.1575267"><ele>35.75</ele><time>2026-05-03T12:16:45.273Z</time></trkpt><trkpt lat="42.4324433" lon="14.157385"><ele>37.5</ele><time>2026-05-03T12:16:46.273Z</time></trkpt><trkpt lat="42.4325367" lon="14.1572567"><ele>39.25</ele><time>2026-05-03T12:16:47.274Z</time></trkpt><trkpt lat="42.432645" lon="14.15714"><ele>41.0</ele><time>2026-05-03T12:16:48.273Z</time></trkpt><trkpt lat="42.4327517" lon="14.1570283"><ele>42.33333333333333</ele><time>2026-05-03T12:16:49.274Z</time></trkpt><trkpt lat="42.4328767" lon="14.15691"><ele>43.666666666666664</ele><time>2026-05-03T12:16:50.273Z</time></trkpt><trkpt lat="42.4330167" lon="14.1568017"><ele>45.0</ele><time>2026-05-03T12:16:51.273Z</time></trkpt><trkpt lat="42.433165" lon="14.1566883"><ele>46.66666666666667</ele><time>2026-05-03T12:16:52.273Z</time></trkpt><trkpt lat="42.43332" lon="14.15657"><ele>48.333333333333336</ele><time>2026-05-03T12:16:53.273Z</time></trkpt><trkpt lat="42.433485" lon="14.1564417"><ele>50.0</ele><time>2026-05-03T12:16:54.273Z</time></trkpt><trkpt lat="42.4336617" lon="14.1563083"><ele>51.333333333333336</ele><time>2026-05-03T12:16:55.273Z</time></trkpt><trkpt lat="42.4338467" lon="14.1561633"><ele>52.66666666666667</ele><time>2026-05-03T12:16:56.273Z</time></trkpt><trkpt lat="42.434035" lon="14.156025"><ele>54.0</ele><time>2026-05-03T12:16:57.273Z</time></trkpt><trkpt lat="42.434215" lon="14.155885"><ele>54.0</ele><time>2026-05-03T12:16:58.273Z</time></trkpt><trkpt lat="42.4343933" lon="14.1557533"><ele>54.0</ele><time>2026-05-03T12:16:59.274Z</time></trkpt><trkpt lat="42.4345767" lon="14.155625"><ele>54.0</ele><time>2026-05-03T12:17:00.273Z</time></trkpt><trkpt lat="42.43476" lon="14.1554933"><ele>55.66666666666667</ele><time>2026-05-03T12:17:01.273Z</time></trkpt><trkpt lat="42.43494" lon="14.155355"><ele>57.333333333333336</ele><time>2026-05-03T12:17:02.273Z</time></trkpt><trkpt lat="42.4351183" lon="14.1552183"><ele>59.0</ele><time>2026-05-03T12:17:03.273Z</time></trkpt><trkpt lat="42.4353017" lon="14.1550767"><ele>58.66666666666667</ele><time>2026-05-03T12:17:04.273Z</time></trkpt><trkpt lat="42.4354817" lon="14.1549383"><ele>58.33333333333333</ele><time>2026-05-03T12:17:05.273Z</time></trkpt><trkpt lat="42.4356667" lon="14.1547933"><ele>58.0</ele><time>2026-05-03T12:17:06.273Z</time></trkpt><trkpt lat="42.4358517" lon="14.154655"><ele>59.666666666666664</ele><time>2026-05-03T12:17:07.274Z</time></trkpt><trkpt lat="42.4360383" lon="14.1545117"><ele>61.33333333333333</ele><time>2026-05-03T12:17:08.273Z</time></trkpt><trkpt lat="42.4362217" lon="14.1543633"><ele>63.0</ele><time>2026-05-03T12:17:09.273Z</time></trkpt><trkpt lat="42.4364017" lon="14.1542117"><ele>63.33333333333333</ele><time>2026-05-03T12:17:10.273Z</time></trkpt><trkpt lat="42.43658" lon="14.15406"><ele>63.666666666666664</ele><time>2026-05-03T12:17:11.273Z</time></trkpt><trkpt lat="42.4367567" lon="14.1538983"><ele>64.0</ele><time>2026-05-03T12:17:12.273Z</time></trkpt><trkpt lat="42.4369383" lon="14.1537417"><ele>65.66666666666666</ele><time>2026-05-03T12:17:13.273Z</time></trkpt><trkpt lat="42.4371083" lon="14.1535917"><ele>67.33333333333333</ele><time>2026-05-03T12:17:14.273Z</time></trkpt><trkpt lat="42.4372717" lon="14.1534617"><ele>69.0</ele><time>2026-05-03T12:17:15.273Z</time></trkpt><trkpt lat="42.4374333" lon="14.1533567"><ele>69.0</ele><time>2026-05-03T12:17:16.273Z</time></trkpt><trkpt lat="42.4375967" lon="14.1532767"><ele>69.0</ele><time>2026-05-03T12:17:17.273Z</time></trkpt><trkpt lat="42.43776" lon="14.1532233"><ele>69.0</ele><time>2026-05-03T12:17:18.273Z</time></trkpt><trkpt lat="42.437925" lon="14.1531833"><ele>67.0</ele><time>2026-05-03T12:17:19.273Z</time></trkpt><trkpt lat="42.4380967" lon="14.1531267"><ele>65.0</ele><time>2026-05-03T12:17:20.273Z</time></trkpt><trkpt lat="42.4382667" lon="14.1530567"><ele>63.0</ele><time>2026-05-03T12:17:21.273Z</time></trkpt><trkpt lat="42.4384333" lon="14.1529483"><ele>63.0</ele><time>2026-05-03T12:17:22.274Z</time></trkpt><trkpt lat="42.4385883" lon="14.1528067"><ele>63.0</ele><time>2026-05-03T12:17:23.273Z</time></trkpt><trkpt lat="42.4387367" lon="14.1526367"><ele>63.0</ele><time>2026-05-03T12:17:24.273Z</time></trkpt><trkpt lat="42.4388767" lon="14.152455"><ele>66.33333333333333</ele><time>2026-05-03T12:17:25.273Z</time></trkpt><trkpt lat="42.4390117" lon="14.1522617"><ele>69.66666666666666</ele><time>2026-05-03T12:17:26.273Z</time></trkpt><trkpt lat="42.4391383" lon="14.15208"><ele>73.0</ele><time>2026-05-03T12:17:27.273Z</time></trkpt><trkpt lat="42.43926" lon="14.15191"><ele>73.0</ele><time>2026-05-03T12:17:28.273Z</time></trkpt><trkpt lat="42.4393867" lon="14.15176"><ele>73.0</ele><time>2026-05-03T12:17:29.273Z</time></trkpt><trkpt lat="42.4395283" lon="14.151635"><ele>73.0</ele><time>2026-05-03T12:17:30.273Z</time></trkpt><trkpt lat="42.4396767" lon="14.1515367"><ele>74.0</ele><time>2026-05-03T12:17:31.273Z</time></trkpt><trkpt lat="42.4398317" lon="14.15146"><ele>75.0</ele><time>2026-05-03T12:17:32.273Z</time></trkpt><trkpt lat="42.4399883" lon="14.1513933"><ele>76.0</ele><time>2026-05-03T12:17:33.273Z</time></trkpt><trkpt lat="42.4401417" lon="14.1513183"><ele>76.0</ele><time>2026-05-03T12:17:34.273Z</time></trkpt><trkpt lat="42.44029" lon="14.151225"><ele>76.0</ele><time>2026-05-03T12:17:35.273Z</time></trkpt><trkpt lat="42.44044" lon="14.15111"><ele>76.0</ele><time>2026-05-03T12:17:36.274Z</time></trkpt><trkpt lat="42.44059" lon="14.1509933"><ele>80.0</ele><time>2026-05-03T12:17:37.273Z</time></trkpt><trkpt lat="42.44074" lon="14.150895"><ele>84.0</ele><time>2026-05-03T12:17:38.273Z</time></trkpt><trkpt lat="42.4408817" lon="14.15083"><ele>88.0</ele><time>2026-05-03T12:17:39.273Z</time></trkpt><trkpt lat="42.441025" lon="14.1508017"><ele>88.0</ele><time>2026-05-03T12:17:40.273Z</time></trkpt><trkpt lat="42.4411683" lon="14.1508133"><ele>88.0</ele><time>2026-05-03T12:17:41.273Z</time></trkpt><trkpt lat="42.4413183" lon="14.1508517"><ele>88.0</ele><time>2026-05-03T12:17:42.273Z</time></trkpt><trkpt lat="42.44146" lon="14.15091"><ele>88.0</ele><time>2026-05-03T12:17:43.273Z</time></trkpt><trkpt lat="42.4415917" lon="14.15096"><ele>88.75</ele><time>2026-05-03T12:17:44.274Z</time></trkpt><trkpt lat="42.44174" lon="14.15098"><ele>89.5</ele><time>2026-05-03T12:17:45.273Z</time></trkpt><trkpt lat="42.4418833" lon="14.150965"><ele>90.25</ele><time>2026-05-03T12:17:46.273Z</time></trkpt><trkpt lat="42.4420217" lon="14.1509267"><ele>91.0</ele><time>2026-05-03T12:17:47.273Z</time></trkpt><trkpt lat="42.4421417" lon="14.1508567"><ele>91.75</ele><time>2026-05-03T12:17:48.273Z</time></trkpt><trkpt lat="42.44224" lon="14.15077"><ele>92.5</ele><time>2026-05-03T12:17:49.273Z</time></trkpt><trkpt lat="42.442325" lon="14.15065"><ele>93.25</ele><time>2026-05-03T12:17:50.273Z</time></trkpt><trkpt lat="42.44238" lon="14.1505067"><ele>94.0</ele><time>2026-05-03T12:17:51.274Z</time></trkpt><trkpt lat="42.4424183" lon="14.1503417"><ele>94.0</ele><time>2026-05-03T12:17:52.273Z</time></trkpt><trkpt lat="42.4424467" lon="14.15015"><ele>94.0</ele><time>2026-05-03T12:17:53.273Z</time></trkpt><trkpt lat="42.44248" lon="14.1499583"><ele>94.0</ele><time>2026-05-03T12:17:54.273Z</time></trkpt><trkpt lat="42.44252" lon="14.1497733"><ele>94.0</ele><time>2026-05-03T12:17:55.273Z</time></trkpt><trkpt lat="42.4425717" lon="14.1495917"><ele>95.0</ele><time>2026-05-03T12:17:56.273Z</time></trkpt><trkpt lat="42.4426167" lon="14.1494067"><ele>96.0</ele><time>2026-05-03T12:17:57.273Z</time></trkpt><trkpt lat="42.4426717" lon="14.1492233"><ele>97.0</ele><time>2026-05-03T12:17:58.273Z</time></trkpt><trkpt lat="42.4427383" lon="14.149045"><ele>98.0</ele><time>2026-05-03T12:17:59.273Z</time></trkpt><trkpt lat="42.4428083" lon="14.1488733"><ele>99.5</ele><time>2026-05-03T12:18:00.273Z</time></trkpt><trkpt lat="42.4428867" lon="14.1487183"><ele>101.0</ele><time>2026-05-03T12:18:01.273Z</time></trkpt><trkpt lat="42.4429767" lon="14.1485833"><ele>102.5</ele><time>2026-05-03T12:18:02.273Z</time></trkpt><trkpt lat="42.44307" lon="14.1484483"><ele>104.0</ele><time>2026-05-03T12:18:03.273Z</time></trkpt><trkpt lat="42.4431717" lon="14.1483117"><ele>107.75</ele><time>2026-05-03T12:18:04.274Z</time></trkpt><trkpt lat="42.44327" lon="14.1481717"><ele>111.5</ele><time>2026-05-03T12:18:05.273Z</time></trkpt><trkpt lat="42.4433733" lon="14.1480267"><ele>115.25</ele><time>2026-05-03T12:18:06.273Z</time></trkpt><trkpt lat="42.443475" lon="14.147885"><ele>119.0</ele><time>2026-05-03T12:18:07.273Z</time></trkpt><trkpt lat="42.4435767" lon="14.1477517"><ele>119.0</ele><time>2026-05-03T12:18:08.274Z</time></trkpt><trkpt lat="42.4436833" lon="14.147645"><ele>119.0</ele><time>2026-05-03T12:18:09.273Z</time></trkpt><trkpt lat="42.4437917" lon="14.1475683"><ele>119.0</ele><time>2026-05-03T12:18:10.273Z</time></trkpt><trkpt lat="42.443905" lon="14.147515"><ele>119.0</ele><time>2026-05-03T12:18:11.273Z</time></trkpt><trkpt lat="42.4440183" lon="14.1474767"><ele>118.0</ele><time>2026-05-03T12:18:12.273Z</time></trkpt><trkpt lat="42.4441283" lon="14.147455"><ele>117.0</ele><time>2026-05-03T12:18:13.273Z</time></trkpt><trkpt lat="42.44423" lon="14.14743"><ele>116.0</ele><time>2026-05-03T12:18:14.273Z</time></trkpt><trkpt lat="42.4443233" lon="14.1473883"><ele>115.0</ele><time>2026-05-03T12:18:15.274Z</time></trkpt><trkpt lat="42.44441" lon="14.14733"><ele>114.0</ele><time>2026-05-03T12:18:16.273Z</time></trkpt><trkpt lat="42.444475" lon="14.1472567"><ele>115.4</ele><time>2026-05-03T12:18:17.273Z</time></trkpt><trkpt lat="42.4445183" lon="14.1471833"><ele>116.80000000000001</ele><time>2026-05-03T12:18:18.273Z</time></trkpt><trkpt lat="42.4445467" lon="14.1471067"><ele>118.19999999999999</ele><time>2026-05-03T12:18:19.273Z</time></trkpt><trkpt lat="42.444585" lon="14.1469733"><ele>119.6</ele><time>2026-05-03T12:18:21.273Z</time></trkpt><trkpt lat="42.4446717" lon="14.1468217"><ele>121.0</ele><time>2026-05-03T12:18:23.273Z</time></trkpt><trkpt lat="42.4447233" lon="14.1467283"><ele>121.0</ele><time>2026-05-03T12:18:24.273Z</time></trkpt><trkpt lat="42.4447917" lon="14.1466333"><ele>121.0</ele><time>2026-05-03T12:18:25.273Z</time></trkpt><trkpt lat="42.4448567" lon="14.14652"><ele>121.0</ele><time>2026-05-03T12:18:26.273Z</time></trkpt><trkpt lat="42.44492" lon="14.146395"><ele>121.0</ele><time>2026-05-03T12:18:27.274Z</time></trkpt><trkpt lat="42.44499" lon="14.146265"><ele>121.0</ele><time>2026-05-03T12:18:28.273Z</time></trkpt><trkpt lat="42.4450617" lon="14.1461167"><ele>122.25</ele><time>2026-05-03T12:18:29.273Z</time></trkpt><trkpt lat="42.4451417" lon="14.1459717"><ele>123.5</ele><time>2026-05-03T12:18:30.274Z</time></trkpt><trkpt lat="42.4452317" lon="14.1458317"><ele>124.75</ele><time>2026-05-03T12:18:31.273Z</time></trkpt><trkpt lat="42.4453133" lon="14.145685"><ele>126.0</ele><time>2026-05-03T12:18:32.273Z</time></trkpt><trkpt lat="42.4453983" lon="14.1455433"><ele>124.5</ele><time>2026-05-03T12:18:33.273Z</time></trkpt><trkpt lat="42.4454967" lon="14.1454117"><ele>123.0</ele><time>2026-05-03T12:18:34.273Z</time></trkpt><trkpt lat="42.4456017" lon="14.145285"><ele>121.5</ele><time>2026-05-03T12:18:35.273Z</time></trkpt><trkpt lat="42.4457117" lon="14.1451617"><ele>120.0</ele><time>2026-05-03T12:18:36.273Z</time></trkpt><trkpt lat="42.4458383" lon="14.145055"><ele>120.0</ele><time>2026-05-03T12:18:37.273Z</time></trkpt><trkpt lat="42.445975" lon="14.1449567"><ele>120.0</ele><time>2026-05-03T12:18:38.273Z</time></trkpt><trkpt lat="42.4461083" lon="14.144865"><ele>120.0</ele><time>2026-05-03T12:18:39.273Z</time></trkpt><trkpt lat="42.4462467" lon="14.1447883"><ele>120.25</ele><time>2026-05-03T12:18:40.273Z</time></trkpt><trkpt lat="42.4463867" lon="14.1447267"><ele>120.5</ele><time>2026-05-03T12:18:41.273Z</time></trkpt><trkpt lat="42.4465283" lon="14.1446867"><ele>120.75</ele><time>2026-05-03T12:18:42.273Z</time></trkpt><trkpt lat="42.446665" lon="14.1446467"><ele>121.0</ele><time>2026-05-03T12:18:43.274Z</time></trkpt><trkpt lat="42.4468033" lon="14.144605"><ele>121.0</ele><time>2026-05-03T12:18:44.273Z</time></trkpt><trkpt lat="42.4469283" lon="14.144575"><ele>121.0</ele><time>2026-05-03T12:18:45.273Z</time></trkpt><trkpt lat="42.4470483" lon="14.144535"><ele>121.0</ele><time>2026-05-03T12:18:46.273Z</time></trkpt><trkpt lat="42.4471667" lon="14.14451"><ele>121.0</ele><time>2026-05-03T12:18:47.273Z</time></trkpt><trkpt lat="42.4472783" lon="14.1445083"><ele>122.0</ele><time>2026-05-03T12:18:48.273Z</time></trkpt><trkpt lat="42.447375" lon="14.1445417"><ele>123.0</ele><time>2026-05-03T12:18:49.273Z</time></trkpt><trkpt lat="42.447455" lon="14.144605"><ele>124.0</ele><time>2026-05-03T12:18:50.273Z</time></trkpt><trkpt lat="42.4475117" lon="14.1446983"><ele>125.0</ele><time>2026-05-03T12:18:51.273Z</time></trkpt><trkpt lat="42.4475483" lon="14.14482"><ele>126.0</ele><time>2026-05-03T12:18:52.274Z</time></trkpt><trkpt lat="42.4475633" lon="14.1449467"><ele>126.19999999999999</ele><time>2026-05-03T12:18:53.273Z</time></trkpt><trkpt lat="42.4475667" lon="14.145085"><ele>126.39999999999999</ele><time>2026-05-03T12:18:54.273Z</time></trkpt><trkpt lat="42.4475683" lon="14.145225"><ele>126.6</ele><time>2026-05-03T12:18:55.273Z</time></trkpt><trkpt lat="42.4475767" lon="14.14537"><ele>126.8</ele><time>2026-05-03T12:18:56.273Z</time></trkpt><trkpt lat="42.44758" lon="14.1455133"><ele>127.0</ele><time>2026-05-03T12:18:57.274Z</time></trkpt><trkpt lat="42.447605" lon="14.1456317"><ele>127.39999999999999</ele><time>2026-05-03T12:18:58.273Z</time></trkpt><trkpt lat="42.44763" lon="14.14574"><ele>127.79999999999998</ele><time>2026-05-03T12:18:59.273Z</time></trkpt><trkpt lat="42.447675" lon="14.1458367"><ele>128.2</ele><time>2026-05-03T12:19:00.273Z</time></trkpt><trkpt lat="42.4477283" lon="14.1459267"><ele>128.6</ele><time>2026-05-03T12:19:01.273Z</time></trkpt><trkpt lat="42.4478033" lon="14.146025"><ele>129.0</ele><time>2026-05-03T12:19:02.273Z</time></trkpt><trkpt lat="42.4478926" lon="14.1461232"><ele>132.25</ele><time>2026-05-03T12:19:03.273Z</time></trkpt><trkpt lat="42.448002" lon="14.1462235"><ele>135.5</ele><time>2026-05-03T12:19:04.274Z</time></trkpt><trkpt lat="42.4481292" lon="14.1463114"><ele>138.75</ele><time>2026-05-03T12:19:05.273Z</time></trkpt><trkpt lat="42.4482563" lon="14.1463745"><ele>142.0</ele><time>2026-05-03T12:19:06.273Z</time></trkpt><trkpt lat="42.4483834" lon="14.1464179"><ele>142.0</ele><time>2026-05-03T12:19:07.273Z</time></trkpt><trkpt lat="42.4484964" lon="14.14645"><ele>142.0</ele><time>2026-05-03T12:19:08.273Z</time></trkpt><trkpt lat="42.448605" lon="14.146466"><ele>142.0</ele><time>2026-05-03T12:19:09.273Z</time></trkpt><trkpt lat="42.448703" lon="14.1464629"><ele>142.0</ele><time>2026-05-03T12:19:10.273Z</time></trkpt><trkpt lat="42.4487906" lon="14.1464359"><ele>142.0</ele><time>2026-05-03T12:19:11.273Z</time></trkpt><trkpt lat="42.4488805" lon="14.1463916"><ele>142.4</ele><time>2026-05-03T12:19:12.273Z</time></trkpt><trkpt lat="42.4489708" lon="14.1463298"><ele>142.79999999999998</ele><time>2026-05-03T12:19:13.273Z</time></trkpt><trkpt lat="42.4490601" lon="14.146249"><ele>143.2</ele><time>2026-05-03T12:19:14.273Z</time></trkpt><trkpt lat="42.4491427" lon="14.1461484"><ele>143.6</ele><time>2026-05-03T12:19:15.273Z</time></trkpt><trkpt lat="42.4492192" lon="14.1460374"><ele>144.0</ele><time>2026-05-03T12:19:16.274Z</time></trkpt><trkpt lat="42.4492911" lon="14.1459156"><ele>144.0</ele><time>2026-05-03T12:19:17.273Z</time></trkpt><trkpt lat="42.4493605" lon="14.1457857"><ele>144.0</ele><time>2026-05-03T12:19:18.273Z</time></trkpt><trkpt lat="42.4494311" lon="14.1456444"><ele>144.0</ele><time>2026-05-03T12:19:19.273Z</time></trkpt><trkpt lat="42.4495033" lon="14.1454967"><ele>144.0</ele><time>2026-05-03T12:19:20.273Z</time></trkpt><trkpt lat="42.4495783" lon="14.145335"><ele>143.5</ele><time>2026-05-03T12:19:21.274Z</time></trkpt><trkpt lat="42.449655" lon="14.1451733"><ele>143.0</ele><time>2026-05-03T12:19:22.274Z</time></trkpt><trkpt lat="42.4497167" lon="14.145015"><ele>142.5</ele><time>2026-05-03T12:19:23.273Z</time></trkpt><trkpt lat="42.44978" lon="14.1448517"><ele>142.0</ele><time>2026-05-03T12:19:24.273Z</time></trkpt><trkpt lat="42.4498433" lon="14.14469"><ele>142.0</ele><time>2026-05-03T12:19:25.273Z</time></trkpt><trkpt lat="42.4498933" lon="14.1445117"><ele>142.0</ele><time>2026-05-03T12:19:26.273Z</time></trkpt><trkpt lat="42.4499283" lon="14.1443483"><ele>142.0</ele><time>2026-05-03T12:19:27.274Z</time></trkpt><trkpt lat="42.449945" lon="14.1441733"><ele>142.0</ele><time>2026-05-03T12:19:28.274Z</time></trkpt><trkpt lat="42.44995" lon="14.1439883"><ele>141.0</ele><time>2026-05-03T12:19:29.273Z</time></trkpt><trkpt lat="42.4499583" lon="14.1438023"><ele>140.0</ele><time>2026-05-03T12:19:30.273Z</time></trkpt><trkpt lat="42.4499373" lon="14.1435994"><ele>139.0</ele><time>2026-05-03T12:19:31.273Z</time></trkpt><trkpt lat="42.4499147" lon="14.1434027"><ele>138.0</ele><time>2026-05-03T12:19:32.273Z</time></trkpt><trkpt lat="42.4498941" lon="14.1432117"><ele>137.75</ele><time>2026-05-03T12:19:33.273Z</time></trkpt><trkpt lat="42.4498678" lon="14.1430328"><ele>137.5</ele><time>2026-05-03T12:19:34.273Z</time></trkpt><trkpt lat="42.4498266" lon="14.1428717"><ele>137.25</ele><time>2026-05-03T12:19:35.274Z</time></trkpt><trkpt lat="42.4497768" lon="14.14272"><ele>137.0</ele><time>2026-05-03T12:19:36.272Z</time></trkpt><trkpt lat="42.4497283" lon="14.1425761"><ele>137.0</ele><time>2026-05-03T12:19:37.273Z</time></trkpt><trkpt lat="42.4496795" lon="14.1424422"><ele>137.0</ele><time>2026-05-03T12:19:38.272Z</time></trkpt><trkpt lat="42.4496286" lon="14.1423187"><ele>137.0</ele><time>2026-05-03T12:19:39.273Z</time></trkpt><trkpt lat="42.4495835" lon="14.1422001"><ele>137.0</ele><time>2026-05-03T12:19:40.272Z</time></trkpt><trkpt lat="42.449548" lon="14.1420738"><ele>137.0</ele><time>2026-05-03T12:19:41.272Z</time></trkpt><trkpt lat="42.4495369" lon="14.1419566"><ele>137.5</ele><time>2026-05-03T12:19:42.272Z</time></trkpt><trkpt lat="42.4495573" lon="14.1418478"><ele>138.0</ele><time>2026-05-03T12:19:43.273Z</time></trkpt><trkpt lat="42.4496059" lon="14.1417615"><ele>138.5</ele><time>2026-05-03T12:19:44.272Z</time></trkpt><trkpt lat="42.4496695" lon="14.1416896"><ele>139.0</ele><time>2026-05-03T12:19:45.272Z</time></trkpt><trkpt lat="42.4497452" lon="14.1416344"><ele>139.5</ele><time>2026-05-03T12:19:46.272Z</time></trkpt><trkpt lat="42.4498287" lon="14.1415821"><ele>140.0</ele><time>2026-05-03T12:19:47.272Z</time></trkpt><trkpt lat="42.449916" lon="14.1415259"><ele>141.0</ele><time>2026-05-03T12:19:48.272Z</time></trkpt><trkpt lat="42.4500075" lon="14.1414729"><ele>142.0</ele><time>2026-05-03T12:19:49.272Z</time></trkpt><trkpt lat="42.4501006" lon="14.141415"><ele>143.0</ele><time>2026-05-03T12:19:50.272Z</time></trkpt><trkpt lat="42.450199" lon="14.1413627"><ele>144.0</ele><time>2026-05-03T12:19:51.272Z</time></trkpt><trkpt lat="42.4503041" lon="14.1413112"><ele>145.0</ele><time>2026-05-03T12:19:52.272Z</time></trkpt><trkpt lat="42.4504058" lon="14.1412556"><ele>146.25</ele><time>2026-05-03T12:19:53.272Z</time></trkpt><trkpt lat="42.4505124" lon="14.1412102"><ele>147.5</ele><time>2026-05-03T12:19:54.272Z</time></trkpt><trkpt lat="42.4506225" lon="14.1411699"><ele>148.75</ele><time>2026-05-03T12:19:55.272Z</time></trkpt><trkpt lat="42.4507431" lon="14.1411369"><ele>150.0</ele><time>2026-05-03T12:19:56.272Z</time></trkpt><trkpt lat="42.4508671" lon="14.1411046"><ele>150.0</ele><time>2026-05-03T12:19:57.272Z</time></trkpt><trkpt lat="42.4509953" lon="14.1410665"><ele>150.0</ele><time>2026-05-03T12:19:58.272Z</time></trkpt><trkpt lat="42.4511282" lon="14.141025"><ele>150.0</ele><time>2026-05-03T12:19:59.272Z</time></trkpt><trkpt lat="42.4512651" lon="14.1409857"><ele>150.0</ele><time>2026-05-03T12:20:00.273Z</time></trkpt><trkpt lat="42.4513993" lon="14.1409446"><ele>150.5</ele><time>2026-05-03T12:20:01.272Z</time></trkpt><trkpt lat="42.4515384" lon="14.1409058"><ele>151.0</ele><time>2026-05-03T12:20:02.272Z</time></trkpt><trkpt lat="42.451681" lon="14.1408776"><ele>151.5</ele><time>2026-05-03T12:20:03.272Z</time></trkpt><trkpt lat="42.451825" lon="14.140845"><ele>152.0</ele><time>2026-05-03T12:20:04.272Z</time></trkpt><trkpt lat="42.4519783" lon="14.1408183"><ele>151.75</ele><time>2026-05-03T12:20:05.272Z</time></trkpt><trkpt lat="42.45213" lon="14.140795"><ele>151.5</ele><time>2026-05-03T12:20:06.272Z</time></trkpt><trkpt lat="42.452265" lon="14.14077"><ele>151.25</ele><time>2026-05-03T12:20:07.272Z</time></trkpt><trkpt lat="42.45238" lon="14.1407467"><ele>151.0</ele><time>2026-05-03T12:20:08.272Z</time></trkpt><trkpt lat="42.4524933" lon="14.140725"><ele>151.2</ele><time>2026-05-03T12:20:09.272Z</time></trkpt><trkpt lat="42.4526" lon="14.140705"><ele>151.39999999999998</ele><time>2026-05-03T12:20:10.272Z</time></trkpt><trkpt lat="42.452695" lon="14.14068"><ele>151.6</ele><time>2026-05-03T12:20:11.272Z</time></trkpt><trkpt lat="42.4527783" lon="14.140655"><ele>151.79999999999998</ele><time>2026-05-03T12:20:12.272Z</time></trkpt><trkpt lat="42.4528517" lon="14.14063"><ele>152.0</ele><time>2026-05-03T12:20:13.272Z</time></trkpt><trkpt lat="42.45297" lon="14.1406017"><ele>155.39999999999998</ele><time>2026-05-03T12:20:15.272Z</time></trkpt><trkpt lat="42.4530383" lon="14.1405717"><ele>158.79999999999998</ele><time>2026-05-03T12:20:16.272Z</time></trkpt><trkpt lat="42.4531233" lon="14.1405267"><ele>162.2</ele><time>2026-05-03T12:20:17.272Z</time></trkpt><trkpt lat="42.4532317" lon="14.1404617"><ele>165.6</ele><time>2026-05-03T12:20:18.272Z</time></trkpt><trkpt lat="42.4533567" lon="14.1403783"><ele>169.0</ele><time>2026-05-03T12:20:19.273Z</time></trkpt><trkpt lat="42.4534717" lon="14.1403117"><ele>169.0</ele><time>2026-05-03T12:20:20.272Z</time></trkpt><trkpt lat="42.4535783" lon="14.1402517"><ele>169.0</ele><time>2026-05-03T12:20:21.272Z</time></trkpt><trkpt lat="42.453685" lon="14.140195"><ele>169.0</ele><time>2026-05-03T12:20:22.272Z</time></trkpt><trkpt lat="42.4537867" lon="14.140125"><ele>169.0</ele><time>2026-05-03T12:20:23.272Z</time></trkpt><trkpt lat="42.4538783" lon="14.1400233"><ele>169.75</ele><time>2026-05-03T12:20:24.272Z</time></trkpt><trkpt lat="42.4539717" lon="14.139895"><ele>170.5</ele><time>2026-05-03T12:20:25.272Z</time></trkpt><trkpt lat="42.4540567" lon="14.1397283"><ele>171.25</ele><time>2026-05-03T12:20:26.272Z</time></trkpt><trkpt lat="42.4541467" lon="14.1395433"><ele>172.0</ele><time>2026-05-03T12:20:27.272Z</time></trkpt><trkpt lat="42.4542283" lon="14.13936"><ele>172.5</ele><time>2026-05-03T12:20:28.272Z</time></trkpt><trkpt lat="42.454305" lon="14.1391917"><ele>173.0</ele><time>2026-05-03T12:20:29.272Z</time></trkpt><trkpt lat="42.45439" lon="14.139035"><ele>173.5</ele><time>2026-05-03T12:20:30.273Z</time></trkpt><trkpt lat="42.454475" lon="14.1388833"><ele>174.0</ele><time>2026-05-03T12:20:31.272Z</time></trkpt><trkpt lat="42.4545517" lon="14.1387517"><ele>173.75</ele><time>2026-05-03T12:20:32.272Z</time></trkpt><trkpt lat="42.4546217" lon="14.1386183"><ele>173.5</ele><time>2026-05-03T12:20:33.272Z</time></trkpt><trkpt lat="42.4546917" lon="14.138495"><ele>173.25</ele><time>2026-05-03T12:20:34.272Z</time></trkpt><trkpt lat="42.45476" lon="14.1383833"><ele>173.0</ele><time>2026-05-03T12:20:35.272Z</time></trkpt><trkpt lat="42.4548333" lon="14.1382667"><ele>172.25</ele><time>2026-05-03T12:20:36.272Z</time></trkpt><trkpt lat="42.4549067" lon="14.138145"><ele>171.5</ele><time>2026-05-03T12:20:37.272Z</time></trkpt><trkpt lat="42.45497" lon="14.1380017"><ele>170.75</ele><time>2026-05-03T12:20:38.272Z</time></trkpt><trkpt lat="42.4550117" lon="14.13784"><ele>170.0</ele><time>2026-05-03T12:20:39.272Z</time></trkpt><trkpt lat="42.4550367" lon="14.1376783"><ele>170.0</ele><time>2026-05-03T12:20:40.272Z</time></trkpt><trkpt lat="42.4550483" lon="14.1375"><ele>170.0</ele><time>2026-05-03T12:20:41.272Z</time></trkpt><trkpt lat="42.455045" lon="14.1373183"><ele>170.0</ele><time>2026-05-03T12:20:42.272Z</time></trkpt><trkpt lat="42.45504" lon="14.1371483"><ele>170.0</ele><time>2026-05-03T12:20:43.272Z</time></trkpt><trkpt lat="42.455035" lon="14.1369833"><ele>170.5</ele><time>2026-05-03T12:20:44.273Z</time></trkpt><trkpt lat="42.45503" lon="14.1368333"><ele>171.0</ele><time>2026-05-03T12:20:45.272Z</time></trkpt><trkpt lat="42.455035" lon="14.1366967"><ele>171.5</ele><time>2026-05-03T12:20:46.272Z</time></trkpt><trkpt lat="42.45503" lon="14.1365733"><ele>172.0</ele><time>2026-05-03T12:20:47.272Z</time></trkpt><trkpt lat="42.4550383" lon="14.13647"><ele>172.5</ele><time>2026-05-03T12:20:48.272Z</time></trkpt><trkpt lat="42.4550617" lon="14.1363833"><ele>173.0</ele><time>2026-05-03T12:20:49.272Z</time></trkpt><trkpt lat="42.455185" lon="14.1363267"><ele>174.16666666666666</ele><time>2026-05-03T12:20:51.273Z</time></trkpt><trkpt lat="42.4552717" lon="14.1363133"><ele>175.33333333333331</ele><time>2026-05-03T12:20:52.272Z</time></trkpt><trkpt lat="42.4553517" lon="14.1362983"><ele>176.5</ele><time>2026-05-03T12:20:53.272Z</time></trkpt><trkpt lat="42.4554317" lon="14.13627"><ele>177.66666666666666</ele><time>2026-05-03T12:20:54.272Z</time></trkpt><trkpt lat="42.4555017" lon="14.1362233"><ele>178.83333333333334</ele><time>2026-05-03T12:20:55.272Z</time></trkpt><trkpt lat="42.45556" lon="14.1361833"><ele>180.0</ele><time>2026-05-03T12:20:56.272Z</time></trkpt><trkpt lat="42.4556267" lon="14.1361417"><ele>180.0</ele><time>2026-05-03T12:20:57.272Z</time></trkpt><trkpt lat="42.4557033" lon="14.1361"><ele>180.0</ele><time>2026-05-03T12:20:58.272Z</time></trkpt><trkpt lat="42.4557967" lon="14.1360267"><ele>180.0</ele><time>2026-05-03T12:20:59.272Z</time></trkpt><trkpt lat="42.4558967" lon="14.13594"><ele>180.0</ele><time>2026-05-03T12:21:00.272Z</time></trkpt><trkpt lat="42.4559983" lon="14.1358233"><ele>180.0</ele><time>2026-05-03T12:21:01.272Z</time></trkpt><trkpt lat="42.4560867" lon="14.13568"><ele>184.66666666666669</ele><time>2026-05-03T12:21:02.272Z</time></trkpt><trkpt lat="42.4561667" lon="14.1355083"><ele>189.33333333333334</ele><time>2026-05-03T12:21:03.272Z</time></trkpt><trkpt lat="42.4562317" lon="14.1353183"><ele>194.0</ele><time>2026-05-03T12:21:04.272Z</time></trkpt><trkpt lat="42.4562867" lon="14.1351317"><ele>187.5</ele><time>2026-05-03T12:21:05.273Z</time></trkpt><trkpt lat="42.456335" lon="14.1349583"><ele>181.0</ele><time>2026-05-03T12:21:06.272Z</time></trkpt><trkpt lat="42.4563867" lon="14.1347883"><ele>174.5</ele><time>2026-05-03T12:21:07.272Z</time></trkpt><trkpt lat="42.45644" lon="14.1346133"><ele>168.0</ele><time>2026-05-03T12:21:08.272Z</time></trkpt><trkpt lat="42.4565" lon="14.1344217"><ele>168.0</ele><time>2026-05-03T12:21:09.272Z</time></trkpt><trkpt lat="42.456555" lon="14.1342233"><ele>168.0</ele><time>2026-05-03T12:21:10.273Z</time></trkpt><trkpt lat="42.456615" lon="14.1340183"><ele>168.0</ele><time>2026-05-03T12:21:11.273Z</time></trkpt><trkpt lat="42.4566633" lon="14.1338133"><ele>168.0</ele><time>2026-05-03T12:21:12.272Z</time></trkpt><trkpt lat="42.4567033" lon="14.1335983"><ele>168.0</ele><time>2026-05-03T12:21:13.272Z</time></trkpt><trkpt lat="42.45674" lon="14.1333867"><ele>168.0</ele><time>2026-05-03T12:21:14.272Z</time></trkpt><trkpt lat="42.4567717" lon="14.133195"><ele>167.5</ele><time>2026-05-03T12:21:15.272Z</time></trkpt><trkpt lat="42.4568033" lon="14.1330067"><ele>167.0</ele><time>2026-05-03T12:21:16.272Z</time></trkpt><trkpt lat="42.4568317" lon="14.1328083"><ele>166.5</ele><time>2026-05-03T12:21:17.273Z</time></trkpt><trkpt lat="42.45687" lon="14.1326067"><ele>166.0</ele><time>2026-05-03T12:21:18.272Z</time></trkpt><trkpt lat="42.4569267" lon="14.1324033"><ele>166.0</ele><time>2026-05-03T12:21:19.272Z</time></trkpt><trkpt lat="42.4569967" lon="14.132205"><ele>166.0</ele><time>2026-05-03T12:21:20.272Z</time></trkpt><trkpt lat="42.45708" lon="14.1320083"><ele>166.0</ele><time>2026-05-03T12:21:21.272Z</time></trkpt><trkpt lat="42.4571667" lon="14.1318133"><ele>164.0</ele><time>2026-05-03T12:21:22.272Z</time></trkpt><trkpt lat="42.4572617" lon="14.1316133"><ele>162.0</ele><time>2026-05-03T12:21:23.272Z</time></trkpt><trkpt lat="42.457355" lon="14.1313983"><ele>160.0</ele><time>2026-05-03T12:21:24.272Z</time></trkpt><trkpt lat="42.4574517" lon="14.1311717"><ele>160.0</ele><time>2026-05-03T12:21:25.272Z</time></trkpt><trkpt lat="42.45756" lon="14.1309533"><ele>160.0</ele><time>2026-05-03T12:21:26.272Z</time></trkpt><trkpt lat="42.4576733" lon="14.130735"><ele>160.0</ele><time>2026-05-03T12:21:27.273Z</time></trkpt><trkpt lat="42.4578017" lon="14.1305583"><ele>160.33333333333334</ele><time>2026-05-03T12:21:28.272Z</time></trkpt><trkpt lat="42.457935" lon="14.1304067"><ele>160.66666666666666</ele><time>2026-05-03T12:21:29.272Z</time></trkpt><trkpt lat="42.45808" lon="14.1302667"><ele>161.0</ele><time>2026-05-03T12:21:30.272Z</time></trkpt><trkpt lat="42.4582167" lon="14.1301183"><ele>160.66666666666666</ele><time>2026-05-03T12:21:31.272Z</time></trkpt><trkpt lat="42.45834" lon="14.1299467"><ele>160.33333333333334</ele><time>2026-05-03T12:21:32.272Z</time></trkpt><trkpt lat="42.4584483" lon="14.129765"><ele>160.0</ele><time>2026-05-03T12:21:33.272Z</time></trkpt><trkpt lat="42.4585417" lon="14.12957"><ele>160.0</ele><time>2026-05-03T12:21:34.272Z</time></trkpt><trkpt lat="42.458625" lon="14.12938"><ele>160.0</ele><time>2026-05-03T12:21:35.272Z</time></trkpt><trkpt lat="42.4586783" lon="14.12919"><ele>160.0</ele><time>2026-05-03T12:21:36.272Z</time></trkpt><trkpt lat="42.45871" lon="14.1290033"><ele>158.33333333333334</ele><time>2026-05-03T12:21:37.272Z</time></trkpt><trkpt lat="42.4587283" lon="14.128805"><ele>156.66666666666666</ele><time>2026-05-03T12:21:38.272Z</time></trkpt><trkpt lat="42.4587183" lon="14.12859"><ele>155.0</ele><time>2026-05-03T12:21:39.272Z</time></trkpt><trkpt lat="42.4586817" lon="14.1283783"><ele>157.66666666666666</ele><time>2026-05-03T12:21:40.272Z</time></trkpt><trkpt lat="42.4586117" lon="14.1281617"><ele>160.33333333333334</ele><time>2026-05-03T12:21:41.272Z</time></trkpt><trkpt lat="42.4585383" lon="14.12795"><ele>163.0</ele><time>2026-05-03T12:21:42.272Z</time></trkpt><trkpt lat="42.4584617" lon="14.1277433"><ele>163.0</ele><time>2026-05-03T12:21:43.273Z</time></trkpt><trkpt lat="42.45838" lon="14.1275533"><ele>163.0</ele><time>2026-05-03T12:21:44.272Z</time></trkpt><trkpt lat="42.4582867" lon="14.127385"><ele>163.0</ele><time>2026-05-03T12:21:45.272Z</time></trkpt><trkpt lat="42.4581817" lon="14.12724"><ele>160.66666666666669</ele><time>2026-05-03T12:21:46.272Z</time></trkpt><trkpt lat="42.4580633" lon="14.1271083"><ele>158.33333333333334</ele><time>2026-05-03T12:21:47.272Z</time></trkpt><trkpt lat="42.4579417" lon="14.1269717"><ele>156.0</ele><time>2026-05-03T12:21:48.272Z</time></trkpt><trkpt lat="42.4578333" lon="14.1268083"><ele>156.0</ele><time>2026-05-03T12:21:49.272Z</time></trkpt><trkpt lat="42.4577367" lon="14.1266333"><ele>156.0</ele><time>2026-05-03T12:21:50.273Z</time></trkpt><trkpt lat="42.4576467" lon="14.1264467"><ele>156.0</ele><time>2026-05-03T12:21:51.272Z</time></trkpt><trkpt lat="42.45756" lon="14.126255"><ele>158.75</ele><time>2026-05-03T12:21:52.272Z</time></trkpt><trkpt lat="42.457475" lon="14.12607"><ele>161.5</ele><time>2026-05-03T12:21:53.272Z</time></trkpt><trkpt lat="42.4573983" lon="14.1259"><ele>164.25</ele><time>2026-05-03T12:21:54.272Z</time></trkpt><trkpt lat="42.4573417" lon="14.125735"><ele>167.0</ele><time>2026-05-03T12:21:55.272Z</time></trkpt><trkpt lat="42.4573017" lon="14.125565"><ele>168.0</ele><time>2026-05-03T12:21:56.273Z</time></trkpt><trkpt lat="42.4572633" lon="14.1253917"><ele>169.0</ele><time>2026-05-03T12:21:57.272Z</time></trkpt><trkpt lat="42.457235" lon="14.1252083"><ele>170.0</ele><time>2026-05-03T12:21:58.272Z</time></trkpt><trkpt lat="42.4572233" lon="14.1250183"><ele>171.0</ele><time>2026-05-03T12:21:59.272Z</time></trkpt><trkpt lat="42.4572267" lon="14.124825"><ele>171.0</ele><time>2026-05-03T12:22:00.272Z</time></trkpt><trkpt lat="42.4572417" lon="14.1246067"><ele>171.0</ele><time>2026-05-03T12:22:01.273Z</time></trkpt><trkpt lat="42.457265" lon="14.12439"><ele>171.0</ele><time>2026-05-03T12:22:02.272Z</time></trkpt><trkpt lat="42.4573067" lon="14.1241733"><ele>168.66666666666666</ele><time>2026-05-03T12:22:03.272Z</time></trkpt><trkpt lat="42.457365" lon="14.1239667"><ele>166.33333333333331</ele><time>2026-05-03T12:22:04.272Z</time></trkpt><trkpt lat="42.4574367" lon="14.123745"><ele>164.0</ele><time>2026-05-03T12:22:05.272Z</time></trkpt><trkpt lat="42.45751" lon="14.1235117"><ele>164.0</ele><time>2026-05-03T12:22:06.272Z</time></trkpt><trkpt lat="42.4575883" lon="14.1232783"><ele>164.0</ele><time>2026-05-03T12:22:07.272Z</time></trkpt><trkpt lat="42.4576667" lon="14.12305"><ele>164.0</ele><time>2026-05-03T12:22:08.272Z</time></trkpt><trkpt lat="42.45773" lon="14.1228233"><ele>163.33333333333331</ele><time>2026-05-03T12:22:09.272Z</time></trkpt><trkpt lat="42.4577933" lon="14.1226117"><ele>162.66666666666666</ele><time>2026-05-03T12:22:10.272Z</time></trkpt><trkpt lat="42.457865" lon="14.122415"><ele>162.0</ele><time>2026-05-03T12:22:11.272Z</time></trkpt><trkpt lat="42.4579433" lon="14.1222267"><ele>161.33333333333334</ele><time>2026-05-03T12:22:12.272Z</time></trkpt><trkpt lat="42.458035" lon="14.1220467"><ele>160.66666666666669</ele><time>2026-05-03T12:22:13.272Z</time></trkpt><trkpt lat="42.45815" lon="14.1218933"><ele>160.0</ele><time>2026-05-03T12:22:14.273Z</time></trkpt><trkpt lat="42.4582717" lon="14.1217283"><ele>160.0</ele><time>2026-05-03T12:22:15.272Z</time></trkpt><trkpt lat="42.458405" lon="14.12158"><ele>160.0</ele><time>2026-05-03T12:22:16.272Z</time></trkpt><trkpt lat="42.4585433" lon="14.121435"><ele>160.0</ele><time>2026-05-03T12:22:17.273Z</time></trkpt><trkpt lat="42.4586833" lon="14.121285"><ele>160.0</ele><time>2026-05-03T12:22:18.272Z</time></trkpt><trkpt lat="42.458835" lon="14.1211333"><ele>160.0</ele><time>2026-05-03T12:22:19.273Z</time></trkpt><trkpt lat="42.4589817" lon="14.1209783"><ele>160.0</ele><time>2026-05-03T12:22:20.272Z</time></trkpt><trkpt lat="42.459131" lon="14.1208183"><ele>159.66666666666669</ele><time>2026-05-03T12:22:21.272Z</time></trkpt><trkpt lat="42.4592803" lon="14.1206628"><ele>159.33333333333334</ele><time>2026-05-03T12:22:22.272Z</time></trkpt><trkpt lat="42.4594179" lon="14.1205144"><ele>159.0</ele><time>2026-05-03T12:22:23.272Z</time></trkpt><trkpt lat="42.4595469" lon="14.1203836"><ele>159.25</ele><time>2026-05-03T12:22:24.272Z</time></trkpt><trkpt lat="42.459658" lon="14.1202736"><ele>159.5</ele><time>2026-05-03T12:22:25.272Z</time></trkpt><trkpt lat="42.4597533" lon="14.1201893"><ele>159.75</ele><time>2026-05-03T12:22:26.272Z</time></trkpt><trkpt lat="42.4598495" lon="14.1201187"><ele>160.0</ele><time>2026-05-03T12:22:27.272Z</time></trkpt><trkpt lat="42.4599626" lon="14.1200603"><ele>160.0</ele><time>2026-05-03T12:22:28.272Z</time></trkpt><trkpt lat="42.4600839" lon="14.1200197"><ele>160.0</ele><time>2026-05-03T12:22:29.272Z</time></trkpt><trkpt lat="42.4602013" lon="14.1200023"><ele>160.0</ele><time>2026-05-03T12:22:30.272Z</time></trkpt><trkpt lat="42.4603236" lon="14.1200246"><ele>160.0</ele><time>2026-05-03T12:22:31.272Z</time></trkpt><trkpt lat="42.460456" lon="14.120074"><ele>160.66666666666669</ele><time>2026-05-03T12:22:32.272Z</time></trkpt><trkpt lat="42.4606002" lon="14.1201347"><ele>161.33333333333334</ele><time>2026-05-03T12:22:33.272Z</time></trkpt><trkpt lat="42.4607627" lon="14.1201975"><ele>162.0</ele><time>2026-05-03T12:22:34.273Z</time></trkpt><trkpt lat="42.4609341" lon="14.1202576"><ele>162.0</ele><time>2026-05-03T12:22:35.272Z</time></trkpt><trkpt lat="42.4610982" lon="14.1203064"><ele>162.0</ele><time>2026-05-03T12:22:36.272Z</time></trkpt><trkpt lat="42.4612572" lon="14.1203572"><ele>162.0</ele><time>2026-05-03T12:22:37.272Z</time></trkpt><trkpt lat="42.4614186" lon="14.1204402"><ele>164.33333333333334</ele><time>2026-05-03T12:22:38.272Z</time></trkpt><trkpt lat="42.4615769" lon="14.1205508"><ele>166.66666666666669</ele><time>2026-05-03T12:22:39.272Z</time></trkpt><trkpt lat="42.4617333" lon="14.1206755"><ele>169.0</ele><time>2026-05-03T12:22:40.272Z</time></trkpt><trkpt lat="42.4618851" lon="14.1208076"><ele>168.0</ele><time>2026-05-03T12:22:41.272Z</time></trkpt><trkpt lat="42.4620416" lon="14.120934"><ele>167.0</ele><time>2026-05-03T12:22:42.272Z</time></trkpt><trkpt lat="42.4622028" lon="14.121057"><ele>166.0</ele><time>2026-05-03T12:22:43.273Z</time></trkpt><trkpt lat="42.4623691" lon="14.1211849"><ele>166.0</ele><time>2026-05-03T12:22:44.272Z</time></trkpt><trkpt lat="42.4625386" lon="14.1213058"><ele>166.0</ele><time>2026-05-03T12:22:45.272Z</time></trkpt><trkpt lat="42.4627014" lon="14.1214243"><ele>166.0</ele><time>2026-05-03T12:22:46.272Z</time></trkpt><trkpt lat="42.4628557" lon="14.1215374"><ele>162.33333333333334</ele><time>2026-05-03T12:22:47.272Z</time></trkpt><trkpt lat="42.4630068" lon="14.1216408"><ele>158.66666666666666</ele><time>2026-05-03T12:22:48.272Z</time></trkpt><trkpt lat="42.4631441" lon="14.1217425"><ele>155.0</ele><time>2026-05-03T12:22:49.273Z</time></trkpt><trkpt lat="42.4632764" lon="14.1218373"><ele>155.0</ele><time>2026-05-03T12:22:50.273Z</time></trkpt><trkpt lat="42.4634" lon="14.1219217"><ele>155.0</ele><time>2026-05-03T12:22:51.272Z</time></trkpt><trkpt lat="42.4635267" lon="14.12201"><ele>155.0</ele><time>2026-05-03T12:22:52.272Z</time></trkpt><trkpt lat="42.4636483" lon="14.1220983"><ele>155.0</ele><time>2026-05-03T12:22:53.272Z</time></trkpt><trkpt lat="42.4637633" lon="14.1222"><ele>154.0</ele><time>2026-05-03T12:22:54.273Z</time></trkpt><trkpt lat="42.4638783" lon="14.12232"><ele>153.0</ele><time>2026-05-03T12:22:55.272Z</time></trkpt><trkpt lat="42.4639717" lon="14.1224617"><ele>152.0</ele><time>2026-05-03T12:22:56.272Z</time></trkpt><trkpt lat="42.4640533" lon="14.1226267"><ele>151.0</ele><time>2026-05-03T12:22:57.272Z</time></trkpt><trkpt lat="42.46414" lon="14.1228083"><ele>150.33333333333334</ele><time>2026-05-03T12:22:58.272Z</time></trkpt><trkpt lat="42.464215" lon="14.1229967"><ele>149.66666666666666</ele><time>2026-05-03T12:22:59.272Z</time></trkpt><trkpt lat="42.46428" lon="14.1231933"><ele>149.0</ele><time>2026-05-03T12:23:00.272Z</time></trkpt><trkpt lat="42.4643317" lon="14.123395"><ele>149.0</ele><time>2026-05-03T12:23:01.272Z</time></trkpt><trkpt lat="42.4643717" lon="14.1236067"><ele>149.0</ele><time>2026-05-03T12:23:02.272Z</time></trkpt><trkpt lat="42.464435" lon="14.1238083"><ele>149.0</ele><time>2026-05-03T12:23:03.272Z</time></trkpt><trkpt lat="42.4645083" lon="14.1239983"><ele>147.33333333333331</ele><time>2026-05-03T12:23:04.272Z</time></trkpt><trkpt lat="42.4646" lon="14.1241733"><ele>145.66666666666666</ele><time>2026-05-03T12:23:05.272Z</time></trkpt><trkpt lat="42.4647" lon="14.1243283"><ele>144.0</ele><time>2026-05-03T12:23:06.273Z</time></trkpt><trkpt lat="42.4648133" lon="14.1244733"><ele>143.0</ele><time>2026-05-03T12:23:07.272Z</time></trkpt><trkpt lat="42.4649383" lon="14.1246317"><ele>142.0</ele><time>2026-05-03T12:23:08.272Z</time></trkpt><trkpt lat="42.4650517" lon="14.124805"><ele>141.0</ele><time>2026-05-03T12:23:09.272Z</time></trkpt><trkpt lat="42.4651483" lon="14.1249933"><ele>139.33333333333334</ele><time>2026-05-03T12:23:10.272Z</time></trkpt><trkpt lat="42.4652467" lon="14.1251767"><ele>137.66666666666669</ele><time>2026-05-03T12:23:11.272Z</time></trkpt><trkpt lat="42.4653533" lon="14.125365"><ele>136.0</ele><time>2026-05-03T12:23:12.272Z</time></trkpt><trkpt lat="42.46547" lon="14.1255533"><ele>136.0</ele><time>2026-05-03T12:23:13.272Z</time></trkpt><trkpt lat="42.4655967" lon="14.1257167"><ele>136.0</ele><time>2026-05-03T12:23:14.272Z</time></trkpt><trkpt lat="42.4657233" lon="14.125855"><ele>136.0</ele><time>2026-05-03T12:23:15.273Z</time></trkpt><trkpt lat="42.4658517" lon="14.125975"><ele>135.33333333333334</ele><time>2026-05-03T12:23:16.272Z</time></trkpt><trkpt lat="42.4659917" lon="14.1260517"><ele>134.66666666666666</ele><time>2026-05-03T12:23:17.272Z</time></trkpt><trkpt lat="42.46614" lon="14.1261033"><ele>134.0</ele><time>2026-05-03T12:23:18.272Z</time></trkpt><trkpt lat="42.4662933" lon="14.126135"><ele>134.0</ele><time>2026-05-03T12:23:19.272Z</time></trkpt><trkpt lat="42.466435" lon="14.12615"><ele>134.0</ele><time>2026-05-03T12:23:20.272Z</time></trkpt><trkpt lat="42.4665667" lon="14.126175"><ele>134.0</ele><time>2026-05-03T12:23:21.272Z</time></trkpt><trkpt lat="42.466685" lon="14.1262417"><ele>134.0</ele><time>2026-05-03T12:23:22.272Z</time></trkpt><trkpt lat="42.4667833" lon="14.126365"><ele>134.0</ele><time>2026-05-03T12:23:23.273Z</time></trkpt><trkpt lat="42.4668683" lon="14.12652"><ele>134.0</ele><time>2026-05-03T12:23:24.272Z</time></trkpt><trkpt lat="42.4669567" lon="14.1267"><ele>134.0</ele><time>2026-05-03T12:23:25.272Z</time></trkpt><trkpt lat="42.4670533" lon="14.1268983"><ele>134.33333333333331</ele><time>2026-05-03T12:23:26.272Z</time></trkpt><trkpt lat="42.4671533" lon="14.1271117"><ele>134.66666666666666</ele><time>2026-05-03T12:23:27.272Z</time></trkpt><trkpt lat="42.467255" lon="14.1273383"><ele>135.0</ele><time>2026-05-03T12:23:28.272Z</time></trkpt><trkpt lat="42.467355" lon="14.127575"><ele>138.33333333333334</ele><time>2026-05-03T12:23:29.273Z</time></trkpt><trkpt lat="42.4674567" lon="14.1278183"><ele>141.66666666666669</ele><time>2026-05-03T12:23:30.272Z</time></trkpt><trkpt lat="42.4675367" lon="14.128045"><ele>145.0</ele><time>2026-05-03T12:23:31.272Z</time></trkpt><trkpt lat="42.4675967" lon="14.12825"><ele>145.5</ele><time>2026-05-03T12:23:32.272Z</time></trkpt><trkpt lat="42.4676533" lon="14.12842"><ele>146.0</ele><time>2026-05-03T12:23:33.272Z</time></trkpt><trkpt lat="42.4677083" lon="14.128565"><ele>146.5</ele><time>2026-05-03T12:23:34.272Z</time></trkpt><trkpt lat="42.4678" lon="14.1286917"><ele>147.0</ele><time>2026-05-03T12:23:35.272Z</time></trkpt><trkpt lat="42.4679067" lon="14.1287767"><ele>150.33333333333334</ele><time>2026-05-03T12:23:36.272Z</time></trkpt><trkpt lat="42.4680433" lon="14.12884"><ele>153.66666666666669</ele><time>2026-05-03T12:23:37.272Z</time></trkpt><trkpt lat="42.4681883" lon="14.1288933"><ele>157.0</ele><time>2026-05-03T12:23:38.272Z</time></trkpt><trkpt lat="42.46834" lon="14.1289433"><ele>157.0</ele><time>2026-05-03T12:23:39.272Z</time></trkpt><trkpt lat="42.4685067" lon="14.1289917"><ele>157.0</ele><time>2026-05-03T12:23:40.272Z</time></trkpt><trkpt lat="42.4686783" lon="14.12904"><ele>157.0</ele><time>2026-05-03T12:23:41.272Z</time></trkpt><trkpt lat="42.4688383" lon="14.1290917"><ele>154.66666666666669</ele><time>2026-05-03T12:23:42.272Z</time></trkpt><trkpt lat="42.46899" lon="14.1291417"><ele>152.33333333333334</ele><time>2026-05-03T12:23:43.273Z</time></trkpt><trkpt lat="42.469135" lon="14.1292067"><ele>150.0</ele><time>2026-05-03T12:23:44.272Z</time></trkpt><trkpt lat="42.4692733" lon="14.1292983"><ele>150.0</ele><time>2026-05-03T12:23:45.272Z</time></trkpt><trkpt lat="42.4694067" lon="14.1293967"><ele>150.0</ele><time>2026-05-03T12:23:46.272Z</time></trkpt><trkpt lat="42.4695433" lon="14.12952"><ele>150.0</ele><time>2026-05-03T12:23:47.272Z</time></trkpt><trkpt lat="42.4696783" lon="14.129655"><ele>150.0</ele><time>2026-05-03T12:23:48.272Z</time></trkpt><trkpt lat="42.4698067" lon="14.1298067"><ele>150.0</ele><time>2026-05-03T12:23:49.273Z</time></trkpt><trkpt lat="42.4699433" lon="14.1299717"><ele>150.0</ele><time>2026-05-03T12:23:50.272Z</time></trkpt><trkpt lat="42.47008" lon="14.1301367"><ele>150.0</ele><time>2026-05-03T12:23:51.272Z</time></trkpt><trkpt lat="42.4702217" lon="14.1302983"><ele>150.0</ele><time>2026-05-03T12:23:52.272Z</time></trkpt><trkpt lat="42.470365" lon="14.1304733"><ele>150.0</ele><time>2026-05-03T12:23:53.272Z</time></trkpt><trkpt lat="42.470505" lon="14.1306483"><ele>148.0</ele><time>2026-05-03T12:23:54.273Z</time></trkpt><trkpt lat="42.47064" lon="14.1308217"><ele>146.0</ele><time>2026-05-03T12:23:55.272Z</time></trkpt><trkpt lat="42.4707733" lon="14.130995"><ele>144.0</ele><time>2026-05-03T12:23:56.272Z</time></trkpt><trkpt lat="42.4709117" lon="14.1311783"><ele>144.0</ele><time>2026-05-03T12:23:57.272Z</time></trkpt><trkpt lat="42.4710517" lon="14.131345"><ele>144.0</ele><time>2026-05-03T12:23:58.272Z</time></trkpt><trkpt lat="42.4711733" lon="14.1315"><ele>144.0</ele><time>2026-05-03T12:23:59.272Z</time></trkpt><trkpt lat="42.4712883" lon="14.1316367"><ele>143.5</ele><time>2026-05-03T12:24:00.272Z</time></trkpt><trkpt lat="42.4713817" lon="14.131775"><ele>143.0</ele><time>2026-05-03T12:24:01.272Z</time></trkpt><trkpt lat="42.4714567" lon="14.1319283"><ele>142.5</ele><time>2026-05-03T12:24:02.272Z</time></trkpt><trkpt lat="42.471505" lon="14.1320967"><ele>142.0</ele><time>2026-05-03T12:24:03.272Z</time></trkpt><trkpt lat="42.4715283" lon="14.1322717"><ele>143.5</ele><time>2026-05-03T12:24:04.272Z</time></trkpt><trkpt lat="42.4715367" lon="14.1324683"><ele>145.0</ele><time>2026-05-03T12:24:05.272Z</time></trkpt><trkpt lat="42.47155" lon="14.132665"><ele>146.5</ele><time>2026-05-03T12:24:06.273Z</time></trkpt><trkpt lat="42.4715767" lon="14.1328583"><ele>148.0</ele><time>2026-05-03T12:24:07.273Z</time></trkpt><trkpt lat="42.471625" lon="14.1330183"><ele>148.0</ele><time>2026-05-03T12:24:08.272Z</time></trkpt><trkpt lat="42.471695" lon="14.13316"><ele>148.0</ele><time>2026-05-03T12:24:09.272Z</time></trkpt><trkpt lat="42.4717867" lon="14.1332733"><ele>148.0</ele><time>2026-05-03T12:24:10.272Z</time></trkpt><trkpt lat="42.4718967" lon="14.1333483"><ele>148.0</ele><time>2026-05-03T12:24:11.272Z</time></trkpt><trkpt lat="42.4720233" lon="14.133385"><ele>150.5</ele><time>2026-05-03T12:24:12.272Z</time></trkpt><trkpt lat="42.4721467" lon="14.1333883"><ele>153.0</ele><time>2026-05-03T12:24:13.272Z</time></trkpt><trkpt lat="42.472275" lon="14.1333817"><ele>155.5</ele><time>2026-05-03T12:24:14.272Z</time></trkpt><trkpt lat="42.4724033" lon="14.1333933"><ele>158.0</ele><time>2026-05-03T12:24:15.272Z</time></trkpt><trkpt lat="42.472515" lon="14.1334483"><ele>158.0</ele><time>2026-05-03T12:24:16.272Z</time></trkpt><trkpt lat="42.4726167" lon="14.133545"><ele>158.0</ele><time>2026-05-03T12:24:17.272Z</time></trkpt><trkpt lat="42.4727117" lon="14.1336633"><ele>158.0</ele><time>2026-05-03T12:24:18.272Z</time></trkpt><trkpt lat="42.4728283" lon="14.1337917"><ele>158.0</ele><time>2026-05-03T12:24:19.272Z</time></trkpt><trkpt lat="42.47296" lon="14.133915"><ele>160.66666666666666</ele><time>2026-05-03T12:24:20.272Z</time></trkpt><trkpt lat="42.473105" lon="14.1340083"><ele>163.33333333333334</ele><time>2026-05-03T12:24:21.272Z</time></trkpt><trkpt lat="42.473245" lon="14.1341167"><ele>166.0</ele><time>2026-05-03T12:24:22.272Z</time></trkpt><trkpt lat="42.473365" lon="14.134255"><ele>166.0</ele><time>2026-05-03T12:24:23.272Z</time></trkpt><trkpt lat="42.4734633" lon="14.1343983"><ele>166.0</ele><time>2026-05-03T12:24:24.273Z</time></trkpt><trkpt lat="42.4735333" lon="14.134545"><ele>166.0</ele><time>2026-05-03T12:24:25.272Z</time></trkpt><trkpt lat="42.473575" lon="14.134705"><ele>166.0</ele><time>2026-05-03T12:24:26.272Z</time></trkpt><trkpt lat="42.4736017" lon="14.1348667"><ele>164.4</ele><time>2026-05-03T12:24:27.272Z</time></trkpt><trkpt lat="42.4736283" lon="14.135025"><ele>162.8</ele><time>2026-05-03T12:24:28.272Z</time></trkpt><trkpt lat="42.473655" lon="14.1351767"><ele>161.20000000000002</ele><time>2026-05-03T12:24:29.272Z</time></trkpt><trkpt lat="42.4737033" lon="14.1353117"><ele>159.60000000000002</ele><time>2026-05-03T12:24:30.272Z</time></trkpt><trkpt lat="42.4737667" lon="14.1354217"><ele>158.0</ele><time>2026-05-03T12:24:31.272Z</time></trkpt><trkpt lat="42.4738483" lon="14.1355067"><ele>160.0</ele><time>2026-05-03T12:24:32.272Z</time></trkpt><trkpt lat="42.4739633" lon="14.1355717"><ele>162.0</ele><time>2026-05-03T12:24:33.272Z</time></trkpt><trkpt lat="42.47409" lon="14.1356317"><ele>164.0</ele><time>2026-05-03T12:24:34.272Z</time></trkpt><trkpt lat="42.4742267" lon="14.1357017"><ele>166.0</ele><time>2026-05-03T12:24:35.272Z</time></trkpt><trkpt lat="42.4743517" lon="14.1357867"><ele>166.0</ele><time>2026-05-03T12:24:36.272Z</time></trkpt><trkpt lat="42.4744633" lon="14.1358933"><ele>166.0</ele><time>2026-05-03T12:24:37.272Z</time></trkpt><trkpt lat="42.474575" lon="14.1360033"><ele>166.0</ele><time>2026-05-03T12:24:38.272Z</time></trkpt><trkpt lat="42.4746883" lon="14.136085"><ele>166.0</ele><time>2026-05-03T12:24:39.272Z</time></trkpt><trkpt lat="42.4748083" lon="14.1361467"><ele>170.25</ele><time>2026-05-03T12:24:40.272Z</time></trkpt><trkpt lat="42.47493" lon="14.1361883"><ele>174.5</ele><time>2026-05-03T12:24:41.272Z</time></trkpt><trkpt lat="42.4750483" lon="14.1362267"><ele>178.75</ele><time>2026-05-03T12:24:42.272Z</time></trkpt><trkpt lat="42.4751517" lon="14.1362933"><ele>183.0</ele><time>2026-05-03T12:24:43.272Z</time></trkpt><trkpt lat="42.4752367" lon="14.1363867"><ele>183.0</ele><time>2026-05-03T12:24:44.272Z</time></trkpt><trkpt lat="42.4753067" lon="14.1365283"><ele>183.0</ele><time>2026-05-03T12:24:45.272Z</time></trkpt><trkpt lat="42.4753867" lon="14.1366717"><ele>183.0</ele><time>2026-05-03T12:24:46.272Z</time></trkpt><trkpt lat="42.475505" lon="14.1367983"><ele>183.0</ele><time>2026-05-03T12:24:47.272Z</time></trkpt><trkpt lat="42.47566" lon="14.1369017"><ele>183.0</ele><time>2026-05-03T12:24:48.272Z</time></trkpt><trkpt lat="42.4758383" lon="14.137"><ele>183.0</ele><time>2026-05-03T12:24:49.272Z</time></trkpt><trkpt lat="42.4760317" lon="14.1371167"><ele>183.0</ele><time>2026-05-03T12:24:50.272Z</time></trkpt><trkpt lat="42.4762267" lon="14.1372367"><ele>181.66666666666666</ele><time>2026-05-03T12:24:51.273Z</time></trkpt><trkpt lat="42.4764033" lon="14.1373317"><ele>180.33333333333331</ele><time>2026-05-03T12:24:52.272Z</time></trkpt><trkpt lat="42.4765633" lon="14.1374067"><ele>179.0</ele><time>2026-05-03T12:24:53.272Z</time></trkpt><trkpt lat="42.47672" lon="14.1374433"><ele>179.0</ele><time>2026-05-03T12:24:54.272Z</time></trkpt><trkpt lat="42.4768883" lon="14.1374567"><ele>179.0</ele><time>2026-05-03T12:24:55.272Z</time></trkpt><trkpt lat="42.4770567" lon="14.1374717"><ele>179.0</ele><time>2026-05-03T12:24:56.272Z</time></trkpt><trkpt lat="42.4772133" lon="14.1374667"><ele>180.0</ele><time>2026-05-03T12:24:57.272Z</time></trkpt><trkpt lat="42.4773683" lon="14.13745"><ele>181.0</ele><time>2026-05-03T12:24:58.272Z</time></trkpt><trkpt lat="42.4775117" lon="14.13742"><ele>182.0</ele><time>2026-05-03T12:24:59.272Z</time></trkpt><trkpt lat="42.4776583" lon="14.1373717"><ele>180.0</ele><time>2026-05-03T12:25:00.272Z</time></trkpt><trkpt lat="42.4778" lon="14.1373017"><ele>178.0</ele><time>2026-05-03T12:25:01.272Z</time></trkpt><trkpt lat="42.4779383" lon="14.1372417"><ele>176.0</ele><time>2026-05-03T12:25:02.272Z</time></trkpt><trkpt lat="42.4780633" lon="14.1371917"><ele>174.0</ele><time>2026-05-03T12:25:03.272Z</time></trkpt><trkpt lat="42.47818" lon="14.137175"><ele>172.5</ele><time>2026-05-03T12:25:04.272Z</time></trkpt><trkpt lat="42.4783067" lon="14.137195"><ele>171.0</ele><time>2026-05-03T12:25:05.272Z</time></trkpt><trkpt lat="42.4784317" lon="14.1372433"><ele>169.5</ele><time>2026-05-03T12:25:06.273Z</time></trkpt><trkpt lat="42.4785683" lon="14.1372883"><ele>168.0</ele><time>2026-05-03T12:25:07.272Z</time></trkpt><trkpt lat="42.4786983" lon="14.1373017"><ele>167.75</ele><time>2026-05-03T12:25:08.272Z</time></trkpt><trkpt lat="42.47883" lon="14.13727"><ele>167.5</ele><time>2026-05-03T12:25:09.272Z</time></trkpt><trkpt lat="42.478965" lon="14.137205"><ele>167.25</ele><time>2026-05-03T12:25:10.272Z</time></trkpt><trkpt lat="42.4790967" lon="14.137135"><ele>167.0</ele><time>2026-05-03T12:25:11.272Z</time></trkpt><trkpt lat="42.479215" lon="14.1370433"><ele>167.0</ele><time>2026-05-03T12:25:12.272Z</time></trkpt><trkpt lat="42.47932" lon="14.13691"><ele>167.0</ele><time>2026-05-03T12:25:13.272Z</time></trkpt><trkpt lat="42.4794167" lon="14.13675"><ele>167.0</ele><time>2026-05-03T12:25:14.272Z</time></trkpt><trkpt lat="42.4795083" lon="14.136575"><ele>166.5</ele><time>2026-05-03T12:25:15.273Z</time></trkpt><trkpt lat="42.4796167" lon="14.1364217"><ele>166.0</ele><time>2026-05-03T12:25:16.272Z</time></trkpt><trkpt lat="42.4797167" lon="14.136285"><ele>165.5</ele><time>2026-05-03T12:25:17.272Z</time></trkpt><trkpt lat="42.4798083" lon="14.1361433"><ele>165.0</ele><time>2026-05-03T12:25:18.272Z</time></trkpt><trkpt lat="42.4798933" lon="14.1359767"><ele>165.0</ele><time>2026-05-03T12:25:19.272Z</time></trkpt><trkpt lat="42.4799517" lon="14.1357917"><ele>165.0</ele><time>2026-05-03T12:25:20.272Z</time></trkpt><trkpt lat="42.48" lon="14.1356033"><ele>165.0</ele><time>2026-05-03T12:25:21.272Z</time></trkpt><trkpt lat="42.4800417" lon="14.1354183"><ele>165.0</ele><time>2026-05-03T12:25:22.272Z</time></trkpt><trkpt lat="42.4801" lon="14.1352667"><ele>163.0</ele><time>2026-05-03T12:25:23.272Z</time></trkpt><trkpt lat="42.480175" lon="14.1351333"><ele>161.0</ele><time>2026-05-03T12:25:24.272Z</time></trkpt><trkpt lat="42.4802667" lon="14.1350133"><ele>159.0</ele><time>2026-05-03T12:25:25.272Z</time></trkpt><trkpt lat="42.4803733" lon="14.13491"><ele>157.0</ele><time>2026-05-03T12:25:26.272Z</time></trkpt><trkpt lat="42.480475" lon="14.1348333"><ele>157.2</ele><time>2026-05-03T12:25:27.272Z</time></trkpt><trkpt lat="42.4805767" lon="14.1347817"><ele>157.39999999999998</ele><time>2026-05-03T12:25:28.272Z</time></trkpt><trkpt lat="42.4806817" lon="14.1347633"><ele>157.60000000000002</ele><time>2026-05-03T12:25:29.272Z</time></trkpt><trkpt lat="42.4807817" lon="14.1347933"><ele>157.8</ele><time>2026-05-03T12:25:30.273Z</time></trkpt><trkpt lat="42.480875" lon="14.13486"><ele>158.0</ele><time>2026-05-03T12:25:31.272Z</time></trkpt><trkpt lat="42.480965" lon="14.1349483"><ele>158.0</ele><time>2026-05-03T12:25:32.272Z</time></trkpt><trkpt lat="42.481045" lon="14.1350767"><ele>158.0</ele><time>2026-05-03T12:25:33.272Z</time></trkpt><trkpt lat="42.4811083" lon="14.1352317"><ele>158.0</ele><time>2026-05-03T12:25:34.272Z</time></trkpt><trkpt lat="42.4811633" lon="14.1354033"><ele>158.0</ele><time>2026-05-03T12:25:35.272Z</time></trkpt><trkpt lat="42.481225" lon="14.1355867"><ele>155.25</ele><time>2026-05-03T12:25:36.272Z</time></trkpt><trkpt lat="42.4812883" lon="14.1357733"><ele>152.5</ele><time>2026-05-03T12:25:37.272Z</time></trkpt><trkpt lat="42.4813533" lon="14.1359617"><ele>149.75</ele><time>2026-05-03T12:25:38.272Z</time></trkpt><trkpt lat="42.4814167" lon="14.1361367"><ele>147.0</ele><time>2026-05-03T12:25:39.273Z</time></trkpt><trkpt lat="42.4814733" lon="14.13629"><ele>147.0</ele><time>2026-05-03T12:25:40.273Z</time></trkpt><trkpt lat="42.4815433" lon="14.1364217"><ele>147.0</ele><time>2026-05-03T12:25:41.272Z</time></trkpt><trkpt lat="42.4816333" lon="14.1365183"><ele>147.0</ele><time>2026-05-03T12:25:42.272Z</time></trkpt><trkpt lat="42.48174" lon="14.136555"><ele>147.0</ele><time>2026-05-03T12:25:43.272Z</time></trkpt><trkpt lat="42.4818567" lon="14.136545"><ele>147.0</ele><time>2026-05-03T12:25:44.272Z</time></trkpt><trkpt lat="42.4819617" lon="14.13648"><ele>147.0</ele><time>2026-05-03T12:25:45.272Z</time></trkpt><trkpt lat="42.482055" lon="14.1363683"><ele>147.0</ele><time>2026-05-03T12:25:46.272Z</time></trkpt><trkpt lat="42.48213" lon="14.13621"><ele>147.0</ele><time>2026-05-03T12:25:47.272Z</time></trkpt><trkpt lat="42.48218" lon="14.1360167"><ele>145.33333333333334</ele><time>2026-05-03T12:25:48.272Z</time></trkpt><trkpt lat="42.48222" lon="14.1358"><ele>143.66666666666669</ele><time>2026-05-03T12:25:49.272Z</time></trkpt><trkpt lat="42.4822667" lon="14.1355533"><ele>142.0</ele><time>2026-05-03T12:25:50.272Z</time></trkpt><trkpt lat="42.4823217" lon="14.1353083"><ele>141.0</ele><time>2026-05-03T12:25:51.272Z</time></trkpt><trkpt lat="42.48236" lon="14.135085"><ele>140.0</ele><time>2026-05-03T12:25:52.272Z</time></trkpt><trkpt lat="42.4824133" lon="14.1348583"><ele>139.0</ele><time>2026-05-03T12:25:53.272Z</time></trkpt><trkpt lat="42.4824567" lon="14.1346217"><ele>138.33333333333334</ele><time>2026-05-03T12:25:54.273Z</time></trkpt><trkpt lat="42.4825117" lon="14.1343967"><ele>137.66666666666666</ele><time>2026-05-03T12:25:55.272Z</time></trkpt><trkpt lat="42.4825583" lon="14.1341767"><ele>137.0</ele><time>2026-05-03T12:25:56.272Z</time></trkpt><trkpt lat="42.4826017" lon="14.1339767"><ele>136.0</ele><time>2026-05-03T12:25:57.272Z</time></trkpt><trkpt lat="42.4826433" lon="14.1337917"><ele>135.0</ele><time>2026-05-03T12:25:58.273Z</time></trkpt><trkpt lat="42.48269" lon="14.1336233"><ele>134.0</ele><time>2026-05-03T12:25:59.272Z</time></trkpt><trkpt lat="42.4827417" lon="14.1334733"><ele>133.0</ele><time>2026-05-03T12:26:00.272Z</time></trkpt><trkpt lat="42.482815" lon="14.1333383"><ele>133.0</ele><time>2026-05-03T12:26:01.272Z</time></trkpt><trkpt lat="42.4829083" lon="14.1332467"><ele>133.0</ele><time>2026-05-03T12:26:02.272Z</time></trkpt><trkpt lat="42.483035" lon="14.1331867"><ele>133.0</ele><time>2026-05-03T12:26:03.272Z</time></trkpt><trkpt lat="42.483165" lon="14.133125"><ele>133.0</ele><time>2026-05-03T12:26:04.272Z</time></trkpt><trkpt lat="42.4833033" lon="14.1330567"><ele>131.66666666666669</ele><time>2026-05-03T12:26:05.272Z</time></trkpt><trkpt lat="42.4834533" lon="14.1329817"><ele>130.33333333333334</ele><time>2026-05-03T12:26:06.272Z</time></trkpt><trkpt lat="42.48361" lon="14.1329033"><ele>129.0</ele><time>2026-05-03T12:26:07.272Z</time></trkpt><trkpt lat="42.4837717" lon="14.1328283"><ele>127.66666666666666</ele><time>2026-05-03T12:26:08.272Z</time></trkpt><trkpt lat="42.48394" lon="14.1327483"><ele>126.33333333333333</ele><time>2026-05-03T12:26:09.272Z</time></trkpt><trkpt lat="42.4841067" lon="14.1326717"><ele>125.0</ele><time>2026-05-03T12:26:10.272Z</time></trkpt><trkpt lat="42.484265" lon="14.1325933"><ele>125.0</ele><time>2026-05-03T12:26:11.272Z</time></trkpt><trkpt lat="42.4844183" lon="14.1325217"><ele>125.0</ele><time>2026-05-03T12:26:12.273Z</time></trkpt><trkpt lat="42.4845667" lon="14.1324467"><ele>125.0</ele><time>2026-05-03T12:26:13.272Z</time></trkpt><trkpt lat="42.4847067" lon="14.1323767"><ele>123.5</ele><time>2026-05-03T12:26:14.272Z</time></trkpt><trkpt lat="42.4848483" lon="14.1323317"><ele>122.0</ele><time>2026-05-03T12:26:15.272Z</time></trkpt><trkpt lat="42.4849874" lon="14.1323086"><ele>120.5</ele><time>2026-05-03T12:26:16.272Z</time></trkpt><trkpt lat="42.4851213" lon="14.1323281"><ele>119.0</ele><time>2026-05-03T12:26:17.272Z</time></trkpt><trkpt lat="42.4852498" lon="14.1323791"><ele>119.25</ele><time>2026-05-03T12:26:18.272Z</time></trkpt><trkpt lat="42.485369" lon="14.132459"><ele>119.5</ele><time>2026-05-03T12:26:19.272Z</time></trkpt><trkpt lat="42.4854776" lon="14.1325764"><ele>119.75</ele><time>2026-05-03T12:26:20.272Z</time></trkpt><trkpt lat="42.4855902" lon="14.1327152"><ele>120.0</ele><time>2026-05-03T12:26:21.272Z</time></trkpt><trkpt lat="42.4857089" lon="14.132857"><ele>119.33333333333334</ele><time>2026-05-03T12:26:22.272Z</time></trkpt><trkpt lat="42.4858295" lon="14.1329991"><ele>118.66666666666667</ele><time>2026-05-03T12:26:23.272Z</time></trkpt><trkpt lat="42.4859464" lon="14.1331422"><ele>118.0</ele><time>2026-05-03T12:26:24.272Z</time></trkpt><trkpt lat="42.4860713" lon="14.1332882"><ele>117.75</ele><time>2026-05-03T12:26:25.272Z</time></trkpt><trkpt lat="42.4861912" lon="14.1334304"><ele>117.5</ele><time>2026-05-03T12:26:26.272Z</time></trkpt><trkpt lat="42.4863023" lon="14.1335586"><ele>117.25</ele><time>2026-05-03T12:26:27.272Z</time></trkpt><trkpt lat="42.48641" lon="14.1336828"><ele>117.0</ele><time>2026-05-03T12:26:28.272Z</time></trkpt><trkpt lat="42.4865056" lon="14.1338007"><ele>117.0</ele><time>2026-05-03T12:26:29.272Z</time></trkpt><trkpt lat="42.4865833" lon="14.133923"><ele>117.0</ele><time>2026-05-03T12:26:30.272Z</time></trkpt><trkpt lat="42.4866403" lon="14.1340616"><ele>117.0</ele><time>2026-05-03T12:26:31.272Z</time></trkpt><trkpt lat="42.4866815" lon="14.1342235"><ele>117.0</ele><time>2026-05-03T12:26:32.272Z</time></trkpt><trkpt lat="42.4867114" lon="14.1344062"><ele>117.0</ele><time>2026-05-03T12:26:33.272Z</time></trkpt><trkpt lat="42.486742" lon="14.1346081"><ele>117.0</ele><time>2026-05-03T12:26:34.273Z</time></trkpt><trkpt lat="42.4867793" lon="14.1348334"><ele>117.0</ele><time>2026-05-03T12:26:35.272Z</time></trkpt><trkpt lat="42.4868186" lon="14.1350708"><ele>117.0</ele><time>2026-05-03T12:26:36.272Z</time></trkpt><trkpt lat="42.486859" lon="14.1353263"><ele>117.0</ele><time>2026-05-03T12:26:37.272Z</time></trkpt><trkpt lat="42.4869081" lon="14.1355683"><ele>117.0</ele><time>2026-05-03T12:26:38.272Z</time></trkpt><trkpt lat="42.4869657" lon="14.1357944"><ele>116.66666666666666</ele><time>2026-05-03T12:26:39.273Z</time></trkpt><trkpt lat="42.4870301" lon="14.1360216"><ele>116.33333333333333</ele><time>2026-05-03T12:26:40.272Z</time></trkpt><trkpt lat="42.4871031" lon="14.1362388"><ele>116.0</ele><time>2026-05-03T12:26:41.272Z</time></trkpt><trkpt lat="42.4871769" lon="14.1364314"><ele>118.0</ele><time>2026-05-03T12:26:42.272Z</time></trkpt><trkpt lat="42.4872481" lon="14.136612"><ele>120.0</ele><time>2026-05-03T12:26:43.273Z</time></trkpt><trkpt lat="42.4873173" lon="14.1367874"><ele>122.0</ele><time>2026-05-03T12:26:44.273Z</time></trkpt><trkpt lat="42.4873813" lon="14.1369606"><ele>124.0</ele><time>2026-05-03T12:26:45.272Z</time></trkpt><trkpt lat="42.4874437" lon="14.1371333"><ele>124.0</ele><time>2026-05-03T12:26:46.272Z</time></trkpt><trkpt lat="42.4875046" lon="14.1373025"><ele>124.0</ele><time>2026-05-03T12:26:47.272Z</time></trkpt><trkpt lat="42.4875619" lon="14.1374668"><ele>124.0</ele><time>2026-05-03T12:26:48.272Z</time></trkpt><trkpt lat="42.4876099" lon="14.1376401"><ele>124.0</ele><time>2026-05-03T12:26:49.272Z</time></trkpt><trkpt lat="42.487636" lon="14.1378223"><ele>124.0</ele><time>2026-05-03T12:26:50.272Z</time></trkpt><trkpt lat="42.4876385" lon="14.1380129"><ele>124.0</ele><time>2026-05-03T12:26:51.272Z</time></trkpt><trkpt lat="42.487625" lon="14.1381951"><ele>124.0</ele><time>2026-05-03T12:26:52.272Z</time></trkpt><trkpt lat="42.487617" lon="14.1383645"><ele>124.0</ele><time>2026-05-03T12:26:53.272Z</time></trkpt><trkpt lat="42.4876255" lon="14.1385349"><ele>124.25</ele><time>2026-05-03T12:26:54.272Z</time></trkpt><trkpt lat="42.4876588" lon="14.1387103"><ele>124.5</ele><time>2026-05-03T12:26:55.272Z</time></trkpt><trkpt lat="42.4877162" lon="14.1388737"><ele>124.75</ele><time>2026-05-03T12:26:56.272Z</time></trkpt><trkpt lat="42.4877921" lon="14.1390245"><ele>125.0</ele><time>2026-05-03T12:26:57.272Z</time></trkpt><trkpt lat="42.4878868" lon="14.1391534"><ele>127.25</ele><time>2026-05-03T12:26:58.272Z</time></trkpt><trkpt lat="42.4880017" lon="14.1392566"><ele>129.5</ele><time>2026-05-03T12:26:59.272Z</time></trkpt><trkpt lat="42.4881299" lon="14.1393281"><ele>131.75</ele><time>2026-05-03T12:27:00.273Z</time></trkpt><trkpt lat="42.4882737" lon="14.1393656"><ele>134.0</ele><time>2026-05-03T12:27:01.272Z</time></trkpt><trkpt lat="42.4884158" lon="14.1393867"><ele>134.0</ele><time>2026-05-03T12:27:02.272Z</time></trkpt><trkpt lat="42.4885486" lon="14.1394"><ele>134.0</ele><time>2026-05-03T12:27:03.273Z</time></trkpt><trkpt lat="42.4886641" lon="14.1394107"><ele>134.0</ele><time>2026-05-03T12:27:04.273Z</time></trkpt><trkpt lat="42.4887577" lon="14.1394112"><ele>134.0</ele><time>2026-05-03T12:27:05.272Z</time></trkpt><trkpt lat="42.4888389" lon="14.1394158"><ele>134.0</ele><time>2026-05-03T12:27:06.272Z</time></trkpt><trkpt lat="42.4889284" lon="14.1394224"><ele>134.5</ele><time>2026-05-03T12:27:07.272Z</time></trkpt><trkpt lat="42.4890197" lon="14.1394525"><ele>135.0</ele><time>2026-05-03T12:27:08.272Z</time></trkpt><trkpt lat="42.4891035" lon="14.1395073"><ele>135.5</ele><time>2026-05-03T12:27:09.272Z</time></trkpt><trkpt lat="42.489171" lon="14.1395692"><ele>136.0</ele><time>2026-05-03T12:27:10.272Z</time></trkpt><trkpt lat="42.4892356" lon="14.1396226"><ele>136.5</ele><time>2026-05-03T12:27:11.272Z</time></trkpt><trkpt lat="42.4893062" lon="14.1396404"><ele>137.0</ele><time>2026-05-03T12:27:12.272Z</time></trkpt><trkpt lat="42.4893795" lon="14.1396209"><ele>137.0</ele><time>2026-05-03T12:27:13.272Z</time></trkpt><trkpt lat="42.4894509" lon="14.1395676"><ele>137.0</ele><time>2026-05-03T12:27:14.272Z</time></trkpt><trkpt lat="42.4895356" lon="14.1394983"><ele>137.0</ele><time>2026-05-03T12:27:15.273Z</time></trkpt><trkpt lat="42.489654" lon="14.1394581"><ele>137.0</ele><time>2026-05-03T12:27:16.273Z</time></trkpt><trkpt lat="42.4897877" lon="14.1394495"><ele>137.0</ele><time>2026-05-03T12:27:17.272Z</time></trkpt><trkpt lat="42.4899335" lon="14.1394507"><ele>138.0</ele><time>2026-05-03T12:27:18.272Z</time></trkpt><trkpt lat="42.4900796" lon="14.1394597"><ele>139.0</ele><time>2026-05-03T12:27:19.272Z</time></trkpt><trkpt lat="42.4902107" lon="14.1394756"><ele>140.0</ele><time>2026-05-03T12:27:20.272Z</time></trkpt><trkpt lat="42.4903305" lon="14.1394809"><ele>141.0</ele><time>2026-05-03T12:27:21.272Z</time></trkpt><trkpt lat="42.4904388" lon="14.1394885"><ele>142.66666666666666</ele><time>2026-05-03T12:27:22.272Z</time></trkpt><trkpt lat="42.490538" lon="14.139487"><ele>144.33333333333334</ele><time>2026-05-03T12:27:23.272Z</time></trkpt><trkpt lat="42.4906233" lon="14.1394922"><ele>146.0</ele><time>2026-05-03T12:27:24.272Z</time></trkpt><trkpt lat="42.4907069" lon="14.1395084"><ele>147.66666666666669</ele><time>2026-05-03T12:27:25.272Z</time></trkpt><trkpt lat="42.4907747" lon="14.1395343"><ele>149.33333333333334</ele><time>2026-05-03T12:27:26.272Z</time></trkpt><trkpt lat="42.4908349" lon="14.139583"><ele>151.0</ele><time>2026-05-03T12:27:27.272Z</time></trkpt><trkpt lat="42.4908699" lon="14.1396661"><ele>151.0</ele><time>2026-05-03T12:27:28.272Z</time></trkpt><trkpt lat="42.4908959" lon="14.139765"><ele>151.0</ele><time>2026-05-03T12:27:29.272Z</time></trkpt><trkpt lat="42.4908926" lon="14.1398987"><ele>151.0</ele><time>2026-05-03T12:27:30.273Z</time></trkpt><trkpt lat="42.4908782" lon="14.1400681"><ele>151.0</ele><time>2026-05-03T12:27:31.272Z</time></trkpt><trkpt lat="42.490869" lon="14.1402529"><ele>151.0</ele><time>2026-05-03T12:27:32.272Z</time></trkpt><trkpt lat="42.4908641" lon="14.1404178"><ele>151.8</ele><time>2026-05-03T12:27:33.272Z</time></trkpt><trkpt lat="42.4908614" lon="14.1405598"><ele>152.6</ele><time>2026-05-03T12:27:34.272Z</time></trkpt><trkpt lat="42.4908626" lon="14.1406802"><ele>153.4</ele><time>2026-05-03T12:27:35.272Z</time></trkpt><trkpt lat="42.4908831" lon="14.1407863"><ele>154.2</ele><time>2026-05-03T12:27:36.272Z</time></trkpt><trkpt lat="42.4909496" lon="14.1409094"><ele>155.0</ele><time>2026-05-03T12:27:38.273Z</time></trkpt><trkpt lat="42.4910702" lon="14.1409002"><ele>155.0</ele><time>2026-05-03T12:27:40.272Z</time></trkpt><trkpt lat="42.4911339" lon="14.1408388"><ele>155.0</ele><time>2026-05-03T12:27:41.272Z</time></trkpt><trkpt lat="42.4911879" lon="14.1407456"><ele>155.0</ele><time>2026-05-03T12:27:42.272Z</time></trkpt><trkpt lat="42.4912345" lon="14.1406572"><ele>155.0</ele><time>2026-05-03T12:27:43.272Z</time></trkpt><trkpt lat="42.4912773" lon="14.1405798"><ele>155.0</ele><time>2026-05-03T12:27:44.272Z</time></trkpt><trkpt lat="42.491316" lon="14.1405117"><ele>155.0</ele><time>2026-05-03T12:27:45.272Z</time></trkpt><trkpt lat="42.4913859" lon="14.1403652"><ele>156.5</ele><time>2026-05-03T12:27:47.273Z</time></trkpt><trkpt lat="42.4914707" lon="14.1402822"><ele>158.0</ele><time>2026-05-03T12:27:49.272Z</time></trkpt><trkpt lat="42.4915753" lon="14.1404076"><ele>159.5</ele><time>2026-05-03T12:27:51.272Z</time></trkpt><trkpt lat="42.4916313" lon="14.1405635"><ele>161.0</ele><time>2026-05-03T12:27:52.272Z</time></trkpt><trkpt lat="42.4916794" lon="14.1407365"><ele>161.0</ele><time>2026-05-03T12:27:53.272Z</time></trkpt><trkpt lat="42.4917192" lon="14.1409124"><ele>161.0</ele><time>2026-05-03T12:27:54.272Z</time></trkpt><trkpt lat="42.4917544" lon="14.1410863"><ele>161.0</ele><time>2026-05-03T12:27:55.272Z</time></trkpt><trkpt lat="42.4917729" lon="14.1412588"><ele>161.0</ele><time>2026-05-03T12:27:56.272Z</time></trkpt><trkpt lat="42.4917791" lon="14.1414334"><ele>161.0</ele><time>2026-05-03T12:27:57.272Z</time></trkpt><trkpt lat="42.4917671" lon="14.1416118"><ele>161.0</ele><time>2026-05-03T12:27:58.272Z</time></trkpt><trkpt lat="42.4917288" lon="14.1417775"><ele>161.0</ele><time>2026-05-03T12:27:59.272Z</time></trkpt><trkpt lat="42.4916624" lon="14.1419276"><ele>161.0</ele><time>2026-05-03T12:28:00.272Z</time></trkpt><trkpt lat="42.4916067" lon="14.1420773"><ele>161.0</ele><time>2026-05-03T12:28:01.273Z</time></trkpt><trkpt lat="42.4915874" lon="14.1422212"><ele>161.0</ele><time>2026-05-03T12:28:02.272Z</time></trkpt><trkpt lat="42.4916059" lon="14.1423619"><ele>161.0</ele><time>2026-05-03T12:28:03.272Z</time></trkpt><trkpt lat="42.4916519" lon="14.1424871"><ele>161.0</ele><time>2026-05-03T12:28:04.272Z</time></trkpt><trkpt lat="42.49171" lon="14.1426026"><ele>161.0</ele><time>2026-05-03T12:28:05.272Z</time></trkpt><trkpt lat="42.4917595" lon="14.1427295"><ele>160.20000000000002</ele><time>2026-05-03T12:28:06.272Z</time></trkpt><trkpt lat="42.4917867" lon="14.1428563"><ele>159.4</ele><time>2026-05-03T12:28:07.272Z</time></trkpt><trkpt lat="42.4917852" lon="14.1429764"><ele>158.6</ele><time>2026-05-03T12:28:08.272Z</time></trkpt><trkpt lat="42.4917369" lon="14.1430818"><ele>157.8</ele><time>2026-05-03T12:28:09.272Z</time></trkpt><trkpt lat="42.491663" lon="14.1431775"><ele>157.0</ele><time>2026-05-03T12:28:10.272Z</time></trkpt><trkpt lat="42.4915906" lon="14.1432793"><ele>156.0</ele><time>2026-05-03T12:28:11.272Z</time></trkpt><trkpt lat="42.4915407" lon="14.1434049"><ele>155.0</ele><time>2026-05-03T12:28:12.272Z</time></trkpt><trkpt lat="42.4915249" lon="14.1435483"><ele>154.0</ele><time>2026-05-03T12:28:13.272Z</time></trkpt><trkpt lat="42.4915487" lon="14.1437045"><ele>153.0</ele><time>2026-05-03T12:28:14.272Z</time></trkpt><trkpt lat="42.4916108" lon="14.1438548"><ele>153.0</ele><time>2026-05-03T12:28:15.272Z</time></trkpt><trkpt lat="42.4916935" lon="14.143993"><ele>153.0</ele><time>2026-05-03T12:28:16.272Z</time></trkpt><trkpt lat="42.491793" lon="14.144107"><ele>153.0</ele><time>2026-05-03T12:28:17.272Z</time></trkpt><trkpt lat="42.4918936" lon="14.1441813"><ele>153.0</ele><time>2026-05-03T12:28:18.272Z</time></trkpt><trkpt lat="42.4920084" lon="14.1442362"><ele>147.75</ele><time>2026-05-03T12:28:19.272Z</time></trkpt><trkpt lat="42.492132" lon="14.144279"><ele>142.5</ele><time>2026-05-03T12:28:20.272Z</time></trkpt><trkpt lat="42.492263" lon="14.1443306"><ele>137.25</ele><time>2026-05-03T12:28:21.272Z</time></trkpt><trkpt lat="42.4923934" lon="14.1443843"><ele>132.0</ele><time>2026-05-03T12:28:22.272Z</time></trkpt><trkpt lat="42.4925213" lon="14.1444432"><ele>132.0</ele><time>2026-05-03T12:28:23.272Z</time></trkpt><trkpt lat="42.4926369" lon="14.1445009"><ele>132.0</ele><time>2026-05-03T12:28:24.273Z</time></trkpt><trkpt lat="42.4927425" lon="14.1445604"><ele>132.0</ele><time>2026-05-03T12:28:25.272Z</time></trkpt><trkpt lat="42.4928429" lon="14.1446165"><ele>132.0</ele><time>2026-05-03T12:28:26.272Z</time></trkpt><trkpt lat="42.4929314" lon="14.1446875"><ele>132.0</ele><time>2026-05-03T12:28:27.272Z</time></trkpt><trkpt lat="42.4930104" lon="14.1447851"><ele>133.0</ele><time>2026-05-03T12:28:28.273Z</time></trkpt><trkpt lat="42.4930806" lon="14.1448955"><ele>134.0</ele><time>2026-05-03T12:28:29.272Z</time></trkpt><trkpt lat="42.4931484" lon="14.1450124"><ele>135.0</ele><time>2026-05-03T12:28:30.272Z</time></trkpt><trkpt lat="42.4932207" lon="14.1451266"><ele>136.0</ele><time>2026-05-03T12:28:31.272Z</time></trkpt><trkpt lat="42.4933024" lon="14.1452269"><ele>137.0</ele><time>2026-05-03T12:28:32.273Z</time></trkpt><trkpt lat="42.4933864" lon="14.1452931"><ele>137.0</ele><time>2026-05-03T12:28:33.272Z</time></trkpt><trkpt lat="42.4934827" lon="14.1453243"><ele>137.0</ele><time>2026-05-03T12:28:34.272Z</time></trkpt><trkpt lat="42.4935809" lon="14.1453268"><ele>137.0</ele><time>2026-05-03T12:28:35.272Z</time></trkpt><trkpt lat="42.4936846" lon="14.1452938"><ele>137.0</ele><time>2026-05-03T12:28:36.272Z</time></trkpt><trkpt lat="42.4937842" lon="14.1452229"><ele>137.0</ele><time>2026-05-03T12:28:37.272Z</time></trkpt><trkpt lat="42.4938678" lon="14.1451108"><ele>135.5</ele><time>2026-05-03T12:28:38.272Z</time></trkpt><trkpt lat="42.493924" lon="14.1449663"><ele>134.0</ele><time>2026-05-03T12:28:39.272Z</time></trkpt><trkpt lat="42.4939622" lon="14.1448102"><ele>132.5</ele><time>2026-05-03T12:28:40.272Z</time></trkpt><trkpt lat="42.4939943" lon="14.1446503"><ele>131.0</ele><time>2026-05-03T12:28:41.272Z</time></trkpt><trkpt lat="42.4940245" lon="14.1444998"><ele>128.4</ele><time>2026-05-03T12:28:42.272Z</time></trkpt><trkpt lat="42.4940599" lon="14.1443567"><ele>125.8</ele><time>2026-05-03T12:28:43.272Z</time></trkpt><trkpt lat="42.4941089" lon="14.144223"><ele>123.20000000000002</ele><time>2026-05-03T12:28:44.273Z</time></trkpt><trkpt lat="42.4941703" lon="14.1441141"><ele>120.60000000000001</ele><time>2026-05-03T12:28:45.272Z</time></trkpt><trkpt lat="42.494243" lon="14.1440276"><ele>118.0</ele><time>2026-05-03T12:28:46.272Z</time></trkpt><trkpt lat="42.4943233" lon="14.1439474"><ele>115.2</ele><time>2026-05-03T12:28:47.272Z</time></trkpt><trkpt lat="42.4944118" lon="14.1438912"><ele>112.4</ele><time>2026-05-03T12:28:48.272Z</time></trkpt><trkpt lat="42.4945026" lon="14.1438561"><ele>109.60000000000001</ele><time>2026-05-03T12:28:49.272Z</time></trkpt><trkpt lat="42.4946008" lon="14.1438273"><ele>106.80000000000001</ele><time>2026-05-03T12:28:50.272Z</time></trkpt><trkpt lat="42.4947069" lon="14.1438097"><ele>104.0</ele><time>2026-05-03T12:28:51.273Z</time></trkpt><trkpt lat="42.49482" lon="14.1437998"><ele>104.0</ele><time>2026-05-03T12:28:52.272Z</time></trkpt><trkpt lat="42.4949357" lon="14.1438058"><ele>104.0</ele><time>2026-05-03T12:28:53.272Z</time></trkpt><trkpt lat="42.4950554" lon="14.1438015"><ele>104.0</ele><time>2026-05-03T12:28:54.273Z</time></trkpt><trkpt lat="42.4951794" lon="14.1437821"><ele>104.0</ele><time>2026-05-03T12:28:55.272Z</time></trkpt><trkpt lat="42.4953029" lon="14.14375"><ele>104.0</ele><time>2026-05-03T12:28:56.272Z</time></trkpt><trkpt lat="42.4954202" lon="14.1437114"><ele>104.0</ele><time>2026-05-03T12:28:57.273Z</time></trkpt><trkpt lat="42.4955433" lon="14.143665"><ele>104.0</ele><time>2026-05-03T12:28:58.272Z</time></trkpt><trkpt lat="42.4956583" lon="14.1435983"><ele>104.0</ele><time>2026-05-03T12:28:59.273Z</time></trkpt><trkpt lat="42.4957817" lon="14.14351"><ele>103.33333333333333</ele><time>2026-05-03T12:29:00.272Z</time></trkpt><trkpt lat="42.4959083" lon="14.1433983"><ele>102.66666666666666</ele><time>2026-05-03T12:29:01.272Z</time></trkpt><trkpt lat="42.4960383" lon="14.143265"><ele>102.0</ele><time>2026-05-03T12:29:02.271Z</time></trkpt><trkpt lat="42.496175" lon="14.1431433"><ele>101.33333333333334</ele><time>2026-05-03T12:29:03.271Z</time></trkpt><trkpt lat="42.496315" lon="14.1430267"><ele>100.66666666666667</ele><time>2026-05-03T12:29:04.272Z</time></trkpt><trkpt lat="42.49645" lon="14.1429117"><ele>100.0</ele><time>2026-05-03T12:29:05.271Z</time></trkpt><trkpt lat="42.4965817" lon="14.1427967"><ele>100.0</ele><time>2026-05-03T12:29:06.271Z</time></trkpt><trkpt lat="42.4967133" lon="14.1426983"><ele>100.0</ele><time>2026-05-03T12:29:07.271Z</time></trkpt><trkpt lat="42.4968317" lon="14.142595"><ele>100.0</ele><time>2026-05-03T12:29:08.271Z</time></trkpt><trkpt lat="42.4969467" lon="14.142485"><ele>100.0</ele><time>2026-05-03T12:29:09.271Z</time></trkpt><trkpt lat="42.4970567" lon="14.1423717"><ele>97.0</ele><time>2026-05-03T12:29:10.271Z</time></trkpt><trkpt lat="42.4971467" lon="14.142265"><ele>94.0</ele><time>2026-05-03T12:29:11.271Z</time></trkpt><trkpt lat="42.4972317" lon="14.1421667"><ele>91.0</ele><time>2026-05-03T12:29:12.271Z</time></trkpt><trkpt lat="42.497305" lon="14.14208"><ele>88.0</ele><time>2026-05-03T12:29:13.271Z</time></trkpt><trkpt lat="42.4973733" lon="14.1420067"><ele>85.0</ele><time>2026-05-03T12:29:14.271Z</time></trkpt><trkpt lat="42.4974383" lon="14.1419517"><ele>85.0</ele><time>2026-05-03T12:29:15.271Z</time></trkpt><trkpt lat="42.497505" lon="14.1419433"><ele>85.0</ele><time>2026-05-03T12:29:16.271Z</time></trkpt><trkpt lat="42.4975683" lon="14.1419783"><ele>85.0</ele><time>2026-05-03T12:29:17.271Z</time></trkpt><trkpt lat="42.49761" lon="14.1420633"><ele>85.0</ele><time>2026-05-03T12:29:18.271Z</time></trkpt><trkpt lat="42.4976183" lon="14.1421633"><ele>85.0</ele><time>2026-05-03T12:29:19.271Z</time></trkpt><trkpt lat="42.4975933" lon="14.14227"><ele>85.0</ele><time>2026-05-03T12:29:20.271Z</time></trkpt><trkpt lat="42.49754" lon="14.14239"><ele>85.25</ele><time>2026-05-03T12:29:21.272Z</time></trkpt><trkpt lat="42.4974567" lon="14.142525"><ele>85.5</ele><time>2026-05-03T12:29:22.271Z</time></trkpt><trkpt lat="42.49736" lon="14.142675"><ele>85.75</ele><time>2026-05-03T12:29:23.271Z</time></trkpt><trkpt lat="42.4972767" lon="14.1428083"><ele>86.0</ele><time>2026-05-03T12:29:24.271Z</time></trkpt><trkpt lat="42.4971933" lon="14.1429367"><ele>86.0</ele><time>2026-05-03T12:29:25.271Z</time></trkpt><trkpt lat="42.4971117" lon="14.1430883"><ele>86.0</ele><time>2026-05-03T12:29:26.271Z</time></trkpt><trkpt lat="42.4970317" lon="14.1432333"><ele>86.0</ele><time>2026-05-03T12:29:27.271Z</time></trkpt><trkpt lat="42.496945" lon="14.14337"><ele>86.0</ele><time>2026-05-03T12:29:28.271Z</time></trkpt><trkpt lat="42.49686" lon="14.143495"><ele>88.5</ele><time>2026-05-03T12:29:29.271Z</time></trkpt><trkpt lat="42.496765" lon="14.1436383"><ele>91.0</ele><time>2026-05-03T12:29:30.271Z</time></trkpt><trkpt lat="42.496665" lon="14.1437883"><ele>93.5</ele><time>2026-05-03T12:29:31.271Z</time></trkpt><trkpt lat="42.4965683" lon="14.1439283"><ele>96.0</ele><time>2026-05-03T12:29:32.271Z</time></trkpt><trkpt lat="42.4964801" lon="14.1440464"><ele>92.5</ele><time>2026-05-03T12:29:33.271Z</time></trkpt><trkpt lat="42.4964133" lon="14.1441767"><ele>89.0</ele><time>2026-05-03T12:29:34.271Z</time></trkpt><trkpt lat="42.4963803" lon="14.1443267"><ele>85.5</ele><time>2026-05-03T12:29:35.271Z</time></trkpt><trkpt lat="42.4963765" lon="14.1444921"><ele>82.0</ele><time>2026-05-03T12:29:36.271Z</time></trkpt><trkpt lat="42.4963878" lon="14.1446673"><ele>82.0</ele><time>2026-05-03T12:29:37.271Z</time></trkpt><trkpt lat="42.4963968" lon="14.1448303"><ele>82.0</ele><time>2026-05-03T12:29:38.271Z</time></trkpt><trkpt lat="42.4963779" lon="14.1449791"><ele>82.0</ele><time>2026-05-03T12:29:39.271Z</time></trkpt><trkpt lat="42.4963288" lon="14.1451222"><ele>82.0</ele><time>2026-05-03T12:29:40.271Z</time></trkpt><trkpt lat="42.4962696" lon="14.1452628"><ele>82.0</ele><time>2026-05-03T12:29:41.271Z</time></trkpt><trkpt lat="42.4962096" lon="14.1453904"><ele>82.0</ele><time>2026-05-03T12:29:42.271Z</time></trkpt><trkpt lat="42.4961628" lon="14.1455129"><ele>82.0</ele><time>2026-05-03T12:29:43.271Z</time></trkpt><trkpt lat="42.4961386" lon="14.145638"><ele>82.0</ele><time>2026-05-03T12:29:44.271Z</time></trkpt><trkpt lat="42.4961441" lon="14.1457612"><ele>82.0</ele><time>2026-05-03T12:29:45.271Z</time></trkpt><trkpt lat="42.4961759" lon="14.1458766"><ele>82.0</ele><time>2026-05-03T12:29:46.271Z</time></trkpt><trkpt lat="42.4962354" lon="14.145975"><ele>82.0</ele><time>2026-05-03T12:29:47.271Z</time></trkpt><trkpt lat="42.496337" lon="14.146025"><ele>82.0</ele><time>2026-05-03T12:29:48.271Z</time></trkpt><trkpt lat="42.4964525" lon="14.1460172"><ele>82.0</ele><time>2026-05-03T12:29:49.271Z</time></trkpt><trkpt lat="42.4965619" lon="14.1459734"><ele>82.0</ele><time>2026-05-03T12:29:50.271Z</time></trkpt><trkpt lat="42.4966572" lon="14.1458893"><ele>79.5</ele><time>2026-05-03T12:29:51.271Z</time></trkpt><trkpt lat="42.4967234" lon="14.1457625"><ele>77.0</ele><time>2026-05-03T12:29:52.271Z</time></trkpt><trkpt lat="42.4967496" lon="14.1455852"><ele>74.5</ele><time>2026-05-03T12:29:53.271Z</time></trkpt><trkpt lat="42.4967532" lon="14.1453942"><ele>72.0</ele><time>2026-05-03T12:29:54.271Z</time></trkpt><trkpt lat="42.496769" lon="14.1452045"><ele>71.5</ele><time>2026-05-03T12:29:55.271Z</time></trkpt><trkpt lat="42.4968022" lon="14.1450293"><ele>71.0</ele><time>2026-05-03T12:29:56.271Z</time></trkpt><trkpt lat="42.4968654" lon="14.1448807"><ele>70.5</ele><time>2026-05-03T12:29:57.271Z</time></trkpt><trkpt lat="42.4969471" lon="14.1447496"><ele>70.0</ele><time>2026-05-03T12:29:58.271Z</time></trkpt><trkpt lat="42.4970456" lon="14.1446396"><ele>67.5</ele><time>2026-05-03T12:29:59.271Z</time></trkpt><trkpt lat="42.4971523" lon="14.1445447"><ele>65.0</ele><time>2026-05-03T12:30:00.271Z</time></trkpt><trkpt lat="42.4972687" lon="14.1444716"><ele>62.5</ele><time>2026-05-03T12:30:01.271Z</time></trkpt><trkpt lat="42.4973872" lon="14.144405"><ele>60.0</ele><time>2026-05-03T12:30:02.271Z</time></trkpt><trkpt lat="42.4975031" lon="14.1443249"><ele>60.0</ele><time>2026-05-03T12:30:03.271Z</time></trkpt><trkpt lat="42.4976147" lon="14.1442119"><ele>60.0</ele><time>2026-05-03T12:30:04.271Z</time></trkpt><trkpt lat="42.4977245" lon="14.144084"><ele>60.0</ele><time>2026-05-03T12:30:05.271Z</time></trkpt><trkpt lat="42.4978194" lon="14.1439487"><ele>60.0</ele><time>2026-05-03T12:30:06.271Z</time></trkpt><trkpt lat="42.4979077" lon="14.1438159"><ele>57.75</ele><time>2026-05-03T12:30:07.271Z</time></trkpt><trkpt lat="42.4979978" lon="14.1436878"><ele>55.5</ele><time>2026-05-03T12:30:08.271Z</time></trkpt><trkpt lat="42.49808" lon="14.1435584"><ele>53.25</ele><time>2026-05-03T12:30:09.271Z</time></trkpt><trkpt lat="42.4981609" lon="14.1434327"><ele>51.0</ele><time>2026-05-03T12:30:10.271Z</time></trkpt><trkpt lat="42.4982333" lon="14.1433118"><ele>53.166666666666664</ele><time>2026-05-03T12:30:11.271Z</time></trkpt><trkpt lat="42.4982985" lon="14.1432026"><ele>55.33333333333333</ele><time>2026-05-03T12:30:12.271Z</time></trkpt><trkpt lat="42.4983547" lon="14.1431099"><ele>57.5</ele><time>2026-05-03T12:30:13.271Z</time></trkpt><trkpt lat="42.4984055" lon="14.1430214"><ele>59.666666666666664</ele><time>2026-05-03T12:30:14.271Z</time></trkpt><trkpt lat="42.4984493" lon="14.1429378"><ele>61.83333333333333</ele><time>2026-05-03T12:30:15.271Z</time></trkpt><trkpt lat="42.4984844" lon="14.1428669"><ele>64.0</ele><time>2026-05-03T12:30:16.271Z</time></trkpt><trkpt lat="42.4985412" lon="14.142759"><ele>64.0</ele><time>2026-05-03T12:30:18.271Z</time></trkpt><trkpt lat="42.4986152" lon="14.1426916"><ele>64.0</ele><time>2026-05-03T12:30:20.271Z</time></trkpt><trkpt lat="42.498695" lon="14.142615"><ele>64.0</ele><time>2026-05-03T12:30:22.271Z</time></trkpt><trkpt lat="42.4987383" lon="14.1425067"><ele>64.0</ele><time>2026-05-03T12:30:23.271Z</time></trkpt><trkpt lat="42.4987783" lon="14.1423633"><ele>64.0</ele><time>2026-05-03T12:30:24.271Z</time></trkpt><trkpt lat="42.498825" lon="14.1422083"><ele>58.75</ele><time>2026-05-03T12:30:25.271Z</time></trkpt><trkpt lat="42.4988783" lon="14.1420717"><ele>53.5</ele><time>2026-05-03T12:30:26.271Z</time></trkpt><trkpt lat="42.4989433" lon="14.141935"><ele>48.25</ele><time>2026-05-03T12:30:27.271Z</time></trkpt><trkpt lat="42.4990117" lon="14.1417967"><ele>43.0</ele><time>2026-05-03T12:30:28.271Z</time></trkpt><trkpt lat="42.4990867" lon="14.1416583"><ele>45.25</ele><time>2026-05-03T12:30:29.272Z</time></trkpt><trkpt lat="42.499165" lon="14.141525"><ele>47.5</ele><time>2026-05-03T12:30:30.271Z</time></trkpt><trkpt lat="42.4992533" lon="14.1413933"><ele>49.75</ele><time>2026-05-03T12:30:31.271Z</time></trkpt><trkpt lat="42.499345" lon="14.1412667"><ele>52.0</ele><time>2026-05-03T12:30:32.271Z</time></trkpt><trkpt lat="42.49944" lon="14.14115"><ele>52.0</ele><time>2026-05-03T12:30:33.272Z</time></trkpt><trkpt lat="42.4995367" lon="14.1410483"><ele>52.0</ele><time>2026-05-03T12:30:34.271Z</time></trkpt><trkpt lat="42.4996333" lon="14.1409533"><ele>52.0</ele><time>2026-05-03T12:30:35.271Z</time></trkpt><trkpt lat="42.4997283" lon="14.1408667"><ele>52.0</ele><time>2026-05-03T12:30:36.271Z</time></trkpt><trkpt lat="42.4998217" lon="14.1407717"><ele>48.75</ele><time>2026-05-03T12:30:37.271Z</time></trkpt><trkpt lat="42.49991" lon="14.1406617"><ele>45.5</ele><time>2026-05-03T12:30:38.271Z</time></trkpt><trkpt lat="42.4999917" lon="14.14055"><ele>42.25</ele><time>2026-05-03T12:30:39.271Z</time></trkpt><trkpt lat="42.5000733" lon="14.1404383"><ele>39.0</ele><time>2026-05-03T12:30:40.271Z</time></trkpt><trkpt lat="42.5001517" lon="14.14032"><ele>39.0</ele><time>2026-05-03T12:30:41.271Z</time></trkpt><trkpt lat="42.5002267" lon="14.1402017"><ele>39.0</ele><time>2026-05-03T12:30:42.271Z</time></trkpt><trkpt lat="42.5003" lon="14.140085"><ele>39.0</ele><time>2026-05-03T12:30:43.271Z</time></trkpt><trkpt lat="42.5003683" lon="14.1399717"><ele>39.0</ele><time>2026-05-03T12:30:44.271Z</time></trkpt><trkpt lat="42.500435" lon="14.13986"><ele>39.0</ele><time>2026-05-03T12:30:45.271Z</time></trkpt><trkpt lat="42.5005033" lon="14.1397483"><ele>36.4</ele><time>2026-05-03T12:30:46.271Z</time></trkpt><trkpt lat="42.5005683" lon="14.1396417"><ele>33.8</ele><time>2026-05-03T12:30:47.271Z</time></trkpt><trkpt lat="42.5006317" lon="14.1395433"><ele>31.200000000000003</ele><time>2026-05-03T12:30:48.271Z</time></trkpt><trkpt lat="42.5006867" lon="14.1394467"><ele>28.6</ele><time>2026-05-03T12:30:49.272Z</time></trkpt><trkpt lat="42.5007383" lon="14.1393417"><ele>26.0</ele><time>2026-05-03T12:30:50.271Z</time></trkpt><trkpt lat="42.5007917" lon="14.13924"><ele>25.999999999999996</ele><time>2026-05-03T12:30:51.271Z</time></trkpt><trkpt lat="42.5008417" lon="14.1391417"><ele>26.0</ele><time>2026-05-03T12:30:52.271Z</time></trkpt><trkpt lat="42.50089" lon="14.139055"><ele>26.0</ele><time>2026-05-03T12:30:53.271Z</time></trkpt><trkpt lat="42.5009383" lon="14.1389617"><ele>26.0</ele><time>2026-05-03T12:30:54.271Z</time></trkpt><trkpt lat="42.5009767" lon="14.1388683"><ele>25.999999999999996</ele><time>2026-05-03T12:30:55.272Z</time></trkpt><trkpt lat="42.501015" lon="14.1387717"><ele>26.0</ele><time>2026-05-03T12:30:56.271Z</time></trkpt><trkpt lat="42.50105" lon="14.1386833"><ele>25.166666666666664</ele><time>2026-05-03T12:30:57.271Z</time></trkpt><trkpt lat="42.5010867" lon="14.1386033"><ele>24.333333333333332</ele><time>2026-05-03T12:30:58.271Z</time></trkpt><trkpt lat="42.5011217" lon="14.1385267"><ele>23.5</ele><time>2026-05-03T12:30:59.271Z</time></trkpt><trkpt lat="42.50116" lon="14.1384383"><ele>22.666666666666664</ele><time>2026-05-03T12:31:00.271Z</time></trkpt><trkpt lat="42.5011983" lon="14.138335"><ele>21.833333333333332</ele><time>2026-05-03T12:31:01.271Z</time></trkpt><trkpt lat="42.5012317" lon="14.1382133"><ele>21.0</ele><time>2026-05-03T12:31:02.271Z</time></trkpt><trkpt lat="42.501265" lon="14.1380767"><ele>19.75</ele><time>2026-05-03T12:31:03.271Z</time></trkpt><trkpt lat="42.5012983" lon="14.1379317"><ele>18.5</ele><time>2026-05-03T12:31:04.271Z</time></trkpt><trkpt lat="42.5013333" lon="14.1377783"><ele>17.25</ele><time>2026-05-03T12:31:05.271Z</time></trkpt><trkpt lat="42.50137" lon="14.1376233"><ele>16.0</ele><time>2026-05-03T12:31:06.271Z</time></trkpt><trkpt lat="42.5014067" lon="14.1374817"><ele>15.600000000000001</ele><time>2026-05-03T12:31:07.271Z</time></trkpt><trkpt lat="42.5014467" lon="14.1373483"><ele>15.200000000000001</ele><time>2026-05-03T12:31:08.271Z</time></trkpt><trkpt lat="42.5014883" lon="14.1372133"><ele>14.799999999999999</ele><time>2026-05-03T12:31:09.271Z</time></trkpt><trkpt lat="42.50153" lon="14.1370733"><ele>14.399999999999999</ele><time>2026-05-03T12:31:10.271Z</time></trkpt><trkpt lat="42.5015683" lon="14.136925"><ele>14.0</ele><time>2026-05-03T12:31:11.271Z</time></trkpt><trkpt lat="42.5016033" lon="14.1367717"><ele>14.0</ele><time>2026-05-03T12:31:12.271Z</time></trkpt><trkpt lat="42.5016417" lon="14.1366233"><ele>13.999999999999998</ele><time>2026-05-03T12:31:13.272Z</time></trkpt><trkpt lat="42.5016717" lon="14.1364767"><ele>13.999999999999998</ele><time>2026-05-03T12:31:14.271Z</time></trkpt><trkpt lat="42.5017017" lon="14.1363467"><ele>14.0</ele><time>2026-05-03T12:31:15.271Z</time></trkpt><trkpt lat="42.5017317" lon="14.1362267"><ele>14.0</ele><time>2026-05-03T12:31:16.271Z</time></trkpt><trkpt lat="42.5017717" lon="14.13611"><ele>14.000000000000002</ele><time>2026-05-03T12:31:17.271Z</time></trkpt><trkpt lat="42.5018" lon="14.135995"><ele>14.0</ele><time>2026-05-03T12:31:18.271Z</time></trkpt><trkpt lat="42.5018233" lon="14.135875"><ele>14.0</ele><time>2026-05-03T12:31:19.271Z</time></trkpt><trkpt lat="42.50185" lon="14.13576"><ele>14.0</ele><time>2026-05-03T12:31:20.271Z</time></trkpt><trkpt lat="42.5018817" lon="14.1356433"><ele>14.000000000000002</ele><time>2026-05-03T12:31:21.272Z</time></trkpt><trkpt lat="42.5019083" lon="14.13554"><ele>14.0</ele><time>2026-05-03T12:31:22.271Z</time></trkpt><trkpt lat="42.5019367" lon="14.1354367"><ele>14.000000000000002</ele><time>2026-05-03T12:31:23.271Z</time></trkpt><trkpt lat="42.501965" lon="14.1353317"><ele>14.0</ele><time>2026-05-03T12:31:24.271Z</time></trkpt><trkpt lat="42.5019933" lon="14.1352317"><ele>14.0</ele><time>2026-05-03T12:31:25.271Z</time></trkpt><trkpt lat="42.5020233" lon="14.1351367"><ele>14.0</ele><time>2026-05-03T12:31:26.271Z</time></trkpt><trkpt lat="42.5020517" lon="14.135045"><ele>14.000000000000002</ele><time>2026-05-03T12:31:27.271Z</time></trkpt><trkpt lat="42.5020983" lon="14.1349167"><ele>14.0</ele><time>2026-05-03T12:31:29.271Z</time></trkpt><trkpt lat="42.5021383" lon="14.1348267"><ele>14.0</ele><time>2026-05-03T12:31:31.271Z</time></trkpt><trkpt lat="42.5022217" lon="14.1347617"><ele>13.999999999999998</ele><time>2026-05-03T12:31:34.272Z</time></trkpt><trkpt lat="42.502325" lon="14.13472"><ele>13.999999999999998</ele><time>2026-05-03T12:31:36.271Z</time></trkpt><trkpt lat="42.5024467" lon="14.13475"><ele>14.0</ele><time>2026-05-03T12:31:38.271Z</time></trkpt><trkpt lat="42.502505" lon="14.1347883"><ele>14.0</ele><time>2026-05-03T12:31:39.272Z</time></trkpt><trkpt lat="42.5025583" lon="14.13484"><ele>14.000000000000002</ele><time>2026-05-03T12:31:40.271Z</time></trkpt><trkpt lat="42.5026133" lon="14.134895"><ele>14.0</ele><time>2026-05-03T12:31:41.271Z</time></trkpt><trkpt lat="42.50266" lon="14.1349533"><ele>14.0</ele><time>2026-05-03T12:31:42.271Z</time></trkpt><trkpt lat="42.502745" lon="14.13504"><ele>14.0</ele><time>2026-05-03T12:31:44.271Z</time></trkpt><trkpt lat="42.5028067" lon="14.1351217"><ele>14.000000000000002</ele><time>2026-05-03T12:31:46.271Z</time></trkpt><trkpt lat="42.502865" lon="14.135185"><ele>14.0</ele><time>2026-05-03T12:31:48.271Z</time></trkpt><trkpt lat="42.5029183" lon="14.13525"><ele>13.833333333333334</ele><time>2026-05-03T12:31:50.271Z</time></trkpt><trkpt lat="42.5029967" lon="14.1353183"><ele>13.666666666666668</ele><time>2026-05-03T12:31:52.271Z</time></trkpt><trkpt lat="42.5031" lon="14.1352867"><ele>13.5</ele><time>2026-05-03T12:31:54.272Z</time></trkpt><trkpt lat="42.5031433" lon="14.1352217"><ele>13.333333333333332</ele><time>2026-05-03T12:31:55.271Z</time></trkpt><trkpt lat="42.5031783" lon="14.1351283"><ele>13.166666666666666</ele><time>2026-05-03T12:31:56.271Z</time></trkpt><trkpt lat="42.503205" lon="14.1350167"><ele>13.0</ele><time>2026-05-03T12:31:57.271Z</time></trkpt><trkpt lat="42.5032333" lon="14.1348867"><ele>13.0</ele><time>2026-05-03T12:31:58.271Z</time></trkpt><trkpt lat="42.5032683" lon="14.134745"><ele>13.0</ele><time>2026-05-03T12:31:59.271Z</time></trkpt><trkpt lat="42.5033033" lon="14.1346"><ele>13.0</ele><time>2026-05-03T12:32:00.271Z</time></trkpt><trkpt lat="42.50334" lon="14.1344517"><ele>13.0</ele><time>2026-05-03T12:32:01.271Z</time></trkpt><trkpt lat="42.5033783" lon="14.13431"><ele>13.0</ele><time>2026-05-03T12:32:02.271Z</time></trkpt><trkpt lat="42.503405" lon="14.1341817"><ele>13.0</ele><time>2026-05-03T12:32:03.271Z</time></trkpt><trkpt lat="42.503435" lon="14.1340583"><ele>13.0</ele><time>2026-05-03T12:32:04.272Z</time></trkpt><trkpt lat="42.5034633" lon="14.1339383"><ele>13.0</ele><time>2026-05-03T12:32:05.271Z</time></trkpt><trkpt lat="42.5034967" lon="14.133815"><ele>13.0</ele><time>2026-05-03T12:32:06.271Z</time></trkpt><trkpt lat="42.503545" lon="14.1337033"><ele>13.0</ele><time>2026-05-03T12:32:07.271Z</time></trkpt><trkpt lat="42.5036083" lon="14.133605"><ele>13.0</ele><time>2026-05-03T12:32:08.271Z</time></trkpt><trkpt lat="42.503695" lon="14.1335233"><ele>13.0</ele><time>2026-05-03T12:32:09.272Z</time></trkpt><trkpt lat="42.503795" lon="14.13345"><ele>13.0</ele><time>2026-05-03T12:32:10.271Z</time></trkpt><trkpt lat="42.503895" lon="14.1333517"><ele>13.0</ele><time>2026-05-03T12:32:11.271Z</time></trkpt><trkpt lat="42.504" lon="14.133255"><ele>13.0</ele><time>2026-05-03T12:32:12.271Z</time></trkpt><trkpt lat="42.5041083" lon="14.1331583"><ele>13.0</ele><time>2026-05-03T12:32:13.271Z</time></trkpt><trkpt lat="42.5042183" lon="14.133055"><ele>13.0</ele><time>2026-05-03T12:32:14.271Z</time></trkpt><trkpt lat="42.504335" lon="14.1329567"><ele>13.0</ele><time>2026-05-03T12:32:15.271Z</time></trkpt><trkpt lat="42.50445" lon="14.1328517"><ele>13.0</ele><time>2026-05-03T12:32:16.271Z</time></trkpt><trkpt lat="42.5045667" lon="14.1327483"><ele>13.0</ele><time>2026-05-03T12:32:17.271Z</time></trkpt><trkpt lat="42.5046783" lon="14.1326417"><ele>13.0</ele><time>2026-05-03T12:32:18.271Z</time></trkpt><trkpt lat="42.5047967" lon="14.13254"><ele>13.0</ele><time>2026-05-03T12:32:19.271Z</time></trkpt><trkpt lat="42.504915" lon="14.1324217"><ele>12.0</ele><time>2026-05-03T12:32:20.271Z</time></trkpt><trkpt lat="42.5050333" lon="14.1323133"><ele>11.0</ele><time>2026-05-03T12:32:21.271Z</time></trkpt><trkpt lat="42.5051533" lon="14.1322133"><ele>10.0</ele><time>2026-05-03T12:32:22.271Z</time></trkpt><trkpt lat="42.50527" lon="14.1321083"><ele>9.0</ele><time>2026-05-03T12:32:23.271Z</time></trkpt><trkpt lat="42.50538" lon="14.1319983"><ele>9.0</ele><time>2026-05-03T12:32:24.271Z</time></trkpt><trkpt lat="42.505485" lon="14.1318867"><ele>9.0</ele><time>2026-05-03T12:32:25.271Z</time></trkpt><trkpt lat="42.5055783" lon="14.1317983"><ele>9.0</ele><time>2026-05-03T12:32:26.271Z</time></trkpt><trkpt lat="42.50567" lon="14.1317167"><ele>9.0</ele><time>2026-05-03T12:32:27.271Z</time></trkpt><trkpt lat="42.5057583" lon="14.1316417"><ele>9.0</ele><time>2026-05-03T12:32:28.271Z</time></trkpt><trkpt lat="42.5058467" lon="14.1315633"><ele>9.0</ele><time>2026-05-03T12:32:29.271Z</time></trkpt><trkpt lat="42.50594" lon="14.13148"><ele>9.0</ele><time>2026-05-03T12:32:30.271Z</time></trkpt><trkpt lat="42.5060267" lon="14.1314"><ele>9.0</ele><time>2026-05-03T12:32:31.271Z</time></trkpt><trkpt lat="42.5061083" lon="14.1313217"><ele>9.0</ele><time>2026-05-03T12:32:32.271Z</time></trkpt><trkpt lat="42.5061917" lon="14.1312367"><ele>9.0</ele><time>2026-05-03T12:32:33.272Z</time></trkpt><trkpt lat="42.50628" lon="14.1311567"><ele>9.0</ele><time>2026-05-03T12:32:34.272Z</time></trkpt><trkpt lat="42.5063783" lon="14.1310983"><ele>9.0</ele><time>2026-05-03T12:32:35.271Z</time></trkpt><trkpt lat="42.50648" lon="14.131045"><ele>9.0</ele><time>2026-05-03T12:32:36.271Z</time></trkpt><trkpt lat="42.5065833" lon="14.13099"><ele>9.0</ele><time>2026-05-03T12:32:37.271Z</time></trkpt><trkpt lat="42.5066917" lon="14.13093"><ele>9.0</ele><time>2026-05-03T12:32:38.271Z</time></trkpt><trkpt lat="42.5068017" lon="14.1308783"><ele>9.0</ele><time>2026-05-03T12:32:39.271Z</time></trkpt><trkpt lat="42.5069117" lon="14.1308267"><ele>9.0</ele><time>2026-05-03T12:32:40.271Z</time></trkpt><trkpt lat="42.5070267" lon="14.1307733"><ele>9.0</ele><time>2026-05-03T12:32:41.271Z</time></trkpt><trkpt lat="42.50715" lon="14.13074"><ele>9.75</ele><time>2026-05-03T12:32:42.271Z</time></trkpt><trkpt lat="42.5072667" lon="14.1307"><ele>10.5</ele><time>2026-05-03T12:32:43.271Z</time></trkpt><trkpt lat="42.5073817" lon="14.1306683"><ele>11.25</ele><time>2026-05-03T12:32:44.271Z</time></trkpt><trkpt lat="42.5074867" lon="14.1306283"><ele>12.0</ele><time>2026-05-03T12:32:45.271Z</time></trkpt><trkpt lat="42.5075917" lon="14.1305867"><ele>12.0</ele><time>2026-05-03T12:32:46.271Z</time></trkpt><trkpt lat="42.5076867" lon="14.1305417"><ele>12.0</ele><time>2026-05-03T12:32:47.272Z</time></trkpt><trkpt lat="42.50778" lon="14.1304867"><ele>12.0</ele><time>2026-05-03T12:32:48.271Z</time></trkpt><trkpt lat="42.5078733" lon="14.130425"><ele>12.0</ele><time>2026-05-03T12:32:49.271Z</time></trkpt><trkpt lat="42.5079617" lon="14.1303567"><ele>12.0</ele><time>2026-05-03T12:32:50.271Z</time></trkpt><trkpt lat="42.5080483" lon="14.13029"><ele>12.0</ele><time>2026-05-03T12:32:51.271Z</time></trkpt><trkpt lat="42.50813" lon="14.130235"><ele>12.0</ele><time>2026-05-03T12:32:52.271Z</time></trkpt><trkpt lat="42.5082067" lon="14.1301817"><ele>12.0</ele><time>2026-05-03T12:32:53.271Z</time></trkpt><trkpt lat="42.5082833" lon="14.1301217"><ele>12.0</ele><time>2026-05-03T12:32:54.271Z</time></trkpt><trkpt lat="42.508365" lon="14.13006"><ele>12.0</ele><time>2026-05-03T12:32:55.271Z</time></trkpt><trkpt lat="42.5084433" lon="14.1299983"><ele>12.0</ele><time>2026-05-03T12:32:56.271Z</time></trkpt><trkpt lat="42.5085217" lon="14.1299333"><ele>12.0</ele><time>2026-05-03T12:32:57.271Z</time></trkpt><trkpt lat="42.5086033" lon="14.1298633"><ele>12.0</ele><time>2026-05-03T12:32:58.271Z</time></trkpt><trkpt lat="42.5086833" lon="14.1297933"><ele>12.0</ele><time>2026-05-03T12:32:59.272Z</time></trkpt><trkpt lat="42.5087683" lon="14.1297417"><ele>12.0</ele><time>2026-05-03T12:33:00.271Z</time></trkpt><trkpt lat="42.508855" lon="14.1297333"><ele>11.0</ele><time>2026-05-03T12:33:01.271Z</time></trkpt><trkpt lat="42.5089417" lon="14.1297583"><ele>10.0</ele><time>2026-05-03T12:33:02.271Z</time></trkpt><trkpt lat="42.50903" lon="14.1298033"><ele>9.0</ele><time>2026-05-03T12:33:03.271Z</time></trkpt><trkpt lat="42.5091133" lon="14.1298967"><ele>8.0</ele><time>2026-05-03T12:33:04.272Z</time></trkpt><trkpt lat="42.5092033" lon="14.1300133"><ele>7.0</ele><time>2026-05-03T12:33:05.272Z</time></trkpt><trkpt lat="42.50929" lon="14.1301483"><ele>7.0</ele><time>2026-05-03T12:33:06.271Z</time></trkpt><trkpt lat="42.509385" lon="14.13029"><ele>7.0</ele><time>2026-05-03T12:33:07.271Z</time></trkpt><trkpt lat="42.509485" lon="14.130445"><ele>7.0</ele><time>2026-05-03T12:33:08.271Z</time></trkpt><trkpt lat="42.509595" lon="14.1306133"><ele>6.333333333333334</ele><time>2026-05-03T12:33:09.271Z</time></trkpt><trkpt lat="42.50971" lon="14.130785"><ele>5.666666666666667</ele><time>2026-05-03T12:33:10.271Z</time></trkpt><trkpt lat="42.5098217" lon="14.1309567"><ele>5.0</ele><time>2026-05-03T12:33:11.271Z</time></trkpt><trkpt lat="42.50994" lon="14.1311267"><ele>5.0</ele><time>2026-05-03T12:33:12.271Z</time></trkpt><trkpt lat="42.5100533" lon="14.1312983"><ele>5.0</ele><time>2026-05-03T12:33:13.271Z</time></trkpt><trkpt lat="42.510155" lon="14.1314717"><ele>5.0</ele><time>2026-05-03T12:33:14.271Z</time></trkpt><trkpt lat="42.51025" lon="14.13165"><ele>5.333333333333334</ele><time>2026-05-03T12:33:15.271Z</time></trkpt><trkpt lat="42.510345" lon="14.1318367"><ele>5.666666666666667</ele><time>2026-05-03T12:33:16.271Z</time></trkpt><trkpt lat="42.5104383" lon="14.1320183"><ele>6.0</ele><time>2026-05-03T12:33:17.271Z</time></trkpt><trkpt lat="42.510535" lon="14.1322"><ele>6.0</ele><time>2026-05-03T12:33:18.271Z</time></trkpt><trkpt lat="42.5106283" lon="14.13237"><ele>6.0</ele><time>2026-05-03T12:33:19.272Z</time></trkpt><trkpt lat="42.5107233" lon="14.1325417"><ele>6.0</ele><time>2026-05-03T12:33:20.271Z</time></trkpt><trkpt lat="42.5108183" lon="14.1327167"><ele>6.0</ele><time>2026-05-03T12:33:21.271Z</time></trkpt><trkpt lat="42.5109133" lon="14.1328867"><ele>6.0</ele><time>2026-05-03T12:33:22.271Z</time></trkpt><trkpt lat="42.51101" lon="14.13306"><ele>6.0</ele><time>2026-05-03T12:33:23.271Z</time></trkpt><trkpt lat="42.5111083" lon="14.133225"><ele>6.333333333333334</ele><time>2026-05-03T12:33:24.271Z</time></trkpt><trkpt lat="42.5112017" lon="14.1333833"><ele>6.666666666666667</ele><time>2026-05-03T12:33:25.272Z</time></trkpt><trkpt lat="42.5112917" lon="14.1335467"><ele>7.0</ele><time>2026-05-03T12:33:26.271Z</time></trkpt><trkpt lat="42.5113833" lon="14.1337117"><ele>6.333333333333334</ele><time>2026-05-03T12:33:27.271Z</time></trkpt><trkpt lat="42.5114667" lon="14.133885"><ele>5.666666666666667</ele><time>2026-05-03T12:33:28.271Z</time></trkpt><trkpt lat="42.51155" lon="14.1340583"><ele>5.0</ele><time>2026-05-03T12:33:29.271Z</time></trkpt><trkpt lat="42.51164" lon="14.134215"><ele>5.0</ele><time>2026-05-03T12:33:30.271Z</time></trkpt><trkpt lat="42.5117417" lon="14.13435"><ele>5.0</ele><time>2026-05-03T12:33:31.271Z</time></trkpt><trkpt lat="42.5118517" lon="14.1344633"><ele>5.0</ele><time>2026-05-03T12:33:32.271Z</time></trkpt><trkpt lat="42.5119767" lon="14.134565"><ele>5.0</ele><time>2026-05-03T12:33:33.271Z</time></trkpt><trkpt lat="42.5121083" lon="14.13466"><ele>4.5</ele><time>2026-05-03T12:33:34.271Z</time></trkpt><trkpt lat="42.5122417" lon="14.1347483"><ele>4.0</ele><time>2026-05-03T12:33:35.271Z</time></trkpt><trkpt lat="42.5123733" lon="14.1348333"><ele>3.5</ele><time>2026-05-03T12:33:36.271Z</time></trkpt><trkpt lat="42.5125033" lon="14.134915"><ele>3.0</ele><time>2026-05-03T12:33:37.271Z</time></trkpt><trkpt lat="42.5126333" lon="14.135005"><ele>3.0</ele><time>2026-05-03T12:33:38.271Z</time></trkpt><trkpt lat="42.51276" lon="14.1351017"><ele>3.0</ele><time>2026-05-03T12:33:39.271Z</time></trkpt><trkpt lat="42.5128783" lon="14.1352117"><ele>3.0</ele><time>2026-05-03T12:33:40.271Z</time></trkpt><trkpt lat="42.5129833" lon="14.1353417"><ele>3.0</ele><time>2026-05-03T12:33:41.271Z</time></trkpt><trkpt lat="42.5130717" lon="14.1354867"><ele>3.0</ele><time>2026-05-03T12:33:42.271Z</time></trkpt><trkpt lat="42.5131517" lon="14.1356467"><ele>3.0</ele><time>2026-05-03T12:33:43.271Z</time></trkpt><trkpt lat="42.5132217" lon="14.1358033"><ele>3.0</ele><time>2026-05-03T12:33:44.271Z</time></trkpt><trkpt lat="42.5132817" lon="14.135965"><ele>3.0</ele><time>2026-05-03T12:33:45.271Z</time></trkpt><trkpt lat="42.5133333" lon="14.1361367"><ele>3.0</ele><time>2026-05-03T12:33:46.271Z</time></trkpt><trkpt lat="42.5133683" lon="14.13631"><ele>3.0</ele><time>2026-05-03T12:33:47.271Z</time></trkpt><trkpt lat="42.513405" lon="14.1364817"><ele>3.0</ele><time>2026-05-03T12:33:48.271Z</time></trkpt><trkpt lat="42.5134383" lon="14.1366367"><ele>3.0</ele><time>2026-05-03T12:33:49.271Z</time></trkpt><trkpt lat="42.5134767" lon="14.1367733"><ele>3.1666666666666665</ele><time>2026-05-03T12:33:50.271Z</time></trkpt><trkpt lat="42.5135167" lon="14.136895"><ele>3.333333333333333</ele><time>2026-05-03T12:33:51.271Z</time></trkpt><trkpt lat="42.5135533" lon="14.1370033"><ele>3.5</ele><time>2026-05-03T12:33:52.271Z</time></trkpt><trkpt lat="42.513585" lon="14.1370883"><ele>3.6666666666666665</ele><time>2026-05-03T12:33:53.271Z</time></trkpt><trkpt lat="42.513615" lon="14.1371667"><ele>3.833333333333333</ele><time>2026-05-03T12:33:54.271Z</time></trkpt><trkpt lat="42.5136567" lon="14.1373083"><ele>4.0</ele><time>2026-05-03T12:33:56.271Z</time></trkpt><trkpt lat="42.5137033" lon="14.1374183"><ele>4.4</ele><time>2026-05-03T12:33:58.271Z</time></trkpt><trkpt lat="42.5137383" lon="14.137585"><ele>4.800000000000001</ele><time>2026-05-03T12:34:00.271Z</time></trkpt><trkpt lat="42.5137417" lon="14.137685"><ele>5.199999999999999</ele><time>2026-05-03T12:34:01.271Z</time></trkpt><trkpt lat="42.5137333" lon="14.1377983"><ele>5.6</ele><time>2026-05-03T12:34:02.271Z</time></trkpt><trkpt lat="42.5137033" lon="14.1379167"><ele>6.0</ele><time>2026-05-03T12:34:03.271Z</time></trkpt><trkpt lat="42.51366" lon="14.1380417"><ele>6.0</ele><time>2026-05-03T12:34:04.271Z</time></trkpt><trkpt lat="42.5136017" lon="14.1381733"><ele>6.0</ele><time>2026-05-03T12:34:05.271Z</time></trkpt><trkpt lat="42.5135367" lon="14.1383133"><ele>6.0</ele><time>2026-05-03T12:34:06.271Z</time></trkpt><trkpt lat="42.5134733" lon="14.1384617"><ele>6.0</ele><time>2026-05-03T12:34:07.271Z</time></trkpt><trkpt lat="42.5134183" lon="14.1386217"><ele>5.75</ele><time>2026-05-03T12:34:08.271Z</time></trkpt><trkpt lat="42.51336" lon="14.13879"><ele>5.5</ele><time>2026-05-03T12:34:09.271Z</time></trkpt><trkpt lat="42.5132883" lon="14.1389617"><ele>5.25</ele><time>2026-05-03T12:34:10.271Z</time></trkpt><trkpt lat="42.51322" lon="14.1391333"><ele>5.0</ele><time>2026-05-03T12:34:11.271Z</time></trkpt><trkpt lat="42.5131413" lon="14.1393222"><ele>5.25</ele><time>2026-05-03T12:34:12.271Z</time></trkpt><trkpt lat="42.5130672" lon="14.1395064"><ele>5.5</ele><time>2026-05-03T12:34:13.271Z</time></trkpt><trkpt lat="42.513003" lon="14.1396827"><ele>5.75</ele><time>2026-05-03T12:34:14.272Z</time></trkpt><trkpt lat="42.5129421" lon="14.1398477"><ele>6.0</ele><time>2026-05-03T12:34:15.271Z</time></trkpt><trkpt lat="42.5128825" lon="14.1400051"><ele>6.0</ele><time>2026-05-03T12:34:16.271Z</time></trkpt><trkpt lat="42.512825" lon="14.1401661"><ele>6.0</ele><time>2026-05-03T12:34:17.271Z</time></trkpt><trkpt lat="42.5127693" lon="14.1403275"><ele>6.0</ele><time>2026-05-03T12:34:18.271Z</time></trkpt><trkpt lat="42.512712" lon="14.1404874"><ele>6.0</ele><time>2026-05-03T12:34:19.271Z</time></trkpt><trkpt lat="42.5126563" lon="14.1406355"><ele>6.4</ele><time>2026-05-03T12:34:20.271Z</time></trkpt><trkpt lat="42.5126059" lon="14.1407723"><ele>6.8</ele><time>2026-05-03T12:34:21.271Z</time></trkpt><trkpt lat="42.5125568" lon="14.1409015"><ele>7.200000000000001</ele><time>2026-05-03T12:34:22.271Z</time></trkpt><trkpt lat="42.5125078" lon="14.1410236"><ele>7.6000000000000005</ele><time>2026-05-03T12:34:23.271Z</time></trkpt><trkpt lat="42.5124633" lon="14.1411435"><ele>8.0</ele><time>2026-05-03T12:34:24.271Z</time></trkpt><trkpt lat="42.5124342" lon="14.1412501"><ele>8.0</ele><time>2026-05-03T12:34:25.271Z</time></trkpt><trkpt lat="42.5124265" lon="14.1413542"><ele>8.0</ele><time>2026-05-03T12:34:26.271Z</time></trkpt><trkpt lat="42.5124839" lon="14.1414941"><ele>8.0</ele><time>2026-05-03T12:34:28.271Z</time></trkpt><trkpt lat="42.5125682" lon="14.1415181"><ele>8.0</ele><time>2026-05-03T12:34:29.271Z</time></trkpt><trkpt lat="42.5126676" lon="14.1415165"><ele>8.0</ele><time>2026-05-03T12:34:30.271Z</time></trkpt><trkpt lat="42.5127789" lon="14.1414875"><ele>8.0</ele><time>2026-05-03T12:34:31.271Z</time></trkpt><trkpt lat="42.5128977" lon="14.1414577"><ele>8.0</ele><time>2026-05-03T12:34:32.271Z</time></trkpt><trkpt lat="42.5130187" lon="14.1414333"><ele>8.0</ele><time>2026-05-03T12:34:33.271Z</time></trkpt><trkpt lat="42.5131499" lon="14.1414339"><ele>8.0</ele><time>2026-05-03T12:34:34.271Z</time></trkpt><trkpt lat="42.5132885" lon="14.1414607"><ele>7.5</ele><time>2026-05-03T12:34:35.271Z</time></trkpt><trkpt lat="42.5134137" lon="14.1415"><ele>7.0</ele><time>2026-05-03T12:34:36.271Z</time></trkpt><trkpt lat="42.5135286" lon="14.1415575"><ele>6.5</ele><time>2026-05-03T12:34:37.271Z</time></trkpt><trkpt lat="42.5136413" lon="14.1416289"><ele>6.0</ele><time>2026-05-03T12:34:38.271Z</time></trkpt><trkpt lat="42.5137438" lon="14.1417"><ele>5.3999999999999995</ele><time>2026-05-03T12:34:39.271Z</time></trkpt><trkpt lat="42.5138401" lon="14.141771"><ele>4.8</ele><time>2026-05-03T12:34:40.271Z</time></trkpt><trkpt lat="42.513927" lon="14.1418337"><ele>4.199999999999999</ele><time>2026-05-03T12:34:41.271Z</time></trkpt><trkpt lat="42.5140062" lon="14.1418889"><ele>3.5999999999999996</ele><time>2026-05-03T12:34:42.271Z</time></trkpt><trkpt lat="42.5140787" lon="14.1419447"><ele>3.0</ele><time>2026-05-03T12:34:43.271Z</time></trkpt><trkpt lat="42.5141394" lon="14.1420091"><ele>2.9999999999999996</ele><time>2026-05-03T12:34:44.271Z</time></trkpt><trkpt lat="42.5141833" lon="14.1420717"><ele>3.0</ele><time>2026-05-03T12:34:45.271Z</time></trkpt><trkpt lat="42.5142283" lon="14.1421467"><ele>3.0</ele><time>2026-05-03T12:34:46.271Z</time></trkpt><trkpt lat="42.514265" lon="14.1422383"><ele>3.0</ele><time>2026-05-03T12:34:47.271Z</time></trkpt><trkpt lat="42.5142983" lon="14.1423367"><ele>3.0</ele><time>2026-05-03T12:34:48.271Z</time></trkpt><trkpt lat="42.5143383" lon="14.1424217"><ele>2.9999999999999996</ele><time>2026-05-03T12:34:49.271Z</time></trkpt><trkpt lat="42.5143917" lon="14.1424733"><ele>3.0</ele><time>2026-05-03T12:34:50.271Z</time></trkpt><trkpt lat="42.5145083" lon="14.1424633"><ele>2.8333333333333335</ele><time>2026-05-03T12:34:52.271Z</time></trkpt><trkpt lat="42.5145767" lon="14.1424167"><ele>2.6666666666666665</ele><time>2026-05-03T12:34:53.271Z</time></trkpt><trkpt lat="42.5146483" lon="14.1423933"><ele>2.5</ele><time>2026-05-03T12:34:54.271Z</time></trkpt><trkpt lat="42.5147317" lon="14.142415"><ele>2.333333333333333</ele><time>2026-05-03T12:34:55.271Z</time></trkpt><trkpt lat="42.514805" lon="14.1424767"><ele>2.1666666666666665</ele><time>2026-05-03T12:34:56.271Z</time></trkpt><trkpt lat="42.5148933" lon="14.142555"><ele>2.0</ele><time>2026-05-03T12:34:57.271Z</time></trkpt><trkpt lat="42.5150033" lon="14.1426367"><ele>2.0</ele><time>2026-05-03T12:34:58.271Z</time></trkpt><trkpt lat="42.51512" lon="14.1427117"><ele>2.0</ele><time>2026-05-03T12:34:59.271Z</time></trkpt><trkpt lat="42.5152367" lon="14.1427967"><ele>2.0</ele><time>2026-05-03T12:35:00.272Z</time></trkpt><trkpt lat="42.5153583" lon="14.1428817"><ele>2.0</ele><time>2026-05-03T12:35:01.271Z</time></trkpt><trkpt lat="42.5154783" lon="14.1429717"><ele>2.25</ele><time>2026-05-03T12:35:02.271Z</time></trkpt><trkpt lat="42.5156083" lon="14.1430517"><ele>2.5</ele><time>2026-05-03T12:35:03.271Z</time></trkpt><trkpt lat="42.51573" lon="14.14313"><ele>2.75</ele><time>2026-05-03T12:35:04.271Z</time></trkpt><trkpt lat="42.5158483" lon="14.143225"><ele>3.0</ele><time>2026-05-03T12:35:05.271Z</time></trkpt><trkpt lat="42.5159717" lon="14.1433167"><ele>3.333333333333333</ele><time>2026-05-03T12:35:06.271Z</time></trkpt><trkpt lat="42.5161083" lon="14.1434233"><ele>3.6666666666666665</ele><time>2026-05-03T12:35:07.271Z</time></trkpt><trkpt lat="42.5162483" lon="14.1435233"><ele>4.0</ele><time>2026-05-03T12:35:08.272Z</time></trkpt><trkpt lat="42.5163867" lon="14.1436267"><ele>4.666666666666666</ele><time>2026-05-03T12:35:09.271Z</time></trkpt><trkpt lat="42.516525" lon="14.1437217"><ele>5.333333333333333</ele><time>2026-05-03T12:35:10.271Z</time></trkpt><trkpt lat="42.5166567" lon="14.143815"><ele>6.0</ele><time>2026-05-03T12:35:11.271Z</time></trkpt><trkpt lat="42.51679" lon="14.1439133"><ele>6.0</ele><time>2026-05-03T12:35:12.271Z</time></trkpt><trkpt lat="42.5169233" lon="14.1440117"><ele>6.0</ele><time>2026-05-03T12:35:13.271Z</time></trkpt><trkpt lat="42.5170583" lon="14.1441133"><ele>6.0</ele><time>2026-05-03T12:35:14.271Z</time></trkpt><trkpt lat="42.517195" lon="14.1442133"><ele>5.0</ele><time>2026-05-03T12:35:15.271Z</time></trkpt><trkpt lat="42.5173333" lon="14.1443183"><ele>4.0</ele><time>2026-05-03T12:35:16.271Z</time></trkpt><trkpt lat="42.517475" lon="14.1444267"><ele>3.0</ele><time>2026-05-03T12:35:17.271Z</time></trkpt><trkpt lat="42.51763" lon="14.14453"><ele>3.0</ele><time>2026-05-03T12:35:18.271Z</time></trkpt><trkpt lat="42.5177917" lon="14.1446333"><ele>3.0</ele><time>2026-05-03T12:35:19.271Z</time></trkpt><trkpt lat="42.51795" lon="14.1447467"><ele>3.0</ele><time>2026-05-03T12:35:20.271Z</time></trkpt><trkpt lat="42.5181117" lon="14.144865"><ele>3.0</ele><time>2026-05-03T12:35:21.271Z</time></trkpt><trkpt lat="42.5182683" lon="14.144985"><ele>3.0</ele><time>2026-05-03T12:35:22.271Z</time></trkpt><trkpt lat="42.5184333" lon="14.145095"><ele>3.0</ele><time>2026-05-03T12:35:23.271Z</time></trkpt><trkpt lat="42.51859" lon="14.1452117"><ele>3.0</ele><time>2026-05-03T12:35:24.271Z</time></trkpt><trkpt lat="42.51873" lon="14.14532"><ele>3.0</ele><time>2026-05-03T12:35:25.271Z</time></trkpt><trkpt lat="42.5188717" lon="14.1454167"><ele>3.0</ele><time>2026-05-03T12:35:26.271Z</time></trkpt><trkpt lat="42.5189983" lon="14.1455017"><ele>3.0</ele><time>2026-05-03T12:35:27.271Z</time></trkpt><trkpt lat="42.5191267" lon="14.1455817"><ele>3.0</ele><time>2026-05-03T12:35:28.271Z</time></trkpt><trkpt lat="42.519235" lon="14.1456567"><ele>3.0</ele><time>2026-05-03T12:35:29.271Z</time></trkpt><trkpt lat="42.5193267" lon="14.1457217"><ele>3.0</ele><time>2026-05-03T12:35:30.271Z</time></trkpt><trkpt lat="42.5193983" lon="14.1457733"><ele>3.0</ele><time>2026-05-03T12:35:31.271Z</time></trkpt><trkpt lat="42.519455" lon="14.1458317"><ele>3.4</ele><time>2026-05-03T12:35:32.271Z</time></trkpt><trkpt lat="42.5195233" lon="14.1459267"><ele>3.8</ele><time>2026-05-03T12:35:34.271Z</time></trkpt><trkpt lat="42.519565" lon="14.1460033"><ele>4.2</ele><time>2026-05-03T12:35:36.271Z</time></trkpt><trkpt lat="42.51956" lon="14.14611"><ele>4.6</ele><time>2026-05-03T12:35:38.271Z</time></trkpt><trkpt lat="42.5194917" lon="14.1462617"><ele>5.0</ele><time>2026-05-03T12:35:40.271Z</time></trkpt><trkpt lat="42.51944" lon="14.146355"><ele>5.0</ele><time>2026-05-03T12:35:41.271Z</time></trkpt><trkpt lat="42.5193683" lon="14.1464633"><ele>5.0</ele><time>2026-05-03T12:35:42.271Z</time></trkpt><trkpt lat="42.5192817" lon="14.1465667"><ele>5.0</ele><time>2026-05-03T12:35:43.271Z</time></trkpt><trkpt lat="42.5192017" lon="14.1466783"><ele>5.0</ele><time>2026-05-03T12:35:44.271Z</time></trkpt><trkpt lat="42.5191383" lon="14.1467733"><ele>5.0</ele><time>2026-05-03T12:35:45.272Z</time></trkpt><trkpt lat="42.5190933" lon="14.1468533"><ele>4.666666666666667</ele><time>2026-05-03T12:35:46.271Z</time></trkpt><trkpt lat="42.51907" lon="14.147005"><ele>4.333333333333334</ele><time>2026-05-03T12:35:48.271Z</time></trkpt><trkpt lat="42.5190833" lon="14.1470983"><ele>4.0</ele><time>2026-05-03T12:35:49.271Z</time></trkpt><trkpt lat="42.5191217" lon="14.1471717"><ele>3.666666666666667</ele><time>2026-05-03T12:35:50.271Z</time></trkpt><trkpt lat="42.5191767" lon="14.147215"><ele>3.3333333333333335</ele><time>2026-05-03T12:35:51.271Z</time></trkpt><trkpt lat="42.51923" lon="14.1472717"><ele>3.0</ele><time>2026-05-03T12:35:52.271Z</time></trkpt><trkpt lat="42.51933" lon="14.14733"><ele>3.0</ele><time>2026-05-03T12:35:53.271Z</time></trkpt><trkpt lat="42.5194567" lon="14.1474283"><ele>3.0</ele><time>2026-05-03T12:35:54.271Z</time></trkpt><trkpt lat="42.5195667" lon="14.14755"><ele>3.0</ele><time>2026-05-03T12:35:55.271Z</time></trkpt><trkpt lat="42.5196633" lon="14.14769"><ele>3.0</ele><time>2026-05-03T12:35:56.271Z</time></trkpt><trkpt lat="42.5197617" lon="14.1478367"><ele>2.75</ele><time>2026-05-03T12:35:57.271Z</time></trkpt><trkpt lat="42.519845" lon="14.1479883"><ele>2.5</ele><time>2026-05-03T12:35:58.271Z</time></trkpt><trkpt lat="42.5199317" lon="14.1481517"><ele>2.25</ele><time>2026-05-03T12:35:59.271Z</time></trkpt><trkpt lat="42.5200067" lon="14.1483283"><ele>2.0</ele><time>2026-05-03T12:36:00.271Z</time></trkpt><trkpt lat="42.520075" lon="14.148515"><ele>2.0</ele><time>2026-05-03T12:36:01.271Z</time></trkpt><trkpt lat="42.520135" lon="14.1486967"><ele>2.0</ele><time>2026-05-03T12:36:02.271Z</time></trkpt><trkpt lat="42.5202067" lon="14.1488817"><ele>2.0</ele><time>2026-05-03T12:36:03.271Z</time></trkpt><trkpt lat="42.5202617" lon="14.149065"><ele>2.0</ele><time>2026-05-03T12:36:04.271Z</time></trkpt><trkpt lat="42.5203217" lon="14.1492483"><ele>2.0</ele><time>2026-05-03T12:36:05.271Z</time></trkpt><trkpt lat="42.520375" lon="14.1494067"><ele>2.0</ele><time>2026-05-03T12:36:06.271Z</time></trkpt><trkpt lat="42.52043" lon="14.1495567"><ele>2.0</ele><time>2026-05-03T12:36:07.271Z</time></trkpt><trkpt lat="42.5204783" lon="14.14971"><ele>2.0</ele><time>2026-05-03T12:36:08.271Z</time></trkpt><trkpt lat="42.5205317" lon="14.1498583"><ele>2.25</ele><time>2026-05-03T12:36:09.271Z</time></trkpt><trkpt lat="42.520585" lon="14.1500033"><ele>2.5</ele><time>2026-05-03T12:36:10.271Z</time></trkpt><trkpt lat="42.5206317" lon="14.1501383"><ele>2.75</ele><time>2026-05-03T12:36:11.271Z</time></trkpt><trkpt lat="42.5206817" lon="14.15028"><ele>3.0</ele><time>2026-05-03T12:36:12.271Z</time></trkpt><trkpt lat="42.5207367" lon="14.150425"><ele>3.0</ele><time>2026-05-03T12:36:13.271Z</time></trkpt><trkpt lat="42.52078" lon="14.15056"><ele>3.0</ele><time>2026-05-03T12:36:14.271Z</time></trkpt><trkpt lat="42.52083" lon="14.1507033"><ele>3.0</ele><time>2026-05-03T12:36:15.271Z</time></trkpt><trkpt lat="42.520885" lon="14.1508517"><ele>3.0</ele><time>2026-05-03T12:36:16.271Z</time></trkpt><trkpt lat="42.5209383" lon="14.15101"><ele>2.8</ele><time>2026-05-03T12:36:17.271Z</time></trkpt><trkpt lat="42.5209817" lon="14.1511633"><ele>2.5999999999999996</ele><time>2026-05-03T12:36:18.271Z</time></trkpt><trkpt lat="42.5210283" lon="14.15129"><ele>2.4000000000000004</ele><time>2026-05-03T12:36:19.271Z</time></trkpt><trkpt lat="42.5210733" lon="14.1514217"><ele>2.2</ele><time>2026-05-03T12:36:20.271Z</time></trkpt><trkpt lat="42.5211117" lon="14.151545"><ele>2.0</ele><time>2026-05-03T12:36:21.271Z</time></trkpt><trkpt lat="42.5211533" lon="14.1516567"><ele>1.9999999999999998</ele><time>2026-05-03T12:36:22.271Z</time></trkpt><trkpt lat="42.52119" lon="14.1517467"><ele>2.0</ele><time>2026-05-03T12:36:23.272Z</time></trkpt><trkpt lat="42.52122" lon="14.151825"><ele>2.0</ele><time>2026-05-03T12:36:24.271Z</time></trkpt><trkpt lat="42.5212667" lon="14.1519567"><ele>2.0</ele><time>2026-05-03T12:36:26.271Z</time></trkpt><trkpt lat="42.5213133" lon="14.1520617"><ele>1.9999999999999998</ele><time>2026-05-03T12:36:28.271Z</time></trkpt><trkpt lat="42.5213617" lon="14.15219"><ele>2.0</ele><time>2026-05-03T12:36:30.271Z</time></trkpt><trkpt lat="42.52139" lon="14.1522883"><ele>1.25</ele><time>2026-05-03T12:36:31.271Z</time></trkpt><trkpt lat="42.5214283" lon="14.1524083"><ele>0.5</ele><time>2026-05-03T12:36:32.271Z</time></trkpt><trkpt lat="42.5214733" lon="14.1525617"><ele>-0.25</ele><time>2026-05-03T12:36:33.271Z</time></trkpt><trkpt lat="42.521525" lon="14.1527183"><ele>-1.0</ele><time>2026-05-03T12:36:34.271Z</time></trkpt><trkpt lat="42.5215717" lon="14.1528717"><ele>-1.0</ele><time>2026-05-03T12:36:35.271Z</time></trkpt><trkpt lat="42.521625" lon="14.153025"><ele>-1.0</ele><time>2026-05-03T12:36:36.271Z</time></trkpt><trkpt lat="42.5216733" lon="14.153165"><ele>-1.0</ele><time>2026-05-03T12:36:37.272Z</time></trkpt><trkpt lat="42.52172" lon="14.15329"><ele>-1.0</ele><time>2026-05-03T12:36:38.271Z</time></trkpt><trkpt lat="42.5217633" lon="14.153405"><ele>-1.0</ele><time>2026-05-03T12:36:39.271Z</time></trkpt><trkpt lat="42.5217983" lon="14.153505"><ele>-0.8</ele><time>2026-05-03T12:36:40.271Z</time></trkpt><trkpt lat="42.521835" lon="14.1535917"><ele>-0.6000000000000001</ele><time>2026-05-03T12:36:41.271Z</time></trkpt><trkpt lat="42.52192" lon="14.1536583"><ele>-0.4</ele><time>2026-05-03T12:36:43.271Z</time></trkpt><trkpt lat="42.5220133" lon="14.1536267"><ele>-0.2</ele><time>2026-05-03T12:36:45.271Z</time></trkpt><trkpt lat="42.5221267" lon="14.15353"><ele>0.0</ele><time>2026-05-03T12:36:47.271Z</time></trkpt><trkpt lat="42.522225" lon="14.153435"><ele>0.3333333333333333</ele><time>2026-05-03T12:36:49.271Z</time></trkpt><trkpt lat="42.522285" lon="14.153345"><ele>0.6666666666666666</ele><time>2026-05-03T12:36:51.271Z</time></trkpt><trkpt lat="42.522285" lon="14.153255"><ele>1.0</ele><time>2026-05-03T12:36:53.271Z</time></trkpt><trkpt lat="42.5222917" lon="14.1531483"><ele>1.3333333333333333</ele><time>2026-05-03T12:36:56.271Z</time></trkpt><trkpt lat="42.5223383" lon="14.1530783"><ele>1.6666666666666665</ele><time>2026-05-03T12:36:58.271Z</time></trkpt><trkpt lat="42.522355" lon="14.1529617"><ele>2.0</ele><time>2026-05-03T12:37:01.271Z</time></trkpt><trkpt lat="42.5223233" lon="14.15287"><ele>2.0</ele><time>2026-05-03T12:37:03.271Z</time></trkpt><trkpt lat="42.52228" lon="14.1527867"><ele>2.0</ele><time>2026-05-03T12:37:05.271Z</time></trkpt><trkpt lat="42.522245" lon="14.1526883"><ele>2.0</ele><time>2026-05-03T12:37:16.271Z</time></trkpt><trkpt lat="42.5222883" lon="14.1526183"><ele>2.0</ele><time>2026-05-03T12:37:26.271Z</time></trkpt></trkseg></trk></gpx>